<?xml version='1.0' encoding='UTF-8'?><gpx version="1.1" creator="JPX - https://github.com/jenetics/jpx" xmlns="http://www.topografix.com/GPX/1/1"><trk><trkseg><trkpt lat="42.0899493" lon="11.7928881"><ele>8.0</ele><time>2026-04-19T06:50:09.524Z</time></trkpt><trkpt lat="42.089971" lon="11.7928005"><ele>7.999999999999999</ele><time>2026-04-19T06:51:01.552Z</time></trkpt><trkpt lat="42.08992" lon="11.7928588"><ele>8.0</ele><time>2026-04-19T06:52:22.524Z</time></trkpt><trkpt lat="42.0899759" lon="11.79291"><ele>8.0</ele><time>2026-04-19T06:52:33.524Z</time></trkpt><trkpt lat="42.0899331" lon="11.7927827"><ele>7.999999999999999</ele><time>2026-04-19T06:53:10.525Z</time></trkpt><trkpt lat="42.0899098" lon="11.792863"><ele>8.0</ele><time>2026-04-19T06:53:19.538Z</time></trkpt><trkpt lat="42.0898879" lon="11.7927779"><ele>8.0</ele><time>2026-04-19T06:54:01.542Z</time></trkpt><trkpt lat="42.0899583" lon="11.7927622"><ele>8.0</ele><time>2026-04-19T06:54:07.56Z</time></trkpt><trkpt lat="42.0899773" lon="11.7928445"><ele>7.999999999999999</ele><time>2026-04-19T06:54:13.53Z</time></trkpt><trkpt lat="42.089939" lon="11.7929188"><ele>8.0</ele><time>2026-04-19T06:54:20.53Z</time></trkpt><trkpt lat="42.0898866" lon="11.7928605"><ele>8.0</ele><time>2026-04-19T07:01:17.523Z</time></trkpt><trkpt lat="42.0899149" lon="11.7927781"><ele>7.999999999999999</ele><time>2026-04-19T07:01:59.523Z</time></trkpt><trkpt lat="42.0899607" lon="11.7927198"><ele>8.0</ele><time>2026-04-19T07:02:06.523Z</time></trkpt><trkpt lat="42.0899647" lon="11.7928072"><ele>8.0</ele><time>2026-04-19T07:13:47.523Z</time></trkpt><trkpt lat="42.0899559" lon="11.7927209"><ele>7.999999999999999</ele><time>2026-04-19T07:14:03.523Z</time></trkpt><trkpt lat="42.0899543" lon="11.7928217"><ele>8.0</ele><time>2026-04-19T07:14:50.523Z</time></trkpt><trkpt lat="42.0899601" lon="11.792727"><ele>8.0</ele><time>2026-04-19T07:16:03.523Z</time></trkpt><trkpt lat="42.0899155" lon="11.7926537"><ele>8.0</ele><time>2026-04-19T07:16:07.523Z</time></trkpt><trkpt lat="42.0898423" lon="11.7926637"><ele>7.999999999999999</ele><time>2026-04-19T07:16:10.523Z</time></trkpt><trkpt lat="42.0897853" lon="11.7927018"><ele>8.0</ele><time>2026-04-19T07:16:11.523Z</time></trkpt><trkpt lat="42.0896434" lon="11.7925831"><ele>6.999999999999999</ele><time>2026-04-19T07:16:13.523Z</time></trkpt><trkpt lat="42.0896732" lon="11.7924739"><ele>6.0</ele><time>2026-04-19T07:16:15.523Z</time></trkpt><trkpt lat="42.0896698" lon="11.7923726"><ele>5.0</ele><time>2026-04-19T07:16:18.523Z</time></trkpt><trkpt lat="42.0897437" lon="11.7923319"><ele>4.0</ele><time>2026-04-19T07:16:21.523Z</time></trkpt><trkpt lat="42.0897728" lon="11.7922296"><ele>3.0</ele><time>2026-04-19T07:16:26.523Z</time></trkpt><trkpt lat="42.0897824" lon="11.79214"><ele>2.0</ele><time>2026-04-19T07:16:29.523Z</time></trkpt><trkpt lat="42.0897817" lon="11.7920483"><ele>2.0</ele><time>2026-04-19T07:16:32.523Z</time></trkpt><trkpt lat="42.0897771" lon="11.7919599"><ele>1.9999999999999998</ele><time>2026-04-19T07:16:35.523Z</time></trkpt><trkpt lat="42.0897666" lon="11.7918743"><ele>2.0</ele><time>2026-04-19T07:16:38.523Z</time></trkpt><trkpt lat="42.0897433" lon="11.7917853"><ele>2.0</ele><time>2026-04-19T07:16:42.523Z</time></trkpt><trkpt lat="42.0897294" lon="11.7916865"><ele>1.9999999999999998</ele><time>2026-04-19T07:16:47.523Z</time></trkpt><trkpt lat="42.0897746" lon="11.7916154"><ele>2.0</ele><time>2026-04-19T07:18:54.523Z</time></trkpt><trkpt lat="42.089727" lon="11.7916744"><ele>2.0</ele><time>2026-04-19T07:23:02.523Z</time></trkpt><trkpt lat="42.0896739" lon="11.7916097"><ele>2.0</ele><time>2026-04-19T07:23:12.523Z</time></trkpt><trkpt lat="42.0896396" lon="11.7915172"><ele>1.9999999999999998</ele><time>2026-04-19T07:23:16.523Z</time></trkpt><trkpt lat="42.0895829" lon="11.7914629"><ele>2.0</ele><time>2026-04-19T07:23:20.523Z</time></trkpt><trkpt lat="42.0895233" lon="11.791424"><ele>2.0</ele><time>2026-04-19T07:23:24.523Z</time></trkpt><trkpt lat="42.0894801" lon="11.7913609"><ele>1.9999999999999998</ele><time>2026-04-19T07:23:28.523Z</time></trkpt><trkpt lat="42.0894624" lon="11.7912725"><ele>2.0</ele><time>2026-04-19T07:23:33.523Z</time></trkpt><trkpt lat="42.0893936" lon="11.7912485"><ele>2.0</ele><time>2026-04-19T07:23:38.523Z</time></trkpt><trkpt lat="42.0893402" lon="11.7912005"><ele>2.0</ele><time>2026-04-19T07:23:43.524Z</time></trkpt><trkpt lat="42.0893263" lon="11.7911111"><ele>1.9999999999999998</ele><time>2026-04-19T07:23:49.523Z</time></trkpt><trkpt lat="42.089262" lon="11.7911329"><ele>2.0</ele><time>2026-04-19T07:23:53.523Z</time></trkpt><trkpt lat="42.0892002" lon="11.7911548"><ele>2.0</ele><time>2026-04-19T07:23:56.523Z</time></trkpt><trkpt lat="42.0891392" lon="11.7911854"><ele>1.9999999999999998</ele><time>2026-04-19T07:23:59.523Z</time></trkpt><trkpt lat="42.0890727" lon="11.7911974"><ele>2.0</ele><time>2026-04-19T07:24:02.523Z</time></trkpt><trkpt lat="42.0889993" lon="11.7911496"><ele>2.0</ele><time>2026-04-19T07:24:06.523Z</time></trkpt><trkpt lat="42.0889933" lon="11.7910639"><ele>2.0</ele><time>2026-04-19T07:24:17.523Z</time></trkpt><trkpt lat="42.0890584" lon="11.7910891"><ele>1.9999999999999998</ele><time>2026-04-19T07:24:24.524Z</time></trkpt><trkpt lat="42.089102" lon="11.7911698"><ele>2.0</ele><time>2026-04-19T07:24:29.523Z</time></trkpt><trkpt lat="42.0891743" lon="11.7911826"><ele>2.0</ele><time>2026-04-19T07:24:33.523Z</time></trkpt><trkpt lat="42.08924" lon="11.7912138"><ele>1.9999999999999998</ele><time>2026-04-19T07:24:37.523Z</time></trkpt><trkpt lat="42.0892656" lon="11.7913007"><ele>2.0</ele><time>2026-04-19T07:24:40.523Z</time></trkpt><trkpt lat="42.0892946" lon="11.791391"><ele>2.0</ele><time>2026-04-19T07:24:43.523Z</time></trkpt><trkpt lat="42.0893087" lon="11.7914799"><ele>1.9999999999999998</ele><time>2026-04-19T07:24:46.523Z</time></trkpt><trkpt lat="42.08931" lon="11.7915955"><ele>2.0</ele><time>2026-04-19T07:24:50.523Z</time></trkpt><trkpt lat="42.0893316" lon="11.7916874"><ele>2.0</ele><time>2026-04-19T07:24:53.523Z</time></trkpt><trkpt lat="42.0893602" lon="11.7917765"><ele>2.0</ele><time>2026-04-19T07:24:56.523Z</time></trkpt><trkpt lat="42.0893892" lon="11.7918559"><ele>1.9999999999999998</ele><time>2026-04-19T07:24:59.523Z</time></trkpt><trkpt lat="42.089398" lon="11.7919628"><ele>2.0</ele><time>2026-04-19T07:25:03.524Z</time></trkpt><trkpt lat="42.0893892" lon="11.7920661"><ele>2.0</ele><time>2026-04-19T07:25:07.523Z</time></trkpt><trkpt lat="42.0893812" lon="11.7921615"><ele>1.9999999999999998</ele><time>2026-04-19T07:25:11.523Z</time></trkpt><trkpt lat="42.0893846" lon="11.7922548"><ele>2.0</ele><time>2026-04-19T07:25:15.523Z</time></trkpt><trkpt lat="42.0894027" lon="11.7923492"><ele>2.0</ele><time>2026-04-19T07:25:19.523Z</time></trkpt><trkpt lat="42.0893928" lon="11.7924352"><ele>1.9999999999999998</ele><time>2026-04-19T07:25:23.523Z</time></trkpt><trkpt lat="42.0894268" lon="11.7925349"><ele>2.0</ele><time>2026-04-19T07:25:27.523Z</time></trkpt><trkpt lat="42.089496" lon="11.7925732"><ele>2.0</ele><time>2026-04-19T07:25:31.523Z</time></trkpt><trkpt lat="42.0895726" lon="11.7925595"><ele>2.0</ele><time>2026-04-19T07:25:35.523Z</time></trkpt><trkpt lat="42.0896304" lon="11.7925035"><ele>1.9999999999999998</ele><time>2026-04-19T07:25:39.523Z</time></trkpt><trkpt lat="42.0896942" lon="11.7924953"><ele>2.0</ele><time>2026-04-19T07:25:43.523Z</time></trkpt><trkpt lat="42.0897468" lon="11.7924464"><ele>2.0</ele><time>2026-04-19T07:25:47.523Z</time></trkpt><trkpt lat="42.0897608" lon="11.7923529"><ele>1.9999999999999998</ele><time>2026-04-19T07:25:51.523Z</time></trkpt><trkpt lat="42.0897475" lon="11.7922447"><ele>2.0</ele><time>2026-04-19T07:25:55.523Z</time></trkpt><trkpt lat="42.089767" lon="11.7921426"><ele>2.0</ele><time>2026-04-19T07:25:59.523Z</time></trkpt><trkpt lat="42.0897679" lon="11.7920312"><ele>2.0</ele><time>2026-04-19T07:26:03.523Z</time></trkpt><trkpt lat="42.0897627" lon="11.79192"><ele>1.9999999999999998</ele><time>2026-04-19T07:26:07.523Z</time></trkpt><trkpt lat="42.0897402" lon="11.791816"><ele>2.0</ele><time>2026-04-19T07:26:11.523Z</time></trkpt><trkpt lat="42.0897208" lon="11.7917146"><ele>2.0</ele><time>2026-04-19T07:26:15.523Z</time></trkpt><trkpt lat="42.089703" lon="11.7916156"><ele>1.9999999999999998</ele><time>2026-04-19T07:26:19.523Z</time></trkpt><trkpt lat="42.0897113" lon="11.7915254"><ele>2.0</ele><time>2026-04-19T07:26:23.523Z</time></trkpt><trkpt lat="42.0896543" lon="11.7914846"><ele>2.0</ele><time>2026-04-19T07:26:26.523Z</time></trkpt><trkpt lat="42.0895913" lon="11.7914902"><ele>2.0</ele><time>2026-04-19T07:26:29.523Z</time></trkpt><trkpt lat="42.0895377" lon="11.7915454"><ele>1.9999999999999998</ele><time>2026-04-19T07:26:32.523Z</time></trkpt><trkpt lat="42.0895128" lon="11.7916291"><ele>2.0</ele><time>2026-04-19T07:26:35.523Z</time></trkpt><trkpt lat="42.0895127" lon="11.7917207"><ele>2.0</ele><time>2026-04-19T07:26:38.523Z</time></trkpt><trkpt lat="42.0895264" lon="11.7918118"><ele>1.9999999999999998</ele><time>2026-04-19T07:26:41.523Z</time></trkpt><trkpt lat="42.089557" lon="11.7918996"><ele>2.0</ele><time>2026-04-19T07:26:44.523Z</time></trkpt><trkpt lat="42.0895744" lon="11.7919855"><ele>2.0</ele><time>2026-04-19T07:26:47.523Z</time></trkpt><trkpt lat="42.089618" lon="11.7920645"><ele>2.0</ele><time>2026-04-19T07:26:50.523Z</time></trkpt><trkpt lat="42.0896674" lon="11.7921283"><ele>1.9999999999999998</ele><time>2026-04-19T07:26:53.523Z</time></trkpt><trkpt lat="42.0897186" lon="11.7922091"><ele>2.0</ele><time>2026-04-19T07:26:57.523Z</time></trkpt><trkpt lat="42.0897442" lon="11.792306"><ele>2.0</ele><time>2026-04-19T07:27:01.523Z</time></trkpt><trkpt lat="42.0897304" lon="11.7924125"><ele>1.9999999999999998</ele><time>2026-04-19T07:27:05.523Z</time></trkpt><trkpt lat="42.0896836" lon="11.7924915"><ele>2.0</ele><time>2026-04-19T07:27:09.523Z</time></trkpt><trkpt lat="42.0896189" lon="11.7925168"><ele>2.0</ele><time>2026-04-19T07:27:12.523Z</time></trkpt><trkpt lat="42.0895539" lon="11.7925789"><ele>2.0</ele><time>2026-04-19T07:27:15.523Z</time></trkpt><trkpt lat="42.0894898" lon="11.7926487"><ele>1.9999999999999998</ele><time>2026-04-19T07:27:18.523Z</time></trkpt><trkpt lat="42.0894466" lon="11.7927119"><ele>2.0</ele><time>2026-04-19T07:27:24.523Z</time></trkpt><trkpt lat="42.0894861" lon="11.7926337"><ele>2.0</ele><time>2026-04-19T07:28:05.523Z</time></trkpt><trkpt lat="42.0895534" lon="11.7925796"><ele>1.9999999999999998</ele><time>2026-04-19T07:28:10.523Z</time></trkpt><trkpt lat="42.0896227" lon="11.7925488"><ele>2.0</ele><time>2026-04-19T07:28:16.523Z</time></trkpt><trkpt lat="42.0895836" lon="11.7926286"><ele>2.0</ele><time>2026-04-19T07:30:39.523Z</time></trkpt><trkpt lat="42.089575" lon="11.7927289"><ele>2.0</ele><time>2026-04-19T07:30:44.523Z</time></trkpt><trkpt lat="42.0895558" lon="11.7928221"><ele>1.9999999999999998</ele><time>2026-04-19T07:30:49.523Z</time></trkpt><trkpt lat="42.0895578" lon="11.7929181"><ele>2.0</ele><time>2026-04-19T07:30:54.523Z</time></trkpt><trkpt lat="42.0895395" lon="11.7930047"><ele>2.0</ele><time>2026-04-19T07:30:59.523Z</time></trkpt><trkpt lat="42.0895056" lon="11.7930827"><ele>1.9999999999999998</ele><time>2026-04-19T07:31:04.523Z</time></trkpt><trkpt lat="42.0895709" lon="11.79305"><ele>2.0</ele><time>2026-04-19T07:35:27.523Z</time></trkpt><trkpt lat="42.0896037" lon="11.7929416"><ele>2.0</ele><time>2026-04-19T07:35:31.523Z</time></trkpt><trkpt lat="42.0896301" lon="11.792849"><ele>2.0</ele><time>2026-04-19T07:35:34.523Z</time></trkpt><trkpt lat="42.0896449" lon="11.7927388"><ele>1.9999999999999998</ele><time>2026-04-19T07:35:38.523Z</time></trkpt><trkpt lat="42.0896567" lon="11.792634"><ele>2.0</ele><time>2026-04-19T07:35:42.523Z</time></trkpt><trkpt lat="42.0896609" lon="11.7925345"><ele>2.0</ele><time>2026-04-19T07:35:46.523Z</time></trkpt><trkpt lat="42.0896431" lon="11.7924445"><ele>1.9999999999999998</ele><time>2026-04-19T07:35:50.523Z</time></trkpt><trkpt lat="42.0896195" lon="11.7923573"><ele>2.0</ele><time>2026-04-19T07:35:55.523Z</time></trkpt><trkpt lat="42.0896304" lon="11.7922737"><ele>2.0</ele><time>2026-04-19T07:47:49.529Z</time></trkpt><trkpt lat="42.0896367" lon="11.7921849"><ele>2.0</ele><time>2026-04-19T07:47:53.522Z</time></trkpt><trkpt lat="42.0896462" lon="11.7920943"><ele>1.9999999999999998</ele><time>2026-04-19T07:47:59.522Z</time></trkpt><trkpt lat="42.0896422" lon="11.7920028"><ele>2.0</ele><time>2026-04-19T07:48:06.524Z</time></trkpt><trkpt lat="42.0896305" lon="11.7920958"><ele>2.0</ele><time>2026-04-19T07:48:11.525Z</time></trkpt><trkpt lat="42.0896928" lon="11.792108"><ele>1.9999999999999998</ele><time>2026-04-19T07:48:56.528Z</time></trkpt><trkpt lat="42.0897399" lon="11.7921646"><ele>2.0</ele><time>2026-04-19T07:49:02.528Z</time></trkpt><trkpt lat="42.089671" lon="11.7921217"><ele>2.0</ele><time>2026-04-19T07:49:08.52Z</time></trkpt><trkpt lat="42.0896079" lon="11.7921395"><ele>2.0</ele><time>2026-04-19T07:50:52.523Z</time></trkpt><trkpt lat="42.0896016" lon="11.7922376"><ele>1.9999999999999998</ele><time>2026-04-19T07:50:56.523Z</time></trkpt><trkpt lat="42.0895969" lon="11.7923244"><ele>2.0</ele><time>2026-04-19T07:50:59.522Z</time></trkpt><trkpt lat="42.089617" lon="11.7924301"><ele>2.0</ele><time>2026-04-19T07:51:03.522Z</time></trkpt><trkpt lat="42.0896415" lon="11.7925129"><ele>1.9999999999999998</ele><time>2026-04-19T07:51:08.522Z</time></trkpt><trkpt lat="42.0896472" lon="11.7926018"><ele>2.0</ele><time>2026-04-19T07:51:16.527Z</time></trkpt><trkpt lat="42.0896064" lon="11.7926863"><ele>2.0</ele><time>2026-04-19T07:51:22.524Z</time></trkpt><trkpt lat="42.0896165" lon="11.7927873"><ele>2.0</ele><time>2026-04-19T07:51:26.521Z</time></trkpt><trkpt lat="42.0896596" lon="11.7928669"><ele>1.9999999999999998</ele><time>2026-04-19T07:51:29.524Z</time></trkpt><trkpt lat="42.0897336" lon="11.792891"><ele>2.0</ele><time>2026-04-19T07:51:32.523Z</time></trkpt><trkpt lat="42.089813" lon="11.7928919"><ele>2.0</ele><time>2026-04-19T07:51:35.522Z</time></trkpt><trkpt lat="42.0898825" lon="11.7929171"><ele>1.9999999999999998</ele><time>2026-04-19T07:51:40.521Z</time></trkpt><trkpt lat="42.0899502" lon="11.792918"><ele>2.0</ele><time>2026-04-19T07:51:46.524Z</time></trkpt><trkpt lat="42.0899673" lon="11.7928213"><ele>2.0</ele><time>2026-04-19T07:55:00.52Z</time></trkpt><trkpt lat="42.0899505" lon="11.7927312"><ele>2.0</ele><time>2026-04-19T07:55:07.522Z</time></trkpt><trkpt lat="42.0899047" lon="11.7926458"><ele>1.9999999999999998</ele><time>2026-04-19T07:55:12.524Z</time></trkpt><trkpt lat="42.0898303" lon="11.7925807"><ele>2.0</ele><time>2026-04-19T07:55:15.521Z</time></trkpt><trkpt lat="42.0897707" lon="11.7925213"><ele>2.0</ele><time>2026-04-19T07:55:17.52Z</time></trkpt><trkpt lat="42.0897047" lon="11.792469"><ele>1.9999999999999998</ele><time>2026-04-19T07:55:19.522Z</time></trkpt><trkpt lat="42.0897107" lon="11.7923809"><ele>2.0</ele><time>2026-04-19T07:55:21.521Z</time></trkpt><trkpt lat="42.089749" lon="11.7923099"><ele>2.0</ele><time>2026-04-19T07:55:23.514Z</time></trkpt><trkpt lat="42.0897588" lon="11.7922073"><ele>2.0</ele><time>2026-04-19T07:55:26.52Z</time></trkpt><trkpt lat="42.0898164" lon="11.7921658"><ele>1.9999999999999998</ele><time>2026-04-19T07:55:29.52Z</time></trkpt><trkpt lat="42.0898434" lon="11.7920806"><ele>2.0</ele><time>2026-04-19T07:55:33.525Z</time></trkpt><trkpt lat="42.0897852" lon="11.7920095"><ele>2.0</ele><time>2026-04-19T08:11:00.519Z</time></trkpt><trkpt lat="42.0898402" lon="11.7920581"><ele>1.9999999999999998</ele><time>2026-04-19T08:17:19.52Z</time></trkpt><trkpt lat="42.0898793" lon="11.7921419"><ele>2.0</ele><time>2026-04-19T08:17:25.519Z</time></trkpt><trkpt lat="42.0898495" lon="11.7922265"><ele>2.0</ele><time>2026-04-19T08:17:31.528Z</time></trkpt><trkpt lat="42.0897867" lon="11.7922109"><ele>2.0</ele><time>2026-04-19T08:17:35.517Z</time></trkpt><trkpt lat="42.0897477" lon="11.792141"><ele>1.9999999999999998</ele><time>2026-04-19T08:17:40.519Z</time></trkpt><trkpt lat="42.0898117" lon="11.7921098"><ele>2.0</ele><time>2026-04-19T08:17:46.524Z</time></trkpt><trkpt lat="42.0898634" lon="11.7920306"><ele>2.0</ele><time>2026-04-19T08:17:53.521Z</time></trkpt><trkpt lat="42.0898317" lon="11.7919563"><ele>1.9999999999999998</ele><time>2026-04-19T08:17:58.527Z</time></trkpt><trkpt lat="42.0898185" lon="11.7920406"><ele>2.0</ele><time>2026-04-19T08:18:05.517Z</time></trkpt><trkpt lat="42.089847" lon="11.7921187"><ele>2.0</ele><time>2026-04-19T08:18:12.519Z</time></trkpt><trkpt lat="42.0898244" lon="11.7921987"><ele>2.0</ele><time>2026-04-19T08:18:17.523Z</time></trkpt><trkpt lat="42.0897845" lon="11.7922691"><ele>1.9999999999999998</ele><time>2026-04-19T08:18:21.521Z</time></trkpt><trkpt lat="42.0897576" lon="11.7923506"><ele>2.0</ele><time>2026-04-19T08:18:25.52Z</time></trkpt><trkpt lat="42.0896912" lon="11.7924053"><ele>2.0</ele><time>2026-04-19T08:18:29.518Z</time></trkpt><trkpt lat="42.089653" lon="11.7924897"><ele>1.9999999999999998</ele><time>2026-04-19T08:18:34.517Z</time></trkpt><trkpt lat="42.0896277" lon="11.7925915"><ele>2.0</ele><time>2026-04-19T08:18:38.524Z</time></trkpt><trkpt lat="42.0896059" lon="11.7926901"><ele>2.0</ele><time>2026-04-19T08:18:42.521Z</time></trkpt><trkpt lat="42.0895998" lon="11.7927903"><ele>1.9999999999999998</ele><time>2026-04-19T08:18:47.518Z</time></trkpt><trkpt lat="42.0895515" lon="11.7928604"><ele>2.0</ele><time>2026-04-19T08:19:08.514Z</time></trkpt><trkpt lat="42.0895532" lon="11.7929527"><ele>2.0</ele><time>2026-04-19T08:19:13.521Z</time></trkpt><trkpt lat="42.0895389" lon="11.7930412"><ele>2.0</ele><time>2026-04-19T08:20:31.514Z</time></trkpt><trkpt lat="42.0895127" lon="11.7931278"><ele>1.9999999999999998</ele><time>2026-04-19T08:21:24.517Z</time></trkpt><trkpt lat="42.089465" lon="11.7932382"><ele>2.0</ele><time>2026-04-19T08:21:27.516Z</time></trkpt><trkpt lat="42.0894137" lon="11.7933637"><ele>2.0</ele><time>2026-04-19T08:21:29.516Z</time></trkpt><trkpt lat="42.0893485" lon="11.7934752"><ele>2.0</ele><time>2026-04-19T08:21:31.519Z</time></trkpt><trkpt lat="42.0892878" lon="11.7935879"><ele>2.0</ele><time>2026-04-19T08:21:33.52Z</time></trkpt><trkpt lat="42.0892375" lon="11.7936974"><ele>2.0</ele><time>2026-04-19T08:21:35.518Z</time></trkpt><trkpt lat="42.0891833" lon="11.7937985"><ele>2.0</ele><time>2026-04-19T08:21:37.52Z</time></trkpt><trkpt lat="42.0891262" lon="11.793903"><ele>1.8333333333333333</ele><time>2026-04-19T08:21:39.526Z</time></trkpt><trkpt lat="42.0890801" lon="11.7940048"><ele>1.6666666666666665</ele><time>2026-04-19T08:21:41.52Z</time></trkpt><trkpt lat="42.0890349" lon="11.7941063"><ele>1.5</ele><time>2026-04-19T08:21:43.519Z</time></trkpt><trkpt lat="42.0889919" lon="11.7941925"><ele>1.3333333333333333</ele><time>2026-04-19T08:21:45.52Z</time></trkpt><trkpt lat="42.0889485" lon="11.7943057"><ele>1.1666666666666665</ele><time>2026-04-19T08:21:47.518Z</time></trkpt><trkpt lat="42.0889" lon="11.7944131"><ele>1.0</ele><time>2026-04-19T08:21:49.516Z</time></trkpt><trkpt lat="42.0888569" lon="11.7945115"><ele>0.9999999999999999</ele><time>2026-04-19T08:21:51.52Z</time></trkpt><trkpt lat="42.0888175" lon="11.7946106"><ele>1.0</ele><time>2026-04-19T08:21:53.519Z</time></trkpt><trkpt lat="42.0887764" lon="11.7947006"><ele>1.0</ele><time>2026-04-19T08:21:55.517Z</time></trkpt><trkpt lat="42.0887314" lon="11.7947878"><ele>1.0</ele><time>2026-04-19T08:21:57.521Z</time></trkpt><trkpt lat="42.0886901" lon="11.794875"><ele>0.9999999999999999</ele><time>2026-04-19T08:21:59.523Z</time></trkpt><trkpt lat="42.0886508" lon="11.7949545"><ele>1.0</ele><time>2026-04-19T08:22:01.517Z</time></trkpt><trkpt lat="42.0886126" lon="11.7950269"><ele>0.9999999999999999</ele><time>2026-04-19T08:22:03.519Z</time></trkpt><trkpt lat="42.0885596" lon="11.7951259"><ele>1.0</ele><time>2026-04-19T08:22:06.52Z</time></trkpt><trkpt lat="42.0885281" lon="11.7952027"><ele>1.0</ele><time>2026-04-19T08:22:08.519Z</time></trkpt><trkpt lat="42.0885024" lon="11.7952836"><ele>1.0</ele><time>2026-04-19T08:22:10.52Z</time></trkpt><trkpt lat="42.0884774" lon="11.795406"><ele>0.9999999999999999</ele><time>2026-04-19T08:22:13.518Z</time></trkpt><trkpt lat="42.088454" lon="11.79553"><ele>1.0</ele><time>2026-04-19T08:22:16.518Z</time></trkpt><trkpt lat="42.0884362" lon="11.7956204"><ele>1.1428571428571428</ele><time>2026-04-19T08:22:18.519Z</time></trkpt><trkpt lat="42.0884193" lon="11.7957146"><ele>1.2857142857142856</ele><time>2026-04-19T08:22:20.518Z</time></trkpt><trkpt lat="42.0883999" lon="11.7958114"><ele>1.4285714285714284</ele><time>2026-04-19T08:22:22.517Z</time></trkpt><trkpt lat="42.0883728" lon="11.7959082"><ele>1.5714285714285714</ele><time>2026-04-19T08:22:24.521Z</time></trkpt><trkpt lat="42.0883434" lon="11.7960017"><ele>1.714285714285714</ele><time>2026-04-19T08:22:26.52Z</time></trkpt><trkpt lat="42.0883166" lon="11.7960943"><ele>1.857142857142857</ele><time>2026-04-19T08:22:28.517Z</time></trkpt><trkpt lat="42.0882875" lon="11.7961885"><ele>2.0</ele><time>2026-04-19T08:22:30.52Z</time></trkpt><trkpt lat="42.0882594" lon="11.7962742"><ele>2.0</ele><time>2026-04-19T08:22:32.522Z</time></trkpt><trkpt lat="42.0882209" lon="11.7963838"><ele>1.9999999999999998</ele><time>2026-04-19T08:22:35.52Z</time></trkpt><trkpt lat="42.0881938" lon="11.7964835"><ele>2.0</ele><time>2026-04-19T08:22:38.519Z</time></trkpt><trkpt lat="42.0881718" lon="11.7965741"><ele>2.0</ele><time>2026-04-19T08:22:41.521Z</time></trkpt><trkpt lat="42.0881444" lon="11.7966584"><ele>1.9999999999999998</ele><time>2026-04-19T08:22:44.52Z</time></trkpt><trkpt lat="42.0881336" lon="11.7967456"><ele>2.0</ele><time>2026-04-19T08:22:47.515Z</time></trkpt><trkpt lat="42.0881251" lon="11.7968323"><ele>2.0</ele><time>2026-04-19T08:22:50.518Z</time></trkpt><trkpt lat="42.0881472" lon="11.796919"><ele>2.5</ele><time>2026-04-19T08:22:54.518Z</time></trkpt><trkpt lat="42.0882014" lon="11.7969731"><ele>3.0</ele><time>2026-04-19T08:22:57.518Z</time></trkpt><trkpt lat="42.0882689" lon="11.7969288"><ele>3.5</ele><time>2026-04-19T08:23:00.518Z</time></trkpt><trkpt lat="42.088314" lon="11.7968496"><ele>4.0</ele><time>2026-04-19T08:23:02.519Z</time></trkpt><trkpt lat="42.0883574" lon="11.7967572"><ele>4.5</ele><time>2026-04-19T08:23:04.519Z</time></trkpt><trkpt lat="42.0884017" lon="11.7966672"><ele>5.0</ele><time>2026-04-19T08:23:06.525Z</time></trkpt><trkpt lat="42.0884384" lon="11.7965842"><ele>5.0</ele><time>2026-04-19T08:23:08.516Z</time></trkpt><trkpt lat="42.088473" lon="11.7965028"><ele>5.0</ele><time>2026-04-19T08:23:10.52Z</time></trkpt><trkpt lat="42.0885029" lon="11.7964192"><ele>5.0</ele><time>2026-04-19T08:23:12.52Z</time></trkpt><trkpt lat="42.088543" lon="11.7963234"><ele>5.0</ele><time>2026-04-19T08:23:14.519Z</time></trkpt><trkpt lat="42.0885872" lon="11.7962214"><ele>5.0</ele><time>2026-04-19T08:23:16.518Z</time></trkpt><trkpt lat="42.0886308" lon="11.7961247"><ele>5.0</ele><time>2026-04-19T08:23:18.518Z</time></trkpt><trkpt lat="42.0886707" lon="11.7960341"><ele>4.714285714285714</ele><time>2026-04-19T08:23:20.518Z</time></trkpt><trkpt lat="42.0887094" lon="11.7959491"><ele>4.428571428571429</ele><time>2026-04-19T08:23:22.52Z</time></trkpt><trkpt lat="42.0887434" lon="11.7958736"><ele>4.142857142857142</ele><time>2026-04-19T08:23:24.519Z</time></trkpt><trkpt lat="42.0887941" lon="11.7957758"><ele>3.8571428571428568</ele><time>2026-04-19T08:23:27.519Z</time></trkpt><trkpt lat="42.0888321" lon="11.7957041"><ele>3.571428571428571</ele><time>2026-04-19T08:23:29.522Z</time></trkpt><trkpt lat="42.0889094" lon="11.7956444"><ele>3.2857142857142856</ele><time>2026-04-19T08:23:32.522Z</time></trkpt><trkpt lat="42.0889735" lon="11.7956348"><ele>3.0</ele><time>2026-04-19T08:23:34.517Z</time></trkpt><trkpt lat="42.0890576" lon="11.7956798"><ele>4.333333333333333</ele><time>2026-04-19T08:23:37.517Z</time></trkpt><trkpt lat="42.0891254" lon="11.7957355"><ele>5.666666666666666</ele><time>2026-04-19T08:23:40.52Z</time></trkpt><trkpt lat="42.0891816" lon="11.7957898"><ele>7.0</ele><time>2026-04-19T08:23:43.519Z</time></trkpt><trkpt lat="42.0892449" lon="11.7958352"><ele>8.333333333333332</ele><time>2026-04-19T08:23:46.519Z</time></trkpt><trkpt lat="42.0892989" lon="11.7958835"><ele>9.666666666666666</ele><time>2026-04-19T08:23:49.517Z</time></trkpt><trkpt lat="42.0893746" lon="11.7959408"><ele>11.0</ele><time>2026-04-19T08:23:52.52Z</time></trkpt><trkpt lat="42.0894425" lon="11.7959931"><ele>10.666666666666666</ele><time>2026-04-19T08:23:55.518Z</time></trkpt><trkpt lat="42.0895056" lon="11.7960572"><ele>10.333333333333332</ele><time>2026-04-19T08:23:58.517Z</time></trkpt><trkpt lat="42.0895665" lon="11.7961158"><ele>10.0</ele><time>2026-04-19T08:24:01.519Z</time></trkpt><trkpt lat="42.0896422" lon="11.7961739"><ele>9.666666666666666</ele><time>2026-04-19T08:24:04.517Z</time></trkpt><trkpt lat="42.0897236" lon="11.7962011"><ele>9.333333333333334</ele><time>2026-04-19T08:24:07.519Z</time></trkpt><trkpt lat="42.0897871" lon="11.7961932"><ele>9.0</ele><time>2026-04-19T08:24:09.516Z</time></trkpt><trkpt lat="42.0898725" lon="11.7961614"><ele>9.666666666666666</ele><time>2026-04-19T08:24:12.518Z</time></trkpt><trkpt lat="42.0899496" lon="11.7961216"><ele>10.333333333333332</ele><time>2026-04-19T08:24:15.52Z</time></trkpt><trkpt lat="42.0900107" lon="11.7960938"><ele>11.0</ele><time>2026-04-19T08:24:17.52Z</time></trkpt><trkpt lat="42.0900823" lon="11.7960687"><ele>11.666666666666666</ele><time>2026-04-19T08:24:20.52Z</time></trkpt><trkpt lat="42.0901559" lon="11.7960413"><ele>12.333333333333332</ele><time>2026-04-19T08:24:23.521Z</time></trkpt><trkpt lat="42.090223" lon="11.7960258"><ele>13.0</ele><time>2026-04-19T08:24:26.521Z</time></trkpt><trkpt lat="42.0903155" lon="11.7960011"><ele>12.999999999999998</ele><time>2026-04-19T08:24:29.516Z</time></trkpt><trkpt lat="42.0903892" lon="11.7959826"><ele>13.0</ele><time>2026-04-19T08:24:32.519Z</time></trkpt><trkpt lat="42.0904776" lon="11.7959502"><ele>13.0</ele><time>2026-04-19T08:24:35.52Z</time></trkpt><trkpt lat="42.0905462" lon="11.7959228"><ele>13.0</ele><time>2026-04-19T08:24:37.521Z</time></trkpt><trkpt lat="42.0906102" lon="11.7958969"><ele>12.999999999999998</ele><time>2026-04-19T08:24:39.52Z</time></trkpt><trkpt lat="42.0907035" lon="11.7958762"><ele>13.0</ele><time>2026-04-19T08:24:42.517Z</time></trkpt><trkpt lat="42.0907866" lon="11.7958656"><ele>13.0</ele><time>2026-04-19T08:24:45.52Z</time></trkpt><trkpt lat="42.0908578" lon="11.7958411"><ele>13.0</ele><time>2026-04-19T08:24:48.516Z</time></trkpt><trkpt lat="42.0909193" lon="11.7958204"><ele>13.0</ele><time>2026-04-19T08:24:50.52Z</time></trkpt><trkpt lat="42.0909853" lon="11.7958142"><ele>13.0</ele><time>2026-04-19T08:24:52.524Z</time></trkpt><trkpt lat="42.0910594" lon="11.7958048"><ele>13.0</ele><time>2026-04-19T08:24:54.516Z</time></trkpt><trkpt lat="42.0911299" lon="11.7957944"><ele>13.0</ele><time>2026-04-19T08:24:56.517Z</time></trkpt><trkpt lat="42.0911961" lon="11.7957736"><ele>13.0</ele><time>2026-04-19T08:24:58.519Z</time></trkpt><trkpt lat="42.0912593" lon="11.7957514"><ele>13.0</ele><time>2026-04-19T08:25:00.521Z</time></trkpt><trkpt lat="42.0913239" lon="11.795739"><ele>13.0</ele><time>2026-04-19T08:25:02.521Z</time></trkpt><trkpt lat="42.0913874" lon="11.7957235"><ele>13.0</ele><time>2026-04-19T08:25:04.519Z</time></trkpt><trkpt lat="42.0914583" lon="11.795705"><ele>13.0</ele><time>2026-04-19T08:25:06.522Z</time></trkpt><trkpt lat="42.0915298" lon="11.7956915"><ele>13.0</ele><time>2026-04-19T08:25:08.516Z</time></trkpt><trkpt lat="42.0916011" lon="11.7956748"><ele>13.0</ele><time>2026-04-19T08:25:10.518Z</time></trkpt><trkpt lat="42.091668" lon="11.7956567"><ele>13.0</ele><time>2026-04-19T08:25:12.519Z</time></trkpt><trkpt lat="42.0917344" lon="11.7956386"><ele>13.499999999999998</ele><time>2026-04-19T08:25:14.517Z</time></trkpt><trkpt lat="42.0918216" lon="11.7956183"><ele>14.0</ele><time>2026-04-19T08:25:17.517Z</time></trkpt><trkpt lat="42.0919085" lon="11.7955976"><ele>14.5</ele><time>2026-04-19T08:25:20.518Z</time></trkpt><trkpt lat="42.0919723" lon="11.795577"><ele>15.0</ele><time>2026-04-19T08:25:22.519Z</time></trkpt><trkpt lat="42.0920359" lon="11.795556"><ele>15.499999999999998</ele><time>2026-04-19T08:25:24.519Z</time></trkpt><trkpt lat="42.0921157" lon="11.7955472"><ele>16.0</ele><time>2026-04-19T08:25:29.519Z</time></trkpt><trkpt lat="42.0921804" lon="11.7955513"><ele>15.999999999999998</ele><time>2026-04-19T08:25:33.518Z</time></trkpt><trkpt lat="42.0922456" lon="11.7955337"><ele>16.0</ele><time>2026-04-19T08:25:38.52Z</time></trkpt><trkpt lat="42.0923267" lon="11.7955597"><ele>16.0</ele><time>2026-04-19T08:25:41.517Z</time></trkpt><trkpt lat="42.0923934" lon="11.7955372"><ele>16.0</ele><time>2026-04-19T08:25:44.519Z</time></trkpt><trkpt lat="42.0924271" lon="11.7954463"><ele>15.999999999999998</ele><time>2026-04-19T08:25:48.517Z</time></trkpt><trkpt lat="42.0923563" lon="11.7954209"><ele>16.0</ele><time>2026-04-19T08:25:51.516Z</time></trkpt><trkpt lat="42.0922719" lon="11.7954765"><ele>15.999999999999998</ele><time>2026-04-19T08:25:54.523Z</time></trkpt><trkpt lat="42.0921799" lon="11.7955044"><ele>16.0</ele><time>2026-04-19T08:25:57.518Z</time></trkpt><trkpt lat="42.0921166" lon="11.7955229"><ele>16.0</ele><time>2026-04-19T08:25:59.517Z</time></trkpt><trkpt lat="42.0920392" lon="11.7955417"><ele>16.0</ele><time>2026-04-19T08:26:01.517Z</time></trkpt><trkpt lat="42.0919593" lon="11.7955658"><ele>15.999999999999998</ele><time>2026-04-19T08:26:03.52Z</time></trkpt><trkpt lat="42.0918802" lon="11.7955891"><ele>16.0</ele><time>2026-04-19T08:26:05.52Z</time></trkpt><trkpt lat="42.0918035" lon="11.7956087"><ele>16.0</ele><time>2026-04-19T08:26:07.517Z</time></trkpt><trkpt lat="42.0917338" lon="11.79562"><ele>15.999999999999998</ele><time>2026-04-19T08:26:09.516Z</time></trkpt><trkpt lat="42.0916673" lon="11.7956354"><ele>16.0</ele><time>2026-04-19T08:26:11.521Z</time></trkpt><trkpt lat="42.091599" lon="11.7956566"><ele>16.0</ele><time>2026-04-19T08:26:13.517Z</time></trkpt><trkpt lat="42.0915219" lon="11.7956804"><ele>15.999999999999998</ele><time>2026-04-19T08:26:15.521Z</time></trkpt><trkpt lat="42.0914406" lon="11.7957066"><ele>16.0</ele><time>2026-04-19T08:26:17.52Z</time></trkpt><trkpt lat="42.0913717" lon="11.7957215"><ele>16.0</ele><time>2026-04-19T08:26:19.52Z</time></trkpt><trkpt lat="42.0913017" lon="11.7957414"><ele>15.499999999999998</ele><time>2026-04-19T08:26:22.517Z</time></trkpt><trkpt lat="42.0912231" lon="11.7957568"><ele>15.0</ele><time>2026-04-19T08:26:25.521Z</time></trkpt><trkpt lat="42.0911435" lon="11.7957814"><ele>14.5</ele><time>2026-04-19T08:26:28.515Z</time></trkpt><trkpt lat="42.091068" lon="11.7958102"><ele>14.0</ele><time>2026-04-19T08:26:31.519Z</time></trkpt><trkpt lat="42.0909973" lon="11.7958075"><ele>13.499999999999998</ele><time>2026-04-19T08:26:34.519Z</time></trkpt><trkpt lat="42.0909138" lon="11.7958147"><ele>13.0</ele><time>2026-04-19T08:26:37.52Z</time></trkpt><trkpt lat="42.0908279" lon="11.7958366"><ele>12.999999999999998</ele><time>2026-04-19T08:26:40.519Z</time></trkpt><trkpt lat="42.0907367" lon="11.7958618"><ele>13.0</ele><time>2026-04-19T08:26:43.517Z</time></trkpt><trkpt lat="42.090658" lon="11.7958855"><ele>13.0</ele><time>2026-04-19T08:26:45.52Z</time></trkpt><trkpt lat="42.0905788" lon="11.7959086"><ele>13.0</ele><time>2026-04-19T08:26:47.52Z</time></trkpt><trkpt lat="42.0904799" lon="11.7959308"><ele>12.999999999999998</ele><time>2026-04-19T08:26:49.517Z</time></trkpt><trkpt lat="42.0903879" lon="11.7959476"><ele>13.0</ele><time>2026-04-19T08:26:51.522Z</time></trkpt><trkpt lat="42.0902906" lon="11.7959759"><ele>13.0</ele><time>2026-04-19T08:26:53.517Z</time></trkpt><trkpt lat="42.0901869" lon="11.7960044"><ele>13.0</ele><time>2026-04-19T08:26:55.517Z</time></trkpt><trkpt lat="42.0900792" lon="11.7960591"><ele>13.0</ele><time>2026-04-19T08:26:57.518Z</time></trkpt><trkpt lat="42.0899725" lon="11.7960921"><ele>13.0</ele><time>2026-04-19T08:26:59.518Z</time></trkpt><trkpt lat="42.0899109" lon="11.7961156"><ele>13.0</ele><time>2026-04-19T08:27:00.532Z</time></trkpt><trkpt lat="42.0897961" lon="11.7961536"><ele>12.600000000000001</ele><time>2026-04-19T08:27:02.518Z</time></trkpt><trkpt lat="42.0896856" lon="11.7961642"><ele>12.200000000000001</ele><time>2026-04-19T08:27:04.52Z</time></trkpt><trkpt lat="42.0895835" lon="11.7961152"><ele>11.8</ele><time>2026-04-19T08:27:06.517Z</time></trkpt><trkpt lat="42.0894864" lon="11.7960521"><ele>11.4</ele><time>2026-04-19T08:27:08.516Z</time></trkpt><trkpt lat="42.0893952" lon="11.795979"><ele>11.0</ele><time>2026-04-19T08:27:10.519Z</time></trkpt><trkpt lat="42.089319" lon="11.7959068"><ele>11.0</ele><time>2026-04-19T08:27:12.517Z</time></trkpt><trkpt lat="42.0892675" lon="11.7958467"><ele>11.0</ele><time>2026-04-19T08:27:14.521Z</time></trkpt><trkpt lat="42.0892007" lon="11.7957919"><ele>11.0</ele><time>2026-04-19T08:27:18.519Z</time></trkpt><trkpt lat="42.0891423" lon="11.7957398"><ele>11.0</ele><time>2026-04-19T08:27:21.518Z</time></trkpt><trkpt lat="42.0890856" lon="11.7956732"><ele>11.0</ele><time>2026-04-19T08:27:25.517Z</time></trkpt><trkpt lat="42.089023" lon="11.7956474"><ele>11.0</ele><time>2026-04-19T08:27:28.516Z</time></trkpt><trkpt lat="42.088963" lon="11.7956922"><ele>11.0</ele><time>2026-04-19T08:27:32.525Z</time></trkpt><trkpt lat="42.0888967" lon="11.7957256"><ele>10.0</ele><time>2026-04-19T08:27:38.519Z</time></trkpt><trkpt lat="42.0888029" lon="11.795722"><ele>9.0</ele><time>2026-04-19T08:27:42.517Z</time></trkpt><trkpt lat="42.0887429" lon="11.7958289"><ele>8.0</ele><time>2026-04-19T08:27:44.518Z</time></trkpt><trkpt lat="42.0887007" lon="11.7959241"><ele>7.0</ele><time>2026-04-19T08:27:46.519Z</time></trkpt><trkpt lat="42.0886607" lon="11.7960182"><ele>6.0</ele><time>2026-04-19T08:27:48.516Z</time></trkpt><trkpt lat="42.0886147" lon="11.7961135"><ele>5.0</ele><time>2026-04-19T08:27:50.516Z</time></trkpt><trkpt lat="42.088565" lon="11.7962015"><ele>5.0</ele><time>2026-04-19T08:27:52.518Z</time></trkpt><trkpt lat="42.0885212" lon="11.7962973"><ele>5.0</ele><time>2026-04-19T08:27:54.517Z</time></trkpt><trkpt lat="42.0884858" lon="11.7963777"><ele>5.0</ele><time>2026-04-19T08:27:56.519Z</time></trkpt><trkpt lat="42.088451" lon="11.7964513"><ele>5.0</ele><time>2026-04-19T08:27:58.516Z</time></trkpt><trkpt lat="42.0884032" lon="11.7965479"><ele>5.0</ele><time>2026-04-19T08:28:01.518Z</time></trkpt><trkpt lat="42.0883557" lon="11.7966592"><ele>5.0</ele><time>2026-04-19T08:28:04.52Z</time></trkpt><trkpt lat="42.0883144" lon="11.7967454"><ele>5.166666666666667</ele><time>2026-04-19T08:28:06.527Z</time></trkpt><trkpt lat="42.0882692" lon="11.7968381"><ele>5.333333333333334</ele><time>2026-04-19T08:28:08.516Z</time></trkpt><trkpt lat="42.088225" lon="11.7969346"><ele>5.5</ele><time>2026-04-19T08:28:10.516Z</time></trkpt><trkpt lat="42.0881894" lon="11.7970083"><ele>5.666666666666667</ele><time>2026-04-19T08:28:12.523Z</time></trkpt><trkpt lat="42.0881437" lon="11.7971052"><ele>5.833333333333333</ele><time>2026-04-19T08:28:15.52Z</time></trkpt><trkpt lat="42.0881014" lon="11.7972014"><ele>6.0</ele><time>2026-04-19T08:28:18.521Z</time></trkpt><trkpt lat="42.088054" lon="11.7972914"><ele>6.142857142857142</ele><time>2026-04-19T08:28:21.52Z</time></trkpt><trkpt lat="42.0880137" lon="11.7973642"><ele>6.285714285714286</ele><time>2026-04-19T08:28:24.52Z</time></trkpt><trkpt lat="42.0879719" lon="11.7974554"><ele>6.428571428571429</ele><time>2026-04-19T08:28:28.517Z</time></trkpt><trkpt lat="42.0879321" lon="11.7975356"><ele>6.571428571428571</ele><time>2026-04-19T08:28:31.522Z</time></trkpt><trkpt lat="42.0878868" lon="11.7976194"><ele>6.714285714285714</ele><time>2026-04-19T08:28:36.519Z</time></trkpt><trkpt lat="42.0878434" lon="11.7977081"><ele>6.857142857142857</ele><time>2026-04-19T08:28:39.52Z</time></trkpt><trkpt lat="42.087811" lon="11.7977821"><ele>7.0</ele><time>2026-04-19T08:28:41.52Z</time></trkpt><trkpt lat="42.0877658" lon="11.7979041"><ele>7.6</ele><time>2026-04-19T08:28:44.518Z</time></trkpt><trkpt lat="42.0877029" lon="11.7980531"><ele>8.2</ele><time>2026-04-19T08:28:47.521Z</time></trkpt><trkpt lat="42.0876624" lon="11.7981293"><ele>8.8</ele><time>2026-04-19T08:28:49.515Z</time></trkpt><trkpt lat="42.0876071" lon="11.7982444"><ele>9.4</ele><time>2026-04-19T08:28:51.518Z</time></trkpt><trkpt lat="42.0875471" lon="11.7983515"><ele>10.0</ele><time>2026-04-19T08:28:53.518Z</time></trkpt><trkpt lat="42.0874825" lon="11.7984606"><ele>9.8</ele><time>2026-04-19T08:28:55.517Z</time></trkpt><trkpt lat="42.0874375" lon="11.7985556"><ele>9.6</ele><time>2026-04-19T08:28:57.518Z</time></trkpt><trkpt lat="42.0873841" lon="11.7986693"><ele>9.4</ele><time>2026-04-19T08:28:59.52Z</time></trkpt><trkpt lat="42.0873273" lon="11.7987766"><ele>9.2</ele><time>2026-04-19T08:29:01.519Z</time></trkpt><trkpt lat="42.087279" lon="11.7988805"><ele>9.0</ele><time>2026-04-19T08:29:03.52Z</time></trkpt><trkpt lat="42.0872295" lon="11.7989763"><ele>8.666666666666666</ele><time>2026-04-19T08:29:05.519Z</time></trkpt><trkpt lat="42.0871843" lon="11.7990831"><ele>8.333333333333334</ele><time>2026-04-19T08:29:07.516Z</time></trkpt><trkpt lat="42.0871403" lon="11.7991819"><ele>8.0</ele><time>2026-04-19T08:29:09.521Z</time></trkpt><trkpt lat="42.0870897" lon="11.7992802"><ele>7.666666666666667</ele><time>2026-04-19T08:29:11.517Z</time></trkpt><trkpt lat="42.0870384" lon="11.7993778"><ele>7.333333333333334</ele><time>2026-04-19T08:29:13.519Z</time></trkpt><trkpt lat="42.086995" lon="11.7994816"><ele>7.0</ele><time>2026-04-19T08:29:15.519Z</time></trkpt><trkpt lat="42.0869559" lon="11.7995854"><ele>7.0</ele><time>2026-04-19T08:29:17.517Z</time></trkpt><trkpt lat="42.0869169" lon="11.7996925"><ele>6.999999999999999</ele><time>2026-04-19T08:29:19.516Z</time></trkpt><trkpt lat="42.0868587" lon="11.7998036"><ele>6.999999999999999</ele><time>2026-04-19T08:29:21.516Z</time></trkpt><trkpt lat="42.0868117" lon="11.7999112"><ele>7.0</ele><time>2026-04-19T08:29:23.521Z</time></trkpt><trkpt lat="42.0867471" lon="11.8000207"><ele>7.0</ele><time>2026-04-19T08:29:25.528Z</time></trkpt><trkpt lat="42.0866984" lon="11.800132"><ele>7.0</ele><time>2026-04-19T08:29:27.52Z</time></trkpt><trkpt lat="42.086645" lon="11.8002408"><ele>6.999999999999999</ele><time>2026-04-19T08:29:29.515Z</time></trkpt><trkpt lat="42.0866049" lon="11.8003244"><ele>6.999999999999999</ele><time>2026-04-19T08:29:31.526Z</time></trkpt><trkpt lat="42.0865307" lon="11.8004479"><ele>7.0</ele><time>2026-04-19T08:29:33.515Z</time></trkpt><trkpt lat="42.0864645" lon="11.8005741"><ele>7.0</ele><time>2026-04-19T08:29:35.515Z</time></trkpt><trkpt lat="42.0864153" lon="11.8006842"><ele>7.000000000000001</ele><time>2026-04-19T08:29:37.515Z</time></trkpt><trkpt lat="42.0863701" lon="11.8007752"><ele>7.0</ele><time>2026-04-19T08:29:39.513Z</time></trkpt><trkpt lat="42.086319" lon="11.800877"><ele>7.0</ele><time>2026-04-19T08:29:41.517Z</time></trkpt><trkpt lat="42.0862683" lon="11.8009849"><ele>7.0</ele><time>2026-04-19T08:29:43.519Z</time></trkpt><trkpt lat="42.0862211" lon="11.8010675"><ele>7.000000000000001</ele><time>2026-04-19T08:29:45.513Z</time></trkpt><trkpt lat="42.0861827" lon="11.801162"><ele>7.0</ele><time>2026-04-19T08:29:47.518Z</time></trkpt><trkpt lat="42.0861355" lon="11.8012518"><ele>7.833333333333334</ele><time>2026-04-19T08:29:49.513Z</time></trkpt><trkpt lat="42.0860914" lon="11.8013377"><ele>8.666666666666668</ele><time>2026-04-19T08:29:51.517Z</time></trkpt><trkpt lat="42.0860465" lon="11.8014177"><ele>9.5</ele><time>2026-04-19T08:29:53.521Z</time></trkpt><trkpt lat="42.0860018" lon="11.8014999"><ele>10.333333333333334</ele><time>2026-04-19T08:29:55.52Z</time></trkpt><trkpt lat="42.0859512" lon="11.8015882"><ele>11.166666666666666</ele><time>2026-04-19T08:29:57.517Z</time></trkpt><trkpt lat="42.0859044" lon="11.8016826"><ele>12.0</ele><time>2026-04-19T08:29:59.519Z</time></trkpt><trkpt lat="42.085848" lon="11.8017545"><ele>12.0</ele><time>2026-04-19T08:30:01.516Z</time></trkpt><trkpt lat="42.0857867" lon="11.8018363"><ele>12.0</ele><time>2026-04-19T08:30:03.519Z</time></trkpt><trkpt lat="42.0857409" lon="11.8019084"><ele>12.0</ele><time>2026-04-19T08:30:05.52Z</time></trkpt><trkpt lat="42.0856952" lon="11.8019798"><ele>12.0</ele><time>2026-04-19T08:30:07.52Z</time></trkpt><trkpt lat="42.0856413" lon="11.8020586"><ele>12.0</ele><time>2026-04-19T08:30:09.516Z</time></trkpt><trkpt lat="42.0855838" lon="11.8021422"><ele>12.0</ele><time>2026-04-19T08:30:11.519Z</time></trkpt><trkpt lat="42.085531" lon="11.8022194"><ele>12.166666666666666</ele><time>2026-04-19T08:30:13.52Z</time></trkpt><trkpt lat="42.0854756" lon="11.8022966"><ele>12.333333333333332</ele><time>2026-04-19T08:30:15.519Z</time></trkpt><trkpt lat="42.0854207" lon="11.8023751"><ele>12.5</ele><time>2026-04-19T08:30:17.518Z</time></trkpt><trkpt lat="42.0853718" lon="11.8024386"><ele>12.666666666666666</ele><time>2026-04-19T08:30:19.519Z</time></trkpt><trkpt lat="42.0853187" lon="11.8025018"><ele>12.833333333333332</ele><time>2026-04-19T08:30:21.52Z</time></trkpt><trkpt lat="42.0852612" lon="11.802564"><ele>13.0</ele><time>2026-04-19T08:30:23.519Z</time></trkpt><trkpt lat="42.0852037" lon="11.8026339"><ele>12.999999999999998</ele><time>2026-04-19T08:30:25.518Z</time></trkpt><trkpt lat="42.0851458" lon="11.802714"><ele>13.0</ele><time>2026-04-19T08:30:27.52Z</time></trkpt><trkpt lat="42.0851001" lon="11.8027894"><ele>13.0</ele><time>2026-04-19T08:30:29.514Z</time></trkpt><trkpt lat="42.0850463" lon="11.80288"><ele>13.0</ele><time>2026-04-19T08:30:31.521Z</time></trkpt><trkpt lat="42.0849901" lon="11.802967"><ele>12.999999999999998</ele><time>2026-04-19T08:30:33.521Z</time></trkpt><trkpt lat="42.0849391" lon="11.8030332"><ele>13.0</ele><time>2026-04-19T08:30:35.52Z</time></trkpt><trkpt lat="42.0848875" lon="11.8031041"><ele>13.0</ele><time>2026-04-19T08:30:37.52Z</time></trkpt><trkpt lat="42.0848383" lon="11.8031671"><ele>13.0</ele><time>2026-04-19T08:30:39.519Z</time></trkpt><trkpt lat="42.0847819" lon="11.8032364"><ele>13.0</ele><time>2026-04-19T08:30:41.518Z</time></trkpt><trkpt lat="42.0847263" lon="11.803303"><ele>13.0</ele><time>2026-04-19T08:30:43.52Z</time></trkpt><trkpt lat="42.0846688" lon="11.8033726"><ele>13.0</ele><time>2026-04-19T08:30:45.52Z</time></trkpt><trkpt lat="42.0846126" lon="11.8034359"><ele>13.0</ele><time>2026-04-19T08:30:47.518Z</time></trkpt><trkpt lat="42.0845579" lon="11.803501"><ele>13.0</ele><time>2026-04-19T08:30:49.514Z</time></trkpt><trkpt lat="42.0844992" lon="11.8035767"><ele>13.166666666666666</ele><time>2026-04-19T08:30:51.518Z</time></trkpt><trkpt lat="42.0844387" lon="11.8036514"><ele>13.333333333333332</ele><time>2026-04-19T08:30:53.52Z</time></trkpt><trkpt lat="42.0843858" lon="11.8037312"><ele>13.5</ele><time>2026-04-19T08:30:55.517Z</time></trkpt><trkpt lat="42.0843357" lon="11.8038065"><ele>13.666666666666668</ele><time>2026-04-19T08:30:57.524Z</time></trkpt><trkpt lat="42.084259" lon="11.8038978"><ele>13.833333333333334</ele><time>2026-04-19T08:31:00.518Z</time></trkpt><trkpt lat="42.0842005" lon="11.8039837"><ele>14.0</ele><time>2026-04-19T08:31:02.517Z</time></trkpt><trkpt lat="42.0841429" lon="11.8040568"><ele>14.0</ele><time>2026-04-19T08:31:04.516Z</time></trkpt><trkpt lat="42.0840834" lon="11.8041322"><ele>13.999999999999998</ele><time>2026-04-19T08:31:06.519Z</time></trkpt><trkpt lat="42.0840188" lon="11.804213"><ele>13.999999999999998</ele><time>2026-04-19T08:31:08.516Z</time></trkpt><trkpt lat="42.0839518" lon="11.8043019"><ele>14.0</ele><time>2026-04-19T08:31:10.515Z</time></trkpt><trkpt lat="42.0838843" lon="11.8043917"><ele>14.0</ele><time>2026-04-19T08:31:12.52Z</time></trkpt><trkpt lat="42.0838208" lon="11.8044796"><ele>13.6</ele><time>2026-04-19T08:31:14.52Z</time></trkpt><trkpt lat="42.0837502" lon="11.8045704"><ele>13.2</ele><time>2026-04-19T08:31:16.526Z</time></trkpt><trkpt lat="42.0836874" lon="11.8046585"><ele>12.799999999999999</ele><time>2026-04-19T08:31:18.529Z</time></trkpt><trkpt lat="42.0836293" lon="11.8047322"><ele>12.399999999999999</ele><time>2026-04-19T08:31:20.52Z</time></trkpt><trkpt lat="42.0835621" lon="11.8048296"><ele>12.0</ele><time>2026-04-19T08:31:22.525Z</time></trkpt><trkpt lat="42.0834945" lon="11.8049231"><ele>12.0</ele><time>2026-04-19T08:31:24.52Z</time></trkpt><trkpt lat="42.083434" lon="11.8050115"><ele>12.0</ele><time>2026-04-19T08:31:26.517Z</time></trkpt><trkpt lat="42.0833637" lon="11.8051121"><ele>12.0</ele><time>2026-04-19T08:31:28.517Z</time></trkpt><trkpt lat="42.0833004" lon="11.8052013"><ele>12.0</ele><time>2026-04-19T08:31:30.515Z</time></trkpt><trkpt lat="42.0832363" lon="11.805293"><ele>12.0</ele><time>2026-04-19T08:31:32.519Z</time></trkpt><trkpt lat="42.0831862" lon="11.8053619"><ele>12.0</ele><time>2026-04-19T08:31:34.518Z</time></trkpt><trkpt lat="42.0831299" lon="11.8054426"><ele>11.857142857142856</ele><time>2026-04-19T08:31:37.521Z</time></trkpt><trkpt lat="42.0830899" lon="11.8055106"><ele>11.714285714285714</ele><time>2026-04-19T08:31:42.516Z</time></trkpt><trkpt lat="42.0830438" lon="11.8055897"><ele>11.571428571428571</ele><time>2026-04-19T08:32:04.514Z</time></trkpt><trkpt lat="42.0829935" lon="11.8056564"><ele>11.428571428571427</ele><time>2026-04-19T08:32:07.519Z</time></trkpt><trkpt lat="42.0829359" lon="11.8057256"><ele>11.285714285714285</ele><time>2026-04-19T08:32:09.517Z</time></trkpt><trkpt lat="42.0828767" lon="11.8057979"><ele>11.142857142857142</ele><time>2026-04-19T08:32:11.52Z</time></trkpt><trkpt lat="42.082815" lon="11.8058643"><ele>11.0</ele><time>2026-04-19T08:32:13.518Z</time></trkpt><trkpt lat="42.0827413" lon="11.8059534"><ele>11.0</ele><time>2026-04-19T08:32:15.52Z</time></trkpt><trkpt lat="42.0826505" lon="11.8060379"><ele>11.0</ele><time>2026-04-19T08:32:17.518Z</time></trkpt><trkpt lat="42.0825592" lon="11.8061111"><ele>11.0</ele><time>2026-04-19T08:32:19.52Z</time></trkpt><trkpt lat="42.0824641" lon="11.80618"><ele>11.0</ele><time>2026-04-19T08:32:21.52Z</time></trkpt><trkpt lat="42.0823605" lon="11.8062472"><ele>11.0</ele><time>2026-04-19T08:32:23.518Z</time></trkpt><trkpt lat="42.0822658" lon="11.8062891"><ele>10.4</ele><time>2026-04-19T08:32:25.52Z</time></trkpt><trkpt lat="42.0821454" lon="11.8063462"><ele>9.8</ele><time>2026-04-19T08:32:27.52Z</time></trkpt><trkpt lat="42.0820444" lon="11.8063956"><ele>9.200000000000001</ele><time>2026-04-19T08:32:29.516Z</time></trkpt><trkpt lat="42.0819478" lon="11.8064449"><ele>8.600000000000001</ele><time>2026-04-19T08:32:31.518Z</time></trkpt><trkpt lat="42.0818582" lon="11.8065011"><ele>8.0</ele><time>2026-04-19T08:32:33.52Z</time></trkpt><trkpt lat="42.0817703" lon="11.8065401"><ele>7.999999999999999</ele><time>2026-04-19T08:32:35.52Z</time></trkpt><trkpt lat="42.081681" lon="11.806585"><ele>8.0</ele><time>2026-04-19T08:32:37.517Z</time></trkpt><trkpt lat="42.0815915" lon="11.8066329"><ele>8.0</ele><time>2026-04-19T08:32:39.52Z</time></trkpt><trkpt lat="42.0815053" lon="11.8066837"><ele>8.0</ele><time>2026-04-19T08:32:41.521Z</time></trkpt><trkpt lat="42.0814265" lon="11.8067281"><ele>7.999999999999999</ele><time>2026-04-19T08:32:43.519Z</time></trkpt><trkpt lat="42.0813598" lon="11.8067691"><ele>8.0</ele><time>2026-04-19T08:32:45.52Z</time></trkpt><trkpt lat="42.0812758" lon="11.8068171"><ele>7.999999999999999</ele><time>2026-04-19T08:32:48.515Z</time></trkpt><trkpt lat="42.0811977" lon="11.8068587"><ele>8.0</ele><time>2026-04-19T08:32:51.517Z</time></trkpt><trkpt lat="42.0811138" lon="11.8069023"><ele>8.0</ele><time>2026-04-19T08:32:54.52Z</time></trkpt><trkpt lat="42.0810547" lon="11.8069347"><ele>8.0</ele><time>2026-04-19T08:32:56.519Z</time></trkpt><trkpt lat="42.0809909" lon="11.8069785"><ele>7.999999999999999</ele><time>2026-04-19T08:32:58.519Z</time></trkpt><trkpt lat="42.0809241" lon="11.8070257"><ele>8.0</ele><time>2026-04-19T08:33:00.519Z</time></trkpt><trkpt lat="42.0808505" lon="11.8070657"><ele>7.999999999999999</ele><time>2026-04-19T08:33:02.514Z</time></trkpt><trkpt lat="42.0807734" lon="11.807108"><ele>8.0</ele><time>2026-04-19T08:33:04.519Z</time></trkpt><trkpt lat="42.0807003" lon="11.8071511"><ele>8.0</ele><time>2026-04-19T08:33:06.52Z</time></trkpt><trkpt lat="42.0806291" lon="11.8071963"><ele>8.0</ele><time>2026-04-19T08:33:08.516Z</time></trkpt><trkpt lat="42.0805669" lon="11.8072475"><ele>7.999999999999999</ele><time>2026-04-19T08:33:10.516Z</time></trkpt><trkpt lat="42.0806025" lon="11.8073462"><ele>8.0</ele><time>2026-04-19T08:33:13.52Z</time></trkpt><trkpt lat="42.0806842" lon="11.8073522"><ele>7.999999999999999</ele><time>2026-04-19T08:33:15.519Z</time></trkpt><trkpt lat="42.080767" lon="11.8073212"><ele>8.0</ele><time>2026-04-19T08:33:17.518Z</time></trkpt><trkpt lat="42.0808333" lon="11.8072553"><ele>8.0</ele><time>2026-04-19T08:33:18.518Z</time></trkpt><trkpt lat="42.0809279" lon="11.8072139"><ele>8.0</ele><time>2026-04-19T08:33:20.517Z</time></trkpt><trkpt lat="42.081022" lon="11.8071922"><ele>7.999999999999999</ele><time>2026-04-19T08:33:22.517Z</time></trkpt><trkpt lat="42.0810886" lon="11.8072179"><ele>8.0</ele><time>2026-04-19T08:33:24.519Z</time></trkpt><trkpt lat="42.0811452" lon="11.8073427"><ele>7.999999999999999</ele><time>2026-04-19T08:33:26.517Z</time></trkpt><trkpt lat="42.0811201" lon="11.8074221"><ele>8.0</ele><time>2026-04-19T08:33:28.516Z</time></trkpt><trkpt lat="42.0811056" lon="11.8075282"><ele>8.0</ele><time>2026-04-19T08:33:30.517Z</time></trkpt><trkpt lat="42.0810967" lon="11.8076462"><ele>8.0</ele><time>2026-04-19T08:33:33.519Z</time></trkpt><trkpt lat="42.0810875" lon="11.8077435"><ele>7.999999999999999</ele><time>2026-04-19T08:33:36.519Z</time></trkpt><trkpt lat="42.0810851" lon="11.807834"><ele>8.0</ele><time>2026-04-19T08:33:40.518Z</time></trkpt><trkpt lat="42.0810769" lon="11.8079533"><ele>8.666666666666666</ele><time>2026-04-19T08:34:01.517Z</time></trkpt><trkpt lat="42.0810826" lon="11.8080429"><ele>9.333333333333332</ele><time>2026-04-19T08:34:03.515Z</time></trkpt><trkpt lat="42.0810776" lon="11.8081347"><ele>10.0</ele><time>2026-04-19T08:34:05.517Z</time></trkpt><trkpt lat="42.0810395" lon="11.808241"><ele>10.666666666666666</ele><time>2026-04-19T08:34:08.517Z</time></trkpt><trkpt lat="42.0809978" lon="11.808345"><ele>11.333333333333334</ele><time>2026-04-19T08:34:11.519Z</time></trkpt><trkpt lat="42.0809762" lon="11.8084586"><ele>12.0</ele><time>2026-04-19T08:34:14.518Z</time></trkpt><trkpt lat="42.0809997" lon="11.808558"><ele>12.666666666666666</ele><time>2026-04-19T08:34:16.517Z</time></trkpt><trkpt lat="42.0810482" lon="11.808648"><ele>13.333333333333332</ele><time>2026-04-19T08:34:18.518Z</time></trkpt><trkpt lat="42.081121" lon="11.8087218"><ele>14.0</ele><time>2026-04-19T08:34:21.52Z</time></trkpt><trkpt lat="42.0811736" lon="11.8088225"><ele>14.666666666666666</ele><time>2026-04-19T08:34:24.52Z</time></trkpt><trkpt lat="42.0812208" lon="11.8089288"><ele>15.333333333333332</ele><time>2026-04-19T08:34:27.514Z</time></trkpt><trkpt lat="42.0812556" lon="11.8090094"><ele>16.0</ele><time>2026-04-19T08:34:29.52Z</time></trkpt><trkpt lat="42.081291" lon="11.8090867"><ele>16.0</ele><time>2026-04-19T08:34:31.517Z</time></trkpt><trkpt lat="42.0813241" lon="11.8091715"><ele>15.999999999999998</ele><time>2026-04-19T08:34:33.519Z</time></trkpt><trkpt lat="42.0813592" lon="11.8092587"><ele>16.0</ele><time>2026-04-19T08:34:35.518Z</time></trkpt><trkpt lat="42.081393" lon="11.8093425"><ele>16.0</ele><time>2026-04-19T08:34:37.519Z</time></trkpt><trkpt lat="42.0814267" lon="11.8094227"><ele>15.999999999999998</ele><time>2026-04-19T08:34:39.52Z</time></trkpt><trkpt lat="42.0814688" lon="11.8094979"><ele>16.0</ele><time>2026-04-19T08:34:41.52Z</time></trkpt><trkpt lat="42.0815038" lon="11.8095839"><ele>16.0</ele><time>2026-04-19T08:34:43.52Z</time></trkpt><trkpt lat="42.0815425" lon="11.8096731"><ele>16.142857142857142</ele><time>2026-04-19T08:34:45.517Z</time></trkpt><trkpt lat="42.0815782" lon="11.8097635"><ele>16.285714285714285</ele><time>2026-04-19T08:34:47.519Z</time></trkpt><trkpt lat="42.0816106" lon="11.8098458"><ele>16.428571428571427</ele><time>2026-04-19T08:34:49.516Z</time></trkpt><trkpt lat="42.0816467" lon="11.8099268"><ele>16.57142857142857</ele><time>2026-04-19T08:34:51.52Z</time></trkpt><trkpt lat="42.081682" lon="11.8100137"><ele>16.714285714285715</ele><time>2026-04-19T08:34:53.52Z</time></trkpt><trkpt lat="42.0817206" lon="11.8100971"><ele>16.857142857142854</ele><time>2026-04-19T08:34:55.517Z</time></trkpt><trkpt lat="42.0817602" lon="11.8101765"><ele>17.0</ele><time>2026-04-19T08:34:57.518Z</time></trkpt><trkpt lat="42.0818021" lon="11.810261"><ele>18.0</ele><time>2026-04-19T08:34:59.517Z</time></trkpt><trkpt lat="42.0818471" lon="11.8103454"><ele>19.0</ele><time>2026-04-19T08:35:01.519Z</time></trkpt><trkpt lat="42.0818908" lon="11.8104288"><ele>20.0</ele><time>2026-04-19T08:35:03.518Z</time></trkpt><trkpt lat="42.0819322" lon="11.8105147"><ele>21.0</ele><time>2026-04-19T08:35:05.525Z</time></trkpt><trkpt lat="42.0819739" lon="11.810605"><ele>22.0</ele><time>2026-04-19T08:35:07.517Z</time></trkpt><trkpt lat="42.0820175" lon="11.810694"><ele>23.0</ele><time>2026-04-19T08:35:09.518Z</time></trkpt><trkpt lat="42.0820601" lon="11.8107847"><ele>23.0</ele><time>2026-04-19T08:35:11.517Z</time></trkpt><trkpt lat="42.082101" lon="11.8108702"><ele>23.0</ele><time>2026-04-19T08:35:13.518Z</time></trkpt><trkpt lat="42.0821412" lon="11.8109524"><ele>23.0</ele><time>2026-04-19T08:35:15.516Z</time></trkpt><trkpt lat="42.0821781" lon="11.8110352"><ele>23.0</ele><time>2026-04-19T08:35:17.519Z</time></trkpt><trkpt lat="42.0822107" lon="11.8111158"><ele>23.0</ele><time>2026-04-19T08:35:19.519Z</time></trkpt><trkpt lat="42.0822474" lon="11.8111979"><ele>23.0</ele><time>2026-04-19T08:35:21.52Z</time></trkpt><trkpt lat="42.0822845" lon="11.8112868"><ele>23.0</ele><time>2026-04-19T08:35:23.516Z</time></trkpt><trkpt lat="42.0823233" lon="11.8113737"><ele>23.28571428571429</ele><time>2026-04-19T08:35:25.518Z</time></trkpt><trkpt lat="42.0823586" lon="11.8114549"><ele>23.57142857142857</ele><time>2026-04-19T08:35:27.519Z</time></trkpt><trkpt lat="42.0823989" lon="11.8115331"><ele>23.857142857142858</ele><time>2026-04-19T08:35:29.522Z</time></trkpt><trkpt lat="42.082428" lon="11.8116136"><ele>24.142857142857146</ele><time>2026-04-19T08:35:31.517Z</time></trkpt><trkpt lat="42.0824636" lon="11.8116941"><ele>24.42857142857143</ele><time>2026-04-19T08:35:33.52Z</time></trkpt><trkpt lat="42.0825" lon="11.8117744"><ele>24.714285714285715</ele><time>2026-04-19T08:35:35.52Z</time></trkpt><trkpt lat="42.0825414" lon="11.8118551"><ele>25.0</ele><time>2026-04-19T08:35:37.516Z</time></trkpt><trkpt lat="42.0825824" lon="11.8119356"><ele>25.571428571428573</ele><time>2026-04-19T08:35:39.518Z</time></trkpt><trkpt lat="42.0826274" lon="11.8120133"><ele>26.142857142857146</ele><time>2026-04-19T08:35:41.52Z</time></trkpt><trkpt lat="42.0826663" lon="11.8120905"><ele>26.714285714285715</ele><time>2026-04-19T08:35:43.519Z</time></trkpt><trkpt lat="42.0827074" lon="11.8121657"><ele>27.28571428571429</ele><time>2026-04-19T08:35:45.519Z</time></trkpt><trkpt lat="42.0827488" lon="11.8122376"><ele>27.857142857142858</ele><time>2026-04-19T08:35:47.523Z</time></trkpt><trkpt lat="42.0827903" lon="11.812305"><ele>28.428571428571434</ele><time>2026-04-19T08:35:49.517Z</time></trkpt><trkpt lat="42.0828264" lon="11.8123754"><ele>29.000000000000004</ele><time>2026-04-19T08:35:51.517Z</time></trkpt><trkpt lat="42.0828574" lon="11.8124574"><ele>28.999999999999996</ele><time>2026-04-19T08:35:53.517Z</time></trkpt><trkpt lat="42.0828967" lon="11.8125382"><ele>29.0</ele><time>2026-04-19T08:35:55.518Z</time></trkpt><trkpt lat="42.082942" lon="11.8126395"><ele>29.0</ele><time>2026-04-19T08:35:57.518Z</time></trkpt><trkpt lat="42.0829919" lon="11.8127434"><ele>29.0</ele><time>2026-04-19T08:35:59.52Z</time></trkpt><trkpt lat="42.0830438" lon="11.8128388"><ele>28.999999999999996</ele><time>2026-04-19T08:36:01.517Z</time></trkpt><trkpt lat="42.0830918" lon="11.8129216"><ele>29.0</ele><time>2026-04-19T08:36:03.528Z</time></trkpt><trkpt lat="42.0831282" lon="11.8130061"><ele>29.42857142857143</ele><time>2026-04-19T08:36:05.517Z</time></trkpt><trkpt lat="42.0831644" lon="11.813091"><ele>29.857142857142858</ele><time>2026-04-19T08:36:07.519Z</time></trkpt><trkpt lat="42.0832056" lon="11.8131628"><ele>30.285714285714285</ele><time>2026-04-19T08:36:09.515Z</time></trkpt><trkpt lat="42.0832451" lon="11.8132343"><ele>30.714285714285715</ele><time>2026-04-19T08:36:11.518Z</time></trkpt><trkpt lat="42.0832831" lon="11.8133069"><ele>31.14285714285714</ele><time>2026-04-19T08:36:13.517Z</time></trkpt><trkpt lat="42.0833165" lon="11.8133856"><ele>31.57142857142857</ele><time>2026-04-19T08:36:15.518Z</time></trkpt><trkpt lat="42.0833449" lon="11.8134629"><ele>32.0</ele><time>2026-04-19T08:36:17.518Z</time></trkpt><trkpt lat="42.0833771" lon="11.8135403"><ele>32.42857142857143</ele><time>2026-04-19T08:36:19.517Z</time></trkpt><trkpt lat="42.083415" lon="11.8136177"><ele>32.857142857142854</ele><time>2026-04-19T08:36:21.518Z</time></trkpt><trkpt lat="42.083452" lon="11.8136942"><ele>33.285714285714285</ele><time>2026-04-19T08:36:23.518Z</time></trkpt><trkpt lat="42.0834925" lon="11.813768"><ele>33.714285714285715</ele><time>2026-04-19T08:36:25.517Z</time></trkpt><trkpt lat="42.0835308" lon="11.8138432"><ele>34.14285714285714</ele><time>2026-04-19T08:36:27.516Z</time></trkpt><trkpt lat="42.0835763" lon="11.8139241"><ele>34.57142857142857</ele><time>2026-04-19T08:36:29.514Z</time></trkpt><trkpt lat="42.0836185" lon="11.8140131"><ele>35.0</ele><time>2026-04-19T08:36:31.52Z</time></trkpt><trkpt lat="42.0836761" lon="11.814132"><ele>35.0</ele><time>2026-04-19T08:36:33.52Z</time></trkpt><trkpt lat="42.0837394" lon="11.8142662"><ele>35.0</ele><time>2026-04-19T08:36:35.52Z</time></trkpt><trkpt lat="42.0837688" lon="11.814342"><ele>35.0</ele><time>2026-04-19T08:36:36.518Z</time></trkpt><trkpt lat="42.0837953" lon="11.814421"><ele>35.0</ele><time>2026-04-19T08:36:37.518Z</time></trkpt><trkpt lat="42.083848" lon="11.8145577"><ele>35.0</ele><time>2026-04-19T08:36:39.521Z</time></trkpt><trkpt lat="42.0838891" lon="11.8146803"><ele>35.6</ele><time>2026-04-19T08:36:41.518Z</time></trkpt><trkpt lat="42.083928" lon="11.8147997"><ele>36.2</ele><time>2026-04-19T08:36:43.517Z</time></trkpt><trkpt lat="42.0839651" lon="11.81492"><ele>36.8</ele><time>2026-04-19T08:36:45.519Z</time></trkpt><trkpt lat="42.083997" lon="11.8150479"><ele>37.4</ele><time>2026-04-19T08:36:47.519Z</time></trkpt><trkpt lat="42.0839869" lon="11.815175"><ele>38.0</ele><time>2026-04-19T08:36:49.516Z</time></trkpt><trkpt lat="42.0839978" lon="11.8152822"><ele>38.0</ele><time>2026-04-19T08:36:51.52Z</time></trkpt><trkpt lat="42.0840235" lon="11.8153812"><ele>38.0</ele><time>2026-04-19T08:36:53.518Z</time></trkpt><trkpt lat="42.0840532" lon="11.8154697"><ele>38.0</ele><time>2026-04-19T08:36:55.518Z</time></trkpt><trkpt lat="42.0840789" lon="11.8155743"><ele>38.0</ele><time>2026-04-19T08:36:57.518Z</time></trkpt><trkpt lat="42.0841021" lon="11.8156853"><ele>38.0</ele><time>2026-04-19T08:36:59.521Z</time></trkpt><trkpt lat="42.0841297" lon="11.8157982"><ele>38.0</ele><time>2026-04-19T08:37:01.52Z</time></trkpt><trkpt lat="42.0841438" lon="11.8159273"><ele>39.0</ele><time>2026-04-19T08:37:03.52Z</time></trkpt><trkpt lat="42.0841703" lon="11.8160488"><ele>40.0</ele><time>2026-04-19T08:37:05.519Z</time></trkpt><trkpt lat="42.0841958" lon="11.8161741"><ele>41.0</ele><time>2026-04-19T08:37:07.519Z</time></trkpt><trkpt lat="42.0842185" lon="11.8162931"><ele>42.0</ele><time>2026-04-19T08:37:09.515Z</time></trkpt><trkpt lat="42.0842432" lon="11.8164188"><ele>43.0</ele><time>2026-04-19T08:37:11.519Z</time></trkpt><trkpt lat="42.08427" lon="11.816538"><ele>43.0</ele><time>2026-04-19T08:37:13.517Z</time></trkpt><trkpt lat="42.0843095" lon="11.816638"><ele>43.0</ele><time>2026-04-19T08:37:15.519Z</time></trkpt><trkpt lat="42.0843526" lon="11.8167243"><ele>43.0</ele><time>2026-04-19T08:37:17.52Z</time></trkpt><trkpt lat="42.0843893" lon="11.8168119"><ele>43.0</ele><time>2026-04-19T08:37:19.52Z</time></trkpt><trkpt lat="42.0844245" lon="11.8168871"><ele>43.0</ele><time>2026-04-19T08:37:21.519Z</time></trkpt><trkpt lat="42.084472" lon="11.8169889"><ele>43.0</ele><time>2026-04-19T08:37:24.518Z</time></trkpt><trkpt lat="42.0845148" lon="11.8170815"><ele>43.5</ele><time>2026-04-19T08:37:27.517Z</time></trkpt><trkpt lat="42.0845651" lon="11.8171737"><ele>44.0</ele><time>2026-04-19T08:37:30.515Z</time></trkpt><trkpt lat="42.0846172" lon="11.8172709"><ele>44.5</ele><time>2026-04-19T08:37:33.52Z</time></trkpt><trkpt lat="42.0846589" lon="11.8173712"><ele>45.0</ele><time>2026-04-19T08:37:36.519Z</time></trkpt><trkpt lat="42.0846887" lon="11.8174716"><ele>45.5</ele><time>2026-04-19T08:37:39.528Z</time></trkpt><trkpt lat="42.0847126" lon="11.8175685"><ele>46.0</ele><time>2026-04-19T08:37:42.519Z</time></trkpt><trkpt lat="42.0847322" lon="11.8176684"><ele>47.16666666666667</ele><time>2026-04-19T08:37:45.519Z</time></trkpt><trkpt lat="42.0847568" lon="11.8177694"><ele>48.333333333333336</ele><time>2026-04-19T08:37:48.516Z</time></trkpt><trkpt lat="42.0847739" lon="11.8178725"><ele>49.5</ele><time>2026-04-19T08:37:51.519Z</time></trkpt><trkpt lat="42.0847974" lon="11.8179752"><ele>50.66666666666667</ele><time>2026-04-19T08:37:54.52Z</time></trkpt><trkpt lat="42.084818" lon="11.8180762"><ele>51.833333333333336</ele><time>2026-04-19T08:37:57.518Z</time></trkpt><trkpt lat="42.0848417" lon="11.8181888"><ele>53.0</ele><time>2026-04-19T08:38:00.52Z</time></trkpt><trkpt lat="42.084863" lon="11.8182992"><ele>53.00000000000001</ele><time>2026-04-19T08:38:03.52Z</time></trkpt><trkpt lat="42.0848843" lon="11.8184113"><ele>53.0</ele><time>2026-04-19T08:38:06.519Z</time></trkpt><trkpt lat="42.0849035" lon="11.8185189"><ele>53.0</ele><time>2026-04-19T08:38:09.515Z</time></trkpt><trkpt lat="42.0849304" lon="11.8186251"><ele>53.0</ele><time>2026-04-19T08:38:12.52Z</time></trkpt><trkpt lat="42.0849556" lon="11.8187332"><ele>53.00000000000001</ele><time>2026-04-19T08:38:15.52Z</time></trkpt><trkpt lat="42.0849825" lon="11.8188332"><ele>53.0</ele><time>2026-04-19T08:38:18.518Z</time></trkpt><trkpt lat="42.0850103" lon="11.8189345"><ele>54.16666666666667</ele><time>2026-04-19T08:38:21.519Z</time></trkpt><trkpt lat="42.0850428" lon="11.8190376"><ele>55.333333333333336</ele><time>2026-04-19T08:38:24.519Z</time></trkpt><trkpt lat="42.0850674" lon="11.8191435"><ele>56.5</ele><time>2026-04-19T08:38:27.518Z</time></trkpt><trkpt lat="42.0850875" lon="11.8192489"><ele>57.66666666666667</ele><time>2026-04-19T08:38:30.515Z</time></trkpt><trkpt lat="42.0851139" lon="11.8193513"><ele>58.833333333333336</ele><time>2026-04-19T08:38:33.518Z</time></trkpt><trkpt lat="42.0851332" lon="11.8194544"><ele>60.0</ele><time>2026-04-19T08:38:36.522Z</time></trkpt><trkpt lat="42.0851611" lon="11.8195635"><ele>60.833333333333336</ele><time>2026-04-19T08:38:39.515Z</time></trkpt><trkpt lat="42.0851959" lon="11.8196641"><ele>61.66666666666667</ele><time>2026-04-19T08:38:42.519Z</time></trkpt><trkpt lat="42.0852274" lon="11.8197643"><ele>62.5</ele><time>2026-04-19T08:38:45.526Z</time></trkpt><trkpt lat="42.0852605" lon="11.819862"><ele>63.333333333333336</ele><time>2026-04-19T08:38:48.521Z</time></trkpt><trkpt lat="42.0852983" lon="11.819964"><ele>64.16666666666667</ele><time>2026-04-19T08:38:51.52Z</time></trkpt><trkpt lat="42.0853348" lon="11.8200596"><ele>65.0</ele><time>2026-04-19T08:38:54.518Z</time></trkpt><trkpt lat="42.0853767" lon="11.8201499"><ele>65.83333333333334</ele><time>2026-04-19T08:38:57.519Z</time></trkpt><trkpt lat="42.0854144" lon="11.8202417"><ele>66.66666666666667</ele><time>2026-04-19T08:39:00.517Z</time></trkpt><trkpt lat="42.0854467" lon="11.8203329"><ele>67.5</ele><time>2026-04-19T08:39:03.518Z</time></trkpt><trkpt lat="42.0854673" lon="11.8204267"><ele>68.33333333333333</ele><time>2026-04-19T08:39:06.52Z</time></trkpt><trkpt lat="42.0854881" lon="11.8205207"><ele>69.16666666666666</ele><time>2026-04-19T08:39:09.513Z</time></trkpt><trkpt lat="42.0855105" lon="11.820624"><ele>70.0</ele><time>2026-04-19T08:39:12.517Z</time></trkpt><trkpt lat="42.0855341" lon="11.82073"><ele>70.0</ele><time>2026-04-19T08:39:15.52Z</time></trkpt><trkpt lat="42.0855538" lon="11.820833"><ele>70.0</ele><time>2026-04-19T08:39:18.517Z</time></trkpt><trkpt lat="42.0855583" lon="11.8209339"><ele>70.0</ele><time>2026-04-19T08:39:21.52Z</time></trkpt><trkpt lat="42.0855755" lon="11.8210428"><ele>70.0</ele><time>2026-04-19T08:39:24.516Z</time></trkpt><trkpt lat="42.0855795" lon="11.8211488"><ele>70.0</ele><time>2026-04-19T08:39:27.52Z</time></trkpt><trkpt lat="42.0855874" lon="11.8212593"><ele>70.0</ele><time>2026-04-19T08:39:30.522Z</time></trkpt><trkpt lat="42.0855997" lon="11.8213703"><ele>70.5</ele><time>2026-04-19T08:39:33.52Z</time></trkpt><trkpt lat="42.0856045" lon="11.8214863"><ele>71.0</ele><time>2026-04-19T08:39:36.521Z</time></trkpt><trkpt lat="42.0856128" lon="11.8215959"><ele>71.5</ele><time>2026-04-19T08:39:39.517Z</time></trkpt><trkpt lat="42.0856173" lon="11.8217112"><ele>72.0</ele><time>2026-04-19T08:39:42.519Z</time></trkpt><trkpt lat="42.0856343" lon="11.8218226"><ele>72.5</ele><time>2026-04-19T08:39:45.517Z</time></trkpt><trkpt lat="42.0856452" lon="11.8219359"><ele>73.0</ele><time>2026-04-19T08:39:48.517Z</time></trkpt><trkpt lat="42.0856599" lon="11.8220503"><ele>73.5</ele><time>2026-04-19T08:39:51.518Z</time></trkpt><trkpt lat="42.0856662" lon="11.8221608"><ele>74.0</ele><time>2026-04-19T08:39:54.517Z</time></trkpt><trkpt lat="42.0856799" lon="11.8222771"><ele>74.5</ele><time>2026-04-19T08:39:57.518Z</time></trkpt><trkpt lat="42.0856867" lon="11.8223894"><ele>75.0</ele><time>2026-04-19T08:40:00.518Z</time></trkpt><trkpt lat="42.0856964" lon="11.8225101"><ele>75.5</ele><time>2026-04-19T08:40:03.52Z</time></trkpt><trkpt lat="42.085715" lon="11.8226208"><ele>76.0</ele><time>2026-04-19T08:40:06.521Z</time></trkpt><trkpt lat="42.0857234" lon="11.8227251"><ele>76.5</ele><time>2026-04-19T08:40:09.516Z</time></trkpt><trkpt lat="42.0857378" lon="11.8228324"><ele>77.0</ele><time>2026-04-19T08:40:12.52Z</time></trkpt><trkpt lat="42.0857431" lon="11.8229474"><ele>77.5</ele><time>2026-04-19T08:40:15.52Z</time></trkpt><trkpt lat="42.0857509" lon="11.823063"><ele>78.0</ele><time>2026-04-19T08:40:18.518Z</time></trkpt><trkpt lat="42.0857588" lon="11.8231792"><ele>78.5</ele><time>2026-04-19T08:40:21.517Z</time></trkpt><trkpt lat="42.0857673" lon="11.8232996"><ele>79.0</ele><time>2026-04-19T08:40:24.519Z</time></trkpt><trkpt lat="42.0857744" lon="11.8234179"><ele>80.28571428571429</ele><time>2026-04-19T08:40:27.519Z</time></trkpt><trkpt lat="42.0857818" lon="11.8235032"><ele>81.57142857142857</ele><time>2026-04-19T08:40:29.515Z</time></trkpt><trkpt lat="42.0857863" lon="11.8235899"><ele>82.85714285714286</ele><time>2026-04-19T08:40:31.516Z</time></trkpt><trkpt lat="42.085793" lon="11.8236806"><ele>84.14285714285714</ele><time>2026-04-19T08:40:33.519Z</time></trkpt><trkpt lat="42.0858075" lon="11.8237707"><ele>85.42857142857143</ele><time>2026-04-19T08:40:35.52Z</time></trkpt><trkpt lat="42.0858287" lon="11.8238578"><ele>86.71428571428572</ele><time>2026-04-19T08:40:37.518Z</time></trkpt><trkpt lat="42.0858516" lon="11.8239411"><ele>88.0</ele><time>2026-04-19T08:40:39.518Z</time></trkpt><trkpt lat="42.085878" lon="11.8240215"><ele>88.0</ele><time>2026-04-19T08:40:41.52Z</time></trkpt><trkpt lat="42.0859074" lon="11.8241384"><ele>88.0</ele><time>2026-04-19T08:40:44.518Z</time></trkpt><trkpt lat="42.0859426" lon="11.8242556"><ele>88.0</ele><time>2026-04-19T08:40:47.519Z</time></trkpt><trkpt lat="42.0859707" lon="11.8243333"><ele>88.0</ele><time>2026-04-19T08:40:49.514Z</time></trkpt><trkpt lat="42.0859965" lon="11.8244143"><ele>88.0</ele><time>2026-04-19T08:40:51.518Z</time></trkpt><trkpt lat="42.0860188" lon="11.824538"><ele>88.0</ele><time>2026-04-19T08:40:54.518Z</time></trkpt><trkpt lat="42.0860384" lon="11.8246568"><ele>89.33333333333333</ele><time>2026-04-19T08:40:57.521Z</time></trkpt><trkpt lat="42.0860603" lon="11.8247747"><ele>90.66666666666666</ele><time>2026-04-19T08:41:00.519Z</time></trkpt><trkpt lat="42.0860786" lon="11.8248905"><ele>92.0</ele><time>2026-04-19T08:41:03.515Z</time></trkpt><trkpt lat="42.0860981" lon="11.8250029"><ele>93.33333333333333</ele><time>2026-04-19T08:41:06.52Z</time></trkpt><trkpt lat="42.0861194" lon="11.8251187"><ele>94.66666666666667</ele><time>2026-04-19T08:41:09.515Z</time></trkpt><trkpt lat="42.0861371" lon="11.8252351"><ele>96.0</ele><time>2026-04-19T08:41:12.519Z</time></trkpt><trkpt lat="42.086153" lon="11.8253484"><ele>97.16666666666667</ele><time>2026-04-19T08:41:15.517Z</time></trkpt><trkpt lat="42.0861558" lon="11.8254624"><ele>98.33333333333334</ele><time>2026-04-19T08:41:18.522Z</time></trkpt><trkpt lat="42.0861631" lon="11.8255734"><ele>99.5</ele><time>2026-04-19T08:41:21.518Z</time></trkpt><trkpt lat="42.0861771" lon="11.82568"><ele>100.66666666666667</ele><time>2026-04-19T08:41:24.52Z</time></trkpt><trkpt lat="42.0862072" lon="11.8257856"><ele>101.83333333333334</ele><time>2026-04-19T08:41:27.519Z</time></trkpt><trkpt lat="42.0862383" lon="11.825886"><ele>103.0</ele><time>2026-04-19T08:41:30.514Z</time></trkpt><trkpt lat="42.0862728" lon="11.8259808"><ele>103.83333333333334</ele><time>2026-04-19T08:41:33.519Z</time></trkpt><trkpt lat="42.0863051" lon="11.8260698"><ele>104.66666666666667</ele><time>2026-04-19T08:41:36.519Z</time></trkpt><trkpt lat="42.0863397" lon="11.826157"><ele>105.5</ele><time>2026-04-19T08:41:39.519Z</time></trkpt><trkpt lat="42.0863822" lon="11.826242"><ele>106.33333333333334</ele><time>2026-04-19T08:41:42.519Z</time></trkpt><trkpt lat="42.0864317" lon="11.8263235"><ele>107.16666666666667</ele><time>2026-04-19T08:41:45.52Z</time></trkpt><trkpt lat="42.0864761" lon="11.8264147"><ele>108.0</ele><time>2026-04-19T08:41:48.519Z</time></trkpt><trkpt lat="42.0865104" lon="11.8265178"><ele>108.0</ele><time>2026-04-19T08:41:51.516Z</time></trkpt><trkpt lat="42.0865444" lon="11.8266201"><ele>108.0</ele><time>2026-04-19T08:41:54.521Z</time></trkpt><trkpt lat="42.0865666" lon="11.826727"><ele>108.0</ele><time>2026-04-19T08:41:57.518Z</time></trkpt><trkpt lat="42.0865883" lon="11.8268303"><ele>108.0</ele><time>2026-04-19T08:42:00.519Z</time></trkpt><trkpt lat="42.08661" lon="11.8269388"><ele>108.0</ele><time>2026-04-19T08:42:03.519Z</time></trkpt><trkpt lat="42.0866344" lon="11.8270503"><ele>108.0</ele><time>2026-04-19T08:42:06.519Z</time></trkpt><trkpt lat="42.0866633" lon="11.827154"><ele>109.33333333333333</ele><time>2026-04-19T08:42:09.515Z</time></trkpt><trkpt lat="42.0867058" lon="11.8272568"><ele>110.66666666666666</ele><time>2026-04-19T08:42:12.519Z</time></trkpt><trkpt lat="42.0867522" lon="11.8273552"><ele>112.0</ele><time>2026-04-19T08:42:15.52Z</time></trkpt><trkpt lat="42.0868124" lon="11.8274459"><ele>113.33333333333333</ele><time>2026-04-19T08:42:18.518Z</time></trkpt><trkpt lat="42.0868856" lon="11.8275208"><ele>114.66666666666666</ele><time>2026-04-19T08:42:21.518Z</time></trkpt><trkpt lat="42.0869444" lon="11.8275602"><ele>116.0</ele><time>2026-04-19T08:42:23.518Z</time></trkpt><trkpt lat="42.0870067" lon="11.8275751"><ele>115.99999999999999</ele><time>2026-04-19T08:42:25.518Z</time></trkpt><trkpt lat="42.0870916" lon="11.8276013"><ele>116.0</ele><time>2026-04-19T08:42:28.515Z</time></trkpt><trkpt lat="42.0871715" lon="11.8276137"><ele>116.0</ele><time>2026-04-19T08:42:31.515Z</time></trkpt><trkpt lat="42.0872536" lon="11.8276354"><ele>116.0</ele><time>2026-04-19T08:42:34.518Z</time></trkpt><trkpt lat="42.0873254" lon="11.8276824"><ele>115.99999999999999</ele><time>2026-04-19T08:42:37.518Z</time></trkpt><trkpt lat="42.0873762" lon="11.8277639"><ele>116.0</ele><time>2026-04-19T08:42:40.52Z</time></trkpt><trkpt lat="42.0873894" lon="11.8278791"><ele>116.83333333333333</ele><time>2026-04-19T08:42:43.516Z</time></trkpt><trkpt lat="42.0873702" lon="11.8279907"><ele>117.66666666666666</ele><time>2026-04-19T08:42:46.52Z</time></trkpt><trkpt lat="42.0873512" lon="11.8281004"><ele>118.5</ele><time>2026-04-19T08:42:49.515Z</time></trkpt><trkpt lat="42.0873304" lon="11.8282248"><ele>119.33333333333334</ele><time>2026-04-19T08:42:52.52Z</time></trkpt><trkpt lat="42.0873116" lon="11.8283289"><ele>120.16666666666667</ele><time>2026-04-19T08:42:54.521Z</time></trkpt><trkpt lat="42.0872855" lon="11.8284458"><ele>121.0</ele><time>2026-04-19T08:42:56.53Z</time></trkpt><trkpt lat="42.0872562" lon="11.8285754"><ele>122.16666666666667</ele><time>2026-04-19T08:42:58.522Z</time></trkpt><trkpt lat="42.0872348" lon="11.8286914"><ele>123.33333333333334</ele><time>2026-04-19T08:43:00.518Z</time></trkpt><trkpt lat="42.0872262" lon="11.8288004"><ele>124.5</ele><time>2026-04-19T08:43:02.518Z</time></trkpt><trkpt lat="42.0872231" lon="11.8288992"><ele>125.66666666666666</ele><time>2026-04-19T08:43:04.516Z</time></trkpt><trkpt lat="42.087222" lon="11.828987"><ele>126.83333333333333</ele><time>2026-04-19T08:43:06.52Z</time></trkpt><trkpt lat="42.0872316" lon="11.8291092"><ele>128.0</ele><time>2026-04-19T08:43:09.516Z</time></trkpt><trkpt lat="42.0872202" lon="11.8291945"><ele>127.99999999999999</ele><time>2026-04-19T08:43:11.515Z</time></trkpt><trkpt lat="42.0872013" lon="11.8292763"><ele>128.0</ele><time>2026-04-19T08:43:13.516Z</time></trkpt><trkpt lat="42.0871655" lon="11.8293907"><ele>128.0</ele><time>2026-04-19T08:43:16.515Z</time></trkpt><trkpt lat="42.0871399" lon="11.8294688"><ele>128.0</ele><time>2026-04-19T08:43:18.515Z</time></trkpt><trkpt lat="42.0871157" lon="11.8295819"><ele>127.99999999999999</ele><time>2026-04-19T08:43:21.518Z</time></trkpt><trkpt lat="42.087098" lon="11.8297028"><ele>128.0</ele><time>2026-04-19T08:43:24.524Z</time></trkpt><trkpt lat="42.0870987" lon="11.8297908"><ele>128.66666666666666</ele><time>2026-04-19T08:43:26.517Z</time></trkpt><trkpt lat="42.0871104" lon="11.8298753"><ele>129.33333333333331</ele><time>2026-04-19T08:43:28.519Z</time></trkpt><trkpt lat="42.0871217" lon="11.8299646"><ele>130.0</ele><time>2026-04-19T08:43:30.515Z</time></trkpt><trkpt lat="42.0871405" lon="11.8300587"><ele>130.66666666666666</ele><time>2026-04-19T08:43:32.519Z</time></trkpt><trkpt lat="42.0871638" lon="11.830177"><ele>131.33333333333334</ele><time>2026-04-19T08:43:35.519Z</time></trkpt><trkpt lat="42.0871811" lon="11.8302895"><ele>132.0</ele><time>2026-04-19T08:43:38.52Z</time></trkpt><trkpt lat="42.0872098" lon="11.8303989"><ele>132.0</ele><time>2026-04-19T08:43:41.516Z</time></trkpt><trkpt lat="42.0872316" lon="11.8304789"><ele>132.0</ele><time>2026-04-19T08:43:43.518Z</time></trkpt><trkpt lat="42.0872496" lon="11.8305606"><ele>132.0</ele><time>2026-04-19T08:43:45.518Z</time></trkpt><trkpt lat="42.0872757" lon="11.8306725"><ele>132.0</ele><time>2026-04-19T08:43:48.514Z</time></trkpt><trkpt lat="42.087299" lon="11.8307836"><ele>132.0</ele><time>2026-04-19T08:43:51.519Z</time></trkpt><trkpt lat="42.0873046" lon="11.8308962"><ele>132.0</ele><time>2026-04-19T08:43:54.519Z</time></trkpt><trkpt lat="42.0873094" lon="11.8310178"><ele>132.0</ele><time>2026-04-19T08:43:57.52Z</time></trkpt><trkpt lat="42.0873104" lon="11.8311435"><ele>132.0</ele><time>2026-04-19T08:44:00.518Z</time></trkpt><trkpt lat="42.0873208" lon="11.8312293"><ele>132.0</ele><time>2026-04-19T08:44:02.519Z</time></trkpt><trkpt lat="42.0873281" lon="11.8313174"><ele>132.0</ele><time>2026-04-19T08:44:04.519Z</time></trkpt><trkpt lat="42.0873403" lon="11.8314037"><ele>132.0</ele><time>2026-04-19T08:44:06.514Z</time></trkpt><trkpt lat="42.0873543" lon="11.8314907"><ele>132.0</ele><time>2026-04-19T08:44:08.521Z</time></trkpt><trkpt lat="42.0873732" lon="11.8315819"><ele>132.0</ele><time>2026-04-19T08:44:10.515Z</time></trkpt><trkpt lat="42.0873915" lon="11.8316748"><ele>132.0</ele><time>2026-04-19T08:44:12.517Z</time></trkpt><trkpt lat="42.0874115" lon="11.8317715"><ele>132.0</ele><time>2026-04-19T08:44:14.515Z</time></trkpt><trkpt lat="42.0874321" lon="11.8318655"><ele>132.0</ele><time>2026-04-19T08:44:16.518Z</time></trkpt><trkpt lat="42.0874475" lon="11.8319502"><ele>132.0</ele><time>2026-04-19T08:44:18.517Z</time></trkpt><trkpt lat="42.0874686" lon="11.8320334"><ele>132.0</ele><time>2026-04-19T08:44:20.514Z</time></trkpt><trkpt lat="42.0874905" lon="11.8321176"><ele>132.0</ele><time>2026-04-19T08:44:22.519Z</time></trkpt><trkpt lat="42.087527" lon="11.8322331"><ele>132.0</ele><time>2026-04-19T08:44:25.517Z</time></trkpt><trkpt lat="42.0875616" lon="11.8323087"><ele>133.85714285714286</ele><time>2026-04-19T08:44:27.519Z</time></trkpt><trkpt lat="42.087598" lon="11.8323842"><ele>135.71428571428572</ele><time>2026-04-19T08:44:29.517Z</time></trkpt><trkpt lat="42.0876281" lon="11.8324611"><ele>137.57142857142858</ele><time>2026-04-19T08:44:31.516Z</time></trkpt><trkpt lat="42.0876584" lon="11.8325387"><ele>139.42857142857144</ele><time>2026-04-19T08:44:33.517Z</time></trkpt><trkpt lat="42.0876947" lon="11.8326106"><ele>141.2857142857143</ele><time>2026-04-19T08:44:35.519Z</time></trkpt><trkpt lat="42.0877432" lon="11.8327143"><ele>143.14285714285714</ele><time>2026-04-19T08:44:38.519Z</time></trkpt><trkpt lat="42.0877917" lon="11.8328215"><ele>145.0</ele><time>2026-04-19T08:44:41.518Z</time></trkpt><trkpt lat="42.0878291" lon="11.832891"><ele>145.33333333333334</ele><time>2026-04-19T08:44:43.514Z</time></trkpt><trkpt lat="42.0878754" lon="11.8329953"><ele>145.66666666666669</ele><time>2026-04-19T08:44:46.519Z</time></trkpt><trkpt lat="42.0879223" lon="11.8331008"><ele>146.0</ele><time>2026-04-19T08:44:49.515Z</time></trkpt><trkpt lat="42.0879748" lon="11.8332017"><ele>146.33333333333334</ele><time>2026-04-19T08:44:52.518Z</time></trkpt><trkpt lat="42.0880207" lon="11.8333001"><ele>146.66666666666666</ele><time>2026-04-19T08:44:55.517Z</time></trkpt><trkpt lat="42.0880577" lon="11.8333985"><ele>147.0</ele><time>2026-04-19T08:44:58.516Z</time></trkpt><trkpt lat="42.0880974" lon="11.8334933"><ele>147.0</ele><time>2026-04-19T08:45:01.518Z</time></trkpt><trkpt lat="42.0881375" lon="11.8335895"><ele>147.0</ele><time>2026-04-19T08:45:04.518Z</time></trkpt><trkpt lat="42.088172" lon="11.8336858"><ele>147.0</ele><time>2026-04-19T08:45:07.515Z</time></trkpt><trkpt lat="42.0882073" lon="11.8337565"><ele>147.0</ele><time>2026-04-19T08:45:09.516Z</time></trkpt><trkpt lat="42.0882514" lon="11.8338531"><ele>147.0</ele><time>2026-04-19T08:45:12.517Z</time></trkpt><trkpt lat="42.0882764" lon="11.8339505"><ele>147.0</ele><time>2026-04-19T08:45:15.52Z</time></trkpt><trkpt lat="42.0882975" lon="11.8340553"><ele>148.83333333333334</ele><time>2026-04-19T08:45:18.526Z</time></trkpt><trkpt lat="42.0883271" lon="11.8341587"><ele>150.66666666666666</ele><time>2026-04-19T08:45:21.518Z</time></trkpt><trkpt lat="42.0883412" lon="11.8342565"><ele>152.5</ele><time>2026-04-19T08:45:24.519Z</time></trkpt><trkpt lat="42.0883564" lon="11.8343657"><ele>154.33333333333331</ele><time>2026-04-19T08:45:28.518Z</time></trkpt><trkpt lat="42.0883805" lon="11.8344547"><ele>156.16666666666666</ele><time>2026-04-19T08:45:31.516Z</time></trkpt><trkpt lat="42.0883937" lon="11.8345601"><ele>158.0</ele><time>2026-04-19T08:45:34.517Z</time></trkpt><trkpt lat="42.0884151" lon="11.8346663"><ele>158.33333333333331</ele><time>2026-04-19T08:45:37.516Z</time></trkpt><trkpt lat="42.0884375" lon="11.8347714"><ele>158.66666666666666</ele><time>2026-04-19T08:45:40.519Z</time></trkpt><trkpt lat="42.0884731" lon="11.8348738"><ele>159.0</ele><time>2026-04-19T08:45:43.52Z</time></trkpt><trkpt lat="42.0885196" lon="11.8349827"><ele>159.33333333333334</ele><time>2026-04-19T08:45:46.517Z</time></trkpt><trkpt lat="42.088561" lon="11.8350931"><ele>159.66666666666669</ele><time>2026-04-19T08:45:49.515Z</time></trkpt><trkpt lat="42.0885865" lon="11.8351707"><ele>160.0</ele><time>2026-04-19T08:45:51.515Z</time></trkpt><trkpt lat="42.0886209" lon="11.8352878"><ele>160.16666666666669</ele><time>2026-04-19T08:45:54.517Z</time></trkpt><trkpt lat="42.0886533" lon="11.8354024"><ele>160.33333333333334</ele><time>2026-04-19T08:45:57.517Z</time></trkpt><trkpt lat="42.0886936" lon="11.8355043"><ele>160.5</ele><time>2026-04-19T08:46:00.518Z</time></trkpt><trkpt lat="42.088712" lon="11.8356162"><ele>160.66666666666666</ele><time>2026-04-19T08:46:03.513Z</time></trkpt><trkpt lat="42.0887096" lon="11.8357154"><ele>160.83333333333331</ele><time>2026-04-19T08:46:06.521Z</time></trkpt><trkpt lat="42.0887219" lon="11.8358102"><ele>161.0</ele><time>2026-04-19T08:46:09.525Z</time></trkpt><trkpt lat="42.0887382" lon="11.8359132"><ele>160.5</ele><time>2026-04-19T08:46:12.518Z</time></trkpt><trkpt lat="42.0887631" lon="11.8360163"><ele>160.0</ele><time>2026-04-19T08:46:15.516Z</time></trkpt><trkpt lat="42.0888021" lon="11.8361213"><ele>159.5</ele><time>2026-04-19T08:46:18.521Z</time></trkpt><trkpt lat="42.0888467" lon="11.8362261"><ele>159.0</ele><time>2026-04-19T08:46:21.527Z</time></trkpt><trkpt lat="42.0888857" lon="11.8363282"><ele>158.5</ele><time>2026-04-19T08:46:24.517Z</time></trkpt><trkpt lat="42.0889254" lon="11.8364206"><ele>158.0</ele><time>2026-04-19T08:46:27.517Z</time></trkpt><trkpt lat="42.0889653" lon="11.8365208"><ele>158.0</ele><time>2026-04-19T08:46:30.514Z</time></trkpt><trkpt lat="42.0889936" lon="11.8366166"><ele>158.0</ele><time>2026-04-19T08:46:33.518Z</time></trkpt><trkpt lat="42.0890048" lon="11.8367115"><ele>158.0</ele><time>2026-04-19T08:46:36.518Z</time></trkpt><trkpt lat="42.0890109" lon="11.8367992"><ele>158.0</ele><time>2026-04-19T08:46:38.519Z</time></trkpt><trkpt lat="42.0890259" lon="11.8369069"><ele>158.0</ele><time>2026-04-19T08:46:40.518Z</time></trkpt><trkpt lat="42.0890349" lon="11.8370307"><ele>158.0</ele><time>2026-04-19T08:46:42.526Z</time></trkpt><trkpt lat="42.0890542" lon="11.8371793"><ele>157.5</ele><time>2026-04-19T08:46:44.519Z</time></trkpt><trkpt lat="42.0890869" lon="11.8373401"><ele>157.0</ele><time>2026-04-19T08:46:46.52Z</time></trkpt><trkpt lat="42.0891108" lon="11.8374239"><ele>156.5</ele><time>2026-04-19T08:46:47.52Z</time></trkpt><trkpt lat="42.0891289" lon="11.8375144"><ele>156.0</ele><time>2026-04-19T08:46:48.521Z</time></trkpt><trkpt lat="42.0891441" lon="11.8375979"><ele>155.5</ele><time>2026-04-19T08:46:49.515Z</time></trkpt><trkpt lat="42.089159" lon="11.8376843"><ele>155.0</ele><time>2026-04-19T08:46:50.517Z</time></trkpt><trkpt lat="42.0891782" lon="11.8378539"><ele>157.33333333333331</ele><time>2026-04-19T08:46:52.519Z</time></trkpt><trkpt lat="42.0891782" lon="11.8379434"><ele>159.66666666666666</ele><time>2026-04-19T08:46:53.52Z</time></trkpt><trkpt lat="42.0891818" lon="11.8380817"><ele>162.0</ele><time>2026-04-19T08:46:55.521Z</time></trkpt><trkpt lat="42.0891683" lon="11.8382007"><ele>164.33333333333334</ele><time>2026-04-19T08:46:57.519Z</time></trkpt><trkpt lat="42.0891579" lon="11.8382902"><ele>166.66666666666669</ele><time>2026-04-19T08:46:59.519Z</time></trkpt><trkpt lat="42.089154" lon="11.8383886"><ele>169.0</ele><time>2026-04-19T08:47:01.521Z</time></trkpt><trkpt lat="42.0891519" lon="11.8384828"><ele>169.16666666666669</ele><time>2026-04-19T08:47:03.515Z</time></trkpt><trkpt lat="42.0891525" lon="11.8385876"><ele>169.33333333333334</ele><time>2026-04-19T08:47:05.519Z</time></trkpt><trkpt lat="42.0891545" lon="11.8387034"><ele>169.5</ele><time>2026-04-19T08:47:07.515Z</time></trkpt><trkpt lat="42.0891518" lon="11.838819"><ele>169.66666666666666</ele><time>2026-04-19T08:47:09.515Z</time></trkpt><trkpt lat="42.0891583" lon="11.8389429"><ele>169.83333333333331</ele><time>2026-04-19T08:47:11.516Z</time></trkpt><trkpt lat="42.0891645" lon="11.8390608"><ele>170.0</ele><time>2026-04-19T08:47:13.521Z</time></trkpt><trkpt lat="42.0891817" lon="11.8391806"><ele>170.0</ele><time>2026-04-19T08:47:15.519Z</time></trkpt><trkpt lat="42.0892038" lon="11.839298"><ele>170.0</ele><time>2026-04-19T08:47:17.518Z</time></trkpt><trkpt lat="42.0892221" lon="11.8394081"><ele>170.0</ele><time>2026-04-19T08:47:19.521Z</time></trkpt><trkpt lat="42.0892321" lon="11.8395144"><ele>170.0</ele><time>2026-04-19T08:47:21.516Z</time></trkpt><trkpt lat="42.0892367" lon="11.8396119"><ele>170.0</ele><time>2026-04-19T08:47:23.515Z</time></trkpt><trkpt lat="42.0892354" lon="11.8397166"><ele>170.0</ele><time>2026-04-19T08:47:25.519Z</time></trkpt><trkpt lat="42.0892342" lon="11.8398156"><ele>170.83333333333331</ele><time>2026-04-19T08:47:27.518Z</time></trkpt><trkpt lat="42.0892222" lon="11.8399139"><ele>171.66666666666666</ele><time>2026-04-19T08:47:29.515Z</time></trkpt><trkpt lat="42.0892152" lon="11.8399999"><ele>172.5</ele><time>2026-04-19T08:47:31.516Z</time></trkpt><trkpt lat="42.0891955" lon="11.8401159"><ele>173.33333333333334</ele><time>2026-04-19T08:47:34.518Z</time></trkpt><trkpt lat="42.0891809" lon="11.8402358"><ele>174.16666666666669</ele><time>2026-04-19T08:47:37.518Z</time></trkpt><trkpt lat="42.0891786" lon="11.8403591"><ele>175.0</ele><time>2026-04-19T08:47:40.519Z</time></trkpt><trkpt lat="42.0891699" lon="11.8404819"><ele>175.66666666666669</ele><time>2026-04-19T08:47:43.521Z</time></trkpt><trkpt lat="42.0891671" lon="11.8405687"><ele>176.33333333333334</ele><time>2026-04-19T08:47:45.517Z</time></trkpt><trkpt lat="42.0891651" lon="11.8406984"><ele>177.0</ele><time>2026-04-19T08:47:48.519Z</time></trkpt><trkpt lat="42.0891579" lon="11.8408185"><ele>177.66666666666666</ele><time>2026-04-19T08:47:51.516Z</time></trkpt><trkpt lat="42.0891576" lon="11.8409343"><ele>178.33333333333331</ele><time>2026-04-19T08:47:54.518Z</time></trkpt><trkpt lat="42.0891473" lon="11.8410519"><ele>179.0</ele><time>2026-04-19T08:47:57.519Z</time></trkpt><trkpt lat="42.0891376" lon="11.8411368"><ele>179.71428571428572</ele><time>2026-04-19T08:47:59.52Z</time></trkpt><trkpt lat="42.0891233" lon="11.8412297"><ele>180.42857142857144</ele><time>2026-04-19T08:48:01.561Z</time></trkpt><trkpt lat="42.0890978" lon="11.8413123"><ele>181.14285714285717</ele><time>2026-04-19T08:48:03.521Z</time></trkpt><trkpt lat="42.089073" lon="11.8414059"><ele>181.85714285714286</ele><time>2026-04-19T08:48:05.518Z</time></trkpt><trkpt lat="42.08905" lon="11.8415038"><ele>182.57142857142856</ele><time>2026-04-19T08:48:07.517Z</time></trkpt><trkpt lat="42.0890279" lon="11.8416011"><ele>183.2857142857143</ele><time>2026-04-19T08:48:09.515Z</time></trkpt><trkpt lat="42.0890362" lon="11.8416912"><ele>184.0</ele><time>2026-04-19T08:48:11.517Z</time></trkpt><trkpt lat="42.0890624" lon="11.8417818"><ele>184.66666666666669</ele><time>2026-04-19T08:48:13.519Z</time></trkpt><trkpt lat="42.0890798" lon="11.8418762"><ele>185.33333333333334</ele><time>2026-04-19T08:48:15.517Z</time></trkpt><trkpt lat="42.0890985" lon="11.8419813"><ele>186.0</ele><time>2026-04-19T08:48:17.518Z</time></trkpt><trkpt lat="42.0891196" lon="11.8421086"><ele>186.66666666666666</ele><time>2026-04-19T08:48:19.523Z</time></trkpt><trkpt lat="42.0891233" lon="11.8422215"><ele>187.33333333333331</ele><time>2026-04-19T08:48:21.517Z</time></trkpt><trkpt lat="42.0891294" lon="11.8423202"><ele>188.0</ele><time>2026-04-19T08:48:23.518Z</time></trkpt><trkpt lat="42.0891278" lon="11.842416"><ele>188.0</ele><time>2026-04-19T08:48:25.517Z</time></trkpt><trkpt lat="42.0891344" lon="11.8425088"><ele>188.0</ele><time>2026-04-19T08:48:27.518Z</time></trkpt><trkpt lat="42.0891681" lon="11.8426003"><ele>188.0</ele><time>2026-04-19T08:48:29.515Z</time></trkpt><trkpt lat="42.089194" lon="11.8426897"><ele>188.0</ele><time>2026-04-19T08:48:31.517Z</time></trkpt><trkpt lat="42.0892335" lon="11.8427681"><ele>188.0</ele><time>2026-04-19T08:48:33.519Z</time></trkpt><trkpt lat="42.0892767" lon="11.8428778"><ele>188.0</ele><time>2026-04-19T08:48:36.52Z</time></trkpt><trkpt lat="42.0893263" lon="11.8429794"><ele>188.83333333333331</ele><time>2026-04-19T08:48:39.521Z</time></trkpt><trkpt lat="42.0893797" lon="11.8430736"><ele>189.66666666666666</ele><time>2026-04-19T08:48:42.52Z</time></trkpt><trkpt lat="42.0894146" lon="11.8431823"><ele>190.5</ele><time>2026-04-19T08:48:45.517Z</time></trkpt><trkpt lat="42.0894575" lon="11.8432844"><ele>191.33333333333331</ele><time>2026-04-19T08:48:48.518Z</time></trkpt><trkpt lat="42.0895023" lon="11.8433825"><ele>192.16666666666666</ele><time>2026-04-19T08:48:51.516Z</time></trkpt><trkpt lat="42.089577" lon="11.8434451"><ele>193.0</ele><time>2026-04-19T08:48:54.518Z</time></trkpt><trkpt lat="42.089669" lon="11.8434653"><ele>192.99999999999997</ele><time>2026-04-19T08:48:57.518Z</time></trkpt><trkpt lat="42.0897621" lon="11.8434623"><ele>193.0</ele><time>2026-04-19T08:49:00.516Z</time></trkpt><trkpt lat="42.089828" lon="11.8434625"><ele>193.0</ele><time>2026-04-19T08:49:02.516Z</time></trkpt><trkpt lat="42.0899168" lon="11.8434966"><ele>193.0</ele><time>2026-04-19T08:49:05.523Z</time></trkpt><trkpt lat="42.090001" lon="11.8435389"><ele>192.99999999999997</ele><time>2026-04-19T08:49:08.518Z</time></trkpt><trkpt lat="42.0900775" lon="11.843588"><ele>193.0</ele><time>2026-04-19T08:49:11.515Z</time></trkpt><trkpt lat="42.0901552" lon="11.8436653"><ele>195.16666666666666</ele><time>2026-04-19T08:49:14.518Z</time></trkpt><trkpt lat="42.0902101" lon="11.8437346"><ele>197.33333333333331</ele><time>2026-04-19T08:49:16.52Z</time></trkpt><trkpt lat="42.0902598" lon="11.8437954"><ele>199.5</ele><time>2026-04-19T08:49:18.517Z</time></trkpt><trkpt lat="42.0903069" lon="11.843906"><ele>201.66666666666669</ele><time>2026-04-19T08:49:21.517Z</time></trkpt><trkpt lat="42.0903494" lon="11.8440049"><ele>203.83333333333334</ele><time>2026-04-19T08:49:23.518Z</time></trkpt><trkpt lat="42.090383" lon="11.8441162"><ele>206.0</ele><time>2026-04-19T08:49:25.519Z</time></trkpt><trkpt lat="42.0904231" lon="11.8442349"><ele>207.50000000000003</ele><time>2026-04-19T08:49:27.517Z</time></trkpt><trkpt lat="42.0904678" lon="11.8443433"><ele>209.0</ele><time>2026-04-19T08:49:29.516Z</time></trkpt><trkpt lat="42.0905178" lon="11.8444447"><ele>210.5</ele><time>2026-04-19T08:49:31.522Z</time></trkpt><trkpt lat="42.0905772" lon="11.8445462"><ele>212.0</ele><time>2026-04-19T08:49:33.517Z</time></trkpt><trkpt lat="42.0906237" lon="11.8446183"><ele>213.50000000000003</ele><time>2026-04-19T08:49:35.519Z</time></trkpt><trkpt lat="42.090683" lon="11.8446884"><ele>215.0</ele><time>2026-04-19T08:49:37.517Z</time></trkpt><trkpt lat="42.0907407" lon="11.8447587"><ele>214.85714285714286</ele><time>2026-04-19T08:49:39.525Z</time></trkpt><trkpt lat="42.0907704" lon="11.8448512"><ele>214.71428571428572</ele><time>2026-04-19T08:49:41.517Z</time></trkpt><trkpt lat="42.090796" lon="11.8449437"><ele>214.57142857142858</ele><time>2026-04-19T08:49:43.518Z</time></trkpt><trkpt lat="42.0908152" lon="11.8450445"><ele>214.42857142857144</ele><time>2026-04-19T08:49:45.519Z</time></trkpt><trkpt lat="42.0908451" lon="11.8451316"><ele>214.28571428571428</ele><time>2026-04-19T08:49:47.519Z</time></trkpt><trkpt lat="42.0908773" lon="11.8452113"><ele>214.14285714285717</ele><time>2026-04-19T08:49:49.514Z</time></trkpt><trkpt lat="42.0909071" lon="11.8452882"><ele>214.0</ele><time>2026-04-19T08:49:51.516Z</time></trkpt><trkpt lat="42.0909412" lon="11.845362"><ele>216.0</ele><time>2026-04-19T08:49:53.519Z</time></trkpt><trkpt lat="42.0909655" lon="11.8454445"><ele>218.0</ele><time>2026-04-19T08:49:55.516Z</time></trkpt><trkpt lat="42.0909894" lon="11.8455359"><ele>220.0</ele><time>2026-04-19T08:49:57.517Z</time></trkpt><trkpt lat="42.0910052" lon="11.8456338"><ele>222.0</ele><time>2026-04-19T08:49:59.517Z</time></trkpt><trkpt lat="42.0910347" lon="11.8457325"><ele>223.99999999999997</ele><time>2026-04-19T08:50:01.517Z</time></trkpt><trkpt lat="42.0910697" lon="11.8458235"><ele>226.0</ele><time>2026-04-19T08:50:03.517Z</time></trkpt><trkpt lat="42.0911179" lon="11.8458973"><ele>228.0</ele><time>2026-04-19T08:50:05.515Z</time></trkpt><trkpt lat="42.0911733" lon="11.8459546"><ele>229.83333333333334</ele><time>2026-04-19T08:50:07.519Z</time></trkpt><trkpt lat="42.0912217" lon="11.846009"><ele>231.66666666666669</ele><time>2026-04-19T08:50:09.516Z</time></trkpt><trkpt lat="42.0912931" lon="11.8460864"><ele>233.5</ele><time>2026-04-19T08:50:12.516Z</time></trkpt><trkpt lat="42.0913524" lon="11.8461462"><ele>235.33333333333334</ele><time>2026-04-19T08:50:14.517Z</time></trkpt><trkpt lat="42.0914054" lon="11.8462253"><ele>237.16666666666669</ele><time>2026-04-19T08:50:16.516Z</time></trkpt><trkpt lat="42.0914599" lon="11.8463007"><ele>239.0</ele><time>2026-04-19T08:50:18.518Z</time></trkpt><trkpt lat="42.091514" lon="11.8463717"><ele>239.00000000000003</ele><time>2026-04-19T08:50:20.517Z</time></trkpt><trkpt lat="42.091568" lon="11.8464419"><ele>239.0</ele><time>2026-04-19T08:50:22.519Z</time></trkpt><trkpt lat="42.091625" lon="11.8465206"><ele>239.00000000000003</ele><time>2026-04-19T08:50:24.519Z</time></trkpt><trkpt lat="42.0916732" lon="11.8465971"><ele>239.00000000000003</ele><time>2026-04-19T08:50:26.518Z</time></trkpt><trkpt lat="42.0917211" lon="11.8466676"><ele>239.0</ele><time>2026-04-19T08:50:28.519Z</time></trkpt><trkpt lat="42.0917672" lon="11.8467351"><ele>239.00000000000003</ele><time>2026-04-19T08:50:30.514Z</time></trkpt><trkpt lat="42.0918132" lon="11.8467965"><ele>239.00000000000003</ele><time>2026-04-19T08:50:32.518Z</time></trkpt><trkpt lat="42.091884" lon="11.8468754"><ele>240.66666666666669</ele><time>2026-04-19T08:50:35.518Z</time></trkpt><trkpt lat="42.0919422" lon="11.8469546"><ele>242.33333333333334</ele><time>2026-04-19T08:50:38.524Z</time></trkpt><trkpt lat="42.0920126" lon="11.8469886"><ele>244.0</ele><time>2026-04-19T08:50:41.517Z</time></trkpt><trkpt lat="42.09209" lon="11.8469774"><ele>245.66666666666669</ele><time>2026-04-19T08:50:44.517Z</time></trkpt><trkpt lat="42.0921668" lon="11.8469513"><ele>247.33333333333334</ele><time>2026-04-19T08:50:47.517Z</time></trkpt><trkpt lat="42.0922495" lon="11.8469238"><ele>249.0</ele><time>2026-04-19T08:50:50.515Z</time></trkpt><trkpt lat="42.0923284" lon="11.8469083"><ele>249.0</ele><time>2026-04-19T08:50:53.516Z</time></trkpt><trkpt lat="42.0924075" lon="11.8468964"><ele>249.0</ele><time>2026-04-19T08:50:56.518Z</time></trkpt><trkpt lat="42.0924877" lon="11.8468604"><ele>249.0</ele><time>2026-04-19T08:50:59.519Z</time></trkpt><trkpt lat="42.0925568" lon="11.8468209"><ele>249.0</ele><time>2026-04-19T08:51:02.516Z</time></trkpt><trkpt lat="42.0926263" lon="11.846785"><ele>249.0</ele><time>2026-04-19T08:51:05.519Z</time></trkpt><trkpt lat="42.0927076" lon="11.8467598"><ele>249.0</ele><time>2026-04-19T08:51:08.516Z</time></trkpt><trkpt lat="42.092781" lon="11.8467263"><ele>249.66666666666666</ele><time>2026-04-19T08:51:11.516Z</time></trkpt><trkpt lat="42.0928628" lon="11.8467086"><ele>250.33333333333331</ele><time>2026-04-19T08:51:14.517Z</time></trkpt><trkpt lat="42.0929456" lon="11.8467155"><ele>251.0</ele><time>2026-04-19T08:51:17.517Z</time></trkpt><trkpt lat="42.0930236" lon="11.846729"><ele>251.66666666666666</ele><time>2026-04-19T08:51:20.519Z</time></trkpt><trkpt lat="42.0931002" lon="11.8467617"><ele>252.33333333333331</ele><time>2026-04-19T08:51:23.517Z</time></trkpt><trkpt lat="42.093173" lon="11.8468227"><ele>253.0</ele><time>2026-04-19T08:51:26.526Z</time></trkpt><trkpt lat="42.0932315" lon="11.8469017"><ele>253.33333333333331</ele><time>2026-04-19T08:51:29.517Z</time></trkpt><trkpt lat="42.0932887" lon="11.8469865"><ele>253.66666666666666</ele><time>2026-04-19T08:51:32.516Z</time></trkpt><trkpt lat="42.0933504" lon="11.8470743"><ele>254.0</ele><time>2026-04-19T08:51:35.509Z</time></trkpt><trkpt lat="42.0933944" lon="11.8471667"><ele>254.33333333333331</ele><time>2026-04-19T08:51:38.519Z</time></trkpt><trkpt lat="42.0934346" lon="11.8472745"><ele>254.66666666666666</ele><time>2026-04-19T08:51:41.518Z</time></trkpt><trkpt lat="42.0934806" lon="11.8473732"><ele>255.0</ele><time>2026-04-19T08:51:44.517Z</time></trkpt><trkpt lat="42.0935192" lon="11.8474707"><ele>255.0</ele><time>2026-04-19T08:51:47.517Z</time></trkpt><trkpt lat="42.0935666" lon="11.8475646"><ele>255.0</ele><time>2026-04-19T08:51:50.527Z</time></trkpt><trkpt lat="42.0936043" lon="11.8476493"><ele>255.0</ele><time>2026-04-19T08:51:53.517Z</time></trkpt><trkpt lat="42.0936408" lon="11.8477427"><ele>255.0</ele><time>2026-04-19T08:51:56.519Z</time></trkpt><trkpt lat="42.0936774" lon="11.8478286"><ele>255.0</ele><time>2026-04-19T08:51:59.518Z</time></trkpt><trkpt lat="42.093709" lon="11.8479252"><ele>255.0</ele><time>2026-04-19T08:52:02.517Z</time></trkpt><trkpt lat="42.0937399" lon="11.8480283"><ele>257.5</ele><time>2026-04-19T08:52:05.518Z</time></trkpt><trkpt lat="42.0937767" lon="11.8481442"><ele>260.0</ele><time>2026-04-19T08:52:08.52Z</time></trkpt><trkpt lat="42.0938183" lon="11.8482528"><ele>262.5</ele><time>2026-04-19T08:52:11.514Z</time></trkpt><trkpt lat="42.093861" lon="11.8483592"><ele>265.0</ele><time>2026-04-19T08:52:14.517Z</time></trkpt><trkpt lat="42.0938985" lon="11.8484539"><ele>267.5</ele><time>2026-04-19T08:52:17.517Z</time></trkpt><trkpt lat="42.0939472" lon="11.8485645"><ele>270.0</ele><time>2026-04-19T08:52:20.518Z</time></trkpt><trkpt lat="42.0939886" lon="11.848667"><ele>270.0</ele><time>2026-04-19T08:52:22.518Z</time></trkpt><trkpt lat="42.0940373" lon="11.8487699"><ele>270.0</ele><time>2026-04-19T08:52:24.526Z</time></trkpt><trkpt lat="42.094096" lon="11.8488563"><ele>270.0</ele><time>2026-04-19T08:52:26.517Z</time></trkpt><trkpt lat="42.0941545" lon="11.848957"><ele>270.0</ele><time>2026-04-19T08:52:28.519Z</time></trkpt><trkpt lat="42.0942014" lon="11.8490333"><ele>270.0</ele><time>2026-04-19T08:52:30.515Z</time></trkpt><trkpt lat="42.0942477" lon="11.8491084"><ele>270.0</ele><time>2026-04-19T08:52:32.524Z</time></trkpt><trkpt lat="42.0942933" lon="11.8491937"><ele>270.0</ele><time>2026-04-19T08:52:34.522Z</time></trkpt><trkpt lat="42.0943323" lon="11.8492809"><ele>270.0</ele><time>2026-04-19T08:52:36.519Z</time></trkpt><trkpt lat="42.0943217" lon="11.8493908"><ele>270.0</ele><time>2026-04-19T08:52:38.517Z</time></trkpt><trkpt lat="42.0942966" lon="11.8495024"><ele>270.0</ele><time>2026-04-19T08:52:40.516Z</time></trkpt><trkpt lat="42.0942444" lon="11.8495857"><ele>270.0</ele><time>2026-04-19T08:52:42.517Z</time></trkpt><trkpt lat="42.0941976" lon="11.8496695"><ele>270.0</ele><time>2026-04-19T08:52:44.517Z</time></trkpt><trkpt lat="42.0941591" lon="11.8497564"><ele>269.85714285714283</ele><time>2026-04-19T08:52:46.517Z</time></trkpt><trkpt lat="42.0941214" lon="11.8498383"><ele>269.71428571428567</ele><time>2026-04-19T08:52:48.519Z</time></trkpt><trkpt lat="42.0940672" lon="11.849903"><ele>269.57142857142856</ele><time>2026-04-19T08:52:50.514Z</time></trkpt><trkpt lat="42.0940001" lon="11.8499508"><ele>269.42857142857144</ele><time>2026-04-19T08:52:52.517Z</time></trkpt><trkpt lat="42.093923" lon="11.849973"><ele>269.28571428571433</ele><time>2026-04-19T08:52:54.517Z</time></trkpt><trkpt lat="42.0938454" lon="11.8499811"><ele>269.14285714285717</ele><time>2026-04-19T08:52:56.527Z</time></trkpt><trkpt lat="42.0937765" lon="11.8499776"><ele>269.0</ele><time>2026-04-19T08:52:58.519Z</time></trkpt><trkpt lat="42.0936988" lon="11.8499894"><ele>270.83333333333337</ele><time>2026-04-19T08:53:00.514Z</time></trkpt><trkpt lat="42.0936137" lon="11.8500024"><ele>272.6666666666667</ele><time>2026-04-19T08:53:02.516Z</time></trkpt><trkpt lat="42.0935444" lon="11.8500123"><ele>274.5</ele><time>2026-04-19T08:53:04.518Z</time></trkpt><trkpt lat="42.0934716" lon="11.85001"><ele>276.3333333333333</ele><time>2026-04-19T08:53:06.517Z</time></trkpt><trkpt lat="42.0934055" lon="11.8500035"><ele>278.16666666666663</ele><time>2026-04-19T08:53:08.518Z</time></trkpt><trkpt lat="42.0933115" lon="11.850009"><ele>280.0</ele><time>2026-04-19T08:53:11.516Z</time></trkpt><trkpt lat="42.0932448" lon="11.8500197"><ele>281.2857142857143</ele><time>2026-04-19T08:53:13.521Z</time></trkpt><trkpt lat="42.0931748" lon="11.8500401"><ele>282.57142857142856</ele><time>2026-04-19T08:53:15.523Z</time></trkpt><trkpt lat="42.0931106" lon="11.850057"><ele>283.8571428571429</ele><time>2026-04-19T08:53:17.517Z</time></trkpt><trkpt lat="42.0930481" lon="11.8500759"><ele>285.1428571428571</ele><time>2026-04-19T08:53:19.518Z</time></trkpt><trkpt lat="42.0929576" lon="11.8500987"><ele>286.42857142857144</ele><time>2026-04-19T08:53:22.518Z</time></trkpt><trkpt lat="42.0928953" lon="11.850113"><ele>287.7142857142857</ele><time>2026-04-19T08:53:24.518Z</time></trkpt><trkpt lat="42.0928324" lon="11.8501295"><ele>289.0</ele><time>2026-04-19T08:53:26.516Z</time></trkpt><trkpt lat="42.092768" lon="11.8501551"><ele>289.0</ele><time>2026-04-19T08:53:28.518Z</time></trkpt><trkpt lat="42.0927041" lon="11.8501757"><ele>289.0</ele><time>2026-04-19T08:53:30.516Z</time></trkpt><trkpt lat="42.0926428" lon="11.850196"><ele>289.0</ele><time>2026-04-19T08:53:32.518Z</time></trkpt><trkpt lat="42.0925542" lon="11.8502285"><ele>289.0</ele><time>2026-04-19T08:53:35.52Z</time></trkpt><trkpt lat="42.0924933" lon="11.8502517"><ele>289.0</ele><time>2026-04-19T08:53:37.523Z</time></trkpt><trkpt lat="42.0924059" lon="11.850288"><ele>289.0</ele><time>2026-04-19T08:53:40.516Z</time></trkpt><trkpt lat="42.0923487" lon="11.8503256"><ele>289.0</ele><time>2026-04-19T08:53:42.517Z</time></trkpt><trkpt lat="42.0922927" lon="11.8503694"><ele>288.5</ele><time>2026-04-19T08:53:44.517Z</time></trkpt><trkpt lat="42.092216" lon="11.8504471"><ele>288.0</ele><time>2026-04-19T08:53:47.52Z</time></trkpt><trkpt lat="42.0921637" lon="11.8505036"><ele>287.5</ele><time>2026-04-19T08:53:49.514Z</time></trkpt><trkpt lat="42.0921069" lon="11.8505908"><ele>287.0</ele><time>2026-04-19T08:53:52.517Z</time></trkpt><trkpt lat="42.092065" lon="11.8507015"><ele>286.5</ele><time>2026-04-19T08:53:55.517Z</time></trkpt><trkpt lat="42.0920535" lon="11.8508254"><ele>286.0</ele><time>2026-04-19T08:53:58.516Z</time></trkpt><trkpt lat="42.0920497" lon="11.8509145"><ele>287.4285714285714</ele><time>2026-04-19T08:54:00.517Z</time></trkpt><trkpt lat="42.0920426" lon="11.8510024"><ele>288.85714285714283</ele><time>2026-04-19T08:54:02.52Z</time></trkpt><trkpt lat="42.0920188" lon="11.8510813"><ele>290.2857142857143</ele><time>2026-04-19T08:54:04.518Z</time></trkpt><trkpt lat="42.0919847" lon="11.8511538"><ele>291.71428571428567</ele><time>2026-04-19T08:54:06.516Z</time></trkpt><trkpt lat="42.0919478" lon="11.851232"><ele>293.1428571428571</ele><time>2026-04-19T08:54:08.521Z</time></trkpt><trkpt lat="42.0919083" lon="11.8512985"><ele>294.57142857142856</ele><time>2026-04-19T08:54:10.515Z</time></trkpt><trkpt lat="42.0918629" lon="11.8513607"><ele>296.0</ele><time>2026-04-19T08:54:12.521Z</time></trkpt><trkpt lat="42.0918146" lon="11.8514252"><ele>296.0</ele><time>2026-04-19T08:54:14.518Z</time></trkpt><trkpt lat="42.0917691" lon="11.8514892"><ele>296.0</ele><time>2026-04-19T08:54:16.518Z</time></trkpt><trkpt lat="42.0917206" lon="11.8515469"><ele>296.0</ele><time>2026-04-19T08:54:18.519Z</time></trkpt><trkpt lat="42.0916576" lon="11.8515947"><ele>296.0</ele><time>2026-04-19T08:54:20.517Z</time></trkpt><trkpt lat="42.0915966" lon="11.8516369"><ele>296.0</ele><time>2026-04-19T08:54:22.519Z</time></trkpt><trkpt lat="42.0915315" lon="11.8516812"><ele>296.0</ele><time>2026-04-19T08:54:24.52Z</time></trkpt><trkpt lat="42.0914658" lon="11.8517129"><ele>296.0</ele><time>2026-04-19T08:54:26.517Z</time></trkpt><trkpt lat="42.0914014" lon="11.8517413"><ele>294.7142857142857</ele><time>2026-04-19T08:54:28.516Z</time></trkpt><trkpt lat="42.0913384" lon="11.8517769"><ele>293.42857142857144</ele><time>2026-04-19T08:54:30.515Z</time></trkpt><trkpt lat="42.0912745" lon="11.8518098"><ele>292.1428571428571</ele><time>2026-04-19T08:54:32.53Z</time></trkpt><trkpt lat="42.0912041" lon="11.8518533"><ele>290.8571428571429</ele><time>2026-04-19T08:54:34.516Z</time></trkpt><trkpt lat="42.0911297" lon="11.8518992"><ele>289.57142857142856</ele><time>2026-04-19T08:54:36.519Z</time></trkpt><trkpt lat="42.0910622" lon="11.8519444"><ele>288.2857142857143</ele><time>2026-04-19T08:54:38.516Z</time></trkpt><trkpt lat="42.0909948" lon="11.8519896"><ele>287.0</ele><time>2026-04-19T08:54:40.517Z</time></trkpt><trkpt lat="42.0909349" lon="11.8520315"><ele>290.0</ele><time>2026-04-19T08:54:42.518Z</time></trkpt><trkpt lat="42.0908735" lon="11.8520725"><ele>293.0</ele><time>2026-04-19T08:54:44.516Z</time></trkpt><trkpt lat="42.090814" lon="11.8521336"><ele>296.0</ele><time>2026-04-19T08:54:46.519Z</time></trkpt><trkpt lat="42.0907564" lon="11.8522079"><ele>299.0</ele><time>2026-04-19T08:54:48.519Z</time></trkpt><trkpt lat="42.0906939" lon="11.8522633"><ele>302.0</ele><time>2026-04-19T08:54:50.515Z</time></trkpt><trkpt lat="42.0906246" lon="11.8523179"><ele>305.0</ele><time>2026-04-19T08:54:52.519Z</time></trkpt><trkpt lat="42.0905537" lon="11.8523623"><ele>305.0</ele><time>2026-04-19T08:54:54.517Z</time></trkpt><trkpt lat="42.0904828" lon="11.852402"><ele>305.0</ele><time>2026-04-19T08:54:56.519Z</time></trkpt><trkpt lat="42.090416" lon="11.8524265"><ele>305.0</ele><time>2026-04-19T08:54:58.518Z</time></trkpt><trkpt lat="42.0903462" lon="11.8524544"><ele>305.0</ele><time>2026-04-19T08:55:00.52Z</time></trkpt><trkpt lat="42.0902745" lon="11.852477"><ele>305.0</ele><time>2026-04-19T08:55:02.516Z</time></trkpt><trkpt lat="42.0902033" lon="11.8524983"><ele>305.0</ele><time>2026-04-19T08:55:04.517Z</time></trkpt><trkpt lat="42.0901278" lon="11.8525155"><ele>305.0</ele><time>2026-04-19T08:55:06.521Z</time></trkpt><trkpt lat="42.0900491" lon="11.8525183"><ele>305.0</ele><time>2026-04-19T08:55:08.516Z</time></trkpt><trkpt lat="42.0899793" lon="11.8525162"><ele>305.0</ele><time>2026-04-19T08:55:10.518Z</time></trkpt><trkpt lat="42.089903" lon="11.8525109"><ele>305.0</ele><time>2026-04-19T08:55:12.515Z</time></trkpt><trkpt lat="42.0898262" lon="11.8524969"><ele>305.0</ele><time>2026-04-19T08:55:14.517Z</time></trkpt><trkpt lat="42.0897553" lon="11.8524814"><ele>305.0</ele><time>2026-04-19T08:55:16.523Z</time></trkpt><trkpt lat="42.0896825" lon="11.8524723"><ele>305.0</ele><time>2026-04-19T08:55:18.515Z</time></trkpt><trkpt lat="42.0896163" lon="11.8524642"><ele>305.0</ele><time>2026-04-19T08:55:20.516Z</time></trkpt><trkpt lat="42.0895486" lon="11.8524509"><ele>304.1666666666667</ele><time>2026-04-19T08:55:22.517Z</time></trkpt><trkpt lat="42.0894851" lon="11.8524499"><ele>303.33333333333337</ele><time>2026-04-19T08:55:24.518Z</time></trkpt><trkpt lat="42.0893994" lon="11.8524695"><ele>302.5</ele><time>2026-04-19T08:55:27.521Z</time></trkpt><trkpt lat="42.0893417" lon="11.8525067"><ele>301.6666666666667</ele><time>2026-04-19T08:55:30.516Z</time></trkpt><trkpt lat="42.0892599" lon="11.8525013"><ele>300.8333333333333</ele><time>2026-04-19T08:57:52.518Z</time></trkpt><trkpt lat="42.0892014" lon="11.8524648"><ele>300.0</ele><time>2026-04-19T08:57:54.518Z</time></trkpt><trkpt lat="42.0891205" lon="11.8524034"><ele>297.0</ele><time>2026-04-19T08:57:56.516Z</time></trkpt><trkpt lat="42.0890378" lon="11.8523159"><ele>294.0</ele><time>2026-04-19T08:57:58.524Z</time></trkpt><trkpt lat="42.0889411" lon="11.8522215"><ele>291.0</ele><time>2026-04-19T08:58:00.519Z</time></trkpt><trkpt lat="42.0888877" lon="11.8521682"><ele>288.0</ele><time>2026-04-19T08:58:01.518Z</time></trkpt><trkpt lat="42.0888352" lon="11.8521141"><ele>285.0</ele><time>2026-04-19T08:58:02.518Z</time></trkpt><trkpt lat="42.0887408" lon="11.8520337"><ele>285.0</ele><time>2026-04-19T08:58:04.517Z</time></trkpt><trkpt lat="42.0886564" lon="11.8519348"><ele>285.0</ele><time>2026-04-19T08:58:06.517Z</time></trkpt><trkpt lat="42.0885667" lon="11.851822"><ele>285.0</ele><time>2026-04-19T08:58:08.517Z</time></trkpt><trkpt lat="42.0885153" lon="11.8517656"><ele>285.0</ele><time>2026-04-19T08:58:09.514Z</time></trkpt><trkpt lat="42.0884643" lon="11.851696"><ele>285.0</ele><time>2026-04-19T08:58:10.516Z</time></trkpt><trkpt lat="42.0884081" lon="11.8516373"><ele>285.0</ele><time>2026-04-19T08:58:11.517Z</time></trkpt><trkpt lat="42.0883444" lon="11.8515882"><ele>285.5</ele><time>2026-04-19T08:58:12.519Z</time></trkpt><trkpt lat="42.0882765" lon="11.8515539"><ele>286.0</ele><time>2026-04-19T08:58:13.522Z</time></trkpt><trkpt lat="42.0882038" lon="11.8515225"><ele>286.5</ele><time>2026-04-19T08:58:14.52Z</time></trkpt><trkpt lat="42.0881285" lon="11.8514902"><ele>287.0</ele><time>2026-04-19T08:58:15.522Z</time></trkpt><trkpt lat="42.0880454" lon="11.85148"><ele>287.5</ele><time>2026-04-19T08:58:16.519Z</time></trkpt><trkpt lat="42.0879611" lon="11.8514648"><ele>288.0</ele><time>2026-04-19T08:58:17.52Z</time></trkpt><trkpt lat="42.0878756" lon="11.8514638"><ele>286.2</ele><time>2026-04-19T08:58:18.53Z</time></trkpt><trkpt lat="42.0877869" lon="11.8514765"><ele>284.4</ele><time>2026-04-19T08:58:19.516Z</time></trkpt><trkpt lat="42.0876977" lon="11.85149"><ele>282.59999999999997</ele><time>2026-04-19T08:58:20.52Z</time></trkpt><trkpt lat="42.087605" lon="11.8515127"><ele>280.8</ele><time>2026-04-19T08:58:21.52Z</time></trkpt><trkpt lat="42.0875054" lon="11.851544"><ele>279.0</ele><time>2026-04-19T08:58:22.519Z</time></trkpt><trkpt lat="42.0874098" lon="11.8515958"><ele>277.4</ele><time>2026-04-19T08:58:23.521Z</time></trkpt><trkpt lat="42.0873125" lon="11.8516476"><ele>275.79999999999995</ele><time>2026-04-19T08:58:24.518Z</time></trkpt><trkpt lat="42.0872099" lon="11.851694"><ele>274.20000000000005</ele><time>2026-04-19T08:58:25.521Z</time></trkpt><trkpt lat="42.0871049" lon="11.8517516"><ele>272.6</ele><time>2026-04-19T08:58:26.521Z</time></trkpt><trkpt lat="42.0869974" lon="11.8518018"><ele>271.0</ele><time>2026-04-19T08:58:27.52Z</time></trkpt><trkpt lat="42.0868798" lon="11.8518575"><ele>269.25</ele><time>2026-04-19T08:58:28.519Z</time></trkpt><trkpt lat="42.0867594" lon="11.8519129"><ele>267.5</ele><time>2026-04-19T08:58:29.516Z</time></trkpt><trkpt lat="42.0866369" lon="11.8519677"><ele>265.75</ele><time>2026-04-19T08:58:30.515Z</time></trkpt><trkpt lat="42.0865151" lon="11.8520247"><ele>264.0</ele><time>2026-04-19T08:58:31.516Z</time></trkpt><trkpt lat="42.0863852" lon="11.8520898"><ele>261.5</ele><time>2026-04-19T08:58:32.515Z</time></trkpt><trkpt lat="42.0862614" lon="11.8521419"><ele>259.0</ele><time>2026-04-19T08:58:33.519Z</time></trkpt><trkpt lat="42.0861366" lon="11.8522109"><ele>256.5</ele><time>2026-04-19T08:58:34.517Z</time></trkpt><trkpt lat="42.0860091" lon="11.85225"><ele>254.0</ele><time>2026-04-19T08:58:35.52Z</time></trkpt><trkpt lat="42.0858862" lon="11.8523091"><ele>254.0</ele><time>2026-04-19T08:58:36.521Z</time></trkpt><trkpt lat="42.0857729" lon="11.8523666"><ele>253.99999999999997</ele><time>2026-04-19T08:58:37.519Z</time></trkpt><trkpt lat="42.0856752" lon="11.8524331"><ele>253.99999999999997</ele><time>2026-04-19T08:58:38.52Z</time></trkpt><trkpt lat="42.0855744" lon="11.852506"><ele>254.0</ele><time>2026-04-19T08:58:39.518Z</time></trkpt><trkpt lat="42.0854867" lon="11.8525791"><ele>254.0</ele><time>2026-04-19T08:58:40.518Z</time></trkpt><trkpt lat="42.0854053" lon="11.852636"><ele>252.50000000000003</ele><time>2026-04-19T08:58:41.519Z</time></trkpt><trkpt lat="42.0853202" lon="11.8526834"><ele>251.0</ele><time>2026-04-19T08:58:42.516Z</time></trkpt><trkpt lat="42.08524" lon="11.8527051"><ele>249.5</ele><time>2026-04-19T08:58:43.52Z</time></trkpt><trkpt lat="42.0851614" lon="11.8527158"><ele>248.0</ele><time>2026-04-19T08:58:44.516Z</time></trkpt><trkpt lat="42.0850733" lon="11.8527002"><ele>246.50000000000003</ele><time>2026-04-19T08:58:45.523Z</time></trkpt><trkpt lat="42.0849821" lon="11.8526735"><ele>245.0</ele><time>2026-04-19T08:58:46.514Z</time></trkpt><trkpt lat="42.0848955" lon="11.8526307"><ele>243.6</ele><time>2026-04-19T08:58:47.516Z</time></trkpt><trkpt lat="42.0848002" lon="11.8525873"><ele>242.2</ele><time>2026-04-19T08:58:48.519Z</time></trkpt><trkpt lat="42.0847056" lon="11.8525316"><ele>240.8</ele><time>2026-04-19T08:58:49.513Z</time></trkpt><trkpt lat="42.084614" lon="11.852468"><ele>239.4</ele><time>2026-04-19T08:58:50.515Z</time></trkpt><trkpt lat="42.0845275" lon="11.8524016"><ele>238.0</ele><time>2026-04-19T08:58:51.515Z</time></trkpt><trkpt lat="42.0844333" lon="11.8523408"><ele>238.0</ele><time>2026-04-19T08:58:52.518Z</time></trkpt><trkpt lat="42.0843372" lon="11.852282"><ele>238.0</ele><time>2026-04-19T08:58:53.519Z</time></trkpt><trkpt lat="42.0842372" lon="11.8522246"><ele>238.0</ele><time>2026-04-19T08:58:54.518Z</time></trkpt><trkpt lat="42.0841293" lon="11.852168"><ele>238.0</ele><time>2026-04-19T08:58:55.519Z</time></trkpt><trkpt lat="42.0840258" lon="11.8520983"><ele>238.0</ele><time>2026-04-19T08:58:56.518Z</time></trkpt><trkpt lat="42.0839247" lon="11.852024"><ele>237.0</ele><time>2026-04-19T08:58:57.516Z</time></trkpt><trkpt lat="42.0838309" lon="11.8519449"><ele>236.0</ele><time>2026-04-19T08:58:58.52Z</time></trkpt><trkpt lat="42.0837409" lon="11.8518642"><ele>235.0</ele><time>2026-04-19T08:58:59.52Z</time></trkpt><trkpt lat="42.0836485" lon="11.8517928"><ele>234.0</ele><time>2026-04-19T08:59:00.52Z</time></trkpt><trkpt lat="42.083563" lon="11.8517155"><ele>233.0</ele><time>2026-04-19T08:59:01.517Z</time></trkpt><trkpt lat="42.0834862" lon="11.8516365"><ele>233.00000000000003</ele><time>2026-04-19T08:59:02.516Z</time></trkpt><trkpt lat="42.0834082" lon="11.8515709"><ele>233.0</ele><time>2026-04-19T08:59:03.516Z</time></trkpt><trkpt lat="42.0833338" lon="11.8515081"><ele>233.0</ele><time>2026-04-19T08:59:04.52Z</time></trkpt><trkpt lat="42.0832546" lon="11.8514564"><ele>233.0</ele><time>2026-04-19T08:59:05.519Z</time></trkpt><trkpt lat="42.083179" lon="11.8514109"><ele>233.00000000000003</ele><time>2026-04-19T08:59:06.518Z</time></trkpt><trkpt lat="42.0831032" lon="11.851378"><ele>233.0</ele><time>2026-04-19T08:59:07.52Z</time></trkpt><trkpt lat="42.0830237" lon="11.8513393"><ele>231.66666666666669</ele><time>2026-04-19T08:59:08.517Z</time></trkpt><trkpt lat="42.0829406" lon="11.8513097"><ele>230.33333333333334</ele><time>2026-04-19T08:59:09.519Z</time></trkpt><trkpt lat="42.0828662" lon="11.8512773"><ele>229.0</ele><time>2026-04-19T08:59:10.517Z</time></trkpt><trkpt lat="42.0827854" lon="11.8512525"><ele>227.66666666666669</ele><time>2026-04-19T08:59:11.515Z</time></trkpt><trkpt lat="42.0827001" lon="11.8512313"><ele>226.33333333333334</ele><time>2026-04-19T08:59:12.515Z</time></trkpt><trkpt lat="42.0826172" lon="11.8512109"><ele>225.0</ele><time>2026-04-19T08:59:13.519Z</time></trkpt><trkpt lat="42.0825353" lon="11.8511875"><ele>225.0</ele><time>2026-04-19T08:59:14.519Z</time></trkpt><trkpt lat="42.0824586" lon="11.851158"><ele>225.0</ele><time>2026-04-19T08:59:15.517Z</time></trkpt><trkpt lat="42.0823875" lon="11.8511196"><ele>225.0</ele><time>2026-04-19T08:59:16.518Z</time></trkpt><trkpt lat="42.0823115" lon="11.8510884"><ele>225.0</ele><time>2026-04-19T08:59:17.519Z</time></trkpt><trkpt lat="42.0822395" lon="11.8510636"><ele>225.0</ele><time>2026-04-19T08:59:18.521Z</time></trkpt><trkpt lat="42.0821736" lon="11.8510517"><ele>225.0</ele><time>2026-04-19T08:59:19.52Z</time></trkpt><trkpt lat="42.0820736" lon="11.851032"><ele>223.5714285714286</ele><time>2026-04-19T08:59:21.52Z</time></trkpt><trkpt lat="42.0820394" lon="11.8511187"><ele>222.14285714285717</ele><time>2026-04-19T08:59:24.518Z</time></trkpt><trkpt lat="42.0820853" lon="11.8511781"><ele>220.71428571428572</ele><time>2026-04-19T08:59:26.52Z</time></trkpt><trkpt lat="42.0821789" lon="11.8512428"><ele>219.2857142857143</ele><time>2026-04-19T08:59:28.528Z</time></trkpt><trkpt lat="42.0822397" lon="11.8512889"><ele>217.8571428571429</ele><time>2026-04-19T08:59:29.518Z</time></trkpt><trkpt lat="42.0822982" lon="11.8513383"><ele>216.42857142857142</ele><time>2026-04-19T08:59:30.515Z</time></trkpt><trkpt lat="42.0823531" lon="11.8513935"><ele>215.0</ele><time>2026-04-19T08:59:31.517Z</time></trkpt><trkpt lat="42.0824056" lon="11.8514548"><ele>215.42857142857142</ele><time>2026-04-19T08:59:32.515Z</time></trkpt><trkpt lat="42.0824547" lon="11.8515136"><ele>215.85714285714286</ele><time>2026-04-19T08:59:33.519Z</time></trkpt><trkpt lat="42.0825065" lon="11.8515817"><ele>216.28571428571428</ele><time>2026-04-19T08:59:34.52Z</time></trkpt><trkpt lat="42.0825526" lon="11.8516516"><ele>216.71428571428572</ele><time>2026-04-19T08:59:35.52Z</time></trkpt><trkpt lat="42.0825998" lon="11.8517229"><ele>217.14285714285717</ele><time>2026-04-19T08:59:36.52Z</time></trkpt><trkpt lat="42.0826424" lon="11.8517995"><ele>217.57142857142858</ele><time>2026-04-19T08:59:37.517Z</time></trkpt><trkpt lat="42.0826825" lon="11.8518774"><ele>218.0</ele><time>2026-04-19T08:59:38.519Z</time></trkpt><trkpt lat="42.0827258" lon="11.8519614"><ele>218.0</ele><time>2026-04-19T08:59:39.517Z</time></trkpt><trkpt lat="42.0827657" lon="11.852042"><ele>218.0</ele><time>2026-04-19T08:59:40.519Z</time></trkpt><trkpt lat="42.0828047" lon="11.8521209"><ele>218.0</ele><time>2026-04-19T08:59:41.519Z</time></trkpt><trkpt lat="42.08285" lon="11.8521965"><ele>218.0</ele><time>2026-04-19T08:59:42.519Z</time></trkpt><trkpt lat="42.0828938" lon="11.8522754"><ele>218.0</ele><time>2026-04-19T08:59:43.518Z</time></trkpt><trkpt lat="42.0829382" lon="11.852353"><ele>218.0</ele><time>2026-04-19T08:59:44.518Z</time></trkpt><trkpt lat="42.0829791" lon="11.8524336"><ele>218.0</ele><time>2026-04-19T08:59:45.52Z</time></trkpt><trkpt lat="42.0830172" lon="11.8525217"><ele>218.0</ele><time>2026-04-19T08:59:46.519Z</time></trkpt><trkpt lat="42.0830541" lon="11.8526101"><ele>218.0</ele><time>2026-04-19T08:59:47.519Z</time></trkpt><trkpt lat="42.0830911" lon="11.8526989"><ele>218.0</ele><time>2026-04-19T08:59:48.521Z</time></trkpt><trkpt lat="42.0831273" lon="11.8527793"><ele>218.0</ele><time>2026-04-19T08:59:49.516Z</time></trkpt><trkpt lat="42.0831677" lon="11.8528593"><ele>218.0</ele><time>2026-04-19T08:59:50.518Z</time></trkpt><trkpt lat="42.0832118" lon="11.8529372"><ele>218.0</ele><time>2026-04-19T08:59:51.517Z</time></trkpt><trkpt lat="42.0832455" lon="11.8530119"><ele>218.0</ele><time>2026-04-19T08:59:52.516Z</time></trkpt><trkpt lat="42.0832818" lon="11.8531441"><ele>217.57142857142858</ele><time>2026-04-19T08:59:54.52Z</time></trkpt><trkpt lat="42.0832811" lon="11.8532565"><ele>217.14285714285717</ele><time>2026-04-19T08:59:56.519Z</time></trkpt><trkpt lat="42.0832733" lon="11.8533425"><ele>216.71428571428572</ele><time>2026-04-19T08:59:59.516Z</time></trkpt><trkpt lat="42.0832871" lon="11.8534419"><ele>216.28571428571428</ele><time>2026-04-19T09:00:08.516Z</time></trkpt><trkpt lat="42.0832924" lon="11.8535327"><ele>215.85714285714286</ele><time>2026-04-19T09:00:11.514Z</time></trkpt><trkpt lat="42.0832717" lon="11.8536319"><ele>215.42857142857142</ele><time>2026-04-19T09:00:14.517Z</time></trkpt><trkpt lat="42.0832494" lon="11.8537134"><ele>215.0</ele><time>2026-04-19T09:00:16.523Z</time></trkpt><trkpt lat="42.0832273" lon="11.8537993"><ele>215.00000000000003</ele><time>2026-04-19T09:00:18.515Z</time></trkpt><trkpt lat="42.083205" lon="11.8538898"><ele>215.0</ele><time>2026-04-19T09:00:21.517Z</time></trkpt><trkpt lat="42.0831723" lon="11.8539717"><ele>215.0</ele><time>2026-04-19T09:00:24.515Z</time></trkpt><trkpt lat="42.0831615" lon="11.8540744"><ele>215.0</ele><time>2026-04-19T09:00:27.517Z</time></trkpt><trkpt lat="42.0831574" lon="11.8541875"><ele>215.00000000000003</ele><time>2026-04-19T09:00:30.516Z</time></trkpt><trkpt lat="42.0831573" lon="11.8543024"><ele>215.0</ele><time>2026-04-19T09:00:32.515Z</time></trkpt><trkpt lat="42.0831462" lon="11.8544448"><ele>213.16666666666669</ele><time>2026-04-19T09:00:34.518Z</time></trkpt><trkpt lat="42.0831326" lon="11.8546114"><ele>211.33333333333334</ele><time>2026-04-19T09:00:36.52Z</time></trkpt><trkpt lat="42.0831257" lon="11.8547104"><ele>209.5</ele><time>2026-04-19T09:00:37.516Z</time></trkpt><trkpt lat="42.0831316" lon="11.8548142"><ele>207.66666666666669</ele><time>2026-04-19T09:00:38.518Z</time></trkpt><trkpt lat="42.083125" lon="11.8549235"><ele>205.83333333333334</ele><time>2026-04-19T09:00:39.525Z</time></trkpt><trkpt lat="42.0831014" lon="11.8550349"><ele>204.0</ele><time>2026-04-19T09:00:40.518Z</time></trkpt><trkpt lat="42.0830816" lon="11.8551497"><ele>203.16666666666666</ele><time>2026-04-19T09:00:41.519Z</time></trkpt><trkpt lat="42.0830533" lon="11.8552544"><ele>202.33333333333331</ele><time>2026-04-19T09:00:42.518Z</time></trkpt><trkpt lat="42.0830104" lon="11.8553588"><ele>201.5</ele><time>2026-04-19T09:00:43.52Z</time></trkpt><trkpt lat="42.0829775" lon="11.8554563"><ele>200.66666666666666</ele><time>2026-04-19T09:00:44.517Z</time></trkpt><trkpt lat="42.0829456" lon="11.8555399"><ele>199.83333333333331</ele><time>2026-04-19T09:00:45.518Z</time></trkpt><trkpt lat="42.0829122" lon="11.8556306"><ele>199.0</ele><time>2026-04-19T09:00:46.525Z</time></trkpt><trkpt lat="42.0828786" lon="11.8557199"><ele>198.99999999999997</ele><time>2026-04-19T09:00:47.518Z</time></trkpt><trkpt lat="42.0828456" lon="11.8558029"><ele>199.0</ele><time>2026-04-19T09:00:48.517Z</time></trkpt><trkpt lat="42.0828179" lon="11.8558828"><ele>199.0</ele><time>2026-04-19T09:00:49.519Z</time></trkpt><trkpt lat="42.0828003" lon="11.8559902"><ele>199.0</ele><time>2026-04-19T09:00:50.516Z</time></trkpt><trkpt lat="42.0827878" lon="11.8560838"><ele>199.0</ele><time>2026-04-19T09:00:51.516Z</time></trkpt><trkpt lat="42.0827935" lon="11.8561783"><ele>198.99999999999997</ele><time>2026-04-19T09:00:52.516Z</time></trkpt><trkpt lat="42.0828047" lon="11.8562809"><ele>199.0</ele><time>2026-04-19T09:00:53.52Z</time></trkpt><trkpt lat="42.0828341" lon="11.8563918"><ele>197.99999999999997</ele><time>2026-04-19T09:00:54.519Z</time></trkpt><trkpt lat="42.0828578" lon="11.8564945"><ele>197.0</ele><time>2026-04-19T09:00:55.519Z</time></trkpt><trkpt lat="42.0828878" lon="11.8565941"><ele>196.0</ele><time>2026-04-19T09:00:56.519Z</time></trkpt><trkpt lat="42.0829233" lon="11.8566866"><ele>195.0</ele><time>2026-04-19T09:00:57.518Z</time></trkpt><trkpt lat="42.0829798" lon="11.8567696"><ele>193.99999999999997</ele><time>2026-04-19T09:00:58.52Z</time></trkpt><trkpt lat="42.0830354" lon="11.856853"><ele>193.0</ele><time>2026-04-19T09:00:59.519Z</time></trkpt><trkpt lat="42.0831081" lon="11.8569087"><ele>192.99999999999997</ele><time>2026-04-19T09:01:00.521Z</time></trkpt><trkpt lat="42.083174" lon="11.8569807"><ele>193.0</ele><time>2026-04-19T09:01:01.517Z</time></trkpt><trkpt lat="42.0832435" lon="11.857054"><ele>193.0</ele><time>2026-04-19T09:01:02.521Z</time></trkpt><trkpt lat="42.0833178" lon="11.8571229"><ele>193.0</ele><time>2026-04-19T09:01:03.52Z</time></trkpt><trkpt lat="42.0833929" lon="11.8571837"><ele>192.99999999999997</ele><time>2026-04-19T09:01:04.517Z</time></trkpt><trkpt lat="42.0834729" lon="11.8572444"><ele>193.0</ele><time>2026-04-19T09:01:05.518Z</time></trkpt><trkpt lat="42.0835638" lon="11.8572915"><ele>192.99999999999997</ele><time>2026-04-19T09:01:06.516Z</time></trkpt><trkpt lat="42.083625" lon="11.8573293"><ele>193.0</ele><time>2026-04-19T09:01:07.519Z</time></trkpt><trkpt lat="42.0836952" lon="11.8573437"><ele>193.0</ele><time>2026-04-19T09:01:08.518Z</time></trkpt><trkpt lat="42.0837588" lon="11.8573479"><ele>193.0</ele><time>2026-04-19T09:01:09.516Z</time></trkpt><trkpt lat="42.0838319" lon="11.8573827"><ele>192.99999999999997</ele><time>2026-04-19T09:01:12.516Z</time></trkpt><trkpt lat="42.0837539" lon="11.857455"><ele>193.0</ele><time>2026-04-19T09:01:15.519Z</time></trkpt><trkpt lat="42.0836686" lon="11.8574771"><ele>193.0</ele><time>2026-04-19T09:01:17.518Z</time></trkpt><trkpt lat="42.0835561" lon="11.8575033"><ele>193.0</ele><time>2026-04-19T09:01:19.515Z</time></trkpt><trkpt lat="42.0834226" lon="11.8575077"><ele>193.0</ele><time>2026-04-19T09:01:21.521Z</time></trkpt><trkpt lat="42.0833526" lon="11.8575055"><ele>193.0</ele><time>2026-04-19T09:01:22.518Z</time></trkpt><trkpt lat="42.0832838" lon="11.8574948"><ele>193.0</ele><time>2026-04-19T09:01:23.519Z</time></trkpt><trkpt lat="42.0832249" lon="11.8574638"><ele>190.16666666666666</ele><time>2026-04-19T09:01:24.516Z</time></trkpt><trkpt lat="42.0831564" lon="11.8574425"><ele>187.33333333333331</ele><time>2026-04-19T09:01:25.523Z</time></trkpt><trkpt lat="42.0830794" lon="11.8574146"><ele>184.5</ele><time>2026-04-19T09:01:26.518Z</time></trkpt><trkpt lat="42.0830015" lon="11.8573977"><ele>181.66666666666666</ele><time>2026-04-19T09:01:27.518Z</time></trkpt><trkpt lat="42.0829291" lon="11.857358"><ele>178.83333333333331</ele><time>2026-04-19T09:01:28.52Z</time></trkpt><trkpt lat="42.082845" lon="11.85732"><ele>176.0</ele><time>2026-04-19T09:01:29.517Z</time></trkpt><trkpt lat="42.0827771" lon="11.8572749"><ele>176.0</ele><time>2026-04-19T09:01:30.52Z</time></trkpt><trkpt lat="42.0827029" lon="11.8572487"><ele>176.0</ele><time>2026-04-19T09:01:31.516Z</time></trkpt><trkpt lat="42.0826294" lon="11.8572302"><ele>176.0</ele><time>2026-04-19T09:01:32.516Z</time></trkpt><trkpt lat="42.0825574" lon="11.8572001"><ele>176.0</ele><time>2026-04-19T09:01:33.517Z</time></trkpt><trkpt lat="42.0824885" lon="11.857157"><ele>176.0</ele><time>2026-04-19T09:01:34.518Z</time></trkpt><trkpt lat="42.0824178" lon="11.8571064"><ele>176.0</ele><time>2026-04-19T09:01:35.517Z</time></trkpt><trkpt lat="42.0823508" lon="11.8570552"><ele>173.66666666666666</ele><time>2026-04-19T09:01:36.525Z</time></trkpt><trkpt lat="42.0822927" lon="11.8570008"><ele>171.33333333333331</ele><time>2026-04-19T09:01:37.517Z</time></trkpt><trkpt lat="42.0822242" lon="11.8569621"><ele>169.0</ele><time>2026-04-19T09:01:38.517Z</time></trkpt><trkpt lat="42.0821518" lon="11.8569165"><ele>166.66666666666666</ele><time>2026-04-19T09:01:39.517Z</time></trkpt><trkpt lat="42.0820692" lon="11.8568853"><ele>164.33333333333334</ele><time>2026-04-19T09:01:40.515Z</time></trkpt><trkpt lat="42.081996" lon="11.8568602"><ele>162.0</ele><time>2026-04-19T09:01:41.519Z</time></trkpt><trkpt lat="42.0819282" lon="11.8568388"><ele>162.0</ele><time>2026-04-19T09:01:42.519Z</time></trkpt><trkpt lat="42.0818492" lon="11.8568467"><ele>162.0</ele><time>2026-04-19T09:01:43.514Z</time></trkpt><trkpt lat="42.081784" lon="11.8568085"><ele>162.0</ele><time>2026-04-19T09:01:44.516Z</time></trkpt><trkpt lat="42.0816787" lon="11.856743"><ele>162.0</ele><time>2026-04-19T09:01:46.517Z</time></trkpt><trkpt lat="42.0816201" lon="11.8566865"><ele>162.0</ele><time>2026-04-19T09:01:48.516Z</time></trkpt><trkpt lat="42.0815874" lon="11.8566068"><ele>162.0</ele><time>2026-04-19T09:01:51.515Z</time></trkpt><trkpt lat="42.0815732" lon="11.8564852"><ele>161.16666666666666</ele><time>2026-04-19T09:01:54.517Z</time></trkpt><trkpt lat="42.0815767" lon="11.8563995"><ele>160.33333333333334</ele><time>2026-04-19T09:01:56.516Z</time></trkpt><trkpt lat="42.0815918" lon="11.856314"><ele>159.5</ele><time>2026-04-19T09:01:58.526Z</time></trkpt><trkpt lat="42.0816179" lon="11.8562262"><ele>158.66666666666669</ele><time>2026-04-19T09:02:00.517Z</time></trkpt><trkpt lat="42.0816275" lon="11.8560905"><ele>157.83333333333334</ele><time>2026-04-19T09:02:02.517Z</time></trkpt><trkpt lat="42.0816157" lon="11.8561769"><ele>157.0</ele><time>2026-04-19T09:02:44.518Z</time></trkpt><trkpt lat="42.0816046" lon="11.8562911"><ele>157.0</ele><time>2026-04-19T09:02:47.515Z</time></trkpt><trkpt lat="42.0815788" lon="11.8563704"><ele>157.0</ele><time>2026-04-19T09:02:49.518Z</time></trkpt><trkpt lat="42.0815558" lon="11.8564647"><ele>157.0</ele><time>2026-04-19T09:02:51.516Z</time></trkpt><trkpt lat="42.0815705" lon="11.8565544"><ele>157.0</ele><time>2026-04-19T09:02:53.518Z</time></trkpt><trkpt lat="42.0816117" lon="11.8566597"><ele>157.0</ele><time>2026-04-19T09:02:56.517Z</time></trkpt><trkpt lat="42.0816722" lon="11.8567489"><ele>157.0</ele><time>2026-04-19T09:02:59.516Z</time></trkpt><trkpt lat="42.0816602" lon="11.8568363"><ele>157.7142857142857</ele><time>2026-04-19T09:03:01.517Z</time></trkpt><trkpt lat="42.0816342" lon="11.8569508"><ele>158.42857142857142</ele><time>2026-04-19T09:03:04.518Z</time></trkpt><trkpt lat="42.0816487" lon="11.8570444"><ele>159.14285714285714</ele><time>2026-04-19T09:03:06.519Z</time></trkpt><trkpt lat="42.0816345" lon="11.8571409"><ele>159.85714285714283</ele><time>2026-04-19T09:03:08.517Z</time></trkpt><trkpt lat="42.081608" lon="11.857222"><ele>160.57142857142856</ele><time>2026-04-19T09:03:12.514Z</time></trkpt><trkpt lat="42.0816337" lon="11.8571416"><ele>161.28571428571428</ele><time>2026-04-19T09:04:07.525Z</time></trkpt><trkpt lat="42.0816665" lon="11.8570521"><ele>162.0</ele><time>2026-04-19T09:04:17.518Z</time></trkpt><trkpt lat="42.0817224" lon="11.8569853"><ele>162.0</ele><time>2026-04-19T09:04:21.516Z</time></trkpt><trkpt lat="42.0817428" lon="11.856866"><ele>162.0</ele><time>2026-04-19T09:04:25.517Z</time></trkpt><trkpt lat="42.0817696" lon="11.8567783"><ele>162.0</ele><time>2026-04-19T09:04:28.52Z</time></trkpt><trkpt lat="42.0818521" lon="11.8567931"><ele>162.0</ele><time>2026-04-19T09:04:31.515Z</time></trkpt><trkpt lat="42.0819384" lon="11.8568202"><ele>162.0</ele><time>2026-04-19T09:04:34.519Z</time></trkpt><trkpt lat="42.0820242" lon="11.8568567"><ele>162.0</ele><time>2026-04-19T09:04:37.519Z</time></trkpt><trkpt lat="42.0820863" lon="11.8568838"><ele>162.0</ele><time>2026-04-19T09:04:39.518Z</time></trkpt><trkpt lat="42.0821702" lon="11.8569326"><ele>162.0</ele><time>2026-04-19T09:04:42.519Z</time></trkpt><trkpt lat="42.0822427" lon="11.8569928"><ele>162.0</ele><time>2026-04-19T09:04:45.516Z</time></trkpt><trkpt lat="42.0823171" lon="11.8570267"><ele>162.0</ele><time>2026-04-19T09:04:48.52Z</time></trkpt><trkpt lat="42.0823945" lon="11.857084"><ele>162.0</ele><time>2026-04-19T09:04:51.514Z</time></trkpt><trkpt lat="42.0824437" lon="11.8571391"><ele>162.0</ele><time>2026-04-19T09:04:53.517Z</time></trkpt><trkpt lat="42.082511" lon="11.8571741"><ele>164.33333333333334</ele><time>2026-04-19T09:04:55.518Z</time></trkpt><trkpt lat="42.0825787" lon="11.8572038"><ele>166.66666666666666</ele><time>2026-04-19T09:04:57.517Z</time></trkpt><trkpt lat="42.0826481" lon="11.8572193"><ele>169.0</ele><time>2026-04-19T09:04:59.519Z</time></trkpt><trkpt lat="42.0827223" lon="11.8572362"><ele>171.33333333333331</ele><time>2026-04-19T09:05:01.519Z</time></trkpt><trkpt lat="42.0828091" lon="11.8572707"><ele>173.66666666666666</ele><time>2026-04-19T09:05:03.519Z</time></trkpt><trkpt lat="42.0828953" lon="11.8573097"><ele>176.0</ele><time>2026-04-19T09:05:05.519Z</time></trkpt><trkpt lat="42.0829917" lon="11.8573428"><ele>176.0</ele><time>2026-04-19T09:05:07.516Z</time></trkpt><trkpt lat="42.0830698" lon="11.8573776"><ele>176.0</ele><time>2026-04-19T09:05:09.517Z</time></trkpt><trkpt lat="42.0831554" lon="11.857406"><ele>176.0</ele><time>2026-04-19T09:05:11.515Z</time></trkpt><trkpt lat="42.083226" lon="11.8574335"><ele>176.0</ele><time>2026-04-19T09:05:13.519Z</time></trkpt><trkpt lat="42.0832977" lon="11.8574614"><ele>176.0</ele><time>2026-04-19T09:05:15.516Z</time></trkpt><trkpt lat="42.0833676" lon="11.8574839"><ele>176.0</ele><time>2026-04-19T09:05:17.518Z</time></trkpt><trkpt lat="42.0834374" lon="11.8574952"><ele>178.42857142857144</ele><time>2026-04-19T09:05:19.518Z</time></trkpt><trkpt lat="42.0835098" lon="11.8575"><ele>180.85714285714286</ele><time>2026-04-19T09:05:21.515Z</time></trkpt><trkpt lat="42.0836008" lon="11.8574815"><ele>183.28571428571428</ele><time>2026-04-19T09:05:24.516Z</time></trkpt><trkpt lat="42.0836716" lon="11.8574636"><ele>185.71428571428572</ele><time>2026-04-19T09:05:27.518Z</time></trkpt><trkpt lat="42.0837357" lon="11.8574466"><ele>188.14285714285714</ele><time>2026-04-19T09:05:30.516Z</time></trkpt><trkpt lat="42.0838117" lon="11.8574239"><ele>190.57142857142858</ele><time>2026-04-19T09:05:34.517Z</time></trkpt><trkpt lat="42.0838744" lon="11.8573854"><ele>193.0</ele><time>2026-04-19T09:05:39.525Z</time></trkpt><trkpt lat="42.0839506" lon="11.8573779"><ele>192.99999999999997</ele><time>2026-04-19T09:05:44.515Z</time></trkpt><trkpt lat="42.0840227" lon="11.8573864"><ele>193.0</ele><time>2026-04-19T09:05:48.52Z</time></trkpt><trkpt lat="42.0840931" lon="11.8574102"><ele>193.0</ele><time>2026-04-19T09:05:52.53Z</time></trkpt><trkpt lat="42.0841685" lon="11.8574153"><ele>193.0</ele><time>2026-04-19T09:05:55.517Z</time></trkpt><trkpt lat="42.0842852" lon="11.857432"><ele>192.99999999999997</ele><time>2026-04-19T09:05:57.515Z</time></trkpt><trkpt lat="42.0843447" lon="11.8574932"><ele>193.0</ele><time>2026-04-19T09:05:59.517Z</time></trkpt><trkpt lat="42.0843416" lon="11.8576141"><ele>194.16666666666666</ele><time>2026-04-19T09:06:02.518Z</time></trkpt><trkpt lat="42.0843061" lon="11.8576895"><ele>195.33333333333331</ele><time>2026-04-19T09:06:04.514Z</time></trkpt><trkpt lat="42.0842654" lon="11.8577721"><ele>196.5</ele><time>2026-04-19T09:06:06.52Z</time></trkpt><trkpt lat="42.0842231" lon="11.8578756"><ele>197.66666666666669</ele><time>2026-04-19T09:06:08.516Z</time></trkpt><trkpt lat="42.0841734" lon="11.8579754"><ele>198.83333333333334</ele><time>2026-04-19T09:06:10.517Z</time></trkpt><trkpt lat="42.0841219" lon="11.8580597"><ele>200.0</ele><time>2026-04-19T09:06:12.516Z</time></trkpt><trkpt lat="42.0840577" lon="11.8581687"><ele>194.8</ele><time>2026-04-19T09:06:14.517Z</time></trkpt><trkpt lat="42.0839884" lon="11.8583021"><ele>189.6</ele><time>2026-04-19T09:06:16.528Z</time></trkpt><trkpt lat="42.0839563" lon="11.8583807"><ele>184.39999999999998</ele><time>2026-04-19T09:06:17.517Z</time></trkpt><trkpt lat="42.0839354" lon="11.858461"><ele>179.2</ele><time>2026-04-19T09:06:18.517Z</time></trkpt><trkpt lat="42.0839058" lon="11.85859"><ele>174.0</ele><time>2026-04-19T09:06:20.517Z</time></trkpt><trkpt lat="42.0839326" lon="11.858723"><ele>172.16666666666666</ele><time>2026-04-19T09:06:22.524Z</time></trkpt><trkpt lat="42.0840308" lon="11.8588298"><ele>170.33333333333334</ele><time>2026-04-19T09:06:24.518Z</time></trkpt><trkpt lat="42.0840902" lon="11.8588911"><ele>168.5</ele><time>2026-04-19T09:06:25.517Z</time></trkpt><trkpt lat="42.0841477" lon="11.8589573"><ele>166.66666666666669</ele><time>2026-04-19T09:06:26.519Z</time></trkpt><trkpt lat="42.0842019" lon="11.8590316"><ele>164.83333333333334</ele><time>2026-04-19T09:06:27.517Z</time></trkpt><trkpt lat="42.084253" lon="11.8591046"><ele>163.0</ele><time>2026-04-19T09:06:28.518Z</time></trkpt><trkpt lat="42.0843086" lon="11.8591878"><ele>163.83333333333334</ele><time>2026-04-19T09:06:29.517Z</time></trkpt><trkpt lat="42.0843647" lon="11.8592828"><ele>164.66666666666669</ele><time>2026-04-19T09:06:30.516Z</time></trkpt><trkpt lat="42.0843802" lon="11.8593857"><ele>165.5</ele><time>2026-04-19T09:06:31.515Z</time></trkpt><trkpt lat="42.0844069" lon="11.8594885"><ele>166.33333333333334</ele><time>2026-04-19T09:06:32.515Z</time></trkpt><trkpt lat="42.0844219" lon="11.859615"><ele>167.16666666666666</ele><time>2026-04-19T09:06:33.517Z</time></trkpt><trkpt lat="42.0844359" lon="11.8597138"><ele>168.0</ele><time>2026-04-19T09:06:34.519Z</time></trkpt><trkpt lat="42.0844505" lon="11.8598003"><ele>168.0</ele><time>2026-04-19T09:06:35.518Z</time></trkpt><trkpt lat="42.0844751" lon="11.8599413"><ele>168.0</ele><time>2026-04-19T09:06:37.517Z</time></trkpt><trkpt lat="42.0845455" lon="11.8600439"><ele>168.0</ele><time>2026-04-19T09:06:39.516Z</time></trkpt><trkpt lat="42.0846632" lon="11.8601019"><ele>168.0</ele><time>2026-04-19T09:06:41.516Z</time></trkpt><trkpt lat="42.0847306" lon="11.860117"><ele>168.0</ele><time>2026-04-19T09:06:42.517Z</time></trkpt><trkpt lat="42.0848079" lon="11.8601385"><ele>166.0</ele><time>2026-04-19T09:06:43.516Z</time></trkpt><trkpt lat="42.0848881" lon="11.8601521"><ele>164.0</ele><time>2026-04-19T09:06:44.517Z</time></trkpt><trkpt lat="42.0849677" lon="11.8601745"><ele>162.0</ele><time>2026-04-19T09:06:45.52Z</time></trkpt><trkpt lat="42.0850574" lon="11.8601921"><ele>160.0</ele><time>2026-04-19T09:06:46.516Z</time></trkpt><trkpt lat="42.0851468" lon="11.8602114"><ele>158.0</ele><time>2026-04-19T09:06:47.519Z</time></trkpt><trkpt lat="42.0852278" lon="11.8602226"><ele>156.0</ele><time>2026-04-19T09:06:48.517Z</time></trkpt><trkpt lat="42.0853044" lon="11.8602382"><ele>156.0</ele><time>2026-04-19T09:06:49.515Z</time></trkpt><trkpt lat="42.0853658" lon="11.8602905"><ele>156.0</ele><time>2026-04-19T09:06:50.516Z</time></trkpt><trkpt lat="42.0854359" lon="11.8603639"><ele>156.0</ele><time>2026-04-19T09:06:51.516Z</time></trkpt><trkpt lat="42.0855083" lon="11.8604497"><ele>156.0</ele><time>2026-04-19T09:06:52.515Z</time></trkpt><trkpt lat="42.085579" lon="11.8605551"><ele>156.0</ele><time>2026-04-19T09:06:53.52Z</time></trkpt><trkpt lat="42.0856543" lon="11.8606648"><ele>156.0</ele><time>2026-04-19T09:06:54.517Z</time></trkpt><trkpt lat="42.0857103" lon="11.8607986"><ele>156.0</ele><time>2026-04-19T09:06:55.518Z</time></trkpt><trkpt lat="42.0857811" lon="11.8609152"><ele>156.0</ele><time>2026-04-19T09:06:56.517Z</time></trkpt><trkpt lat="42.0858586" lon="11.8610329"><ele>156.0</ele><time>2026-04-19T09:06:57.515Z</time></trkpt><trkpt lat="42.0859312" lon="11.8611353"><ele>156.0</ele><time>2026-04-19T09:06:58.516Z</time></trkpt><trkpt lat="42.0860001" lon="11.861256"><ele>155.0</ele><time>2026-04-19T09:06:59.524Z</time></trkpt><trkpt lat="42.086064" lon="11.8613598"><ele>154.0</ele><time>2026-04-19T09:07:00.517Z</time></trkpt><trkpt lat="42.0861401" lon="11.8614673"><ele>153.0</ele><time>2026-04-19T09:07:01.517Z</time></trkpt><trkpt lat="42.0862114" lon="11.8615635"><ele>152.0</ele><time>2026-04-19T09:07:02.517Z</time></trkpt><trkpt lat="42.0862504" lon="11.8616501"><ele>151.0</ele><time>2026-04-19T09:07:03.518Z</time></trkpt><trkpt lat="42.0862788" lon="11.8617417"><ele>149.2</ele><time>2026-04-19T09:07:04.518Z</time></trkpt><trkpt lat="42.0862844" lon="11.8618319"><ele>147.39999999999998</ele><time>2026-04-19T09:07:05.517Z</time></trkpt><trkpt lat="42.0862921" lon="11.8619896"><ele>145.6</ele><time>2026-04-19T09:07:07.519Z</time></trkpt><trkpt lat="42.0862818" lon="11.8621533"><ele>143.79999999999998</ele><time>2026-04-19T09:07:09.517Z</time></trkpt><trkpt lat="42.0862714" lon="11.8623004"><ele>142.0</ele><time>2026-04-19T09:07:11.516Z</time></trkpt><trkpt lat="42.0862553" lon="11.8624253"><ele>142.0</ele><time>2026-04-19T09:07:13.518Z</time></trkpt><trkpt lat="42.086228" lon="11.862543"><ele>142.0</ele><time>2026-04-19T09:07:15.517Z</time></trkpt><trkpt lat="42.0861752" lon="11.8626431"><ele>142.0</ele><time>2026-04-19T09:07:17.518Z</time></trkpt><trkpt lat="42.0861119" lon="11.86271"><ele>142.0</ele><time>2026-04-19T09:07:19.517Z</time></trkpt><trkpt lat="42.0860387" lon="11.8627442"><ele>142.0</ele><time>2026-04-19T09:07:22.516Z</time></trkpt><trkpt lat="42.0859663" lon="11.8627528"><ele>142.0</ele><time>2026-04-19T09:07:25.517Z</time></trkpt><trkpt lat="42.085895" lon="11.8627354"><ele>141.2</ele><time>2026-04-19T09:07:27.526Z</time></trkpt><trkpt lat="42.0858087" lon="11.8627434"><ele>140.39999999999998</ele><time>2026-04-19T09:07:29.517Z</time></trkpt><trkpt lat="42.0856954" lon="11.8627529"><ele>139.60000000000002</ele><time>2026-04-19T09:07:31.517Z</time></trkpt><trkpt lat="42.0855814" lon="11.8627501"><ele>138.8</ele><time>2026-04-19T09:07:33.517Z</time></trkpt><trkpt lat="42.0854867" lon="11.8626732"><ele>138.0</ele><time>2026-04-19T09:07:35.516Z</time></trkpt><trkpt lat="42.0854094" lon="11.8625501"><ele>137.14285714285714</ele><time>2026-04-19T09:07:37.518Z</time></trkpt><trkpt lat="42.0853545" lon="11.8625"><ele>136.2857142857143</ele><time>2026-04-19T09:07:38.517Z</time></trkpt><trkpt lat="42.0852958" lon="11.8624643"><ele>135.42857142857144</ele><time>2026-04-19T09:07:39.516Z</time></trkpt><trkpt lat="42.0852267" lon="11.8624468"><ele>134.57142857142858</ele><time>2026-04-19T09:07:40.516Z</time></trkpt><trkpt lat="42.08516" lon="11.8624218"><ele>133.71428571428572</ele><time>2026-04-19T09:07:41.516Z</time></trkpt><trkpt lat="42.0850867" lon="11.8623987"><ele>132.85714285714286</ele><time>2026-04-19T09:07:42.517Z</time></trkpt><trkpt lat="42.0850087" lon="11.8623753"><ele>132.0</ele><time>2026-04-19T09:07:43.524Z</time></trkpt><trkpt lat="42.0849319" lon="11.862378"><ele>130.2</ele><time>2026-04-19T09:07:44.516Z</time></trkpt><trkpt lat="42.084856" lon="11.8623785"><ele>128.39999999999998</ele><time>2026-04-19T09:07:45.518Z</time></trkpt><trkpt lat="42.0847388" lon="11.8623359"><ele>126.60000000000001</ele><time>2026-04-19T09:07:47.515Z</time></trkpt><trkpt lat="42.0846423" lon="11.8622488"><ele>124.80000000000001</ele><time>2026-04-19T09:07:49.519Z</time></trkpt><trkpt lat="42.084534" lon="11.8621758"><ele>123.0</ele><time>2026-04-19T09:07:51.517Z</time></trkpt><trkpt lat="42.0844453" lon="11.8621361"><ele>123.0</ele><time>2026-04-19T09:07:53.517Z</time></trkpt><trkpt lat="42.0843311" lon="11.86209"><ele>123.00000000000001</ele><time>2026-04-19T09:07:56.516Z</time></trkpt><trkpt lat="42.0842505" lon="11.8620546"><ele>123.00000000000001</ele><time>2026-04-19T09:07:59.516Z</time></trkpt><trkpt lat="42.0841688" lon="11.8620188"><ele>123.0</ele><time>2026-04-19T09:08:02.523Z</time></trkpt><trkpt lat="42.0840751" lon="11.8620243"><ele>123.0</ele><time>2026-04-19T09:08:06.516Z</time></trkpt><trkpt lat="42.0840128" lon="11.8620864"><ele>121.5</ele><time>2026-04-19T09:08:08.518Z</time></trkpt><trkpt lat="42.083934" lon="11.8621659"><ele>120.0</ele><time>2026-04-19T09:08:10.514Z</time></trkpt><trkpt lat="42.0838567" lon="11.8622102"><ele>118.5</ele><time>2026-04-19T09:08:12.515Z</time></trkpt><trkpt lat="42.0837894" lon="11.8622169"><ele>117.0</ele><time>2026-04-19T09:08:14.518Z</time></trkpt><trkpt lat="42.0837219" lon="11.8622091"><ele>115.5</ele><time>2026-04-19T09:08:16.516Z</time></trkpt><trkpt lat="42.0836611" lon="11.8622431"><ele>114.0</ele><time>2026-04-19T09:08:19.514Z</time></trkpt><trkpt lat="42.0836304" lon="11.862339"><ele>114.0</ele><time>2026-04-19T09:08:22.517Z</time></trkpt><trkpt lat="42.0835675" lon="11.8623951"><ele>114.0</ele><time>2026-04-19T09:08:24.516Z</time></trkpt><trkpt lat="42.0834863" lon="11.8624143"><ele>114.0</ele><time>2026-04-19T09:08:26.515Z</time></trkpt><trkpt lat="42.083423" lon="11.8624379"><ele>114.0</ele><time>2026-04-19T09:08:28.517Z</time></trkpt><trkpt lat="42.0833431" lon="11.8624754"><ele>114.0</ele><time>2026-04-19T09:08:31.517Z</time></trkpt><trkpt lat="42.0832805" lon="11.862518"><ele>114.0</ele><time>2026-04-19T09:08:33.516Z</time></trkpt><trkpt lat="42.0832281" lon="11.8625917"><ele>110.5</ele><time>2026-04-19T09:08:35.516Z</time></trkpt><trkpt lat="42.083208" lon="11.8626941"><ele>107.0</ele><time>2026-04-19T09:08:37.517Z</time></trkpt><trkpt lat="42.0832033" lon="11.8628202"><ele>103.5</ele><time>2026-04-19T09:08:39.516Z</time></trkpt><trkpt lat="42.0832056" lon="11.8629466"><ele>100.0</ele><time>2026-04-19T09:08:41.518Z</time></trkpt><trkpt lat="42.0831968" lon="11.8630548"><ele>96.5</ele><time>2026-04-19T09:08:43.517Z</time></trkpt><trkpt lat="42.0832034" lon="11.8631435"><ele>93.0</ele><time>2026-04-19T09:08:45.517Z</time></trkpt><trkpt lat="42.0832055" lon="11.863244"><ele>93.0</ele><time>2026-04-19T09:08:47.519Z</time></trkpt><trkpt lat="42.0832119" lon="11.8633486"><ele>93.0</ele><time>2026-04-19T09:08:49.517Z</time></trkpt><trkpt lat="42.0832257" lon="11.8634443"><ele>93.0</ele><time>2026-04-19T09:08:51.515Z</time></trkpt><trkpt lat="42.0832759" lon="11.8635416"><ele>93.0</ele><time>2026-04-19T09:08:54.517Z</time></trkpt><trkpt lat="42.0833108" lon="11.8636391"><ele>93.0</ele><time>2026-04-19T09:08:57.516Z</time></trkpt><trkpt lat="42.0833239" lon="11.8637384"><ele>93.0</ele><time>2026-04-19T09:08:59.517Z</time></trkpt><trkpt lat="42.0833535" lon="11.8638841"><ele>92.83333333333333</ele><time>2026-04-19T09:09:01.519Z</time></trkpt><trkpt lat="42.0833669" lon="11.864076"><ele>92.66666666666667</ele><time>2026-04-19T09:09:03.518Z</time></trkpt><trkpt lat="42.0833719" lon="11.8641788"><ele>92.5</ele><time>2026-04-19T09:09:04.517Z</time></trkpt><trkpt lat="42.0833782" lon="11.8642658"><ele>92.33333333333334</ele><time>2026-04-19T09:09:05.517Z</time></trkpt><trkpt lat="42.0833958" lon="11.8643811"><ele>92.16666666666667</ele><time>2026-04-19T09:09:07.515Z</time></trkpt><trkpt lat="42.0833545" lon="11.8644487"><ele>92.0</ele><time>2026-04-19T09:09:10.515Z</time></trkpt><trkpt lat="42.0832778" lon="11.8644472"><ele>92.71428571428572</ele><time>2026-04-19T09:09:13.516Z</time></trkpt><trkpt lat="42.0832067" lon="11.8644478"><ele>93.42857142857142</ele><time>2026-04-19T09:09:15.518Z</time></trkpt><trkpt lat="42.0831235" lon="11.8644433"><ele>94.14285714285714</ele><time>2026-04-19T09:09:17.516Z</time></trkpt><trkpt lat="42.0830727" lon="11.8644977"><ele>94.85714285714286</ele><time>2026-04-19T09:09:20.517Z</time></trkpt><trkpt lat="42.0831016" lon="11.8645927"><ele>95.57142857142858</ele><time>2026-04-19T09:09:26.517Z</time></trkpt><trkpt lat="42.0831232" lon="11.8646802"><ele>96.28571428571428</ele><time>2026-04-19T09:09:28.518Z</time></trkpt><trkpt lat="42.0831358" lon="11.8647784"><ele>97.0</ele><time>2026-04-19T09:09:46.514Z</time></trkpt><trkpt lat="42.083122" lon="11.8648749"><ele>97.0</ele><time>2026-04-19T09:09:49.515Z</time></trkpt><trkpt lat="42.0830982" lon="11.8649675"><ele>97.0</ele><time>2026-04-19T09:09:52.516Z</time></trkpt><trkpt lat="42.0831722" lon="11.8650231"><ele>97.0</ele><time>2026-04-19T09:09:55.517Z</time></trkpt><trkpt lat="42.0832455" lon="11.8650386"><ele>97.0</ele><time>2026-04-19T09:09:59.513Z</time></trkpt><trkpt lat="42.0833176" lon="11.8650531"><ele>97.0</ele><time>2026-04-19T09:10:09.514Z</time></trkpt><trkpt lat="42.0833715" lon="11.8651143"><ele>97.0</ele><time>2026-04-19T09:10:15.514Z</time></trkpt><trkpt lat="42.0834242" lon="11.8651755"><ele>97.0</ele><time>2026-04-19T09:10:20.523Z</time></trkpt><trkpt lat="42.083492" lon="11.8651949"><ele>97.50000000000001</ele><time>2026-04-19T09:10:25.512Z</time></trkpt><trkpt lat="42.0835496" lon="11.8652448"><ele>98.0</ele><time>2026-04-19T09:10:35.52Z</time></trkpt><trkpt lat="42.0835915" lon="11.8653258"><ele>98.5</ele><time>2026-04-19T09:10:47.515Z</time></trkpt><trkpt lat="42.0835991" lon="11.8654476"><ele>99.0</ele><time>2026-04-19T09:10:50.515Z</time></trkpt><trkpt lat="42.0835991" lon="11.8655337"><ele>99.50000000000001</ele><time>2026-04-19T09:10:52.513Z</time></trkpt><trkpt lat="42.0835894" lon="11.8656539"><ele>100.0</ele><time>2026-04-19T09:10:55.517Z</time></trkpt><trkpt lat="42.0835299" lon="11.8657536"><ele>100.00000000000001</ele><time>2026-04-19T09:10:58.518Z</time></trkpt><trkpt lat="42.0834667" lon="11.8657594"><ele>100.0</ele><time>2026-04-19T09:11:00.519Z</time></trkpt><trkpt lat="42.0833922" lon="11.8657182"><ele>100.0</ele><time>2026-04-19T09:11:02.517Z</time></trkpt><trkpt lat="42.0833253" lon="11.8656904"><ele>100.0</ele><time>2026-04-19T09:11:04.517Z</time></trkpt><trkpt lat="42.0832876" lon="11.8657985"><ele>100.00000000000001</ele><time>2026-04-19T09:11:06.522Z</time></trkpt><trkpt lat="42.0832496" lon="11.8658784"><ele>100.0</ele><time>2026-04-19T09:11:08.518Z</time></trkpt><trkpt lat="42.0832057" lon="11.865994"><ele>103.66666666666667</ele><time>2026-04-19T09:11:11.514Z</time></trkpt><trkpt lat="42.0831809" lon="11.8660842"><ele>107.33333333333334</ele><time>2026-04-19T09:11:13.518Z</time></trkpt><trkpt lat="42.083127" lon="11.8661846"><ele>111.0</ele><time>2026-04-19T09:11:16.516Z</time></trkpt><trkpt lat="42.083058" lon="11.8662594"><ele>114.66666666666666</ele><time>2026-04-19T09:11:19.517Z</time></trkpt><trkpt lat="42.0829867" lon="11.8662827"><ele>118.33333333333333</ele><time>2026-04-19T09:11:21.518Z</time></trkpt><trkpt lat="42.0829213" lon="11.8663059"><ele>122.0</ele><time>2026-04-19T09:11:23.515Z</time></trkpt><trkpt lat="42.0828536" lon="11.8663177"><ele>121.99999999999999</ele><time>2026-04-19T09:11:27.52Z</time></trkpt><trkpt lat="42.0827964" lon="11.8662808"><ele>122.0</ele><time>2026-04-19T09:11:31.515Z</time></trkpt><trkpt lat="42.0827218" lon="11.866293"><ele>121.99999999999999</ele><time>2026-04-19T09:11:35.517Z</time></trkpt><trkpt lat="42.0826635" lon="11.8663406"><ele>121.99999999999999</ele><time>2026-04-19T09:11:49.516Z</time></trkpt><trkpt lat="42.0825877" lon="11.86637"><ele>122.0</ele><time>2026-04-19T09:12:01.522Z</time></trkpt><trkpt lat="42.0825069" lon="11.8663712"><ele>121.99999999999999</ele><time>2026-04-19T09:12:04.514Z</time></trkpt><trkpt lat="42.0824366" lon="11.8663594"><ele>121.99999999999999</ele><time>2026-04-19T09:12:06.519Z</time></trkpt><trkpt lat="42.0823685" lon="11.8663389"><ele>122.33333333333333</ele><time>2026-04-19T09:12:08.517Z</time></trkpt><trkpt lat="42.0823003" lon="11.8662759"><ele>122.66666666666666</ele><time>2026-04-19T09:12:10.523Z</time></trkpt><trkpt lat="42.0822462" lon="11.8662315"><ele>123.0</ele><time>2026-04-19T09:12:12.513Z</time></trkpt><trkpt lat="42.082197" lon="11.8661709"><ele>123.33333333333334</ele><time>2026-04-19T09:12:16.519Z</time></trkpt><trkpt lat="42.0822013" lon="11.866064"><ele>123.66666666666667</ele><time>2026-04-19T09:12:19.52Z</time></trkpt><trkpt lat="42.0821688" lon="11.8659785"><ele>124.0</ele><time>2026-04-19T09:12:22.518Z</time></trkpt><trkpt lat="42.0821567" lon="11.8658589"><ele>124.0</ele><time>2026-04-19T09:12:25.516Z</time></trkpt><trkpt lat="42.0821525" lon="11.8657615"><ele>124.00000000000001</ele><time>2026-04-19T09:12:27.516Z</time></trkpt><trkpt lat="42.0821299" lon="11.8656758"><ele>124.0</ele><time>2026-04-19T09:12:29.517Z</time></trkpt><trkpt lat="42.0820869" lon="11.8655954"><ele>124.0</ele><time>2026-04-19T09:12:31.513Z</time></trkpt><trkpt lat="42.082037" lon="11.8655378"><ele>124.00000000000001</ele><time>2026-04-19T09:12:33.516Z</time></trkpt><trkpt lat="42.081951" lon="11.8655482"><ele>124.0</ele><time>2026-04-19T09:12:36.519Z</time></trkpt><trkpt lat="42.0819004" lon="11.8656034"><ele>124.0</ele><time>2026-04-19T09:12:38.518Z</time></trkpt><trkpt lat="42.0818098" lon="11.8656013"><ele>124.0</ele><time>2026-04-19T09:12:41.516Z</time></trkpt><trkpt lat="42.0817452" lon="11.8655688"><ele>124.00000000000001</ele><time>2026-04-19T09:12:43.518Z</time></trkpt><trkpt lat="42.0816956" lon="11.8655064"><ele>124.0</ele><time>2026-04-19T09:12:45.518Z</time></trkpt><trkpt lat="42.0816378" lon="11.8654534"><ele>124.0</ele><time>2026-04-19T09:12:47.518Z</time></trkpt><trkpt lat="42.0815601" lon="11.8654205"><ele>124.00000000000001</ele><time>2026-04-19T09:12:50.515Z</time></trkpt><trkpt lat="42.081496" lon="11.8654455"><ele>124.0</ele><time>2026-04-19T09:12:53.52Z</time></trkpt><trkpt lat="42.0814236" lon="11.8654999"><ele>124.0</ele><time>2026-04-19T09:12:56.518Z</time></trkpt><trkpt lat="42.081359" lon="11.8655237"><ele>125.00000000000001</ele><time>2026-04-19T09:12:59.516Z</time></trkpt><trkpt lat="42.0812853" lon="11.8655666"><ele>126.0</ele><time>2026-04-19T09:13:02.516Z</time></trkpt><trkpt lat="42.0812053" lon="11.8656107"><ele>127.0</ele><time>2026-04-19T09:13:05.519Z</time></trkpt><trkpt lat="42.0811411" lon="11.8656189"><ele>128.0</ele><time>2026-04-19T09:13:07.513Z</time></trkpt><trkpt lat="42.0810729" lon="11.8656197"><ele>129.0</ele><time>2026-04-19T09:13:09.523Z</time></trkpt><trkpt lat="42.0810061" lon="11.8656253"><ele>130.0</ele><time>2026-04-19T09:13:11.514Z</time></trkpt><trkpt lat="42.0809235" lon="11.8656526"><ele>130.0</ele><time>2026-04-19T09:13:14.52Z</time></trkpt><trkpt lat="42.0808412" lon="11.8656393"><ele>130.0</ele><time>2026-04-19T09:13:17.523Z</time></trkpt><trkpt lat="42.0807714" lon="11.8656523"><ele>130.0</ele><time>2026-04-19T09:13:20.516Z</time></trkpt><trkpt lat="42.0806914" lon="11.8656744"><ele>130.0</ele><time>2026-04-19T09:13:23.52Z</time></trkpt><trkpt lat="42.0806084" lon="11.8657186"><ele>130.0</ele><time>2026-04-19T09:13:26.517Z</time></trkpt><trkpt lat="42.0805429" lon="11.8657359"><ele>130.0</ele><time>2026-04-19T09:13:28.516Z</time></trkpt><trkpt lat="42.0804761" lon="11.8657458"><ele>130.83333333333334</ele><time>2026-04-19T09:13:30.518Z</time></trkpt><trkpt lat="42.080385" lon="11.8657656"><ele>131.66666666666669</ele><time>2026-04-19T09:13:33.513Z</time></trkpt><trkpt lat="42.0802982" lon="11.8657722"><ele>132.5</ele><time>2026-04-19T09:13:36.52Z</time></trkpt><trkpt lat="42.0802172" lon="11.8657968"><ele>133.33333333333334</ele><time>2026-04-19T09:13:39.516Z</time></trkpt><trkpt lat="42.0801261" lon="11.8658134"><ele>134.16666666666666</ele><time>2026-04-19T09:13:42.514Z</time></trkpt><trkpt lat="42.0800407" lon="11.8658302"><ele>135.0</ele><time>2026-04-19T09:13:45.518Z</time></trkpt><trkpt lat="42.0799611" lon="11.865828"><ele>134.28571428571428</ele><time>2026-04-19T09:13:48.525Z</time></trkpt><trkpt lat="42.0798979" lon="11.8658358"><ele>133.57142857142856</ele><time>2026-04-19T09:13:50.516Z</time></trkpt><trkpt lat="42.0798257" lon="11.8658831"><ele>132.85714285714286</ele><time>2026-04-19T09:13:53.513Z</time></trkpt><trkpt lat="42.0797823" lon="11.8659908"><ele>132.14285714285714</ele><time>2026-04-19T09:13:56.518Z</time></trkpt><trkpt lat="42.0797601" lon="11.8660931"><ele>131.42857142857144</ele><time>2026-04-19T09:13:59.519Z</time></trkpt><trkpt lat="42.0797433" lon="11.8661781"><ele>130.71428571428572</ele><time>2026-04-19T09:14:02.518Z</time></trkpt><trkpt lat="42.0797295" lon="11.8662705"><ele>130.0</ele><time>2026-04-19T09:14:05.518Z</time></trkpt><trkpt lat="42.0797267" lon="11.8663597"><ele>131.57142857142858</ele><time>2026-04-19T09:14:08.517Z</time></trkpt><trkpt lat="42.0797704" lon="11.8664525"><ele>133.14285714285714</ele><time>2026-04-19T09:14:12.526Z</time></trkpt><trkpt lat="42.0798503" lon="11.8664758"><ele>134.71428571428572</ele><time>2026-04-19T09:14:15.513Z</time></trkpt><trkpt lat="42.0799355" lon="11.8664733"><ele>136.28571428571428</ele><time>2026-04-19T09:14:18.516Z</time></trkpt><trkpt lat="42.0800011" lon="11.8664741"><ele>137.85714285714286</ele><time>2026-04-19T09:14:20.518Z</time></trkpt><trkpt lat="42.0800656" lon="11.8664906"><ele>139.42857142857144</ele><time>2026-04-19T09:14:22.517Z</time></trkpt><trkpt lat="42.0801271" lon="11.8665254"><ele>141.0</ele><time>2026-04-19T09:14:24.517Z</time></trkpt><trkpt lat="42.0801709" lon="11.8665871"><ele>141.57142857142858</ele><time>2026-04-19T09:14:26.517Z</time></trkpt><trkpt lat="42.0802059" lon="11.8666579"><ele>142.14285714285714</ele><time>2026-04-19T09:14:28.518Z</time></trkpt><trkpt lat="42.0802269" lon="11.8667404"><ele>142.71428571428572</ele><time>2026-04-19T09:14:30.512Z</time></trkpt><trkpt lat="42.0802332" lon="11.8668581"><ele>143.28571428571428</ele><time>2026-04-19T09:14:33.513Z</time></trkpt><trkpt lat="42.0802202" lon="11.8669651"><ele>143.85714285714286</ele><time>2026-04-19T09:14:36.517Z</time></trkpt><trkpt lat="42.0802081" lon="11.8670651"><ele>144.42857142857144</ele><time>2026-04-19T09:14:39.518Z</time></trkpt><trkpt lat="42.0802013" lon="11.8671565"><ele>145.0</ele><time>2026-04-19T09:14:42.519Z</time></trkpt><trkpt lat="42.0802008" lon="11.8672524"><ele>146.14285714285714</ele><time>2026-04-19T09:14:45.523Z</time></trkpt><trkpt lat="42.0801948" lon="11.8673646"><ele>147.2857142857143</ele><time>2026-04-19T09:14:48.518Z</time></trkpt><trkpt lat="42.0801907" lon="11.8674566"><ele>148.42857142857144</ele><time>2026-04-19T09:14:50.514Z</time></trkpt><trkpt lat="42.0801901" lon="11.8675484"><ele>149.57142857142858</ele><time>2026-04-19T09:14:52.513Z</time></trkpt><trkpt lat="42.0801868" lon="11.8676576"><ele>150.71428571428572</ele><time>2026-04-19T09:14:55.521Z</time></trkpt><trkpt lat="42.0801785" lon="11.867751"><ele>151.85714285714286</ele><time>2026-04-19T09:14:57.518Z</time></trkpt><trkpt lat="42.0801841" lon="11.8678503"><ele>153.0</ele><time>2026-04-19T09:14:59.517Z</time></trkpt><trkpt lat="42.080181" lon="11.8679546"><ele>154.0</ele><time>2026-04-19T09:15:01.518Z</time></trkpt><trkpt lat="42.0801402" lon="11.8680541"><ele>155.0</ele><time>2026-04-19T09:15:03.52Z</time></trkpt><trkpt lat="42.0800953" lon="11.8681546"><ele>156.0</ele><time>2026-04-19T09:15:05.52Z</time></trkpt><trkpt lat="42.0800591" lon="11.8682442"><ele>157.0</ele><time>2026-04-19T09:15:07.52Z</time></trkpt><trkpt lat="42.0800195" lon="11.8683578"><ele>158.0</ele><time>2026-04-19T09:15:10.519Z</time></trkpt><trkpt lat="42.0799805" lon="11.8684367"><ele>159.0</ele><time>2026-04-19T09:15:12.521Z</time></trkpt><trkpt lat="42.079942" lon="11.8685297"><ele>160.5</ele><time>2026-04-19T09:15:14.523Z</time></trkpt><trkpt lat="42.0799143" lon="11.8686194"><ele>162.0</ele><time>2026-04-19T09:15:16.524Z</time></trkpt><trkpt lat="42.0798865" lon="11.8687039"><ele>163.5</ele><time>2026-04-19T09:15:18.516Z</time></trkpt><trkpt lat="42.079857" lon="11.8687859"><ele>165.0</ele><time>2026-04-19T09:15:20.521Z</time></trkpt><trkpt lat="42.079823" lon="11.86889"><ele>166.5</ele><time>2026-04-19T09:15:22.519Z</time></trkpt><trkpt lat="42.0797928" lon="11.868983"><ele>168.0</ele><time>2026-04-19T09:15:24.522Z</time></trkpt><trkpt lat="42.0797622" lon="11.8691131"><ele>168.0</ele><time>2026-04-19T09:15:26.511Z</time></trkpt><trkpt lat="42.079734" lon="11.869201"><ele>168.0</ele><time>2026-04-19T09:15:29.516Z</time></trkpt><trkpt lat="42.0797014" lon="11.869319"><ele>168.0</ele><time>2026-04-19T09:15:32.518Z</time></trkpt><trkpt lat="42.0796621" lon="11.8694099"><ele>168.0</ele><time>2026-04-19T09:15:34.516Z</time></trkpt><trkpt lat="42.0796181" lon="11.8694745"><ele>168.0</ele><time>2026-04-19T09:15:36.516Z</time></trkpt><trkpt lat="42.0795809" lon="11.8695565"><ele>168.0</ele><time>2026-04-19T09:15:39.52Z</time></trkpt><trkpt lat="42.0795489" lon="11.8696336"><ele>168.0</ele><time>2026-04-19T09:15:42.518Z</time></trkpt><trkpt lat="42.0795167" lon="11.8697352"><ele>169.42857142857142</ele><time>2026-04-19T09:15:45.517Z</time></trkpt><trkpt lat="42.0794706" lon="11.8698099"><ele>170.85714285714286</ele><time>2026-04-19T09:15:47.518Z</time></trkpt><trkpt lat="42.079425" lon="11.8698937"><ele>172.28571428571428</ele><time>2026-04-19T09:15:56.515Z</time></trkpt><trkpt lat="42.0793878" lon="11.8699632"><ele>173.71428571428572</ele><time>2026-04-19T09:16:04.518Z</time></trkpt><trkpt lat="42.0793842" lon="11.8700558"><ele>175.14285714285714</ele><time>2026-04-19T09:16:27.523Z</time></trkpt><trkpt lat="42.0794324" lon="11.8701192"><ele>176.57142857142856</ele><time>2026-04-19T09:16:30.519Z</time></trkpt><trkpt lat="42.0794938" lon="11.8701541"><ele>178.0</ele><time>2026-04-19T09:16:33.513Z</time></trkpt><trkpt lat="42.0795664" lon="11.8701827"><ele>180.28571428571428</ele><time>2026-04-19T09:16:36.521Z</time></trkpt><trkpt lat="42.0796229" lon="11.8702548"><ele>182.57142857142856</ele><time>2026-04-19T09:16:40.519Z</time></trkpt><trkpt lat="42.0796798" lon="11.8702942"><ele>184.85714285714283</ele><time>2026-04-19T09:16:44.516Z</time></trkpt><trkpt lat="42.0797443" lon="11.8703245"><ele>187.14285714285714</ele><time>2026-04-19T09:16:47.519Z</time></trkpt><trkpt lat="42.0798145" lon="11.870374"><ele>189.42857142857144</ele><time>2026-04-19T09:16:51.516Z</time></trkpt><trkpt lat="42.0798774" lon="11.8704127"><ele>191.7142857142857</ele><time>2026-04-19T09:16:55.519Z</time></trkpt><trkpt lat="42.0799465" lon="11.8704676"><ele>194.0</ele><time>2026-04-19T09:16:59.517Z</time></trkpt><trkpt lat="42.0800102" lon="11.8705063"><ele>194.0</ele><time>2026-04-19T09:17:03.518Z</time></trkpt><trkpt lat="42.0800913" lon="11.8705071"><ele>194.0</ele><time>2026-04-19T09:17:07.516Z</time></trkpt><trkpt lat="42.0801705" lon="11.870501"><ele>194.0</ele><time>2026-04-19T09:17:11.515Z</time></trkpt><trkpt lat="42.0802472" lon="11.8704847"><ele>194.0</ele><time>2026-04-19T09:17:15.516Z</time></trkpt><trkpt lat="42.0803066" lon="11.8705234"><ele>194.0</ele><time>2026-04-19T09:17:18.52Z</time></trkpt><trkpt lat="42.0803683" lon="11.8705503"><ele>194.0</ele><time>2026-04-19T09:17:21.526Z</time></trkpt><trkpt lat="42.0804298" lon="11.870577"><ele>194.0</ele><time>2026-04-19T09:17:24.525Z</time></trkpt><trkpt lat="42.0804993" lon="11.8706247"><ele>194.0</ele><time>2026-04-19T09:17:28.519Z</time></trkpt><trkpt lat="42.0805502" lon="11.8706886"><ele>194.0</ele><time>2026-04-19T09:17:32.515Z</time></trkpt><trkpt lat="42.080593" lon="11.8707666"><ele>194.0</ele><time>2026-04-19T09:17:36.516Z</time></trkpt><trkpt lat="42.080634" lon="11.8708402"><ele>194.0</ele><time>2026-04-19T09:17:39.518Z</time></trkpt><trkpt lat="42.0806673" lon="11.8709128"><ele>194.0</ele><time>2026-04-19T09:17:42.515Z</time></trkpt><trkpt lat="42.0807075" lon="11.8709809"><ele>194.0</ele><time>2026-04-19T09:17:45.517Z</time></trkpt><trkpt lat="42.0807788" lon="11.8710063"><ele>194.0</ele><time>2026-04-19T09:17:49.518Z</time></trkpt><trkpt lat="42.080827" lon="11.8709164"><ele>194.42857142857142</ele><time>2026-04-19T09:17:53.514Z</time></trkpt><trkpt lat="42.0808592" lon="11.8708411"><ele>194.85714285714286</ele><time>2026-04-19T09:17:56.519Z</time></trkpt><trkpt lat="42.0809169" lon="11.8707619"><ele>195.28571428571428</ele><time>2026-04-19T09:18:00.518Z</time></trkpt><trkpt lat="42.0809849" lon="11.8707203"><ele>195.71428571428572</ele><time>2026-04-19T09:18:04.519Z</time></trkpt><trkpt lat="42.081037" lon="11.8706636"><ele>196.14285714285717</ele><time>2026-04-19T09:18:07.517Z</time></trkpt><trkpt lat="42.0811013" lon="11.8705949"><ele>196.57142857142858</ele><time>2026-04-19T09:18:10.516Z</time></trkpt><trkpt lat="42.0811537" lon="11.8705469"><ele>197.0</ele><time>2026-04-19T09:18:12.513Z</time></trkpt><trkpt lat="42.0812219" lon="11.8705035"><ele>197.0</ele><time>2026-04-19T09:18:15.516Z</time></trkpt><trkpt lat="42.0812918" lon="11.8704636"><ele>197.0</ele><time>2026-04-19T09:18:19.516Z</time></trkpt><trkpt lat="42.0813566" lon="11.8704538"><ele>197.0</ele><time>2026-04-19T09:18:22.519Z</time></trkpt><trkpt lat="42.081425" lon="11.8704443"><ele>197.0</ele><time>2026-04-19T09:18:25.517Z</time></trkpt><trkpt lat="42.0814949" lon="11.8704384"><ele>197.0</ele><time>2026-04-19T09:18:28.519Z</time></trkpt><trkpt lat="42.0815593" lon="11.8704342"><ele>197.0</ele><time>2026-04-19T09:18:31.515Z</time></trkpt><trkpt lat="42.0816278" lon="11.8704462"><ele>197.0</ele><time>2026-04-19T09:18:34.518Z</time></trkpt><trkpt lat="42.0816944" lon="11.8704772"><ele>198.28571428571428</ele><time>2026-04-19T09:18:37.517Z</time></trkpt><trkpt lat="42.0817564" lon="11.8705139"><ele>199.57142857142858</ele><time>2026-04-19T09:18:40.516Z</time></trkpt><trkpt lat="42.0818215" lon="11.8705533"><ele>200.85714285714283</ele><time>2026-04-19T09:18:43.52Z</time></trkpt><trkpt lat="42.0818819" lon="11.8705867"><ele>202.14285714285714</ele><time>2026-04-19T09:18:45.52Z</time></trkpt><trkpt lat="42.0819454" lon="11.8706165"><ele>203.42857142857142</ele><time>2026-04-19T09:18:47.52Z</time></trkpt><trkpt lat="42.0820167" lon="11.8706472"><ele>204.7142857142857</ele><time>2026-04-19T09:18:49.518Z</time></trkpt><trkpt lat="42.0820793" lon="11.8706772"><ele>206.0</ele><time>2026-04-19T09:18:51.514Z</time></trkpt><trkpt lat="42.0821522" lon="11.8707105"><ele>205.99999999999997</ele><time>2026-04-19T09:18:54.517Z</time></trkpt><trkpt lat="42.08223" lon="11.8707385"><ele>206.0</ele><time>2026-04-19T09:18:58.518Z</time></trkpt><trkpt lat="42.0822951" lon="11.8707886"><ele>206.0</ele><time>2026-04-19T09:19:02.517Z</time></trkpt><trkpt lat="42.0823492" lon="11.8708372"><ele>206.0</ele><time>2026-04-19T09:19:05.517Z</time></trkpt><trkpt lat="42.0824241" lon="11.8708826"><ele>206.0</ele><time>2026-04-19T09:19:09.52Z</time></trkpt><trkpt lat="42.0824905" lon="11.8709229"><ele>205.99999999999997</ele><time>2026-04-19T09:19:12.513Z</time></trkpt><trkpt lat="42.0825592" lon="11.8709493"><ele>206.0</ele><time>2026-04-19T09:19:15.516Z</time></trkpt><trkpt lat="42.0826482" lon="11.8709757"><ele>207.7142857142857</ele><time>2026-04-19T09:19:18.523Z</time></trkpt><trkpt lat="42.0827195" lon="11.870991"><ele>209.42857142857142</ele><time>2026-04-19T09:19:21.518Z</time></trkpt><trkpt lat="42.0827865" lon="11.8709944"><ele>211.14285714285714</ele><time>2026-04-19T09:19:24.518Z</time></trkpt><trkpt lat="42.0828517" lon="11.8710037"><ele>212.85714285714283</ele><time>2026-04-19T09:19:27.517Z</time></trkpt><trkpt lat="42.0829253" lon="11.8710371"><ele>214.57142857142858</ele><time>2026-04-19T09:19:30.518Z</time></trkpt><trkpt lat="42.0829868" lon="11.8710964"><ele>216.28571428571428</ele><time>2026-04-19T09:19:33.514Z</time></trkpt><trkpt lat="42.083067" lon="11.8711436"><ele>218.0</ele><time>2026-04-19T09:19:37.518Z</time></trkpt><trkpt lat="42.0831397" lon="11.8711862"><ele>218.0</ele><time>2026-04-19T09:19:40.517Z</time></trkpt><trkpt lat="42.0832034" lon="11.8712396"><ele>218.0</ele><time>2026-04-19T09:19:43.517Z</time></trkpt><trkpt lat="42.0832377" lon="11.8713275"><ele>218.0</ele><time>2026-04-19T09:19:46.517Z</time></trkpt><trkpt lat="42.0832979" lon="11.871381"><ele>218.0</ele><time>2026-04-19T09:19:49.516Z</time></trkpt><trkpt lat="42.0833655" lon="11.8714302"><ele>218.0</ele><time>2026-04-19T09:19:52.519Z</time></trkpt><trkpt lat="42.0834232" lon="11.8714931"><ele>218.0</ele><time>2026-04-19T09:19:55.517Z</time></trkpt><trkpt lat="42.0834805" lon="11.8715562"><ele>218.0</ele><time>2026-04-19T09:19:58.519Z</time></trkpt><trkpt lat="42.0835347" lon="11.8716082"><ele>218.00000000000003</ele><time>2026-04-19T09:20:01.521Z</time></trkpt><trkpt lat="42.0835956" lon="11.8716573"><ele>218.0</ele><time>2026-04-19T09:20:04.517Z</time></trkpt><trkpt lat="42.0836561" lon="11.8717155"><ele>218.0</ele><time>2026-04-19T09:20:07.518Z</time></trkpt><trkpt lat="42.0837205" lon="11.8717819"><ele>218.0</ele><time>2026-04-19T09:20:10.519Z</time></trkpt><trkpt lat="42.0837756" lon="11.8718551"><ele>218.00000000000003</ele><time>2026-04-19T09:20:13.52Z</time></trkpt><trkpt lat="42.083827" lon="11.8719293"><ele>218.0</ele><time>2026-04-19T09:20:16.52Z</time></trkpt><trkpt lat="42.0838901" lon="11.8720066"><ele>220.16666666666669</ele><time>2026-04-19T09:20:19.521Z</time></trkpt><trkpt lat="42.083961" lon="11.8720748"><ele>222.33333333333334</ele><time>2026-04-19T09:20:22.517Z</time></trkpt><trkpt lat="42.0840208" lon="11.8721118"><ele>224.5</ele><time>2026-04-19T09:20:24.518Z</time></trkpt><trkpt lat="42.0840793" lon="11.8721527"><ele>226.66666666666669</ele><time>2026-04-19T09:20:26.518Z</time></trkpt><trkpt lat="42.0841397" lon="11.8721978"><ele>228.83333333333334</ele><time>2026-04-19T09:20:28.518Z</time></trkpt><trkpt lat="42.0841976" lon="11.8722881"><ele>231.0</ele><time>2026-04-19T09:20:31.514Z</time></trkpt><trkpt lat="42.0842576" lon="11.8723729"><ele>231.0</ele><time>2026-04-19T09:20:34.517Z</time></trkpt><trkpt lat="42.0843129" lon="11.8724158"><ele>231.0</ele><time>2026-04-19T09:20:36.517Z</time></trkpt><trkpt lat="42.0843883" lon="11.8724773"><ele>231.0</ele><time>2026-04-19T09:20:39.516Z</time></trkpt><trkpt lat="42.0844521" lon="11.8725584"><ele>231.0</ele><time>2026-04-19T09:20:42.516Z</time></trkpt><trkpt lat="42.084504" lon="11.8726164"><ele>231.0</ele><time>2026-04-19T09:20:45.516Z</time></trkpt><trkpt lat="42.0845539" lon="11.8726786"><ele>231.0</ele><time>2026-04-19T09:20:49.517Z</time></trkpt><trkpt lat="42.0846147" lon="11.8727452"><ele>231.0</ele><time>2026-04-19T09:20:53.514Z</time></trkpt><trkpt lat="42.0846852" lon="11.8727264"><ele>231.0</ele><time>2026-04-19T09:23:25.514Z</time></trkpt><trkpt lat="42.0847452" lon="11.8726738"><ele>231.0</ele><time>2026-04-19T09:23:28.516Z</time></trkpt><trkpt lat="42.0847999" lon="11.8726011"><ele>231.0</ele><time>2026-04-19T09:23:31.514Z</time></trkpt><trkpt lat="42.0848456" lon="11.872537"><ele>231.0</ele><time>2026-04-19T09:23:35.514Z</time></trkpt><trkpt lat="42.084913" lon="11.8724741"><ele>231.0</ele><time>2026-04-19T09:27:14.519Z</time></trkpt><trkpt lat="42.0849762" lon="11.8724196"><ele>231.0</ele><time>2026-04-19T09:27:17.516Z</time></trkpt><trkpt lat="42.08505" lon="11.8723762"><ele>231.5</ele><time>2026-04-19T09:27:20.517Z</time></trkpt><trkpt lat="42.0851205" lon="11.8723377"><ele>232.0</ele><time>2026-04-19T09:27:23.517Z</time></trkpt><trkpt lat="42.0851906" lon="11.8722952"><ele>232.5</ele><time>2026-04-19T09:27:26.515Z</time></trkpt><trkpt lat="42.0852552" lon="11.8722403"><ele>233.0</ele><time>2026-04-19T09:27:29.518Z</time></trkpt><trkpt lat="42.0853312" lon="11.8722128"><ele>233.5</ele><time>2026-04-19T09:27:32.513Z</time></trkpt><trkpt lat="42.0854161" lon="11.8721627"><ele>234.0</ele><time>2026-04-19T09:27:35.518Z</time></trkpt><trkpt lat="42.085482" lon="11.8721211"><ele>234.0</ele><time>2026-04-19T09:27:37.516Z</time></trkpt><trkpt lat="42.0855511" lon="11.8720763"><ele>233.99999999999997</ele><time>2026-04-19T09:27:39.517Z</time></trkpt><trkpt lat="42.0856293" lon="11.8720215"><ele>233.99999999999997</ele><time>2026-04-19T09:27:41.517Z</time></trkpt><trkpt lat="42.0857174" lon="11.8719544"><ele>234.0</ele><time>2026-04-19T09:27:43.519Z</time></trkpt><trkpt lat="42.0858154" lon="11.8718552"><ele>234.0</ele><time>2026-04-19T09:27:45.516Z</time></trkpt><trkpt lat="42.0858722" lon="11.8718083"><ele>234.16666666666666</ele><time>2026-04-19T09:27:46.525Z</time></trkpt><trkpt lat="42.085968" lon="11.8717296"><ele>234.33333333333331</ele><time>2026-04-19T09:27:48.516Z</time></trkpt><trkpt lat="42.0860406" lon="11.8716828"><ele>234.5</ele><time>2026-04-19T09:27:50.514Z</time></trkpt><trkpt lat="42.0861" lon="11.8716283"><ele>234.66666666666666</ele><time>2026-04-19T09:27:52.515Z</time></trkpt><trkpt lat="42.0861581" lon="11.8715598"><ele>234.83333333333331</ele><time>2026-04-19T09:27:55.515Z</time></trkpt><trkpt lat="42.0862335" lon="11.8715115"><ele>235.0</ele><time>2026-04-19T09:27:58.513Z</time></trkpt><trkpt lat="42.086319" lon="11.8714836"><ele>234.99999999999997</ele><time>2026-04-19T09:28:01.518Z</time></trkpt><trkpt lat="42.0864007" lon="11.8714672"><ele>235.0</ele><time>2026-04-19T09:28:04.517Z</time></trkpt><trkpt lat="42.0864928" lon="11.8714934"><ele>235.0</ele><time>2026-04-19T09:28:07.518Z</time></trkpt><trkpt lat="42.0865623" lon="11.8715226"><ele>235.0</ele><time>2026-04-19T09:28:09.516Z</time></trkpt><trkpt lat="42.086645" lon="11.8715603"><ele>234.99999999999997</ele><time>2026-04-19T09:28:11.514Z</time></trkpt><trkpt lat="42.0867396" lon="11.8715833"><ele>235.0</ele><time>2026-04-19T09:28:13.515Z</time></trkpt><trkpt lat="42.0868422" lon="11.8716031"><ele>235.6</ele><time>2026-04-19T09:28:15.517Z</time></trkpt><trkpt lat="42.0869795" lon="11.8715824"><ele>236.2</ele><time>2026-04-19T09:28:17.516Z</time></trkpt><trkpt lat="42.0870526" lon="11.8715719"><ele>236.8</ele><time>2026-04-19T09:28:18.518Z</time></trkpt><trkpt lat="42.087123" lon="11.8715601"><ele>237.4</ele><time>2026-04-19T09:28:19.517Z</time></trkpt><trkpt lat="42.0872393" lon="11.8715563"><ele>238.0</ele><time>2026-04-19T09:28:21.517Z</time></trkpt><trkpt lat="42.0873577" lon="11.8715326"><ele>236.83333333333331</ele><time>2026-04-19T09:28:23.52Z</time></trkpt><trkpt lat="42.0874612" lon="11.8715399"><ele>235.66666666666666</ele><time>2026-04-19T09:28:25.519Z</time></trkpt><trkpt lat="42.0875475" lon="11.8715691"><ele>234.5</ele><time>2026-04-19T09:28:27.517Z</time></trkpt><trkpt lat="42.0876139" lon="11.871586"><ele>233.33333333333331</ele><time>2026-04-19T09:28:29.516Z</time></trkpt><trkpt lat="42.0876792" lon="11.8715801"><ele>232.16666666666666</ele><time>2026-04-19T09:28:31.514Z</time></trkpt><trkpt lat="42.0877584" lon="11.8715177"><ele>231.0</ele><time>2026-04-19T09:28:35.515Z</time></trkpt><trkpt lat="42.0878138" lon="11.8714742"><ele>231.0</ele><time>2026-04-19T09:28:37.515Z</time></trkpt><trkpt lat="42.087906" lon="11.8714667"><ele>231.0</ele><time>2026-04-19T09:28:40.516Z</time></trkpt><trkpt lat="42.0879791" lon="11.8714666"><ele>231.0</ele><time>2026-04-19T09:28:42.516Z</time></trkpt><trkpt lat="42.0880664" lon="11.8714521"><ele>231.0</ele><time>2026-04-19T09:28:44.517Z</time></trkpt><trkpt lat="42.0881378" lon="11.8714621"><ele>231.0</ele><time>2026-04-19T09:28:46.519Z</time></trkpt><trkpt lat="42.088207" lon="11.8714632"><ele>231.0</ele><time>2026-04-19T09:28:48.517Z</time></trkpt><trkpt lat="42.0882776" lon="11.8714779"><ele>230.66666666666666</ele><time>2026-04-19T09:28:50.516Z</time></trkpt><trkpt lat="42.0883499" lon="11.8715169"><ele>230.33333333333331</ele><time>2026-04-19T09:28:52.515Z</time></trkpt><trkpt lat="42.0884339" lon="11.8715541"><ele>230.0</ele><time>2026-04-19T09:28:54.516Z</time></trkpt><trkpt lat="42.0885113" lon="11.8716007"><ele>229.66666666666666</ele><time>2026-04-19T09:28:56.516Z</time></trkpt><trkpt lat="42.0885935" lon="11.8716572"><ele>229.33333333333331</ele><time>2026-04-19T09:28:58.515Z</time></trkpt><trkpt lat="42.0886716" lon="11.8717163"><ele>229.0</ele><time>2026-04-19T09:29:00.516Z</time></trkpt><trkpt lat="42.0887523" lon="11.871777"><ele>227.39999999999998</ele><time>2026-04-19T09:29:02.517Z</time></trkpt><trkpt lat="42.0888373" lon="11.8718438"><ele>225.79999999999998</ele><time>2026-04-19T09:29:04.517Z</time></trkpt><trkpt lat="42.0889345" lon="11.8718935"><ele>224.20000000000002</ele><time>2026-04-19T09:29:06.517Z</time></trkpt><trkpt lat="42.0890247" lon="11.8719171"><ele>222.60000000000002</ele><time>2026-04-19T09:29:08.52Z</time></trkpt><trkpt lat="42.0891187" lon="11.8719344"><ele>221.0</ele><time>2026-04-19T09:29:10.515Z</time></trkpt><trkpt lat="42.0892182" lon="11.8719472"><ele>220.60000000000002</ele><time>2026-04-19T09:29:12.514Z</time></trkpt><trkpt lat="42.0893329" lon="11.8719605"><ele>220.20000000000002</ele><time>2026-04-19T09:29:14.515Z</time></trkpt><trkpt lat="42.0894317" lon="11.8719847"><ele>219.79999999999998</ele><time>2026-04-19T09:29:16.52Z</time></trkpt><trkpt lat="42.0895282" lon="11.8719924"><ele>219.39999999999998</ele><time>2026-04-19T09:29:18.517Z</time></trkpt><trkpt lat="42.0896304" lon="11.8719938"><ele>219.0</ele><time>2026-04-19T09:29:20.516Z</time></trkpt><trkpt lat="42.0897197" lon="11.8720424"><ele>219.0</ele><time>2026-04-19T09:29:22.515Z</time></trkpt><trkpt lat="42.0897907" lon="11.8721059"><ele>219.0</ele><time>2026-04-19T09:29:24.514Z</time></trkpt><trkpt lat="42.0898422" lon="11.8721698"><ele>219.0</ele><time>2026-04-19T09:29:26.515Z</time></trkpt><trkpt lat="42.0898766" lon="11.8722703"><ele>219.0</ele><time>2026-04-19T09:29:29.516Z</time></trkpt><trkpt lat="42.089863" lon="11.8723539"><ele>219.0</ele><time>2026-04-19T09:30:17.514Z</time></trkpt><trkpt lat="42.0897976" lon="11.8724362"><ele>219.0</ele><time>2026-04-19T09:30:20.516Z</time></trkpt><trkpt lat="42.0897258" lon="11.8725439"><ele>216.33333333333334</ele><time>2026-04-19T09:30:22.514Z</time></trkpt><trkpt lat="42.0896422" lon="11.8726506"><ele>213.66666666666669</ele><time>2026-04-19T09:30:24.516Z</time></trkpt><trkpt lat="42.0896028" lon="11.8727241"><ele>211.0</ele><time>2026-04-19T09:30:25.516Z</time></trkpt><trkpt lat="42.0895519" lon="11.8728025"><ele>208.33333333333334</ele><time>2026-04-19T09:30:26.516Z</time></trkpt><trkpt lat="42.0895196" lon="11.8729161"><ele>205.66666666666669</ele><time>2026-04-19T09:30:27.516Z</time></trkpt><trkpt lat="42.0894779" lon="11.872997"><ele>203.0</ele><time>2026-04-19T09:30:28.516Z</time></trkpt><trkpt lat="42.0894427" lon="11.8730822"><ele>203.00000000000003</ele><time>2026-04-19T09:30:29.516Z</time></trkpt><trkpt lat="42.0893949" lon="11.8731691"><ele>203.0</ele><time>2026-04-19T09:30:30.515Z</time></trkpt><trkpt lat="42.0893455" lon="11.8732466"><ele>203.0</ele><time>2026-04-19T09:30:31.515Z</time></trkpt><trkpt lat="42.0893012" lon="11.8733313"><ele>203.0</ele><time>2026-04-19T09:30:32.514Z</time></trkpt><trkpt lat="42.0892531" lon="11.8734145"><ele>203.00000000000003</ele><time>2026-04-19T09:30:33.514Z</time></trkpt><trkpt lat="42.0892084" lon="11.8735015"><ele>203.0</ele><time>2026-04-19T09:30:34.513Z</time></trkpt><trkpt lat="42.0891658" lon="11.8735861"><ele>201.16666666666669</ele><time>2026-04-19T09:30:35.516Z</time></trkpt><trkpt lat="42.0891285" lon="11.8736703"><ele>199.33333333333334</ele><time>2026-04-19T09:30:36.516Z</time></trkpt><trkpt lat="42.0890906" lon="11.8737723"><ele>197.5</ele><time>2026-04-19T09:30:37.517Z</time></trkpt><trkpt lat="42.0890481" lon="11.8738672"><ele>195.66666666666669</ele><time>2026-04-19T09:30:38.591Z</time></trkpt><trkpt lat="42.0890126" lon="11.8739447"><ele>193.83333333333334</ele><time>2026-04-19T09:30:39.515Z</time></trkpt><trkpt lat="42.0889698" lon="11.874015"><ele>192.0</ele><time>2026-04-19T09:30:40.516Z</time></trkpt><trkpt lat="42.0888684" lon="11.8740964"><ele>192.0</ele><time>2026-04-19T09:30:42.517Z</time></trkpt><trkpt lat="42.088745" lon="11.8741734"><ele>192.0</ele><time>2026-04-19T09:30:44.516Z</time></trkpt><trkpt lat="42.0886925" lon="11.8742211"><ele>192.0</ele><time>2026-04-19T09:30:45.516Z</time></trkpt><trkpt lat="42.0886082" lon="11.8743607"><ele>192.0</ele><time>2026-04-19T09:30:47.515Z</time></trkpt><trkpt lat="42.0885686" lon="11.8744531"><ele>192.0</ele><time>2026-04-19T09:30:48.518Z</time></trkpt><trkpt lat="42.0885099" lon="11.8745372"><ele>189.5</ele><time>2026-04-19T09:30:49.52Z</time></trkpt><trkpt lat="42.0884504" lon="11.8746264"><ele>187.0</ele><time>2026-04-19T09:30:50.527Z</time></trkpt><trkpt lat="42.0883946" lon="11.8747019"><ele>184.5</ele><time>2026-04-19T09:30:51.516Z</time></trkpt><trkpt lat="42.0883293" lon="11.87477"><ele>182.0</ele><time>2026-04-19T09:30:52.511Z</time></trkpt><trkpt lat="42.0882622" lon="11.8748436"><ele>179.5</ele><time>2026-04-19T09:30:53.511Z</time></trkpt><trkpt lat="42.088195" lon="11.8749087"><ele>177.0</ele><time>2026-04-19T09:30:54.512Z</time></trkpt><trkpt lat="42.0881267" lon="11.8749587"><ele>177.0</ele><time>2026-04-19T09:30:55.513Z</time></trkpt><trkpt lat="42.0880576" lon="11.8750117"><ele>177.0</ele><time>2026-04-19T09:30:56.514Z</time></trkpt><trkpt lat="42.0879911" lon="11.8750705"><ele>177.0</ele><time>2026-04-19T09:30:57.513Z</time></trkpt><trkpt lat="42.0879234" lon="11.8751276"><ele>177.0</ele><time>2026-04-19T09:30:58.516Z</time></trkpt><trkpt lat="42.0878604" lon="11.8751856"><ele>177.0</ele><time>2026-04-19T09:30:59.518Z</time></trkpt><trkpt lat="42.0877952" lon="11.875233"><ele>177.0</ele><time>2026-04-19T09:31:00.513Z</time></trkpt><trkpt lat="42.0877333" lon="11.8752706"><ele>176.0</ele><time>2026-04-19T09:31:01.514Z</time></trkpt><trkpt lat="42.0876544" lon="11.8753586"><ele>175.0</ele><time>2026-04-19T09:31:03.513Z</time></trkpt><trkpt lat="42.0876135" lon="11.8754395"><ele>174.0</ele><time>2026-04-19T09:31:22.511Z</time></trkpt><trkpt lat="42.0875728" lon="11.8755363"><ele>173.0</ele><time>2026-04-19T09:31:25.516Z</time></trkpt><trkpt lat="42.0875516" lon="11.875618"><ele>172.0</ele><time>2026-04-19T09:31:27.515Z</time></trkpt><trkpt lat="42.0875586" lon="11.8757118"><ele>171.0</ele><time>2026-04-19T09:31:29.513Z</time></trkpt><trkpt lat="42.0875401" lon="11.8758058"><ele>171.0</ele><time>2026-04-19T09:31:31.512Z</time></trkpt><trkpt lat="42.0874869" lon="11.8758952"><ele>171.0</ele><time>2026-04-19T09:31:33.513Z</time></trkpt><trkpt lat="42.0874266" lon="11.8759844"><ele>171.0</ele><time>2026-04-19T09:31:35.516Z</time></trkpt><trkpt lat="42.0873821" lon="11.8760884"><ele>171.0</ele><time>2026-04-19T09:31:37.517Z</time></trkpt><trkpt lat="42.0873324" lon="11.8762033"><ele>171.0</ele><time>2026-04-19T09:31:39.526Z</time></trkpt><trkpt lat="42.0872537" lon="11.8763344"><ele>169.16666666666666</ele><time>2026-04-19T09:31:41.515Z</time></trkpt><trkpt lat="42.0872055" lon="11.8763909"><ele>167.33333333333334</ele><time>2026-04-19T09:31:42.515Z</time></trkpt><trkpt lat="42.0871497" lon="11.8765382"><ele>165.5</ele><time>2026-04-19T09:31:44.521Z</time></trkpt><trkpt lat="42.0871191" lon="11.8766153"><ele>163.66666666666669</ele><time>2026-04-19T09:31:45.517Z</time></trkpt><trkpt lat="42.0870844" lon="11.876765"><ele>161.83333333333334</ele><time>2026-04-19T09:31:47.517Z</time></trkpt><trkpt lat="42.087075" lon="11.8768602"><ele>160.0</ele><time>2026-04-19T09:31:48.514Z</time></trkpt><trkpt lat="42.0870629" lon="11.8769488"><ele>158.5</ele><time>2026-04-19T09:31:49.516Z</time></trkpt><trkpt lat="42.0870267" lon="11.8770446"><ele>157.0</ele><time>2026-04-19T09:31:50.512Z</time></trkpt><trkpt lat="42.0869716" lon="11.8771343"><ele>155.5</ele><time>2026-04-19T09:31:51.513Z</time></trkpt><trkpt lat="42.0869228" lon="11.877215"><ele>154.0</ele><time>2026-04-19T09:31:52.512Z</time></trkpt><trkpt lat="42.0868649" lon="11.8772915"><ele>152.5</ele><time>2026-04-19T09:31:53.514Z</time></trkpt><trkpt lat="42.0868012" lon="11.8773301"><ele>151.0</ele><time>2026-04-19T09:31:54.515Z</time></trkpt><trkpt lat="42.0867442" lon="11.877395"><ele>151.0</ele><time>2026-04-19T09:31:55.512Z</time></trkpt><trkpt lat="42.0866908" lon="11.8774673"><ele>151.0</ele><time>2026-04-19T09:31:56.515Z</time></trkpt><trkpt lat="42.0866434" lon="11.8775342"><ele>151.0</ele><time>2026-04-19T09:31:57.514Z</time></trkpt><trkpt lat="42.0865572" lon="11.8776382"><ele>151.0</ele><time>2026-04-19T09:31:59.516Z</time></trkpt><trkpt lat="42.0865037" lon="11.8776873"><ele>151.0</ele><time>2026-04-19T09:32:00.514Z</time></trkpt><trkpt lat="42.0864523" lon="11.8777445"><ele>151.0</ele><time>2026-04-19T09:32:01.517Z</time></trkpt><trkpt lat="42.0863929" lon="11.8778201"><ele>148.5</ele><time>2026-04-19T09:32:02.514Z</time></trkpt><trkpt lat="42.0863353" lon="11.8778839"><ele>146.0</ele><time>2026-04-19T09:32:03.515Z</time></trkpt><trkpt lat="42.0862849" lon="11.8779624"><ele>143.5</ele><time>2026-04-19T09:32:04.515Z</time></trkpt><trkpt lat="42.0862453" lon="11.8780482"><ele>141.0</ele><time>2026-04-19T09:32:05.515Z</time></trkpt><trkpt lat="42.0862026" lon="11.878114"><ele>138.5</ele><time>2026-04-19T09:32:06.517Z</time></trkpt><trkpt lat="42.0861621" lon="11.8781794"><ele>136.0</ele><time>2026-04-19T09:32:07.515Z</time></trkpt><trkpt lat="42.0860963" lon="11.8783141"><ele>134.2</ele><time>2026-04-19T09:32:09.515Z</time></trkpt><trkpt lat="42.0860354" lon="11.8784481"><ele>132.39999999999998</ele><time>2026-04-19T09:32:11.515Z</time></trkpt><trkpt lat="42.0860089" lon="11.8785255"><ele>130.6</ele><time>2026-04-19T09:32:12.513Z</time></trkpt><trkpt lat="42.0859543" lon="11.8786724"><ele>128.79999999999998</ele><time>2026-04-19T09:32:14.513Z</time></trkpt><trkpt lat="42.0859038" lon="11.8788407"><ele>127.0</ele><time>2026-04-19T09:32:16.515Z</time></trkpt><trkpt lat="42.0858732" lon="11.8789238"><ele>127.00000000000001</ele><time>2026-04-19T09:32:17.517Z</time></trkpt><trkpt lat="42.085855" lon="11.8790158"><ele>127.0</ele><time>2026-04-19T09:32:18.518Z</time></trkpt><trkpt lat="42.0858423" lon="11.8791107"><ele>127.0</ele><time>2026-04-19T09:32:19.517Z</time></trkpt><trkpt lat="42.0858356" lon="11.8791995"><ele>127.0</ele><time>2026-04-19T09:32:20.517Z</time></trkpt><trkpt lat="42.0858384" lon="11.8793501"><ele>127.00000000000001</ele><time>2026-04-19T09:32:22.516Z</time></trkpt><trkpt lat="42.0858584" lon="11.8794796"><ele>127.0</ele><time>2026-04-19T09:32:24.519Z</time></trkpt><trkpt lat="42.0858723" lon="11.8796382"><ele>124.8</ele><time>2026-04-19T09:32:26.517Z</time></trkpt><trkpt lat="42.0858605" lon="11.879799"><ele>122.6</ele><time>2026-04-19T09:32:28.515Z</time></trkpt><trkpt lat="42.0858211" lon="11.8799397"><ele>120.39999999999999</ele><time>2026-04-19T09:32:30.516Z</time></trkpt><trkpt lat="42.0857379" lon="11.8800715"><ele>118.19999999999999</ele><time>2026-04-19T09:32:32.517Z</time></trkpt><trkpt lat="42.085684" lon="11.8801333"><ele>116.0</ele><time>2026-04-19T09:32:33.513Z</time></trkpt><trkpt lat="42.0856333" lon="11.8801904"><ele>113.16666666666666</ele><time>2026-04-19T09:32:34.513Z</time></trkpt><trkpt lat="42.0855772" lon="11.8802564"><ele>110.33333333333333</ele><time>2026-04-19T09:32:35.515Z</time></trkpt><trkpt lat="42.0855216" lon="11.8803231"><ele>107.5</ele><time>2026-04-19T09:32:36.517Z</time></trkpt><trkpt lat="42.0854689" lon="11.8804015"><ele>104.66666666666666</ele><time>2026-04-19T09:32:37.516Z</time></trkpt><trkpt lat="42.0854245" lon="11.8804709"><ele>101.83333333333333</ele><time>2026-04-19T09:32:38.528Z</time></trkpt><trkpt lat="42.0853753" lon="11.8806191"><ele>99.0</ele><time>2026-04-19T09:32:40.517Z</time></trkpt><trkpt lat="42.0853574" lon="11.8807022"><ele>99.0</ele><time>2026-04-19T09:32:41.52Z</time></trkpt><trkpt lat="42.085332" lon="11.8807844"><ele>99.0</ele><time>2026-04-19T09:32:42.512Z</time></trkpt><trkpt lat="42.0853021" lon="11.8808609"><ele>99.0</ele><time>2026-04-19T09:32:43.514Z</time></trkpt><trkpt lat="42.0852689" lon="11.8809458"><ele>99.0</ele><time>2026-04-19T09:32:44.516Z</time></trkpt><trkpt lat="42.0852094" lon="11.8810806"><ele>99.0</ele><time>2026-04-19T09:32:46.514Z</time></trkpt><trkpt lat="42.0851924" lon="11.8811983"><ele>99.0</ele><time>2026-04-19T09:32:48.517Z</time></trkpt><trkpt lat="42.0851943" lon="11.8813368"><ele>97.6</ele><time>2026-04-19T09:32:50.519Z</time></trkpt><trkpt lat="42.085186" lon="11.8815009"><ele>96.2</ele><time>2026-04-19T09:32:52.515Z</time></trkpt><trkpt lat="42.0851735" lon="11.8816499"><ele>94.8</ele><time>2026-04-19T09:32:54.516Z</time></trkpt><trkpt lat="42.0851299" lon="11.8817608"><ele>93.39999999999999</ele><time>2026-04-19T09:32:56.517Z</time></trkpt><trkpt lat="42.0850929" lon="11.88187"><ele>92.0</ele><time>2026-04-19T09:32:58.518Z</time></trkpt><trkpt lat="42.0850534" lon="11.8819955"><ele>91.8</ele><time>2026-04-19T09:33:00.516Z</time></trkpt><trkpt lat="42.085017" lon="11.8821247"><ele>91.6</ele><time>2026-04-19T09:33:02.522Z</time></trkpt><trkpt lat="42.0849773" lon="11.882261"><ele>91.39999999999999</ele><time>2026-04-19T09:33:04.517Z</time></trkpt><trkpt lat="42.0849482" lon="11.8823749"><ele>91.19999999999999</ele><time>2026-04-19T09:33:06.524Z</time></trkpt><trkpt lat="42.0849074" lon="11.8824595"><ele>91.0</ele><time>2026-04-19T09:33:08.517Z</time></trkpt><trkpt lat="42.084877" lon="11.8825593"><ele>90.85714285714286</ele><time>2026-04-19T09:33:10.517Z</time></trkpt><trkpt lat="42.0848558" lon="11.8826581"><ele>90.71428571428572</ele><time>2026-04-19T09:33:12.514Z</time></trkpt><trkpt lat="42.0848442" lon="11.8827462"><ele>90.57142857142857</ele><time>2026-04-19T09:33:16.516Z</time></trkpt><trkpt lat="42.0848372" lon="11.8828322"><ele>90.42857142857143</ele><time>2026-04-19T09:33:26.516Z</time></trkpt><trkpt lat="42.0848375" lon="11.8829252"><ele>90.28571428571429</ele><time>2026-04-19T09:33:39.516Z</time></trkpt><trkpt lat="42.084802" lon="11.8829958"><ele>90.14285714285714</ele><time>2026-04-19T09:33:43.516Z</time></trkpt><trkpt lat="42.0847606" lon="11.8830843"><ele>90.0</ele><time>2026-04-19T09:33:46.514Z</time></trkpt><trkpt lat="42.0847249" lon="11.8831568"><ele>90.0</ele><time>2026-04-19T09:33:49.512Z</time></trkpt><trkpt lat="42.0847196" lon="11.8832473"><ele>90.0</ele><time>2026-04-19T09:33:53.513Z</time></trkpt><trkpt lat="42.0846392" lon="11.8832211"><ele>90.0</ele><time>2026-04-19T09:34:32.511Z</time></trkpt><trkpt lat="42.0845693" lon="11.8832137"><ele>90.0</ele><time>2026-04-19T09:34:36.515Z</time></trkpt><trkpt lat="42.084501" lon="11.8831965"><ele>90.0</ele><time>2026-04-19T09:34:40.52Z</time></trkpt><trkpt lat="42.084444" lon="11.8832518"><ele>90.0</ele><time>2026-04-19T09:34:43.517Z</time></trkpt><trkpt lat="42.0844541" lon="11.8833573"><ele>90.0</ele><time>2026-04-19T09:34:46.514Z</time></trkpt><trkpt lat="42.084488" lon="11.8834622"><ele>90.57142857142857</ele><time>2026-04-19T09:34:49.515Z</time></trkpt><trkpt lat="42.0845436" lon="11.8835521"><ele>91.14285714285715</ele><time>2026-04-19T09:34:52.513Z</time></trkpt><trkpt lat="42.0845938" lon="11.8836315"><ele>91.71428571428572</ele><time>2026-04-19T09:34:55.514Z</time></trkpt><trkpt lat="42.0846356" lon="11.8837048"><ele>92.28571428571428</ele><time>2026-04-19T09:34:58.513Z</time></trkpt><trkpt lat="42.0846797" lon="11.8837811"><ele>92.85714285714286</ele><time>2026-04-19T09:35:02.514Z</time></trkpt><trkpt lat="42.0847408" lon="11.8838366"><ele>93.42857142857143</ele><time>2026-04-19T09:35:35.515Z</time></trkpt><trkpt lat="42.0847937" lon="11.8838883"><ele>94.0</ele><time>2026-04-19T09:35:39.514Z</time></trkpt><trkpt lat="42.0848576" lon="11.8839243"><ele>94.0</ele><time>2026-04-19T09:35:43.515Z</time></trkpt><trkpt lat="42.0849217" lon="11.8839319"><ele>94.0</ele><time>2026-04-19T09:35:49.519Z</time></trkpt><trkpt lat="42.0849699" lon="11.883876"><ele>94.0</ele><time>2026-04-19T09:35:53.511Z</time></trkpt><trkpt lat="42.0850264" lon="11.8838244"><ele>94.0</ele><time>2026-04-19T09:35:56.516Z</time></trkpt><trkpt lat="42.085098" lon="11.8838024"><ele>94.0</ele><time>2026-04-19T09:35:59.515Z</time></trkpt><trkpt lat="42.0851601" lon="11.8837715"><ele>94.0</ele><time>2026-04-19T09:36:02.514Z</time></trkpt><trkpt lat="42.0852242" lon="11.8837594"><ele>94.0</ele><time>2026-04-19T09:36:06.512Z</time></trkpt><trkpt lat="42.0852946" lon="11.883735"><ele>94.0</ele><time>2026-04-19T09:36:11.514Z</time></trkpt><trkpt lat="42.0852378" lon="11.883775"><ele>94.0</ele><time>2026-04-19T09:37:38.513Z</time></trkpt><trkpt lat="42.0851551" lon="11.8837931"><ele>94.0</ele><time>2026-04-19T09:37:40.514Z</time></trkpt><trkpt lat="42.0850762" lon="11.8838102"><ele>94.0</ele><time>2026-04-19T09:37:42.514Z</time></trkpt><trkpt lat="42.0850064" lon="11.8838475"><ele>94.0</ele><time>2026-04-19T09:37:44.514Z</time></trkpt><trkpt lat="42.0849354" lon="11.8839055"><ele>94.0</ele><time>2026-04-19T09:37:46.514Z</time></trkpt><trkpt lat="42.0848734" lon="11.8839415"><ele>94.0</ele><time>2026-04-19T09:37:48.515Z</time></trkpt><trkpt lat="42.0848886" lon="11.8840333"><ele>94.0</ele><time>2026-04-19T09:37:52.513Z</time></trkpt><trkpt lat="42.0849521" lon="11.8840956"><ele>94.0</ele><time>2026-04-19T09:37:55.514Z</time></trkpt><trkpt lat="42.0850142" lon="11.8841621"><ele>94.0</ele><time>2026-04-19T09:37:58.514Z</time></trkpt><trkpt lat="42.0850588" lon="11.8842321"><ele>94.0</ele><time>2026-04-19T09:38:01.515Z</time></trkpt><trkpt lat="42.0851085" lon="11.884305"><ele>94.0</ele><time>2026-04-19T09:38:05.512Z</time></trkpt><trkpt lat="42.0851351" lon="11.884397"><ele>94.0</ele><time>2026-04-19T09:38:09.513Z</time></trkpt><trkpt lat="42.0851854" lon="11.8844483"><ele>96.14285714285714</ele><time>2026-04-19T09:38:14.513Z</time></trkpt><trkpt lat="42.0852301" lon="11.8845097"><ele>98.28571428571428</ele><time>2026-04-19T09:38:17.515Z</time></trkpt><trkpt lat="42.0852691" lon="11.8846042"><ele>100.42857142857143</ele><time>2026-04-19T09:38:20.517Z</time></trkpt><trkpt lat="42.0852802" lon="11.8847358"><ele>102.57142857142857</ele><time>2026-04-19T09:38:23.515Z</time></trkpt><trkpt lat="42.0852675" lon="11.8848218"><ele>104.71428571428572</ele><time>2026-04-19T09:38:25.515Z</time></trkpt><trkpt lat="42.0852488" lon="11.8849175"><ele>106.85714285714286</ele><time>2026-04-19T09:38:28.515Z</time></trkpt><trkpt lat="42.085242" lon="11.885007"><ele>109.0</ele><time>2026-04-19T09:38:31.515Z</time></trkpt><trkpt lat="42.0852483" lon="11.8851023"><ele>110.42857142857143</ele><time>2026-04-19T09:38:34.518Z</time></trkpt><trkpt lat="42.0852237" lon="11.885202"><ele>111.85714285714286</ele><time>2026-04-19T09:38:37.517Z</time></trkpt><trkpt lat="42.0851946" lon="11.8852847"><ele>113.28571428571428</ele><time>2026-04-19T09:38:40.516Z</time></trkpt><trkpt lat="42.0851842" lon="11.8853817"><ele>114.71428571428572</ele><time>2026-04-19T09:38:44.518Z</time></trkpt><trkpt lat="42.0851708" lon="11.8854845"><ele>116.14285714285714</ele><time>2026-04-19T09:38:48.514Z</time></trkpt><trkpt lat="42.0851526" lon="11.885566"><ele>117.57142857142857</ele><time>2026-04-19T09:38:51.516Z</time></trkpt><trkpt lat="42.0851329" lon="11.8856713"><ele>119.0</ele><time>2026-04-19T09:38:57.515Z</time></trkpt><trkpt lat="42.0851152" lon="11.8857579"><ele>118.99999999999999</ele><time>2026-04-19T09:39:00.516Z</time></trkpt><trkpt lat="42.0851106" lon="11.8858698"><ele>119.0</ele><time>2026-04-19T09:39:03.512Z</time></trkpt><trkpt lat="42.0851044" lon="11.8859945"><ele>119.0</ele><time>2026-04-19T09:39:06.515Z</time></trkpt><trkpt lat="42.0851072" lon="11.8861107"><ele>119.0</ele><time>2026-04-19T09:39:09.514Z</time></trkpt><trkpt lat="42.0851272" lon="11.886234"><ele>118.99999999999999</ele><time>2026-04-19T09:39:12.512Z</time></trkpt><trkpt lat="42.0851409" lon="11.886351"><ele>119.0</ele><time>2026-04-19T09:39:15.519Z</time></trkpt><trkpt lat="42.085155" lon="11.8864731"><ele>119.57142857142857</ele><time>2026-04-19T09:39:18.515Z</time></trkpt><trkpt lat="42.0851727" lon="11.8865573"><ele>120.14285714285714</ele><time>2026-04-19T09:39:20.516Z</time></trkpt><trkpt lat="42.0851885" lon="11.8866395"><ele>120.71428571428572</ele><time>2026-04-19T09:39:22.515Z</time></trkpt><trkpt lat="42.0852061" lon="11.8867254"><ele>121.28571428571429</ele><time>2026-04-19T09:39:24.518Z</time></trkpt><trkpt lat="42.0852381" lon="11.8868361"><ele>121.85714285714286</ele><time>2026-04-19T09:39:27.515Z</time></trkpt><trkpt lat="42.0852556" lon="11.8869197"><ele>122.42857142857144</ele><time>2026-04-19T09:39:30.515Z</time></trkpt><trkpt lat="42.0852925" lon="11.8870096"><ele>123.00000000000001</ele><time>2026-04-19T09:39:33.52Z</time></trkpt><trkpt lat="42.0853286" lon="11.8871096"><ele>123.57142857142858</ele><time>2026-04-19T09:39:36.513Z</time></trkpt><trkpt lat="42.0853611" lon="11.8872171"><ele>124.14285714285714</ele><time>2026-04-19T09:39:39.515Z</time></trkpt><trkpt lat="42.0853908" lon="11.8873066"><ele>124.71428571428572</ele><time>2026-04-19T09:39:42.515Z</time></trkpt><trkpt lat="42.0854276" lon="11.8873927"><ele>125.28571428571429</ele><time>2026-04-19T09:39:45.515Z</time></trkpt><trkpt lat="42.0854572" lon="11.8874802"><ele>125.85714285714286</ele><time>2026-04-19T09:39:48.514Z</time></trkpt><trkpt lat="42.0854899" lon="11.8875581"><ele>126.42857142857143</ele><time>2026-04-19T09:39:51.514Z</time></trkpt><trkpt lat="42.085529" lon="11.8876373"><ele>127.0</ele><time>2026-04-19T09:39:54.513Z</time></trkpt><trkpt lat="42.0855696" lon="11.8877158"><ele>127.57142857142858</ele><time>2026-04-19T09:39:57.515Z</time></trkpt><trkpt lat="42.0856045" lon="11.8877964"><ele>128.14285714285714</ele><time>2026-04-19T09:40:00.515Z</time></trkpt><trkpt lat="42.0856438" lon="11.8878745"><ele>128.71428571428572</ele><time>2026-04-19T09:40:03.512Z</time></trkpt><trkpt lat="42.0856953" lon="11.8879381"><ele>129.28571428571428</ele><time>2026-04-19T09:40:06.514Z</time></trkpt><trkpt lat="42.0857469" lon="11.8879947"><ele>129.85714285714286</ele><time>2026-04-19T09:40:09.514Z</time></trkpt><trkpt lat="42.0858058" lon="11.8880605"><ele>130.42857142857144</ele><time>2026-04-19T09:40:12.514Z</time></trkpt><trkpt lat="42.0858653" lon="11.8881264"><ele>131.0</ele><time>2026-04-19T09:40:15.514Z</time></trkpt><trkpt lat="42.0858997" lon="11.8881989"><ele>132.16666666666666</ele><time>2026-04-19T09:40:18.515Z</time></trkpt><trkpt lat="42.0859639" lon="11.8882792"><ele>133.33333333333331</ele><time>2026-04-19T09:40:21.514Z</time></trkpt><trkpt lat="42.086003" lon="11.8883829"><ele>134.5</ele><time>2026-04-19T09:40:24.513Z</time></trkpt><trkpt lat="42.0860367" lon="11.8884887"><ele>135.66666666666666</ele><time>2026-04-19T09:40:27.513Z</time></trkpt><trkpt lat="42.0860712" lon="11.8885933"><ele>136.83333333333334</ele><time>2026-04-19T09:40:30.515Z</time></trkpt><trkpt lat="42.0861161" lon="11.8886997"><ele>138.0</ele><time>2026-04-19T09:40:33.514Z</time></trkpt><trkpt lat="42.0861654" lon="11.8887879"><ele>139.66666666666666</ele><time>2026-04-19T09:40:36.516Z</time></trkpt><trkpt lat="42.0862167" lon="11.8888726"><ele>141.33333333333334</ele><time>2026-04-19T09:40:39.516Z</time></trkpt><trkpt lat="42.086263" lon="11.8889597"><ele>143.0</ele><time>2026-04-19T09:40:42.513Z</time></trkpt><trkpt lat="42.0863111" lon="11.8890447"><ele>144.66666666666669</ele><time>2026-04-19T09:40:45.513Z</time></trkpt><trkpt lat="42.0863684" lon="11.8891181"><ele>146.33333333333334</ele><time>2026-04-19T09:40:48.515Z</time></trkpt><trkpt lat="42.0864486" lon="11.8891744"><ele>148.0</ele><time>2026-04-19T09:40:51.515Z</time></trkpt><trkpt lat="42.0865138" lon="11.8892002"><ele>148.0</ele><time>2026-04-19T09:40:53.513Z</time></trkpt><trkpt lat="42.0865793" lon="11.8892268"><ele>148.0</ele><time>2026-04-19T09:40:55.517Z</time></trkpt><trkpt lat="42.0866506" lon="11.8892586"><ele>148.0</ele><time>2026-04-19T09:40:57.515Z</time></trkpt><trkpt lat="42.0867171" lon="11.8893046"><ele>148.0</ele><time>2026-04-19T09:40:59.514Z</time></trkpt><trkpt lat="42.0867825" lon="11.8893604"><ele>148.0</ele><time>2026-04-19T09:41:01.515Z</time></trkpt><trkpt lat="42.0868387" lon="11.8894201"><ele>148.0</ele><time>2026-04-19T09:41:03.516Z</time></trkpt><trkpt lat="42.0868949" lon="11.8894858"><ele>148.0</ele><time>2026-04-19T09:41:05.515Z</time></trkpt><trkpt lat="42.0869617" lon="11.889544"><ele>150.83333333333334</ele><time>2026-04-19T09:41:07.516Z</time></trkpt><trkpt lat="42.0870259" lon="11.8896089"><ele>153.66666666666669</ele><time>2026-04-19T09:41:09.516Z</time></trkpt><trkpt lat="42.087089" lon="11.8896726"><ele>156.5</ele><time>2026-04-19T09:41:11.517Z</time></trkpt><trkpt lat="42.0871522" lon="11.8897296"><ele>159.33333333333334</ele><time>2026-04-19T09:41:13.514Z</time></trkpt><trkpt lat="42.0872076" lon="11.8897905"><ele>162.16666666666666</ele><time>2026-04-19T09:41:15.515Z</time></trkpt><trkpt lat="42.08725" lon="11.8899017"><ele>165.0</ele><time>2026-04-19T09:41:18.518Z</time></trkpt><trkpt lat="42.0872535" lon="11.8899935"><ele>165.00000000000003</ele><time>2026-04-19T09:41:20.515Z</time></trkpt><trkpt lat="42.0872607" lon="11.8900807"><ele>165.0</ele><time>2026-04-19T09:41:22.515Z</time></trkpt><trkpt lat="42.0872616" lon="11.8901668"><ele>165.0</ele><time>2026-04-19T09:41:24.516Z</time></trkpt><trkpt lat="42.0872401" lon="11.8902895"><ele>165.0</ele><time>2026-04-19T09:41:27.513Z</time></trkpt><trkpt lat="42.0872077" lon="11.8903651"><ele>165.0</ele><time>2026-04-19T09:41:29.518Z</time></trkpt><trkpt lat="42.0871665" lon="11.8904332"><ele>165.00000000000003</ele><time>2026-04-19T09:41:31.516Z</time></trkpt><trkpt lat="42.0871365" lon="11.8905127"><ele>165.0</ele><time>2026-04-19T09:41:33.512Z</time></trkpt><trkpt lat="42.0871154" lon="11.8906053"><ele>166.14285714285717</ele><time>2026-04-19T09:41:35.515Z</time></trkpt><trkpt lat="42.0871062" lon="11.890698"><ele>167.28571428571428</ele><time>2026-04-19T09:41:37.514Z</time></trkpt><trkpt lat="42.0871035" lon="11.8907895"><ele>168.42857142857144</ele><time>2026-04-19T09:41:39.515Z</time></trkpt><trkpt lat="42.0871035" lon="11.8908827"><ele>169.57142857142858</ele><time>2026-04-19T09:41:41.515Z</time></trkpt><trkpt lat="42.0871095" lon="11.890978"><ele>170.71428571428572</ele><time>2026-04-19T09:41:43.514Z</time></trkpt><trkpt lat="42.0871198" lon="11.8910737"><ele>171.85714285714286</ele><time>2026-04-19T09:41:45.517Z</time></trkpt><trkpt lat="42.0871262" lon="11.8911704"><ele>173.0</ele><time>2026-04-19T09:41:47.514Z</time></trkpt><trkpt lat="42.0871307" lon="11.8912693"><ele>173.85714285714286</ele><time>2026-04-19T09:41:49.515Z</time></trkpt><trkpt lat="42.0871346" lon="11.8913628"><ele>174.71428571428572</ele><time>2026-04-19T09:41:51.515Z</time></trkpt><trkpt lat="42.0871388" lon="11.8914512"><ele>175.57142857142858</ele><time>2026-04-19T09:41:53.515Z</time></trkpt><trkpt lat="42.0871447" lon="11.8915716"><ele>176.42857142857144</ele><time>2026-04-19T09:41:56.516Z</time></trkpt><trkpt lat="42.0871545" lon="11.8916555"><ele>177.28571428571428</ele><time>2026-04-19T09:41:58.519Z</time></trkpt><trkpt lat="42.0871728" lon="11.8917398"><ele>178.14285714285717</ele><time>2026-04-19T09:42:00.517Z</time></trkpt><trkpt lat="42.0872108" lon="11.8918536"><ele>179.0</ele><time>2026-04-19T09:42:03.513Z</time></trkpt><trkpt lat="42.0872567" lon="11.8919444"><ele>180.33333333333331</ele><time>2026-04-19T09:42:06.518Z</time></trkpt><trkpt lat="42.087311" lon="11.8920291"><ele>181.66666666666666</ele><time>2026-04-19T09:42:09.516Z</time></trkpt><trkpt lat="42.087374" lon="11.8920892"><ele>183.0</ele><time>2026-04-19T09:42:12.52Z</time></trkpt><trkpt lat="42.0874266" lon="11.8921367"><ele>184.33333333333334</ele><time>2026-04-19T09:42:15.514Z</time></trkpt><trkpt lat="42.0874692" lon="11.8922167"><ele>185.66666666666669</ele><time>2026-04-19T09:42:19.514Z</time></trkpt><trkpt lat="42.0875356" lon="11.8922555"><ele>187.0</ele><time>2026-04-19T09:42:23.519Z</time></trkpt><trkpt lat="42.0876123" lon="11.8922935"><ele>188.0</ele><time>2026-04-19T09:42:26.516Z</time></trkpt><trkpt lat="42.0876576" lon="11.8923824"><ele>189.0</ele><time>2026-04-19T09:42:29.512Z</time></trkpt><trkpt lat="42.0876664" lon="11.892476"><ele>190.0</ele><time>2026-04-19T09:42:32.513Z</time></trkpt><trkpt lat="42.0876581" lon="11.8925752"><ele>191.0</ele><time>2026-04-19T09:42:35.515Z</time></trkpt><trkpt lat="42.0876695" lon="11.89268"><ele>192.0</ele><time>2026-04-19T09:42:38.515Z</time></trkpt><trkpt lat="42.087681" lon="11.892779"><ele>193.0</ele><time>2026-04-19T09:42:41.512Z</time></trkpt><trkpt lat="42.0876963" lon="11.8928644"><ele>194.0</ele><time>2026-04-19T09:42:44.514Z</time></trkpt><trkpt lat="42.0877286" lon="11.8929594"><ele>195.14285714285714</ele><time>2026-04-19T09:42:48.517Z</time></trkpt><trkpt lat="42.0877662" lon="11.8930301"><ele>196.2857142857143</ele><time>2026-04-19T09:42:51.515Z</time></trkpt><trkpt lat="42.087809" lon="11.8931096"><ele>197.42857142857144</ele><time>2026-04-19T09:42:55.514Z</time></trkpt><trkpt lat="42.0878423" lon="11.8932013"><ele>198.57142857142856</ele><time>2026-04-19T09:42:59.516Z</time></trkpt><trkpt lat="42.0878753" lon="11.8932744"><ele>199.71428571428572</ele><time>2026-04-19T09:43:02.514Z</time></trkpt><trkpt lat="42.0879103" lon="11.8933681"><ele>200.85714285714286</ele><time>2026-04-19T09:43:06.516Z</time></trkpt><trkpt lat="42.087939" lon="11.8934474"><ele>202.0</ele><time>2026-04-19T09:43:10.518Z</time></trkpt><trkpt lat="42.0879626" lon="11.8935434"><ele>202.99999999999997</ele><time>2026-04-19T09:43:15.515Z</time></trkpt><trkpt lat="42.0879887" lon="11.8936369"><ele>204.0</ele><time>2026-04-19T09:43:19.514Z</time></trkpt><trkpt lat="42.088029" lon="11.8937368"><ele>205.0</ele><time>2026-04-19T09:43:22.515Z</time></trkpt><trkpt lat="42.0880572" lon="11.8938384"><ele>206.0</ele><time>2026-04-19T09:43:25.515Z</time></trkpt><trkpt lat="42.088076" lon="11.893943"><ele>206.99999999999997</ele><time>2026-04-19T09:43:28.516Z</time></trkpt><trkpt lat="42.0880942" lon="11.8940476"><ele>208.0</ele><time>2026-04-19T09:43:31.517Z</time></trkpt><trkpt lat="42.0881151" lon="11.8941537"><ele>208.99999999999997</ele><time>2026-04-19T09:43:34.513Z</time></trkpt><trkpt lat="42.0881473" lon="11.8942666"><ele>210.0</ele><time>2026-04-19T09:43:37.516Z</time></trkpt><trkpt lat="42.0881753" lon="11.8943804"><ele>211.0</ele><time>2026-04-19T09:43:40.515Z</time></trkpt><trkpt lat="42.0881939" lon="11.8944957"><ele>212.0</ele><time>2026-04-19T09:43:43.514Z</time></trkpt><trkpt lat="42.0882154" lon="11.8946062"><ele>212.99999999999997</ele><time>2026-04-19T09:43:46.516Z</time></trkpt><trkpt lat="42.0882352" lon="11.8947259"><ele>214.0</ele><time>2026-04-19T09:43:49.516Z</time></trkpt><trkpt lat="42.0882398" lon="11.8948441"><ele>213.99999999999997</ele><time>2026-04-19T09:43:52.515Z</time></trkpt><trkpt lat="42.0882393" lon="11.8949631"><ele>214.0</ele><time>2026-04-19T09:43:55.515Z</time></trkpt><trkpt lat="42.0882214" lon="11.8950466"><ele>214.0</ele><time>2026-04-19T09:43:57.516Z</time></trkpt><trkpt lat="42.088165" lon="11.8951557"><ele>214.0</ele><time>2026-04-19T09:44:00.516Z</time></trkpt><trkpt lat="42.0881219" lon="11.8952345"><ele>213.99999999999997</ele><time>2026-04-19T09:44:02.515Z</time></trkpt><trkpt lat="42.0880649" lon="11.8953459"><ele>214.0</ele><time>2026-04-19T09:44:05.53Z</time></trkpt><trkpt lat="42.0880222" lon="11.8954187"><ele>215.33333333333331</ele><time>2026-04-19T09:44:07.516Z</time></trkpt><trkpt lat="42.0879958" lon="11.8954991"><ele>216.66666666666666</ele><time>2026-04-19T09:44:09.516Z</time></trkpt><trkpt lat="42.0879822" lon="11.8956062"><ele>218.0</ele><time>2026-04-19T09:44:11.516Z</time></trkpt><trkpt lat="42.0879613" lon="11.8957003"><ele>219.33333333333331</ele><time>2026-04-19T09:44:13.514Z</time></trkpt><trkpt lat="42.0879356" lon="11.8958191"><ele>220.66666666666666</ele><time>2026-04-19T09:44:16.515Z</time></trkpt><trkpt lat="42.0879174" lon="11.8959346"><ele>222.0</ele><time>2026-04-19T09:44:19.517Z</time></trkpt><trkpt lat="42.0878964" lon="11.8960467"><ele>224.16666666666666</ele><time>2026-04-19T09:44:22.516Z</time></trkpt><trkpt lat="42.0878716" lon="11.8961589"><ele>226.33333333333331</ele><time>2026-04-19T09:44:25.523Z</time></trkpt><trkpt lat="42.0878253" lon="11.8962681"><ele>228.5</ele><time>2026-04-19T09:44:28.517Z</time></trkpt><trkpt lat="42.0877601" lon="11.8963432"><ele>230.66666666666666</ele><time>2026-04-19T09:44:31.517Z</time></trkpt><trkpt lat="42.0876937" lon="11.8964233"><ele>232.83333333333331</ele><time>2026-04-19T09:44:34.513Z</time></trkpt><trkpt lat="42.0876357" lon="11.8964935"><ele>235.0</ele><time>2026-04-19T09:44:37.515Z</time></trkpt><trkpt lat="42.0875685" lon="11.8965706"><ele>234.99999999999997</ele><time>2026-04-19T09:44:40.515Z</time></trkpt><trkpt lat="42.0875042" lon="11.8966438"><ele>235.0</ele><time>2026-04-19T09:44:43.514Z</time></trkpt><trkpt lat="42.0874383" lon="11.8967192"><ele>235.0</ele><time>2026-04-19T09:44:46.515Z</time></trkpt><trkpt lat="42.0873942" lon="11.8967805"><ele>235.0</ele><time>2026-04-19T09:44:48.515Z</time></trkpt><trkpt lat="42.0873295" lon="11.8968643"><ele>234.99999999999997</ele><time>2026-04-19T09:44:51.516Z</time></trkpt><trkpt lat="42.0873116" lon="11.8969742"><ele>235.0</ele><time>2026-04-19T09:44:54.513Z</time></trkpt><trkpt lat="42.0873486" lon="11.8970675"><ele>235.49999999999997</ele><time>2026-04-19T09:44:57.515Z</time></trkpt><trkpt lat="42.0874289" lon="11.8971115"><ele>236.0</ele><time>2026-04-19T09:45:00.514Z</time></trkpt><trkpt lat="42.0875038" lon="11.8971293"><ele>236.5</ele><time>2026-04-19T09:45:03.514Z</time></trkpt><trkpt lat="42.0875721" lon="11.8971572"><ele>237.0</ele><time>2026-04-19T09:45:06.517Z</time></trkpt><trkpt lat="42.0876436" lon="11.8971692"><ele>237.49999999999997</ele><time>2026-04-19T09:45:09.516Z</time></trkpt><trkpt lat="42.0877328" lon="11.8971518"><ele>238.0</ele><time>2026-04-19T09:45:12.513Z</time></trkpt><trkpt lat="42.0878025" lon="11.8971484"><ele>237.99999999999997</ele><time>2026-04-19T09:45:15.513Z</time></trkpt><trkpt lat="42.0878718" lon="11.8971514"><ele>238.0</ele><time>2026-04-19T09:45:18.515Z</time></trkpt><trkpt lat="42.0879412" lon="11.8971591"><ele>238.0</ele><time>2026-04-19T09:45:21.515Z</time></trkpt><trkpt lat="42.0880212" lon="11.8971284"><ele>238.0</ele><time>2026-04-19T09:45:24.513Z</time></trkpt><trkpt lat="42.0880958" lon="11.8970896"><ele>237.99999999999997</ele><time>2026-04-19T09:45:27.515Z</time></trkpt><trkpt lat="42.0881855" lon="11.8970861"><ele>238.0</ele><time>2026-04-19T09:45:30.516Z</time></trkpt><trkpt lat="42.0882691" lon="11.8970846"><ele>240.66666666666666</ele><time>2026-04-19T09:45:33.512Z</time></trkpt><trkpt lat="42.0883472" lon="11.8970921"><ele>243.33333333333331</ele><time>2026-04-19T09:45:36.515Z</time></trkpt><trkpt lat="42.0884297" lon="11.8970929"><ele>246.0</ele><time>2026-04-19T09:45:39.515Z</time></trkpt><trkpt lat="42.0885033" lon="11.897111"><ele>248.66666666666669</ele><time>2026-04-19T09:45:42.516Z</time></trkpt><trkpt lat="42.0885705" lon="11.8971628"><ele>251.33333333333334</ele><time>2026-04-19T09:45:45.516Z</time></trkpt><trkpt lat="42.0886322" lon="11.8972204"><ele>254.0</ele><time>2026-04-19T09:45:49.518Z</time></trkpt><trkpt lat="42.0886795" lon="11.8973036"><ele>254.00000000000003</ele><time>2026-04-19T09:45:53.512Z</time></trkpt><trkpt lat="42.0887177" lon="11.8973868"><ele>254.0</ele><time>2026-04-19T09:45:56.515Z</time></trkpt><trkpt lat="42.0887683" lon="11.8974746"><ele>254.0</ele><time>2026-04-19T09:45:59.515Z</time></trkpt><trkpt lat="42.0888161" lon="11.8975643"><ele>254.0</ele><time>2026-04-19T09:46:02.516Z</time></trkpt><trkpt lat="42.0888811" lon="11.8976455"><ele>254.00000000000003</ele><time>2026-04-19T09:46:05.514Z</time></trkpt><trkpt lat="42.08894" lon="11.8977341"><ele>254.0</ele><time>2026-04-19T09:46:08.517Z</time></trkpt><trkpt lat="42.0890036" lon="11.8977959"><ele>254.33333333333334</ele><time>2026-04-19T09:46:11.516Z</time></trkpt><trkpt lat="42.0890582" lon="11.8978848"><ele>254.66666666666669</ele><time>2026-04-19T09:46:14.515Z</time></trkpt><trkpt lat="42.0891279" lon="11.8979655"><ele>255.0</ele><time>2026-04-19T09:46:17.517Z</time></trkpt><trkpt lat="42.0891852" lon="11.8980516"><ele>255.33333333333331</ele><time>2026-04-19T09:46:20.519Z</time></trkpt><trkpt lat="42.0892198" lon="11.8981479"><ele>255.66666666666666</ele><time>2026-04-19T09:46:23.517Z</time></trkpt><trkpt lat="42.0892506" lon="11.8982221"><ele>256.0</ele><time>2026-04-19T09:46:25.516Z</time></trkpt><trkpt lat="42.0892861" lon="11.8982969"><ele>258.5</ele><time>2026-04-19T09:46:27.514Z</time></trkpt><trkpt lat="42.0893163" lon="11.8983833"><ele>261.0</ele><time>2026-04-19T09:46:29.514Z</time></trkpt><trkpt lat="42.089365" lon="11.8984775"><ele>263.5</ele><time>2026-04-19T09:46:31.515Z</time></trkpt><trkpt lat="42.0893827" lon="11.8985745"><ele>266.0</ele><time>2026-04-19T09:46:33.513Z</time></trkpt><trkpt lat="42.0893942" lon="11.8986657"><ele>268.5</ele><time>2026-04-19T09:46:35.515Z</time></trkpt><trkpt lat="42.0894055" lon="11.8987654"><ele>271.0</ele><time>2026-04-19T09:46:37.517Z</time></trkpt><trkpt lat="42.0894266" lon="11.8988709"><ele>272.3333333333333</ele><time>2026-04-19T09:46:39.516Z</time></trkpt><trkpt lat="42.0894457" lon="11.8989709"><ele>273.66666666666663</ele><time>2026-04-19T09:46:41.52Z</time></trkpt><trkpt lat="42.0894635" lon="11.8990623"><ele>275.0</ele><time>2026-04-19T09:46:43.516Z</time></trkpt><trkpt lat="42.0894279" lon="11.8991791"><ele>276.3333333333333</ele><time>2026-04-19T09:46:46.529Z</time></trkpt><trkpt lat="42.0893779" lon="11.8992497"><ele>277.6666666666667</ele><time>2026-04-19T09:46:48.512Z</time></trkpt><trkpt lat="42.0893158" lon="11.8993214"><ele>279.0</ele><time>2026-04-19T09:46:50.52Z</time></trkpt><trkpt lat="42.0892333" lon="11.8993599"><ele>279.3333333333333</ele><time>2026-04-19T09:46:52.514Z</time></trkpt><trkpt lat="42.0891629" lon="11.8994326"><ele>279.6666666666667</ele><time>2026-04-19T09:46:54.515Z</time></trkpt><trkpt lat="42.0890914" lon="11.8995121"><ele>280.0</ele><time>2026-04-19T09:46:56.513Z</time></trkpt><trkpt lat="42.0890286" lon="11.8995855"><ele>280.33333333333337</ele><time>2026-04-19T09:46:58.513Z</time></trkpt><trkpt lat="42.0889814" lon="11.8996464"><ele>280.6666666666667</ele><time>2026-04-19T09:47:00.516Z</time></trkpt><trkpt lat="42.0889248" lon="11.8997455"><ele>281.0</ele><time>2026-04-19T09:47:03.52Z</time></trkpt><trkpt lat="42.0888805" lon="11.8998208"><ele>281.00000000000006</ele><time>2026-04-19T09:47:05.527Z</time></trkpt><trkpt lat="42.0888392" lon="11.8999001"><ele>281.0</ele><time>2026-04-19T09:47:07.516Z</time></trkpt><trkpt lat="42.0888131" lon="11.8999799"><ele>281.0</ele><time>2026-04-19T09:47:09.516Z</time></trkpt><trkpt lat="42.0887775" lon="11.900057"><ele>281.0</ele><time>2026-04-19T09:47:11.513Z</time></trkpt><trkpt lat="42.0887387" lon="11.9001252"><ele>281.0</ele><time>2026-04-19T09:47:13.522Z</time></trkpt><trkpt lat="42.0887041" lon="11.900209"><ele>281.00000000000006</ele><time>2026-04-19T09:47:16.526Z</time></trkpt><trkpt lat="42.0886843" lon="11.9003034"><ele>281.0</ele><time>2026-04-19T09:47:19.512Z</time></trkpt><trkpt lat="42.0886588" lon="11.9003817"><ele>282.8571428571429</ele><time>2026-04-19T09:47:21.523Z</time></trkpt><trkpt lat="42.0886281" lon="11.9004709"><ele>284.7142857142857</ele><time>2026-04-19T09:47:24.512Z</time></trkpt><trkpt lat="42.0885939" lon="11.9005826"><ele>286.57142857142856</ele><time>2026-04-19T09:47:27.515Z</time></trkpt><trkpt lat="42.0885634" lon="11.9006618"><ele>288.42857142857144</ele><time>2026-04-19T09:47:29.515Z</time></trkpt><trkpt lat="42.088536" lon="11.9007493"><ele>290.2857142857143</ele><time>2026-04-19T09:47:31.516Z</time></trkpt><trkpt lat="42.0885115" lon="11.9008356"><ele>292.14285714285717</ele><time>2026-04-19T09:47:33.513Z</time></trkpt><trkpt lat="42.0884872" lon="11.9009377"><ele>294.0</ele><time>2026-04-19T09:47:35.521Z</time></trkpt><trkpt lat="42.0884734" lon="11.9010357"><ele>295.0</ele><time>2026-04-19T09:47:37.516Z</time></trkpt><trkpt lat="42.0884593" lon="11.901127"><ele>296.0</ele><time>2026-04-19T09:47:39.516Z</time></trkpt><trkpt lat="42.0884319" lon="11.9012396"><ele>297.0</ele><time>2026-04-19T09:47:41.516Z</time></trkpt><trkpt lat="42.0883964" lon="11.9013485"><ele>298.0</ele><time>2026-04-19T09:47:43.516Z</time></trkpt><trkpt lat="42.0883523" lon="11.901449"><ele>299.0</ele><time>2026-04-19T09:47:45.516Z</time></trkpt><trkpt lat="42.0882879" lon="11.9015376"><ele>300.0</ele><time>2026-04-19T09:47:47.512Z</time></trkpt><trkpt lat="42.0882274" lon="11.9016378"><ele>300.0</ele><time>2026-04-19T09:47:49.515Z</time></trkpt><trkpt lat="42.0881549" lon="11.9017032"><ele>300.0</ele><time>2026-04-19T09:47:51.512Z</time></trkpt><trkpt lat="42.0880925" lon="11.9017722"><ele>300.0</ele><time>2026-04-19T09:47:53.512Z</time></trkpt><trkpt lat="42.088035" lon="11.9018635"><ele>300.0</ele><time>2026-04-19T09:47:55.513Z</time></trkpt><trkpt lat="42.0880104" lon="11.9019758"><ele>300.0</ele><time>2026-04-19T09:47:57.516Z</time></trkpt><trkpt lat="42.0880196" lon="11.902082"><ele>300.0</ele><time>2026-04-19T09:47:59.516Z</time></trkpt><trkpt lat="42.0880225" lon="11.9021796"><ele>300.6666666666667</ele><time>2026-04-19T09:48:01.528Z</time></trkpt><trkpt lat="42.0880337" lon="11.9022907"><ele>301.3333333333333</ele><time>2026-04-19T09:48:04.518Z</time></trkpt><trkpt lat="42.0880892" lon="11.9023593"><ele>302.0</ele><time>2026-04-19T09:48:07.515Z</time></trkpt><trkpt lat="42.0881522" lon="11.9024344"><ele>302.66666666666663</ele><time>2026-04-19T09:48:11.514Z</time></trkpt><trkpt lat="42.0882041" lon="11.9025269"><ele>303.3333333333333</ele><time>2026-04-19T09:48:14.512Z</time></trkpt><trkpt lat="42.0882718" lon="11.9025914"><ele>304.0</ele><time>2026-04-19T09:48:17.516Z</time></trkpt><trkpt lat="42.088327" lon="11.9026515"><ele>304.1428571428571</ele><time>2026-04-19T09:48:19.516Z</time></trkpt><trkpt lat="42.0883828" lon="11.9027019"><ele>304.28571428571433</ele><time>2026-04-19T09:48:21.515Z</time></trkpt><trkpt lat="42.0884432" lon="11.9027491"><ele>304.42857142857144</ele><time>2026-04-19T09:48:23.514Z</time></trkpt><trkpt lat="42.0884979" lon="11.9028021"><ele>304.57142857142856</ele><time>2026-04-19T09:48:25.517Z</time></trkpt><trkpt lat="42.0885533" lon="11.9028472"><ele>304.71428571428567</ele><time>2026-04-19T09:48:27.515Z</time></trkpt><trkpt lat="42.0886055" lon="11.9028975"><ele>304.8571428571429</ele><time>2026-04-19T09:48:29.519Z</time></trkpt><trkpt lat="42.088655" lon="11.9029509"><ele>305.0</ele><time>2026-04-19T09:48:31.517Z</time></trkpt><trkpt lat="42.088727" lon="11.9030053"><ele>305.0</ele><time>2026-04-19T09:48:34.513Z</time></trkpt><trkpt lat="42.0888061" lon="11.9030673"><ele>305.0</ele><time>2026-04-19T09:48:37.514Z</time></trkpt><trkpt lat="42.0888836" lon="11.903129"><ele>305.0</ele><time>2026-04-19T09:48:40.515Z</time></trkpt><trkpt lat="42.088954" lon="11.9031544"><ele>305.0</ele><time>2026-04-19T09:48:43.515Z</time></trkpt><trkpt lat="42.0890382" lon="11.9031875"><ele>305.0</ele><time>2026-04-19T09:48:46.517Z</time></trkpt><trkpt lat="42.0891013" lon="11.9032096"><ele>305.0</ele><time>2026-04-19T09:48:48.515Z</time></trkpt><trkpt lat="42.0891699" lon="11.9032315"><ele>306.5</ele><time>2026-04-19T09:48:50.516Z</time></trkpt><trkpt lat="42.0892434" lon="11.9032516"><ele>308.0</ele><time>2026-04-19T09:48:52.512Z</time></trkpt><trkpt lat="42.0893224" lon="11.903267"><ele>309.5</ele><time>2026-04-19T09:48:54.512Z</time></trkpt><trkpt lat="42.0894007" lon="11.9032657"><ele>311.0</ele><time>2026-04-19T09:48:56.514Z</time></trkpt><trkpt lat="42.0894858" lon="11.9032428"><ele>312.5</ele><time>2026-04-19T09:48:58.514Z</time></trkpt><trkpt lat="42.0895766" lon="11.9031989"><ele>314.0</ele><time>2026-04-19T09:49:00.514Z</time></trkpt><trkpt lat="42.0896714" lon="11.9031465"><ele>314.0</ele><time>2026-04-19T09:49:02.513Z</time></trkpt><trkpt lat="42.0897794" lon="11.9030908"><ele>314.0</ele><time>2026-04-19T09:49:04.514Z</time></trkpt><trkpt lat="42.0898908" lon="11.9030558"><ele>314.0</ele><time>2026-04-19T09:49:06.514Z</time></trkpt><trkpt lat="42.0900113" lon="11.9030294"><ele>314.0</ele><time>2026-04-19T09:49:08.517Z</time></trkpt><trkpt lat="42.0901221" lon="11.9030661"><ele>313.59999999999997</ele><time>2026-04-19T09:49:10.516Z</time></trkpt><trkpt lat="42.0902276" lon="11.9031216"><ele>313.2</ele><time>2026-04-19T09:49:12.512Z</time></trkpt><trkpt lat="42.090333" lon="11.9031688"><ele>312.79999999999995</ele><time>2026-04-19T09:49:14.511Z</time></trkpt><trkpt lat="42.0904435" lon="11.9032057"><ele>312.4</ele><time>2026-04-19T09:49:16.515Z</time></trkpt><trkpt lat="42.0905524" lon="11.903233"><ele>312.0</ele><time>2026-04-19T09:49:18.516Z</time></trkpt><trkpt lat="42.0906696" lon="11.9032715"><ele>312.0</ele><time>2026-04-19T09:49:20.517Z</time></trkpt><trkpt lat="42.0907368" lon="11.9032902"><ele>312.0</ele><time>2026-04-19T09:49:21.516Z</time></trkpt><trkpt lat="42.0908568" lon="11.9033355"><ele>312.0</ele><time>2026-04-19T09:49:23.517Z</time></trkpt><trkpt lat="42.0909733" lon="11.9033724"><ele>312.0</ele><time>2026-04-19T09:49:25.516Z</time></trkpt><trkpt lat="42.0910844" lon="11.9034103"><ele>312.0</ele><time>2026-04-19T09:49:27.517Z</time></trkpt><trkpt lat="42.0911956" lon="11.9034575"><ele>310.4</ele><time>2026-04-19T09:49:29.517Z</time></trkpt><trkpt lat="42.0912899" lon="11.9035428"><ele>308.79999999999995</ele><time>2026-04-19T09:49:31.515Z</time></trkpt><trkpt lat="42.0913604" lon="11.9036372"><ele>307.2</ele><time>2026-04-19T09:49:33.513Z</time></trkpt><trkpt lat="42.091424" lon="11.9037332"><ele>305.59999999999997</ele><time>2026-04-19T09:49:35.511Z</time></trkpt><trkpt lat="42.0914809" lon="11.9038394"><ele>304.0</ele><time>2026-04-19T09:49:37.516Z</time></trkpt><trkpt lat="42.0915467" lon="11.9039365"><ele>303.75</ele><time>2026-04-19T09:49:39.513Z</time></trkpt><trkpt lat="42.0916251" lon="11.9040348"><ele>303.5</ele><time>2026-04-19T09:49:41.514Z</time></trkpt><trkpt lat="42.0917227" lon="11.9041452"><ele>303.25</ele><time>2026-04-19T09:49:43.515Z</time></trkpt><trkpt lat="42.0918072" lon="11.9042625"><ele>303.0</ele><time>2026-04-19T09:49:45.514Z</time></trkpt><trkpt lat="42.0918921" lon="11.904344"><ele>303.0</ele><time>2026-04-19T09:49:47.514Z</time></trkpt><trkpt lat="42.0919513" lon="11.9044499"><ele>303.0</ele><time>2026-04-19T09:49:49.514Z</time></trkpt><trkpt lat="42.0920216" lon="11.9045388"><ele>303.0</ele><time>2026-04-19T09:49:51.522Z</time></trkpt><trkpt lat="42.0920835" lon="11.9046337"><ele>303.0</ele><time>2026-04-19T09:49:53.512Z</time></trkpt><trkpt lat="42.0921477" lon="11.9047309"><ele>303.0</ele><time>2026-04-19T09:49:55.512Z</time></trkpt><trkpt lat="42.0922119" lon="11.904814"><ele>303.0</ele><time>2026-04-19T09:49:57.514Z</time></trkpt><trkpt lat="42.0922754" lon="11.9048883"><ele>303.0</ele><time>2026-04-19T09:49:59.514Z</time></trkpt><trkpt lat="42.092335" lon="11.9049744"><ele>303.0</ele><time>2026-04-19T09:50:01.513Z</time></trkpt><trkpt lat="42.0924021" lon="11.9050682"><ele>303.0</ele><time>2026-04-19T09:50:03.515Z</time></trkpt><trkpt lat="42.0924733" lon="11.9051513"><ele>303.0</ele><time>2026-04-19T09:50:05.516Z</time></trkpt><trkpt lat="42.0925627" lon="11.9052207"><ele>303.5</ele><time>2026-04-19T09:50:07.514Z</time></trkpt><trkpt lat="42.0926665" lon="11.9052707"><ele>304.0</ele><time>2026-04-19T09:50:09.517Z</time></trkpt><trkpt lat="42.0927729" lon="11.9053156"><ele>304.5</ele><time>2026-04-19T09:50:11.515Z</time></trkpt><trkpt lat="42.092883" lon="11.9053578"><ele>305.0</ele><time>2026-04-19T09:50:13.513Z</time></trkpt><trkpt lat="42.0930027" lon="11.9053852"><ele>305.0</ele><time>2026-04-19T09:50:15.513Z</time></trkpt><trkpt lat="42.0931283" lon="11.905413"><ele>305.0</ele><time>2026-04-19T09:50:17.514Z</time></trkpt><trkpt lat="42.0931928" lon="11.9054326"><ele>305.0</ele><time>2026-04-19T09:50:18.517Z</time></trkpt><trkpt lat="42.0932563" lon="11.9054585"><ele>305.0</ele><time>2026-04-19T09:50:19.517Z</time></trkpt><trkpt lat="42.0933199" lon="11.9055027"><ele>305.0</ele><time>2026-04-19T09:50:20.516Z</time></trkpt><trkpt lat="42.0933835" lon="11.9055505"><ele>305.0</ele><time>2026-04-19T09:50:21.518Z</time></trkpt><trkpt lat="42.0934498" lon="11.9055926"><ele>305.42857142857144</ele><time>2026-04-19T09:50:22.516Z</time></trkpt><trkpt lat="42.0935182" lon="11.905624"><ele>305.85714285714283</ele><time>2026-04-19T09:50:23.517Z</time></trkpt><trkpt lat="42.0935874" lon="11.9056524"><ele>306.2857142857143</ele><time>2026-04-19T09:50:24.517Z</time></trkpt><trkpt lat="42.0936578" lon="11.9056838"><ele>306.7142857142857</ele><time>2026-04-19T09:50:25.517Z</time></trkpt><trkpt lat="42.0937305" lon="11.9057033"><ele>307.1428571428571</ele><time>2026-04-19T09:50:26.515Z</time></trkpt><trkpt lat="42.0938013" lon="11.9057173"><ele>307.57142857142856</ele><time>2026-04-19T09:50:27.513Z</time></trkpt><trkpt lat="42.0938729" lon="11.905735"><ele>308.0</ele><time>2026-04-19T09:50:28.517Z</time></trkpt><trkpt lat="42.0939337" lon="11.9057606"><ele>308.0</ele><time>2026-04-19T09:50:29.516Z</time></trkpt><trkpt lat="42.0939977" lon="11.9057881"><ele>308.0</ele><time>2026-04-19T09:50:30.516Z</time></trkpt><trkpt lat="42.0940537" lon="11.9058286"><ele>308.0</ele><time>2026-04-19T09:50:31.516Z</time></trkpt><trkpt lat="42.0941504" lon="11.9058952"><ele>308.0</ele><time>2026-04-19T09:50:33.513Z</time></trkpt><trkpt lat="42.0942449" lon="11.9059669"><ele>308.0</ele><time>2026-04-19T09:50:35.513Z</time></trkpt><trkpt lat="42.0943323" lon="11.9060465"><ele>308.6</ele><time>2026-04-19T09:50:37.516Z</time></trkpt><trkpt lat="42.0944275" lon="11.9061335"><ele>309.20000000000005</ele><time>2026-04-19T09:50:39.516Z</time></trkpt><trkpt lat="42.0945137" lon="11.906235"><ele>309.8</ele><time>2026-04-19T09:50:41.514Z</time></trkpt><trkpt lat="42.0945912" lon="11.9063442"><ele>310.40000000000003</ele><time>2026-04-19T09:50:43.515Z</time></trkpt><trkpt lat="42.0946416" lon="11.9064428"><ele>311.0</ele><time>2026-04-19T09:50:45.513Z</time></trkpt><trkpt lat="42.0946742" lon="11.9065595"><ele>311.0</ele><time>2026-04-19T09:50:47.513Z</time></trkpt><trkpt lat="42.09469" lon="11.906666"><ele>311.0</ele><time>2026-04-19T09:50:49.514Z</time></trkpt><trkpt lat="42.0947263" lon="11.9067516"><ele>311.0</ele><time>2026-04-19T09:50:51.516Z</time></trkpt><trkpt lat="42.0947642" lon="11.9068452"><ele>311.0</ele><time>2026-04-19T09:50:53.513Z</time></trkpt><trkpt lat="42.0947986" lon="11.9069676"><ele>311.0</ele><time>2026-04-19T09:50:55.517Z</time></trkpt><trkpt lat="42.0948474" lon="11.9070916"><ele>311.0</ele><time>2026-04-19T09:50:57.526Z</time></trkpt><trkpt lat="42.0948828" lon="11.9072291"><ele>311.0</ele><time>2026-04-19T09:50:59.515Z</time></trkpt><trkpt lat="42.0949156" lon="11.907343"><ele>311.0</ele><time>2026-04-19T09:51:01.513Z</time></trkpt><trkpt lat="42.0949631" lon="11.9074564"><ele>311.0</ele><time>2026-04-19T09:51:03.513Z</time></trkpt><trkpt lat="42.0950026" lon="11.9075461"><ele>311.0</ele><time>2026-04-19T09:51:05.513Z</time></trkpt><trkpt lat="42.0950661" lon="11.9076184"><ele>311.0</ele><time>2026-04-19T09:51:07.513Z</time></trkpt><trkpt lat="42.0951177" lon="11.9076945"><ele>311.0</ele><time>2026-04-19T09:51:09.516Z</time></trkpt><trkpt lat="42.0951729" lon="11.907766"><ele>313.1666666666667</ele><time>2026-04-19T09:51:11.512Z</time></trkpt><trkpt lat="42.0952336" lon="11.9078209"><ele>315.33333333333337</ele><time>2026-04-19T09:51:13.513Z</time></trkpt><trkpt lat="42.0953013" lon="11.9078637"><ele>317.5</ele><time>2026-04-19T09:51:15.513Z</time></trkpt><trkpt lat="42.095368" lon="11.9079185"><ele>319.6666666666667</ele><time>2026-04-19T09:51:17.513Z</time></trkpt><trkpt lat="42.0954278" lon="11.9079856"><ele>321.8333333333333</ele><time>2026-04-19T09:51:19.515Z</time></trkpt><trkpt lat="42.0954809" lon="11.9080632"><ele>324.0</ele><time>2026-04-19T09:51:21.516Z</time></trkpt><trkpt lat="42.0955429" lon="11.9081317"><ele>324.0</ele><time>2026-04-19T09:51:23.516Z</time></trkpt><trkpt lat="42.0955994" lon="11.9082028"><ele>324.0</ele><time>2026-04-19T09:51:25.514Z</time></trkpt><trkpt lat="42.0956508" lon="11.9082783"><ele>324.0</ele><time>2026-04-19T09:51:27.517Z</time></trkpt><trkpt lat="42.0956942" lon="11.908347"><ele>324.0</ele><time>2026-04-19T09:51:29.517Z</time></trkpt><trkpt lat="42.0957403" lon="11.9084143"><ele>324.0</ele><time>2026-04-19T09:51:31.515Z</time></trkpt><trkpt lat="42.0957829" lon="11.9084854"><ele>324.0</ele><time>2026-04-19T09:51:33.512Z</time></trkpt><trkpt lat="42.0958342" lon="11.9085601"><ele>324.0</ele><time>2026-04-19T09:51:35.513Z</time></trkpt><trkpt lat="42.0958889" lon="11.9086217"><ele>326.0</ele><time>2026-04-19T09:51:37.512Z</time></trkpt><trkpt lat="42.0959352" lon="11.908696"><ele>328.0</ele><time>2026-04-19T09:51:39.513Z</time></trkpt><trkpt lat="42.0959772" lon="11.9087768"><ele>330.0</ele><time>2026-04-19T09:51:41.514Z</time></trkpt><trkpt lat="42.0960254" lon="11.9088586"><ele>332.0</ele><time>2026-04-19T09:51:43.513Z</time></trkpt><trkpt lat="42.0960693" lon="11.908946"><ele>334.0</ele><time>2026-04-19T09:51:45.513Z</time></trkpt><trkpt lat="42.0961103" lon="11.9090341"><ele>336.0</ele><time>2026-04-19T09:51:47.514Z</time></trkpt><trkpt lat="42.0961601" lon="11.9091238"><ele>336.0</ele><time>2026-04-19T09:51:49.515Z</time></trkpt><trkpt lat="42.0962085" lon="11.9092071"><ele>336.0</ele><time>2026-04-19T09:51:51.515Z</time></trkpt><trkpt lat="42.0962531" lon="11.9092928"><ele>336.0</ele><time>2026-04-19T09:51:53.512Z</time></trkpt><trkpt lat="42.0963054" lon="11.9093754"><ele>336.0</ele><time>2026-04-19T09:51:55.513Z</time></trkpt><trkpt lat="42.0963719" lon="11.9094429"><ele>336.0</ele><time>2026-04-19T09:51:57.52Z</time></trkpt><trkpt lat="42.096421" lon="11.9095374"><ele>336.0</ele><time>2026-04-19T09:51:59.513Z</time></trkpt><trkpt lat="42.0964773" lon="11.9096457"><ele>335.8333333333333</ele><time>2026-04-19T09:52:01.514Z</time></trkpt><trkpt lat="42.0965275" lon="11.9097523"><ele>335.6666666666667</ele><time>2026-04-19T09:52:03.515Z</time></trkpt><trkpt lat="42.0965713" lon="11.9098575"><ele>335.5</ele><time>2026-04-19T09:52:05.515Z</time></trkpt><trkpt lat="42.0966118" lon="11.9099626"><ele>335.33333333333337</ele><time>2026-04-19T09:52:07.511Z</time></trkpt><trkpt lat="42.0966533" lon="11.9100525"><ele>335.1666666666667</ele><time>2026-04-19T09:52:09.513Z</time></trkpt><trkpt lat="42.0966834" lon="11.9101332"><ele>335.0</ele><time>2026-04-19T09:52:11.515Z</time></trkpt><trkpt lat="42.0967121" lon="11.9102157"><ele>336.71428571428567</ele><time>2026-04-19T09:52:13.512Z</time></trkpt><trkpt lat="42.096739" lon="11.9102979"><ele>338.42857142857144</ele><time>2026-04-19T09:52:15.512Z</time></trkpt><trkpt lat="42.0967546" lon="11.9103851"><ele>340.1428571428571</ele><time>2026-04-19T09:52:17.515Z</time></trkpt><trkpt lat="42.0967761" lon="11.9104711"><ele>341.85714285714283</ele><time>2026-04-19T09:52:19.514Z</time></trkpt><trkpt lat="42.0968003" lon="11.9105529"><ele>343.57142857142856</ele><time>2026-04-19T09:52:21.515Z</time></trkpt><trkpt lat="42.0968211" lon="11.9106399"><ele>345.2857142857143</ele><time>2026-04-19T09:52:23.515Z</time></trkpt><trkpt lat="42.0968334" lon="11.9107304"><ele>347.0</ele><time>2026-04-19T09:52:25.516Z</time></trkpt><trkpt lat="42.0968384" lon="11.910817"><ele>348.7142857142857</ele><time>2026-04-19T09:52:27.512Z</time></trkpt><trkpt lat="42.096857" lon="11.91094"><ele>350.4285714285714</ele><time>2026-04-19T09:52:30.515Z</time></trkpt><trkpt lat="42.0968655" lon="11.9110275"><ele>352.1428571428571</ele><time>2026-04-19T09:52:32.513Z</time></trkpt><trkpt lat="42.0968825" lon="11.9111096"><ele>353.8571428571429</ele><time>2026-04-19T09:52:34.512Z</time></trkpt><trkpt lat="42.0968946" lon="11.9111934"><ele>355.57142857142856</ele><time>2026-04-19T09:52:36.513Z</time></trkpt><trkpt lat="42.096911" lon="11.9113083"><ele>357.2857142857143</ele><time>2026-04-19T09:52:39.513Z</time></trkpt><trkpt lat="42.0969325" lon="11.9113919"><ele>359.0</ele><time>2026-04-19T09:52:41.513Z</time></trkpt><trkpt lat="42.0969767" lon="11.9114567"><ele>359.0</ele><time>2026-04-19T09:52:43.513Z</time></trkpt><trkpt lat="42.0970256" lon="11.9115209"><ele>359.0</ele><time>2026-04-19T09:52:45.514Z</time></trkpt><trkpt lat="42.0970744" lon="11.9115797"><ele>359.0</ele><time>2026-04-19T09:52:47.511Z</time></trkpt><trkpt lat="42.0971496" lon="11.9116449"><ele>359.0</ele><time>2026-04-19T09:52:50.512Z</time></trkpt><trkpt lat="42.0971887" lon="11.9117191"><ele>359.0</ele><time>2026-04-19T09:52:52.514Z</time></trkpt><trkpt lat="42.0972166" lon="11.9117954"><ele>359.0</ele><time>2026-04-19T09:52:54.511Z</time></trkpt><trkpt lat="42.0972382" lon="11.9119155"><ele>359.0</ele><time>2026-04-19T09:52:57.514Z</time></trkpt><trkpt lat="42.0972476" lon="11.9120068"><ele>359.8571428571429</ele><time>2026-04-19T09:52:59.514Z</time></trkpt><trkpt lat="42.0972424" lon="11.91211"><ele>360.7142857142857</ele><time>2026-04-19T09:53:01.513Z</time></trkpt><trkpt lat="42.0972371" lon="11.9122012"><ele>361.57142857142856</ele><time>2026-04-19T09:53:03.513Z</time></trkpt><trkpt lat="42.097246" lon="11.9122888"><ele>362.42857142857144</ele><time>2026-04-19T09:53:06.514Z</time></trkpt><trkpt lat="42.0972542" lon="11.9123746"><ele>363.2857142857143</ele><time>2026-04-19T09:53:10.513Z</time></trkpt><trkpt lat="42.0972559" lon="11.9124601"><ele>364.14285714285717</ele><time>2026-04-19T09:53:14.512Z</time></trkpt><trkpt lat="42.0972647" lon="11.9125481"><ele>365.0</ele><time>2026-04-19T09:53:17.514Z</time></trkpt><trkpt lat="42.0972923" lon="11.912632"><ele>365.0</ele><time>2026-04-19T09:53:20.513Z</time></trkpt><trkpt lat="42.0973446" lon="11.9127294"><ele>365.0</ele><time>2026-04-19T09:53:24.514Z</time></trkpt><trkpt lat="42.097391" lon="11.9128096"><ele>365.0</ele><time>2026-04-19T09:53:26.512Z</time></trkpt><trkpt lat="42.0974354" lon="11.9128775"><ele>365.0</ele><time>2026-04-19T09:53:28.513Z</time></trkpt><trkpt lat="42.0974913" lon="11.9129675"><ele>365.0</ele><time>2026-04-19T09:53:31.514Z</time></trkpt><trkpt lat="42.097543" lon="11.9130428"><ele>365.0</ele><time>2026-04-19T09:53:34.512Z</time></trkpt><trkpt lat="42.0975772" lon="11.9131409"><ele>365.33333333333337</ele><time>2026-04-19T09:53:37.514Z</time></trkpt><trkpt lat="42.0975997" lon="11.9132564"><ele>365.6666666666667</ele><time>2026-04-19T09:53:40.513Z</time></trkpt><trkpt lat="42.0976238" lon="11.9133447"><ele>366.0</ele><time>2026-04-19T09:53:43.514Z</time></trkpt><trkpt lat="42.0976365" lon="11.9134451"><ele>366.3333333333333</ele><time>2026-04-19T09:53:46.514Z</time></trkpt><trkpt lat="42.0976598" lon="11.9135486"><ele>366.66666666666663</ele><time>2026-04-19T09:53:49.513Z</time></trkpt><trkpt lat="42.097685" lon="11.9136353"><ele>367.0</ele><time>2026-04-19T09:53:51.512Z</time></trkpt><trkpt lat="42.0977205" lon="11.9137465"><ele>367.0</ele><time>2026-04-19T09:53:53.512Z</time></trkpt><trkpt lat="42.0977437" lon="11.9138475"><ele>367.0</ele><time>2026-04-19T09:53:55.512Z</time></trkpt><trkpt lat="42.0977802" lon="11.9139455"><ele>367.0</ele><time>2026-04-19T09:53:57.514Z</time></trkpt><trkpt lat="42.0978073" lon="11.9140519"><ele>367.0</ele><time>2026-04-19T09:54:00.514Z</time></trkpt><trkpt lat="42.0978453" lon="11.9141446"><ele>367.0</ele><time>2026-04-19T09:54:04.518Z</time></trkpt><trkpt lat="42.0978884" lon="11.9142158"><ele>367.0</ele><time>2026-04-19T09:54:07.515Z</time></trkpt><trkpt lat="42.0979352" lon="11.9143025"><ele>367.1428571428571</ele><time>2026-04-19T09:54:11.513Z</time></trkpt><trkpt lat="42.0979737" lon="11.9143885"><ele>367.28571428571433</ele><time>2026-04-19T09:54:15.511Z</time></trkpt><trkpt lat="42.0980268" lon="11.9144559"><ele>367.42857142857144</ele><time>2026-04-19T09:54:19.512Z</time></trkpt><trkpt lat="42.0980855" lon="11.9145298"><ele>367.57142857142856</ele><time>2026-04-19T09:54:23.514Z</time></trkpt><trkpt lat="42.0981486" lon="11.9146033"><ele>367.71428571428567</ele><time>2026-04-19T09:54:27.513Z</time></trkpt><trkpt lat="42.0982037" lon="11.9146525"><ele>367.8571428571429</ele><time>2026-04-19T09:54:30.512Z</time></trkpt><trkpt lat="42.0982574" lon="11.9147035"><ele>368.0</ele><time>2026-04-19T09:54:33.511Z</time></trkpt><trkpt lat="42.0983109" lon="11.9147677"><ele>366.8571428571429</ele><time>2026-04-19T09:54:36.514Z</time></trkpt><trkpt lat="42.0983611" lon="11.9148304"><ele>365.71428571428567</ele><time>2026-04-19T09:54:39.513Z</time></trkpt><trkpt lat="42.0984144" lon="11.9149064"><ele>364.57142857142856</ele><time>2026-04-19T09:54:43.512Z</time></trkpt><trkpt lat="42.0984523" lon="11.915009"><ele>363.42857142857144</ele><time>2026-04-19T09:54:46.513Z</time></trkpt><trkpt lat="42.0984844" lon="11.915082"><ele>362.28571428571433</ele><time>2026-04-19T09:54:48.512Z</time></trkpt><trkpt lat="42.0985216" lon="11.915162"><ele>361.1428571428571</ele><time>2026-04-19T09:54:50.514Z</time></trkpt><trkpt lat="42.0985754" lon="11.91525"><ele>360.0</ele><time>2026-04-19T09:54:52.518Z</time></trkpt><trkpt lat="42.0986323" lon="11.9153055"><ele>359.3333333333333</ele><time>2026-04-19T09:54:54.511Z</time></trkpt><trkpt lat="42.0986903" lon="11.9153528"><ele>358.6666666666667</ele><time>2026-04-19T09:55:03.511Z</time></trkpt><trkpt lat="42.0987837" lon="11.9153945"><ele>358.0</ele><time>2026-04-19T09:55:06.514Z</time></trkpt><trkpt lat="42.0988595" lon="11.9153989"><ele>357.33333333333337</ele><time>2026-04-19T09:55:08.515Z</time></trkpt><trkpt lat="42.0989414" lon="11.9154137"><ele>356.6666666666667</ele><time>2026-04-19T09:55:10.514Z</time></trkpt><trkpt lat="42.0990285" lon="11.9154304"><ele>356.0</ele><time>2026-04-19T09:55:12.514Z</time></trkpt><trkpt lat="42.0991387" lon="11.9154401"><ele>355.0</ele><time>2026-04-19T09:55:14.512Z</time></trkpt><trkpt lat="42.0992523" lon="11.9154631"><ele>354.0</ele><time>2026-04-19T09:55:16.516Z</time></trkpt><trkpt lat="42.0993136" lon="11.915493"><ele>353.0</ele><time>2026-04-19T09:55:17.512Z</time></trkpt><trkpt lat="42.0994321" lon="11.9155087"><ele>352.0</ele><time>2026-04-19T09:55:19.514Z</time></trkpt><trkpt lat="42.0995527" lon="11.915523"><ele>351.0</ele><time>2026-04-19T09:55:21.515Z</time></trkpt><trkpt lat="42.0996621" lon="11.9155595"><ele>351.0</ele><time>2026-04-19T09:55:23.513Z</time></trkpt><trkpt lat="42.0997664" lon="11.915568"><ele>351.0</ele><time>2026-04-19T09:55:25.514Z</time></trkpt><trkpt lat="42.0998753" lon="11.9155855"><ele>351.0</ele><time>2026-04-19T09:55:27.513Z</time></trkpt><trkpt lat="42.0999893" lon="11.9156323"><ele>351.0</ele><time>2026-04-19T09:55:29.512Z</time></trkpt><trkpt lat="42.1000985" lon="11.9156938"><ele>351.4</ele><time>2026-04-19T09:55:31.513Z</time></trkpt><trkpt lat="42.1001955" lon="11.9157671"><ele>351.8</ele><time>2026-04-19T09:55:33.513Z</time></trkpt><trkpt lat="42.1003089" lon="11.9158326"><ele>352.2</ele><time>2026-04-19T09:55:35.513Z</time></trkpt><trkpt lat="42.1003675" lon="11.9158719"><ele>352.59999999999997</ele><time>2026-04-19T09:55:36.517Z</time></trkpt><trkpt lat="42.100478" lon="11.9159518"><ele>353.0</ele><time>2026-04-19T09:55:38.516Z</time></trkpt><trkpt lat="42.1005386" lon="11.9159993"><ele>351.85714285714283</ele><time>2026-04-19T09:55:39.514Z</time></trkpt><trkpt lat="42.1005978" lon="11.9160373"><ele>350.7142857142857</ele><time>2026-04-19T09:55:40.515Z</time></trkpt><trkpt lat="42.1006579" lon="11.9160716"><ele>349.57142857142856</ele><time>2026-04-19T09:55:41.515Z</time></trkpt><trkpt lat="42.1007206" lon="11.9161028"><ele>348.42857142857144</ele><time>2026-04-19T09:55:42.516Z</time></trkpt><trkpt lat="42.1007864" lon="11.916133"><ele>347.2857142857143</ele><time>2026-04-19T09:55:43.516Z</time></trkpt><trkpt lat="42.1008614" lon="11.9161561"><ele>346.14285714285717</ele><time>2026-04-19T09:55:44.515Z</time></trkpt><trkpt lat="42.1009242" lon="11.9161824"><ele>345.0</ele><time>2026-04-19T09:55:45.513Z</time></trkpt><trkpt lat="42.1010393" lon="11.9162393"><ele>345.0</ele><time>2026-04-19T09:55:47.516Z</time></trkpt><trkpt lat="42.1011408" lon="11.9163177"><ele>345.0</ele><time>2026-04-19T09:55:49.515Z</time></trkpt><trkpt lat="42.1012043" lon="11.9163497"><ele>345.0</ele><time>2026-04-19T09:55:50.512Z</time></trkpt><trkpt lat="42.1012657" lon="11.9163775"><ele>345.0</ele><time>2026-04-19T09:55:51.514Z</time></trkpt><trkpt lat="42.1013732" lon="11.9164312"><ele>345.0</ele><time>2026-04-19T09:55:53.511Z</time></trkpt><trkpt lat="42.1014691" lon="11.9164958"><ele>345.0</ele><time>2026-04-19T09:55:55.512Z</time></trkpt><trkpt lat="42.1015624" lon="11.9165701"><ele>345.0</ele><time>2026-04-19T09:55:57.513Z</time></trkpt><trkpt lat="42.1016628" lon="11.9166383"><ele>345.0</ele><time>2026-04-19T09:55:59.513Z</time></trkpt><trkpt lat="42.101764" lon="11.9167134"><ele>345.0</ele><time>2026-04-19T09:56:01.516Z</time></trkpt><trkpt lat="42.1018613" lon="11.9167965"><ele>343.25</ele><time>2026-04-19T09:56:03.515Z</time></trkpt><trkpt lat="42.1019547" lon="11.9168851"><ele>341.5</ele><time>2026-04-19T09:56:05.515Z</time></trkpt><trkpt lat="42.1020491" lon="11.9169761"><ele>339.75</ele><time>2026-04-19T09:56:07.516Z</time></trkpt><trkpt lat="42.1021331" lon="11.917082"><ele>338.0</ele><time>2026-04-19T09:56:09.513Z</time></trkpt><trkpt lat="42.102215" lon="11.9171855"><ele>338.0</ele><time>2026-04-19T09:56:11.514Z</time></trkpt><trkpt lat="42.1022874" lon="11.9172908"><ele>338.0</ele><time>2026-04-19T09:56:13.512Z</time></trkpt><trkpt lat="42.102369" lon="11.9173866"><ele>338.0</ele><time>2026-04-19T09:56:15.512Z</time></trkpt><trkpt lat="42.1024663" lon="11.9174956"><ele>338.0</ele><time>2026-04-19T09:56:17.515Z</time></trkpt><trkpt lat="42.1025124" lon="11.9175601"><ele>338.0</ele><time>2026-04-19T09:56:18.513Z</time></trkpt><trkpt lat="42.10256" lon="11.9176263"><ele>338.4</ele><time>2026-04-19T09:56:19.512Z</time></trkpt><trkpt lat="42.1026073" lon="11.9176831"><ele>338.79999999999995</ele><time>2026-04-19T09:56:20.516Z</time></trkpt><trkpt lat="42.1026961" lon="11.9177876"><ele>339.2</ele><time>2026-04-19T09:56:22.515Z</time></trkpt><trkpt lat="42.1027809" lon="11.9178737"><ele>339.6</ele><time>2026-04-19T09:56:24.515Z</time></trkpt><trkpt lat="42.1028628" lon="11.9179591"><ele>340.0</ele><time>2026-04-19T09:56:26.515Z</time></trkpt><trkpt lat="42.1029308" lon="11.9180443"><ele>340.0</ele><time>2026-04-19T09:56:28.516Z</time></trkpt><trkpt lat="42.1030035" lon="11.9181408"><ele>340.0</ele><time>2026-04-19T09:56:30.514Z</time></trkpt><trkpt lat="42.103083" lon="11.9182613"><ele>340.0</ele><time>2026-04-19T09:56:32.515Z</time></trkpt><trkpt lat="42.1031643" lon="11.9183842"><ele>340.0</ele><time>2026-04-19T09:56:34.51Z</time></trkpt><trkpt lat="42.1032032" lon="11.918452"><ele>340.0</ele><time>2026-04-19T09:56:35.511Z</time></trkpt><trkpt lat="42.1032496" lon="11.9185242"><ele>339.5</ele><time>2026-04-19T09:56:36.516Z</time></trkpt><trkpt lat="42.1032948" lon="11.9185993"><ele>339.0</ele><time>2026-04-19T09:56:37.515Z</time></trkpt><trkpt lat="42.1033528" lon="11.9186741"><ele>338.5</ele><time>2026-04-19T09:56:38.514Z</time></trkpt><trkpt lat="42.1034103" lon="11.9187488"><ele>338.0</ele><time>2026-04-19T09:56:39.513Z</time></trkpt><trkpt lat="42.1034613" lon="11.9188358"><ele>337.5</ele><time>2026-04-19T09:56:40.514Z</time></trkpt><trkpt lat="42.1035127" lon="11.9189314"><ele>337.0</ele><time>2026-04-19T09:56:41.516Z</time></trkpt><trkpt lat="42.1035561" lon="11.9190283"><ele>337.0</ele><time>2026-04-19T09:56:42.515Z</time></trkpt><trkpt lat="42.1035941" lon="11.9191257"><ele>337.0</ele><time>2026-04-19T09:56:43.515Z</time></trkpt><trkpt lat="42.1036262" lon="11.9192212"><ele>337.0</ele><time>2026-04-19T09:56:44.517Z</time></trkpt><trkpt lat="42.1036422" lon="11.9193223"><ele>337.0</ele><time>2026-04-19T09:56:45.514Z</time></trkpt><trkpt lat="42.1036609" lon="11.9194188"><ele>337.0</ele><time>2026-04-19T09:56:46.516Z</time></trkpt><trkpt lat="42.103662" lon="11.9195039"><ele>337.0</ele><time>2026-04-19T09:56:47.516Z</time></trkpt><trkpt lat="42.1036673" lon="11.9196524"><ele>336.8</ele><time>2026-04-19T09:56:49.516Z</time></trkpt><trkpt lat="42.1036752" lon="11.919775"><ele>336.6</ele><time>2026-04-19T09:56:51.516Z</time></trkpt><trkpt lat="42.1036806" lon="11.9198965"><ele>336.40000000000003</ele><time>2026-04-19T09:56:53.511Z</time></trkpt><trkpt lat="42.1036887" lon="11.9200137"><ele>336.20000000000005</ele><time>2026-04-19T09:56:55.512Z</time></trkpt><trkpt lat="42.103682" lon="11.9201371"><ele>336.0</ele><time>2026-04-19T09:56:57.516Z</time></trkpt><trkpt lat="42.1036836" lon="11.9202691"><ele>336.4</ele><time>2026-04-19T09:56:59.515Z</time></trkpt><trkpt lat="42.10368" lon="11.9203958"><ele>336.8</ele><time>2026-04-19T09:57:01.513Z</time></trkpt><trkpt lat="42.103672" lon="11.9205151"><ele>337.2</ele><time>2026-04-19T09:57:03.515Z</time></trkpt><trkpt lat="42.1036549" lon="11.9206461"><ele>337.59999999999997</ele><time>2026-04-19T09:57:05.522Z</time></trkpt><trkpt lat="42.1036656" lon="11.9207894"><ele>338.0</ele><time>2026-04-19T09:57:07.516Z</time></trkpt><trkpt lat="42.103685" lon="11.9209334"><ele>338.59999999999997</ele><time>2026-04-19T09:57:09.515Z</time></trkpt><trkpt lat="42.1036974" lon="11.9210826"><ele>339.2</ele><time>2026-04-19T09:57:11.511Z</time></trkpt><trkpt lat="42.1037123" lon="11.9212309"><ele>339.8</ele><time>2026-04-19T09:57:13.512Z</time></trkpt><trkpt lat="42.1037222" lon="11.92138"><ele>340.4</ele><time>2026-04-19T09:57:15.512Z</time></trkpt><trkpt lat="42.1037268" lon="11.921534"><ele>341.0</ele><time>2026-04-19T09:57:17.514Z</time></trkpt><trkpt lat="42.1037423" lon="11.9216808"><ele>341.6</ele><time>2026-04-19T09:57:19.514Z</time></trkpt><trkpt lat="42.103767" lon="11.9218163"><ele>342.20000000000005</ele><time>2026-04-19T09:57:21.513Z</time></trkpt><trkpt lat="42.1037943" lon="11.9219532"><ele>342.79999999999995</ele><time>2026-04-19T09:57:23.513Z</time></trkpt><trkpt lat="42.1038176" lon="11.9220952"><ele>343.4</ele><time>2026-04-19T09:57:25.514Z</time></trkpt><trkpt lat="42.1038307" lon="11.9222459"><ele>344.0</ele><time>2026-04-19T09:57:27.515Z</time></trkpt><trkpt lat="42.1038523" lon="11.9223911"><ele>344.0</ele><time>2026-04-19T09:57:29.514Z</time></trkpt><trkpt lat="42.1038708" lon="11.9225239"><ele>344.0</ele><time>2026-04-19T09:57:31.513Z</time></trkpt><trkpt lat="42.1038782" lon="11.9226638"><ele>344.0</ele><time>2026-04-19T09:57:33.514Z</time></trkpt><trkpt lat="42.1038953" lon="11.9227941"><ele>344.0</ele><time>2026-04-19T09:57:35.511Z</time></trkpt><trkpt lat="42.10391" lon="11.9229271"><ele>344.0</ele><time>2026-04-19T09:57:37.511Z</time></trkpt><trkpt lat="42.1039267" lon="11.9230559"><ele>344.0</ele><time>2026-04-19T09:57:39.514Z</time></trkpt><trkpt lat="42.103937" lon="11.9231782"><ele>344.0</ele><time>2026-04-19T09:57:41.514Z</time></trkpt><trkpt lat="42.1039481" lon="11.9233027"><ele>344.0</ele><time>2026-04-19T09:57:43.511Z</time></trkpt><trkpt lat="42.1039612" lon="11.9234289"><ele>344.0</ele><time>2026-04-19T09:57:45.516Z</time></trkpt><trkpt lat="42.1039803" lon="11.9235581"><ele>344.0</ele><time>2026-04-19T09:57:47.519Z</time></trkpt><trkpt lat="42.103997" lon="11.9236811"><ele>344.2</ele><time>2026-04-19T09:57:49.514Z</time></trkpt><trkpt lat="42.1040074" lon="11.9238045"><ele>344.4</ele><time>2026-04-19T09:57:51.515Z</time></trkpt><trkpt lat="42.1040059" lon="11.923934"><ele>344.6</ele><time>2026-04-19T09:57:53.512Z</time></trkpt><trkpt lat="42.104004" lon="11.9240488"><ele>344.8</ele><time>2026-04-19T09:57:55.511Z</time></trkpt><trkpt lat="42.1040163" lon="11.924161"><ele>345.0</ele><time>2026-04-19T09:57:57.514Z</time></trkpt><trkpt lat="42.104023" lon="11.9242958"><ele>345.4</ele><time>2026-04-19T09:57:59.516Z</time></trkpt><trkpt lat="42.1040282" lon="11.9244283"><ele>345.8</ele><time>2026-04-19T09:58:01.512Z</time></trkpt><trkpt lat="42.1040202" lon="11.9245579"><ele>346.20000000000005</ele><time>2026-04-19T09:58:03.516Z</time></trkpt><trkpt lat="42.1040236" lon="11.9246786"><ele>346.6</ele><time>2026-04-19T09:58:05.518Z</time></trkpt><trkpt lat="42.1040379" lon="11.9247968"><ele>347.0</ele><time>2026-04-19T09:58:07.514Z</time></trkpt><trkpt lat="42.104045" lon="11.9249121"><ele>347.0</ele><time>2026-04-19T09:58:09.519Z</time></trkpt><trkpt lat="42.1040522" lon="11.9250324"><ele>347.0</ele><time>2026-04-19T09:58:11.516Z</time></trkpt><trkpt lat="42.1040642" lon="11.9251474"><ele>347.0</ele><time>2026-04-19T09:58:13.51Z</time></trkpt><trkpt lat="42.1040563" lon="11.9252858"><ele>347.0</ele><time>2026-04-19T09:58:15.521Z</time></trkpt><trkpt lat="42.10405" lon="11.9253705"><ele>347.0</ele><time>2026-04-19T09:58:16.516Z</time></trkpt><trkpt lat="42.1040606" lon="11.9255114"><ele>347.0</ele><time>2026-04-19T09:58:18.516Z</time></trkpt><trkpt lat="42.1040592" lon="11.9256386"><ele>347.20000000000005</ele><time>2026-04-19T09:58:20.514Z</time></trkpt><trkpt lat="42.1040735" lon="11.9257756"><ele>347.4</ele><time>2026-04-19T09:58:22.517Z</time></trkpt><trkpt lat="42.104085" lon="11.9259144"><ele>347.6</ele><time>2026-04-19T09:58:24.515Z</time></trkpt><trkpt lat="42.1040908" lon="11.9260638"><ele>347.79999999999995</ele><time>2026-04-19T09:58:26.514Z</time></trkpt><trkpt lat="42.1040892" lon="11.9262057"><ele>348.0</ele><time>2026-04-19T09:58:28.514Z</time></trkpt><trkpt lat="42.1040859" lon="11.926354"><ele>351.25</ele><time>2026-04-19T09:58:30.515Z</time></trkpt><trkpt lat="42.1040955" lon="11.926503"><ele>354.5</ele><time>2026-04-19T09:58:32.514Z</time></trkpt><trkpt lat="42.1041021" lon="11.9266537"><ele>357.75</ele><time>2026-04-19T09:58:34.512Z</time></trkpt><trkpt lat="42.1041224" lon="11.9268019"><ele>361.0</ele><time>2026-04-19T09:58:36.515Z</time></trkpt><trkpt lat="42.1041278" lon="11.9269578"><ele>361.0</ele><time>2026-04-19T09:58:38.515Z</time></trkpt><trkpt lat="42.1041364" lon="11.9271038"><ele>361.0</ele><time>2026-04-19T09:58:40.515Z</time></trkpt><trkpt lat="42.1041573" lon="11.9272381"><ele>361.0</ele><time>2026-04-19T09:58:42.511Z</time></trkpt><trkpt lat="42.1041871" lon="11.9273775"><ele>361.0</ele><time>2026-04-19T09:58:44.513Z</time></trkpt><trkpt lat="42.1042244" lon="11.9275059"><ele>361.0</ele><time>2026-04-19T09:58:46.513Z</time></trkpt><trkpt lat="42.1042593" lon="11.927651"><ele>360.4</ele><time>2026-04-19T09:58:48.513Z</time></trkpt><trkpt lat="42.1043153" lon="11.9277812"><ele>359.8</ele><time>2026-04-19T09:58:50.515Z</time></trkpt><trkpt lat="42.1043697" lon="11.9279072"><ele>359.2</ele><time>2026-04-19T09:58:52.511Z</time></trkpt><trkpt lat="42.1044206" lon="11.9280413"><ele>358.59999999999997</ele><time>2026-04-19T09:58:54.511Z</time></trkpt><trkpt lat="42.1044606" lon="11.9281784"><ele>358.0</ele><time>2026-04-19T09:58:56.516Z</time></trkpt><trkpt lat="42.1044887" lon="11.9283163"><ele>358.79999999999995</ele><time>2026-04-19T09:58:58.516Z</time></trkpt><trkpt lat="42.1045189" lon="11.9284486"><ele>359.6</ele><time>2026-04-19T09:59:00.514Z</time></trkpt><trkpt lat="42.1045412" lon="11.9285697"><ele>360.4</ele><time>2026-04-19T09:59:02.515Z</time></trkpt><trkpt lat="42.1045718" lon="11.9286852"><ele>361.20000000000005</ele><time>2026-04-19T09:59:04.514Z</time></trkpt><trkpt lat="42.1046008" lon="11.9287931"><ele>362.0</ele><time>2026-04-19T09:59:06.514Z</time></trkpt><trkpt lat="42.1046285" lon="11.9289011"><ele>362.0</ele><time>2026-04-19T09:59:08.515Z</time></trkpt><trkpt lat="42.1046564" lon="11.9289932"><ele>362.0</ele><time>2026-04-19T09:59:10.513Z</time></trkpt><trkpt lat="42.1046824" lon="11.9290776"><ele>362.0</ele><time>2026-04-19T09:59:12.518Z</time></trkpt><trkpt lat="42.1046845" lon="11.9292016"><ele>362.0</ele><time>2026-04-19T09:59:15.512Z</time></trkpt><trkpt lat="42.1046755" lon="11.9292965"><ele>362.0</ele><time>2026-04-19T09:59:17.517Z</time></trkpt><trkpt lat="42.1046616" lon="11.9293831"><ele>362.0</ele><time>2026-04-19T09:59:19.512Z</time></trkpt><trkpt lat="42.1046377" lon="11.9294719"><ele>362.0</ele><time>2026-04-19T09:59:21.516Z</time></trkpt><trkpt lat="42.1046247" lon="11.9295644"><ele>363.5</ele><time>2026-04-19T09:59:23.515Z</time></trkpt><trkpt lat="42.1046191" lon="11.9296606"><ele>365.0</ele><time>2026-04-19T09:59:25.512Z</time></trkpt><trkpt lat="42.1045826" lon="11.9297549"><ele>366.5</ele><time>2026-04-19T09:59:27.513Z</time></trkpt><trkpt lat="42.1045268" lon="11.9298385"><ele>368.0</ele><time>2026-04-19T09:59:29.511Z</time></trkpt><trkpt lat="42.1044775" lon="11.9299363"><ele>369.5</ele><time>2026-04-19T09:59:31.512Z</time></trkpt><trkpt lat="42.1044092" lon="11.9300146"><ele>371.0</ele><time>2026-04-19T09:59:33.511Z</time></trkpt><trkpt lat="42.104364" lon="11.9300921"><ele>371.57142857142856</ele><time>2026-04-19T09:59:35.513Z</time></trkpt><trkpt lat="42.1043183" lon="11.9301761"><ele>372.1428571428571</ele><time>2026-04-19T09:59:37.519Z</time></trkpt><trkpt lat="42.1042684" lon="11.9302525"><ele>372.7142857142857</ele><time>2026-04-19T09:59:39.514Z</time></trkpt><trkpt lat="42.1042151" lon="11.9303194"><ele>373.2857142857143</ele><time>2026-04-19T09:59:41.515Z</time></trkpt><trkpt lat="42.104168" lon="11.9303924"><ele>373.85714285714283</ele><time>2026-04-19T09:59:43.515Z</time></trkpt><trkpt lat="42.1041264" lon="11.9304748"><ele>374.42857142857144</ele><time>2026-04-19T09:59:45.514Z</time></trkpt><trkpt lat="42.1041021" lon="11.9305646"><ele>375.0</ele><time>2026-04-19T09:59:47.515Z</time></trkpt><trkpt lat="42.1040902" lon="11.9306523"><ele>375.0</ele><time>2026-04-19T09:59:49.513Z</time></trkpt><trkpt lat="42.1040916" lon="11.9307543"><ele>375.0</ele><time>2026-04-19T09:59:51.514Z</time></trkpt><trkpt lat="42.1041155" lon="11.9308636"><ele>375.0</ele><time>2026-04-19T09:59:53.511Z</time></trkpt><trkpt lat="42.1041696" lon="11.9309886"><ele>375.0</ele><time>2026-04-19T09:59:55.515Z</time></trkpt><trkpt lat="42.104208" lon="11.9310568"><ele>375.0</ele><time>2026-04-19T09:59:56.514Z</time></trkpt><trkpt lat="42.1042552" lon="11.9311308"><ele>375.0</ele><time>2026-04-19T09:59:57.515Z</time></trkpt><trkpt lat="42.1043039" lon="11.9312053"><ele>373.8333333333333</ele><time>2026-04-19T09:59:58.513Z</time></trkpt><trkpt lat="42.1043588" lon="11.9312742"><ele>372.6666666666667</ele><time>2026-04-19T09:59:59.516Z</time></trkpt><trkpt lat="42.1044169" lon="11.9313542"><ele>371.5</ele><time>2026-04-19T10:00:00.511Z</time></trkpt><trkpt lat="42.1044745" lon="11.9314374"><ele>370.33333333333337</ele><time>2026-04-19T10:00:01.511Z</time></trkpt><trkpt lat="42.104536" lon="11.9315134"><ele>369.1666666666667</ele><time>2026-04-19T10:00:02.513Z</time></trkpt><trkpt lat="42.1046025" lon="11.9315918"><ele>368.0</ele><time>2026-04-19T10:00:03.513Z</time></trkpt><trkpt lat="42.104671" lon="11.9316744"><ele>366.79999999999995</ele><time>2026-04-19T10:00:04.511Z</time></trkpt><trkpt lat="42.1047445" lon="11.9317543"><ele>365.6</ele><time>2026-04-19T10:00:05.513Z</time></trkpt><trkpt lat="42.1048193" lon="11.9318384"><ele>364.4</ele><time>2026-04-19T10:00:06.512Z</time></trkpt><trkpt lat="42.1048976" lon="11.9319178"><ele>363.20000000000005</ele><time>2026-04-19T10:00:07.514Z</time></trkpt><trkpt lat="42.104975" lon="11.9319869"><ele>362.0</ele><time>2026-04-19T10:00:08.516Z</time></trkpt><trkpt lat="42.1050569" lon="11.9320405"><ele>362.0</ele><time>2026-04-19T10:00:09.514Z</time></trkpt><trkpt lat="42.1051489" lon="11.9320699"><ele>362.0</ele><time>2026-04-19T10:00:10.515Z</time></trkpt><trkpt lat="42.1052395" lon="11.9320859"><ele>362.0</ele><time>2026-04-19T10:00:11.515Z</time></trkpt><trkpt lat="42.1053294" lon="11.9320822"><ele>362.0</ele><time>2026-04-19T10:00:12.514Z</time></trkpt><trkpt lat="42.105418" lon="11.9320836"><ele>362.0</ele><time>2026-04-19T10:00:13.513Z</time></trkpt><trkpt lat="42.1055108" lon="11.9320848"><ele>362.0</ele><time>2026-04-19T10:00:14.511Z</time></trkpt><trkpt lat="42.1056083" lon="11.9320815"><ele>362.0</ele><time>2026-04-19T10:00:15.512Z</time></trkpt><trkpt lat="42.1057124" lon="11.9320919"><ele>362.0</ele><time>2026-04-19T10:00:16.513Z</time></trkpt><trkpt lat="42.1058164" lon="11.9320936"><ele>362.0</ele><time>2026-04-19T10:00:17.513Z</time></trkpt><trkpt lat="42.1059246" lon="11.932101"><ele>362.0</ele><time>2026-04-19T10:00:18.513Z</time></trkpt><trkpt lat="42.1060352" lon="11.9320978"><ele>360.6</ele><time>2026-04-19T10:00:19.514Z</time></trkpt><trkpt lat="42.1061459" lon="11.9320965"><ele>359.20000000000005</ele><time>2026-04-19T10:00:20.515Z</time></trkpt><trkpt lat="42.1062573" lon="11.9320915"><ele>357.8</ele><time>2026-04-19T10:00:21.514Z</time></trkpt><trkpt lat="42.1063642" lon="11.9320913"><ele>356.4</ele><time>2026-04-19T10:00:22.527Z</time></trkpt><trkpt lat="42.1064662" lon="11.9320988"><ele>355.0</ele><time>2026-04-19T10:00:23.514Z</time></trkpt><trkpt lat="42.1065648" lon="11.9321039"><ele>354.5</ele><time>2026-04-19T10:00:24.514Z</time></trkpt><trkpt lat="42.1066529" lon="11.9321075"><ele>354.0</ele><time>2026-04-19T10:00:25.512Z</time></trkpt><trkpt lat="42.1067408" lon="11.9321159"><ele>353.5</ele><time>2026-04-19T10:00:26.515Z</time></trkpt><trkpt lat="42.1068151" lon="11.9321195"><ele>353.0</ele><time>2026-04-19T10:00:27.513Z</time></trkpt><trkpt lat="42.1068899" lon="11.9321291"><ele>352.5</ele><time>2026-04-19T10:00:28.512Z</time></trkpt><trkpt lat="42.1069568" lon="11.9321411"><ele>352.0</ele><time>2026-04-19T10:00:29.512Z</time></trkpt><trkpt lat="42.1070203" lon="11.9321651"><ele>352.0</ele><time>2026-04-19T10:00:30.513Z</time></trkpt><trkpt lat="42.1071194" lon="11.9322034"><ele>352.0</ele><time>2026-04-19T10:00:32.511Z</time></trkpt><trkpt lat="42.1072031" lon="11.9322599"><ele>352.0</ele><time>2026-04-19T10:00:34.512Z</time></trkpt><trkpt lat="42.1072706" lon="11.9323164"><ele>352.0</ele><time>2026-04-19T10:00:36.512Z</time></trkpt><trkpt lat="42.107341" lon="11.932378"><ele>352.0</ele><time>2026-04-19T10:00:38.514Z</time></trkpt><trkpt lat="42.1074057" lon="11.9324223"><ele>352.0</ele><time>2026-04-19T10:00:40.512Z</time></trkpt><trkpt lat="42.1074717" lon="11.9324629"><ele>353.0</ele><time>2026-04-19T10:00:42.513Z</time></trkpt><trkpt lat="42.1075341" lon="11.9325086"><ele>354.0</ele><time>2026-04-19T10:00:44.513Z</time></trkpt><trkpt lat="42.1076177" lon="11.9325563"><ele>355.0</ele><time>2026-04-19T10:00:47.51Z</time></trkpt><trkpt lat="42.1076987" lon="11.9325968"><ele>356.0</ele><time>2026-04-19T10:00:50.511Z</time></trkpt><trkpt lat="42.1077709" lon="11.9326467"><ele>357.0</ele><time>2026-04-19T10:00:53.511Z</time></trkpt><trkpt lat="42.107843" lon="11.9327119"><ele>358.0</ele><time>2026-04-19T10:00:56.514Z</time></trkpt><trkpt lat="42.107917" lon="11.9327766"><ele>358.00000000000006</ele><time>2026-04-19T10:00:59.514Z</time></trkpt><trkpt lat="42.1079764" lon="11.9328124"><ele>358.0</ele><time>2026-04-19T10:01:01.513Z</time></trkpt><trkpt lat="42.1080372" lon="11.9328482"><ele>358.0</ele><time>2026-04-19T10:01:03.514Z</time></trkpt><trkpt lat="42.1080954" lon="11.9328833"><ele>358.0</ele><time>2026-04-19T10:01:05.514Z</time></trkpt><trkpt lat="42.1081587" lon="11.9328907"><ele>358.0</ele><time>2026-04-19T10:01:07.512Z</time></trkpt><trkpt lat="42.1082305" lon="11.93289"><ele>358.00000000000006</ele><time>2026-04-19T10:01:09.515Z</time></trkpt><trkpt lat="42.108306" lon="11.9328946"><ele>358.0</ele><time>2026-04-19T10:01:11.514Z</time></trkpt><trkpt lat="42.1083726" lon="11.9328978"><ele>359.7142857142857</ele><time>2026-04-19T10:01:13.512Z</time></trkpt><trkpt lat="42.1084475" lon="11.9328861"><ele>361.42857142857144</ele><time>2026-04-19T10:01:15.511Z</time></trkpt><trkpt lat="42.1085166" lon="11.9328664"><ele>363.1428571428571</ele><time>2026-04-19T10:01:17.513Z</time></trkpt><trkpt lat="42.1085796" lon="11.9328316"><ele>364.8571428571429</ele><time>2026-04-19T10:01:19.512Z</time></trkpt><trkpt lat="42.1086384" lon="11.932782"><ele>366.57142857142856</ele><time>2026-04-19T10:01:21.513Z</time></trkpt><trkpt lat="42.1086997" lon="11.9327379"><ele>368.2857142857143</ele><time>2026-04-19T10:01:23.512Z</time></trkpt><trkpt lat="42.108763" lon="11.9326916"><ele>370.0</ele><time>2026-04-19T10:01:25.512Z</time></trkpt><trkpt lat="42.1088188" lon="11.9326406"><ele>369.99999999999994</ele><time>2026-04-19T10:01:27.512Z</time></trkpt><trkpt lat="42.1088789" lon="11.9325845"><ele>370.0</ele><time>2026-04-19T10:01:29.512Z</time></trkpt><trkpt lat="42.1089384" lon="11.9325259"><ele>370.0</ele><time>2026-04-19T10:01:31.513Z</time></trkpt><trkpt lat="42.1089986" lon="11.9324844"><ele>370.0</ele><time>2026-04-19T10:01:33.512Z</time></trkpt><trkpt lat="42.109062" lon="11.932449"><ele>370.0</ele><time>2026-04-19T10:01:35.511Z</time></trkpt><trkpt lat="42.1091229" lon="11.9324108"><ele>369.99999999999994</ele><time>2026-04-19T10:01:37.515Z</time></trkpt><trkpt lat="42.1091825" lon="11.9323651"><ele>370.0</ele><time>2026-04-19T10:01:39.511Z</time></trkpt><trkpt lat="42.1092449" lon="11.9323258"><ele>371.99999999999994</ele><time>2026-04-19T10:01:41.514Z</time></trkpt><trkpt lat="42.1093057" lon="11.9322891"><ele>374.0</ele><time>2026-04-19T10:01:43.513Z</time></trkpt><trkpt lat="42.1093659" lon="11.9322491"><ele>376.0</ele><time>2026-04-19T10:01:45.514Z</time></trkpt><trkpt lat="42.1094192" lon="11.9321885"><ele>378.0</ele><time>2026-04-19T10:01:47.512Z</time></trkpt><trkpt lat="42.1094823" lon="11.9321347"><ele>380.0</ele><time>2026-04-19T10:01:49.515Z</time></trkpt><trkpt lat="42.1095467" lon="11.932087"><ele>381.99999999999994</ele><time>2026-04-19T10:01:51.515Z</time></trkpt><trkpt lat="42.1096118" lon="11.9320368"><ele>384.0</ele><time>2026-04-19T10:01:53.512Z</time></trkpt><trkpt lat="42.1096752" lon="11.931984"><ele>383.99999999999994</ele><time>2026-04-19T10:01:55.512Z</time></trkpt><trkpt lat="42.1097381" lon="11.9319361"><ele>384.0</ele><time>2026-04-19T10:01:57.512Z</time></trkpt><trkpt lat="42.1098025" lon="11.9318904"><ele>384.0</ele><time>2026-04-19T10:01:59.512Z</time></trkpt><trkpt lat="42.1098689" lon="11.9318491"><ele>384.0</ele><time>2026-04-19T10:02:01.515Z</time></trkpt><trkpt lat="42.109935" lon="11.9318159"><ele>384.0</ele><time>2026-04-19T10:02:03.514Z</time></trkpt><trkpt lat="42.1099991" lon="11.9317857"><ele>383.99999999999994</ele><time>2026-04-19T10:02:05.515Z</time></trkpt><trkpt lat="42.1100679" lon="11.9317606"><ele>384.0</ele><time>2026-04-19T10:02:07.515Z</time></trkpt><trkpt lat="42.1101406" lon="11.9317433"><ele>384.85714285714283</ele><time>2026-04-19T10:02:09.515Z</time></trkpt><trkpt lat="42.1102118" lon="11.9317325"><ele>385.7142857142857</ele><time>2026-04-19T10:02:11.514Z</time></trkpt><trkpt lat="42.1102795" lon="11.9317227"><ele>386.57142857142856</ele><time>2026-04-19T10:02:13.512Z</time></trkpt><trkpt lat="42.1103472" lon="11.931713"><ele>387.42857142857144</ele><time>2026-04-19T10:02:15.513Z</time></trkpt><trkpt lat="42.1104169" lon="11.9317"><ele>388.2857142857143</ele><time>2026-04-19T10:02:17.512Z</time></trkpt><trkpt lat="42.1104863" lon="11.9316846"><ele>389.1428571428571</ele><time>2026-04-19T10:02:19.515Z</time></trkpt><trkpt lat="42.1105573" lon="11.9316728"><ele>390.0</ele><time>2026-04-19T10:02:21.524Z</time></trkpt><trkpt lat="42.1106288" lon="11.9316608"><ele>390.85714285714283</ele><time>2026-04-19T10:02:23.514Z</time></trkpt><trkpt lat="42.1106986" lon="11.9316509"><ele>391.71428571428567</ele><time>2026-04-19T10:02:25.514Z</time></trkpt><trkpt lat="42.1107677" lon="11.9316404"><ele>392.57142857142856</ele><time>2026-04-19T10:02:27.514Z</time></trkpt><trkpt lat="42.1108366" lon="11.9316344"><ele>393.42857142857144</ele><time>2026-04-19T10:02:29.514Z</time></trkpt><trkpt lat="42.1109328" lon="11.9316276"><ele>394.2857142857143</ele><time>2026-04-19T10:02:32.514Z</time></trkpt><trkpt lat="42.1110017" lon="11.9316195"><ele>395.14285714285717</ele><time>2026-04-19T10:02:34.514Z</time></trkpt><trkpt lat="42.1110654" lon="11.9316448"><ele>396.0</ele><time>2026-04-19T10:02:36.514Z</time></trkpt><trkpt lat="42.1111171" lon="11.9316947"><ele>396.7142857142857</ele><time>2026-04-19T10:02:38.514Z</time></trkpt><trkpt lat="42.1111641" lon="11.9317599"><ele>397.4285714285714</ele><time>2026-04-19T10:02:40.514Z</time></trkpt><trkpt lat="42.1112019" lon="11.9318362"><ele>398.1428571428571</ele><time>2026-04-19T10:02:42.514Z</time></trkpt><trkpt lat="42.1112469" lon="11.9319081"><ele>398.8571428571429</ele><time>2026-04-19T10:02:44.515Z</time></trkpt><trkpt lat="42.1112875" lon="11.9319744"><ele>399.57142857142856</ele><time>2026-04-19T10:02:46.514Z</time></trkpt><trkpt lat="42.1113257" lon="11.9320453"><ele>400.2857142857143</ele><time>2026-04-19T10:02:48.514Z</time></trkpt><trkpt lat="42.1113659" lon="11.9321153"><ele>401.0</ele><time>2026-04-19T10:02:50.513Z</time></trkpt><trkpt lat="42.1114105" lon="11.9321879"><ele>401.0</ele><time>2026-04-19T10:02:52.515Z</time></trkpt><trkpt lat="42.1114564" lon="11.9322692"><ele>401.0</ele><time>2026-04-19T10:02:54.512Z</time></trkpt><trkpt lat="42.1115031" lon="11.932353"><ele>401.0</ele><time>2026-04-19T10:02:56.514Z</time></trkpt><trkpt lat="42.1115526" lon="11.9324243"><ele>401.0</ele><time>2026-04-19T10:02:58.513Z</time></trkpt><trkpt lat="42.1116186" lon="11.9324729"><ele>401.0</ele><time>2026-04-19T10:03:00.514Z</time></trkpt><trkpt lat="42.111689" lon="11.9324876"><ele>401.0</ele><time>2026-04-19T10:03:02.514Z</time></trkpt><trkpt lat="42.111759" lon="11.9324858"><ele>401.0</ele><time>2026-04-19T10:03:04.514Z</time></trkpt><trkpt lat="42.1118268" lon="11.9324705"><ele>403.0</ele><time>2026-04-19T10:03:06.515Z</time></trkpt><trkpt lat="42.1118895" lon="11.9324333"><ele>405.0</ele><time>2026-04-19T10:03:08.512Z</time></trkpt><trkpt lat="42.1119565" lon="11.9323964"><ele>407.0</ele><time>2026-04-19T10:03:10.515Z</time></trkpt><trkpt lat="42.1120236" lon="11.9323583"><ele>409.0</ele><time>2026-04-19T10:03:12.515Z</time></trkpt><trkpt lat="42.1120853" lon="11.9323153"><ele>411.0</ele><time>2026-04-19T10:03:14.512Z</time></trkpt><trkpt lat="42.1121477" lon="11.9322707"><ele>413.0</ele><time>2026-04-19T10:03:16.511Z</time></trkpt><trkpt lat="42.1122149" lon="11.932221"><ele>415.0</ele><time>2026-04-19T10:03:18.515Z</time></trkpt><trkpt lat="42.1122854" lon="11.932189"><ele>415.0</ele><time>2026-04-19T10:03:20.515Z</time></trkpt><trkpt lat="42.1123441" lon="11.9321416"><ele>415.0</ele><time>2026-04-19T10:03:22.513Z</time></trkpt><trkpt lat="42.1124118" lon="11.9321117"><ele>415.0</ele><time>2026-04-19T10:03:24.515Z</time></trkpt><trkpt lat="42.1124821" lon="11.9321058"><ele>415.0</ele><time>2026-04-19T10:03:26.514Z</time></trkpt><trkpt lat="42.1125445" lon="11.9321247"><ele>415.0</ele><time>2026-04-19T10:03:28.513Z</time></trkpt><trkpt lat="42.1126092" lon="11.9321523"><ele>415.0</ele><time>2026-04-19T10:03:30.513Z</time></trkpt><trkpt lat="42.1126717" lon="11.9321935"><ele>415.0</ele><time>2026-04-19T10:03:32.513Z</time></trkpt><trkpt lat="42.1127305" lon="11.9322368"><ele>416.33333333333337</ele><time>2026-04-19T10:03:34.512Z</time></trkpt><trkpt lat="42.1128054" lon="11.9323047"><ele>417.6666666666667</ele><time>2026-04-19T10:03:37.513Z</time></trkpt><trkpt lat="42.1128715" lon="11.9323705"><ele>419.0</ele><time>2026-04-19T10:03:40.515Z</time></trkpt><trkpt lat="42.1129166" lon="11.9324337"><ele>420.33333333333337</ele><time>2026-04-19T10:03:43.513Z</time></trkpt><trkpt lat="42.1129794" lon="11.9324776"><ele>421.6666666666667</ele><time>2026-04-19T10:03:48.512Z</time></trkpt><trkpt lat="42.1129997" lon="11.9325849"><ele>423.0</ele><time>2026-04-19T10:04:17.515Z</time></trkpt><trkpt lat="42.1129845" lon="11.9326741"><ele>423.0</ele><time>2026-04-19T10:04:19.513Z</time></trkpt><trkpt lat="42.1129598" lon="11.9327846"><ele>423.0</ele><time>2026-04-19T10:04:21.515Z</time></trkpt><trkpt lat="42.1129387" lon="11.9329134"><ele>423.0</ele><time>2026-04-19T10:04:23.513Z</time></trkpt><trkpt lat="42.1129192" lon="11.9330639"><ele>423.0</ele><time>2026-04-19T10:04:25.513Z</time></trkpt><trkpt lat="42.1128914" lon="11.9332096"><ele>423.0</ele><time>2026-04-19T10:04:27.516Z</time></trkpt><trkpt lat="42.1128576" lon="11.9333503"><ele>423.1428571428571</ele><time>2026-04-19T10:04:29.514Z</time></trkpt><trkpt lat="42.1128372" lon="11.9334407"><ele>423.28571428571433</ele><time>2026-04-19T10:04:30.514Z</time></trkpt><trkpt lat="42.1128212" lon="11.9335269"><ele>423.42857142857144</ele><time>2026-04-19T10:04:31.515Z</time></trkpt><trkpt lat="42.1127979" lon="11.9336167"><ele>423.57142857142856</ele><time>2026-04-19T10:04:32.515Z</time></trkpt><trkpt lat="42.1127755" lon="11.9337091"><ele>423.71428571428567</ele><time>2026-04-19T10:04:33.514Z</time></trkpt><trkpt lat="42.1127584" lon="11.9338023"><ele>423.8571428571429</ele><time>2026-04-19T10:04:34.512Z</time></trkpt><trkpt lat="42.1127448" lon="11.9338904"><ele>424.0</ele><time>2026-04-19T10:04:35.512Z</time></trkpt><trkpt lat="42.1127243" lon="11.9339904"><ele>424.00000000000006</ele><time>2026-04-19T10:04:36.511Z</time></trkpt><trkpt lat="42.1126984" lon="11.9340922"><ele>424.0</ele><time>2026-04-19T10:04:37.514Z</time></trkpt><trkpt lat="42.1126858" lon="11.9341943"><ele>424.0</ele><time>2026-04-19T10:04:38.514Z</time></trkpt><trkpt lat="42.1126651" lon="11.9342956"><ele>424.0</ele><time>2026-04-19T10:04:39.514Z</time></trkpt><trkpt lat="42.1126428" lon="11.9343966"><ele>424.00000000000006</ele><time>2026-04-19T10:04:40.514Z</time></trkpt><trkpt lat="42.1126172" lon="11.9344967"><ele>424.0</ele><time>2026-04-19T10:04:41.52Z</time></trkpt><trkpt lat="42.1125948" lon="11.9345935"><ele>423.1666666666667</ele><time>2026-04-19T10:04:42.515Z</time></trkpt><trkpt lat="42.1125695" lon="11.9346993"><ele>422.33333333333337</ele><time>2026-04-19T10:04:43.514Z</time></trkpt><trkpt lat="42.1125505" lon="11.9348083"><ele>421.5</ele><time>2026-04-19T10:04:44.515Z</time></trkpt><trkpt lat="42.112538" lon="11.9349157"><ele>420.66666666666663</ele><time>2026-04-19T10:04:45.515Z</time></trkpt><trkpt lat="42.1125195" lon="11.9350393"><ele>419.8333333333333</ele><time>2026-04-19T10:04:46.515Z</time></trkpt><trkpt lat="42.1125043" lon="11.9351675"><ele>419.0</ele><time>2026-04-19T10:04:47.514Z</time></trkpt><trkpt lat="42.1124905" lon="11.9353004"><ele>418.0</ele><time>2026-04-19T10:04:48.514Z</time></trkpt><trkpt lat="42.1124716" lon="11.9354418"><ele>417.0</ele><time>2026-04-19T10:04:49.514Z</time></trkpt><trkpt lat="42.1124432" lon="11.9355834"><ele>416.0</ele><time>2026-04-19T10:04:50.514Z</time></trkpt><trkpt lat="42.1124202" lon="11.9357196"><ele>415.0</ele><time>2026-04-19T10:04:51.515Z</time></trkpt><trkpt lat="42.1123989" lon="11.9358694"><ele>414.0</ele><time>2026-04-19T10:04:52.513Z</time></trkpt><trkpt lat="42.1123667" lon="11.9360174"><ele>410.5</ele><time>2026-04-19T10:04:53.514Z</time></trkpt><trkpt lat="42.1123399" lon="11.9361707"><ele>407.0</ele><time>2026-04-19T10:04:54.513Z</time></trkpt><trkpt lat="42.1123117" lon="11.9363207"><ele>403.5</ele><time>2026-04-19T10:04:55.512Z</time></trkpt><trkpt lat="42.1122889" lon="11.9364754"><ele>400.0</ele><time>2026-04-19T10:04:56.513Z</time></trkpt><trkpt lat="42.1122646" lon="11.9366301"><ele>399.8</ele><time>2026-04-19T10:04:57.514Z</time></trkpt><trkpt lat="42.1122416" lon="11.9367794"><ele>399.6</ele><time>2026-04-19T10:04:58.513Z</time></trkpt><trkpt lat="42.1122151" lon="11.9369258"><ele>399.4</ele><time>2026-04-19T10:04:59.513Z</time></trkpt><trkpt lat="42.1121924" lon="11.9370546"><ele>399.2</ele><time>2026-04-19T10:05:00.515Z</time></trkpt><trkpt lat="42.1121719" lon="11.9371809"><ele>399.0</ele><time>2026-04-19T10:05:01.514Z</time></trkpt><trkpt lat="42.1121666" lon="11.9373111"><ele>399.0</ele><time>2026-04-19T10:05:02.513Z</time></trkpt><trkpt lat="42.1121784" lon="11.9374231"><ele>399.0</ele><time>2026-04-19T10:05:03.514Z</time></trkpt><trkpt lat="42.1121854" lon="11.9375323"><ele>399.0</ele><time>2026-04-19T10:05:04.514Z</time></trkpt><trkpt lat="42.1121801" lon="11.9376351"><ele>399.0</ele><time>2026-04-19T10:05:05.514Z</time></trkpt><trkpt lat="42.1121845" lon="11.9377315"><ele>399.0</ele><time>2026-04-19T10:05:06.536Z</time></trkpt><trkpt lat="42.112198" lon="11.9378274"><ele>399.0</ele><time>2026-04-19T10:05:07.514Z</time></trkpt><trkpt lat="42.1122246" lon="11.9379823"><ele>399.1666666666667</ele><time>2026-04-19T10:05:09.514Z</time></trkpt><trkpt lat="42.1122512" lon="11.9380972"><ele>399.33333333333337</ele><time>2026-04-19T10:05:11.515Z</time></trkpt><trkpt lat="42.1122716" lon="11.9382094"><ele>399.5</ele><time>2026-04-19T10:05:13.513Z</time></trkpt><trkpt lat="42.1122965" lon="11.9383276"><ele>399.6666666666667</ele><time>2026-04-19T10:05:15.511Z</time></trkpt><trkpt lat="42.1123205" lon="11.9384152"><ele>399.83333333333337</ele><time>2026-04-19T10:05:17.514Z</time></trkpt><trkpt lat="42.1123588" lon="11.9385102"><ele>400.0</ele><time>2026-04-19T10:05:19.512Z</time></trkpt><trkpt lat="42.1124276" lon="11.93863"><ele>400.0</ele><time>2026-04-19T10:05:21.513Z</time></trkpt><trkpt lat="42.1125037" lon="11.9387208"><ele>400.0</ele><time>2026-04-19T10:05:23.514Z</time></trkpt><trkpt lat="42.1125884" lon="11.9387928"><ele>400.0</ele><time>2026-04-19T10:05:25.511Z</time></trkpt><trkpt lat="42.1126696" lon="11.9388567"><ele>400.0</ele><time>2026-04-19T10:05:27.514Z</time></trkpt><trkpt lat="42.1127617" lon="11.9389226"><ele>400.0</ele><time>2026-04-19T10:05:29.516Z</time></trkpt><trkpt lat="42.112866" lon="11.9389929"><ele>400.0</ele><time>2026-04-19T10:05:31.512Z</time></trkpt><trkpt lat="42.1129773" lon="11.939063"><ele>400.0</ele><time>2026-04-19T10:05:33.512Z</time></trkpt><trkpt lat="42.1130838" lon="11.9391392"><ele>400.0</ele><time>2026-04-19T10:05:35.511Z</time></trkpt><trkpt lat="42.1131833" lon="11.9392157"><ele>400.0</ele><time>2026-04-19T10:05:37.514Z</time></trkpt><trkpt lat="42.1132945" lon="11.9393047"><ele>399.42857142857144</ele><time>2026-04-19T10:05:39.514Z</time></trkpt><trkpt lat="42.1133559" lon="11.9393463"><ele>398.8571428571429</ele><time>2026-04-19T10:05:40.516Z</time></trkpt><trkpt lat="42.1134147" lon="11.9393873"><ele>398.28571428571433</ele><time>2026-04-19T10:05:41.516Z</time></trkpt><trkpt lat="42.1134788" lon="11.9394197"><ele>397.7142857142857</ele><time>2026-04-19T10:05:42.515Z</time></trkpt><trkpt lat="42.1135471" lon="11.9394387"><ele>397.1428571428571</ele><time>2026-04-19T10:05:43.516Z</time></trkpt><trkpt lat="42.1136167" lon="11.9394555"><ele>396.5714285714286</ele><time>2026-04-19T10:05:44.515Z</time></trkpt><trkpt lat="42.1136861" lon="11.9394544"><ele>396.0</ele><time>2026-04-19T10:05:45.517Z</time></trkpt><trkpt lat="42.1137542" lon="11.9394498"><ele>396.0</ele><time>2026-04-19T10:05:46.515Z</time></trkpt><trkpt lat="42.1138236" lon="11.9394717"><ele>396.0</ele><time>2026-04-19T10:05:47.516Z</time></trkpt><trkpt lat="42.1138832" lon="11.9395157"><ele>396.0</ele><time>2026-04-19T10:05:48.52Z</time></trkpt><trkpt lat="42.1139355" lon="11.9395781"><ele>396.0</ele><time>2026-04-19T10:05:49.516Z</time></trkpt><trkpt lat="42.1139765" lon="11.9397195"><ele>396.0</ele><time>2026-04-19T10:05:51.517Z</time></trkpt><trkpt lat="42.1140209" lon="11.9398429"><ele>396.0</ele><time>2026-04-19T10:05:53.521Z</time></trkpt><trkpt lat="42.1140507" lon="11.9399662"><ele>397.5</ele><time>2026-04-19T10:05:55.516Z</time></trkpt><trkpt lat="42.1140831" lon="11.9400903"><ele>399.0</ele><time>2026-04-19T10:05:57.521Z</time></trkpt><trkpt lat="42.1140872" lon="11.9402067"><ele>400.5</ele><time>2026-04-19T10:05:59.514Z</time></trkpt><trkpt lat="42.114107" lon="11.9403097"><ele>402.0</ele><time>2026-04-19T10:06:01.513Z</time></trkpt><trkpt lat="42.1141656" lon="11.9404026"><ele>403.5</ele><time>2026-04-19T10:06:04.512Z</time></trkpt><trkpt lat="42.1141989" lon="11.9404956"><ele>405.0</ele><time>2026-04-19T10:06:07.512Z</time></trkpt><trkpt lat="42.1142228" lon="11.9405798"><ele>405.0</ele><time>2026-04-19T10:06:10.518Z</time></trkpt><trkpt lat="42.1142703" lon="11.9406969"><ele>405.0</ele><time>2026-04-19T10:06:13.512Z</time></trkpt><trkpt lat="42.1143167" lon="11.9407791"><ele>405.0</ele><time>2026-04-19T10:06:15.511Z</time></trkpt><trkpt lat="42.1143477" lon="11.9408714"><ele>405.0</ele><time>2026-04-19T10:06:17.512Z</time></trkpt><trkpt lat="42.1143685" lon="11.9409684"><ele>405.0</ele><time>2026-04-19T10:06:19.514Z</time></trkpt><trkpt lat="42.114385" lon="11.9410667"><ele>405.0</ele><time>2026-04-19T10:06:22.513Z</time></trkpt><trkpt lat="42.1144005" lon="11.9411577"><ele>404.8333333333333</ele><time>2026-04-19T10:06:26.513Z</time></trkpt><trkpt lat="42.1144131" lon="11.9412603"><ele>404.66666666666663</ele><time>2026-04-19T10:06:29.515Z</time></trkpt><trkpt lat="42.1144168" lon="11.941347"><ele>404.5</ele><time>2026-04-19T10:06:31.513Z</time></trkpt><trkpt lat="42.1144216" lon="11.9414419"><ele>404.3333333333333</ele><time>2026-04-19T10:06:33.515Z</time></trkpt><trkpt lat="42.114424" lon="11.9415629"><ele>404.16666666666663</ele><time>2026-04-19T10:06:36.511Z</time></trkpt><trkpt lat="42.1144261" lon="11.9416842"><ele>404.0</ele><time>2026-04-19T10:06:39.512Z</time></trkpt><trkpt lat="42.114411" lon="11.9417708"><ele>404.3333333333333</ele><time>2026-04-19T10:06:41.514Z</time></trkpt><trkpt lat="42.1143846" lon="11.9418786"><ele>404.66666666666663</ele><time>2026-04-19T10:06:44.514Z</time></trkpt><trkpt lat="42.1143605" lon="11.9419753"><ele>405.0</ele><time>2026-04-19T10:06:47.511Z</time></trkpt><trkpt lat="42.114316" lon="11.9420745"><ele>405.33333333333337</ele><time>2026-04-19T10:06:51.517Z</time></trkpt><trkpt lat="42.1142787" lon="11.9421741"><ele>405.6666666666667</ele><time>2026-04-19T10:06:54.513Z</time></trkpt><trkpt lat="42.1142529" lon="11.9422674"><ele>406.0</ele><time>2026-04-19T10:06:57.513Z</time></trkpt><trkpt lat="42.1142953" lon="11.9423548"><ele>406.0</ele><time>2026-04-19T10:07:01.513Z</time></trkpt><trkpt lat="42.114378" lon="11.9424298"><ele>406.0</ele><time>2026-04-19T10:08:51.514Z</time></trkpt><trkpt lat="42.1144478" lon="11.9425314"><ele>406.0</ele><time>2026-04-19T10:08:53.522Z</time></trkpt><trkpt lat="42.1145496" lon="11.9426241"><ele>406.0</ele><time>2026-04-19T10:08:55.514Z</time></trkpt><trkpt lat="42.114608" lon="11.9426602"><ele>406.0</ele><time>2026-04-19T10:08:56.513Z</time></trkpt><trkpt lat="42.1147103" lon="11.9426879"><ele>404.6</ele><time>2026-04-19T10:08:58.515Z</time></trkpt><trkpt lat="42.1147876" lon="11.9427079"><ele>403.20000000000005</ele><time>2026-04-19T10:09:00.512Z</time></trkpt><trkpt lat="42.11484" lon="11.94279"><ele>401.79999999999995</ele><time>2026-04-19T10:09:02.513Z</time></trkpt><trkpt lat="42.1148403" lon="11.9429198"><ele>400.4</ele><time>2026-04-19T10:09:04.53Z</time></trkpt><trkpt lat="42.114798" lon="11.9430706"><ele>399.0</ele><time>2026-04-19T10:09:06.515Z</time></trkpt><trkpt lat="42.1147668" lon="11.9432144"><ele>399.0</ele><time>2026-04-19T10:09:08.514Z</time></trkpt><trkpt lat="42.1147546" lon="11.9433541"><ele>399.0</ele><time>2026-04-19T10:09:10.517Z</time></trkpt><trkpt lat="42.114739" lon="11.9435135"><ele>399.0</ele><time>2026-04-19T10:09:12.514Z</time></trkpt><trkpt lat="42.1146884" lon="11.9436579"><ele>399.0</ele><time>2026-04-19T10:09:14.515Z</time></trkpt><trkpt lat="42.1146348" lon="11.9437641"><ele>399.0</ele><time>2026-04-19T10:09:16.511Z</time></trkpt><trkpt lat="42.1145885" lon="11.9438776"><ele>396.6</ele><time>2026-04-19T10:09:18.514Z</time></trkpt><trkpt lat="42.1145657" lon="11.9439892"><ele>394.2</ele><time>2026-04-19T10:09:20.514Z</time></trkpt><trkpt lat="42.1145748" lon="11.9441225"><ele>391.8</ele><time>2026-04-19T10:09:22.513Z</time></trkpt><trkpt lat="42.1145648" lon="11.9442732"><ele>389.40000000000003</ele><time>2026-04-19T10:09:24.514Z</time></trkpt><trkpt lat="42.1145572" lon="11.9444327"><ele>387.0</ele><time>2026-04-19T10:09:26.514Z</time></trkpt><trkpt lat="42.1145567" lon="11.9445184"><ele>384.8333333333333</ele><time>2026-04-19T10:09:27.515Z</time></trkpt><trkpt lat="42.1145588" lon="11.944619"><ele>382.6666666666667</ele><time>2026-04-19T10:09:28.512Z</time></trkpt><trkpt lat="42.1145457" lon="11.9447083"><ele>380.5</ele><time>2026-04-19T10:09:29.515Z</time></trkpt><trkpt lat="42.1145298" lon="11.9447919"><ele>378.33333333333337</ele><time>2026-04-19T10:09:30.513Z</time></trkpt><trkpt lat="42.1145424" lon="11.9449173"><ele>376.1666666666667</ele><time>2026-04-19T10:09:32.513Z</time></trkpt><trkpt lat="42.1146043" lon="11.9449633"><ele>374.0</ele><time>2026-04-19T10:09:34.512Z</time></trkpt><trkpt lat="42.1146763" lon="11.9449202"><ele>374.0</ele><time>2026-04-19T10:09:36.512Z</time></trkpt><trkpt lat="42.1147425" lon="11.9449029"><ele>374.0</ele><time>2026-04-19T10:09:39.516Z</time></trkpt><trkpt lat="42.1148012" lon="11.9449689"><ele>374.0</ele><time>2026-04-19T10:09:42.519Z</time></trkpt><trkpt lat="42.1147645" lon="11.945079"><ele>374.0</ele><time>2026-04-19T10:09:45.515Z</time></trkpt><trkpt lat="42.1147281" lon="11.9451672"><ele>374.0</ele><time>2026-04-19T10:09:47.515Z</time></trkpt><trkpt lat="42.1147075" lon="11.9452495"><ele>374.0</ele><time>2026-04-19T10:09:49.516Z</time></trkpt><trkpt lat="42.1147049" lon="11.9453636"><ele>372.1666666666667</ele><time>2026-04-19T10:09:52.516Z</time></trkpt><trkpt lat="42.1147082" lon="11.945461"><ele>370.33333333333337</ele><time>2026-04-19T10:09:55.512Z</time></trkpt><trkpt lat="42.1146745" lon="11.9455904"><ele>368.5</ele><time>2026-04-19T10:09:58.515Z</time></trkpt><trkpt lat="42.114662" lon="11.9457042"><ele>366.6666666666667</ele><time>2026-04-19T10:10:00.515Z</time></trkpt><trkpt lat="42.1146612" lon="11.9458028"><ele>364.8333333333333</ele><time>2026-04-19T10:10:03.514Z</time></trkpt><trkpt lat="42.11465" lon="11.9459112"><ele>363.0</ele><time>2026-04-19T10:10:07.516Z</time></trkpt><trkpt lat="42.1146411" lon="11.9460026"><ele>362.2857142857143</ele><time>2026-04-19T10:10:10.517Z</time></trkpt><trkpt lat="42.1146384" lon="11.9460894"><ele>361.57142857142856</ele><time>2026-04-19T10:10:12.514Z</time></trkpt><trkpt lat="42.1146521" lon="11.9461902"><ele>360.8571428571429</ele><time>2026-04-19T10:10:14.512Z</time></trkpt><trkpt lat="42.1146714" lon="11.9462711"><ele>360.1428571428571</ele><time>2026-04-19T10:10:16.512Z</time></trkpt><trkpt lat="42.1146974" lon="11.9463781"><ele>359.42857142857144</ele><time>2026-04-19T10:10:19.511Z</time></trkpt><trkpt lat="42.1147313" lon="11.9464524"><ele>358.7142857142857</ele><time>2026-04-19T10:10:21.514Z</time></trkpt><trkpt lat="42.1147614" lon="11.9465582"><ele>358.0</ele><time>2026-04-19T10:10:24.513Z</time></trkpt><trkpt lat="42.1147865" lon="11.9466685"><ele>358.0</ele><time>2026-04-19T10:10:27.52Z</time></trkpt><trkpt lat="42.114829" lon="11.9467461"><ele>358.0</ele><time>2026-04-19T10:10:29.512Z</time></trkpt><trkpt lat="42.1149083" lon="11.9468446"><ele>358.0</ele><time>2026-04-19T10:10:31.519Z</time></trkpt><trkpt lat="42.1149704" lon="11.9469788"><ele>358.0</ele><time>2026-04-19T10:10:33.513Z</time></trkpt><trkpt lat="42.1149928" lon="11.9471152"><ele>358.0</ele><time>2026-04-19T10:10:35.513Z</time></trkpt><trkpt lat="42.1150096" lon="11.9472246"><ele>359.8333333333333</ele><time>2026-04-19T10:10:37.514Z</time></trkpt><trkpt lat="42.115044" lon="11.9473094"><ele>361.66666666666663</ele><time>2026-04-19T10:10:39.513Z</time></trkpt><trkpt lat="42.1150732" lon="11.9473971"><ele>363.5</ele><time>2026-04-19T10:10:41.515Z</time></trkpt><trkpt lat="42.1151154" lon="11.9474939"><ele>365.3333333333333</ele><time>2026-04-19T10:10:43.514Z</time></trkpt><trkpt lat="42.1151776" lon="11.9475733"><ele>367.1666666666667</ele><time>2026-04-19T10:10:45.516Z</time></trkpt><trkpt lat="42.1152246" lon="11.9476847"><ele>369.0</ele><time>2026-04-19T10:10:47.516Z</time></trkpt><trkpt lat="42.115258" lon="11.9478047"><ele>369.0</ele><time>2026-04-19T10:10:49.512Z</time></trkpt><trkpt lat="42.1153201" lon="11.9479607"><ele>369.0</ele><time>2026-04-19T10:10:51.515Z</time></trkpt><trkpt lat="42.115346" lon="11.9480466"><ele>369.0</ele><time>2026-04-19T10:10:52.515Z</time></trkpt><trkpt lat="42.1153783" lon="11.9481292"><ele>369.0</ele><time>2026-04-19T10:10:53.516Z</time></trkpt><trkpt lat="42.1154097" lon="11.948211"><ele>369.0</ele><time>2026-04-19T10:10:54.511Z</time></trkpt><trkpt lat="42.1154499" lon="11.9482904"><ele>369.0</ele><time>2026-04-19T10:10:55.512Z</time></trkpt><trkpt lat="42.1154961" lon="11.9483726"><ele>368.2857142857143</ele><time>2026-04-19T10:10:56.511Z</time></trkpt><trkpt lat="42.1155318" lon="11.9484507"><ele>367.57142857142856</ele><time>2026-04-19T10:10:57.515Z</time></trkpt><trkpt lat="42.1155571" lon="11.9485338"><ele>366.8571428571429</ele><time>2026-04-19T10:10:58.515Z</time></trkpt><trkpt lat="42.1155852" lon="11.9486197"><ele>366.1428571428571</ele><time>2026-04-19T10:10:59.514Z</time></trkpt><trkpt lat="42.1155985" lon="11.9487274"><ele>365.42857142857144</ele><time>2026-04-19T10:11:00.52Z</time></trkpt><trkpt lat="42.1156426" lon="11.9488131"><ele>364.7142857142857</ele><time>2026-04-19T10:11:01.516Z</time></trkpt><trkpt lat="42.1156585" lon="11.9489154"><ele>364.0</ele><time>2026-04-19T10:11:02.518Z</time></trkpt><trkpt lat="42.115662" lon="11.9490204"><ele>364.0</ele><time>2026-04-19T10:11:03.514Z</time></trkpt><trkpt lat="42.1156507" lon="11.949127"><ele>364.0</ele><time>2026-04-19T10:11:04.514Z</time></trkpt><trkpt lat="42.1156501" lon="11.9492187"><ele>364.0</ele><time>2026-04-19T10:11:05.514Z</time></trkpt><trkpt lat="42.1156566" lon="11.9493116"><ele>364.0</ele><time>2026-04-19T10:11:06.516Z</time></trkpt><trkpt lat="42.1156442" lon="11.9494072"><ele>364.0</ele><time>2026-04-19T10:11:07.515Z</time></trkpt><trkpt lat="42.1156264" lon="11.9494997"><ele>364.0</ele><time>2026-04-19T10:11:08.515Z</time></trkpt><trkpt lat="42.1156039" lon="11.949648"><ele>362.0</ele><time>2026-04-19T10:11:10.512Z</time></trkpt><trkpt lat="42.1155808" lon="11.9497788"><ele>360.0</ele><time>2026-04-19T10:11:12.516Z</time></trkpt><trkpt lat="42.1155637" lon="11.9499199"><ele>358.0</ele><time>2026-04-19T10:11:14.511Z</time></trkpt><trkpt lat="42.1155248" lon="11.9500291"><ele>356.0</ele><time>2026-04-19T10:11:16.513Z</time></trkpt><trkpt lat="42.1155331" lon="11.9501439"><ele>354.0</ele><time>2026-04-19T10:11:18.512Z</time></trkpt><trkpt lat="42.1156139" lon="11.9502238"><ele>353.3333333333333</ele><time>2026-04-19T10:11:20.528Z</time></trkpt><trkpt lat="42.1156782" lon="11.950248"><ele>352.6666666666667</ele><time>2026-04-19T10:11:21.513Z</time></trkpt><trkpt lat="42.1157974" lon="11.950309"><ele>352.0</ele><time>2026-04-19T10:11:23.513Z</time></trkpt><trkpt lat="42.1158577" lon="11.9503484"><ele>351.33333333333337</ele><time>2026-04-19T10:11:24.517Z</time></trkpt><trkpt lat="42.1159355" lon="11.9503968"><ele>350.6666666666667</ele><time>2026-04-19T10:11:25.517Z</time></trkpt><trkpt lat="42.1160046" lon="11.9504324"><ele>350.0</ele><time>2026-04-19T10:11:26.512Z</time></trkpt><trkpt lat="42.1160867" lon="11.9504604"><ele>351.2857142857143</ele><time>2026-04-19T10:11:27.512Z</time></trkpt><trkpt lat="42.1161482" lon="11.9504861"><ele>352.57142857142856</ele><time>2026-04-19T10:11:28.513Z</time></trkpt><trkpt lat="42.1162114" lon="11.9504668"><ele>353.8571428571429</ele><time>2026-04-19T10:11:29.513Z</time></trkpt><trkpt lat="42.1162883" lon="11.950451"><ele>355.1428571428571</ele><time>2026-04-19T10:11:30.519Z</time></trkpt><trkpt lat="42.1163494" lon="11.9504724"><ele>356.42857142857144</ele><time>2026-04-19T10:11:31.514Z</time></trkpt><trkpt lat="42.1164197" lon="11.9504898"><ele>357.7142857142857</ele><time>2026-04-19T10:11:32.515Z</time></trkpt><trkpt lat="42.1164855" lon="11.9505054"><ele>359.0</ele><time>2026-04-19T10:11:33.512Z</time></trkpt><trkpt lat="42.1165619" lon="11.9505028"><ele>359.1666666666667</ele><time>2026-04-19T10:11:34.512Z</time></trkpt><trkpt lat="42.1166383" lon="11.9505154"><ele>359.33333333333337</ele><time>2026-04-19T10:11:35.512Z</time></trkpt><trkpt lat="42.1167159" lon="11.9505371"><ele>359.5</ele><time>2026-04-19T10:11:36.512Z</time></trkpt><trkpt lat="42.1168022" lon="11.9505739"><ele>359.6666666666667</ele><time>2026-04-19T10:11:37.514Z</time></trkpt><trkpt lat="42.1168739" lon="11.9506061"><ele>359.8333333333333</ele><time>2026-04-19T10:11:38.512Z</time></trkpt><trkpt lat="42.1169414" lon="11.9506313"><ele>360.0</ele><time>2026-04-19T10:11:39.513Z</time></trkpt><trkpt lat="42.1170477" lon="11.9506141"><ele>360.0</ele><time>2026-04-19T10:11:41.517Z</time></trkpt><trkpt lat="42.1171342" lon="11.9506048"><ele>360.0</ele><time>2026-04-19T10:11:43.513Z</time></trkpt><trkpt lat="42.1172274" lon="11.9506611"><ele>360.0</ele><time>2026-04-19T10:11:45.513Z</time></trkpt><trkpt lat="42.1173436" lon="11.950692"><ele>360.0</ele><time>2026-04-19T10:11:47.52Z</time></trkpt><trkpt lat="42.1174176" lon="11.9507069"><ele>360.0</ele><time>2026-04-19T10:11:48.513Z</time></trkpt><trkpt lat="42.1174816" lon="11.9507184"><ele>360.0</ele><time>2026-04-19T10:11:49.512Z</time></trkpt><trkpt lat="42.1175299" lon="11.9507741"><ele>359.8</ele><time>2026-04-19T10:11:50.516Z</time></trkpt><trkpt lat="42.1175964" lon="11.9508849"><ele>359.6</ele><time>2026-04-19T10:11:52.524Z</time></trkpt><trkpt lat="42.1175753" lon="11.9510271"><ele>359.4</ele><time>2026-04-19T10:11:54.514Z</time></trkpt><trkpt lat="42.1175623" lon="11.9511876"><ele>359.2</ele><time>2026-04-19T10:11:56.511Z</time></trkpt><trkpt lat="42.1175595" lon="11.9513126"><ele>359.0</ele><time>2026-04-19T10:11:58.515Z</time></trkpt><trkpt lat="42.1176064" lon="11.9514256"><ele>359.0</ele><time>2026-04-19T10:12:00.515Z</time></trkpt><trkpt lat="42.1176937" lon="11.9515114"><ele>359.0</ele><time>2026-04-19T10:12:02.522Z</time></trkpt><trkpt lat="42.1178091" lon="11.9515823"><ele>359.0</ele><time>2026-04-19T10:12:04.52Z</time></trkpt><trkpt lat="42.117866" lon="11.9516312"><ele>359.0</ele><time>2026-04-19T10:12:05.522Z</time></trkpt><trkpt lat="42.1179502" lon="11.9516703"><ele>359.0</ele><time>2026-04-19T10:12:07.515Z</time></trkpt><trkpt lat="42.1180139" lon="11.9516965"><ele>359.0</ele><time>2026-04-19T10:12:09.513Z</time></trkpt><trkpt lat="42.1180844" lon="11.9516994"><ele>359.0</ele><time>2026-04-19T10:12:11.514Z</time></trkpt><trkpt lat="42.118178" lon="11.9517298"><ele>359.0</ele><time>2026-04-19T10:12:14.513Z</time></trkpt><trkpt lat="42.118246" lon="11.9517648"><ele>359.0</ele><time>2026-04-19T10:12:16.512Z</time></trkpt><trkpt lat="42.1183069" lon="11.9517909"><ele>359.0</ele><time>2026-04-19T10:12:18.513Z</time></trkpt><trkpt lat="42.1183711" lon="11.9518256"><ele>359.0</ele><time>2026-04-19T10:12:20.515Z</time></trkpt><trkpt lat="42.1184411" lon="11.95188"><ele>359.2</ele><time>2026-04-19T10:12:22.513Z</time></trkpt><trkpt lat="42.1185426" lon="11.9519513"><ele>359.4</ele><time>2026-04-19T10:12:24.512Z</time></trkpt><trkpt lat="42.1186634" lon="11.9520344"><ele>359.6</ele><time>2026-04-19T10:12:26.515Z</time></trkpt><trkpt lat="42.1187375" lon="11.9520832"><ele>359.8</ele><time>2026-04-19T10:12:27.52Z</time></trkpt><trkpt lat="42.1188098" lon="11.9521381"><ele>360.0</ele><time>2026-04-19T10:12:28.515Z</time></trkpt><trkpt lat="42.118865" lon="11.9522018"><ele>360.0</ele><time>2026-04-19T10:12:29.512Z</time></trkpt><trkpt lat="42.1189143" lon="11.9522983"><ele>360.0</ele><time>2026-04-19T10:12:30.511Z</time></trkpt><trkpt lat="42.1189531" lon="11.952381"><ele>360.0</ele><time>2026-04-19T10:12:31.512Z</time></trkpt><trkpt lat="42.1189979" lon="11.9524616"><ele>360.0</ele><time>2026-04-19T10:12:32.514Z</time></trkpt><trkpt lat="42.1190354" lon="11.9525448"><ele>360.0</ele><time>2026-04-19T10:12:33.519Z</time></trkpt><trkpt lat="42.119075" lon="11.9526327"><ele>360.0</ele><time>2026-04-19T10:12:34.518Z</time></trkpt><trkpt lat="42.1191068" lon="11.9527174"><ele>360.0</ele><time>2026-04-19T10:12:35.512Z</time></trkpt><trkpt lat="42.1191228" lon="11.952806"><ele>360.0</ele><time>2026-04-19T10:12:36.512Z</time></trkpt><trkpt lat="42.1191242" lon="11.9529439"><ele>360.0</ele><time>2026-04-19T10:12:38.513Z</time></trkpt><trkpt lat="42.1190753" lon="11.9530375"><ele>360.0</ele><time>2026-04-19T10:12:40.515Z</time></trkpt><trkpt lat="42.1189953" lon="11.9530871"><ele>360.0</ele><time>2026-04-19T10:12:42.515Z</time></trkpt><trkpt lat="42.1189164" lon="11.9531412"><ele>360.0</ele><time>2026-04-19T10:12:44.521Z</time></trkpt><trkpt lat="42.1188408" lon="11.9531626"><ele>360.0</ele><time>2026-04-19T10:12:46.513Z</time></trkpt><trkpt lat="42.1187756" lon="11.9532223"><ele>360.0</ele><time>2026-04-19T10:12:48.516Z</time></trkpt><trkpt lat="42.1186795" lon="11.9532156"><ele>360.0</ele><time>2026-04-19T10:12:51.516Z</time></trkpt><trkpt lat="42.1186003" lon="11.9532524"><ele>360.0</ele><time>2026-04-19T10:12:53.513Z</time></trkpt><trkpt lat="42.1185411" lon="11.9532864"><ele>360.0</ele><time>2026-04-19T10:12:55.512Z</time></trkpt><trkpt lat="42.1184671" lon="11.9533295"><ele>360.0</ele><time>2026-04-19T10:12:57.519Z</time></trkpt><trkpt lat="42.1184014" lon="11.953381"><ele>360.5</ele><time>2026-04-19T10:12:59.516Z</time></trkpt><trkpt lat="42.1183443" lon="11.9534289"><ele>361.0</ele><time>2026-04-19T10:13:01.514Z</time></trkpt><trkpt lat="42.118265" lon="11.953508"><ele>361.5</ele><time>2026-04-19T10:13:04.514Z</time></trkpt><trkpt lat="42.1182068" lon="11.9535978"><ele>362.0</ele><time>2026-04-19T10:13:07.514Z</time></trkpt><trkpt lat="42.1181938" lon="11.953693"><ele>362.5</ele><time>2026-04-19T10:13:09.514Z</time></trkpt><trkpt lat="42.1181845" lon="11.9537838"><ele>363.0</ele><time>2026-04-19T10:13:11.514Z</time></trkpt><trkpt lat="42.1181693" lon="11.9538995"><ele>363.0</ele><time>2026-04-19T10:13:14.513Z</time></trkpt><trkpt lat="42.1181617" lon="11.9539956"><ele>363.0</ele><time>2026-04-19T10:13:16.511Z</time></trkpt><trkpt lat="42.1181693" lon="11.9540949"><ele>363.0</ele><time>2026-04-19T10:13:18.516Z</time></trkpt><trkpt lat="42.1181698" lon="11.9542069"><ele>363.0</ele><time>2026-04-19T10:13:20.515Z</time></trkpt><trkpt lat="42.1181812" lon="11.9543509"><ele>363.0</ele><time>2026-04-19T10:13:22.516Z</time></trkpt><trkpt lat="42.11819" lon="11.9545139"><ele>363.3333333333333</ele><time>2026-04-19T10:13:24.513Z</time></trkpt><trkpt lat="42.1181985" lon="11.9546049"><ele>363.6666666666667</ele><time>2026-04-19T10:13:25.516Z</time></trkpt><trkpt lat="42.1182102" lon="11.9547286"><ele>364.0</ele><time>2026-04-19T10:13:27.512Z</time></trkpt><trkpt lat="42.1182489" lon="11.9548321"><ele>364.33333333333337</ele><time>2026-04-19T10:13:29.519Z</time></trkpt><trkpt lat="42.1182804" lon="11.9549642"><ele>364.6666666666667</ele><time>2026-04-19T10:13:31.515Z</time></trkpt><trkpt lat="42.1182916" lon="11.9550635"><ele>365.0</ele><time>2026-04-19T10:13:33.515Z</time></trkpt><trkpt lat="42.1183302" lon="11.9551557"><ele>364.14285714285717</ele><time>2026-04-19T10:13:37.513Z</time></trkpt><trkpt lat="42.1183805" lon="11.9552306"><ele>363.2857142857143</ele><time>2026-04-19T10:13:40.514Z</time></trkpt><trkpt lat="42.1184357" lon="11.9552753"><ele>362.42857142857144</ele><time>2026-04-19T10:13:43.514Z</time></trkpt><trkpt lat="42.1184967" lon="11.955326"><ele>361.57142857142856</ele><time>2026-04-19T10:13:46.513Z</time></trkpt><trkpt lat="42.1185528" lon="11.9553671"><ele>360.7142857142857</ele><time>2026-04-19T10:13:49.516Z</time></trkpt><trkpt lat="42.1186168" lon="11.9554267"><ele>359.8571428571429</ele><time>2026-04-19T10:13:53.515Z</time></trkpt><trkpt lat="42.11868" lon="11.9554526"><ele>359.0</ele><time>2026-04-19T10:13:58.514Z</time></trkpt><trkpt lat="42.1187391" lon="11.9554986"><ele>359.0</ele><time>2026-04-19T10:14:04.513Z</time></trkpt><trkpt lat="42.1187994" lon="11.955562"><ele>359.0</ele><time>2026-04-19T10:14:09.514Z</time></trkpt><trkpt lat="42.118864" lon="11.955601"><ele>359.0</ele><time>2026-04-19T10:14:12.516Z</time></trkpt><trkpt lat="42.1189446" lon="11.9556672"><ele>359.0</ele><time>2026-04-19T10:14:15.511Z</time></trkpt><trkpt lat="42.119023" lon="11.9557397"><ele>359.0</ele><time>2026-04-19T10:14:17.511Z</time></trkpt><trkpt lat="42.1190921" lon="11.9558067"><ele>359.0</ele><time>2026-04-19T10:14:19.514Z</time></trkpt><trkpt lat="42.1191788" lon="11.9558829"><ele>357.5</ele><time>2026-04-19T10:14:21.511Z</time></trkpt><trkpt lat="42.1192662" lon="11.9559492"><ele>356.0</ele><time>2026-04-19T10:14:23.513Z</time></trkpt><trkpt lat="42.1193541" lon="11.9560022"><ele>354.5</ele><time>2026-04-19T10:14:25.514Z</time></trkpt><trkpt lat="42.1194412" lon="11.9560493"><ele>353.0</ele><time>2026-04-19T10:14:27.513Z</time></trkpt><trkpt lat="42.1195114" lon="11.9560772"><ele>351.5</ele><time>2026-04-19T10:14:29.512Z</time></trkpt><trkpt lat="42.1195825" lon="11.9561301"><ele>350.0</ele><time>2026-04-19T10:14:32.513Z</time></trkpt><trkpt lat="42.1196453" lon="11.9561959"><ele>350.0</ele><time>2026-04-19T10:14:34.512Z</time></trkpt><trkpt lat="42.1197174" lon="11.9562659"><ele>350.0</ele><time>2026-04-19T10:14:36.514Z</time></trkpt><trkpt lat="42.1197983" lon="11.9563242"><ele>350.0</ele><time>2026-04-19T10:14:38.512Z</time></trkpt><trkpt lat="42.1198724" lon="11.9563855"><ele>350.0</ele><time>2026-04-19T10:14:40.512Z</time></trkpt><trkpt lat="42.1199602" lon="11.9564517"><ele>350.0</ele><time>2026-04-19T10:14:42.514Z</time></trkpt><trkpt lat="42.1200442" lon="11.9565109"><ele>347.6</ele><time>2026-04-19T10:14:44.513Z</time></trkpt><trkpt lat="42.1201435" lon="11.956576"><ele>345.2</ele><time>2026-04-19T10:14:46.511Z</time></trkpt><trkpt lat="42.1202487" lon="11.9566148"><ele>342.79999999999995</ele><time>2026-04-19T10:14:48.514Z</time></trkpt><trkpt lat="42.1203653" lon="11.9566292"><ele>340.4</ele><time>2026-04-19T10:14:50.521Z</time></trkpt><trkpt lat="42.1204338" lon="11.9566501"><ele>338.0</ele><time>2026-04-19T10:14:51.522Z</time></trkpt><trkpt lat="42.1205291" lon="11.956723"><ele>337.5</ele><time>2026-04-19T10:14:53.514Z</time></trkpt><trkpt lat="42.120579" lon="11.9568096"><ele>337.0</ele><time>2026-04-19T10:14:55.51Z</time></trkpt><trkpt lat="42.1205791" lon="11.9569084"><ele>336.5</ele><time>2026-04-19T10:14:57.513Z</time></trkpt><trkpt lat="42.1205235" lon="11.9569909"><ele>336.0</ele><time>2026-04-19T10:14:59.514Z</time></trkpt><trkpt lat="42.1204741" lon="11.9570814"><ele>335.5</ele><time>2026-04-19T10:15:01.518Z</time></trkpt><trkpt lat="42.1204624" lon="11.9572081"><ele>335.0</ele><time>2026-04-19T10:15:03.514Z</time></trkpt><trkpt lat="42.1204773" lon="11.9573298"><ele>335.0</ele><time>2026-04-19T10:15:05.514Z</time></trkpt><trkpt lat="42.1204775" lon="11.9574513"><ele>335.0</ele><time>2026-04-19T10:15:07.511Z</time></trkpt><trkpt lat="42.1204625" lon="11.9575575"><ele>335.0</ele><time>2026-04-19T10:15:09.515Z</time></trkpt><trkpt lat="42.120457" lon="11.9576718"><ele>335.0</ele><time>2026-04-19T10:15:11.513Z</time></trkpt><trkpt lat="42.1204466" lon="11.957794"><ele>335.0</ele><time>2026-04-19T10:15:13.513Z</time></trkpt><trkpt lat="42.1204387" lon="11.9579178"><ele>335.0</ele><time>2026-04-19T10:15:15.511Z</time></trkpt><trkpt lat="42.1204319" lon="11.9580224"><ele>335.0</ele><time>2026-04-19T10:15:17.515Z</time></trkpt><trkpt lat="42.1204242" lon="11.9581127"><ele>335.0</ele><time>2026-04-19T10:15:19.515Z</time></trkpt><trkpt lat="42.1204205" lon="11.9582248"><ele>335.0</ele><time>2026-04-19T10:15:22.516Z</time></trkpt><trkpt lat="42.1204123" lon="11.958344"><ele>335.0</ele><time>2026-04-19T10:15:25.514Z</time></trkpt><trkpt lat="42.1204131" lon="11.9584395"><ele>335.0</ele><time>2026-04-19T10:15:27.516Z</time></trkpt><trkpt lat="42.1204193" lon="11.9585387"><ele>335.0</ele><time>2026-04-19T10:15:29.515Z</time></trkpt><trkpt lat="42.1204329" lon="11.958636"><ele>336.0</ele><time>2026-04-19T10:15:31.512Z</time></trkpt><trkpt lat="42.1204565" lon="11.9587311"><ele>337.0</ele><time>2026-04-19T10:15:33.515Z</time></trkpt><trkpt lat="42.120492" lon="11.9588302"><ele>338.0</ele><time>2026-04-19T10:15:35.512Z</time></trkpt><trkpt lat="42.1205492" lon="11.9589285"><ele>339.0</ele><time>2026-04-19T10:15:37.512Z</time></trkpt><trkpt lat="42.120595" lon="11.9590253"><ele>340.0</ele><time>2026-04-19T10:15:39.515Z</time></trkpt><trkpt lat="42.1206363" lon="11.9591243"><ele>341.0</ele><time>2026-04-19T10:15:41.515Z</time></trkpt><trkpt lat="42.1206651" lon="11.9592474"><ele>341.4</ele><time>2026-04-19T10:15:43.513Z</time></trkpt><trkpt lat="42.1206826" lon="11.9593656"><ele>341.8</ele><time>2026-04-19T10:15:45.514Z</time></trkpt><trkpt lat="42.1206585" lon="11.9594767"><ele>342.2</ele><time>2026-04-19T10:15:47.515Z</time></trkpt><trkpt lat="42.1206326" lon="11.9595895"><ele>342.59999999999997</ele><time>2026-04-19T10:15:49.526Z</time></trkpt><trkpt lat="42.1205905" lon="11.9597075"><ele>343.0</ele><time>2026-04-19T10:15:51.514Z</time></trkpt><trkpt lat="42.1205417" lon="11.9598204"><ele>343.0</ele><time>2026-04-19T10:15:53.515Z</time></trkpt><trkpt lat="42.1204982" lon="11.9599296"><ele>343.0</ele><time>2026-04-19T10:15:55.513Z</time></trkpt><trkpt lat="42.1204692" lon="11.9600452"><ele>343.0</ele><time>2026-04-19T10:15:57.516Z</time></trkpt><trkpt lat="42.1204564" lon="11.9601535"><ele>343.0</ele><time>2026-04-19T10:15:59.515Z</time></trkpt><trkpt lat="42.1204932" lon="11.96027"><ele>343.0</ele><time>2026-04-19T10:16:01.515Z</time></trkpt><trkpt lat="42.1205347" lon="11.9604009"><ele>341.2</ele><time>2026-04-19T10:16:03.516Z</time></trkpt><trkpt lat="42.1205934" lon="11.9605185"><ele>339.4</ele><time>2026-04-19T10:16:05.514Z</time></trkpt><trkpt lat="42.1206158" lon="11.9606357"><ele>337.59999999999997</ele><time>2026-04-19T10:16:07.514Z</time></trkpt><trkpt lat="42.1206321" lon="11.9607697"><ele>335.79999999999995</ele><time>2026-04-19T10:16:09.513Z</time></trkpt><trkpt lat="42.1205965" lon="11.9608991"><ele>334.0</ele><time>2026-04-19T10:16:11.524Z</time></trkpt><trkpt lat="42.1205121" lon="11.9610082"><ele>332.25</ele><time>2026-04-19T10:16:13.512Z</time></trkpt><trkpt lat="42.1204136" lon="11.9610849"><ele>330.5</ele><time>2026-04-19T10:16:15.511Z</time></trkpt><trkpt lat="42.1203046" lon="11.9611393"><ele>328.75</ele><time>2026-04-19T10:16:17.511Z</time></trkpt><trkpt lat="42.1201962" lon="11.9611888"><ele>327.0</ele><time>2026-04-19T10:16:19.515Z</time></trkpt><trkpt lat="42.1200969" lon="11.9612412"><ele>327.0</ele><time>2026-04-19T10:16:21.516Z</time></trkpt><trkpt lat="42.1200196" lon="11.9613176"><ele>327.0</ele><time>2026-04-19T10:16:23.511Z</time></trkpt><trkpt lat="42.1199665" lon="11.9614155"><ele>327.0</ele><time>2026-04-19T10:16:25.513Z</time></trkpt><trkpt lat="42.1199575" lon="11.9615302"><ele>327.0</ele><time>2026-04-19T10:16:27.519Z</time></trkpt><trkpt lat="42.1199709" lon="11.9616415"><ele>327.0</ele><time>2026-04-19T10:16:29.513Z</time></trkpt><trkpt lat="42.1199974" lon="11.9617458"><ele>327.0</ele><time>2026-04-19T10:16:31.513Z</time></trkpt><trkpt lat="42.1200088" lon="11.961848"><ele>326.40000000000003</ele><time>2026-04-19T10:16:33.513Z</time></trkpt><trkpt lat="42.1200466" lon="11.9619721"><ele>325.8</ele><time>2026-04-19T10:16:35.512Z</time></trkpt><trkpt lat="42.1200628" lon="11.9621075"><ele>325.2</ele><time>2026-04-19T10:16:37.515Z</time></trkpt><trkpt lat="42.1200358" lon="11.9622437"><ele>324.6</ele><time>2026-04-19T10:16:39.513Z</time></trkpt><trkpt lat="42.1199779" lon="11.9623621"><ele>324.0</ele><time>2026-04-19T10:16:41.515Z</time></trkpt><trkpt lat="42.1199265" lon="11.9624274"><ele>326.8333333333333</ele><time>2026-04-19T10:16:43.517Z</time></trkpt><trkpt lat="42.1198447" lon="11.9625092"><ele>329.6666666666667</ele><time>2026-04-19T10:16:45.512Z</time></trkpt><trkpt lat="42.1197689" lon="11.9625561"><ele>332.5</ele><time>2026-04-19T10:16:47.515Z</time></trkpt><trkpt lat="42.1197094" lon="11.9626041"><ele>335.33333333333337</ele><time>2026-04-19T10:16:49.514Z</time></trkpt><trkpt lat="42.1196382" lon="11.9626923"><ele>338.1666666666667</ele><time>2026-04-19T10:16:52.514Z</time></trkpt><trkpt lat="42.1195901" lon="11.9627625"><ele>341.0</ele><time>2026-04-19T10:16:54.512Z</time></trkpt><trkpt lat="42.1195575" lon="11.9628414"><ele>341.0</ele><time>2026-04-19T10:16:56.512Z</time></trkpt><trkpt lat="42.1195347" lon="11.9629325"><ele>341.0</ele><time>2026-04-19T10:16:58.514Z</time></trkpt><trkpt lat="42.1195167" lon="11.9630315"><ele>341.0</ele><time>2026-04-19T10:17:00.516Z</time></trkpt><trkpt lat="42.1195047" lon="11.9631292"><ele>341.0</ele><time>2026-04-19T10:17:02.514Z</time></trkpt><trkpt lat="42.1195022" lon="11.9632191"><ele>341.0</ele><time>2026-04-19T10:17:04.514Z</time></trkpt><trkpt lat="42.1195079" lon="11.963306"><ele>341.0</ele><time>2026-04-19T10:17:06.515Z</time></trkpt><trkpt lat="42.1195195" lon="11.9633959"><ele>341.0</ele><time>2026-04-19T10:17:08.529Z</time></trkpt><trkpt lat="42.1195404" lon="11.9634875"><ele>342.0</ele><time>2026-04-19T10:17:10.518Z</time></trkpt><trkpt lat="42.119562" lon="11.9635815"><ele>343.0</ele><time>2026-04-19T10:17:12.515Z</time></trkpt><trkpt lat="42.1195845" lon="11.9636654"><ele>344.0</ele><time>2026-04-19T10:17:14.521Z</time></trkpt><trkpt lat="42.1196141" lon="11.9637523"><ele>345.0</ele><time>2026-04-19T10:17:16.512Z</time></trkpt><trkpt lat="42.119646" lon="11.9638411"><ele>346.0</ele><time>2026-04-19T10:17:18.515Z</time></trkpt><trkpt lat="42.1196738" lon="11.9639257"><ele>347.0</ele><time>2026-04-19T10:17:20.515Z</time></trkpt><trkpt lat="42.1197057" lon="11.9640096"><ele>348.0</ele><time>2026-04-19T10:17:22.516Z</time></trkpt><trkpt lat="42.1197355" lon="11.9641005"><ele>348.0</ele><time>2026-04-19T10:17:24.514Z</time></trkpt><trkpt lat="42.1197638" lon="11.9641899"><ele>348.0</ele><time>2026-04-19T10:17:26.517Z</time></trkpt><trkpt lat="42.1197863" lon="11.9642743"><ele>348.0</ele><time>2026-04-19T10:17:28.513Z</time></trkpt><trkpt lat="42.1198098" lon="11.9643631"><ele>348.0</ele><time>2026-04-19T10:17:30.513Z</time></trkpt><trkpt lat="42.1198365" lon="11.96445"><ele>348.0</ele><time>2026-04-19T10:17:32.515Z</time></trkpt><trkpt lat="42.1198764" lon="11.9645253"><ele>348.0</ele><time>2026-04-19T10:17:34.515Z</time></trkpt><trkpt lat="42.1199164" lon="11.9646002"><ele>348.0</ele><time>2026-04-19T10:17:36.511Z</time></trkpt><trkpt lat="42.1199522" lon="11.9646808"><ele>347.2857142857143</ele><time>2026-04-19T10:17:38.512Z</time></trkpt><trkpt lat="42.1199919" lon="11.9647602"><ele>346.57142857142856</ele><time>2026-04-19T10:17:40.512Z</time></trkpt><trkpt lat="42.1200311" lon="11.9648418"><ele>345.8571428571429</ele><time>2026-04-19T10:17:42.516Z</time></trkpt><trkpt lat="42.1200715" lon="11.9649144"><ele>345.1428571428571</ele><time>2026-04-19T10:17:44.514Z</time></trkpt><trkpt lat="42.1201143" lon="11.9649947"><ele>344.42857142857144</ele><time>2026-04-19T10:17:46.515Z</time></trkpt><trkpt lat="42.1201565" lon="11.9650817"><ele>343.7142857142857</ele><time>2026-04-19T10:17:48.515Z</time></trkpt><trkpt lat="42.1201907" lon="11.9651795"><ele>343.0</ele><time>2026-04-19T10:17:50.519Z</time></trkpt><trkpt lat="42.1202067" lon="11.9652835"><ele>345.0</ele><time>2026-04-19T10:17:52.515Z</time></trkpt><trkpt lat="42.1202123" lon="11.9653818"><ele>347.0</ele><time>2026-04-19T10:17:54.512Z</time></trkpt><trkpt lat="42.1201936" lon="11.9654896"><ele>349.0</ele><time>2026-04-19T10:17:56.511Z</time></trkpt><trkpt lat="42.1201758" lon="11.965584"><ele>351.0</ele><time>2026-04-19T10:17:58.516Z</time></trkpt><trkpt lat="42.1201696" lon="11.9656877"><ele>353.0</ele><time>2026-04-19T10:18:00.516Z</time></trkpt><trkpt lat="42.1201842" lon="11.9657885"><ele>355.0</ele><time>2026-04-19T10:18:02.516Z</time></trkpt><trkpt lat="42.120206" lon="11.9658953"><ele>356.7142857142857</ele><time>2026-04-19T10:18:04.515Z</time></trkpt><trkpt lat="42.1202493" lon="11.9659904"><ele>358.42857142857144</ele><time>2026-04-19T10:18:06.515Z</time></trkpt><trkpt lat="42.1202964" lon="11.966075"><ele>360.1428571428571</ele><time>2026-04-19T10:18:08.513Z</time></trkpt><trkpt lat="42.1203329" lon="11.9661517"><ele>361.8571428571429</ele><time>2026-04-19T10:18:10.514Z</time></trkpt><trkpt lat="42.1203772" lon="11.9662309"><ele>363.5714285714286</ele><time>2026-04-19T10:18:12.515Z</time></trkpt><trkpt lat="42.1204162" lon="11.9662981"><ele>365.2857142857143</ele><time>2026-04-19T10:18:14.513Z</time></trkpt><trkpt lat="42.1204591" lon="11.9663694"><ele>367.0</ele><time>2026-04-19T10:18:16.512Z</time></trkpt><trkpt lat="42.1205002" lon="11.9664425"><ele>367.0</ele><time>2026-04-19T10:18:18.516Z</time></trkpt><trkpt lat="42.1205413" lon="11.9665147"><ele>367.0</ele><time>2026-04-19T10:18:20.515Z</time></trkpt><trkpt lat="42.1205826" lon="11.9665936"><ele>367.0</ele><time>2026-04-19T10:18:22.513Z</time></trkpt><trkpt lat="42.1206236" lon="11.9666648"><ele>367.0</ele><time>2026-04-19T10:18:24.517Z</time></trkpt><trkpt lat="42.1206627" lon="11.9667375"><ele>367.0</ele><time>2026-04-19T10:18:26.515Z</time></trkpt><trkpt lat="42.1207042" lon="11.9668139"><ele>367.0</ele><time>2026-04-19T10:18:28.516Z</time></trkpt><trkpt lat="42.120737" lon="11.9668893"><ele>367.0</ele><time>2026-04-19T10:18:30.519Z</time></trkpt><trkpt lat="42.1207652" lon="11.9669727"><ele>364.2857142857143</ele><time>2026-04-19T10:18:32.516Z</time></trkpt><trkpt lat="42.1207897" lon="11.9670577"><ele>361.5714285714286</ele><time>2026-04-19T10:18:34.513Z</time></trkpt><trkpt lat="42.120815" lon="11.9671495"><ele>358.8571428571429</ele><time>2026-04-19T10:18:36.512Z</time></trkpt><trkpt lat="42.1208222" lon="11.9672427"><ele>356.1428571428571</ele><time>2026-04-19T10:18:38.511Z</time></trkpt><trkpt lat="42.1208256" lon="11.967338"><ele>353.42857142857144</ele><time>2026-04-19T10:18:40.514Z</time></trkpt><trkpt lat="42.120832" lon="11.9674226"><ele>350.7142857142857</ele><time>2026-04-19T10:18:42.512Z</time></trkpt><trkpt lat="42.1208313" lon="11.9675148"><ele>348.0</ele><time>2026-04-19T10:18:44.51Z</time></trkpt><trkpt lat="42.1208332" lon="11.9676124"><ele>347.6666666666667</ele><time>2026-04-19T10:18:46.517Z</time></trkpt><trkpt lat="42.1208299" lon="11.9677213"><ele>347.3333333333333</ele><time>2026-04-19T10:18:48.512Z</time></trkpt><trkpt lat="42.1208343" lon="11.9678172"><ele>347.0</ele><time>2026-04-19T10:18:50.511Z</time></trkpt><trkpt lat="42.1208346" lon="11.9679051"><ele>346.66666666666663</ele><time>2026-04-19T10:18:52.516Z</time></trkpt><trkpt lat="42.1208334" lon="11.9679999"><ele>346.3333333333333</ele><time>2026-04-19T10:18:54.513Z</time></trkpt><trkpt lat="42.1208286" lon="11.9681117"><ele>346.0</ele><time>2026-04-19T10:18:56.511Z</time></trkpt><trkpt lat="42.1208085" lon="11.9682342"><ele>346.0</ele><time>2026-04-19T10:18:58.515Z</time></trkpt><trkpt lat="42.1207879" lon="11.9683546"><ele>346.0</ele><time>2026-04-19T10:19:00.513Z</time></trkpt><trkpt lat="42.1207448" lon="11.9684802"><ele>346.0</ele><time>2026-04-19T10:19:02.514Z</time></trkpt><trkpt lat="42.1206722" lon="11.9685998"><ele>346.0</ele><time>2026-04-19T10:19:04.514Z</time></trkpt><trkpt lat="42.1206187" lon="11.9686526"><ele>346.0</ele><time>2026-04-19T10:19:05.515Z</time></trkpt><trkpt lat="42.1205763" lon="11.9687167"><ele>346.0</ele><time>2026-04-19T10:19:06.512Z</time></trkpt><trkpt lat="42.120475" lon="11.9688286"><ele>346.57142857142856</ele><time>2026-04-19T10:19:08.514Z</time></trkpt><trkpt lat="42.120425" lon="11.9688855"><ele>347.14285714285717</ele><time>2026-04-19T10:19:09.516Z</time></trkpt><trkpt lat="42.1203684" lon="11.968949"><ele>347.7142857142857</ele><time>2026-04-19T10:19:10.514Z</time></trkpt><trkpt lat="42.1203129" lon="11.9690023"><ele>348.2857142857143</ele><time>2026-04-19T10:19:11.516Z</time></trkpt><trkpt lat="42.1202592" lon="11.9690576"><ele>348.8571428571429</ele><time>2026-04-19T10:19:12.515Z</time></trkpt><trkpt lat="42.1202039" lon="11.9691071"><ele>349.42857142857144</ele><time>2026-04-19T10:19:13.514Z</time></trkpt><trkpt lat="42.1201474" lon="11.9691659"><ele>350.0</ele><time>2026-04-19T10:19:14.511Z</time></trkpt><trkpt lat="42.1200865" lon="11.9692333"><ele>349.7142857142857</ele><time>2026-04-19T10:19:15.512Z</time></trkpt><trkpt lat="42.1200236" lon="11.9692863"><ele>349.42857142857144</ele><time>2026-04-19T10:19:16.511Z</time></trkpt><trkpt lat="42.1199644" lon="11.9693469"><ele>349.1428571428571</ele><time>2026-04-19T10:19:17.512Z</time></trkpt><trkpt lat="42.1199065" lon="11.969408"><ele>348.8571428571429</ele><time>2026-04-19T10:19:18.516Z</time></trkpt><trkpt lat="42.1198482" lon="11.9694755"><ele>348.57142857142856</ele><time>2026-04-19T10:19:19.513Z</time></trkpt><trkpt lat="42.1197963" lon="11.9695504"><ele>348.2857142857143</ele><time>2026-04-19T10:19:20.515Z</time></trkpt><trkpt lat="42.1197462" lon="11.9696188"><ele>348.0</ele><time>2026-04-19T10:19:21.513Z</time></trkpt><trkpt lat="42.1196913" lon="11.9696908"><ele>348.0</ele><time>2026-04-19T10:19:22.521Z</time></trkpt><trkpt lat="42.1196409" lon="11.9697689"><ele>348.0</ele><time>2026-04-19T10:19:23.514Z</time></trkpt><trkpt lat="42.1195904" lon="11.9698468"><ele>348.0</ele><time>2026-04-19T10:19:24.516Z</time></trkpt><trkpt lat="42.1195491" lon="11.9699237"><ele>348.0</ele><time>2026-04-19T10:19:25.515Z</time></trkpt><trkpt lat="42.1195119" lon="11.9700088"><ele>348.0</ele><time>2026-04-19T10:19:26.517Z</time></trkpt><trkpt lat="42.1194762" lon="11.9700985"><ele>348.0</ele><time>2026-04-19T10:19:27.514Z</time></trkpt><trkpt lat="42.119444" lon="11.9701807"><ele>348.0</ele><time>2026-04-19T10:19:28.514Z</time></trkpt><trkpt lat="42.1194142" lon="11.9702594"><ele>346.6666666666667</ele><time>2026-04-19T10:19:29.514Z</time></trkpt><trkpt lat="42.1193831" lon="11.9703382"><ele>345.3333333333333</ele><time>2026-04-19T10:19:30.514Z</time></trkpt><trkpt lat="42.11935" lon="11.9704196"><ele>344.0</ele><time>2026-04-19T10:19:31.515Z</time></trkpt><trkpt lat="42.1192932" lon="11.9705612"><ele>342.66666666666663</ele><time>2026-04-19T10:19:33.514Z</time></trkpt><trkpt lat="42.1192572" lon="11.9706364"><ele>341.3333333333333</ele><time>2026-04-19T10:19:34.51Z</time></trkpt><trkpt lat="42.1191922" lon="11.9707701"><ele>340.0</ele><time>2026-04-19T10:19:36.511Z</time></trkpt><trkpt lat="42.1191258" lon="11.9708858"><ele>339.8</ele><time>2026-04-19T10:19:38.524Z</time></trkpt><trkpt lat="42.1190556" lon="11.9709756"><ele>339.6</ele><time>2026-04-19T10:19:40.514Z</time></trkpt><trkpt lat="42.1189813" lon="11.9710602"><ele>339.4</ele><time>2026-04-19T10:19:42.512Z</time></trkpt><trkpt lat="42.1188975" lon="11.9711382"><ele>339.2</ele><time>2026-04-19T10:19:44.519Z</time></trkpt><trkpt lat="42.1188028" lon="11.9711908"><ele>339.0</ele><time>2026-04-19T10:19:46.514Z</time></trkpt><trkpt lat="42.1187057" lon="11.9712422"><ele>339.0</ele><time>2026-04-19T10:19:48.512Z</time></trkpt><trkpt lat="42.1186137" lon="11.9712897"><ele>339.0</ele><time>2026-04-19T10:19:50.514Z</time></trkpt><trkpt lat="42.1185249" lon="11.9713221"><ele>339.0</ele><time>2026-04-19T10:19:52.537Z</time></trkpt><trkpt lat="42.1184451" lon="11.9713361"><ele>339.0</ele><time>2026-04-19T10:19:54.512Z</time></trkpt><trkpt lat="42.1183686" lon="11.9713555"><ele>339.0</ele><time>2026-04-19T10:19:56.513Z</time></trkpt><trkpt lat="42.1182852" lon="11.9713769"><ele>339.0</ele><time>2026-04-19T10:19:58.514Z</time></trkpt><trkpt lat="42.1181926" lon="11.9714063"><ele>339.1666666666667</ele><time>2026-04-19T10:20:00.516Z</time></trkpt><trkpt lat="42.1181074" lon="11.9714641"><ele>339.3333333333333</ele><time>2026-04-19T10:20:02.515Z</time></trkpt><trkpt lat="42.1180144" lon="11.9715159"><ele>339.5</ele><time>2026-04-19T10:20:04.52Z</time></trkpt><trkpt lat="42.1179374" lon="11.9715759"><ele>339.66666666666663</ele><time>2026-04-19T10:20:06.512Z</time></trkpt><trkpt lat="42.117866" lon="11.9716302"><ele>339.8333333333333</ele><time>2026-04-19T10:20:08.516Z</time></trkpt><trkpt lat="42.1178001" lon="11.9716893"><ele>340.0</ele><time>2026-04-19T10:20:10.514Z</time></trkpt><trkpt lat="42.1177275" lon="11.9717697"><ele>340.0</ele><time>2026-04-19T10:20:12.517Z</time></trkpt><trkpt lat="42.1176556" lon="11.9718418"><ele>340.0</ele><time>2026-04-19T10:20:14.514Z</time></trkpt><trkpt lat="42.1175834" lon="11.9719136"><ele>340.0</ele><time>2026-04-19T10:20:16.513Z</time></trkpt><trkpt lat="42.1175142" lon="11.9719749"><ele>340.0</ele><time>2026-04-19T10:20:18.513Z</time></trkpt><trkpt lat="42.1174481" lon="11.9720348"><ele>340.0</ele><time>2026-04-19T10:20:20.513Z</time></trkpt><trkpt lat="42.1173831" lon="11.9721004"><ele>340.0</ele><time>2026-04-19T10:20:22.514Z</time></trkpt><trkpt lat="42.1173086" lon="11.9721631"><ele>340.0</ele><time>2026-04-19T10:20:24.513Z</time></trkpt><trkpt lat="42.117229" lon="11.9722351"><ele>340.0</ele><time>2026-04-19T10:20:26.514Z</time></trkpt><trkpt lat="42.1171382" lon="11.9723153"><ele>340.0</ele><time>2026-04-19T10:20:28.514Z</time></trkpt><trkpt lat="42.1170412" lon="11.9724053"><ele>340.0</ele><time>2026-04-19T10:20:30.515Z</time></trkpt><trkpt lat="42.1169534" lon="11.9724849"><ele>340.0</ele><time>2026-04-19T10:20:32.516Z</time></trkpt><trkpt lat="42.1168699" lon="11.9725536"><ele>340.0</ele><time>2026-04-19T10:20:34.514Z</time></trkpt><trkpt lat="42.116774" lon="11.9726349"><ele>340.0</ele><time>2026-04-19T10:20:36.512Z</time></trkpt><trkpt lat="42.1166799" lon="11.9727176"><ele>340.0</ele><time>2026-04-19T10:20:38.516Z</time></trkpt><trkpt lat="42.1165873" lon="11.9727921"><ele>340.0</ele><time>2026-04-19T10:20:40.515Z</time></trkpt><trkpt lat="42.1164996" lon="11.9728844"><ele>340.0</ele><time>2026-04-19T10:20:42.515Z</time></trkpt><trkpt lat="42.1164275" lon="11.9729761"><ele>341.4</ele><time>2026-04-19T10:20:44.514Z</time></trkpt><trkpt lat="42.1163624" lon="11.9730745"><ele>342.8</ele><time>2026-04-19T10:20:46.515Z</time></trkpt><trkpt lat="42.1163174" lon="11.9731838"><ele>344.20000000000005</ele><time>2026-04-19T10:20:48.516Z</time></trkpt><trkpt lat="42.1162771" lon="11.9733003"><ele>345.6</ele><time>2026-04-19T10:20:50.514Z</time></trkpt><trkpt lat="42.1162361" lon="11.9734119"><ele>347.0</ele><time>2026-04-19T10:20:52.515Z</time></trkpt><trkpt lat="42.116198" lon="11.9735395"><ele>347.0</ele><time>2026-04-19T10:20:54.513Z</time></trkpt><trkpt lat="42.1161614" lon="11.9736251"><ele>347.0</ele><time>2026-04-19T10:20:56.512Z</time></trkpt><trkpt lat="42.1161167" lon="11.9737179"><ele>347.0</ele><time>2026-04-19T10:20:58.514Z</time></trkpt><trkpt lat="42.1160782" lon="11.9738015"><ele>347.0</ele><time>2026-04-19T10:21:00.515Z</time></trkpt><trkpt lat="42.1160402" lon="11.9738806"><ele>347.0</ele><time>2026-04-19T10:21:02.515Z</time></trkpt><trkpt lat="42.115996" lon="11.9739731"><ele>347.0</ele><time>2026-04-19T10:21:05.514Z</time></trkpt><trkpt lat="42.1159651" lon="11.9740535"><ele>347.0</ele><time>2026-04-19T10:21:08.513Z</time></trkpt><trkpt lat="42.1159405" lon="11.9741441"><ele>346.42857142857144</ele><time>2026-04-19T10:21:13.513Z</time></trkpt><trkpt lat="42.1159734" lon="11.9742225"><ele>345.85714285714283</ele><time>2026-04-19T10:21:18.514Z</time></trkpt><trkpt lat="42.1159836" lon="11.9743212"><ele>345.2857142857143</ele><time>2026-04-19T10:21:23.513Z</time></trkpt><trkpt lat="42.1159593" lon="11.9744118"><ele>344.7142857142857</ele><time>2026-04-19T10:21:27.514Z</time></trkpt><trkpt lat="42.1158957" lon="11.9744752"><ele>344.1428571428571</ele><time>2026-04-19T10:21:31.514Z</time></trkpt><trkpt lat="42.1158127" lon="11.9744776"><ele>343.57142857142856</ele><time>2026-04-19T10:21:34.511Z</time></trkpt><trkpt lat="42.1157429" lon="11.9744667"><ele>343.0</ele><time>2026-04-19T10:21:40.522Z</time></trkpt><trkpt lat="42.1157728" lon="11.9745527"><ele>343.0</ele><time>2026-04-19T10:58:56.544Z</time></trkpt><trkpt lat="42.1158294" lon="11.9745144"><ele>343.0</ele><time>2026-04-19T10:59:03.515Z</time></trkpt><trkpt lat="42.1158677" lon="11.9744428"><ele>343.0</ele><time>2026-04-19T10:59:39.51Z</time></trkpt><trkpt lat="42.1159316" lon="11.974385"><ele>343.0</ele><time>2026-04-19T10:59:52.517Z</time></trkpt><trkpt lat="42.1159755" lon="11.9742993"><ele>343.0</ele><time>2026-04-19T10:59:57.533Z</time></trkpt><trkpt lat="42.1159636" lon="11.9741991"><ele>343.0</ele><time>2026-04-19T11:00:01.538Z</time></trkpt><trkpt lat="42.1159075" lon="11.9741545"><ele>343.0</ele><time>2026-04-19T11:00:05.55Z</time></trkpt><trkpt lat="42.1159017" lon="11.9740626"><ele>343.57142857142856</ele><time>2026-04-19T11:03:30.517Z</time></trkpt><trkpt lat="42.1159648" lon="11.9740594"><ele>344.1428571428571</ele><time>2026-04-19T11:14:19.509Z</time></trkpt><trkpt lat="42.1160073" lon="11.9739876"><ele>344.7142857142857</ele><time>2026-04-19T11:14:23.514Z</time></trkpt><trkpt lat="42.1160457" lon="11.9739085"><ele>345.2857142857143</ele><time>2026-04-19T11:14:28.515Z</time></trkpt><trkpt lat="42.1160879" lon="11.9738345"><ele>345.85714285714283</ele><time>2026-04-19T11:14:35.516Z</time></trkpt><trkpt lat="42.1161178" lon="11.9737326"><ele>346.42857142857144</ele><time>2026-04-19T11:15:09.514Z</time></trkpt><trkpt lat="42.1161627" lon="11.9736175"><ele>347.0</ele><time>2026-04-19T11:15:12.51Z</time></trkpt><trkpt lat="42.1162003" lon="11.9735172"><ele>347.0</ele><time>2026-04-19T11:15:14.512Z</time></trkpt><trkpt lat="42.1162414" lon="11.9734089"><ele>347.0</ele><time>2026-04-19T11:15:16.513Z</time></trkpt><trkpt lat="42.1162954" lon="11.9733069"><ele>347.0</ele><time>2026-04-19T11:15:18.513Z</time></trkpt><trkpt lat="42.1163478" lon="11.9731901"><ele>347.0</ele><time>2026-04-19T11:15:20.514Z</time></trkpt><trkpt lat="42.1164085" lon="11.9730686"><ele>347.0</ele><time>2026-04-19T11:15:22.514Z</time></trkpt><trkpt lat="42.1164784" lon="11.9729669"><ele>348.0</ele><time>2026-04-19T11:15:24.584Z</time></trkpt><trkpt lat="42.1165529" lon="11.972878"><ele>349.0</ele><time>2026-04-19T11:15:26.508Z</time></trkpt><trkpt lat="42.1166343" lon="11.9727968"><ele>350.0</ele><time>2026-04-19T11:15:28.519Z</time></trkpt><trkpt lat="42.1167133" lon="11.9727302"><ele>351.0</ele><time>2026-04-19T11:15:30.513Z</time></trkpt><trkpt lat="42.1167943" lon="11.9726669"><ele>352.0</ele><time>2026-04-19T11:15:32.512Z</time></trkpt><trkpt lat="42.1168544" lon="11.9726125"><ele>351.8571428571429</ele><time>2026-04-19T11:15:34.51Z</time></trkpt><trkpt lat="42.116913" lon="11.9725618"><ele>351.7142857142857</ele><time>2026-04-19T11:15:36.513Z</time></trkpt><trkpt lat="42.1169717" lon="11.9725062"><ele>351.57142857142856</ele><time>2026-04-19T11:15:38.513Z</time></trkpt><trkpt lat="42.1170345" lon="11.9724511"><ele>351.42857142857144</ele><time>2026-04-19T11:15:40.511Z</time></trkpt><trkpt lat="42.117097" lon="11.9723958"><ele>351.2857142857143</ele><time>2026-04-19T11:15:42.509Z</time></trkpt><trkpt lat="42.1171608" lon="11.9723427"><ele>351.14285714285717</ele><time>2026-04-19T11:15:44.51Z</time></trkpt><trkpt lat="42.1172282" lon="11.9722907"><ele>351.0</ele><time>2026-04-19T11:15:46.511Z</time></trkpt><trkpt lat="42.1172934" lon="11.9722311"><ele>351.0</ele><time>2026-04-19T11:15:48.511Z</time></trkpt><trkpt lat="42.1173642" lon="11.9721682"><ele>351.0</ele><time>2026-04-19T11:15:50.513Z</time></trkpt><trkpt lat="42.1174312" lon="11.9721031"><ele>351.0</ele><time>2026-04-19T11:15:52.515Z</time></trkpt><trkpt lat="42.1175101" lon="11.9720349"><ele>351.0</ele><time>2026-04-19T11:15:54.515Z</time></trkpt><trkpt lat="42.1175833" lon="11.9719611"><ele>351.0</ele><time>2026-04-19T11:15:56.514Z</time></trkpt><trkpt lat="42.1176571" lon="11.9718779"><ele>351.0</ele><time>2026-04-19T11:15:58.516Z</time></trkpt><trkpt lat="42.1177413" lon="11.9718053"><ele>351.75</ele><time>2026-04-19T11:16:00.516Z</time></trkpt><trkpt lat="42.1178229" lon="11.9717207"><ele>352.5</ele><time>2026-04-19T11:16:02.512Z</time></trkpt><trkpt lat="42.1179161" lon="11.9716218"><ele>353.25</ele><time>2026-04-19T11:16:04.514Z</time></trkpt><trkpt lat="42.1180302" lon="11.9715312"><ele>354.0</ele><time>2026-04-19T11:16:06.51Z</time></trkpt><trkpt lat="42.118141" lon="11.9714681"><ele>354.0</ele><time>2026-04-19T11:16:08.511Z</time></trkpt><trkpt lat="42.1182159" lon="11.9714316"><ele>354.0</ele><time>2026-04-19T11:16:09.517Z</time></trkpt><trkpt lat="42.1182762" lon="11.9714042"><ele>354.0</ele><time>2026-04-19T11:16:10.512Z</time></trkpt><trkpt lat="42.1183392" lon="11.9713838"><ele>354.0</ele><time>2026-04-19T11:16:11.512Z</time></trkpt><trkpt lat="42.1184606" lon="11.9713478"><ele>354.0</ele><time>2026-04-19T11:16:13.513Z</time></trkpt><trkpt lat="42.1185853" lon="11.9713258"><ele>351.0</ele><time>2026-04-19T11:16:15.511Z</time></trkpt><trkpt lat="42.1186899" lon="11.9712826"><ele>348.0</ele><time>2026-04-19T11:16:17.514Z</time></trkpt><trkpt lat="42.1187886" lon="11.9712183"><ele>345.0</ele><time>2026-04-19T11:16:19.513Z</time></trkpt><trkpt lat="42.118891" lon="11.9711557"><ele>342.0</ele><time>2026-04-19T11:16:21.513Z</time></trkpt><trkpt lat="42.1189818" lon="11.9710916"><ele>339.0</ele><time>2026-04-19T11:16:23.514Z</time></trkpt><trkpt lat="42.1190603" lon="11.9710166"><ele>339.1666666666667</ele><time>2026-04-19T11:16:25.51Z</time></trkpt><trkpt lat="42.1191328" lon="11.9709283"><ele>339.3333333333333</ele><time>2026-04-19T11:16:27.509Z</time></trkpt><trkpt lat="42.1191974" lon="11.9708387"><ele>339.5</ele><time>2026-04-19T11:16:29.51Z</time></trkpt><trkpt lat="42.1192575" lon="11.970744"><ele>339.66666666666663</ele><time>2026-04-19T11:16:31.51Z</time></trkpt><trkpt lat="42.1192988" lon="11.9706542"><ele>339.8333333333333</ele><time>2026-04-19T11:16:33.513Z</time></trkpt><trkpt lat="42.1193402" lon="11.9705588"><ele>340.0</ele><time>2026-04-19T11:16:35.511Z</time></trkpt><trkpt lat="42.119371" lon="11.970457"><ele>340.0</ele><time>2026-04-19T11:16:37.511Z</time></trkpt><trkpt lat="42.1194008" lon="11.9703377"><ele>340.0</ele><time>2026-04-19T11:16:39.512Z</time></trkpt><trkpt lat="42.1194497" lon="11.9702264"><ele>340.0</ele><time>2026-04-19T11:16:41.513Z</time></trkpt><trkpt lat="42.119492" lon="11.970114"><ele>340.0</ele><time>2026-04-19T11:16:43.511Z</time></trkpt><trkpt lat="42.1195375" lon="11.969999"><ele>340.0</ele><time>2026-04-19T11:16:45.511Z</time></trkpt><trkpt lat="42.1195887" lon="11.9698895"><ele>339.2</ele><time>2026-04-19T11:16:47.51Z</time></trkpt><trkpt lat="42.1196549" lon="11.969786"><ele>338.4</ele><time>2026-04-19T11:16:49.512Z</time></trkpt><trkpt lat="42.1197194" lon="11.9696973"><ele>337.6</ele><time>2026-04-19T11:16:51.511Z</time></trkpt><trkpt lat="42.1197911" lon="11.9695976"><ele>336.8</ele><time>2026-04-19T11:16:53.512Z</time></trkpt><trkpt lat="42.1198435" lon="11.969522"><ele>336.0</ele><time>2026-04-19T11:16:55.516Z</time></trkpt><trkpt lat="42.119913" lon="11.969449"><ele>336.0</ele><time>2026-04-19T11:16:57.512Z</time></trkpt><trkpt lat="42.1199693" lon="11.9693803"><ele>336.0</ele><time>2026-04-19T11:16:59.518Z</time></trkpt><trkpt lat="42.1200206" lon="11.9693268"><ele>336.0</ele><time>2026-04-19T11:17:01.511Z</time></trkpt><trkpt lat="42.1200702" lon="11.9692743"><ele>336.0</ele><time>2026-04-19T11:17:03.512Z</time></trkpt><trkpt lat="42.120142" lon="11.9691959"><ele>336.0</ele><time>2026-04-19T11:17:06.512Z</time></trkpt><trkpt lat="42.1201944" lon="11.9691394"><ele>336.0</ele><time>2026-04-19T11:17:08.513Z</time></trkpt><trkpt lat="42.1202475" lon="11.9690891"><ele>336.0</ele><time>2026-04-19T11:17:10.513Z</time></trkpt><trkpt lat="42.1202969" lon="11.9690342"><ele>338.3333333333333</ele><time>2026-04-19T11:17:12.511Z</time></trkpt><trkpt lat="42.120351" lon="11.9689857"><ele>340.6666666666667</ele><time>2026-04-19T11:17:14.513Z</time></trkpt><trkpt lat="42.1204276" lon="11.9689158"><ele>343.0</ele><time>2026-04-19T11:17:17.512Z</time></trkpt><trkpt lat="42.1204959" lon="11.9688373"><ele>345.33333333333337</ele><time>2026-04-19T11:17:20.512Z</time></trkpt><trkpt lat="42.1205715" lon="11.9687587"><ele>347.6666666666667</ele><time>2026-04-19T11:17:23.512Z</time></trkpt><trkpt lat="42.1206279" lon="11.968702"><ele>350.0</ele><time>2026-04-19T11:17:25.508Z</time></trkpt><trkpt lat="42.1206818" lon="11.9686406"><ele>350.0</ele><time>2026-04-19T11:17:27.509Z</time></trkpt><trkpt lat="42.1207288" lon="11.9685784"><ele>350.0</ele><time>2026-04-19T11:17:29.511Z</time></trkpt><trkpt lat="42.1207782" lon="11.9685117"><ele>350.0</ele><time>2026-04-19T11:17:31.512Z</time></trkpt><trkpt lat="42.1208165" lon="11.9684335"><ele>350.0</ele><time>2026-04-19T11:17:33.513Z</time></trkpt><trkpt lat="42.1208466" lon="11.9683418"><ele>350.0</ele><time>2026-04-19T11:17:35.513Z</time></trkpt><trkpt lat="42.1208593" lon="11.9682449"><ele>350.0</ele><time>2026-04-19T11:17:37.518Z</time></trkpt><trkpt lat="42.1208617" lon="11.9681524"><ele>350.0</ele><time>2026-04-19T11:17:39.516Z</time></trkpt><trkpt lat="42.1208575" lon="11.9680637"><ele>349.6666666666667</ele><time>2026-04-19T11:17:41.52Z</time></trkpt><trkpt lat="42.1208536" lon="11.9679691"><ele>349.33333333333337</ele><time>2026-04-19T11:17:43.515Z</time></trkpt><trkpt lat="42.1208497" lon="11.967874"><ele>349.0</ele><time>2026-04-19T11:17:45.509Z</time></trkpt><trkpt lat="42.120844" lon="11.9677584"><ele>348.6666666666667</ele><time>2026-04-19T11:17:47.51Z</time></trkpt><trkpt lat="42.120836" lon="11.9676379"><ele>348.3333333333333</ele><time>2026-04-19T11:17:49.513Z</time></trkpt><trkpt lat="42.1208398" lon="11.9675179"><ele>348.0</ele><time>2026-04-19T11:17:51.515Z</time></trkpt><trkpt lat="42.1208384" lon="11.9673939"><ele>348.0</ele><time>2026-04-19T11:17:53.513Z</time></trkpt><trkpt lat="42.1208321" lon="11.9672718"><ele>348.0</ele><time>2026-04-19T11:17:55.515Z</time></trkpt><trkpt lat="42.1208129" lon="11.9671479"><ele>348.0</ele><time>2026-04-19T11:17:57.513Z</time></trkpt><trkpt lat="42.1207855" lon="11.9670232"><ele>348.0</ele><time>2026-04-19T11:17:59.513Z</time></trkpt><trkpt lat="42.1207497" lon="11.9668953"><ele>348.0</ele><time>2026-04-19T11:18:01.512Z</time></trkpt><trkpt lat="42.120698" lon="11.9667607"><ele>351.79999999999995</ele><time>2026-04-19T11:18:03.513Z</time></trkpt><trkpt lat="42.1206324" lon="11.9666267"><ele>355.6</ele><time>2026-04-19T11:18:05.51Z</time></trkpt><trkpt lat="42.1205595" lon="11.9664863"><ele>359.4</ele><time>2026-04-19T11:18:07.51Z</time></trkpt><trkpt lat="42.1204902" lon="11.9663388"><ele>363.20000000000005</ele><time>2026-04-19T11:18:09.512Z</time></trkpt><trkpt lat="42.120446" lon="11.9662693"><ele>367.0</ele><time>2026-04-19T11:18:10.511Z</time></trkpt><trkpt lat="42.1204002" lon="11.966193"><ele>367.0</ele><time>2026-04-19T11:18:11.511Z</time></trkpt><trkpt lat="42.1203469" lon="11.9661158"><ele>367.0</ele><time>2026-04-19T11:18:12.512Z</time></trkpt><trkpt lat="42.1202995" lon="11.9660442"><ele>367.0</ele><time>2026-04-19T11:18:13.513Z</time></trkpt><trkpt lat="42.1202478" lon="11.9659693"><ele>367.0</ele><time>2026-04-19T11:18:14.512Z</time></trkpt><trkpt lat="42.1202084" lon="11.965888"><ele>367.0</ele><time>2026-04-19T11:18:15.514Z</time></trkpt><trkpt lat="42.1201805" lon="11.9657999"><ele>367.0</ele><time>2026-04-19T11:18:16.511Z</time></trkpt><trkpt lat="42.1201682" lon="11.9656996"><ele>367.0</ele><time>2026-04-19T11:18:17.513Z</time></trkpt><trkpt lat="42.1201691" lon="11.9655942"><ele>365.2857142857143</ele><time>2026-04-19T11:18:18.514Z</time></trkpt><trkpt lat="42.1201779" lon="11.9654955"><ele>363.5714285714286</ele><time>2026-04-19T11:18:19.513Z</time></trkpt><trkpt lat="42.1201854" lon="11.9654031"><ele>361.8571428571429</ele><time>2026-04-19T11:18:20.512Z</time></trkpt><trkpt lat="42.1201875" lon="11.9653098"><ele>360.1428571428571</ele><time>2026-04-19T11:18:21.511Z</time></trkpt><trkpt lat="42.1201927" lon="11.9652089"><ele>358.42857142857144</ele><time>2026-04-19T11:18:22.513Z</time></trkpt><trkpt lat="42.1201936" lon="11.9651135"><ele>356.7142857142857</ele><time>2026-04-19T11:18:23.514Z</time></trkpt><trkpt lat="42.1201549" lon="11.9650351"><ele>355.0</ele><time>2026-04-19T11:18:24.511Z</time></trkpt><trkpt lat="42.1201183" lon="11.9649614"><ele>356.42857142857144</ele><time>2026-04-19T11:18:25.508Z</time></trkpt><trkpt lat="42.1200801" lon="11.9648863"><ele>357.8571428571429</ele><time>2026-04-19T11:18:26.509Z</time></trkpt><trkpt lat="42.1200366" lon="11.9648068"><ele>359.28571428571433</ele><time>2026-04-19T11:18:27.508Z</time></trkpt><trkpt lat="42.1199951" lon="11.9647312"><ele>360.7142857142857</ele><time>2026-04-19T11:18:28.51Z</time></trkpt><trkpt lat="42.1199571" lon="11.9646505"><ele>362.14285714285717</ele><time>2026-04-19T11:18:29.511Z</time></trkpt><trkpt lat="42.1199179" lon="11.9645713"><ele>363.5714285714286</ele><time>2026-04-19T11:18:30.511Z</time></trkpt><trkpt lat="42.1198743" lon="11.9644859"><ele>365.0</ele><time>2026-04-19T11:18:31.512Z</time></trkpt><trkpt lat="42.119833" lon="11.9644012"><ele>365.0</ele><time>2026-04-19T11:18:32.513Z</time></trkpt><trkpt lat="42.1197993" lon="11.9643074"><ele>365.0</ele><time>2026-04-19T11:18:33.517Z</time></trkpt><trkpt lat="42.1197697" lon="11.9642198"><ele>365.0</ele><time>2026-04-19T11:18:34.512Z</time></trkpt><trkpt lat="42.1197416" lon="11.9641365"><ele>365.0</ele><time>2026-04-19T11:18:35.51Z</time></trkpt><trkpt lat="42.1197177" lon="11.9640312"><ele>365.0</ele><time>2026-04-19T11:18:36.511Z</time></trkpt><trkpt lat="42.1196881" lon="11.9639432"><ele>365.0</ele><time>2026-04-19T11:18:37.51Z</time></trkpt><trkpt lat="42.1196598" lon="11.9638426"><ele>362.1666666666667</ele><time>2026-04-19T11:18:38.513Z</time></trkpt><trkpt lat="42.1196347" lon="11.9637519"><ele>359.33333333333337</ele><time>2026-04-19T11:18:39.511Z</time></trkpt><trkpt lat="42.1195987" lon="11.9636523"><ele>356.5</ele><time>2026-04-19T11:18:40.511Z</time></trkpt><trkpt lat="42.1195785" lon="11.9635418"><ele>353.6666666666667</ele><time>2026-04-19T11:18:41.514Z</time></trkpt><trkpt lat="42.1195575" lon="11.9634299"><ele>350.8333333333333</ele><time>2026-04-19T11:18:42.513Z</time></trkpt><trkpt lat="42.119542" lon="11.9633151"><ele>348.0</ele><time>2026-04-19T11:18:43.514Z</time></trkpt><trkpt lat="42.1195402" lon="11.9632029"><ele>346.59999999999997</ele><time>2026-04-19T11:18:44.512Z</time></trkpt><trkpt lat="42.1195417" lon="11.9630839"><ele>345.2</ele><time>2026-04-19T11:18:45.511Z</time></trkpt><trkpt lat="42.1195547" lon="11.9629625"><ele>343.8</ele><time>2026-04-19T11:18:46.511Z</time></trkpt><trkpt lat="42.1196001" lon="11.9628468"><ele>342.4</ele><time>2026-04-19T11:18:47.51Z</time></trkpt><trkpt lat="42.1196613" lon="11.9627482"><ele>341.0</ele><time>2026-04-19T11:18:48.509Z</time></trkpt><trkpt lat="42.1197336" lon="11.9626614"><ele>341.0</ele><time>2026-04-19T11:18:49.511Z</time></trkpt><trkpt lat="42.1198091" lon="11.9625897"><ele>341.0</ele><time>2026-04-19T11:18:50.518Z</time></trkpt><trkpt lat="42.1198883" lon="11.9625309"><ele>341.0</ele><time>2026-04-19T11:18:51.515Z</time></trkpt><trkpt lat="42.1199619" lon="11.9624643"><ele>341.0</ele><time>2026-04-19T11:18:52.511Z</time></trkpt><trkpt lat="42.1200355" lon="11.9623856"><ele>341.0</ele><time>2026-04-19T11:18:53.512Z</time></trkpt><trkpt lat="42.1200595" lon="11.962286"><ele>341.0</ele><time>2026-04-19T11:18:54.515Z</time></trkpt><trkpt lat="42.1200913" lon="11.9621879"><ele>338.6666666666667</ele><time>2026-04-19T11:18:55.512Z</time></trkpt><trkpt lat="42.1200988" lon="11.9620866"><ele>336.33333333333337</ele><time>2026-04-19T11:18:56.514Z</time></trkpt><trkpt lat="42.1200736" lon="11.961963"><ele>334.0</ele><time>2026-04-19T11:18:57.513Z</time></trkpt><trkpt lat="42.1200536" lon="11.9618599"><ele>331.6666666666667</ele><time>2026-04-19T11:18:58.512Z</time></trkpt><trkpt lat="42.120023" lon="11.9617436"><ele>329.3333333333333</ele><time>2026-04-19T11:18:59.511Z</time></trkpt><trkpt lat="42.1200069" lon="11.9616222"><ele>327.0</ele><time>2026-04-19T11:19:00.512Z</time></trkpt><trkpt lat="42.1200063" lon="11.9615001"><ele>327.0</ele><time>2026-04-19T11:19:01.516Z</time></trkpt><trkpt lat="42.1200339" lon="11.9613799"><ele>327.0</ele><time>2026-04-19T11:19:02.512Z</time></trkpt><trkpt lat="42.1201096" lon="11.9613153"><ele>327.0</ele><time>2026-04-19T11:19:03.512Z</time></trkpt><trkpt lat="42.120175" lon="11.9612586"><ele>327.0</ele><time>2026-04-19T11:19:04.52Z</time></trkpt><trkpt lat="42.1202523" lon="11.9612112"><ele>327.0</ele><time>2026-04-19T11:19:05.509Z</time></trkpt><trkpt lat="42.1203379" lon="11.9611693"><ele>327.0</ele><time>2026-04-19T11:19:06.509Z</time></trkpt><trkpt lat="42.1204112" lon="11.9611304"><ele>327.0</ele><time>2026-04-19T11:19:07.509Z</time></trkpt><trkpt lat="42.1204785" lon="11.9610928"><ele>327.0</ele><time>2026-04-19T11:19:08.511Z</time></trkpt><trkpt lat="42.1205411" lon="11.9610421"><ele>327.0</ele><time>2026-04-19T11:19:09.516Z</time></trkpt><trkpt lat="42.1205872" lon="11.9609731"><ele>327.0</ele><time>2026-04-19T11:19:10.516Z</time></trkpt><trkpt lat="42.1206327" lon="11.9608951"><ele>327.0</ele><time>2026-04-19T11:19:11.511Z</time></trkpt><trkpt lat="42.1206329" lon="11.9608006"><ele>327.0</ele><time>2026-04-19T11:19:12.512Z</time></trkpt><trkpt lat="42.120637" lon="11.9607111"><ele>327.0</ele><time>2026-04-19T11:19:13.515Z</time></trkpt><trkpt lat="42.1206317" lon="11.9606248"><ele>328.75</ele><time>2026-04-19T11:19:14.515Z</time></trkpt><trkpt lat="42.1205971" lon="11.9604789"><ele>330.5</ele><time>2026-04-19T11:19:16.512Z</time></trkpt><trkpt lat="42.120543" lon="11.9603241"><ele>332.25</ele><time>2026-04-19T11:19:18.513Z</time></trkpt><trkpt lat="42.1205099" lon="11.9601694"><ele>334.0</ele><time>2026-04-19T11:19:20.511Z</time></trkpt><trkpt lat="42.1205252" lon="11.9600235"><ele>335.79999999999995</ele><time>2026-04-19T11:19:22.52Z</time></trkpt><trkpt lat="42.1205425" lon="11.9599404"><ele>337.59999999999997</ele><time>2026-04-19T11:19:23.512Z</time></trkpt><trkpt lat="42.1205658" lon="11.9598538"><ele>339.4</ele><time>2026-04-19T11:19:24.514Z</time></trkpt><trkpt lat="42.1206237" lon="11.9597089"><ele>341.2</ele><time>2026-04-19T11:19:26.512Z</time></trkpt><trkpt lat="42.12067" lon="11.9595698"><ele>343.0</ele><time>2026-04-19T11:19:28.511Z</time></trkpt><trkpt lat="42.1206995" lon="11.9594443"><ele>343.0</ele><time>2026-04-19T11:19:30.512Z</time></trkpt><trkpt lat="42.1207035" lon="11.9593041"><ele>343.0</ele><time>2026-04-19T11:19:32.517Z</time></trkpt><trkpt lat="42.1206756" lon="11.9591479"><ele>343.0</ele><time>2026-04-19T11:19:34.511Z</time></trkpt><trkpt lat="42.1206239" lon="11.9590226"><ele>343.0</ele><time>2026-04-19T11:19:36.512Z</time></trkpt><trkpt lat="42.1205715" lon="11.9589172"><ele>343.0</ele><time>2026-04-19T11:19:38.514Z</time></trkpt><trkpt lat="42.1205123" lon="11.9588094"><ele>342.59999999999997</ele><time>2026-04-19T11:19:40.512Z</time></trkpt><trkpt lat="42.1204694" lon="11.9587047"><ele>342.2</ele><time>2026-04-19T11:19:42.513Z</time></trkpt><trkpt lat="42.1204329" lon="11.9585777"><ele>341.8</ele><time>2026-04-19T11:19:44.511Z</time></trkpt><trkpt lat="42.1204159" lon="11.9584449"><ele>341.4</ele><time>2026-04-19T11:19:46.51Z</time></trkpt><trkpt lat="42.120409" lon="11.9583207"><ele>341.0</ele><time>2026-04-19T11:19:48.51Z</time></trkpt><trkpt lat="42.1204141" lon="11.958212"><ele>340.0</ele><time>2026-04-19T11:19:50.514Z</time></trkpt><trkpt lat="42.1204263" lon="11.9580991"><ele>339.0</ele><time>2026-04-19T11:19:52.514Z</time></trkpt><trkpt lat="42.1204389" lon="11.9579891"><ele>338.0</ele><time>2026-04-19T11:19:54.511Z</time></trkpt><trkpt lat="42.120444" lon="11.9578702"><ele>337.0</ele><time>2026-04-19T11:19:56.512Z</time></trkpt><trkpt lat="42.1204531" lon="11.9577492"><ele>336.0</ele><time>2026-04-19T11:19:58.514Z</time></trkpt><trkpt lat="42.1204593" lon="11.9576325"><ele>335.0</ele><time>2026-04-19T11:20:00.514Z</time></trkpt><trkpt lat="42.1204626" lon="11.9575072"><ele>335.0</ele><time>2026-04-19T11:20:02.512Z</time></trkpt><trkpt lat="42.1204699" lon="11.9574045"><ele>335.0</ele><time>2026-04-19T11:20:04.511Z</time></trkpt><trkpt lat="42.1204588" lon="11.9572886"><ele>335.0</ele><time>2026-04-19T11:20:07.509Z</time></trkpt><trkpt lat="42.1204663" lon="11.9571955"><ele>335.0</ele><time>2026-04-19T11:20:10.511Z</time></trkpt><trkpt lat="42.120495" lon="11.9570835"><ele>335.0</ele><time>2026-04-19T11:20:13.51Z</time></trkpt><trkpt lat="42.1205242" lon="11.9569701"><ele>335.0</ele><time>2026-04-19T11:20:16.511Z</time></trkpt><trkpt lat="42.1205616" lon="11.9568815"><ele>335.0</ele><time>2026-04-19T11:20:19.51Z</time></trkpt><trkpt lat="42.1205755" lon="11.9567904"><ele>335.0</ele><time>2026-04-19T11:20:24.512Z</time></trkpt><trkpt lat="42.1205896" lon="11.956695"><ele>335.0</ele><time>2026-04-19T11:20:58.509Z</time></trkpt><trkpt lat="42.1206054" lon="11.9566081"><ele>335.0</ele><time>2026-04-19T11:21:02.513Z</time></trkpt><trkpt lat="42.1206196" lon="11.9565109"><ele>335.0</ele><time>2026-04-19T11:21:05.51Z</time></trkpt><trkpt lat="42.1206657" lon="11.9564173"><ele>335.0</ele><time>2026-04-19T11:21:08.51Z</time></trkpt><trkpt lat="42.1207143" lon="11.9563089"><ele>335.33333333333337</ele><time>2026-04-19T11:21:11.512Z</time></trkpt><trkpt lat="42.1207451" lon="11.9562245"><ele>335.6666666666667</ele><time>2026-04-19T11:21:14.509Z</time></trkpt><trkpt lat="42.1207865" lon="11.9561227"><ele>336.0</ele><time>2026-04-19T11:21:17.509Z</time></trkpt><trkpt lat="42.1208309" lon="11.9560267"><ele>336.3333333333333</ele><time>2026-04-19T11:21:19.51Z</time></trkpt><trkpt lat="42.1208732" lon="11.9559147"><ele>336.66666666666663</ele><time>2026-04-19T11:21:22.509Z</time></trkpt><trkpt lat="42.1209063" lon="11.955801"><ele>337.0</ele><time>2026-04-19T11:21:25.511Z</time></trkpt><trkpt lat="42.1209309" lon="11.9557125"><ele>337.00000000000006</ele><time>2026-04-19T11:21:28.51Z</time></trkpt><trkpt lat="42.1209491" lon="11.9556214"><ele>337.0</ele><time>2026-04-19T11:21:31.51Z</time></trkpt><trkpt lat="42.1209736" lon="11.9555155"><ele>337.0</ele><time>2026-04-19T11:21:34.511Z</time></trkpt><trkpt lat="42.1209992" lon="11.9554322"><ele>337.0</ele><time>2026-04-19T11:21:36.512Z</time></trkpt><trkpt lat="42.1210308" lon="11.9553157"><ele>337.0</ele><time>2026-04-19T11:21:39.512Z</time></trkpt><trkpt lat="42.1210679" lon="11.955238"><ele>337.00000000000006</ele><time>2026-04-19T11:21:41.513Z</time></trkpt><trkpt lat="42.1211095" lon="11.9551652"><ele>337.0</ele><time>2026-04-19T11:21:43.512Z</time></trkpt><trkpt lat="42.1211629" lon="11.955065"><ele>339.0</ele><time>2026-04-19T11:21:46.51Z</time></trkpt><trkpt lat="42.1212147" lon="11.9549652"><ele>341.0</ele><time>2026-04-19T11:21:49.51Z</time></trkpt><trkpt lat="42.1212765" lon="11.9548664"><ele>343.0</ele><time>2026-04-19T11:21:52.51Z</time></trkpt><trkpt lat="42.1213233" lon="11.9547834"><ele>345.0</ele><time>2026-04-19T11:21:54.51Z</time></trkpt><trkpt lat="42.1213705" lon="11.9547226"><ele>347.0</ele><time>2026-04-19T11:21:56.51Z</time></trkpt><trkpt lat="42.1214462" lon="11.9546487"><ele>349.0</ele><time>2026-04-19T11:21:59.511Z</time></trkpt><trkpt lat="42.1215071" lon="11.9546139"><ele>347.3333333333333</ele><time>2026-04-19T11:22:01.51Z</time></trkpt><trkpt lat="42.1216022" lon="11.9546134"><ele>345.66666666666663</ele><time>2026-04-19T11:22:04.509Z</time></trkpt><trkpt lat="42.1216724" lon="11.9546229"><ele>344.0</ele><time>2026-04-19T11:22:06.51Z</time></trkpt><trkpt lat="42.121739" lon="11.9546412"><ele>342.3333333333333</ele><time>2026-04-19T11:22:08.509Z</time></trkpt><trkpt lat="42.1218305" lon="11.9546416"><ele>340.6666666666667</ele><time>2026-04-19T11:22:11.513Z</time></trkpt><trkpt lat="42.1219014" lon="11.9546203"><ele>339.0</ele><time>2026-04-19T11:22:13.51Z</time></trkpt><trkpt lat="42.121965" lon="11.9546242"><ele>339.0</ele><time>2026-04-19T11:22:15.514Z</time></trkpt><trkpt lat="42.1220381" lon="11.9546314"><ele>339.0</ele><time>2026-04-19T11:22:17.511Z</time></trkpt><trkpt lat="42.1221295" lon="11.9546495"><ele>339.0</ele><time>2026-04-19T11:22:20.509Z</time></trkpt><trkpt lat="42.1222055" lon="11.9546949"><ele>339.0</ele><time>2026-04-19T11:22:24.512Z</time></trkpt><trkpt lat="42.1222907" lon="11.954704"><ele>339.0</ele><time>2026-04-19T11:22:27.508Z</time></trkpt><trkpt lat="42.1223582" lon="11.9546819"><ele>339.0</ele><time>2026-04-19T11:22:29.507Z</time></trkpt><trkpt lat="42.1224518" lon="11.9546917"><ele>339.7142857142857</ele><time>2026-04-19T11:22:31.513Z</time></trkpt><trkpt lat="42.1225215" lon="11.9547134"><ele>340.42857142857144</ele><time>2026-04-19T11:22:33.513Z</time></trkpt><trkpt lat="42.1225957" lon="11.9547389"><ele>341.14285714285717</ele><time>2026-04-19T11:22:35.509Z</time></trkpt><trkpt lat="42.122658" lon="11.9547732"><ele>341.8571428571429</ele><time>2026-04-19T11:22:37.512Z</time></trkpt><trkpt lat="42.1227215" lon="11.9548129"><ele>342.57142857142856</ele><time>2026-04-19T11:22:39.512Z</time></trkpt><trkpt lat="42.1227827" lon="11.9548505"><ele>343.28571428571433</ele><time>2026-04-19T11:22:41.509Z</time></trkpt><trkpt lat="42.1228391" lon="11.9549066"><ele>344.0</ele><time>2026-04-19T11:22:43.508Z</time></trkpt><trkpt lat="42.1229063" lon="11.9549477"><ele>344.0</ele><time>2026-04-19T11:22:45.511Z</time></trkpt><trkpt lat="42.1229731" lon="11.9550043"><ele>344.0</ele><time>2026-04-19T11:22:47.511Z</time></trkpt><trkpt lat="42.1230333" lon="11.9550499"><ele>344.0</ele><time>2026-04-19T11:22:49.513Z</time></trkpt><trkpt lat="42.123103" lon="11.9551045"><ele>344.0</ele><time>2026-04-19T11:22:51.515Z</time></trkpt><trkpt lat="42.123177" lon="11.9551161"><ele>344.0</ele><time>2026-04-19T11:22:53.512Z</time></trkpt><trkpt lat="42.1232685" lon="11.955088"><ele>344.0</ele><time>2026-04-19T11:22:55.508Z</time></trkpt><trkpt lat="42.1233476" lon="11.955042"><ele>345.33333333333337</ele><time>2026-04-19T11:22:57.514Z</time></trkpt><trkpt lat="42.1234172" lon="11.9549832"><ele>346.6666666666667</ele><time>2026-04-19T11:22:59.511Z</time></trkpt><trkpt lat="42.1234721" lon="11.9548926"><ele>348.0</ele><time>2026-04-19T11:23:01.515Z</time></trkpt><trkpt lat="42.1235231" lon="11.9548176"><ele>349.3333333333333</ele><time>2026-04-19T11:23:03.512Z</time></trkpt><trkpt lat="42.1235713" lon="11.9547043"><ele>350.66666666666663</ele><time>2026-04-19T11:23:05.51Z</time></trkpt><trkpt lat="42.1236031" lon="11.9546119"><ele>352.0</ele><time>2026-04-19T11:23:07.508Z</time></trkpt><trkpt lat="42.1236055" lon="11.9544726"><ele>352.0</ele><time>2026-04-19T11:23:09.515Z</time></trkpt><trkpt lat="42.1235875" lon="11.9543157"><ele>352.0</ele><time>2026-04-19T11:23:11.514Z</time></trkpt><trkpt lat="42.1235676" lon="11.9541798"><ele>352.0</ele><time>2026-04-19T11:23:13.512Z</time></trkpt><trkpt lat="42.1235695" lon="11.9540202"><ele>352.0</ele><time>2026-04-19T11:23:15.511Z</time></trkpt><trkpt lat="42.1235868" lon="11.9539014"><ele>352.0</ele><time>2026-04-19T11:23:17.514Z</time></trkpt><trkpt lat="42.1235953" lon="11.9537633"><ele>354.0</ele><time>2026-04-19T11:23:19.514Z</time></trkpt><trkpt lat="42.12361" lon="11.9536149"><ele>356.0</ele><time>2026-04-19T11:23:21.517Z</time></trkpt><trkpt lat="42.1236217" lon="11.9534483"><ele>358.0</ele><time>2026-04-19T11:23:23.508Z</time></trkpt><trkpt lat="42.1236278" lon="11.9533571"><ele>360.0</ele><time>2026-04-19T11:23:24.523Z</time></trkpt><trkpt lat="42.1236616" lon="11.953227"><ele>362.0</ele><time>2026-04-19T11:23:26.509Z</time></trkpt><trkpt lat="42.1237182" lon="11.9531035"><ele>363.1666666666667</ele><time>2026-04-19T11:23:28.508Z</time></trkpt><trkpt lat="42.1237302" lon="11.9530191"><ele>364.33333333333337</ele><time>2026-04-19T11:23:30.512Z</time></trkpt><trkpt lat="42.1237556" lon="11.9529404"><ele>365.5</ele><time>2026-04-19T11:23:32.513Z</time></trkpt><trkpt lat="42.1238045" lon="11.9528438"><ele>366.6666666666667</ele><time>2026-04-19T11:23:34.51Z</time></trkpt><trkpt lat="42.1238286" lon="11.9527529"><ele>367.8333333333333</ele><time>2026-04-19T11:23:36.511Z</time></trkpt><trkpt lat="42.1238559" lon="11.9526499"><ele>369.0</ele><time>2026-04-19T11:23:38.511Z</time></trkpt><trkpt lat="42.1238766" lon="11.9525407"><ele>370.3333333333333</ele><time>2026-04-19T11:23:40.514Z</time></trkpt><trkpt lat="42.1238917" lon="11.9524386"><ele>371.6666666666667</ele><time>2026-04-19T11:23:42.512Z</time></trkpt><trkpt lat="42.1239154" lon="11.9523194"><ele>373.0</ele><time>2026-04-19T11:23:44.512Z</time></trkpt><trkpt lat="42.1239319" lon="11.9522299"><ele>374.33333333333337</ele><time>2026-04-19T11:23:46.51Z</time></trkpt><trkpt lat="42.1239454" lon="11.9520882"><ele>375.6666666666667</ele><time>2026-04-19T11:23:48.507Z</time></trkpt><trkpt lat="42.1239568" lon="11.9519521"><ele>377.0</ele><time>2026-04-19T11:23:50.518Z</time></trkpt><trkpt lat="42.1239616" lon="11.9517885"><ele>377.0</ele><time>2026-04-19T11:23:52.517Z</time></trkpt><trkpt lat="42.1239572" lon="11.9516642"><ele>377.0</ele><time>2026-04-19T11:23:54.513Z</time></trkpt><trkpt lat="42.1239037" lon="11.9515446"><ele>377.0</ele><time>2026-04-19T11:23:56.522Z</time></trkpt><trkpt lat="42.1238206" lon="11.9514477"><ele>377.0</ele><time>2026-04-19T11:23:58.51Z</time></trkpt><trkpt lat="42.1237492" lon="11.9513616"><ele>377.0</ele><time>2026-04-19T11:24:00.514Z</time></trkpt><trkpt lat="42.1236734" lon="11.9513007"><ele>377.0</ele><time>2026-04-19T11:24:02.52Z</time></trkpt><trkpt lat="42.1235869" lon="11.9512532"><ele>377.0</ele><time>2026-04-19T11:24:04.511Z</time></trkpt><trkpt lat="42.1235" lon="11.95124"><ele>377.0</ele><time>2026-04-19T11:24:06.511Z</time></trkpt><trkpt lat="42.1234091" lon="11.9512192"><ele>377.0</ele><time>2026-04-19T11:24:08.509Z</time></trkpt><trkpt lat="42.123353" lon="11.9511262"><ele>377.0</ele><time>2026-04-19T11:24:10.51Z</time></trkpt><trkpt lat="42.1233268" lon="11.9510158"><ele>377.0</ele><time>2026-04-19T11:24:12.511Z</time></trkpt><trkpt lat="42.1233041" lon="11.9509298"><ele>376.25</ele><time>2026-04-19T11:24:13.521Z</time></trkpt><trkpt lat="42.1232886" lon="11.9507755"><ele>375.5</ele><time>2026-04-19T11:24:15.512Z</time></trkpt><trkpt lat="42.1232821" lon="11.9506418"><ele>374.75</ele><time>2026-04-19T11:24:17.515Z</time></trkpt><trkpt lat="42.1232629" lon="11.9504644"><ele>374.0</ele><time>2026-04-19T11:24:19.519Z</time></trkpt><trkpt lat="42.1232526" lon="11.9503276"><ele>375.5</ele><time>2026-04-19T11:24:21.516Z</time></trkpt><trkpt lat="42.1232123" lon="11.9501911"><ele>377.0</ele><time>2026-04-19T11:24:23.515Z</time></trkpt><trkpt lat="42.123145" lon="11.9501354"><ele>378.5</ele><time>2026-04-19T11:24:25.514Z</time></trkpt><trkpt lat="42.1230828" lon="11.9501192"><ele>380.0</ele><time>2026-04-19T11:24:28.509Z</time></trkpt><trkpt lat="42.1230112" lon="11.9501166"><ele>381.5</ele><time>2026-04-19T11:24:31.52Z</time></trkpt><trkpt lat="42.1229421" lon="11.9500408"><ele>383.0</ele><time>2026-04-19T11:24:33.511Z</time></trkpt><trkpt lat="42.1228951" lon="11.9499311"><ele>383.0</ele><time>2026-04-19T11:24:35.514Z</time></trkpt><trkpt lat="42.1228991" lon="11.9497713"><ele>383.0</ele><time>2026-04-19T11:24:37.514Z</time></trkpt><trkpt lat="42.1228824" lon="11.9496861"><ele>383.0</ele><time>2026-04-19T11:24:38.514Z</time></trkpt><trkpt lat="42.1228158" lon="11.949555"><ele>383.0</ele><time>2026-04-19T11:24:40.512Z</time></trkpt><trkpt lat="42.122724" lon="11.9494928"><ele>383.0</ele><time>2026-04-19T11:24:42.513Z</time></trkpt><trkpt lat="42.1226495" lon="11.9494497"><ele>383.0</ele><time>2026-04-19T11:24:44.509Z</time></trkpt><trkpt lat="42.1225628" lon="11.9494178"><ele>383.0</ele><time>2026-04-19T11:24:46.508Z</time></trkpt><trkpt lat="42.1224734" lon="11.9493483"><ele>383.0</ele><time>2026-04-19T11:24:48.515Z</time></trkpt><trkpt lat="42.1224097" lon="11.9492184"><ele>383.0</ele><time>2026-04-19T11:24:50.51Z</time></trkpt><trkpt lat="42.1223657" lon="11.949089"><ele>383.0</ele><time>2026-04-19T11:24:52.515Z</time></trkpt><trkpt lat="42.1223255" lon="11.9489718"><ele>386.4</ele><time>2026-04-19T11:24:54.514Z</time></trkpt><trkpt lat="42.1222877" lon="11.9488577"><ele>389.79999999999995</ele><time>2026-04-19T11:24:56.513Z</time></trkpt><trkpt lat="42.1222429" lon="11.9487365"><ele>393.2</ele><time>2026-04-19T11:24:58.511Z</time></trkpt><trkpt lat="42.1222065" lon="11.9486225"><ele>396.6</ele><time>2026-04-19T11:25:00.511Z</time></trkpt><trkpt lat="42.1221649" lon="11.9485046"><ele>400.0</ele><time>2026-04-19T11:25:02.512Z</time></trkpt><trkpt lat="42.1221323" lon="11.9483883"><ele>398.4</ele><time>2026-04-19T11:25:04.51Z</time></trkpt><trkpt lat="42.1220927" lon="11.9483126"><ele>396.8</ele><time>2026-04-19T11:25:05.513Z</time></trkpt><trkpt lat="42.1220501" lon="11.9482149"><ele>395.20000000000005</ele><time>2026-04-19T11:25:07.508Z</time></trkpt><trkpt lat="42.1219732" lon="11.9480957"><ele>393.6</ele><time>2026-04-19T11:25:09.512Z</time></trkpt><trkpt lat="42.1219186" lon="11.9479428"><ele>392.0</ele><time>2026-04-19T11:25:11.512Z</time></trkpt><trkpt lat="42.1219042" lon="11.9478447"><ele>392.0</ele><time>2026-04-19T11:25:12.511Z</time></trkpt><trkpt lat="42.1218985" lon="11.9476863"><ele>392.0</ele><time>2026-04-19T11:25:14.512Z</time></trkpt><trkpt lat="42.1219042" lon="11.9475303"><ele>392.0</ele><time>2026-04-19T11:25:16.511Z</time></trkpt><trkpt lat="42.121907" lon="11.9474361"><ele>392.0</ele><time>2026-04-19T11:25:17.518Z</time></trkpt><trkpt lat="42.1219689" lon="11.9472975"><ele>392.0</ele><time>2026-04-19T11:25:19.514Z</time></trkpt><trkpt lat="42.1220093" lon="11.9472246"><ele>392.0</ele><time>2026-04-19T11:25:20.514Z</time></trkpt><trkpt lat="42.1220828" lon="11.947113"><ele>392.0</ele><time>2026-04-19T11:25:22.513Z</time></trkpt><trkpt lat="42.1221556" lon="11.9470031"><ele>392.0</ele><time>2026-04-19T11:25:24.51Z</time></trkpt><trkpt lat="42.1222123" lon="11.9469408"><ele>392.0</ele><time>2026-04-19T11:25:25.521Z</time></trkpt><trkpt lat="42.1222626" lon="11.946855"><ele>392.0</ele><time>2026-04-19T11:25:28.508Z</time></trkpt><trkpt lat="42.1223118" lon="11.9467714"><ele>390.0</ele><time>2026-04-19T11:25:30.513Z</time></trkpt><trkpt lat="42.1223692" lon="11.9466929"><ele>388.0</ele><time>2026-04-19T11:25:32.511Z</time></trkpt><trkpt lat="42.122444" lon="11.9466175"><ele>386.0</ele><time>2026-04-19T11:25:34.512Z</time></trkpt><trkpt lat="42.1225057" lon="11.946533"><ele>384.0</ele><time>2026-04-19T11:25:36.513Z</time></trkpt><trkpt lat="42.122536" lon="11.9464055"><ele>382.0</ele><time>2026-04-19T11:25:38.512Z</time></trkpt><trkpt lat="42.1225346" lon="11.9462797"><ele>382.0</ele><time>2026-04-19T11:25:40.514Z</time></trkpt><trkpt lat="42.1225359" lon="11.9461084"><ele>382.0</ele><time>2026-04-19T11:25:42.509Z</time></trkpt><trkpt lat="42.1225336" lon="11.9460195"><ele>382.0</ele><time>2026-04-19T11:25:43.511Z</time></trkpt><trkpt lat="42.1225506" lon="11.9458695"><ele>382.0</ele><time>2026-04-19T11:25:45.511Z</time></trkpt><trkpt lat="42.1225716" lon="11.9457386"><ele>382.0</ele><time>2026-04-19T11:25:47.509Z</time></trkpt><trkpt lat="42.1226227" lon="11.9456016"><ele>384.66666666666663</ele><time>2026-04-19T11:25:49.523Z</time></trkpt><trkpt lat="42.1226632" lon="11.9454868"><ele>387.3333333333333</ele><time>2026-04-19T11:25:51.511Z</time></trkpt><trkpt lat="42.1226936" lon="11.9453781"><ele>390.0</ele><time>2026-04-19T11:25:53.507Z</time></trkpt><trkpt lat="42.1227465" lon="11.9452728"><ele>392.66666666666663</ele><time>2026-04-19T11:25:55.51Z</time></trkpt><trkpt lat="42.1227916" lon="11.9451826"><ele>395.3333333333333</ele><time>2026-04-19T11:25:57.512Z</time></trkpt><trkpt lat="42.1228419" lon="11.9451079"><ele>398.0</ele><time>2026-04-19T11:25:59.516Z</time></trkpt><trkpt lat="42.1229051" lon="11.9450372"><ele>396.3333333333333</ele><time>2026-04-19T11:26:02.521Z</time></trkpt><trkpt lat="42.1229763" lon="11.9450043"><ele>394.66666666666663</ele><time>2026-04-19T11:26:04.515Z</time></trkpt><trkpt lat="42.123059" lon="11.9449803"><ele>393.0</ele><time>2026-04-19T11:26:06.511Z</time></trkpt><trkpt lat="42.1231334" lon="11.9449753"><ele>391.33333333333337</ele><time>2026-04-19T11:26:08.509Z</time></trkpt><trkpt lat="42.1232236" lon="11.9449445"><ele>389.6666666666667</ele><time>2026-04-19T11:26:10.513Z</time></trkpt><trkpt lat="42.1233038" lon="11.9448913"><ele>388.0</ele><time>2026-04-19T11:26:12.512Z</time></trkpt><trkpt lat="42.1233157" lon="11.9447996"><ele>388.0</ele><time>2026-04-19T11:26:14.513Z</time></trkpt><trkpt lat="42.1232855" lon="11.9447071"><ele>388.0</ele><time>2026-04-19T11:26:16.512Z</time></trkpt><trkpt lat="42.1232511" lon="11.944591"><ele>388.0</ele><time>2026-04-19T11:26:18.521Z</time></trkpt><trkpt lat="42.1232276" lon="11.9444567"><ele>388.0</ele><time>2026-04-19T11:26:20.515Z</time></trkpt><trkpt lat="42.1232162" lon="11.9443334"><ele>388.0</ele><time>2026-04-19T11:26:22.512Z</time></trkpt><trkpt lat="42.1232035" lon="11.9441536"><ele>395.2</ele><time>2026-04-19T11:26:24.515Z</time></trkpt><trkpt lat="42.1231877" lon="11.9439924"><ele>402.4</ele><time>2026-04-19T11:26:26.509Z</time></trkpt><trkpt lat="42.1231607" lon="11.9438701"><ele>409.59999999999997</ele><time>2026-04-19T11:26:28.508Z</time></trkpt><trkpt lat="42.1231396" lon="11.9437385"><ele>416.79999999999995</ele><time>2026-04-19T11:26:30.511Z</time></trkpt><trkpt lat="42.1231347" lon="11.9436018"><ele>424.0</ele><time>2026-04-19T11:26:32.509Z</time></trkpt><trkpt lat="42.1231568" lon="11.9435183"><ele>424.00000000000006</ele><time>2026-04-19T11:26:34.508Z</time></trkpt><trkpt lat="42.1231855" lon="11.943428"><ele>424.0</ele><time>2026-04-19T11:26:36.512Z</time></trkpt><trkpt lat="42.123232" lon="11.9433526"><ele>424.0</ele><time>2026-04-19T11:26:38.511Z</time></trkpt><trkpt lat="42.12332" lon="11.943291"><ele>424.0</ele><time>2026-04-19T11:26:40.511Z</time></trkpt><trkpt lat="42.1234064" lon="11.9432309"><ele>424.00000000000006</ele><time>2026-04-19T11:26:42.518Z</time></trkpt><trkpt lat="42.1234583" lon="11.9431658"><ele>424.0</ele><time>2026-04-19T11:26:43.51Z</time></trkpt><trkpt lat="42.1235335" lon="11.9431228"><ele>420.2</ele><time>2026-04-19T11:26:45.51Z</time></trkpt><trkpt lat="42.1236351" lon="11.9430592"><ele>416.4</ele><time>2026-04-19T11:26:47.508Z</time></trkpt><trkpt lat="42.1237182" lon="11.9430036"><ele>412.6</ele><time>2026-04-19T11:26:49.509Z</time></trkpt><trkpt lat="42.1238065" lon="11.9429314"><ele>408.8</ele><time>2026-04-19T11:26:51.515Z</time></trkpt><trkpt lat="42.1238823" lon="11.9428352"><ele>405.0</ele><time>2026-04-19T11:26:53.522Z</time></trkpt><trkpt lat="42.1239366" lon="11.9427172"><ele>405.0</ele><time>2026-04-19T11:26:55.516Z</time></trkpt><trkpt lat="42.1239599" lon="11.9425943"><ele>405.0</ele><time>2026-04-19T11:26:57.511Z</time></trkpt><trkpt lat="42.123936" lon="11.9425078"><ele>405.0</ele><time>2026-04-19T11:26:58.511Z</time></trkpt><trkpt lat="42.1239006" lon="11.9424269"><ele>405.0</ele><time>2026-04-19T11:26:59.518Z</time></trkpt><trkpt lat="42.123856" lon="11.9423612"><ele>405.0</ele><time>2026-04-19T11:27:00.513Z</time></trkpt><trkpt lat="42.1237565" lon="11.9422707"><ele>405.0</ele><time>2026-04-19T11:27:02.514Z</time></trkpt><trkpt lat="42.1236763" lon="11.942157"><ele>408.2</ele><time>2026-04-19T11:27:04.516Z</time></trkpt><trkpt lat="42.1236437" lon="11.9420016"><ele>411.4</ele><time>2026-04-19T11:27:06.513Z</time></trkpt><trkpt lat="42.1236998" lon="11.9418981"><ele>414.6</ele><time>2026-04-19T11:27:08.508Z</time></trkpt><trkpt lat="42.1237786" lon="11.941802"><ele>417.8</ele><time>2026-04-19T11:27:10.51Z</time></trkpt><trkpt lat="42.1238415" lon="11.9417544"><ele>421.0</ele><time>2026-04-19T11:27:11.519Z</time></trkpt><trkpt lat="42.1238974" lon="11.9417062"><ele>422.00000000000006</ele><time>2026-04-19T11:27:12.511Z</time></trkpt><trkpt lat="42.1239336" lon="11.9415588"><ele>423.0</ele><time>2026-04-19T11:27:14.511Z</time></trkpt><trkpt lat="42.1239332" lon="11.9414731"><ele>424.0</ele><time>2026-04-19T11:27:15.511Z</time></trkpt><trkpt lat="42.1239489" lon="11.9413765"><ele>425.0</ele><time>2026-04-19T11:27:16.512Z</time></trkpt><trkpt lat="42.1239896" lon="11.9413088"><ele>426.00000000000006</ele><time>2026-04-19T11:27:17.517Z</time></trkpt><trkpt lat="42.1240357" lon="11.9412507"><ele>427.0</ele><time>2026-04-19T11:27:18.513Z</time></trkpt><trkpt lat="42.1241265" lon="11.9411334"><ele>422.00000000000006</ele><time>2026-04-19T11:27:20.517Z</time></trkpt><trkpt lat="42.1241862" lon="11.9411047"><ele>417.0</ele><time>2026-04-19T11:27:21.51Z</time></trkpt><trkpt lat="42.1242884" lon="11.9410942"><ele>412.0</ele><time>2026-04-19T11:27:23.514Z</time></trkpt><trkpt lat="42.1243732" lon="11.9410869"><ele>407.0</ele><time>2026-04-19T11:27:26.509Z</time></trkpt><trkpt lat="42.1244981" lon="11.9410895"><ele>402.00000000000006</ele><time>2026-04-19T11:27:28.517Z</time></trkpt><trkpt lat="42.1245704" lon="11.9411014"><ele>397.0</ele><time>2026-04-19T11:27:29.511Z</time></trkpt><trkpt lat="42.1246892" lon="11.9411475"><ele>397.0</ele><time>2026-04-19T11:27:31.511Z</time></trkpt><trkpt lat="42.1247527" lon="11.9411754"><ele>397.0</ele><time>2026-04-19T11:27:32.511Z</time></trkpt><trkpt lat="42.1248611" lon="11.9412368"><ele>397.0</ele><time>2026-04-19T11:27:34.512Z</time></trkpt><trkpt lat="42.1249329" lon="11.9412594"><ele>397.0</ele><time>2026-04-19T11:27:35.509Z</time></trkpt><trkpt lat="42.1249995" lon="11.94126"><ele>397.0</ele><time>2026-04-19T11:27:36.511Z</time></trkpt><trkpt lat="42.125117" lon="11.9411803"><ele>397.83333333333337</ele><time>2026-04-19T11:27:38.511Z</time></trkpt><trkpt lat="42.1251498" lon="11.9410448"><ele>398.6666666666667</ele><time>2026-04-19T11:27:40.515Z</time></trkpt><trkpt lat="42.1251511" lon="11.9409543"><ele>399.5</ele><time>2026-04-19T11:27:41.513Z</time></trkpt><trkpt lat="42.1251568" lon="11.9408494"><ele>400.33333333333337</ele><time>2026-04-19T11:27:42.513Z</time></trkpt><trkpt lat="42.1251583" lon="11.9407592"><ele>401.1666666666667</ele><time>2026-04-19T11:27:43.51Z</time></trkpt><trkpt lat="42.1251495" lon="11.9406175"><ele>402.0</ele><time>2026-04-19T11:27:45.511Z</time></trkpt><trkpt lat="42.1251556" lon="11.9404867"><ele>402.0</ele><time>2026-04-19T11:27:47.51Z</time></trkpt><trkpt lat="42.1251662" lon="11.9403182"><ele>402.0</ele><time>2026-04-19T11:27:49.518Z</time></trkpt><trkpt lat="42.1251785" lon="11.940155"><ele>402.0</ele><time>2026-04-19T11:27:51.513Z</time></trkpt><trkpt lat="42.1251827" lon="11.9400593"><ele>402.0</ele><time>2026-04-19T11:27:52.512Z</time></trkpt><trkpt lat="42.1252477" lon="11.9399338"><ele>402.0</ele><time>2026-04-19T11:27:54.516Z</time></trkpt><trkpt lat="42.1252688" lon="11.9398307"><ele>403.8</ele><time>2026-04-19T11:27:55.513Z</time></trkpt><trkpt lat="42.1252768" lon="11.9396844"><ele>405.6</ele><time>2026-04-19T11:27:57.512Z</time></trkpt><trkpt lat="42.1252472" lon="11.9395508"><ele>407.40000000000003</ele><time>2026-04-19T11:27:59.52Z</time></trkpt><trkpt lat="42.1252726" lon="11.9394137"><ele>409.20000000000005</ele><time>2026-04-19T11:28:01.518Z</time></trkpt><trkpt lat="42.1253443" lon="11.9392785"><ele>411.0</ele><time>2026-04-19T11:28:03.521Z</time></trkpt><trkpt lat="42.1253834" lon="11.9392099"><ele>411.20000000000005</ele><time>2026-04-19T11:28:04.51Z</time></trkpt><trkpt lat="42.1254454" lon="11.939079"><ele>411.40000000000003</ele><time>2026-04-19T11:28:06.508Z</time></trkpt><trkpt lat="42.1254655" lon="11.9389472"><ele>411.6</ele><time>2026-04-19T11:28:08.509Z</time></trkpt><trkpt lat="42.1254179" lon="11.9388313"><ele>411.8</ele><time>2026-04-19T11:28:10.509Z</time></trkpt><trkpt lat="42.1253398" lon="11.9387178"><ele>412.0</ele><time>2026-04-19T11:28:12.512Z</time></trkpt><trkpt lat="42.1252632" lon="11.9386078"><ele>412.0</ele><time>2026-04-19T11:28:14.51Z</time></trkpt><trkpt lat="42.125208" lon="11.9385511"><ele>412.0</ele><time>2026-04-19T11:28:15.511Z</time></trkpt><trkpt lat="42.1251492" lon="11.9385016"><ele>412.0</ele><time>2026-04-19T11:28:16.513Z</time></trkpt><trkpt lat="42.1250531" lon="11.9384118"><ele>412.0</ele><time>2026-04-19T11:28:18.51Z</time></trkpt><trkpt lat="42.124969" lon="11.9382976"><ele>412.0</ele><time>2026-04-19T11:28:20.514Z</time></trkpt><trkpt lat="42.124931" lon="11.9381523"><ele>411.1666666666667</ele><time>2026-04-19T11:28:22.512Z</time></trkpt><trkpt lat="42.1249531" lon="11.9380685"><ele>410.33333333333337</ele><time>2026-04-19T11:28:23.517Z</time></trkpt><trkpt lat="42.1249857" lon="11.9379904"><ele>409.5</ele><time>2026-04-19T11:28:24.511Z</time></trkpt><trkpt lat="42.1250231" lon="11.9379186"><ele>408.66666666666663</ele><time>2026-04-19T11:28:25.515Z</time></trkpt><trkpt lat="42.12511" lon="11.9377892"><ele>407.8333333333333</ele><time>2026-04-19T11:28:27.516Z</time></trkpt><trkpt lat="42.1251576" lon="11.9377195"><ele>407.0</ele><time>2026-04-19T11:28:28.511Z</time></trkpt><trkpt lat="42.1251915" lon="11.9375993"><ele>408.20000000000005</ele><time>2026-04-19T11:28:30.513Z</time></trkpt><trkpt lat="42.1252263" lon="11.9374837"><ele>409.4</ele><time>2026-04-19T11:28:32.513Z</time></trkpt><trkpt lat="42.1252864" lon="11.9373731"><ele>410.6</ele><time>2026-04-19T11:28:34.511Z</time></trkpt><trkpt lat="42.1253331" lon="11.9372227"><ele>411.79999999999995</ele><time>2026-04-19T11:28:36.515Z</time></trkpt><trkpt lat="42.1253751" lon="11.9371477"><ele>413.0</ele><time>2026-04-19T11:28:37.513Z</time></trkpt><trkpt lat="42.125399" lon="11.937066"><ele>413.0</ele><time>2026-04-19T11:28:38.511Z</time></trkpt><trkpt lat="42.1254463" lon="11.9369004"><ele>413.0</ele><time>2026-04-19T11:28:40.51Z</time></trkpt><trkpt lat="42.1254855" lon="11.9367651"><ele>413.0</ele><time>2026-04-19T11:28:42.511Z</time></trkpt><trkpt lat="42.1255017" lon="11.9366254"><ele>413.0</ele><time>2026-04-19T11:28:44.513Z</time></trkpt><trkpt lat="42.1255106" lon="11.9364789"><ele>415.79999999999995</ele><time>2026-04-19T11:28:46.51Z</time></trkpt><trkpt lat="42.1255254" lon="11.9363397"><ele>418.6</ele><time>2026-04-19T11:28:48.511Z</time></trkpt><trkpt lat="42.1255744" lon="11.9362"><ele>421.40000000000003</ele><time>2026-04-19T11:28:50.521Z</time></trkpt><trkpt lat="42.1256091" lon="11.9361266"><ele>424.20000000000005</ele><time>2026-04-19T11:28:51.512Z</time></trkpt><trkpt lat="42.1256974" lon="11.9360487"><ele>427.0</ele><time>2026-04-19T11:28:53.513Z</time></trkpt><trkpt lat="42.1257817" lon="11.9359518"><ele>421.8</ele><time>2026-04-19T11:28:55.515Z</time></trkpt><trkpt lat="42.1258539" lon="11.9358301"><ele>416.6</ele><time>2026-04-19T11:28:57.512Z</time></trkpt><trkpt lat="42.1258889" lon="11.9356643"><ele>411.40000000000003</ele><time>2026-04-19T11:28:59.513Z</time></trkpt><trkpt lat="42.1258839" lon="11.9354926"><ele>406.20000000000005</ele><time>2026-04-19T11:29:01.517Z</time></trkpt><trkpt lat="42.1258656" lon="11.9354067"><ele>401.0</ele><time>2026-04-19T11:29:02.514Z</time></trkpt><trkpt lat="42.1258307" lon="11.9353237"><ele>400.99999999999994</ele><time>2026-04-19T11:29:03.513Z</time></trkpt><trkpt lat="42.125804" lon="11.9351807"><ele>401.0</ele><time>2026-04-19T11:29:05.514Z</time></trkpt><trkpt lat="42.1257601" lon="11.9350342"><ele>401.0</ele><time>2026-04-19T11:29:07.546Z</time></trkpt><trkpt lat="42.1257378" lon="11.9349392"><ele>401.0</ele><time>2026-04-19T11:29:08.511Z</time></trkpt><trkpt lat="42.1257061" lon="11.9348617"><ele>400.99999999999994</ele><time>2026-04-19T11:29:09.513Z</time></trkpt><trkpt lat="42.1256749" lon="11.9347731"><ele>401.0</ele><time>2026-04-19T11:29:10.514Z</time></trkpt><trkpt lat="42.1255837" lon="11.93465"><ele>403.49999999999994</ele><time>2026-04-19T11:29:12.511Z</time></trkpt><trkpt lat="42.1255136" lon="11.9345662"><ele>406.0</ele><time>2026-04-19T11:29:14.51Z</time></trkpt><trkpt lat="42.1254733" lon="11.9344971"><ele>408.5</ele><time>2026-04-19T11:29:15.519Z</time></trkpt><trkpt lat="42.1254405" lon="11.9344193"><ele>411.0</ele><time>2026-04-19T11:29:16.512Z</time></trkpt><trkpt lat="42.1254245" lon="11.9342987"><ele>413.49999999999994</ele><time>2026-04-19T11:29:18.514Z</time></trkpt><trkpt lat="42.1254562" lon="11.9341886"><ele>416.0</ele><time>2026-04-19T11:29:20.516Z</time></trkpt><trkpt lat="42.1255072" lon="11.9341378"><ele>416.0</ele><time>2026-04-19T11:29:21.522Z</time></trkpt><trkpt lat="42.1255546" lon="11.9340767"><ele>416.0</ele><time>2026-04-19T11:29:22.511Z</time></trkpt><trkpt lat="42.1255911" lon="11.9340035"><ele>416.0</ele><time>2026-04-19T11:29:23.511Z</time></trkpt><trkpt lat="42.1256598" lon="11.9338771"><ele>416.0</ele><time>2026-04-19T11:29:25.515Z</time></trkpt><trkpt lat="42.1256583" lon="11.9337419"><ele>416.0</ele><time>2026-04-19T11:29:27.51Z</time></trkpt><trkpt lat="42.1256257" lon="11.9336093"><ele>416.0</ele><time>2026-04-19T11:29:29.514Z</time></trkpt><trkpt lat="42.1255715" lon="11.9334759"><ele>416.0</ele><time>2026-04-19T11:29:31.518Z</time></trkpt><trkpt lat="42.1255094" lon="11.9333324"><ele>416.0</ele><time>2026-04-19T11:29:33.513Z</time></trkpt><trkpt lat="42.1254359" lon="11.9331859"><ele>416.0</ele><time>2026-04-19T11:29:35.515Z</time></trkpt><trkpt lat="42.1254039" lon="11.9331089"><ele>416.0</ele><time>2026-04-19T11:29:36.51Z</time></trkpt><trkpt lat="42.1253633" lon="11.9330349"><ele>415.16666666666663</ele><time>2026-04-19T11:29:38.512Z</time></trkpt><trkpt lat="42.1253391" lon="11.9329549"><ele>414.3333333333333</ele><time>2026-04-19T11:29:41.509Z</time></trkpt><trkpt lat="42.125308" lon="11.9328764"><ele>413.5</ele><time>2026-04-19T11:29:44.511Z</time></trkpt><trkpt lat="42.1252942" lon="11.9327686"><ele>412.66666666666663</ele><time>2026-04-19T11:29:47.507Z</time></trkpt><trkpt lat="42.1252667" lon="11.9326516"><ele>411.8333333333333</ele><time>2026-04-19T11:29:50.512Z</time></trkpt><trkpt lat="42.1252201" lon="11.9325831"><ele>411.0</ele><time>2026-04-19T11:29:53.515Z</time></trkpt><trkpt lat="42.1251525" lon="11.9325211"><ele>410.1666666666667</ele><time>2026-04-19T11:29:56.511Z</time></trkpt><trkpt lat="42.1250992" lon="11.9324428"><ele>409.33333333333337</ele><time>2026-04-19T11:29:59.51Z</time></trkpt><trkpt lat="42.1250743" lon="11.932344"><ele>408.5</ele><time>2026-04-19T11:30:02.511Z</time></trkpt><trkpt lat="42.1251051" lon="11.9322475"><ele>407.6666666666667</ele><time>2026-04-19T11:30:04.514Z</time></trkpt><trkpt lat="42.1251497" lon="11.9321145"><ele>406.83333333333337</ele><time>2026-04-19T11:30:06.51Z</time></trkpt><trkpt lat="42.1251685" lon="11.9319983"><ele>406.0</ele><time>2026-04-19T11:30:08.511Z</time></trkpt><trkpt lat="42.1252108" lon="11.9319012"><ele>406.0</ele><time>2026-04-19T11:30:10.515Z</time></trkpt><trkpt lat="42.1252514" lon="11.9317745"><ele>406.0</ele><time>2026-04-19T11:30:12.514Z</time></trkpt><trkpt lat="42.1252721" lon="11.9316933"><ele>406.0</ele><time>2026-04-19T11:30:13.519Z</time></trkpt><trkpt lat="42.1253207" lon="11.9315284"><ele>406.0</ele><time>2026-04-19T11:30:15.516Z</time></trkpt><trkpt lat="42.1253475" lon="11.9313735"><ele>406.0</ele><time>2026-04-19T11:30:17.515Z</time></trkpt><trkpt lat="42.1253757" lon="11.9312952"><ele>406.6666666666667</ele><time>2026-04-19T11:30:18.51Z</time></trkpt><trkpt lat="42.1253845" lon="11.9312068"><ele>407.33333333333337</ele><time>2026-04-19T11:30:19.514Z</time></trkpt><trkpt lat="42.1253826" lon="11.9310962"><ele>408.0</ele><time>2026-04-19T11:30:21.514Z</time></trkpt><trkpt lat="42.1253888" lon="11.9309836"><ele>408.66666666666663</ele><time>2026-04-19T11:30:23.513Z</time></trkpt><trkpt lat="42.1254104" lon="11.9308443"><ele>409.3333333333333</ele><time>2026-04-19T11:30:25.512Z</time></trkpt><trkpt lat="42.1254458" lon="11.9307034"><ele>410.0</ele><time>2026-04-19T11:30:27.507Z</time></trkpt><trkpt lat="42.1254914" lon="11.930559"><ele>411.4</ele><time>2026-04-19T11:30:29.511Z</time></trkpt><trkpt lat="42.1255125" lon="11.9304733"><ele>412.8</ele><time>2026-04-19T11:30:30.512Z</time></trkpt><trkpt lat="42.1255659" lon="11.9303376"><ele>414.20000000000005</ele><time>2026-04-19T11:30:32.512Z</time></trkpt><trkpt lat="42.1256501" lon="11.9302144"><ele>415.6</ele><time>2026-04-19T11:30:34.511Z</time></trkpt><trkpt lat="42.1257069" lon="11.9300826"><ele>417.0</ele><time>2026-04-19T11:30:36.513Z</time></trkpt><trkpt lat="42.1257001" lon="11.9299977"><ele>419.40000000000003</ele><time>2026-04-19T11:30:37.514Z</time></trkpt><trkpt lat="42.1256953" lon="11.9298524"><ele>421.8</ele><time>2026-04-19T11:30:39.512Z</time></trkpt><trkpt lat="42.1257215" lon="11.9296919"><ele>424.2</ele><time>2026-04-19T11:30:41.511Z</time></trkpt><trkpt lat="42.1257472" lon="11.9296054"><ele>426.6</ele><time>2026-04-19T11:30:42.514Z</time></trkpt><trkpt lat="42.1257551" lon="11.9294233"><ele>429.0</ele><time>2026-04-19T11:30:44.514Z</time></trkpt><trkpt lat="42.1257702" lon="11.9293334"><ele>430.2</ele><time>2026-04-19T11:30:45.511Z</time></trkpt><trkpt lat="42.1257622" lon="11.9291685"><ele>431.4</ele><time>2026-04-19T11:30:47.512Z</time></trkpt><trkpt lat="42.1257094" lon="11.9290314"><ele>432.6</ele><time>2026-04-19T11:30:49.512Z</time></trkpt><trkpt lat="42.125662" lon="11.9289528"><ele>433.8</ele><time>2026-04-19T11:30:50.513Z</time></trkpt><trkpt lat="42.1255797" lon="11.9288683"><ele>435.0</ele><time>2026-04-19T11:30:52.516Z</time></trkpt><trkpt lat="42.1255071" lon="11.9287893"><ele>435.0</ele><time>2026-04-19T11:30:54.513Z</time></trkpt><trkpt lat="42.1254505" lon="11.9286932"><ele>435.0</ele><time>2026-04-19T11:30:56.515Z</time></trkpt><trkpt lat="42.1254518" lon="11.9285718"><ele>435.0</ele><time>2026-04-19T11:30:58.512Z</time></trkpt><trkpt lat="42.1254455" lon="11.9284227"><ele>435.0</ele><time>2026-04-19T11:31:00.524Z</time></trkpt><trkpt lat="42.1254452" lon="11.9282743"><ele>435.0</ele><time>2026-04-19T11:31:02.512Z</time></trkpt><trkpt lat="42.1254021" lon="11.9281761"><ele>433.6</ele><time>2026-04-19T11:31:04.513Z</time></trkpt><trkpt lat="42.125357" lon="11.9281"><ele>432.2</ele><time>2026-04-19T11:31:06.512Z</time></trkpt><trkpt lat="42.1252479" lon="11.9280398"><ele>430.79999999999995</ele><time>2026-04-19T11:31:08.51Z</time></trkpt><trkpt lat="42.1251376" lon="11.9279633"><ele>429.4</ele><time>2026-04-19T11:31:10.511Z</time></trkpt><trkpt lat="42.1250487" lon="11.9278621"><ele>428.0</ele><time>2026-04-19T11:31:12.516Z</time></trkpt><trkpt lat="42.1250182" lon="11.9277634"><ele>427.99999999999994</ele><time>2026-04-19T11:31:14.513Z</time></trkpt><trkpt lat="42.1249771" lon="11.9276652"><ele>428.0</ele><time>2026-04-19T11:31:16.513Z</time></trkpt><trkpt lat="42.1249452" lon="11.9275894"><ele>428.0</ele><time>2026-04-19T11:31:18.513Z</time></trkpt><trkpt lat="42.1249065" lon="11.9274893"><ele>428.0</ele><time>2026-04-19T11:31:20.516Z</time></trkpt><trkpt lat="42.1248282" lon="11.9274211"><ele>427.99999999999994</ele><time>2026-04-19T11:31:22.512Z</time></trkpt><trkpt lat="42.1247372" lon="11.9274182"><ele>428.0</ele><time>2026-04-19T11:31:24.513Z</time></trkpt><trkpt lat="42.1246417" lon="11.9274568"><ele>426.59999999999997</ele><time>2026-04-19T11:31:26.51Z</time></trkpt><trkpt lat="42.124542" lon="11.9274726"><ele>425.19999999999993</ele><time>2026-04-19T11:31:28.511Z</time></trkpt><trkpt lat="42.1244522" lon="11.9275368"><ele>423.8</ele><time>2026-04-19T11:31:30.513Z</time></trkpt><trkpt lat="42.1243758" lon="11.9275704"><ele>422.4</ele><time>2026-04-19T11:31:32.51Z</time></trkpt><trkpt lat="42.1242995" lon="11.9276328"><ele>421.0</ele><time>2026-04-19T11:31:34.51Z</time></trkpt><trkpt lat="42.1242141" lon="11.9277057"><ele>423.83333333333337</ele><time>2026-04-19T11:31:36.511Z</time></trkpt><trkpt lat="42.1241289" lon="11.92778"><ele>426.6666666666667</ele><time>2026-04-19T11:31:38.515Z</time></trkpt><trkpt lat="42.1240499" lon="11.9278234"><ele>429.5</ele><time>2026-04-19T11:31:40.513Z</time></trkpt><trkpt lat="42.123978" lon="11.9278357"><ele>432.33333333333337</ele><time>2026-04-19T11:31:42.514Z</time></trkpt><trkpt lat="42.1239077" lon="11.9278142"><ele>435.1666666666667</ele><time>2026-04-19T11:31:44.511Z</time></trkpt><trkpt lat="42.1238425" lon="11.9277596"><ele>438.0</ele><time>2026-04-19T11:31:46.509Z</time></trkpt><trkpt lat="42.1237508" lon="11.9277012"><ele>438.0</ele><time>2026-04-19T11:31:48.511Z</time></trkpt><trkpt lat="42.1236767" lon="11.927627"><ele>437.99999999999994</ele><time>2026-04-19T11:31:50.511Z</time></trkpt><trkpt lat="42.1235857" lon="11.9275757"><ele>437.99999999999994</ele><time>2026-04-19T11:31:52.51Z</time></trkpt><trkpt lat="42.1234939" lon="11.9275273"><ele>438.0</ele><time>2026-04-19T11:31:54.513Z</time></trkpt><trkpt lat="42.1234151" lon="11.9274235"><ele>438.0</ele><time>2026-04-19T11:31:56.518Z</time></trkpt><trkpt lat="42.1233652" lon="11.9272921"><ele>438.0</ele><time>2026-04-19T11:31:58.521Z</time></trkpt><trkpt lat="42.1233516" lon="11.9271422"><ele>437.99999999999994</ele><time>2026-04-19T11:32:00.513Z</time></trkpt><trkpt lat="42.1233325" lon="11.9269971"><ele>437.99999999999994</ele><time>2026-04-19T11:32:02.512Z</time></trkpt><trkpt lat="42.1232535" lon="11.9268937"><ele>438.0</ele><time>2026-04-19T11:32:04.514Z</time></trkpt><trkpt lat="42.1231665" lon="11.9267915"><ele>438.0</ele><time>2026-04-19T11:32:06.512Z</time></trkpt><trkpt lat="42.1230531" lon="11.9267558"><ele>437.0</ele><time>2026-04-19T11:32:08.512Z</time></trkpt><trkpt lat="42.1229393" lon="11.9267573"><ele>435.99999999999994</ele><time>2026-04-19T11:32:10.513Z</time></trkpt><trkpt lat="42.1228287" lon="11.9267464"><ele>434.99999999999994</ele><time>2026-04-19T11:32:12.509Z</time></trkpt><trkpt lat="42.1227332" lon="11.9267508"><ele>434.0</ele><time>2026-04-19T11:32:14.512Z</time></trkpt><trkpt lat="42.1226629" lon="11.9267472"><ele>433.0</ele><time>2026-04-19T11:32:15.514Z</time></trkpt><trkpt lat="42.1225803" lon="11.9266789"><ele>433.0</ele><time>2026-04-19T11:32:17.512Z</time></trkpt><trkpt lat="42.1225255" lon="11.9266196"><ele>432.99999999999994</ele><time>2026-04-19T11:32:18.516Z</time></trkpt><trkpt lat="42.122416" lon="11.926593"><ele>432.99999999999994</ele><time>2026-04-19T11:32:20.513Z</time></trkpt><trkpt lat="42.1223267" lon="11.9266508"><ele>433.0</ele><time>2026-04-19T11:32:22.511Z</time></trkpt><trkpt lat="42.1222458" lon="11.92673"><ele>433.0</ele><time>2026-04-19T11:32:24.511Z</time></trkpt><trkpt lat="42.1221625" lon="11.9267874"><ele>436.00000000000006</ele><time>2026-04-19T11:32:26.51Z</time></trkpt><trkpt lat="42.1220841" lon="11.926813"><ele>439.0</ele><time>2026-04-19T11:32:28.509Z</time></trkpt><trkpt lat="42.1220071" lon="11.926841"><ele>442.0</ele><time>2026-04-19T11:32:30.51Z</time></trkpt><trkpt lat="42.1219456" lon="11.9268772"><ele>445.0</ele><time>2026-04-19T11:32:32.515Z</time></trkpt><trkpt lat="42.1218652" lon="11.9269382"><ele>448.00000000000006</ele><time>2026-04-19T11:32:34.512Z</time></trkpt><trkpt lat="42.1217896" lon="11.9269981"><ele>451.0</ele><time>2026-04-19T11:32:36.513Z</time></trkpt><trkpt lat="42.1217253" lon="11.9270879"><ele>451.0</ele><time>2026-04-19T11:32:38.512Z</time></trkpt><trkpt lat="42.1216526" lon="11.9271646"><ele>451.0</ele><time>2026-04-19T11:32:40.51Z</time></trkpt><trkpt lat="42.1215777" lon="11.9272708"><ele>451.0</ele><time>2026-04-19T11:32:42.52Z</time></trkpt><trkpt lat="42.1214931" lon="11.9273745"><ele>451.0</ele><time>2026-04-19T11:32:44.514Z</time></trkpt><trkpt lat="42.1214378" lon="11.9274294"><ele>451.0</ele><time>2026-04-19T11:32:45.515Z</time></trkpt><trkpt lat="42.1213666" lon="11.9275059"><ele>451.0</ele><time>2026-04-19T11:32:47.506Z</time></trkpt><trkpt lat="42.121318" lon="11.9275664"><ele>451.0</ele><time>2026-04-19T11:32:48.51Z</time></trkpt><trkpt lat="42.1212713" lon="11.9276449"><ele>451.0</ele><time>2026-04-19T11:32:49.52Z</time></trkpt><trkpt lat="42.1211841" lon="11.9277602"><ele>451.0</ele><time>2026-04-19T11:32:51.516Z</time></trkpt><trkpt lat="42.1210815" lon="11.9278627"><ele>451.0</ele><time>2026-04-19T11:32:53.515Z</time></trkpt><trkpt lat="42.1210202" lon="11.9279074"><ele>451.0</ele><time>2026-04-19T11:32:54.509Z</time></trkpt><trkpt lat="42.1208977" lon="11.9279926"><ele>451.0</ele><time>2026-04-19T11:32:56.513Z</time></trkpt><trkpt lat="42.1208349" lon="11.9280313"><ele>451.0</ele><time>2026-04-19T11:32:57.511Z</time></trkpt><trkpt lat="42.1207281" lon="11.9280955"><ele>451.0</ele><time>2026-04-19T11:32:59.519Z</time></trkpt><trkpt lat="42.1206293" lon="11.928172"><ele>451.0</ele><time>2026-04-19T11:33:01.515Z</time></trkpt><trkpt lat="42.1205372" lon="11.9281506"><ele>452.4</ele><time>2026-04-19T11:33:03.512Z</time></trkpt><trkpt lat="42.1205125" lon="11.9280304"><ele>453.8</ele><time>2026-04-19T11:33:05.511Z</time></trkpt><trkpt lat="42.1205407" lon="11.9278947"><ele>455.19999999999993</ele><time>2026-04-19T11:33:07.509Z</time></trkpt><trkpt lat="42.1205702" lon="11.9277858"><ele>456.59999999999997</ele><time>2026-04-19T11:33:09.514Z</time></trkpt><trkpt lat="42.1206149" lon="11.927693"><ele>458.0</ele><time>2026-04-19T11:33:11.514Z</time></trkpt><trkpt lat="42.1206461" lon="11.9275865"><ele>458.66666666666663</ele><time>2026-04-19T11:33:13.518Z</time></trkpt><trkpt lat="42.1206733" lon="11.9274857"><ele>459.3333333333333</ele><time>2026-04-19T11:33:15.513Z</time></trkpt><trkpt lat="42.1206853" lon="11.9273686"><ele>460.0</ele><time>2026-04-19T11:33:17.515Z</time></trkpt><trkpt lat="42.1206781" lon="11.9272358"><ele>460.66666666666663</ele><time>2026-04-19T11:33:19.535Z</time></trkpt><trkpt lat="42.1206684" lon="11.9271443"><ele>461.3333333333333</ele><time>2026-04-19T11:33:20.517Z</time></trkpt><trkpt lat="42.1206525" lon="11.9270106"><ele>462.0</ele><time>2026-04-19T11:33:22.511Z</time></trkpt><trkpt lat="42.1206459" lon="11.9268865"><ele>462.0</ele><time>2026-04-19T11:33:24.511Z</time></trkpt><trkpt lat="42.1206072" lon="11.9267753"><ele>462.00000000000006</ele><time>2026-04-19T11:33:26.513Z</time></trkpt><trkpt lat="42.1205683" lon="11.9266594"><ele>462.00000000000006</ele><time>2026-04-19T11:33:28.509Z</time></trkpt><trkpt lat="42.1205317" lon="11.9265625"><ele>462.0</ele><time>2026-04-19T11:33:30.511Z</time></trkpt><trkpt lat="42.1205053" lon="11.9264512"><ele>462.0</ele><time>2026-04-19T11:33:32.514Z</time></trkpt><trkpt lat="42.1204602" lon="11.9263339"><ele>461.0</ele><time>2026-04-19T11:33:34.511Z</time></trkpt><trkpt lat="42.1204198" lon="11.9262172"><ele>460.00000000000006</ele><time>2026-04-19T11:33:36.511Z</time></trkpt><trkpt lat="42.1203895" lon="11.926097"><ele>459.00000000000006</ele><time>2026-04-19T11:33:38.511Z</time></trkpt><trkpt lat="42.1203442" lon="11.9259708"><ele>458.0</ele><time>2026-04-19T11:33:40.511Z</time></trkpt><trkpt lat="42.1203078" lon="11.9258747"><ele>457.0</ele><time>2026-04-19T11:33:42.514Z</time></trkpt><trkpt lat="42.1202565" lon="11.9257653"><ele>456.1428571428572</ele><time>2026-04-19T11:33:44.512Z</time></trkpt><trkpt lat="42.1202122" lon="11.9256621"><ele>455.28571428571433</ele><time>2026-04-19T11:33:46.513Z</time></trkpt><trkpt lat="42.1201766" lon="11.925574"><ele>454.42857142857144</ele><time>2026-04-19T11:33:48.51Z</time></trkpt><trkpt lat="42.1201392" lon="11.9254881"><ele>453.5714285714286</ele><time>2026-04-19T11:33:53.51Z</time></trkpt><trkpt lat="42.1201034" lon="11.9254147"><ele>452.7142857142858</ele><time>2026-04-19T11:33:59.512Z</time></trkpt><trkpt lat="42.120062" lon="11.9253471"><ele>451.85714285714283</ele><time>2026-04-19T11:34:03.513Z</time></trkpt><trkpt lat="42.1199934" lon="11.9253412"><ele>451.0</ele><time>2026-04-19T11:34:08.51Z</time></trkpt><trkpt lat="42.1199907" lon="11.9254439"><ele>451.0</ele><time>2026-04-19T11:35:11.515Z</time></trkpt><trkpt lat="42.1200402" lon="11.9253842"><ele>451.0</ele><time>2026-04-19T11:35:16.512Z</time></trkpt><trkpt lat="42.1200081" lon="11.9253081"><ele>451.0</ele><time>2026-04-19T11:36:34.509Z</time></trkpt><trkpt lat="42.1199562" lon="11.9253597"><ele>451.0</ele><time>2026-04-19T11:36:38.533Z</time></trkpt><trkpt lat="42.1199459" lon="11.9254538"><ele>451.0</ele><time>2026-04-19T11:36:41.514Z</time></trkpt><trkpt lat="42.1199005" lon="11.925514"><ele>451.0</ele><time>2026-04-19T11:36:44.512Z</time></trkpt><trkpt lat="42.1198641" lon="11.9255982"><ele>451.0</ele><time>2026-04-19T11:36:48.51Z</time></trkpt><trkpt lat="42.1198075" lon="11.9256694"><ele>450.85714285714283</ele><time>2026-04-19T11:36:52.512Z</time></trkpt><trkpt lat="42.1197614" lon="11.9257309"><ele>450.7142857142858</ele><time>2026-04-19T11:36:55.513Z</time></trkpt><trkpt lat="42.119712" lon="11.9258101"><ele>450.5714285714286</ele><time>2026-04-19T11:36:58.514Z</time></trkpt><trkpt lat="42.1196454" lon="11.925896"><ele>450.42857142857144</ele><time>2026-04-19T11:37:01.512Z</time></trkpt><trkpt lat="42.1195975" lon="11.9259648"><ele>450.28571428571433</ele><time>2026-04-19T11:37:03.512Z</time></trkpt><trkpt lat="42.119553" lon="11.9260385"><ele>450.1428571428572</ele><time>2026-04-19T11:37:05.51Z</time></trkpt><trkpt lat="42.1195023" lon="11.9261074"><ele>450.00000000000006</ele><time>2026-04-19T11:37:07.51Z</time></trkpt><trkpt lat="42.1194506" lon="11.9261828"><ele>449.8333333333333</ele><time>2026-04-19T11:37:09.51Z</time></trkpt><trkpt lat="42.1194019" lon="11.9262553"><ele>449.66666666666663</ele><time>2026-04-19T11:37:11.513Z</time></trkpt><trkpt lat="42.1193545" lon="11.9263337"><ele>449.5</ele><time>2026-04-19T11:37:13.512Z</time></trkpt><trkpt lat="42.1193107" lon="11.9264208"><ele>449.3333333333333</ele><time>2026-04-19T11:37:15.512Z</time></trkpt><trkpt lat="42.1192636" lon="11.9265091"><ele>449.16666666666663</ele><time>2026-04-19T11:37:17.512Z</time></trkpt><trkpt lat="42.1191958" lon="11.9265931"><ele>449.0</ele><time>2026-04-19T11:37:19.513Z</time></trkpt><trkpt lat="42.1191191" lon="11.9266817"><ele>448.3333333333333</ele><time>2026-04-19T11:37:21.512Z</time></trkpt><trkpt lat="42.1190249" lon="11.9267876"><ele>447.66666666666663</ele><time>2026-04-19T11:37:23.514Z</time></trkpt><trkpt lat="42.1189672" lon="11.9268485"><ele>447.0</ele><time>2026-04-19T11:37:24.513Z</time></trkpt><trkpt lat="42.1189101" lon="11.9269271"><ele>446.33333333333337</ele><time>2026-04-19T11:37:25.512Z</time></trkpt><trkpt lat="42.1188462" lon="11.9269761"><ele>445.6666666666667</ele><time>2026-04-19T11:37:26.51Z</time></trkpt><trkpt lat="42.1187798" lon="11.9270281"><ele>445.0</ele><time>2026-04-19T11:37:27.511Z</time></trkpt><trkpt lat="42.1187245" lon="11.9270697"><ele>445.0</ele><time>2026-04-19T11:37:28.51Z</time></trkpt><trkpt lat="42.1186428" lon="11.9271047"><ele>445.0</ele><time>2026-04-19T11:37:30.511Z</time></trkpt><trkpt lat="42.1185563" lon="11.9270493"><ele>445.0</ele><time>2026-04-19T11:37:32.518Z</time></trkpt><trkpt lat="42.1184771" lon="11.926965"><ele>445.0</ele><time>2026-04-19T11:37:34.512Z</time></trkpt><trkpt lat="42.1183874" lon="11.9269006"><ele>445.0</ele><time>2026-04-19T11:37:36.514Z</time></trkpt><trkpt lat="42.1182933" lon="11.9268204"><ele>444.2</ele><time>2026-04-19T11:37:38.512Z</time></trkpt><trkpt lat="42.1182153" lon="11.9267204"><ele>443.4</ele><time>2026-04-19T11:37:40.512Z</time></trkpt><trkpt lat="42.1181522" lon="11.9266239"><ele>442.6</ele><time>2026-04-19T11:37:42.511Z</time></trkpt><trkpt lat="42.1180867" lon="11.9265341"><ele>441.8</ele><time>2026-04-19T11:37:44.518Z</time></trkpt><trkpt lat="42.1180143" lon="11.9264124"><ele>441.0</ele><time>2026-04-19T11:37:46.515Z</time></trkpt><trkpt lat="42.1179549" lon="11.9262753"><ele>441.0</ele><time>2026-04-19T11:37:48.511Z</time></trkpt><trkpt lat="42.117904" lon="11.9261244"><ele>441.0</ele><time>2026-04-19T11:37:50.513Z</time></trkpt><trkpt lat="42.117866" lon="11.9260461"><ele>441.0</ele><time>2026-04-19T11:37:51.519Z</time></trkpt><trkpt lat="42.1178258" lon="11.9258871"><ele>441.0</ele><time>2026-04-19T11:37:53.512Z</time></trkpt><trkpt lat="42.1178043" lon="11.9257209"><ele>441.0</ele><time>2026-04-19T11:37:55.515Z</time></trkpt><trkpt lat="42.1177869" lon="11.9255437"><ele>439.6666666666667</ele><time>2026-04-19T11:37:57.512Z</time></trkpt><trkpt lat="42.1177625" lon="11.9254595"><ele>438.33333333333337</ele><time>2026-04-19T11:37:58.513Z</time></trkpt><trkpt lat="42.1177261" lon="11.9253656"><ele>437.0</ele><time>2026-04-19T11:37:59.514Z</time></trkpt><trkpt lat="42.1176857" lon="11.9252814"><ele>435.6666666666667</ele><time>2026-04-19T11:38:00.513Z</time></trkpt><trkpt lat="42.1176306" lon="11.9252028"><ele>434.33333333333337</ele><time>2026-04-19T11:38:01.512Z</time></trkpt><trkpt lat="42.1175613" lon="11.9251305"><ele>433.0</ele><time>2026-04-19T11:38:02.512Z</time></trkpt><trkpt lat="42.1174895" lon="11.9250724"><ele>432.85714285714283</ele><time>2026-04-19T11:38:03.515Z</time></trkpt><trkpt lat="42.1174138" lon="11.925041"><ele>432.7142857142857</ele><time>2026-04-19T11:38:04.512Z</time></trkpt><trkpt lat="42.1173421" lon="11.9250449"><ele>432.57142857142856</ele><time>2026-04-19T11:38:05.516Z</time></trkpt><trkpt lat="42.1172715" lon="11.9250771"><ele>432.42857142857144</ele><time>2026-04-19T11:38:06.518Z</time></trkpt><trkpt lat="42.1172089" lon="11.9251169"><ele>432.2857142857143</ele><time>2026-04-19T11:38:07.511Z</time></trkpt><trkpt lat="42.1171444" lon="11.9251434"><ele>432.1428571428571</ele><time>2026-04-19T11:38:08.514Z</time></trkpt><trkpt lat="42.1170733" lon="11.9251507"><ele>432.0</ele><time>2026-04-19T11:38:09.513Z</time></trkpt><trkpt lat="42.1170039" lon="11.9251446"><ele>430.3333333333333</ele><time>2026-04-19T11:38:10.515Z</time></trkpt><trkpt lat="42.1169175" lon="11.9250372"><ele>428.66666666666663</ele><time>2026-04-19T11:38:12.513Z</time></trkpt><trkpt lat="42.1168235" lon="11.9249207"><ele>427.0</ele><time>2026-04-19T11:38:14.512Z</time></trkpt><trkpt lat="42.1167721" lon="11.9248602"><ele>425.3333333333333</ele><time>2026-04-19T11:38:15.521Z</time></trkpt><trkpt lat="42.1167211" lon="11.9247956"><ele>423.66666666666663</ele><time>2026-04-19T11:38:16.515Z</time></trkpt><trkpt lat="42.1166787" lon="11.9247297"><ele>422.0</ele><time>2026-04-19T11:38:17.513Z</time></trkpt><trkpt lat="42.1166268" lon="11.9246781"><ele>422.0</ele><time>2026-04-19T11:38:18.513Z</time></trkpt><trkpt lat="42.1165748" lon="11.9246218"><ele>422.0</ele><time>2026-04-19T11:38:19.514Z</time></trkpt><trkpt lat="42.1164948" lon="11.9244992"><ele>422.0</ele><time>2026-04-19T11:38:21.512Z</time></trkpt><trkpt lat="42.1164455" lon="11.9243748"><ele>422.0</ele><time>2026-04-19T11:38:23.513Z</time></trkpt><trkpt lat="42.116407" lon="11.9242254"><ele>422.0</ele><time>2026-04-19T11:38:25.512Z</time></trkpt><trkpt lat="42.1163871" lon="11.9241446"><ele>421.0</ele><time>2026-04-19T11:38:26.512Z</time></trkpt><trkpt lat="42.1163525" lon="11.9239873"><ele>420.0</ele><time>2026-04-19T11:38:28.51Z</time></trkpt><trkpt lat="42.1163439" lon="11.9238213"><ele>419.0</ele><time>2026-04-19T11:38:30.512Z</time></trkpt><trkpt lat="42.1163543" lon="11.9236931"><ele>418.0</ele><time>2026-04-19T11:38:32.51Z</time></trkpt><trkpt lat="42.1163824" lon="11.9235951"><ele>417.0</ele><time>2026-04-19T11:38:34.513Z</time></trkpt><trkpt lat="42.1164115" lon="11.9235139"><ele>417.0</ele><time>2026-04-19T11:38:36.511Z</time></trkpt><trkpt lat="42.1164442" lon="11.923411"><ele>417.0</ele><time>2026-04-19T11:38:40.508Z</time></trkpt><trkpt lat="42.1164921" lon="11.9233002"><ele>417.0</ele><time>2026-04-19T11:38:43.509Z</time></trkpt><trkpt lat="42.1165363" lon="11.9232021"><ele>417.0</ele><time>2026-04-19T11:38:45.509Z</time></trkpt><trkpt lat="42.1165774" lon="11.9231114"><ele>417.0</ele><time>2026-04-19T11:38:47.51Z</time></trkpt><trkpt lat="42.1166219" lon="11.9230127"><ele>417.0</ele><time>2026-04-19T11:38:49.509Z</time></trkpt><trkpt lat="42.116664" lon="11.9229184"><ele>417.8333333333333</ele><time>2026-04-19T11:38:51.512Z</time></trkpt><trkpt lat="42.1167061" lon="11.922816"><ele>418.66666666666663</ele><time>2026-04-19T11:38:53.511Z</time></trkpt><trkpt lat="42.1167407" lon="11.9227058"><ele>419.5</ele><time>2026-04-19T11:38:55.512Z</time></trkpt><trkpt lat="42.1167623" lon="11.9226015"><ele>420.3333333333333</ele><time>2026-04-19T11:38:57.511Z</time></trkpt><trkpt lat="42.1167772" lon="11.9224857"><ele>421.16666666666663</ele><time>2026-04-19T11:38:59.511Z</time></trkpt><trkpt lat="42.1168105" lon="11.9223741"><ele>422.0</ele><time>2026-04-19T11:39:01.511Z</time></trkpt><trkpt lat="42.1168328" lon="11.9222736"><ele>423.99999999999994</ele><time>2026-04-19T11:39:03.514Z</time></trkpt><trkpt lat="42.116851" lon="11.9221824"><ele>426.0</ele><time>2026-04-19T11:39:05.512Z</time></trkpt><trkpt lat="42.1168667" lon="11.9220888"><ele>428.0</ele><time>2026-04-19T11:39:07.512Z</time></trkpt><trkpt lat="42.1168748" lon="11.9219857"><ele>430.0</ele><time>2026-04-19T11:39:09.509Z</time></trkpt><trkpt lat="42.1168358" lon="11.9218723"><ele>431.99999999999994</ele><time>2026-04-19T11:39:11.52Z</time></trkpt><trkpt lat="42.1167652" lon="11.921753"><ele>434.0</ele><time>2026-04-19T11:39:13.513Z</time></trkpt><trkpt lat="42.1167063" lon="11.9216317"><ele>434.2</ele><time>2026-04-19T11:39:15.517Z</time></trkpt><trkpt lat="42.1166513" lon="11.9215168"><ele>434.4</ele><time>2026-04-19T11:39:17.513Z</time></trkpt><trkpt lat="42.1166117" lon="11.9213911"><ele>434.6</ele><time>2026-04-19T11:39:19.515Z</time></trkpt><trkpt lat="42.1165811" lon="11.9212784"><ele>434.8</ele><time>2026-04-19T11:39:21.51Z</time></trkpt><trkpt lat="42.1165482" lon="11.9211768"><ele>435.0</ele><time>2026-04-19T11:39:23.512Z</time></trkpt><trkpt lat="42.1165127" lon="11.92103"><ele>434.5</ele><time>2026-04-19T11:39:25.512Z</time></trkpt><trkpt lat="42.1165159" lon="11.9208777"><ele>434.0</ele><time>2026-04-19T11:39:27.507Z</time></trkpt><trkpt lat="42.1165245" lon="11.920715"><ele>433.5</ele><time>2026-04-19T11:39:29.509Z</time></trkpt><trkpt lat="42.116531" lon="11.9206264"><ele>433.0</ele><time>2026-04-19T11:39:30.512Z</time></trkpt><trkpt lat="42.1165407" lon="11.9205421"><ele>432.5</ele><time>2026-04-19T11:39:31.512Z</time></trkpt><trkpt lat="42.1165462" lon="11.9204514"><ele>432.0</ele><time>2026-04-19T11:39:32.511Z</time></trkpt><trkpt lat="42.1165527" lon="11.9203624"><ele>432.0</ele><time>2026-04-19T11:39:33.509Z</time></trkpt><trkpt lat="42.116559" lon="11.9202719"><ele>432.0</ele><time>2026-04-19T11:39:34.514Z</time></trkpt><trkpt lat="42.1165673" lon="11.9201779"><ele>432.0</ele><time>2026-04-19T11:39:35.515Z</time></trkpt><trkpt lat="42.1165746" lon="11.9200821"><ele>432.0</ele><time>2026-04-19T11:39:36.513Z</time></trkpt><trkpt lat="42.1165796" lon="11.9199833"><ele>432.0</ele><time>2026-04-19T11:39:37.513Z</time></trkpt><trkpt lat="42.1165877" lon="11.9198904"><ele>432.0</ele><time>2026-04-19T11:39:38.512Z</time></trkpt><trkpt lat="42.1166027" lon="11.9197986"><ele>432.0</ele><time>2026-04-19T11:39:39.515Z</time></trkpt><trkpt lat="42.116622" lon="11.9197063"><ele>431.8333333333333</ele><time>2026-04-19T11:39:40.512Z</time></trkpt><trkpt lat="42.116642" lon="11.9196201"><ele>431.66666666666663</ele><time>2026-04-19T11:39:41.512Z</time></trkpt><trkpt lat="42.1166565" lon="11.9195291"><ele>431.5</ele><time>2026-04-19T11:39:42.512Z</time></trkpt><trkpt lat="42.1166594" lon="11.9194351"><ele>431.3333333333333</ele><time>2026-04-19T11:39:43.517Z</time></trkpt><trkpt lat="42.1166595" lon="11.919344"><ele>431.16666666666663</ele><time>2026-04-19T11:39:44.512Z</time></trkpt><trkpt lat="42.1166537" lon="11.9191741"><ele>431.0</ele><time>2026-04-19T11:39:46.521Z</time></trkpt><trkpt lat="42.1166404" lon="11.9190819"><ele>430.49999999999994</ele><time>2026-04-19T11:39:47.511Z</time></trkpt><trkpt lat="42.1166084" lon="11.9189976"><ele>430.0</ele><time>2026-04-19T11:39:48.508Z</time></trkpt><trkpt lat="42.1165645" lon="11.9189216"><ele>429.5</ele><time>2026-04-19T11:39:49.51Z</time></trkpt><trkpt lat="42.1164788" lon="11.9187869"><ele>429.0</ele><time>2026-04-19T11:39:51.511Z</time></trkpt><trkpt lat="42.1164351" lon="11.9187203"><ele>428.49999999999994</ele><time>2026-04-19T11:39:52.526Z</time></trkpt><trkpt lat="42.116384" lon="11.9186367"><ele>428.0</ele><time>2026-04-19T11:39:53.511Z</time></trkpt><trkpt lat="42.1163257" lon="11.9185613"><ele>427.3333333333333</ele><time>2026-04-19T11:39:54.514Z</time></trkpt><trkpt lat="42.1162669" lon="11.9184762"><ele>426.66666666666663</ele><time>2026-04-19T11:39:55.513Z</time></trkpt><trkpt lat="42.1162096" lon="11.9183949"><ele>426.0</ele><time>2026-04-19T11:39:56.513Z</time></trkpt><trkpt lat="42.1161428" lon="11.9183107"><ele>425.33333333333337</ele><time>2026-04-19T11:39:57.513Z</time></trkpt><trkpt lat="42.1160834" lon="11.9182124"><ele>424.6666666666667</ele><time>2026-04-19T11:39:58.514Z</time></trkpt><trkpt lat="42.1160162" lon="11.9181249"><ele>424.0</ele><time>2026-04-19T11:39:59.512Z</time></trkpt><trkpt lat="42.1159544" lon="11.9180305"><ele>423.4</ele><time>2026-04-19T11:40:00.519Z</time></trkpt><trkpt lat="42.1158903" lon="11.9179227"><ele>422.79999999999995</ele><time>2026-04-19T11:40:01.512Z</time></trkpt><trkpt lat="42.1158338" lon="11.9178112"><ele>422.20000000000005</ele><time>2026-04-19T11:40:02.511Z</time></trkpt><trkpt lat="42.1157639" lon="11.9177087"><ele>421.6</ele><time>2026-04-19T11:40:03.513Z</time></trkpt><trkpt lat="42.1156828" lon="11.9176142"><ele>421.0</ele><time>2026-04-19T11:40:04.513Z</time></trkpt><trkpt lat="42.1156167" lon="11.9175006"><ele>417.0</ele><time>2026-04-19T11:40:05.514Z</time></trkpt><trkpt lat="42.1155419" lon="11.9173897"><ele>413.0</ele><time>2026-04-19T11:40:06.517Z</time></trkpt><trkpt lat="42.1154623" lon="11.9172812"><ele>409.0</ele><time>2026-04-19T11:40:07.512Z</time></trkpt><trkpt lat="42.1153827" lon="11.9171654"><ele>405.0</ele><time>2026-04-19T11:40:08.511Z</time></trkpt><trkpt lat="42.1153" lon="11.9170495"><ele>405.0</ele><time>2026-04-19T11:40:09.514Z</time></trkpt><trkpt lat="42.1152245" lon="11.9169146"><ele>405.0</ele><time>2026-04-19T11:40:10.517Z</time></trkpt><trkpt lat="42.1151501" lon="11.9167831"><ele>405.0</ele><time>2026-04-19T11:40:11.516Z</time></trkpt><trkpt lat="42.1150902" lon="11.9166388"><ele>405.0</ele><time>2026-04-19T11:40:12.516Z</time></trkpt><trkpt lat="42.1150245" lon="11.9165005"><ele>404.5</ele><time>2026-04-19T11:40:13.516Z</time></trkpt><trkpt lat="42.1149655" lon="11.9163608"><ele>404.0</ele><time>2026-04-19T11:40:14.515Z</time></trkpt><trkpt lat="42.1148973" lon="11.9162172"><ele>403.5</ele><time>2026-04-19T11:40:15.512Z</time></trkpt><trkpt lat="42.1148395" lon="11.9160836"><ele>403.0</ele><time>2026-04-19T11:40:16.513Z</time></trkpt><trkpt lat="42.1147797" lon="11.9159529"><ele>402.4</ele><time>2026-04-19T11:40:17.511Z</time></trkpt><trkpt lat="42.1147296" lon="11.9158198"><ele>401.79999999999995</ele><time>2026-04-19T11:40:18.511Z</time></trkpt><trkpt lat="42.1146857" lon="11.9156891"><ele>401.2</ele><time>2026-04-19T11:40:19.51Z</time></trkpt><trkpt lat="42.114638" lon="11.9155566"><ele>400.6</ele><time>2026-04-19T11:40:20.512Z</time></trkpt><trkpt lat="42.114594" lon="11.9154437"><ele>400.0</ele><time>2026-04-19T11:40:21.511Z</time></trkpt><trkpt lat="42.1145617" lon="11.9153451"><ele>400.00000000000006</ele><time>2026-04-19T11:40:22.51Z</time></trkpt><trkpt lat="42.1145407" lon="11.9152495"><ele>400.0</ele><time>2026-04-19T11:40:23.51Z</time></trkpt><trkpt lat="42.1145207" lon="11.9151627"><ele>400.0</ele><time>2026-04-19T11:40:24.511Z</time></trkpt><trkpt lat="42.1145191" lon="11.9150776"><ele>400.0</ele><time>2026-04-19T11:40:25.512Z</time></trkpt><trkpt lat="42.1145401" lon="11.9149947"><ele>400.0</ele><time>2026-04-19T11:40:26.511Z</time></trkpt><trkpt lat="42.1145534" lon="11.9149054"><ele>400.00000000000006</ele><time>2026-04-19T11:40:27.511Z</time></trkpt><trkpt lat="42.1145727" lon="11.9148159"><ele>400.0</ele><time>2026-04-19T11:40:28.512Z</time></trkpt><trkpt lat="42.1145864" lon="11.9147195"><ele>399.33333333333337</ele><time>2026-04-19T11:40:29.51Z</time></trkpt><trkpt lat="42.1146043" lon="11.9146201"><ele>398.6666666666667</ele><time>2026-04-19T11:40:30.513Z</time></trkpt><trkpt lat="42.114625" lon="11.9144999"><ele>398.0</ele><time>2026-04-19T11:40:31.515Z</time></trkpt><trkpt lat="42.1146255" lon="11.9143824"><ele>397.33333333333337</ele><time>2026-04-19T11:40:32.515Z</time></trkpt><trkpt lat="42.1146361" lon="11.9142649"><ele>396.6666666666667</ele><time>2026-04-19T11:40:33.515Z</time></trkpt><trkpt lat="42.1146546" lon="11.9141405"><ele>396.0</ele><time>2026-04-19T11:40:34.515Z</time></trkpt><trkpt lat="42.1146772" lon="11.9140346"><ele>393.1666666666667</ele><time>2026-04-19T11:40:35.514Z</time></trkpt><trkpt lat="42.1146947" lon="11.9139353"><ele>390.3333333333333</ele><time>2026-04-19T11:40:36.513Z</time></trkpt><trkpt lat="42.114699" lon="11.9138269"><ele>387.5</ele><time>2026-04-19T11:40:37.513Z</time></trkpt><trkpt lat="42.1147131" lon="11.9137094"><ele>384.66666666666663</ele><time>2026-04-19T11:40:38.511Z</time></trkpt><trkpt lat="42.1147305" lon="11.9136123"><ele>381.8333333333333</ele><time>2026-04-19T11:40:39.513Z</time></trkpt><trkpt lat="42.1147336" lon="11.9135058"><ele>379.0</ele><time>2026-04-19T11:40:40.512Z</time></trkpt><trkpt lat="42.1147442" lon="11.9133995"><ele>376.4</ele><time>2026-04-19T11:40:41.514Z</time></trkpt><trkpt lat="42.1147536" lon="11.9132484"><ele>373.79999999999995</ele><time>2026-04-19T11:40:42.512Z</time></trkpt><trkpt lat="42.1147685" lon="11.9131185"><ele>371.20000000000005</ele><time>2026-04-19T11:40:43.515Z</time></trkpt><trkpt lat="42.1147794" lon="11.9129811"><ele>368.6</ele><time>2026-04-19T11:40:44.513Z</time></trkpt><trkpt lat="42.1147732" lon="11.9128592"><ele>366.0</ele><time>2026-04-19T11:40:45.512Z</time></trkpt><trkpt lat="42.1147481" lon="11.9127452"><ele>366.0</ele><time>2026-04-19T11:40:46.511Z</time></trkpt><trkpt lat="42.1147248" lon="11.9126515"><ele>366.0</ele><time>2026-04-19T11:40:47.51Z</time></trkpt><trkpt lat="42.1146998" lon="11.9125513"><ele>366.0</ele><time>2026-04-19T11:40:48.51Z</time></trkpt><trkpt lat="42.1146716" lon="11.9124483"><ele>366.0</ele><time>2026-04-19T11:40:49.509Z</time></trkpt><trkpt lat="42.1146485" lon="11.9123177"><ele>366.0</ele><time>2026-04-19T11:40:50.522Z</time></trkpt><trkpt lat="42.1146412" lon="11.9121767"><ele>366.0</ele><time>2026-04-19T11:40:51.512Z</time></trkpt><trkpt lat="42.114629" lon="11.9120498"><ele>365.0</ele><time>2026-04-19T11:40:52.513Z</time></trkpt><trkpt lat="42.1146307" lon="11.9119523"><ele>364.0</ele><time>2026-04-19T11:40:53.514Z</time></trkpt><trkpt lat="42.1146263" lon="11.9118537"><ele>363.0</ele><time>2026-04-19T11:40:54.515Z</time></trkpt><trkpt lat="42.1146088" lon="11.9117651"><ele>362.0</ele><time>2026-04-19T11:40:55.514Z</time></trkpt><trkpt lat="42.1145687" lon="11.9116882"><ele>361.0</ele><time>2026-04-19T11:40:56.512Z</time></trkpt><trkpt lat="42.1145252" lon="11.9116155"><ele>360.0</ele><time>2026-04-19T11:40:57.512Z</time></trkpt><trkpt lat="42.1144665" lon="11.9115528"><ele>359.0</ele><time>2026-04-19T11:40:58.513Z</time></trkpt><trkpt lat="42.114404" lon="11.9115345"><ele>357.2</ele><time>2026-04-19T11:40:59.512Z</time></trkpt><trkpt lat="42.1142793" lon="11.9115324"><ele>355.4</ele><time>2026-04-19T11:41:01.511Z</time></trkpt><trkpt lat="42.1141703" lon="11.9115856"><ele>353.6</ele><time>2026-04-19T11:41:03.518Z</time></trkpt><trkpt lat="42.1140773" lon="11.911604"><ele>351.8</ele><time>2026-04-19T11:41:05.513Z</time></trkpt><trkpt lat="42.1139948" lon="11.9116029"><ele>350.0</ele><time>2026-04-19T11:41:07.511Z</time></trkpt><trkpt lat="42.1139239" lon="11.9116192"><ele>349.85714285714283</ele><time>2026-04-19T11:41:10.522Z</time></trkpt><trkpt lat="42.1138484" lon="11.9116445"><ele>349.7142857142857</ele><time>2026-04-19T11:41:13.508Z</time></trkpt><trkpt lat="42.1137682" lon="11.9116649"><ele>349.57142857142856</ele><time>2026-04-19T11:41:16.512Z</time></trkpt><trkpt lat="42.113708" lon="11.9116899"><ele>349.42857142857144</ele><time>2026-04-19T11:41:18.512Z</time></trkpt><trkpt lat="42.1136337" lon="11.9117083"><ele>349.2857142857143</ele><time>2026-04-19T11:41:20.512Z</time></trkpt><trkpt lat="42.1135629" lon="11.9117238"><ele>349.1428571428571</ele><time>2026-04-19T11:41:22.513Z</time></trkpt><trkpt lat="42.1134928" lon="11.911738"><ele>349.0</ele><time>2026-04-19T11:41:24.513Z</time></trkpt><trkpt lat="42.1134251" lon="11.9117498"><ele>349.0</ele><time>2026-04-19T11:41:26.51Z</time></trkpt><trkpt lat="42.1133467" lon="11.9117444"><ele>349.0</ele><time>2026-04-19T11:41:28.509Z</time></trkpt><trkpt lat="42.1132673" lon="11.9117241"><ele>349.0</ele><time>2026-04-19T11:41:30.51Z</time></trkpt><trkpt lat="42.1131873" lon="11.911706"><ele>349.0</ele><time>2026-04-19T11:41:32.515Z</time></trkpt><trkpt lat="42.1130981" lon="11.9116756"><ele>349.0</ele><time>2026-04-19T11:41:34.513Z</time></trkpt><trkpt lat="42.1130004" lon="11.911625"><ele>349.0</ele><time>2026-04-19T11:41:36.516Z</time></trkpt><trkpt lat="42.1128956" lon="11.9115705"><ele>350.2</ele><time>2026-04-19T11:41:38.516Z</time></trkpt><trkpt lat="42.1128002" lon="11.9115149"><ele>351.4</ele><time>2026-04-19T11:41:40.512Z</time></trkpt><trkpt lat="42.1127466" lon="11.9114067"><ele>352.6</ele><time>2026-04-19T11:41:42.513Z</time></trkpt><trkpt lat="42.1127194" lon="11.9112657"><ele>353.8</ele><time>2026-04-19T11:41:44.513Z</time></trkpt><trkpt lat="42.1126887" lon="11.9111345"><ele>355.0</ele><time>2026-04-19T11:41:46.51Z</time></trkpt><trkpt lat="42.1126449" lon="11.9110247"><ele>355.0</ele><time>2026-04-19T11:41:48.512Z</time></trkpt><trkpt lat="42.1125807" lon="11.9109362"><ele>355.0</ele><time>2026-04-19T11:41:50.512Z</time></trkpt><trkpt lat="42.1124822" lon="11.9108652"><ele>355.0</ele><time>2026-04-19T11:41:52.521Z</time></trkpt><trkpt lat="42.1124176" lon="11.910849"><ele>355.0</ele><time>2026-04-19T11:41:53.515Z</time></trkpt><trkpt lat="42.1123428" lon="11.9108273"><ele>355.0</ele><time>2026-04-19T11:41:54.517Z</time></trkpt><trkpt lat="42.1122591" lon="11.9108132"><ele>355.0</ele><time>2026-04-19T11:41:55.512Z</time></trkpt><trkpt lat="42.1121728" lon="11.9107948"><ele>352.66666666666663</ele><time>2026-04-19T11:41:56.515Z</time></trkpt><trkpt lat="42.1120832" lon="11.9107707"><ele>350.3333333333333</ele><time>2026-04-19T11:41:57.515Z</time></trkpt><trkpt lat="42.1120015" lon="11.9107504"><ele>348.0</ele><time>2026-04-19T11:41:58.513Z</time></trkpt><trkpt lat="42.1119221" lon="11.9107303"><ele>345.6666666666667</ele><time>2026-04-19T11:41:59.514Z</time></trkpt><trkpt lat="42.1118395" lon="11.9107247"><ele>343.33333333333337</ele><time>2026-04-19T11:42:00.514Z</time></trkpt><trkpt lat="42.1117636" lon="11.910748"><ele>341.0</ele><time>2026-04-19T11:42:01.515Z</time></trkpt><trkpt lat="42.111687" lon="11.9107793"><ele>341.0</ele><time>2026-04-19T11:42:02.522Z</time></trkpt><trkpt lat="42.1116084" lon="11.9108191"><ele>341.0</ele><time>2026-04-19T11:42:03.512Z</time></trkpt><trkpt lat="42.1115002" lon="11.9108929"><ele>341.0</ele><time>2026-04-19T11:42:05.515Z</time></trkpt><trkpt lat="42.1114378" lon="11.9109302"><ele>341.0</ele><time>2026-04-19T11:42:06.512Z</time></trkpt><trkpt lat="42.1113706" lon="11.9109671"><ele>341.0</ele><time>2026-04-19T11:42:07.509Z</time></trkpt><trkpt lat="42.1112963" lon="11.9110053"><ele>341.0</ele><time>2026-04-19T11:42:08.514Z</time></trkpt><trkpt lat="42.1112223" lon="11.9110393"><ele>341.6666666666667</ele><time>2026-04-19T11:42:09.511Z</time></trkpt><trkpt lat="42.1111494" lon="11.9110764"><ele>342.33333333333337</ele><time>2026-04-19T11:42:10.516Z</time></trkpt><trkpt lat="42.1110828" lon="11.9111214"><ele>343.0</ele><time>2026-04-19T11:42:11.512Z</time></trkpt><trkpt lat="42.1110065" lon="11.9111708"><ele>343.6666666666667</ele><time>2026-04-19T11:42:12.516Z</time></trkpt><trkpt lat="42.1109342" lon="11.9112154"><ele>344.3333333333333</ele><time>2026-04-19T11:42:13.514Z</time></trkpt><trkpt lat="42.1108637" lon="11.9112379"><ele>345.0</ele><time>2026-04-19T11:42:14.514Z</time></trkpt><trkpt lat="42.1107598" lon="11.9112626"><ele>342.3333333333333</ele><time>2026-04-19T11:42:16.514Z</time></trkpt><trkpt lat="42.110691" lon="11.9112285"><ele>339.6666666666667</ele><time>2026-04-19T11:42:19.512Z</time></trkpt><trkpt lat="42.110632" lon="11.9111794"><ele>337.0</ele><time>2026-04-19T11:42:34.511Z</time></trkpt><trkpt lat="42.1105806" lon="11.9111129"><ele>334.33333333333337</ele><time>2026-04-19T11:42:39.513Z</time></trkpt><trkpt lat="42.110536" lon="11.9110361"><ele>331.6666666666667</ele><time>2026-04-19T11:43:09.51Z</time></trkpt><trkpt lat="42.1104998" lon="11.9109445"><ele>329.0</ele><time>2026-04-19T11:43:35.512Z</time></trkpt><trkpt lat="42.1104491" lon="11.9108384"><ele>328.4</ele><time>2026-04-19T11:43:38.513Z</time></trkpt><trkpt lat="42.1103901" lon="11.910755"><ele>327.79999999999995</ele><time>2026-04-19T11:43:40.511Z</time></trkpt><trkpt lat="42.110346" lon="11.9106432"><ele>327.20000000000005</ele><time>2026-04-19T11:43:42.52Z</time></trkpt><trkpt lat="42.1102897" lon="11.9105328"><ele>326.6</ele><time>2026-04-19T11:43:44.512Z</time></trkpt><trkpt lat="42.1102226" lon="11.9104378"><ele>326.0</ele><time>2026-04-19T11:43:46.513Z</time></trkpt><trkpt lat="42.1101425" lon="11.9103168"><ele>326.0</ele><time>2026-04-19T11:43:48.509Z</time></trkpt><trkpt lat="42.1101046" lon="11.9102417"><ele>326.0</ele><time>2026-04-19T11:43:49.512Z</time></trkpt><trkpt lat="42.1100324" lon="11.9101265"><ele>326.0</ele><time>2026-04-19T11:43:51.512Z</time></trkpt><trkpt lat="42.1099978" lon="11.9100379"><ele>326.0</ele><time>2026-04-19T11:43:53.523Z</time></trkpt><trkpt lat="42.1099623" lon="11.9099457"><ele>326.0</ele><time>2026-04-19T11:43:55.514Z</time></trkpt><trkpt lat="42.1099116" lon="11.9098348"><ele>326.0</ele><time>2026-04-19T11:43:57.515Z</time></trkpt><trkpt lat="42.1098489" lon="11.9097149"><ele>322.8</ele><time>2026-04-19T11:43:59.515Z</time></trkpt><trkpt lat="42.1097989" lon="11.9096081"><ele>319.6</ele><time>2026-04-19T11:44:01.513Z</time></trkpt><trkpt lat="42.1097321" lon="11.9094893"><ele>316.4</ele><time>2026-04-19T11:44:03.512Z</time></trkpt><trkpt lat="42.1096796" lon="11.9093759"><ele>313.2</ele><time>2026-04-19T11:44:05.517Z</time></trkpt><trkpt lat="42.1096353" lon="11.9092661"><ele>310.0</ele><time>2026-04-19T11:44:07.511Z</time></trkpt><trkpt lat="42.1096135" lon="11.9091844"><ele>309.3333333333333</ele><time>2026-04-19T11:44:09.513Z</time></trkpt><trkpt lat="42.1096134" lon="11.9090956"><ele>308.66666666666663</ele><time>2026-04-19T11:44:11.513Z</time></trkpt><trkpt lat="42.1096865" lon="11.9090347"><ele>308.0</ele><time>2026-04-19T11:44:14.511Z</time></trkpt><trkpt lat="42.1097613" lon="11.9090339"><ele>307.3333333333333</ele><time>2026-04-19T11:44:16.517Z</time></trkpt><trkpt lat="42.1098497" lon="11.9090314"><ele>306.6666666666667</ele><time>2026-04-19T11:44:18.512Z</time></trkpt><trkpt lat="42.1099458" lon="11.9090238"><ele>306.0</ele><time>2026-04-19T11:44:20.514Z</time></trkpt><trkpt lat="42.1100398" lon="11.9089789"><ele>306.0</ele><time>2026-04-19T11:44:22.511Z</time></trkpt><trkpt lat="42.1100903" lon="11.9088571"><ele>306.0</ele><time>2026-04-19T11:44:24.513Z</time></trkpt><trkpt lat="42.1101492" lon="11.9087269"><ele>306.0</ele><time>2026-04-19T11:44:26.516Z</time></trkpt><trkpt lat="42.1102271" lon="11.9086217"><ele>306.0</ele><time>2026-04-19T11:44:28.511Z</time></trkpt><trkpt lat="42.1102991" lon="11.9085228"><ele>306.0</ele><time>2026-04-19T11:44:30.514Z</time></trkpt><trkpt lat="42.1103764" lon="11.9084909"><ele>306.0</ele><time>2026-04-19T11:44:32.513Z</time></trkpt><trkpt lat="42.110465" lon="11.908484"><ele>306.0</ele><time>2026-04-19T11:44:34.513Z</time></trkpt><trkpt lat="42.1105537" lon="11.9084506"><ele>306.0</ele><time>2026-04-19T11:44:36.514Z</time></trkpt><trkpt lat="42.1106188" lon="11.9083892"><ele>306.0</ele><time>2026-04-19T11:44:38.525Z</time></trkpt><trkpt lat="42.1106803" lon="11.9082865"><ele>306.0</ele><time>2026-04-19T11:44:40.515Z</time></trkpt><trkpt lat="42.110708" lon="11.9081575"><ele>303.0</ele><time>2026-04-19T11:44:42.511Z</time></trkpt><trkpt lat="42.1107427" lon="11.9080043"><ele>300.0</ele><time>2026-04-19T11:44:44.515Z</time></trkpt><trkpt lat="42.1107718" lon="11.9079252"><ele>297.0</ele><time>2026-04-19T11:44:45.513Z</time></trkpt><trkpt lat="42.1107973" lon="11.9078309"><ele>294.0</ele><time>2026-04-19T11:44:46.515Z</time></trkpt><trkpt lat="42.1108219" lon="11.9077402"><ele>291.0</ele><time>2026-04-19T11:44:47.511Z</time></trkpt><trkpt lat="42.1108491" lon="11.9076485"><ele>288.0</ele><time>2026-04-19T11:44:48.51Z</time></trkpt><trkpt lat="42.1108707" lon="11.9075586"><ele>286.42857142857144</ele><time>2026-04-19T11:44:49.51Z</time></trkpt><trkpt lat="42.1108939" lon="11.9074634"><ele>284.8571428571429</ele><time>2026-04-19T11:44:50.513Z</time></trkpt><trkpt lat="42.1109135" lon="11.9073586"><ele>283.2857142857143</ele><time>2026-04-19T11:44:51.515Z</time></trkpt><trkpt lat="42.1109309" lon="11.9072536"><ele>281.7142857142857</ele><time>2026-04-19T11:44:52.514Z</time></trkpt><trkpt lat="42.110954" lon="11.9071599"><ele>280.1428571428571</ele><time>2026-04-19T11:44:53.515Z</time></trkpt><trkpt lat="42.1109881" lon="11.9070828"><ele>278.57142857142856</ele><time>2026-04-19T11:44:54.515Z</time></trkpt><trkpt lat="42.1110264" lon="11.9070108"><ele>277.0</ele><time>2026-04-19T11:44:55.515Z</time></trkpt><trkpt lat="42.1110654" lon="11.9068621"><ele>277.0</ele><time>2026-04-19T11:44:57.513Z</time></trkpt><trkpt lat="42.1110797" lon="11.9067705"><ele>277.0</ele><time>2026-04-19T11:44:58.514Z</time></trkpt><trkpt lat="42.1110912" lon="11.9066686"><ele>277.0</ele><time>2026-04-19T11:44:59.513Z</time></trkpt><trkpt lat="42.1110953" lon="11.906569"><ele>277.0</ele><time>2026-04-19T11:45:00.513Z</time></trkpt><trkpt lat="42.1110954" lon="11.9064647"><ele>277.0</ele><time>2026-04-19T11:45:01.514Z</time></trkpt><trkpt lat="42.111089" lon="11.9063756"><ele>277.0</ele><time>2026-04-19T11:45:02.512Z</time></trkpt><trkpt lat="42.1110845" lon="11.9062764"><ele>277.0</ele><time>2026-04-19T11:45:03.511Z</time></trkpt><trkpt lat="42.1110747" lon="11.9061748"><ele>274.66666666666663</ele><time>2026-04-19T11:45:04.512Z</time></trkpt><trkpt lat="42.1110617" lon="11.9060637"><ele>272.3333333333333</ele><time>2026-04-19T11:45:05.513Z</time></trkpt><trkpt lat="42.1110574" lon="11.9059567"><ele>270.0</ele><time>2026-04-19T11:45:06.515Z</time></trkpt><trkpt lat="42.1110505" lon="11.9058547"><ele>267.6666666666667</ele><time>2026-04-19T11:45:07.511Z</time></trkpt><trkpt lat="42.1110362" lon="11.9057572"><ele>265.33333333333337</ele><time>2026-04-19T11:45:08.509Z</time></trkpt><trkpt lat="42.1110284" lon="11.9056504"><ele>263.0</ele><time>2026-04-19T11:45:09.51Z</time></trkpt><trkpt lat="42.1110135" lon="11.9055436"><ele>261.5</ele><time>2026-04-19T11:45:10.513Z</time></trkpt><trkpt lat="42.1110017" lon="11.9054514"><ele>260.0</ele><time>2026-04-19T11:45:11.512Z</time></trkpt><trkpt lat="42.1109838" lon="11.905352"><ele>258.5</ele><time>2026-04-19T11:45:12.515Z</time></trkpt><trkpt lat="42.1109542" lon="11.905273"><ele>257.0</ele><time>2026-04-19T11:45:13.512Z</time></trkpt><trkpt lat="42.1109313" lon="11.9051928"><ele>255.50000000000003</ele><time>2026-04-19T11:45:14.511Z</time></trkpt><trkpt lat="42.1108493" lon="11.9050923"><ele>254.0</ele><time>2026-04-19T11:45:16.511Z</time></trkpt><trkpt lat="42.1107594" lon="11.9050928"><ele>252.50000000000003</ele><time>2026-04-19T11:45:18.515Z</time></trkpt><trkpt lat="42.1106708" lon="11.9051694"><ele>251.0</ele><time>2026-04-19T11:45:20.515Z</time></trkpt><trkpt lat="42.1105816" lon="11.9052893"><ele>249.5</ele><time>2026-04-19T11:45:22.514Z</time></trkpt><trkpt lat="42.1105304" lon="11.9053432"><ele>248.0</ele><time>2026-04-19T11:45:23.511Z</time></trkpt><trkpt lat="42.1104835" lon="11.9054027"><ele>246.50000000000003</ele><time>2026-04-19T11:45:24.515Z</time></trkpt><trkpt lat="42.1104266" lon="11.9054594"><ele>245.0</ele><time>2026-04-19T11:45:25.515Z</time></trkpt><trkpt lat="42.1103227" lon="11.9055309"><ele>245.0</ele><time>2026-04-19T11:45:27.51Z</time></trkpt><trkpt lat="42.1102269" lon="11.905555"><ele>245.0</ele><time>2026-04-19T11:45:29.511Z</time></trkpt><trkpt lat="42.110119" lon="11.9055582"><ele>245.0</ele><time>2026-04-19T11:45:31.515Z</time></trkpt><trkpt lat="42.1100103" lon="11.905521"><ele>245.0</ele><time>2026-04-19T11:45:33.513Z</time></trkpt><trkpt lat="42.1099622" lon="11.905447"><ele>245.0</ele><time>2026-04-19T11:45:34.52Z</time></trkpt><trkpt lat="42.1099184" lon="11.905377"><ele>245.00000000000003</ele><time>2026-04-19T11:45:35.519Z</time></trkpt><trkpt lat="42.1098698" lon="11.9053136"><ele>245.0</ele><time>2026-04-19T11:45:36.514Z</time></trkpt><trkpt lat="42.1098004" lon="11.9052528"><ele>245.0</ele><time>2026-04-19T11:45:37.516Z</time></trkpt><trkpt lat="42.1097274" lon="11.9052127"><ele>245.0</ele><time>2026-04-19T11:45:38.512Z</time></trkpt><trkpt lat="42.1096511" lon="11.9051759"><ele>245.00000000000003</ele><time>2026-04-19T11:45:39.512Z</time></trkpt><trkpt lat="42.1095771" lon="11.9051328"><ele>245.0</ele><time>2026-04-19T11:45:40.511Z</time></trkpt><trkpt lat="42.1095101" lon="11.9050708"><ele>242.83333333333334</ele><time>2026-04-19T11:45:41.511Z</time></trkpt><trkpt lat="42.1094473" lon="11.9050098"><ele>240.66666666666669</ele><time>2026-04-19T11:45:42.515Z</time></trkpt><trkpt lat="42.1093872" lon="11.9049505"><ele>238.5</ele><time>2026-04-19T11:45:43.514Z</time></trkpt><trkpt lat="42.1093222" lon="11.9048989"><ele>236.33333333333331</ele><time>2026-04-19T11:45:44.515Z</time></trkpt><trkpt lat="42.1092427" lon="11.9048684"><ele>234.16666666666666</ele><time>2026-04-19T11:45:45.511Z</time></trkpt><trkpt lat="42.1091688" lon="11.9048442"><ele>232.0</ele><time>2026-04-19T11:45:46.514Z</time></trkpt><trkpt lat="42.1091053" lon="11.9048179"><ele>232.49999999999997</ele><time>2026-04-19T11:45:47.511Z</time></trkpt><trkpt lat="42.1090454" lon="11.9047623"><ele>233.0</ele><time>2026-04-19T11:45:48.512Z</time></trkpt><trkpt lat="42.1089486" lon="11.9046551"><ele>233.5</ele><time>2026-04-19T11:45:50.513Z</time></trkpt><trkpt lat="42.1088972" lon="11.9045872"><ele>234.0</ele><time>2026-04-19T11:45:51.513Z</time></trkpt><trkpt lat="42.1088473" lon="11.9045004"><ele>234.49999999999997</ele><time>2026-04-19T11:45:52.515Z</time></trkpt><trkpt lat="42.1087993" lon="11.9044065"><ele>235.0</ele><time>2026-04-19T11:45:53.512Z</time></trkpt><trkpt lat="42.1087522" lon="11.9043294"><ele>234.99999999999997</ele><time>2026-04-19T11:45:54.515Z</time></trkpt><trkpt lat="42.1087018" lon="11.9042497"><ele>235.0</ele><time>2026-04-19T11:45:55.513Z</time></trkpt><trkpt lat="42.1086494" lon="11.9041682"><ele>235.0</ele><time>2026-04-19T11:45:56.516Z</time></trkpt><trkpt lat="42.1086013" lon="11.9041003"><ele>235.0</ele><time>2026-04-19T11:45:57.518Z</time></trkpt><trkpt lat="42.1085358" lon="11.9040289"><ele>234.99999999999997</ele><time>2026-04-19T11:45:58.514Z</time></trkpt><trkpt lat="42.1084777" lon="11.9039454"><ele>235.0</ele><time>2026-04-19T11:45:59.514Z</time></trkpt><trkpt lat="42.1084407" lon="11.903854"><ele>232.2</ele><time>2026-04-19T11:46:00.512Z</time></trkpt><trkpt lat="42.1083961" lon="11.903763"><ele>229.4</ele><time>2026-04-19T11:46:01.511Z</time></trkpt><trkpt lat="42.1083436" lon="11.903674"><ele>226.60000000000002</ele><time>2026-04-19T11:46:02.513Z</time></trkpt><trkpt lat="42.1082267" lon="11.9036233"><ele>223.8</ele><time>2026-04-19T11:46:04.52Z</time></trkpt><trkpt lat="42.1080913" lon="11.9036102"><ele>221.0</ele><time>2026-04-19T11:46:06.511Z</time></trkpt><trkpt lat="42.1080172" lon="11.9036012"><ele>221.00000000000003</ele><time>2026-04-19T11:46:07.511Z</time></trkpt><trkpt lat="42.1079436" lon="11.9035937"><ele>221.0</ele><time>2026-04-19T11:46:08.511Z</time></trkpt><trkpt lat="42.1078731" lon="11.9035898"><ele>221.0</ele><time>2026-04-19T11:46:09.513Z</time></trkpt><trkpt lat="42.1077589" lon="11.9036435"><ele>221.0</ele><time>2026-04-19T11:46:11.512Z</time></trkpt><trkpt lat="42.1077061" lon="11.9036992"><ele>221.00000000000003</ele><time>2026-04-19T11:46:12.513Z</time></trkpt><trkpt lat="42.1076079" lon="11.9037306"><ele>221.0</ele><time>2026-04-19T11:46:14.517Z</time></trkpt><trkpt lat="42.1075071" lon="11.9036932"><ele>221.00000000000003</ele><time>2026-04-19T11:46:16.515Z</time></trkpt><trkpt lat="42.1074469" lon="11.9035876"><ele>221.0</ele><time>2026-04-19T11:46:18.513Z</time></trkpt><trkpt lat="42.10737" lon="11.9034539"><ele>221.0</ele><time>2026-04-19T11:46:20.511Z</time></trkpt><trkpt lat="42.1073136" lon="11.9034134"><ele>221.0</ele><time>2026-04-19T11:46:21.512Z</time></trkpt><trkpt lat="42.1072623" lon="11.9033387"><ele>221.00000000000003</ele><time>2026-04-19T11:46:22.514Z</time></trkpt><trkpt lat="42.107231" lon="11.9032484"><ele>221.0</ele><time>2026-04-19T11:46:23.513Z</time></trkpt><trkpt lat="42.1072089" lon="11.9031547"><ele>218.16666666666669</ele><time>2026-04-19T11:46:24.516Z</time></trkpt><trkpt lat="42.1071681" lon="11.9030636"><ele>215.33333333333334</ele><time>2026-04-19T11:46:25.516Z</time></trkpt><trkpt lat="42.1071138" lon="11.9029797"><ele>212.5</ele><time>2026-04-19T11:46:26.515Z</time></trkpt><trkpt lat="42.1070558" lon="11.9029024"><ele>209.66666666666669</ele><time>2026-04-19T11:46:27.509Z</time></trkpt><trkpt lat="42.1070016" lon="11.9028186"><ele>206.83333333333334</ele><time>2026-04-19T11:46:28.512Z</time></trkpt><trkpt lat="42.1069523" lon="11.9027362"><ele>204.0</ele><time>2026-04-19T11:46:29.511Z</time></trkpt><trkpt lat="42.1068936" lon="11.902655"><ele>204.0</ele><time>2026-04-19T11:46:30.511Z</time></trkpt><trkpt lat="42.10684" lon="11.9025822"><ele>204.0</ele><time>2026-04-19T11:46:31.515Z</time></trkpt><trkpt lat="42.1068005" lon="11.9025115"><ele>204.0</ele><time>2026-04-19T11:46:32.515Z</time></trkpt><trkpt lat="42.106749" lon="11.902434"><ele>204.0</ele><time>2026-04-19T11:46:33.516Z</time></trkpt><trkpt lat="42.1066804" lon="11.9022994"><ele>204.0</ele><time>2026-04-19T11:46:35.517Z</time></trkpt><trkpt lat="42.1065708" lon="11.9022088"><ele>201.16666666666666</ele><time>2026-04-19T11:46:37.516Z</time></trkpt><trkpt lat="42.1064554" lon="11.9022257"><ele>198.33333333333334</ele><time>2026-04-19T11:46:39.525Z</time></trkpt><trkpt lat="42.1063905" lon="11.9022444"><ele>195.5</ele><time>2026-04-19T11:46:40.518Z</time></trkpt><trkpt lat="42.1062734" lon="11.9023267"><ele>192.66666666666669</ele><time>2026-04-19T11:46:42.516Z</time></trkpt><trkpt lat="42.1062157" lon="11.9023713"><ele>189.83333333333334</ele><time>2026-04-19T11:46:43.517Z</time></trkpt><trkpt lat="42.1061631" lon="11.902429"><ele>187.0</ele><time>2026-04-19T11:46:44.512Z</time></trkpt><trkpt lat="42.1061166" lon="11.9024942"><ele>187.0</ele><time>2026-04-19T11:46:45.511Z</time></trkpt><trkpt lat="42.1060538" lon="11.9025449"><ele>187.0</ele><time>2026-04-19T11:46:46.517Z</time></trkpt><trkpt lat="42.105992" lon="11.9026016"><ele>187.0</ele><time>2026-04-19T11:46:47.511Z</time></trkpt><trkpt lat="42.1059286" lon="11.9026109"><ele>187.0</ele><time>2026-04-19T11:46:48.511Z</time></trkpt><trkpt lat="42.1058665" lon="11.9025901"><ele>187.0</ele><time>2026-04-19T11:46:49.51Z</time></trkpt><trkpt lat="42.1058014" lon="11.9025536"><ele>187.0</ele><time>2026-04-19T11:46:50.518Z</time></trkpt><trkpt lat="42.1057514" lon="11.9024909"><ele>187.0</ele><time>2026-04-19T11:46:51.515Z</time></trkpt><trkpt lat="42.1056976" lon="11.9024137"><ele>188.0</ele><time>2026-04-19T11:46:52.514Z</time></trkpt><trkpt lat="42.1056525" lon="11.9023118"><ele>189.0</ele><time>2026-04-19T11:46:53.515Z</time></trkpt><trkpt lat="42.1055961" lon="11.9022166"><ele>190.0</ele><time>2026-04-19T11:46:54.518Z</time></trkpt><trkpt lat="42.1055462" lon="11.902121"><ele>191.0</ele><time>2026-04-19T11:46:55.52Z</time></trkpt><trkpt lat="42.1055151" lon="11.9020344"><ele>191.99999999999997</ele><time>2026-04-19T11:46:56.514Z</time></trkpt><trkpt lat="42.105469" lon="11.9019494"><ele>193.0</ele><time>2026-04-19T11:46:57.516Z</time></trkpt><trkpt lat="42.1054224" lon="11.9018774"><ele>193.00000000000003</ele><time>2026-04-19T11:46:58.515Z</time></trkpt><trkpt lat="42.1053772" lon="11.9018178"><ele>193.0</ele><time>2026-04-19T11:46:59.513Z</time></trkpt><trkpt lat="42.1053298" lon="11.9017362"><ele>193.0</ele><time>2026-04-19T11:47:01.514Z</time></trkpt><trkpt lat="42.1053013" lon="11.9016424"><ele>193.0</ele><time>2026-04-19T11:47:04.513Z</time></trkpt><trkpt lat="42.1052873" lon="11.9015438"><ele>193.0</ele><time>2026-04-19T11:47:11.513Z</time></trkpt><trkpt lat="42.105318" lon="11.9014688"><ele>193.00000000000003</ele><time>2026-04-19T11:47:14.513Z</time></trkpt><trkpt lat="42.1053545" lon="11.9013931"><ele>193.0</ele><time>2026-04-19T11:47:17.513Z</time></trkpt><trkpt lat="42.1053863" lon="11.9013179"><ele>189.60000000000002</ele><time>2026-04-19T11:47:19.514Z</time></trkpt><trkpt lat="42.1053831" lon="11.9012231"><ele>186.20000000000002</ele><time>2026-04-19T11:47:21.514Z</time></trkpt><trkpt lat="42.1053154" lon="11.9011535"><ele>182.8</ele><time>2026-04-19T11:47:23.514Z</time></trkpt><trkpt lat="42.1052361" lon="11.9010968"><ele>179.4</ele><time>2026-04-19T11:47:25.513Z</time></trkpt><trkpt lat="42.1051527" lon="11.9010324"><ele>176.0</ele><time>2026-04-19T11:47:27.519Z</time></trkpt><trkpt lat="42.1050547" lon="11.9009239"><ele>173.20000000000002</ele><time>2026-04-19T11:47:29.514Z</time></trkpt><trkpt lat="42.1049402" lon="11.9008545"><ele>170.4</ele><time>2026-04-19T11:47:31.516Z</time></trkpt><trkpt lat="42.1048143" lon="11.9008204"><ele>167.6</ele><time>2026-04-19T11:47:33.515Z</time></trkpt><trkpt lat="42.1047474" lon="11.9008071"><ele>164.8</ele><time>2026-04-19T11:47:34.514Z</time></trkpt><trkpt lat="42.1046821" lon="11.9008017"><ele>162.0</ele><time>2026-04-19T11:47:35.512Z</time></trkpt><trkpt lat="42.1046171" lon="11.9007929"><ele>161.2</ele><time>2026-04-19T11:47:36.513Z</time></trkpt><trkpt lat="42.1044934" lon="11.900781"><ele>160.39999999999998</ele><time>2026-04-19T11:47:38.515Z</time></trkpt><trkpt lat="42.1044289" lon="11.9007786"><ele>159.60000000000002</ele><time>2026-04-19T11:47:39.514Z</time></trkpt><trkpt lat="42.1043642" lon="11.9007776"><ele>158.8</ele><time>2026-04-19T11:47:40.517Z</time></trkpt><trkpt lat="42.1042491" lon="11.9007869"><ele>158.0</ele><time>2026-04-19T11:47:42.516Z</time></trkpt><trkpt lat="42.1041458" lon="11.9008078"><ele>158.0</ele><time>2026-04-19T11:47:44.513Z</time></trkpt><trkpt lat="42.1040438" lon="11.900823"><ele>158.0</ele><time>2026-04-19T11:47:46.512Z</time></trkpt><trkpt lat="42.1039523" lon="11.900838"><ele>158.0</ele><time>2026-04-19T11:47:48.511Z</time></trkpt><trkpt lat="42.1038656" lon="11.9008703"><ele>158.0</ele><time>2026-04-19T11:47:50.514Z</time></trkpt><trkpt lat="42.1037902" lon="11.9009245"><ele>158.0</ele><time>2026-04-19T11:47:52.513Z</time></trkpt><trkpt lat="42.1037308" lon="11.9009694"><ele>158.0</ele><time>2026-04-19T11:47:54.511Z</time></trkpt><trkpt lat="42.1036737" lon="11.9010098"><ele>159.5</ele><time>2026-04-19T11:47:56.514Z</time></trkpt><trkpt lat="42.1035812" lon="11.9010202"><ele>161.0</ele><time>2026-04-19T11:47:59.517Z</time></trkpt><trkpt lat="42.1035161" lon="11.9010167"><ele>162.5</ele><time>2026-04-19T11:48:02.512Z</time></trkpt><trkpt lat="42.103447" lon="11.9009915"><ele>164.0</ele><time>2026-04-19T11:48:06.515Z</time></trkpt><trkpt lat="42.1033758" lon="11.9009574"><ele>165.5</ele><time>2026-04-19T11:48:11.512Z</time></trkpt><trkpt lat="42.1033182" lon="11.9009226"><ele>167.0</ele><time>2026-04-19T11:48:16.511Z</time></trkpt><trkpt lat="42.1032336" lon="11.9008823"><ele>167.83333333333331</ele><time>2026-04-19T11:48:19.512Z</time></trkpt><trkpt lat="42.1031715" lon="11.9007462"><ele>168.66666666666666</ele><time>2026-04-19T11:48:22.512Z</time></trkpt><trkpt lat="42.1031372" lon="11.9006547"><ele>169.5</ele><time>2026-04-19T11:48:24.511Z</time></trkpt><trkpt lat="42.1031079" lon="11.9005687"><ele>170.33333333333334</ele><time>2026-04-19T11:48:28.512Z</time></trkpt><trkpt lat="42.1030668" lon="11.9004644"><ele>171.16666666666669</ele><time>2026-04-19T11:48:31.514Z</time></trkpt><trkpt lat="42.1030269" lon="11.9003814"><ele>172.0</ele><time>2026-04-19T11:48:33.514Z</time></trkpt><trkpt lat="42.1029817" lon="11.9003079"><ele>172.0</ele><time>2026-04-19T11:48:35.512Z</time></trkpt><trkpt lat="42.1029308" lon="11.9002098"><ele>172.0</ele><time>2026-04-19T11:48:37.513Z</time></trkpt><trkpt lat="42.1028963" lon="11.9000901"><ele>172.0</ele><time>2026-04-19T11:48:39.522Z</time></trkpt><trkpt lat="42.1028633" lon="11.8999699"><ele>172.0</ele><time>2026-04-19T11:48:41.515Z</time></trkpt><trkpt lat="42.1028304" lon="11.8998758"><ele>172.0</ele><time>2026-04-19T11:48:43.522Z</time></trkpt><trkpt lat="42.1028172" lon="11.8997826"><ele>172.0</ele><time>2026-04-19T11:48:45.514Z</time></trkpt><trkpt lat="42.1027949" lon="11.8996827"><ele>169.66666666666669</ele><time>2026-04-19T11:48:48.51Z</time></trkpt><trkpt lat="42.1027688" lon="11.8995774"><ele>167.33333333333334</ele><time>2026-04-19T11:48:51.514Z</time></trkpt><trkpt lat="42.102713" lon="11.8994724"><ele>165.0</ele><time>2026-04-19T11:48:54.515Z</time></trkpt><trkpt lat="42.1026427" lon="11.8994177"><ele>162.66666666666666</ele><time>2026-04-19T11:48:56.521Z</time></trkpt><trkpt lat="42.1025765" lon="11.8993466"><ele>160.33333333333331</ele><time>2026-04-19T11:48:58.512Z</time></trkpt><trkpt lat="42.1025305" lon="11.8992599"><ele>158.0</ele><time>2026-04-19T11:49:00.514Z</time></trkpt><trkpt lat="42.1024923" lon="11.8991751"><ele>158.5</ele><time>2026-04-19T11:49:02.516Z</time></trkpt><trkpt lat="42.1024466" lon="11.8990997"><ele>159.0</ele><time>2026-04-19T11:49:04.514Z</time></trkpt><trkpt lat="42.1023994" lon="11.8990344"><ele>159.5</ele><time>2026-04-19T11:49:06.514Z</time></trkpt><trkpt lat="42.1023237" lon="11.8989533"><ele>160.0</ele><time>2026-04-19T11:49:09.51Z</time></trkpt><trkpt lat="42.1022674" lon="11.8988983"><ele>160.5</ele><time>2026-04-19T11:49:11.512Z</time></trkpt><trkpt lat="42.1021981" lon="11.8988643"><ele>161.0</ele><time>2026-04-19T11:49:14.509Z</time></trkpt><trkpt lat="42.1021202" lon="11.8988549"><ele>161.0</ele><time>2026-04-19T11:49:18.514Z</time></trkpt><trkpt lat="42.1020549" lon="11.8988459"><ele>161.0</ele><time>2026-04-19T11:49:20.513Z</time></trkpt><trkpt lat="42.1019743" lon="11.8988053"><ele>161.0</ele><time>2026-04-19T11:49:23.512Z</time></trkpt><trkpt lat="42.1019258" lon="11.8987509"><ele>161.0</ele><time>2026-04-19T11:49:25.512Z</time></trkpt><trkpt lat="42.1019841" lon="11.8988124"><ele>161.0</ele><time>2026-04-19T11:50:06.513Z</time></trkpt><trkpt lat="42.1020629" lon="11.8988429"><ele>161.0</ele><time>2026-04-19T11:50:10.515Z</time></trkpt><trkpt lat="42.1021469" lon="11.8988575"><ele>161.0</ele><time>2026-04-19T11:50:13.514Z</time></trkpt><trkpt lat="42.102225" lon="11.8988832"><ele>161.0</ele><time>2026-04-19T11:50:17.511Z</time></trkpt><trkpt lat="42.1022918" lon="11.8989343"><ele>161.0</ele><time>2026-04-19T11:50:20.513Z</time></trkpt><trkpt lat="42.1023352" lon="11.899005"><ele>161.0</ele><time>2026-04-19T11:50:23.517Z</time></trkpt><trkpt lat="42.1022972" lon="11.8991043"><ele>161.0</ele><time>2026-04-19T11:50:27.51Z</time></trkpt><trkpt lat="42.1022328" lon="11.8991535"><ele>161.0</ele><time>2026-04-19T11:50:30.512Z</time></trkpt><trkpt lat="42.1021821" lon="11.8992052"><ele>161.0</ele><time>2026-04-19T11:50:33.514Z</time></trkpt><trkpt lat="42.1021673" lon="11.8992894"><ele>162.5</ele><time>2026-04-19T11:50:36.52Z</time></trkpt><trkpt lat="42.1021749" lon="11.8993875"><ele>164.0</ele><time>2026-04-19T11:50:39.51Z</time></trkpt><trkpt lat="42.1021969" lon="11.899479"><ele>165.5</ele><time>2026-04-19T11:50:41.512Z</time></trkpt><trkpt lat="42.1022017" lon="11.8995968"><ele>167.0</ele><time>2026-04-19T11:50:44.516Z</time></trkpt><trkpt lat="42.1021701" lon="11.899679"><ele>168.5</ele><time>2026-04-19T11:50:46.521Z</time></trkpt><trkpt lat="42.1020966" lon="11.8997381"><ele>170.0</ele><time>2026-04-19T11:50:49.516Z</time></trkpt><trkpt lat="42.1020153" lon="11.8997482"><ele>170.0</ele><time>2026-04-19T11:50:52.514Z</time></trkpt><trkpt lat="42.1019407" lon="11.8997629"><ele>170.0</ele><time>2026-04-19T11:50:55.512Z</time></trkpt><trkpt lat="42.1018721" lon="11.8997676"><ele>170.0</ele><time>2026-04-19T11:50:58.511Z</time></trkpt><trkpt lat="42.1017899" lon="11.8997637"><ele>170.0</ele><time>2026-04-19T11:51:02.51Z</time></trkpt><trkpt lat="42.1017096" lon="11.8997479"><ele>170.0</ele><time>2026-04-19T11:51:06.513Z</time></trkpt><trkpt lat="42.1016343" lon="11.8997522"><ele>170.0</ele><time>2026-04-19T11:51:10.511Z</time></trkpt><trkpt lat="42.1015658" lon="11.8997772"><ele>170.71428571428572</ele><time>2026-04-19T11:51:14.509Z</time></trkpt><trkpt lat="42.1015056" lon="11.8998133"><ele>171.42857142857142</ele><time>2026-04-19T11:51:18.511Z</time></trkpt><trkpt lat="42.1014417" lon="11.8998633"><ele>172.14285714285714</ele><time>2026-04-19T11:51:22.512Z</time></trkpt><trkpt lat="42.1013826" lon="11.8999182"><ele>172.85714285714286</ele><time>2026-04-19T11:51:27.51Z</time></trkpt><trkpt lat="42.101328" lon="11.8999704"><ele>173.57142857142856</ele><time>2026-04-19T11:51:32.515Z</time></trkpt><trkpt lat="42.1012589" lon="11.9000256"><ele>174.28571428571428</ele><time>2026-04-19T11:51:37.51Z</time></trkpt><trkpt lat="42.1011867" lon="11.9000466"><ele>175.0</ele><time>2026-04-19T11:51:41.511Z</time></trkpt><trkpt lat="42.1011148" lon="11.900083"><ele>175.0</ele><time>2026-04-19T11:51:45.518Z</time></trkpt><trkpt lat="42.1010402" lon="11.9001072"><ele>175.0</ele><time>2026-04-19T11:51:49.513Z</time></trkpt><trkpt lat="42.1009584" lon="11.9000982"><ele>175.0</ele><time>2026-04-19T11:51:53.512Z</time></trkpt><trkpt lat="42.1008894" lon="11.9000936"><ele>175.0</ele><time>2026-04-19T11:51:56.515Z</time></trkpt><trkpt lat="42.1008137" lon="11.9000792"><ele>175.0</ele><time>2026-04-19T11:51:59.515Z</time></trkpt><trkpt lat="42.1007353" lon="11.9000295"><ele>175.0</ele><time>2026-04-19T11:52:02.515Z</time></trkpt><trkpt lat="42.1006711" lon="11.8999584"><ele>177.33333333333334</ele><time>2026-04-19T11:52:05.51Z</time></trkpt><trkpt lat="42.1006152" lon="11.8999119"><ele>179.66666666666669</ele><time>2026-04-19T11:52:07.511Z</time></trkpt><trkpt lat="42.1005527" lon="11.8998483"><ele>182.0</ele><time>2026-04-19T11:52:09.511Z</time></trkpt><trkpt lat="42.1005239" lon="11.8997566"><ele>184.33333333333334</ele><time>2026-04-19T11:52:12.512Z</time></trkpt><trkpt lat="42.1004855" lon="11.899651"><ele>186.66666666666666</ele><time>2026-04-19T11:52:15.511Z</time></trkpt><trkpt lat="42.1004445" lon="11.8995713"><ele>189.0</ele><time>2026-04-19T11:52:17.511Z</time></trkpt><trkpt lat="42.1003996" lon="11.8994946"><ele>189.0</ele><time>2026-04-19T11:52:19.509Z</time></trkpt><trkpt lat="42.1003484" lon="11.8994238"><ele>189.0</ele><time>2026-04-19T11:52:21.509Z</time></trkpt><trkpt lat="42.1002925" lon="11.8993461"><ele>189.0</ele><time>2026-04-19T11:52:23.513Z</time></trkpt><trkpt lat="42.1002511" lon="11.8992756"><ele>189.0</ele><time>2026-04-19T11:52:25.51Z</time></trkpt><trkpt lat="42.100207" lon="11.8991719"><ele>189.0</ele><time>2026-04-19T11:52:28.511Z</time></trkpt><trkpt lat="42.1001733" lon="11.8990842"><ele>189.0</ele><time>2026-04-19T11:52:30.517Z</time></trkpt><trkpt lat="42.1001398" lon="11.8990045"><ele>187.33333333333334</ele><time>2026-04-19T11:52:32.511Z</time></trkpt><trkpt lat="42.1000862" lon="11.8989105"><ele>185.66666666666666</ele><time>2026-04-19T11:52:35.511Z</time></trkpt><trkpt lat="42.1000253" lon="11.8988235"><ele>184.0</ele><time>2026-04-19T11:52:38.511Z</time></trkpt><trkpt lat="42.0999499" lon="11.8987703"><ele>182.33333333333331</ele><time>2026-04-19T11:52:41.512Z</time></trkpt><trkpt lat="42.0998913" lon="11.898735"><ele>180.66666666666666</ele><time>2026-04-19T11:52:43.511Z</time></trkpt><trkpt lat="42.0998158" lon="11.8986904"><ele>179.0</ele><time>2026-04-19T11:52:46.511Z</time></trkpt><trkpt lat="42.0997276" lon="11.8986498"><ele>179.0</ele><time>2026-04-19T11:52:49.512Z</time></trkpt><trkpt lat="42.0996418" lon="11.8986117"><ele>179.0</ele><time>2026-04-19T11:52:51.521Z</time></trkpt><trkpt lat="42.0995608" lon="11.8985275"><ele>179.0</ele><time>2026-04-19T11:52:53.512Z</time></trkpt><trkpt lat="42.0994751" lon="11.8984374"><ele>179.0</ele><time>2026-04-19T11:52:55.51Z</time></trkpt><trkpt lat="42.0994269" lon="11.8983822"><ele>179.0</ele><time>2026-04-19T11:52:56.509Z</time></trkpt><trkpt lat="42.099379" lon="11.8983147"><ele>179.0</ele><time>2026-04-19T11:52:57.509Z</time></trkpt><trkpt lat="42.099332" lon="11.8982513"><ele>178.83333333333331</ele><time>2026-04-19T11:52:58.509Z</time></trkpt><trkpt lat="42.0992316" lon="11.8981377"><ele>178.66666666666666</ele><time>2026-04-19T11:53:00.51Z</time></trkpt><trkpt lat="42.0991767" lon="11.8980814"><ele>178.5</ele><time>2026-04-19T11:53:01.513Z</time></trkpt><trkpt lat="42.0991253" lon="11.8980266"><ele>178.33333333333334</ele><time>2026-04-19T11:53:02.514Z</time></trkpt><trkpt lat="42.0990721" lon="11.89798"><ele>178.16666666666669</ele><time>2026-04-19T11:53:03.513Z</time></trkpt><trkpt lat="42.0990215" lon="11.8978797"><ele>178.0</ele><time>2026-04-19T11:53:05.511Z</time></trkpt><trkpt lat="42.0989888" lon="11.8977687"><ele>178.0</ele><time>2026-04-19T11:53:08.511Z</time></trkpt><trkpt lat="42.0989664" lon="11.8976831"><ele>178.0</ele><time>2026-04-19T11:53:10.513Z</time></trkpt><trkpt lat="42.0989477" lon="11.8975968"><ele>178.0</ele><time>2026-04-19T11:53:12.511Z</time></trkpt><trkpt lat="42.0989163" lon="11.8974803"><ele>178.0</ele><time>2026-04-19T11:53:14.509Z</time></trkpt><trkpt lat="42.0988695" lon="11.8973377"><ele>178.0</ele><time>2026-04-19T11:53:16.511Z</time></trkpt><trkpt lat="42.0988406" lon="11.8972016"><ele>178.0</ele><time>2026-04-19T11:53:18.512Z</time></trkpt><trkpt lat="42.098809" lon="11.8971098"><ele>176.0</ele><time>2026-04-19T11:53:21.511Z</time></trkpt><trkpt lat="42.0988199" lon="11.897013"><ele>174.0</ele><time>2026-04-19T11:53:39.51Z</time></trkpt><trkpt lat="42.0988588" lon="11.896931"><ele>172.0</ele><time>2026-04-19T11:53:41.511Z</time></trkpt><trkpt lat="42.0988919" lon="11.8968519"><ele>170.0</ele><time>2026-04-19T11:53:43.513Z</time></trkpt><trkpt lat="42.0989425" lon="11.8967542"><ele>168.0</ele><time>2026-04-19T11:53:46.514Z</time></trkpt><trkpt lat="42.0990011" lon="11.8966628"><ele>166.0</ele><time>2026-04-19T11:53:49.51Z</time></trkpt><trkpt lat="42.0990203" lon="11.8965514"><ele>163.33333333333334</ele><time>2026-04-19T11:53:52.513Z</time></trkpt><trkpt lat="42.0990078" lon="11.8964648"><ele>160.66666666666669</ele><time>2026-04-19T11:53:54.511Z</time></trkpt><trkpt lat="42.0989831" lon="11.8963169"><ele>158.0</ele><time>2026-04-19T11:53:56.522Z</time></trkpt><trkpt lat="42.0989632" lon="11.8962278"><ele>155.33333333333334</ele><time>2026-04-19T11:53:57.522Z</time></trkpt><trkpt lat="42.0989469" lon="11.8961367"><ele>152.66666666666666</ele><time>2026-04-19T11:53:58.515Z</time></trkpt><trkpt lat="42.0989283" lon="11.8960496"><ele>150.0</ele><time>2026-04-19T11:53:59.515Z</time></trkpt><trkpt lat="42.0989011" lon="11.8959118"><ele>148.0</ele><time>2026-04-19T11:54:01.514Z</time></trkpt><trkpt lat="42.098872" lon="11.8957957"><ele>146.0</ele><time>2026-04-19T11:54:03.511Z</time></trkpt><trkpt lat="42.0988472" lon="11.8956936"><ele>144.0</ele><time>2026-04-19T11:54:05.513Z</time></trkpt><trkpt lat="42.0988337" lon="11.8956082"><ele>142.0</ele><time>2026-04-19T11:54:07.51Z</time></trkpt><trkpt lat="42.0987894" lon="11.8954898"><ele>140.0</ele><time>2026-04-19T11:54:09.51Z</time></trkpt><trkpt lat="42.0987586" lon="11.8954083"><ele>138.0</ele><time>2026-04-19T11:54:10.51Z</time></trkpt><trkpt lat="42.0987216" lon="11.8953278"><ele>138.0</ele><time>2026-04-19T11:54:11.513Z</time></trkpt><trkpt lat="42.098682" lon="11.895261"><ele>138.0</ele><time>2026-04-19T11:54:12.514Z</time></trkpt><trkpt lat="42.0986111" lon="11.8951649"><ele>138.0</ele><time>2026-04-19T11:54:14.512Z</time></trkpt><trkpt lat="42.0985353" lon="11.895071"><ele>138.0</ele><time>2026-04-19T11:54:16.51Z</time></trkpt><trkpt lat="42.0984502" lon="11.8950088"><ele>138.0</ele><time>2026-04-19T11:54:18.511Z</time></trkpt><trkpt lat="42.0983653" lon="11.8949782"><ele>137.5</ele><time>2026-04-19T11:54:20.511Z</time></trkpt><trkpt lat="42.098286" lon="11.8949578"><ele>137.0</ele><time>2026-04-19T11:54:22.512Z</time></trkpt><trkpt lat="42.0982011" lon="11.8949205"><ele>136.5</ele><time>2026-04-19T11:54:25.511Z</time></trkpt><trkpt lat="42.098136" lon="11.8948914"><ele>136.0</ele><time>2026-04-19T11:54:27.513Z</time></trkpt><trkpt lat="42.0980634" lon="11.8948545"><ele>135.5</ele><time>2026-04-19T11:54:29.512Z</time></trkpt><trkpt lat="42.0979986" lon="11.8948283"><ele>135.0</ele><time>2026-04-19T11:54:31.513Z</time></trkpt><trkpt lat="42.097921" lon="11.8947907"><ele>135.0</ele><time>2026-04-19T11:54:34.511Z</time></trkpt><trkpt lat="42.0978538" lon="11.8947559"><ele>135.0</ele><time>2026-04-19T11:54:36.52Z</time></trkpt><trkpt lat="42.0977826" lon="11.8947088"><ele>135.0</ele><time>2026-04-19T11:54:38.513Z</time></trkpt><trkpt lat="42.0977195" lon="11.8946688"><ele>135.0</ele><time>2026-04-19T11:54:40.513Z</time></trkpt><trkpt lat="42.0976428" lon="11.8946185"><ele>135.0</ele><time>2026-04-19T11:54:43.515Z</time></trkpt><trkpt lat="42.0975803" lon="11.8945661"><ele>135.0</ele><time>2026-04-19T11:54:46.513Z</time></trkpt><trkpt lat="42.097501" lon="11.8945347"><ele>135.0</ele><time>2026-04-19T11:54:50.511Z</time></trkpt><trkpt lat="42.0974274" lon="11.894462"><ele>135.0</ele><time>2026-04-19T11:54:53.514Z</time></trkpt><trkpt lat="42.0973702" lon="11.8943723"><ele>135.0</ele><time>2026-04-19T11:54:55.511Z</time></trkpt><trkpt lat="42.0973258" lon="11.8942664"><ele>135.0</ele><time>2026-04-19T11:54:57.514Z</time></trkpt><trkpt lat="42.0972617" lon="11.8941846"><ele>135.0</ele><time>2026-04-19T11:54:59.509Z</time></trkpt><trkpt lat="42.0971977" lon="11.894106"><ele>135.0</ele><time>2026-04-19T11:55:01.511Z</time></trkpt><trkpt lat="42.0971364" lon="11.8940264"><ele>134.5</ele><time>2026-04-19T11:55:04.511Z</time></trkpt><trkpt lat="42.097082" lon="11.8939486"><ele>134.0</ele><time>2026-04-19T11:55:07.512Z</time></trkpt><trkpt lat="42.0970238" lon="11.8939044"><ele>133.5</ele><time>2026-04-19T11:55:09.511Z</time></trkpt><trkpt lat="42.0969772" lon="11.8938227"><ele>133.0</ele><time>2026-04-19T11:55:11.513Z</time></trkpt><trkpt lat="42.0969335" lon="11.8937258"><ele>132.5</ele><time>2026-04-19T11:55:13.512Z</time></trkpt><trkpt lat="42.0968866" lon="11.8936339"><ele>132.0</ele><time>2026-04-19T11:55:15.512Z</time></trkpt><trkpt lat="42.096841" lon="11.893567"><ele>132.0</ele><time>2026-04-19T11:55:17.511Z</time></trkpt><trkpt lat="42.0967733" lon="11.8934874"><ele>132.0</ele><time>2026-04-19T11:55:20.512Z</time></trkpt><trkpt lat="42.0967224" lon="11.8934066"><ele>132.0</ele><time>2026-04-19T11:55:23.513Z</time></trkpt><trkpt lat="42.0966735" lon="11.8933383"><ele>132.0</ele><time>2026-04-19T11:55:25.512Z</time></trkpt><trkpt lat="42.0966174" lon="11.8932786"><ele>132.0</ele><time>2026-04-19T11:55:27.512Z</time></trkpt><trkpt lat="42.0965553" lon="11.8932438"><ele>132.0</ele><time>2026-04-19T11:55:29.51Z</time></trkpt><trkpt lat="42.0964947" lon="11.8931865"><ele>133.33333333333334</ele><time>2026-04-19T11:55:31.511Z</time></trkpt><trkpt lat="42.0964381" lon="11.8931123"><ele>134.66666666666666</ele><time>2026-04-19T11:55:33.509Z</time></trkpt><trkpt lat="42.0963673" lon="11.8930672"><ele>136.0</ele><time>2026-04-19T11:55:35.51Z</time></trkpt><trkpt lat="42.096287" lon="11.8930757"><ele>137.33333333333331</ele><time>2026-04-19T11:55:37.514Z</time></trkpt><trkpt lat="42.0962143" lon="11.8931101"><ele>138.66666666666666</ele><time>2026-04-19T11:55:39.513Z</time></trkpt><trkpt lat="42.0961345" lon="11.8930984"><ele>140.0</ele><time>2026-04-19T11:55:41.514Z</time></trkpt><trkpt lat="42.0960735" lon="11.8930604"><ele>140.0</ele><time>2026-04-19T11:55:43.514Z</time></trkpt><trkpt lat="42.0960343" lon="11.892973"><ele>140.0</ele><time>2026-04-19T11:55:46.513Z</time></trkpt><trkpt lat="42.0960249" lon="11.892848"><ele>140.0</ele><time>2026-04-19T11:55:50.511Z</time></trkpt><trkpt lat="42.0959936" lon="11.8927413"><ele>140.0</ele><time>2026-04-19T11:55:53.51Z</time></trkpt><trkpt lat="42.095949" lon="11.8926499"><ele>140.0</ele><time>2026-04-19T11:55:57.513Z</time></trkpt><trkpt lat="42.0959046" lon="11.89255"><ele>140.0</ele><time>2026-04-19T11:56:02.513Z</time></trkpt><trkpt lat="42.0958459" lon="11.8924889"><ele>138.57142857142858</ele><time>2026-04-19T11:56:05.514Z</time></trkpt><trkpt lat="42.0957901" lon="11.8924324"><ele>137.14285714285714</ele><time>2026-04-19T11:56:07.51Z</time></trkpt><trkpt lat="42.0957392" lon="11.892367"><ele>135.71428571428572</ele><time>2026-04-19T11:56:09.509Z</time></trkpt><trkpt lat="42.095675" lon="11.8923378"><ele>134.28571428571428</ele><time>2026-04-19T11:56:11.512Z</time></trkpt><trkpt lat="42.09561" lon="11.8923009"><ele>132.85714285714286</ele><time>2026-04-19T11:56:13.509Z</time></trkpt><trkpt lat="42.0955428" lon="11.8922481"><ele>131.42857142857144</ele><time>2026-04-19T11:56:15.511Z</time></trkpt><trkpt lat="42.0954948" lon="11.8921712"><ele>130.0</ele><time>2026-04-19T11:56:17.514Z</time></trkpt><trkpt lat="42.0954436" lon="11.8920831"><ele>130.66666666666669</ele><time>2026-04-19T11:56:19.512Z</time></trkpt><trkpt lat="42.095381" lon="11.8919979"><ele>131.33333333333334</ele><time>2026-04-19T11:56:21.513Z</time></trkpt><trkpt lat="42.0953262" lon="11.8919114"><ele>132.0</ele><time>2026-04-19T11:56:23.511Z</time></trkpt><trkpt lat="42.0952685" lon="11.8918372"><ele>132.66666666666666</ele><time>2026-04-19T11:56:25.51Z</time></trkpt><trkpt lat="42.0952101" lon="11.8917881"><ele>133.33333333333331</ele><time>2026-04-19T11:56:27.51Z</time></trkpt><trkpt lat="42.0951375" lon="11.8917599"><ele>134.0</ele><time>2026-04-19T11:56:29.51Z</time></trkpt><trkpt lat="42.0950765" lon="11.8917345"><ele>134.0</ele><time>2026-04-19T11:56:31.509Z</time></trkpt><trkpt lat="42.0950079" lon="11.8917111"><ele>134.0</ele><time>2026-04-19T11:56:33.519Z</time></trkpt><trkpt lat="42.0949397" lon="11.8916857"><ele>134.0</ele><time>2026-04-19T11:56:35.514Z</time></trkpt><trkpt lat="42.0948719" lon="11.8916509"><ele>134.0</ele><time>2026-04-19T11:56:37.511Z</time></trkpt><trkpt lat="42.094805" lon="11.8916351"><ele>134.0</ele><time>2026-04-19T11:56:39.514Z</time></trkpt><trkpt lat="42.0947418" lon="11.8915944"><ele>134.0</ele><time>2026-04-19T11:56:41.514Z</time></trkpt><trkpt lat="42.0947018" lon="11.8915088"><ele>134.0</ele><time>2026-04-19T11:56:43.519Z</time></trkpt><trkpt lat="42.0946667" lon="11.8914265"><ele>136.42857142857144</ele><time>2026-04-19T11:56:45.508Z</time></trkpt><trkpt lat="42.0946161" lon="11.8913463"><ele>138.85714285714286</ele><time>2026-04-19T11:56:47.512Z</time></trkpt><trkpt lat="42.0945722" lon="11.8912824"><ele>141.28571428571428</ele><time>2026-04-19T11:56:49.514Z</time></trkpt><trkpt lat="42.0945275" lon="11.8912171"><ele>143.71428571428572</ele><time>2026-04-19T11:56:51.513Z</time></trkpt><trkpt lat="42.0944688" lon="11.8911688"><ele>146.14285714285714</ele><time>2026-04-19T11:56:53.513Z</time></trkpt><trkpt lat="42.0944047" lon="11.8911283"><ele>148.57142857142858</ele><time>2026-04-19T11:56:55.518Z</time></trkpt><trkpt lat="42.0943363" lon="11.8910944"><ele>151.0</ele><time>2026-04-19T11:56:57.516Z</time></trkpt><trkpt lat="42.0942633" lon="11.8910582"><ele>151.0</ele><time>2026-04-19T11:56:59.514Z</time></trkpt><trkpt lat="42.0941904" lon="11.8910261"><ele>151.0</ele><time>2026-04-19T11:57:01.511Z</time></trkpt><trkpt lat="42.0941183" lon="11.890973"><ele>151.0</ele><time>2026-04-19T11:57:03.517Z</time></trkpt><trkpt lat="42.0940542" lon="11.8909096"><ele>151.0</ele><time>2026-04-19T11:57:05.513Z</time></trkpt><trkpt lat="42.0939987" lon="11.8908307"><ele>151.0</ele><time>2026-04-19T11:57:07.512Z</time></trkpt><trkpt lat="42.0939338" lon="11.8907697"><ele>151.0</ele><time>2026-04-19T11:57:09.505Z</time></trkpt><trkpt lat="42.093883" lon="11.8907013"><ele>150.83333333333334</ele><time>2026-04-19T11:57:11.513Z</time></trkpt><trkpt lat="42.0938339" lon="11.8906477"><ele>150.66666666666669</ele><time>2026-04-19T11:57:13.511Z</time></trkpt><trkpt lat="42.0937632" lon="11.8905767"><ele>150.5</ele><time>2026-04-19T11:57:15.513Z</time></trkpt><trkpt lat="42.0936918" lon="11.8905075"><ele>150.33333333333334</ele><time>2026-04-19T11:57:17.514Z</time></trkpt><trkpt lat="42.0936302" lon="11.8904531"><ele>150.16666666666666</ele><time>2026-04-19T11:57:19.513Z</time></trkpt><trkpt lat="42.0935725" lon="11.8904111"><ele>150.0</ele><time>2026-04-19T11:57:21.511Z</time></trkpt><trkpt lat="42.0934907" lon="11.890349"><ele>150.0</ele><time>2026-04-19T11:57:24.514Z</time></trkpt><trkpt lat="42.0934177" lon="11.8902726"><ele>150.0</ele><time>2026-04-19T11:57:27.513Z</time></trkpt><trkpt lat="42.0933627" lon="11.890224"><ele>150.0</ele><time>2026-04-19T11:57:29.512Z</time></trkpt><trkpt lat="42.0933041" lon="11.8901841"><ele>150.0</ele><time>2026-04-19T11:57:31.515Z</time></trkpt><trkpt lat="42.0932206" lon="11.8901267"><ele>150.0</ele><time>2026-04-19T11:57:34.513Z</time></trkpt><trkpt lat="42.0931535" lon="11.8900874"><ele>150.0</ele><time>2026-04-19T11:57:36.513Z</time></trkpt><trkpt lat="42.0930902" lon="11.8900493"><ele>151.16666666666666</ele><time>2026-04-19T11:57:38.515Z</time></trkpt><trkpt lat="42.0930261" lon="11.8900057"><ele>152.33333333333334</ele><time>2026-04-19T11:57:40.514Z</time></trkpt><trkpt lat="42.0929524" lon="11.8899925"><ele>153.5</ele><time>2026-04-19T11:57:42.512Z</time></trkpt><trkpt lat="42.0928652" lon="11.8900085"><ele>154.66666666666669</ele><time>2026-04-19T11:57:44.51Z</time></trkpt><trkpt lat="42.0927816" lon="11.8900537"><ele>155.83333333333334</ele><time>2026-04-19T11:57:46.513Z</time></trkpt><trkpt lat="42.0926922" lon="11.8901097"><ele>157.0</ele><time>2026-04-19T11:57:48.51Z</time></trkpt><trkpt lat="42.0925882" lon="11.8901518"><ele>157.0</ele><time>2026-04-19T11:57:50.513Z</time></trkpt><trkpt lat="42.0924789" lon="11.8901565"><ele>157.0</ele><time>2026-04-19T11:57:52.514Z</time></trkpt><trkpt lat="42.0923731" lon="11.8901526"><ele>157.0</ele><time>2026-04-19T11:57:54.514Z</time></trkpt><trkpt lat="42.0922754" lon="11.8901423"><ele>157.0</ele><time>2026-04-19T11:57:56.521Z</time></trkpt><trkpt lat="42.0921876" lon="11.8901086"><ele>157.0</ele><time>2026-04-19T11:57:58.512Z</time></trkpt><trkpt lat="42.0921159" lon="11.8900774"><ele>155.83333333333334</ele><time>2026-04-19T11:58:00.512Z</time></trkpt><trkpt lat="42.0920392" lon="11.890044"><ele>154.66666666666669</ele><time>2026-04-19T11:58:02.512Z</time></trkpt><trkpt lat="42.0919627" lon="11.8900108"><ele>153.5</ele><time>2026-04-19T11:58:04.514Z</time></trkpt><trkpt lat="42.091863" lon="11.8899827"><ele>152.33333333333334</ele><time>2026-04-19T11:58:06.523Z</time></trkpt><trkpt lat="42.0917943" lon="11.889902"><ele>151.16666666666666</ele><time>2026-04-19T11:58:08.51Z</time></trkpt><trkpt lat="42.0917718" lon="11.8897903"><ele>150.0</ele><time>2026-04-19T11:58:10.511Z</time></trkpt><trkpt lat="42.0917974" lon="11.8896727"><ele>150.0</ele><time>2026-04-19T11:58:12.517Z</time></trkpt><trkpt lat="42.0917869" lon="11.8895768"><ele>150.0</ele><time>2026-04-19T11:58:14.515Z</time></trkpt><trkpt lat="42.0917596" lon="11.8894789"><ele>150.0</ele><time>2026-04-19T11:58:16.515Z</time></trkpt><trkpt lat="42.0917234" lon="11.8893685"><ele>150.0</ele><time>2026-04-19T11:58:18.52Z</time></trkpt><trkpt lat="42.0916881" lon="11.8892573"><ele>150.0</ele><time>2026-04-19T11:58:20.514Z</time></trkpt><trkpt lat="42.0916709" lon="11.8891549"><ele>150.0</ele><time>2026-04-19T11:58:22.51Z</time></trkpt><trkpt lat="42.0916431" lon="11.8890486"><ele>149.0</ele><time>2026-04-19T11:58:24.509Z</time></trkpt><trkpt lat="42.0916249" lon="11.8889468"><ele>148.0</ele><time>2026-04-19T11:58:26.51Z</time></trkpt><trkpt lat="42.0916062" lon="11.88884"><ele>147.0</ele><time>2026-04-19T11:58:28.51Z</time></trkpt><trkpt lat="42.091578" lon="11.888741"><ele>146.0</ele><time>2026-04-19T11:58:30.508Z</time></trkpt><trkpt lat="42.0915431" lon="11.8886492"><ele>145.0</ele><time>2026-04-19T11:58:32.511Z</time></trkpt><trkpt lat="42.0915115" lon="11.8885559"><ele>144.0</ele><time>2026-04-19T11:58:34.51Z</time></trkpt><trkpt lat="42.0914674" lon="11.8884646"><ele>146.0</ele><time>2026-04-19T11:58:36.513Z</time></trkpt><trkpt lat="42.0914149" lon="11.8883739"><ele>148.0</ele><time>2026-04-19T11:58:38.514Z</time></trkpt><trkpt lat="42.0913579" lon="11.8882941"><ele>150.0</ele><time>2026-04-19T11:58:40.514Z</time></trkpt><trkpt lat="42.0912935" lon="11.8882242"><ele>152.0</ele><time>2026-04-19T11:58:42.514Z</time></trkpt><trkpt lat="42.0912178" lon="11.8881568"><ele>154.0</ele><time>2026-04-19T11:58:44.523Z</time></trkpt><trkpt lat="42.0911413" lon="11.8880929"><ele>156.0</ele><time>2026-04-19T11:58:46.514Z</time></trkpt><trkpt lat="42.0910688" lon="11.8880366"><ele>156.0</ele><time>2026-04-19T11:58:48.51Z</time></trkpt><trkpt lat="42.0909976" lon="11.8880015"><ele>156.0</ele><time>2026-04-19T11:58:50.51Z</time></trkpt><trkpt lat="42.0909254" lon="11.887946"><ele>156.0</ele><time>2026-04-19T11:59:19.51Z</time></trkpt><trkpt lat="42.0908838" lon="11.8878341"><ele>156.0</ele><time>2026-04-19T11:59:22.511Z</time></trkpt><trkpt lat="42.0908811" lon="11.8877485"><ele>156.0</ele><time>2026-04-19T11:59:24.513Z</time></trkpt><trkpt lat="42.090867" lon="11.8876423"><ele>156.0</ele><time>2026-04-19T11:59:26.515Z</time></trkpt><trkpt lat="42.0908237" lon="11.8875502"><ele>153.5</ele><time>2026-04-19T11:59:28.509Z</time></trkpt><trkpt lat="42.0907722" lon="11.8874733"><ele>151.0</ele><time>2026-04-19T11:59:30.51Z</time></trkpt><trkpt lat="42.0907226" lon="11.887397"><ele>148.5</ele><time>2026-04-19T11:59:32.511Z</time></trkpt><trkpt lat="42.0906631" lon="11.8872903"><ele>146.0</ele><time>2026-04-19T11:59:35.514Z</time></trkpt><trkpt lat="42.0906186" lon="11.8871903"><ele>143.5</ele><time>2026-04-19T11:59:37.511Z</time></trkpt><trkpt lat="42.0905891" lon="11.887102"><ele>141.0</ele><time>2026-04-19T11:59:39.513Z</time></trkpt><trkpt lat="42.0905599" lon="11.8870239"><ele>141.0</ele><time>2026-04-19T11:59:41.512Z</time></trkpt><trkpt lat="42.0905269" lon="11.8869402"><ele>141.0</ele><time>2026-04-19T11:59:44.51Z</time></trkpt><trkpt lat="42.090482" lon="11.8868459"><ele>141.0</ele><time>2026-04-19T11:59:47.512Z</time></trkpt><trkpt lat="42.0904435" lon="11.8867477"><ele>141.0</ele><time>2026-04-19T11:59:49.512Z</time></trkpt><trkpt lat="42.0903803" lon="11.8865808"><ele>141.0</ele><time>2026-04-19T11:59:51.514Z</time></trkpt><trkpt lat="42.0903395" lon="11.8864773"><ele>137.0</ele><time>2026-04-19T11:59:52.514Z</time></trkpt><trkpt lat="42.0903074" lon="11.8863814"><ele>133.0</ele><time>2026-04-19T11:59:53.512Z</time></trkpt><trkpt lat="42.0902657" lon="11.8862806"><ele>129.0</ele><time>2026-04-19T11:59:54.511Z</time></trkpt><trkpt lat="42.0902255" lon="11.8861806"><ele>125.0</ele><time>2026-04-19T11:59:55.515Z</time></trkpt><trkpt lat="42.0901896" lon="11.8860796"><ele>121.0</ele><time>2026-04-19T11:59:56.514Z</time></trkpt><trkpt lat="42.0901535" lon="11.8859769"><ele>117.0</ele><time>2026-04-19T11:59:57.513Z</time></trkpt><trkpt lat="42.0901179" lon="11.8858778"><ele>116.14285714285715</ele><time>2026-04-19T11:59:58.516Z</time></trkpt><trkpt lat="42.0900864" lon="11.8857828"><ele>115.2857142857143</ele><time>2026-04-19T11:59:59.514Z</time></trkpt><trkpt lat="42.0900489" lon="11.8856899"><ele>114.42857142857143</ele><time>2026-04-19T12:00:00.516Z</time></trkpt><trkpt lat="42.0900076" lon="11.8856071"><ele>113.57142857142858</ele><time>2026-04-19T12:00:01.514Z</time></trkpt><trkpt lat="42.089969" lon="11.8855235"><ele>112.71428571428572</ele><time>2026-04-19T12:00:02.513Z</time></trkpt><trkpt lat="42.0899287" lon="11.8854433"><ele>111.85714285714286</ele><time>2026-04-19T12:00:03.512Z</time></trkpt><trkpt lat="42.0898912" lon="11.8853729"><ele>111.0</ele><time>2026-04-19T12:00:04.512Z</time></trkpt><trkpt lat="42.0897937" lon="11.8852847"><ele>111.0</ele><time>2026-04-19T12:00:06.511Z</time></trkpt><trkpt lat="42.0896929" lon="11.8852093"><ele>111.0</ele><time>2026-04-19T12:00:08.509Z</time></trkpt><trkpt lat="42.0895894" lon="11.8851496"><ele>111.0</ele><time>2026-04-19T12:00:10.512Z</time></trkpt><trkpt lat="42.089472" lon="11.885116"><ele>111.0</ele><time>2026-04-19T12:00:12.512Z</time></trkpt><trkpt lat="42.0894074" lon="11.8850969"><ele>111.0</ele><time>2026-04-19T12:00:13.513Z</time></trkpt><trkpt lat="42.0892954" lon="11.885037"><ele>111.8</ele><time>2026-04-19T12:00:15.512Z</time></trkpt><trkpt lat="42.0892028" lon="11.8849774"><ele>112.6</ele><time>2026-04-19T12:00:17.513Z</time></trkpt><trkpt lat="42.0891113" lon="11.8848981"><ele>113.4</ele><time>2026-04-19T12:00:19.512Z</time></trkpt><trkpt lat="42.0890378" lon="11.8847874"><ele>114.2</ele><time>2026-04-19T12:00:21.51Z</time></trkpt><trkpt lat="42.0889714" lon="11.8846886"><ele>115.0</ele><time>2026-04-19T12:00:23.514Z</time></trkpt><trkpt lat="42.0889034" lon="11.8845886"><ele>115.0</ele><time>2026-04-19T12:00:25.509Z</time></trkpt><trkpt lat="42.0888208" lon="11.8845053"><ele>115.0</ele><time>2026-04-19T12:00:27.512Z</time></trkpt><trkpt lat="42.0887175" lon="11.8844224"><ele>115.0</ele><time>2026-04-19T12:00:29.511Z</time></trkpt><trkpt lat="42.0886185" lon="11.8843377"><ele>115.0</ele><time>2026-04-19T12:00:31.508Z</time></trkpt><trkpt lat="42.0885163" lon="11.884255"><ele>113.25</ele><time>2026-04-19T12:00:33.513Z</time></trkpt><trkpt lat="42.0884126" lon="11.8841786"><ele>111.5</ele><time>2026-04-19T12:00:35.512Z</time></trkpt><trkpt lat="42.0883108" lon="11.8840952"><ele>109.75</ele><time>2026-04-19T12:00:37.531Z</time></trkpt><trkpt lat="42.0882109" lon="11.8840263"><ele>108.0</ele><time>2026-04-19T12:00:39.511Z</time></trkpt><trkpt lat="42.0881032" lon="11.8839671"><ele>108.0</ele><time>2026-04-19T12:00:41.509Z</time></trkpt><trkpt lat="42.0879941" lon="11.8839344"><ele>108.00000000000001</ele><time>2026-04-19T12:00:43.51Z</time></trkpt><trkpt lat="42.0879313" lon="11.8839269"><ele>108.00000000000001</ele><time>2026-04-19T12:00:44.512Z</time></trkpt><trkpt lat="42.0878162" lon="11.8839289"><ele>108.0</ele><time>2026-04-19T12:00:46.51Z</time></trkpt><trkpt lat="42.0877016" lon="11.8839226"><ele>108.0</ele><time>2026-04-19T12:00:48.512Z</time></trkpt><trkpt lat="42.0875966" lon="11.883895"><ele>108.0</ele><time>2026-04-19T12:00:50.51Z</time></trkpt><trkpt lat="42.0874856" lon="11.883863"><ele>108.00000000000001</ele><time>2026-04-19T12:00:52.513Z</time></trkpt><trkpt lat="42.0873836" lon="11.8838341"><ele>108.00000000000001</ele><time>2026-04-19T12:00:54.512Z</time></trkpt><trkpt lat="42.0872846" lon="11.8838121"><ele>108.0</ele><time>2026-04-19T12:00:56.514Z</time></trkpt><trkpt lat="42.0871896" lon="11.8838028"><ele>108.0</ele><time>2026-04-19T12:00:58.519Z</time></trkpt><trkpt lat="42.0870996" lon="11.8838055"><ele>107.80000000000001</ele><time>2026-04-19T12:01:00.513Z</time></trkpt><trkpt lat="42.0870061" lon="11.8838101"><ele>107.60000000000001</ele><time>2026-04-19T12:01:02.51Z</time></trkpt><trkpt lat="42.0869114" lon="11.8838103"><ele>107.39999999999999</ele><time>2026-04-19T12:01:04.513Z</time></trkpt><trkpt lat="42.0868148" lon="11.8838006"><ele>107.19999999999999</ele><time>2026-04-19T12:01:06.515Z</time></trkpt><trkpt lat="42.0867188" lon="11.8837835"><ele>107.0</ele><time>2026-04-19T12:01:08.514Z</time></trkpt><trkpt lat="42.0866289" lon="11.8837586"><ele>106.49999999999999</ele><time>2026-04-19T12:01:10.509Z</time></trkpt><trkpt lat="42.0865378" lon="11.8837277"><ele>106.0</ele><time>2026-04-19T12:01:12.511Z</time></trkpt><trkpt lat="42.0864387" lon="11.8837076"><ele>105.5</ele><time>2026-04-19T12:01:14.514Z</time></trkpt><trkpt lat="42.0863583" lon="11.883698"><ele>105.0</ele><time>2026-04-19T12:01:16.51Z</time></trkpt><trkpt lat="42.0862869" lon="11.8836815"><ele>104.49999999999999</ele><time>2026-04-19T12:01:18.511Z</time></trkpt><trkpt lat="42.0862196" lon="11.883682"><ele>104.0</ele><time>2026-04-19T12:01:20.512Z</time></trkpt><trkpt lat="42.0861418" lon="11.8836777"><ele>103.99999999999999</ele><time>2026-04-19T12:01:22.511Z</time></trkpt><trkpt lat="42.0860639" lon="11.883685"><ele>104.0</ele><time>2026-04-19T12:01:24.512Z</time></trkpt><trkpt lat="42.0859886" lon="11.8837158"><ele>104.0</ele><time>2026-04-19T12:01:26.514Z</time></trkpt><trkpt lat="42.0859098" lon="11.8837645"><ele>104.0</ele><time>2026-04-19T12:01:28.511Z</time></trkpt><trkpt lat="42.0858144" lon="11.8837932"><ele>103.99999999999999</ele><time>2026-04-19T12:01:30.511Z</time></trkpt><trkpt lat="42.085712" lon="11.8837957"><ele>104.0</ele><time>2026-04-19T12:01:32.51Z</time></trkpt><trkpt lat="42.0856123" lon="11.8837636"><ele>103.2</ele><time>2026-04-19T12:01:34.513Z</time></trkpt><trkpt lat="42.0855108" lon="11.883717"><ele>102.4</ele><time>2026-04-19T12:01:36.515Z</time></trkpt><trkpt lat="42.0854172" lon="11.8837119"><ele>101.6</ele><time>2026-04-19T12:01:38.509Z</time></trkpt><trkpt lat="42.0853379" lon="11.8837375"><ele>100.8</ele><time>2026-04-19T12:01:40.511Z</time></trkpt><trkpt lat="42.0852488" lon="11.8837598"><ele>100.0</ele><time>2026-04-19T12:01:42.525Z</time></trkpt><trkpt lat="42.0851297" lon="11.883787"><ele>100.00000000000001</ele><time>2026-04-19T12:01:44.512Z</time></trkpt><trkpt lat="42.0850682" lon="11.8838076"><ele>100.0</ele><time>2026-04-19T12:01:45.514Z</time></trkpt><trkpt lat="42.0849516" lon="11.8838894"><ele>100.0</ele><time>2026-04-19T12:01:47.512Z</time></trkpt><trkpt lat="42.0848482" lon="11.8838916"><ele>100.0</ele><time>2026-04-19T12:01:49.51Z</time></trkpt><trkpt lat="42.084777" lon="11.8838811"><ele>100.00000000000001</ele><time>2026-04-19T12:01:53.512Z</time></trkpt><trkpt lat="42.0847182" lon="11.883825"><ele>100.0</ele><time>2026-04-19T12:01:56.515Z</time></trkpt><trkpt lat="42.0846501" lon="11.8837496"><ele>99.14285714285715</ele><time>2026-04-19T12:01:59.512Z</time></trkpt><trkpt lat="42.0846084" lon="11.8836824"><ele>98.28571428571429</ele><time>2026-04-19T12:02:03.511Z</time></trkpt><trkpt lat="42.0845703" lon="11.883595"><ele>97.42857142857143</ele><time>2026-04-19T12:02:07.51Z</time></trkpt><trkpt lat="42.0845172" lon="11.8835118"><ele>96.57142857142858</ele><time>2026-04-19T12:02:10.511Z</time></trkpt><trkpt lat="42.0844751" lon="11.8834319"><ele>95.71428571428571</ele><time>2026-04-19T12:02:15.511Z</time></trkpt><trkpt lat="42.0844089" lon="11.8833864"><ele>94.85714285714286</ele><time>2026-04-19T12:02:21.513Z</time></trkpt><trkpt lat="42.084345" lon="11.8833846"><ele>94.0</ele><time>2026-04-19T12:02:24.511Z</time></trkpt><trkpt lat="42.0842844" lon="11.88336"><ele>93.33333333333333</ele><time>2026-04-19T12:02:27.511Z</time></trkpt><trkpt lat="42.0842229" lon="11.8833217"><ele>92.66666666666666</ele><time>2026-04-19T12:02:34.509Z</time></trkpt><trkpt lat="42.0841683" lon="11.8832404"><ele>92.0</ele><time>2026-04-19T12:02:38.511Z</time></trkpt><trkpt lat="42.0841682" lon="11.8831122"><ele>91.33333333333333</ele><time>2026-04-19T12:02:41.515Z</time></trkpt><trkpt lat="42.0841963" lon="11.8830186"><ele>90.66666666666667</ele><time>2026-04-19T12:02:43.51Z</time></trkpt><trkpt lat="42.0842389" lon="11.8829251"><ele>90.0</ele><time>2026-04-19T12:02:45.511Z</time></trkpt><trkpt lat="42.0842323" lon="11.882805"><ele>90.0</ele><time>2026-04-19T12:02:48.508Z</time></trkpt><trkpt lat="42.084241" lon="11.8826899"><ele>90.0</ele><time>2026-04-19T12:02:51.51Z</time></trkpt><trkpt lat="42.0843101" lon="11.8826136"><ele>90.0</ele><time>2026-04-19T12:02:54.512Z</time></trkpt><trkpt lat="42.0843927" lon="11.882618"><ele>90.0</ele><time>2026-04-19T12:02:57.511Z</time></trkpt><trkpt lat="42.0844748" lon="11.8826254"><ele>90.0</ele><time>2026-04-19T12:02:59.514Z</time></trkpt><trkpt lat="42.0845408" lon="11.8826322"><ele>90.0</ele><time>2026-04-19T12:03:01.514Z</time></trkpt><trkpt lat="42.0846088" lon="11.8826378"><ele>90.0</ele><time>2026-04-19T12:03:03.514Z</time></trkpt><trkpt lat="42.0846985" lon="11.8826396"><ele>90.0</ele><time>2026-04-19T12:03:06.514Z</time></trkpt><trkpt lat="42.0847845" lon="11.8826059"><ele>90.0</ele><time>2026-04-19T12:03:09.511Z</time></trkpt><trkpt lat="42.0848424" lon="11.8825566"><ele>90.0</ele><time>2026-04-19T12:03:11.513Z</time></trkpt><trkpt lat="42.0848903" lon="11.8824981"><ele>90.0</ele><time>2026-04-19T12:03:13.513Z</time></trkpt><trkpt lat="42.0849403" lon="11.8824038"><ele>90.0</ele><time>2026-04-19T12:03:16.51Z</time></trkpt><trkpt lat="42.0849679" lon="11.8823106"><ele>90.2</ele><time>2026-04-19T12:03:18.511Z</time></trkpt><trkpt lat="42.0850043" lon="11.8822014"><ele>90.4</ele><time>2026-04-19T12:03:20.511Z</time></trkpt><trkpt lat="42.0850325" lon="11.8820762"><ele>90.6</ele><time>2026-04-19T12:03:22.52Z</time></trkpt><trkpt lat="42.0850648" lon="11.8819506"><ele>90.8</ele><time>2026-04-19T12:03:24.514Z</time></trkpt><trkpt lat="42.0850998" lon="11.8818415"><ele>91.0</ele><time>2026-04-19T12:03:26.511Z</time></trkpt><trkpt lat="42.085129" lon="11.8817341"><ele>91.16666666666666</ele><time>2026-04-19T12:03:28.511Z</time></trkpt><trkpt lat="42.085169" lon="11.8816537"><ele>91.33333333333333</ele><time>2026-04-19T12:03:30.509Z</time></trkpt><trkpt lat="42.0851782" lon="11.8815283"><ele>91.5</ele><time>2026-04-19T12:03:33.512Z</time></trkpt><trkpt lat="42.0851812" lon="11.8814143"><ele>91.66666666666667</ele><time>2026-04-19T12:03:36.512Z</time></trkpt><trkpt lat="42.0851831" lon="11.8813106"><ele>91.83333333333334</ele><time>2026-04-19T12:03:39.514Z</time></trkpt><trkpt lat="42.0851802" lon="11.8812257"><ele>92.0</ele><time>2026-04-19T12:03:41.513Z</time></trkpt><trkpt lat="42.0851879" lon="11.8811129"><ele>92.0</ele><time>2026-04-19T12:03:44.513Z</time></trkpt><trkpt lat="42.0852234" lon="11.8810068"><ele>92.0</ele><time>2026-04-19T12:03:47.515Z</time></trkpt><trkpt lat="42.0852776" lon="11.8809034"><ele>92.0</ele><time>2026-04-19T12:03:50.51Z</time></trkpt><trkpt lat="42.0853254" lon="11.8807912"><ele>92.0</ele><time>2026-04-19T12:03:53.515Z</time></trkpt><trkpt lat="42.0853562" lon="11.8807069"><ele>92.0</ele><time>2026-04-19T12:03:55.512Z</time></trkpt><trkpt lat="42.0853769" lon="11.8805841"><ele>92.0</ele><time>2026-04-19T12:03:58.512Z</time></trkpt><trkpt lat="42.0854065" lon="11.8804734"><ele>93.0</ele><time>2026-04-19T12:04:01.513Z</time></trkpt><trkpt lat="42.085458" lon="11.8803953"><ele>94.0</ele><time>2026-04-19T12:04:04.513Z</time></trkpt><trkpt lat="42.0855074" lon="11.8803331"><ele>95.0</ele><time>2026-04-19T12:04:07.514Z</time></trkpt><trkpt lat="42.0855585" lon="11.8802714"><ele>96.0</ele><time>2026-04-19T12:04:10.51Z</time></trkpt><trkpt lat="42.0856059" lon="11.8802087"><ele>97.0</ele><time>2026-04-19T12:04:13.512Z</time></trkpt><trkpt lat="42.0856596" lon="11.8801534"><ele>98.0</ele><time>2026-04-19T12:04:16.511Z</time></trkpt><trkpt lat="42.0857142" lon="11.8801034"><ele>99.0</ele><time>2026-04-19T12:04:18.511Z</time></trkpt><trkpt lat="42.0857669" lon="11.8800439"><ele>101.83333333333333</ele><time>2026-04-19T12:04:20.51Z</time></trkpt><trkpt lat="42.0858288" lon="11.8799512"><ele>104.66666666666666</ele><time>2026-04-19T12:04:23.511Z</time></trkpt><trkpt lat="42.0858722" lon="11.879858"><ele>107.5</ele><time>2026-04-19T12:04:26.511Z</time></trkpt><trkpt lat="42.0858908" lon="11.8797442"><ele>110.33333333333333</ele><time>2026-04-19T12:04:29.51Z</time></trkpt><trkpt lat="42.0858874" lon="11.8796424"><ele>113.16666666666666</ele><time>2026-04-19T12:04:32.511Z</time></trkpt><trkpt lat="42.0858801" lon="11.8795377"><ele>116.0</ele><time>2026-04-19T12:04:35.51Z</time></trkpt><trkpt lat="42.0858728" lon="11.8794451"><ele>116.00000000000001</ele><time>2026-04-19T12:04:38.511Z</time></trkpt><trkpt lat="42.0858533" lon="11.8793276"><ele>116.0</ele><time>2026-04-19T12:04:41.511Z</time></trkpt><trkpt lat="42.0858484" lon="11.8792348"><ele>116.00000000000001</ele><time>2026-04-19T12:04:43.513Z</time></trkpt><trkpt lat="42.0858497" lon="11.8791409"><ele>116.00000000000001</ele><time>2026-04-19T12:04:45.514Z</time></trkpt><trkpt lat="42.0858561" lon="11.8790507"><ele>116.0</ele><time>2026-04-19T12:04:47.511Z</time></trkpt><trkpt lat="42.0858706" lon="11.8789664"><ele>116.00000000000001</ele><time>2026-04-19T12:04:49.51Z</time></trkpt><trkpt lat="42.0858983" lon="11.8788579"><ele>116.00000000000001</ele><time>2026-04-19T12:04:52.513Z</time></trkpt><trkpt lat="42.0859348" lon="11.8787457"><ele>117.83333333333333</ele><time>2026-04-19T12:04:55.511Z</time></trkpt><trkpt lat="42.0859664" lon="11.878653"><ele>119.66666666666666</ele><time>2026-04-19T12:04:58.514Z</time></trkpt><trkpt lat="42.0860013" lon="11.878558"><ele>121.5</ele><time>2026-04-19T12:05:01.51Z</time></trkpt><trkpt lat="42.0860368" lon="11.8784599"><ele>123.33333333333334</ele><time>2026-04-19T12:05:04.512Z</time></trkpt><trkpt lat="42.0860729" lon="11.8783768"><ele>125.16666666666667</ele><time>2026-04-19T12:05:07.511Z</time></trkpt><trkpt lat="42.0861141" lon="11.8782885"><ele>127.0</ele><time>2026-04-19T12:05:10.509Z</time></trkpt><trkpt lat="42.0861625" lon="11.8782006"><ele>128.5</ele><time>2026-04-19T12:05:13.513Z</time></trkpt><trkpt lat="42.086219" lon="11.878111"><ele>130.0</ele><time>2026-04-19T12:05:16.511Z</time></trkpt><trkpt lat="42.0862745" lon="11.878017"><ele>131.5</ele><time>2026-04-19T12:05:19.543Z</time></trkpt><trkpt lat="42.0863338" lon="11.8779113"><ele>133.0</ele><time>2026-04-19T12:05:22.515Z</time></trkpt><trkpt lat="42.0863757" lon="11.8778234"><ele>134.5</ele><time>2026-04-19T12:05:24.509Z</time></trkpt><trkpt lat="42.0864347" lon="11.8777519"><ele>136.0</ele><time>2026-04-19T12:05:26.51Z</time></trkpt><trkpt lat="42.0865001" lon="11.8776991"><ele>136.0</ele><time>2026-04-19T12:05:28.511Z</time></trkpt><trkpt lat="42.0865737" lon="11.8776301"><ele>136.0</ele><time>2026-04-19T12:05:31.509Z</time></trkpt><trkpt lat="42.0866427" lon="11.8775503"><ele>136.0</ele><time>2026-04-19T12:05:34.51Z</time></trkpt><trkpt lat="42.0866752" lon="11.8774641"><ele>136.0</ele><time>2026-04-19T12:05:36.511Z</time></trkpt><trkpt lat="42.0867172" lon="11.8773917"><ele>136.0</ele><time>2026-04-19T12:05:38.513Z</time></trkpt><trkpt lat="42.0867744" lon="11.8773355"><ele>136.0</ele><time>2026-04-19T12:05:40.51Z</time></trkpt><trkpt lat="42.0868538" lon="11.8772759"><ele>138.5</ele><time>2026-04-19T12:05:43.511Z</time></trkpt><trkpt lat="42.0869055" lon="11.8772272"><ele>141.0</ele><time>2026-04-19T12:05:45.511Z</time></trkpt><trkpt lat="42.0869612" lon="11.8771343"><ele>143.5</ele><time>2026-04-19T12:05:48.511Z</time></trkpt><trkpt lat="42.086999" lon="11.8770186"><ele>146.0</ele><time>2026-04-19T12:05:51.51Z</time></trkpt><trkpt lat="42.0870362" lon="11.8769152"><ele>148.5</ele><time>2026-04-19T12:05:54.512Z</time></trkpt><trkpt lat="42.0870853" lon="11.8768195"><ele>151.0</ele><time>2026-04-19T12:05:57.511Z</time></trkpt><trkpt lat="42.0870899" lon="11.876714"><ele>152.5</ele><time>2026-04-19T12:06:00.513Z</time></trkpt><trkpt lat="42.0871055" lon="11.8766053"><ele>154.0</ele><time>2026-04-19T12:06:03.512Z</time></trkpt><trkpt lat="42.0871351" lon="11.8765272"><ele>155.5</ele><time>2026-04-19T12:06:05.51Z</time></trkpt><trkpt lat="42.0871681" lon="11.876453"><ele>157.0</ele><time>2026-04-19T12:06:07.514Z</time></trkpt><trkpt lat="42.0872162" lon="11.8763544"><ele>158.5</ele><time>2026-04-19T12:06:10.51Z</time></trkpt><trkpt lat="42.0872646" lon="11.8762953"><ele>160.0</ele><time>2026-04-19T12:06:12.511Z</time></trkpt><trkpt lat="42.087333" lon="11.8762162"><ele>160.0</ele><time>2026-04-19T12:06:15.511Z</time></trkpt><trkpt lat="42.0873672" lon="11.8761243"><ele>160.0</ele><time>2026-04-19T12:06:18.509Z</time></trkpt><trkpt lat="42.0873999" lon="11.8760327"><ele>160.0</ele><time>2026-04-19T12:06:21.508Z</time></trkpt><trkpt lat="42.0874521" lon="11.8759385"><ele>160.0</ele><time>2026-04-19T12:06:24.51Z</time></trkpt><trkpt lat="42.0875085" lon="11.8758471"><ele>160.0</ele><time>2026-04-19T12:06:27.512Z</time></trkpt><trkpt lat="42.0875481" lon="11.8757353"><ele>160.0</ele><time>2026-04-19T12:06:30.51Z</time></trkpt><trkpt lat="42.0875633" lon="11.8756507"><ele>161.57142857142856</ele><time>2026-04-19T12:06:32.514Z</time></trkpt><trkpt lat="42.0875786" lon="11.8755622"><ele>163.14285714285714</ele><time>2026-04-19T12:06:34.514Z</time></trkpt><trkpt lat="42.0875965" lon="11.8754756"><ele>164.71428571428572</ele><time>2026-04-19T12:06:36.511Z</time></trkpt><trkpt lat="42.0876357" lon="11.8753589"><ele>166.28571428571428</ele><time>2026-04-19T12:06:39.512Z</time></trkpt><trkpt lat="42.0876844" lon="11.8752826"><ele>167.85714285714286</ele><time>2026-04-19T12:06:41.512Z</time></trkpt><trkpt lat="42.0877369" lon="11.8752344"><ele>169.42857142857142</ele><time>2026-04-19T12:06:43.511Z</time></trkpt><trkpt lat="42.0878091" lon="11.875192"><ele>171.0</ele><time>2026-04-19T12:06:46.511Z</time></trkpt><trkpt lat="42.0878661" lon="11.8751501"><ele>171.7142857142857</ele><time>2026-04-19T12:06:48.51Z</time></trkpt><trkpt lat="42.0879271" lon="11.8750975"><ele>172.42857142857142</ele><time>2026-04-19T12:06:50.51Z</time></trkpt><trkpt lat="42.0879854" lon="11.8750433"><ele>173.14285714285714</ele><time>2026-04-19T12:06:52.511Z</time></trkpt><trkpt lat="42.0880432" lon="11.874994"><ele>173.85714285714283</ele><time>2026-04-19T12:06:54.511Z</time></trkpt><trkpt lat="42.0881038" lon="11.8749368"><ele>174.57142857142856</ele><time>2026-04-19T12:06:56.511Z</time></trkpt><trkpt lat="42.0881684" lon="11.874885"><ele>175.28571428571428</ele><time>2026-04-19T12:06:58.512Z</time></trkpt><trkpt lat="42.0882328" lon="11.8748324"><ele>176.0</ele><time>2026-04-19T12:07:00.513Z</time></trkpt><trkpt lat="42.0882918" lon="11.8747758"><ele>176.0</ele><time>2026-04-19T12:07:02.514Z</time></trkpt><trkpt lat="42.0883488" lon="11.8747154"><ele>176.0</ele><time>2026-04-19T12:07:04.514Z</time></trkpt><trkpt lat="42.0884024" lon="11.8746493"><ele>176.0</ele><time>2026-04-19T12:07:06.521Z</time></trkpt><trkpt lat="42.0884536" lon="11.8745823"><ele>176.0</ele><time>2026-04-19T12:07:08.511Z</time></trkpt><trkpt lat="42.0885063" lon="11.8745101"><ele>176.0</ele><time>2026-04-19T12:07:10.51Z</time></trkpt><trkpt lat="42.0885554" lon="11.8744389"><ele>176.0</ele><time>2026-04-19T12:07:12.514Z</time></trkpt><trkpt lat="42.0885936" lon="11.874369"><ele>176.0</ele><time>2026-04-19T12:07:14.511Z</time></trkpt><trkpt lat="42.0886313" lon="11.8742997"><ele>178.28571428571428</ele><time>2026-04-19T12:07:16.513Z</time></trkpt><trkpt lat="42.0886734" lon="11.8742265"><ele>180.57142857142856</ele><time>2026-04-19T12:07:18.509Z</time></trkpt><trkpt lat="42.0887313" lon="11.8741715"><ele>182.85714285714283</ele><time>2026-04-19T12:07:20.511Z</time></trkpt><trkpt lat="42.0887991" lon="11.8741311"><ele>185.14285714285714</ele><time>2026-04-19T12:07:22.51Z</time></trkpt><trkpt lat="42.0888589" lon="11.8740788"><ele>187.42857142857142</ele><time>2026-04-19T12:07:24.511Z</time></trkpt><trkpt lat="42.0889223" lon="11.8740441"><ele>189.7142857142857</ele><time>2026-04-19T12:07:26.509Z</time></trkpt><trkpt lat="42.0889749" lon="11.8739934"><ele>192.0</ele><time>2026-04-19T12:07:28.51Z</time></trkpt><trkpt lat="42.0890254" lon="11.8738921"><ele>192.0</ele><time>2026-04-19T12:07:31.51Z</time></trkpt><trkpt lat="42.0890527" lon="11.8738136"><ele>192.0</ele><time>2026-04-19T12:07:33.512Z</time></trkpt><trkpt lat="42.0890929" lon="11.8737322"><ele>192.0</ele><time>2026-04-19T12:07:35.514Z</time></trkpt><trkpt lat="42.0891352" lon="11.8736573"><ele>192.0</ele><time>2026-04-19T12:07:37.51Z</time></trkpt><trkpt lat="42.0891808" lon="11.8735601"><ele>192.0</ele><time>2026-04-19T12:07:40.512Z</time></trkpt><trkpt lat="42.0892285" lon="11.8734533"><ele>192.0</ele><time>2026-04-19T12:07:43.51Z</time></trkpt><trkpt lat="42.0892873" lon="11.8733536"><ele>193.83333333333334</ele><time>2026-04-19T12:07:46.512Z</time></trkpt><trkpt lat="42.089341" lon="11.8732624"><ele>195.66666666666669</ele><time>2026-04-19T12:07:49.509Z</time></trkpt><trkpt lat="42.0893853" lon="11.8731779"><ele>197.5</ele><time>2026-04-19T12:07:52.512Z</time></trkpt><trkpt lat="42.0894259" lon="11.8731023"><ele>199.33333333333334</ele><time>2026-04-19T12:07:55.51Z</time></trkpt><trkpt lat="42.0894698" lon="11.8730205"><ele>201.16666666666669</ele><time>2026-04-19T12:07:58.541Z</time></trkpt><trkpt lat="42.0895105" lon="11.8729449"><ele>203.0</ele><time>2026-04-19T12:08:01.567Z</time></trkpt><trkpt lat="42.089554" lon="11.8728525"><ele>203.0</ele><time>2026-04-19T12:08:04.512Z</time></trkpt><trkpt lat="42.0895909" lon="11.8727543"><ele>203.0</ele><time>2026-04-19T12:08:07.512Z</time></trkpt><trkpt lat="42.0896171" lon="11.8726691"><ele>203.0</ele><time>2026-04-19T12:08:10.51Z</time></trkpt><trkpt lat="42.08967" lon="11.8725859"><ele>203.0</ele><time>2026-04-19T12:08:13.512Z</time></trkpt><trkpt lat="42.0897252" lon="11.8725088"><ele>203.0</ele><time>2026-04-19T12:08:16.512Z</time></trkpt><trkpt lat="42.0897675" lon="11.8724449"><ele>203.0</ele><time>2026-04-19T12:08:18.512Z</time></trkpt><trkpt lat="42.0898106" lon="11.8723738"><ele>203.0</ele><time>2026-04-19T12:08:21.573Z</time></trkpt><trkpt lat="42.0898711" lon="11.8723232"><ele>205.66666666666669</ele><time>2026-04-19T12:08:26.511Z</time></trkpt><trkpt lat="42.0898498" lon="11.8722207"><ele>208.33333333333334</ele><time>2026-04-19T12:08:30.51Z</time></trkpt><trkpt lat="42.0898085" lon="11.8721517"><ele>211.0</ele><time>2026-04-19T12:08:33.512Z</time></trkpt><trkpt lat="42.0897534" lon="11.8720697"><ele>213.66666666666669</ele><time>2026-04-19T12:08:36.511Z</time></trkpt><trkpt lat="42.0896705" lon="11.8720209"><ele>216.33333333333334</ele><time>2026-04-19T12:08:39.51Z</time></trkpt><trkpt lat="42.0895786" lon="11.8720027"><ele>219.0</ele><time>2026-04-19T12:08:42.511Z</time></trkpt><trkpt lat="42.0894854" lon="11.8720113"><ele>219.0</ele><time>2026-04-19T12:08:45.511Z</time></trkpt><trkpt lat="42.0894204" lon="11.8719958"><ele>219.0</ele><time>2026-04-19T12:08:47.515Z</time></trkpt><trkpt lat="42.089339" lon="11.8719764"><ele>219.0</ele><time>2026-04-19T12:08:50.509Z</time></trkpt><trkpt lat="42.0892453" lon="11.8719582"><ele>219.0</ele><time>2026-04-19T12:08:53.511Z</time></trkpt><trkpt lat="42.0891568" lon="11.8719368"><ele>219.0</ele><time>2026-04-19T12:08:56.509Z</time></trkpt><trkpt lat="42.0890716" lon="11.871932"><ele>219.0</ele><time>2026-04-19T12:08:59.51Z</time></trkpt><trkpt lat="42.0889982" lon="11.8719141"><ele>219.33333333333334</ele><time>2026-04-19T12:09:02.509Z</time></trkpt><trkpt lat="42.0889222" lon="11.8718863"><ele>219.66666666666669</ele><time>2026-04-19T12:09:05.511Z</time></trkpt><trkpt lat="42.0888524" lon="11.8718438"><ele>220.0</ele><time>2026-04-19T12:09:08.511Z</time></trkpt><trkpt lat="42.0887849" lon="11.8717916"><ele>220.33333333333334</ele><time>2026-04-19T12:09:11.509Z</time></trkpt><trkpt lat="42.0887216" lon="11.8717306"><ele>220.66666666666669</ele><time>2026-04-19T12:09:14.509Z</time></trkpt><trkpt lat="42.0886534" lon="11.8716836"><ele>221.0</ele><time>2026-04-19T12:09:17.509Z</time></trkpt><trkpt lat="42.088587" lon="11.871636"><ele>222.33333333333334</ele><time>2026-04-19T12:09:20.511Z</time></trkpt><trkpt lat="42.088512" lon="11.8715844"><ele>223.66666666666669</ele><time>2026-04-19T12:09:23.511Z</time></trkpt><trkpt lat="42.0884346" lon="11.8715509"><ele>225.0</ele><time>2026-04-19T12:09:26.516Z</time></trkpt><trkpt lat="42.0883525" lon="11.8715241"><ele>226.33333333333331</ele><time>2026-04-19T12:09:29.511Z</time></trkpt><trkpt lat="42.0882656" lon="11.8715024"><ele>227.66666666666666</ele><time>2026-04-19T12:09:32.515Z</time></trkpt><trkpt lat="42.0881986" lon="11.8714857"><ele>229.0</ele><time>2026-04-19T12:09:35.512Z</time></trkpt><trkpt lat="42.0881331" lon="11.8714892"><ele>229.33333333333331</ele><time>2026-04-19T12:09:43.513Z</time></trkpt><trkpt lat="42.0880342" lon="11.8714734"><ele>229.66666666666666</ele><time>2026-04-19T12:09:46.51Z</time></trkpt><trkpt lat="42.0879498" lon="11.8714819"><ele>230.0</ele><time>2026-04-19T12:09:48.51Z</time></trkpt><trkpt lat="42.0878587" lon="11.8714933"><ele>230.33333333333331</ele><time>2026-04-19T12:09:50.508Z</time></trkpt><trkpt lat="42.0877903" lon="11.8715176"><ele>230.66666666666666</ele><time>2026-04-19T12:09:52.514Z</time></trkpt><trkpt lat="42.087727" lon="11.8715851"><ele>231.0</ele><time>2026-04-19T12:09:55.51Z</time></trkpt><trkpt lat="42.0876352" lon="11.8716102"><ele>231.0</ele><time>2026-04-19T12:09:58.511Z</time></trkpt><trkpt lat="42.0875655" lon="11.8715963"><ele>231.0</ele><time>2026-04-19T12:10:00.511Z</time></trkpt><trkpt lat="42.0874877" lon="11.8715652"><ele>231.0</ele><time>2026-04-19T12:10:02.512Z</time></trkpt><trkpt lat="42.0874051" lon="11.8715703"><ele>231.0</ele><time>2026-04-19T12:10:04.513Z</time></trkpt><trkpt lat="42.0873218" lon="11.8715851"><ele>231.0</ele><time>2026-04-19T12:10:06.51Z</time></trkpt><trkpt lat="42.0872248" lon="11.8715979"><ele>231.0</ele><time>2026-04-19T12:10:08.51Z</time></trkpt><trkpt lat="42.0871387" lon="11.8716076"><ele>232.16666666666666</ele><time>2026-04-19T12:10:10.511Z</time></trkpt><trkpt lat="42.0870607" lon="11.8715932"><ele>233.33333333333331</ele><time>2026-04-19T12:10:12.513Z</time></trkpt><trkpt lat="42.0869935" lon="11.8716031"><ele>234.5</ele><time>2026-04-19T12:10:14.517Z</time></trkpt><trkpt lat="42.0869099" lon="11.8716181"><ele>235.66666666666666</ele><time>2026-04-19T12:10:17.511Z</time></trkpt><trkpt lat="42.0868416" lon="11.8716442"><ele>236.83333333333331</ele><time>2026-04-19T12:10:19.51Z</time></trkpt><trkpt lat="42.0867661" lon="11.8716182"><ele>238.0</ele><time>2026-04-19T12:10:21.51Z</time></trkpt><trkpt lat="42.0866924" lon="11.8715859"><ele>237.99999999999997</ele><time>2026-04-19T12:10:23.511Z</time></trkpt><trkpt lat="42.0866209" lon="11.8715504"><ele>238.0</ele><time>2026-04-19T12:10:25.513Z</time></trkpt><trkpt lat="42.0865495" lon="11.8715336"><ele>238.0</ele><time>2026-04-19T12:10:27.513Z</time></trkpt><trkpt lat="42.0864756" lon="11.8715265"><ele>238.0</ele><time>2026-04-19T12:10:29.514Z</time></trkpt><trkpt lat="42.086402" lon="11.8715146"><ele>237.99999999999997</ele><time>2026-04-19T12:10:31.517Z</time></trkpt><trkpt lat="42.0863261" lon="11.8714909"><ele>238.0</ele><time>2026-04-19T12:10:33.514Z</time></trkpt><trkpt lat="42.0862427" lon="11.8714681"><ele>237.99999999999997</ele><time>2026-04-19T12:10:35.513Z</time></trkpt><trkpt lat="42.08616" lon="11.8715022"><ele>238.0</ele><time>2026-04-19T12:10:37.519Z</time></trkpt><trkpt lat="42.0860909" lon="11.8715737"><ele>238.0</ele><time>2026-04-19T12:10:39.518Z</time></trkpt><trkpt lat="42.0860423" lon="11.8716355"><ele>238.0</ele><time>2026-04-19T12:10:41.508Z</time></trkpt><trkpt lat="42.0859783" lon="11.8717271"><ele>237.99999999999997</ele><time>2026-04-19T12:10:44.513Z</time></trkpt><trkpt lat="42.0859231" lon="11.8717967"><ele>238.0</ele><time>2026-04-19T12:10:46.512Z</time></trkpt><trkpt lat="42.08585" lon="11.8718514"><ele>237.99999999999997</ele><time>2026-04-19T12:10:48.51Z</time></trkpt><trkpt lat="42.0857735" lon="11.8719279"><ele>238.0</ele><time>2026-04-19T12:10:50.508Z</time></trkpt><trkpt lat="42.0857073" lon="11.8720109"><ele>238.0</ele><time>2026-04-19T12:10:52.511Z</time></trkpt><trkpt lat="42.0856432" lon="11.8720847"><ele>238.0</ele><time>2026-04-19T12:10:54.51Z</time></trkpt><trkpt lat="42.0855691" lon="11.8721384"><ele>237.99999999999997</ele><time>2026-04-19T12:10:56.511Z</time></trkpt><trkpt lat="42.0855085" lon="11.8721909"><ele>238.0</ele><time>2026-04-19T12:10:58.513Z</time></trkpt><trkpt lat="42.0854443" lon="11.8722046"><ele>237.33333333333331</ele><time>2026-04-19T12:11:00.51Z</time></trkpt><trkpt lat="42.0853783" lon="11.8722267"><ele>236.66666666666666</ele><time>2026-04-19T12:11:02.509Z</time></trkpt><trkpt lat="42.0853117" lon="11.8722565"><ele>236.0</ele><time>2026-04-19T12:11:04.513Z</time></trkpt><trkpt lat="42.0852494" lon="11.8722908"><ele>235.33333333333331</ele><time>2026-04-19T12:11:06.512Z</time></trkpt><trkpt lat="42.0851775" lon="11.8723272"><ele>234.66666666666666</ele><time>2026-04-19T12:11:08.512Z</time></trkpt><trkpt lat="42.0850941" lon="11.8723674"><ele>234.0</ele><time>2026-04-19T12:11:10.511Z</time></trkpt><trkpt lat="42.0850051" lon="11.8724267"><ele>233.5</ele><time>2026-04-19T12:11:12.512Z</time></trkpt><trkpt lat="42.0849165" lon="11.8724949"><ele>233.0</ele><time>2026-04-19T12:11:14.51Z</time></trkpt><trkpt lat="42.0848325" lon="11.872571"><ele>232.5</ele><time>2026-04-19T12:11:16.51Z</time></trkpt><trkpt lat="42.084759" lon="11.8726419"><ele>232.0</ele><time>2026-04-19T12:11:18.509Z</time></trkpt><trkpt lat="42.084694" lon="11.872684"><ele>231.5</ele><time>2026-04-19T12:11:20.511Z</time></trkpt><trkpt lat="42.0846158" lon="11.8726923"><ele>231.0</ele><time>2026-04-19T12:11:23.511Z</time></trkpt><trkpt lat="42.0845309" lon="11.8726498"><ele>231.0</ele><time>2026-04-19T12:11:28.508Z</time></trkpt><trkpt lat="42.0844861" lon="11.8725682"><ele>231.00000000000003</ele><time>2026-04-19T12:11:30.511Z</time></trkpt><trkpt lat="42.0844246" lon="11.8724702"><ele>231.00000000000003</ele><time>2026-04-19T12:11:32.51Z</time></trkpt><trkpt lat="42.0843268" lon="11.8724146"><ele>231.0</ele><time>2026-04-19T12:11:34.511Z</time></trkpt><trkpt lat="42.0842246" lon="11.8723312"><ele>231.0</ele><time>2026-04-19T12:11:36.513Z</time></trkpt><trkpt lat="42.084183" lon="11.8722579"><ele>231.33333333333334</ele><time>2026-04-19T12:11:37.51Z</time></trkpt><trkpt lat="42.0840906" lon="11.8721404"><ele>231.66666666666669</ele><time>2026-04-19T12:11:39.514Z</time></trkpt><trkpt lat="42.0840275" lon="11.872097"><ele>232.0</ele><time>2026-04-19T12:11:40.515Z</time></trkpt><trkpt lat="42.0839634" lon="11.8720466"><ele>232.33333333333334</ele><time>2026-04-19T12:11:41.511Z</time></trkpt><trkpt lat="42.0838977" lon="11.8719816"><ele>232.66666666666669</ele><time>2026-04-19T12:11:42.512Z</time></trkpt><trkpt lat="42.0838404" lon="11.8719213"><ele>233.0</ele><time>2026-04-19T12:11:43.512Z</time></trkpt><trkpt lat="42.0837923" lon="11.8718491"><ele>233.0</ele><time>2026-04-19T12:11:44.511Z</time></trkpt><trkpt lat="42.0837368" lon="11.871779"><ele>233.0</ele><time>2026-04-19T12:11:45.51Z</time></trkpt><trkpt lat="42.0836755" lon="11.8717225"><ele>233.0</ele><time>2026-04-19T12:11:46.511Z</time></trkpt><trkpt lat="42.0836085" lon="11.8716606"><ele>233.0</ele><time>2026-04-19T12:11:47.516Z</time></trkpt><trkpt lat="42.0835524" lon="11.8716059"><ele>233.0</ele><time>2026-04-19T12:11:48.512Z</time></trkpt><trkpt lat="42.0834927" lon="11.8715473"><ele>233.0</ele><time>2026-04-19T12:11:49.513Z</time></trkpt><trkpt lat="42.0834404" lon="11.8714824"><ele>233.0</ele><time>2026-04-19T12:11:50.51Z</time></trkpt><trkpt lat="42.083391" lon="11.8714206"><ele>230.50000000000003</ele><time>2026-04-19T12:11:51.51Z</time></trkpt><trkpt lat="42.0833296" lon="11.8713916"><ele>228.0</ele><time>2026-04-19T12:11:52.512Z</time></trkpt><trkpt lat="42.0832652" lon="11.8713355"><ele>225.5</ele><time>2026-04-19T12:11:53.512Z</time></trkpt><trkpt lat="42.0831837" lon="11.8712602"><ele>223.0</ele><time>2026-04-19T12:11:55.513Z</time></trkpt><trkpt lat="42.0830993" lon="11.8711882"><ele>220.50000000000003</ele><time>2026-04-19T12:11:57.515Z</time></trkpt><trkpt lat="42.0830315" lon="11.8711231"><ele>218.0</ele><time>2026-04-19T12:11:59.515Z</time></trkpt><trkpt lat="42.082957" lon="11.871089"><ele>218.0</ele><time>2026-04-19T12:12:01.511Z</time></trkpt><trkpt lat="42.0828745" lon="11.871053"><ele>218.0</ele><time>2026-04-19T12:12:03.518Z</time></trkpt><trkpt lat="42.082762" lon="11.8710251"><ele>218.0</ele><time>2026-04-19T12:12:05.51Z</time></trkpt><trkpt lat="42.0826391" lon="11.870969"><ele>218.0</ele><time>2026-04-19T12:12:07.512Z</time></trkpt><trkpt lat="42.082565" lon="11.8709254"><ele>218.0</ele><time>2026-04-19T12:12:08.508Z</time></trkpt><trkpt lat="42.0824922" lon="11.8708868"><ele>216.28571428571428</ele><time>2026-04-19T12:12:09.511Z</time></trkpt><trkpt lat="42.0824166" lon="11.8708397"><ele>214.57142857142858</ele><time>2026-04-19T12:12:10.509Z</time></trkpt><trkpt lat="42.0823472" lon="11.870806"><ele>212.85714285714283</ele><time>2026-04-19T12:12:11.512Z</time></trkpt><trkpt lat="42.0822785" lon="11.870754"><ele>211.14285714285714</ele><time>2026-04-19T12:12:12.512Z</time></trkpt><trkpt lat="42.082218" lon="11.8707229"><ele>209.42857142857142</ele><time>2026-04-19T12:12:13.51Z</time></trkpt><trkpt lat="42.0821406" lon="11.8707042"><ele>207.7142857142857</ele><time>2026-04-19T12:12:14.511Z</time></trkpt><trkpt lat="42.0820742" lon="11.8706774"><ele>206.0</ele><time>2026-04-19T12:12:15.512Z</time></trkpt><trkpt lat="42.0820078" lon="11.8706466"><ele>206.0</ele><time>2026-04-19T12:12:16.513Z</time></trkpt><trkpt lat="42.0819473" lon="11.8706099"><ele>206.0</ele><time>2026-04-19T12:12:17.513Z</time></trkpt><trkpt lat="42.0818447" lon="11.8705505"><ele>206.0</ele><time>2026-04-19T12:12:19.511Z</time></trkpt><trkpt lat="42.0817467" lon="11.8705063"><ele>206.0</ele><time>2026-04-19T12:12:21.511Z</time></trkpt><trkpt lat="42.0816462" lon="11.8704475"><ele>206.0</ele><time>2026-04-19T12:12:23.51Z</time></trkpt><trkpt lat="42.0815439" lon="11.8704389"><ele>204.50000000000003</ele><time>2026-04-19T12:12:25.511Z</time></trkpt><trkpt lat="42.081461" lon="11.870446"><ele>203.0</ele><time>2026-04-19T12:12:27.512Z</time></trkpt><trkpt lat="42.0813788" lon="11.8704643"><ele>201.5</ele><time>2026-04-19T12:12:29.51Z</time></trkpt><trkpt lat="42.0812992" lon="11.870478"><ele>200.0</ele><time>2026-04-19T12:12:31.51Z</time></trkpt><trkpt lat="42.0812224" lon="11.87049"><ele>198.50000000000003</ele><time>2026-04-19T12:12:33.511Z</time></trkpt><trkpt lat="42.08115" lon="11.870553"><ele>197.0</ele><time>2026-04-19T12:12:35.507Z</time></trkpt><trkpt lat="42.081087" lon="11.8706136"><ele>197.00000000000003</ele><time>2026-04-19T12:12:37.51Z</time></trkpt><trkpt lat="42.0810187" lon="11.87068"><ele>197.0</ele><time>2026-04-19T12:12:40.511Z</time></trkpt><trkpt lat="42.0809443" lon="11.8707507"><ele>197.0</ele><time>2026-04-19T12:12:43.509Z</time></trkpt><trkpt lat="42.080867" lon="11.8708414"><ele>197.0</ele><time>2026-04-19T12:12:45.517Z</time></trkpt><trkpt lat="42.0808343" lon="11.8709199"><ele>197.00000000000003</ele><time>2026-04-19T12:12:46.509Z</time></trkpt><trkpt lat="42.0807543" lon="11.8710065"><ele>197.0</ele><time>2026-04-19T12:12:48.511Z</time></trkpt><trkpt lat="42.0806815" lon="11.8709364"><ele>196.39999999999998</ele><time>2026-04-19T12:12:50.511Z</time></trkpt><trkpt lat="42.0806239" lon="11.8707766"><ele>195.79999999999998</ele><time>2026-04-19T12:12:52.511Z</time></trkpt><trkpt lat="42.0805803" lon="11.8706973"><ele>195.2</ele><time>2026-04-19T12:12:53.512Z</time></trkpt><trkpt lat="42.0805283" lon="11.8706349"><ele>194.6</ele><time>2026-04-19T12:12:54.513Z</time></trkpt><trkpt lat="42.0804774" lon="11.8705846"><ele>194.0</ele><time>2026-04-19T12:12:55.515Z</time></trkpt><trkpt lat="42.0803486" lon="11.8705374"><ele>194.00000000000003</ele><time>2026-04-19T12:12:57.513Z</time></trkpt><trkpt lat="42.0802832" lon="11.8705126"><ele>194.0</ele><time>2026-04-19T12:12:58.513Z</time></trkpt><trkpt lat="42.0802179" lon="11.8705"><ele>194.0</ele><time>2026-04-19T12:12:59.514Z</time></trkpt><trkpt lat="42.0801527" lon="11.8705015"><ele>194.0</ele><time>2026-04-19T12:13:00.511Z</time></trkpt><trkpt lat="42.0800383" lon="11.870496"><ele>194.00000000000003</ele><time>2026-04-19T12:13:02.512Z</time></trkpt><trkpt lat="42.0799319" lon="11.8704298"><ele>194.0</ele><time>2026-04-19T12:13:04.513Z</time></trkpt><trkpt lat="42.0798761" lon="11.8703882"><ele>194.79999999999998</ele><time>2026-04-19T12:13:05.513Z</time></trkpt><trkpt lat="42.0797764" lon="11.8703473"><ele>195.6</ele><time>2026-04-19T12:13:07.51Z</time></trkpt><trkpt lat="42.0796855" lon="11.870315"><ele>196.4</ele><time>2026-04-19T12:13:09.511Z</time></trkpt><trkpt lat="42.0796064" lon="11.8702401"><ele>197.2</ele><time>2026-04-19T12:13:11.51Z</time></trkpt><trkpt lat="42.0795312" lon="11.8701954"><ele>198.0</ele><time>2026-04-19T12:13:13.51Z</time></trkpt><trkpt lat="42.0794665" lon="11.8701424"><ele>194.66666666666666</ele><time>2026-04-19T12:13:15.509Z</time></trkpt><trkpt lat="42.0794174" lon="11.8700867"><ele>191.33333333333334</ele><time>2026-04-19T12:13:17.51Z</time></trkpt><trkpt lat="42.0793909" lon="11.8699682"><ele>188.0</ele><time>2026-04-19T12:13:20.511Z</time></trkpt><trkpt lat="42.0794175" lon="11.8698587"><ele>184.66666666666669</ele><time>2026-04-19T12:13:23.51Z</time></trkpt><trkpt lat="42.079476" lon="11.8697567"><ele>181.33333333333334</ele><time>2026-04-19T12:13:27.515Z</time></trkpt><trkpt lat="42.0795143" lon="11.8696846"><ele>178.0</ele><time>2026-04-19T12:13:29.51Z</time></trkpt><trkpt lat="42.079561" lon="11.8695856"><ele>178.0</ele><time>2026-04-19T12:13:31.514Z</time></trkpt><trkpt lat="42.0796199" lon="11.8694668"><ele>178.0</ele><time>2026-04-19T12:13:33.511Z</time></trkpt><trkpt lat="42.0796796" lon="11.86932"><ele>178.0</ele><time>2026-04-19T12:13:35.511Z</time></trkpt><trkpt lat="42.0797163" lon="11.8692442"><ele>178.0</ele><time>2026-04-19T12:13:36.514Z</time></trkpt><trkpt lat="42.0797525" lon="11.8691615"><ele>178.0</ele><time>2026-04-19T12:13:37.513Z</time></trkpt><trkpt lat="42.0797831" lon="11.8690735"><ele>178.0</ele><time>2026-04-19T12:13:38.515Z</time></trkpt><trkpt lat="42.0798159" lon="11.8689818"><ele>176.33333333333334</ele><time>2026-04-19T12:13:39.513Z</time></trkpt><trkpt lat="42.0798431" lon="11.8688964"><ele>174.66666666666669</ele><time>2026-04-19T12:13:40.513Z</time></trkpt><trkpt lat="42.0798782" lon="11.8688045"><ele>173.0</ele><time>2026-04-19T12:13:41.512Z</time></trkpt><trkpt lat="42.0799062" lon="11.8687076"><ele>171.33333333333334</ele><time>2026-04-19T12:13:42.513Z</time></trkpt><trkpt lat="42.079933" lon="11.8686106"><ele>169.66666666666666</ele><time>2026-04-19T12:13:43.511Z</time></trkpt><trkpt lat="42.0799593" lon="11.8685155"><ele>168.0</ele><time>2026-04-19T12:13:44.512Z</time></trkpt><trkpt lat="42.0799934" lon="11.8684248"><ele>166.5</ele><time>2026-04-19T12:13:45.51Z</time></trkpt><trkpt lat="42.0800302" lon="11.8683335"><ele>165.0</ele><time>2026-04-19T12:13:46.509Z</time></trkpt><trkpt lat="42.0800715" lon="11.8682455"><ele>163.5</ele><time>2026-04-19T12:13:47.508Z</time></trkpt><trkpt lat="42.0801031" lon="11.8681674"><ele>162.0</ele><time>2026-04-19T12:13:48.509Z</time></trkpt><trkpt lat="42.0801472" lon="11.8680548"><ele>160.5</ele><time>2026-04-19T12:13:50.508Z</time></trkpt><trkpt lat="42.0801735" lon="11.8679777"><ele>159.0</ele><time>2026-04-19T12:22:03.511Z</time></trkpt><trkpt lat="42.0801808" lon="11.8678765"><ele>159.0</ele><time>2026-04-19T12:22:07.513Z</time></trkpt><trkpt lat="42.0801848" lon="11.8677883"><ele>159.0</ele><time>2026-04-19T12:22:09.509Z</time></trkpt><trkpt lat="42.0801911" lon="11.8676737"><ele>159.0</ele><time>2026-04-19T12:22:11.509Z</time></trkpt><trkpt lat="42.0801875" lon="11.8675497"><ele>159.0</ele><time>2026-04-19T12:22:13.512Z</time></trkpt><trkpt lat="42.0801884" lon="11.8674634"><ele>159.0</ele><time>2026-04-19T12:22:14.522Z</time></trkpt><trkpt lat="42.0801919" lon="11.8673357"><ele>159.0</ele><time>2026-04-19T12:22:16.511Z</time></trkpt><trkpt lat="42.0801985" lon="11.867203"><ele>157.8</ele><time>2026-04-19T12:22:18.508Z</time></trkpt><trkpt lat="42.0802102" lon="11.8670573"><ele>156.60000000000002</ele><time>2026-04-19T12:22:20.511Z</time></trkpt><trkpt lat="42.0802257" lon="11.8668993"><ele>155.4</ele><time>2026-04-19T12:22:22.516Z</time></trkpt><trkpt lat="42.0802231" lon="11.8668144"><ele>154.20000000000002</ele><time>2026-04-19T12:22:23.514Z</time></trkpt><trkpt lat="42.0801993" lon="11.8666488"><ele>153.0</ele><time>2026-04-19T12:22:25.511Z</time></trkpt><trkpt lat="42.0801563" lon="11.8665706"><ele>151.4</ele><time>2026-04-19T12:22:26.511Z</time></trkpt><trkpt lat="42.0800597" lon="11.8664843"><ele>149.8</ele><time>2026-04-19T12:22:28.512Z</time></trkpt><trkpt lat="42.0799452" lon="11.8664692"><ele>148.2</ele><time>2026-04-19T12:22:30.516Z</time></trkpt><trkpt lat="42.0798338" lon="11.8664657"><ele>146.6</ele><time>2026-04-19T12:22:32.512Z</time></trkpt><trkpt lat="42.0797433" lon="11.8663958"><ele>145.0</ele><time>2026-04-19T12:22:34.515Z</time></trkpt><trkpt lat="42.0797319" lon="11.866255"><ele>144.0</ele><time>2026-04-19T12:22:36.517Z</time></trkpt><trkpt lat="42.0797707" lon="11.8661104"><ele>143.0</ele><time>2026-04-19T12:22:38.514Z</time></trkpt><trkpt lat="42.0798149" lon="11.8659428"><ele>142.0</ele><time>2026-04-19T12:22:40.513Z</time></trkpt><trkpt lat="42.0798966" lon="11.8658464"><ele>141.0</ele><time>2026-04-19T12:22:42.514Z</time></trkpt><trkpt lat="42.0799967" lon="11.8658396"><ele>140.0</ele><time>2026-04-19T12:22:44.514Z</time></trkpt><trkpt lat="42.0800931" lon="11.865818"><ele>139.0</ele><time>2026-04-19T12:22:46.516Z</time></trkpt><trkpt lat="42.0802225" lon="11.8657937"><ele>138.0</ele><time>2026-04-19T12:22:48.511Z</time></trkpt><trkpt lat="42.0802895" lon="11.8657727"><ele>137.0</ele><time>2026-04-19T12:22:49.507Z</time></trkpt><trkpt lat="42.0803589" lon="11.8657624"><ele>136.0</ele><time>2026-04-19T12:22:50.508Z</time></trkpt><trkpt lat="42.0804372" lon="11.8657612"><ele>135.0</ele><time>2026-04-19T12:22:51.51Z</time></trkpt><trkpt lat="42.0805153" lon="11.8657414"><ele>135.0</ele><time>2026-04-19T12:22:52.511Z</time></trkpt><trkpt lat="42.0806016" lon="11.8657239"><ele>135.0</ele><time>2026-04-19T12:22:53.512Z</time></trkpt><trkpt lat="42.0806801" lon="11.8656809"><ele>135.0</ele><time>2026-04-19T12:22:54.511Z</time></trkpt><trkpt lat="42.0807558" lon="11.8656704"><ele>135.0</ele><time>2026-04-19T12:22:55.511Z</time></trkpt><trkpt lat="42.0808178" lon="11.8656555"><ele>135.0</ele><time>2026-04-19T12:22:56.513Z</time></trkpt><trkpt lat="42.0809361" lon="11.8656372"><ele>135.0</ele><time>2026-04-19T12:22:58.513Z</time></trkpt><trkpt lat="42.0810128" lon="11.8656373"><ele>134.16666666666666</ele><time>2026-04-19T12:22:59.514Z</time></trkpt><trkpt lat="42.0810843" lon="11.8656191"><ele>133.33333333333334</ele><time>2026-04-19T12:23:00.513Z</time></trkpt><trkpt lat="42.0811558" lon="11.8656209"><ele>132.5</ele><time>2026-04-19T12:23:01.513Z</time></trkpt><trkpt lat="42.0812198" lon="11.8656156"><ele>131.66666666666669</ele><time>2026-04-19T12:23:02.511Z</time></trkpt><trkpt lat="42.081331" lon="11.8656073"><ele>130.83333333333334</ele><time>2026-04-19T12:23:04.511Z</time></trkpt><trkpt lat="42.081421" lon="11.8655858"><ele>130.0</ele><time>2026-04-19T12:23:06.511Z</time></trkpt><trkpt lat="42.0814806" lon="11.8655445"><ele>130.0</ele><time>2026-04-19T12:23:08.51Z</time></trkpt><trkpt lat="42.0815584" lon="11.8654994"><ele>130.0</ele><time>2026-04-19T12:23:10.519Z</time></trkpt><trkpt lat="42.0816439" lon="11.8654736"><ele>130.0</ele><time>2026-04-19T12:23:12.513Z</time></trkpt><trkpt lat="42.0817141" lon="11.8655078"><ele>130.0</ele><time>2026-04-19T12:23:14.511Z</time></trkpt><trkpt lat="42.0817926" lon="11.8655864"><ele>130.0</ele><time>2026-04-19T12:23:16.523Z</time></trkpt><trkpt lat="42.0819012" lon="11.8656042"><ele>129.0</ele><time>2026-04-19T12:23:18.514Z</time></trkpt><trkpt lat="42.081968" lon="11.865582"><ele>128.0</ele><time>2026-04-19T12:23:19.508Z</time></trkpt><trkpt lat="42.0820659" lon="11.8655667"><ele>127.0</ele><time>2026-04-19T12:23:21.51Z</time></trkpt><trkpt lat="42.0821382" lon="11.8656231"><ele>126.0</ele><time>2026-04-19T12:23:23.513Z</time></trkpt><trkpt lat="42.0821878" lon="11.8657279"><ele>125.00000000000001</ele><time>2026-04-19T12:23:25.524Z</time></trkpt><trkpt lat="42.0821965" lon="11.865858"><ele>124.0</ele><time>2026-04-19T12:23:27.517Z</time></trkpt><trkpt lat="42.0821938" lon="11.8659614"><ele>123.66666666666667</ele><time>2026-04-19T12:23:29.509Z</time></trkpt><trkpt lat="42.0822537" lon="11.8660257"><ele>123.33333333333334</ele><time>2026-04-19T12:23:33.511Z</time></trkpt><trkpt lat="42.082304" lon="11.8660899"><ele>123.0</ele><time>2026-04-19T12:23:36.509Z</time></trkpt><trkpt lat="42.0823155" lon="11.8661849"><ele>122.66666666666666</ele><time>2026-04-19T12:23:39.512Z</time></trkpt><trkpt lat="42.0823538" lon="11.8662919"><ele>122.33333333333333</ele><time>2026-04-19T12:23:42.514Z</time></trkpt><trkpt lat="42.0824438" lon="11.8663079"><ele>122.0</ele><time>2026-04-19T12:23:44.51Z</time></trkpt><trkpt lat="42.0825425" lon="11.8663253"><ele>121.99999999999999</ele><time>2026-04-19T12:23:46.512Z</time></trkpt><trkpt lat="42.0826235" lon="11.8663342"><ele>122.0</ele><time>2026-04-19T12:23:48.508Z</time></trkpt><trkpt lat="42.0826996" lon="11.8663802"><ele>122.0</ele><time>2026-04-19T12:23:50.509Z</time></trkpt><trkpt lat="42.0827457" lon="11.8664834"><ele>122.0</ele><time>2026-04-19T12:23:53.511Z</time></trkpt><trkpt lat="42.0828035" lon="11.8665393"><ele>121.99999999999999</ele><time>2026-04-19T12:23:56.513Z</time></trkpt><trkpt lat="42.0828423" lon="11.8664535"><ele>122.0</ele><time>2026-04-19T12:24:00.507Z</time></trkpt><trkpt lat="42.0828918" lon="11.8663454"><ele>121.99999999999999</ele><time>2026-04-19T12:24:13.512Z</time></trkpt><trkpt lat="42.0829664" lon="11.8662884"><ele>122.0</ele><time>2026-04-19T12:24:15.514Z</time></trkpt><trkpt lat="42.0830552" lon="11.8662517"><ele>122.0</ele><time>2026-04-19T12:24:17.514Z</time></trkpt><trkpt lat="42.0831314" lon="11.8662067"><ele>122.0</ele><time>2026-04-19T12:24:19.511Z</time></trkpt><trkpt lat="42.0831764" lon="11.8661284"><ele>121.99999999999999</ele><time>2026-04-19T12:24:21.51Z</time></trkpt><trkpt lat="42.0832119" lon="11.8659975"><ele>122.0</ele><time>2026-04-19T12:24:23.522Z</time></trkpt><trkpt lat="42.0832676" lon="11.8658601"><ele>118.33333333333333</ele><time>2026-04-19T12:24:25.509Z</time></trkpt><trkpt lat="42.0833122" lon="11.8657485"><ele>114.66666666666666</ele><time>2026-04-19T12:24:27.511Z</time></trkpt><trkpt lat="42.0833439" lon="11.8656629"><ele>111.0</ele><time>2026-04-19T12:24:59.509Z</time></trkpt><trkpt lat="42.0834079" lon="11.8656281"><ele>107.33333333333334</ele><time>2026-04-19T12:25:16.512Z</time></trkpt><trkpt lat="42.0834729" lon="11.8656899"><ele>103.66666666666667</ele><time>2026-04-19T12:25:21.514Z</time></trkpt><trkpt lat="42.083544" lon="11.8657279"><ele>100.0</ele><time>2026-04-19T12:25:26.508Z</time></trkpt><trkpt lat="42.0836147" lon="11.8656682"><ele>100.00000000000001</ele><time>2026-04-19T12:25:38.513Z</time></trkpt><trkpt lat="42.0836603" lon="11.865585"><ele>100.0</ele><time>2026-04-19T12:25:41.513Z</time></trkpt><trkpt lat="42.0836393" lon="11.8655006"><ele>100.0</ele><time>2026-04-19T12:25:42.515Z</time></trkpt><trkpt lat="42.0836151" lon="11.865414"><ele>100.0</ele><time>2026-04-19T12:25:43.513Z</time></trkpt><trkpt lat="42.0835666" lon="11.8653049"><ele>100.00000000000001</ele><time>2026-04-19T12:25:45.513Z</time></trkpt><trkpt lat="42.0835091" lon="11.8652254"><ele>100.0</ele><time>2026-04-19T12:25:48.516Z</time></trkpt><trkpt lat="42.0834527" lon="11.8651828"><ele>100.00000000000001</ele><time>2026-04-19T12:25:51.51Z</time></trkpt><trkpt lat="42.0833894" lon="11.8651438"><ele>100.0</ele><time>2026-04-19T12:25:54.516Z</time></trkpt><trkpt lat="42.0833366" lon="11.8650892"><ele>100.0</ele><time>2026-04-19T12:25:58.509Z</time></trkpt><trkpt lat="42.0832668" lon="11.865059"><ele>100.0</ele><time>2026-04-19T12:26:08.51Z</time></trkpt><trkpt lat="42.0832043" lon="11.8650476"><ele>100.0</ele><time>2026-04-19T12:26:13.507Z</time></trkpt><trkpt lat="42.0831309" lon="11.8649841"><ele>100.00000000000001</ele><time>2026-04-19T12:26:17.512Z</time></trkpt><trkpt lat="42.0830925" lon="11.8648934"><ele>100.0</ele><time>2026-04-19T12:26:20.509Z</time></trkpt><trkpt lat="42.0831126" lon="11.8648059"><ele>99.57142857142858</ele><time>2026-04-19T12:26:22.51Z</time></trkpt><trkpt lat="42.0831326" lon="11.8647038"><ele>99.14285714285714</ele><time>2026-04-19T12:26:26.509Z</time></trkpt><trkpt lat="42.0831264" lon="11.8646085"><ele>98.71428571428572</ele><time>2026-04-19T12:26:28.513Z</time></trkpt><trkpt lat="42.0830963" lon="11.8645338"><ele>98.28571428571429</ele><time>2026-04-19T12:26:32.511Z</time></trkpt><trkpt lat="42.0830425" lon="11.8644849"><ele>97.85714285714286</ele><time>2026-04-19T12:26:48.513Z</time></trkpt><trkpt lat="42.0831135" lon="11.8644536"><ele>97.42857142857143</ele><time>2026-04-19T12:27:25.51Z</time></trkpt><trkpt lat="42.0832001" lon="11.864464"><ele>97.0</ele><time>2026-04-19T12:27:29.512Z</time></trkpt><trkpt lat="42.0832673" lon="11.8644731"><ele>97.42857142857143</ele><time>2026-04-19T12:27:32.525Z</time></trkpt><trkpt lat="42.0833306" lon="11.8644426"><ele>97.85714285714286</ele><time>2026-04-19T12:27:37.508Z</time></trkpt><trkpt lat="42.0833732" lon="11.8643578"><ele>98.28571428571429</ele><time>2026-04-19T12:27:42.511Z</time></trkpt><trkpt lat="42.0833888" lon="11.8642735"><ele>98.71428571428572</ele><time>2026-04-19T12:27:46.513Z</time></trkpt><trkpt lat="42.083391" lon="11.864184"><ele>99.14285714285714</ele><time>2026-04-19T12:27:49.511Z</time></trkpt><trkpt lat="42.0833831" lon="11.864077"><ele>99.57142857142858</ele><time>2026-04-19T12:27:53.51Z</time></trkpt><trkpt lat="42.0833687" lon="11.8639674"><ele>100.0</ele><time>2026-04-19T12:27:56.514Z</time></trkpt><trkpt lat="42.0833606" lon="11.8638768"><ele>100.00000000000001</ele><time>2026-04-19T12:27:59.509Z</time></trkpt><trkpt lat="42.0833528" lon="11.8637892"><ele>100.0</ele><time>2026-04-19T12:28:02.512Z</time></trkpt><trkpt lat="42.083336" lon="11.8636953"><ele>100.0</ele><time>2026-04-19T12:28:05.519Z</time></trkpt><trkpt lat="42.0833258" lon="11.8635923"><ele>100.0</ele><time>2026-04-19T12:28:09.509Z</time></trkpt><trkpt lat="42.0833057" lon="11.8634772"><ele>100.00000000000001</ele><time>2026-04-19T12:28:12.513Z</time></trkpt><trkpt lat="42.083262" lon="11.8633844"><ele>100.0</ele><time>2026-04-19T12:28:15.51Z</time></trkpt><trkpt lat="42.0832201" lon="11.8633075"><ele>99.00000000000001</ele><time>2026-04-19T12:28:21.51Z</time></trkpt><trkpt lat="42.0831951" lon="11.8632213"><ele>98.0</ele><time>2026-04-19T12:28:26.509Z</time></trkpt><trkpt lat="42.0831876" lon="11.863136"><ele>97.0</ele><time>2026-04-19T12:28:30.509Z</time></trkpt><trkpt lat="42.0831841" lon="11.8630472"><ele>96.0</ele><time>2026-04-19T12:28:35.517Z</time></trkpt><trkpt lat="42.0831933" lon="11.8629509"><ele>95.0</ele><time>2026-04-19T12:28:42.51Z</time></trkpt><trkpt lat="42.0832162" lon="11.8628686"><ele>94.00000000000001</ele><time>2026-04-19T12:28:47.507Z</time></trkpt><trkpt lat="42.0832105" lon="11.8627723"><ele>93.0</ele><time>2026-04-19T12:28:51.508Z</time></trkpt><trkpt lat="42.083204" lon="11.8626786"><ele>94.66666666666667</ele><time>2026-04-19T12:28:56.511Z</time></trkpt><trkpt lat="42.0832575" lon="11.862603"><ele>96.33333333333334</ele><time>2026-04-19T12:29:53.512Z</time></trkpt><trkpt lat="42.083318" lon="11.8625606"><ele>98.0</ele><time>2026-04-19T12:29:56.513Z</time></trkpt><trkpt lat="42.0833819" lon="11.862524"><ele>99.66666666666667</ele><time>2026-04-19T12:29:59.512Z</time></trkpt><trkpt lat="42.0834598" lon="11.8624968"><ele>101.33333333333334</ele><time>2026-04-19T12:30:02.512Z</time></trkpt><trkpt lat="42.083543" lon="11.8624671"><ele>103.0</ele><time>2026-04-19T12:30:05.51Z</time></trkpt><trkpt lat="42.0835966" lon="11.8624072"><ele>104.57142857142856</ele><time>2026-04-19T12:30:07.511Z</time></trkpt><trkpt lat="42.0836412" lon="11.862333"><ele>106.14285714285714</ele><time>2026-04-19T12:30:09.511Z</time></trkpt><trkpt lat="42.083701" lon="11.8622649"><ele>107.71428571428571</ele><time>2026-04-19T12:30:12.511Z</time></trkpt><trkpt lat="42.0837658" lon="11.8622271"><ele>109.28571428571428</ele><time>2026-04-19T12:30:15.513Z</time></trkpt><trkpt lat="42.0838395" lon="11.862238"><ele>110.85714285714285</ele><time>2026-04-19T12:30:17.505Z</time></trkpt><trkpt lat="42.0839017" lon="11.8622159"><ele>112.42857142857142</ele><time>2026-04-19T12:30:19.512Z</time></trkpt><trkpt lat="42.0839611" lon="11.8621722"><ele>114.0</ele><time>2026-04-19T12:30:21.513Z</time></trkpt><trkpt lat="42.0840358" lon="11.8621136"><ele>114.0</ele><time>2026-04-19T12:30:24.51Z</time></trkpt><trkpt lat="42.0840948" lon="11.8620523"><ele>113.99999999999999</ele><time>2026-04-19T12:30:27.513Z</time></trkpt><trkpt lat="42.0841632" lon="11.8620288"><ele>114.0</ele><time>2026-04-19T12:30:31.514Z</time></trkpt><trkpt lat="42.0842187" lon="11.8620926"><ele>114.0</ele><time>2026-04-19T12:30:34.51Z</time></trkpt><trkpt lat="42.084287" lon="11.8621105"><ele>113.99999999999999</ele><time>2026-04-19T12:30:37.512Z</time></trkpt><trkpt lat="42.0843612" lon="11.8621126"><ele>114.0</ele><time>2026-04-19T12:30:40.511Z</time></trkpt><trkpt lat="42.084424" lon="11.8621381"><ele>114.0</ele><time>2026-04-19T12:30:43.512Z</time></trkpt><trkpt lat="42.0844896" lon="11.8621683"><ele>115.5</ele><time>2026-04-19T12:30:46.514Z</time></trkpt><trkpt lat="42.0845627" lon="11.8622024"><ele>117.0</ele><time>2026-04-19T12:30:49.51Z</time></trkpt><trkpt lat="42.0846293" lon="11.8622437"><ele>118.5</ele><time>2026-04-19T12:30:52.51Z</time></trkpt><trkpt lat="42.0846974" lon="11.8622619"><ele>120.0</ele><time>2026-04-19T12:30:56.513Z</time></trkpt><trkpt lat="42.0847554" lon="11.8623058"><ele>121.5</ele><time>2026-04-19T12:30:58.511Z</time></trkpt><trkpt lat="42.0848091" lon="11.8623777"><ele>123.0</ele><time>2026-04-19T12:31:00.51Z</time></trkpt><trkpt lat="42.0849017" lon="11.862393"><ele>124.2857142857143</ele><time>2026-04-19T12:31:03.51Z</time></trkpt><trkpt lat="42.0849642" lon="11.8623817"><ele>125.57142857142858</ele><time>2026-04-19T12:31:05.511Z</time></trkpt><trkpt lat="42.0850323" lon="11.8623805"><ele>126.85714285714286</ele><time>2026-04-19T12:31:07.512Z</time></trkpt><trkpt lat="42.0851106" lon="11.8624071"><ele>128.14285714285717</ele><time>2026-04-19T12:31:10.508Z</time></trkpt><trkpt lat="42.0851704" lon="11.86244"><ele>129.42857142857144</ele><time>2026-04-19T12:31:12.507Z</time></trkpt><trkpt lat="42.0852484" lon="11.8624558"><ele>130.71428571428572</ele><time>2026-04-19T12:31:15.51Z</time></trkpt><trkpt lat="42.0853315" lon="11.8624967"><ele>132.0</ele><time>2026-04-19T12:31:18.511Z</time></trkpt><trkpt lat="42.0854075" lon="11.8625628"><ele>131.5</ele><time>2026-04-19T12:31:21.51Z</time></trkpt><trkpt lat="42.0854541" lon="11.8626203"><ele>131.0</ele><time>2026-04-19T12:31:23.512Z</time></trkpt><trkpt lat="42.0854856" lon="11.8626946"><ele>130.5</ele><time>2026-04-19T12:31:25.512Z</time></trkpt><trkpt lat="42.0855538" lon="11.8627764"><ele>130.0</ele><time>2026-04-19T12:31:28.514Z</time></trkpt><trkpt lat="42.0856493" lon="11.8627777"><ele>129.5</ele><time>2026-04-19T12:31:31.508Z</time></trkpt><trkpt lat="42.0857451" lon="11.862769"><ele>129.0</ele><time>2026-04-19T12:31:34.51Z</time></trkpt><trkpt lat="42.0858237" lon="11.8627666"><ele>130.28571428571428</ele><time>2026-04-19T12:31:37.512Z</time></trkpt><trkpt lat="42.0859127" lon="11.8627687"><ele>131.57142857142856</ele><time>2026-04-19T12:31:40.514Z</time></trkpt><trkpt lat="42.086001" lon="11.8627772"><ele>132.85714285714286</ele><time>2026-04-19T12:31:43.511Z</time></trkpt><trkpt lat="42.0860645" lon="11.8627622"><ele>134.14285714285714</ele><time>2026-04-19T12:31:46.513Z</time></trkpt><trkpt lat="42.0861222" lon="11.862712"><ele>135.42857142857144</ele><time>2026-04-19T12:31:49.508Z</time></trkpt><trkpt lat="42.0861895" lon="11.8626812"><ele>136.71428571428572</ele><time>2026-04-19T12:31:52.508Z</time></trkpt><trkpt lat="42.0861652" lon="11.8626028"><ele>138.0</ele><time>2026-04-19T12:33:10.51Z</time></trkpt><trkpt lat="42.0861915" lon="11.8625119"><ele>138.66666666666666</ele><time>2026-04-19T12:33:14.51Z</time></trkpt><trkpt lat="42.0862286" lon="11.8624431"><ele>139.33333333333334</ele><time>2026-04-19T12:33:17.513Z</time></trkpt><trkpt lat="42.0862487" lon="11.8623494"><ele>140.0</ele><time>2026-04-19T12:33:21.512Z</time></trkpt><trkpt lat="42.0862626" lon="11.8622439"><ele>140.66666666666669</ele><time>2026-04-19T12:33:25.51Z</time></trkpt><trkpt lat="42.0862725" lon="11.8621336"><ele>141.33333333333334</ele><time>2026-04-19T12:33:29.516Z</time></trkpt><trkpt lat="42.0862809" lon="11.8620361"><ele>142.0</ele><time>2026-04-19T12:33:33.512Z</time></trkpt><trkpt lat="42.086292" lon="11.8619294"><ele>142.0</ele><time>2026-04-19T12:33:37.512Z</time></trkpt><trkpt lat="42.0862836" lon="11.8618398"><ele>142.0</ele><time>2026-04-19T12:33:40.512Z</time></trkpt><trkpt lat="42.0862559" lon="11.8617313"><ele>142.0</ele><time>2026-04-19T12:33:43.512Z</time></trkpt><trkpt lat="42.086219" lon="11.8616214"><ele>142.0</ele><time>2026-04-19T12:33:46.511Z</time></trkpt><trkpt lat="42.0861706" lon="11.8615157"><ele>142.0</ele><time>2026-04-19T12:33:49.511Z</time></trkpt><trkpt lat="42.0861166" lon="11.8614259"><ele>142.0</ele><time>2026-04-19T12:33:52.508Z</time></trkpt><trkpt lat="42.0860505" lon="11.8613591"><ele>143.5</ele><time>2026-04-19T12:33:55.513Z</time></trkpt><trkpt lat="42.0859929" lon="11.8612659"><ele>145.0</ele><time>2026-04-19T12:33:58.511Z</time></trkpt><trkpt lat="42.0859478" lon="11.8611759"><ele>146.5</ele><time>2026-04-19T12:34:01.512Z</time></trkpt><trkpt lat="42.0859016" lon="11.8611026"><ele>148.0</ele><time>2026-04-19T12:34:04.513Z</time></trkpt><trkpt lat="42.0858448" lon="11.8610245"><ele>149.5</ele><time>2026-04-19T12:34:07.509Z</time></trkpt><trkpt lat="42.0857917" lon="11.8609435"><ele>151.0</ele><time>2026-04-19T12:34:10.507Z</time></trkpt><trkpt lat="42.085736" lon="11.8608733"><ele>151.71428571428572</ele><time>2026-04-19T12:34:13.51Z</time></trkpt><trkpt lat="42.0856834" lon="11.8607942"><ele>152.42857142857144</ele><time>2026-04-19T12:34:16.51Z</time></trkpt><trkpt lat="42.0856481" lon="11.8607208"><ele>153.14285714285717</ele><time>2026-04-19T12:34:19.51Z</time></trkpt><trkpt lat="42.0856212" lon="11.8606177"><ele>153.85714285714286</ele><time>2026-04-19T12:34:23.513Z</time></trkpt><trkpt lat="42.0855699" lon="11.8605518"><ele>154.57142857142856</ele><time>2026-04-19T12:34:26.512Z</time></trkpt><trkpt lat="42.0855163" lon="11.8604736"><ele>155.2857142857143</ele><time>2026-04-19T12:34:30.507Z</time></trkpt><trkpt lat="42.0854701" lon="11.8604145"><ele>156.0</ele><time>2026-04-19T12:34:33.511Z</time></trkpt><trkpt lat="42.0854212" lon="11.860357"><ele>156.0</ele><time>2026-04-19T12:34:36.509Z</time></trkpt><trkpt lat="42.0853675" lon="11.8602968"><ele>156.0</ele><time>2026-04-19T12:34:40.511Z</time></trkpt><trkpt lat="42.0852911" lon="11.8602554"><ele>156.0</ele><time>2026-04-19T12:34:44.512Z</time></trkpt><trkpt lat="42.085214" lon="11.8602309"><ele>156.0</ele><time>2026-04-19T12:34:48.51Z</time></trkpt><trkpt lat="42.0851457" lon="11.8602137"><ele>156.0</ele><time>2026-04-19T12:34:51.508Z</time></trkpt><trkpt lat="42.0850713" lon="11.8601987"><ele>156.0</ele><time>2026-04-19T12:34:54.512Z</time></trkpt><trkpt lat="42.0849958" lon="11.8601946"><ele>154.0</ele><time>2026-04-19T12:34:57.511Z</time></trkpt><trkpt lat="42.0849112" lon="11.8601864"><ele>152.0</ele><time>2026-04-19T12:35:00.51Z</time></trkpt><trkpt lat="42.0848257" lon="11.860167"><ele>150.0</ele><time>2026-04-19T12:35:03.509Z</time></trkpt><trkpt lat="42.0847453" lon="11.8601421"><ele>148.0</ele><time>2026-04-19T12:35:06.513Z</time></trkpt><trkpt lat="42.0846708" lon="11.860123"><ele>146.0</ele><time>2026-04-19T12:35:09.512Z</time></trkpt><trkpt lat="42.0845952" lon="11.8600963"><ele>144.0</ele><time>2026-04-19T12:35:12.508Z</time></trkpt><trkpt lat="42.0845208" lon="11.8600457"><ele>147.42857142857144</ele><time>2026-04-19T12:35:15.513Z</time></trkpt><trkpt lat="42.0844521" lon="11.8599926"><ele>150.85714285714286</ele><time>2026-04-19T12:35:18.514Z</time></trkpt><trkpt lat="42.0844343" lon="11.8598989"><ele>154.28571428571428</ele><time>2026-04-19T12:35:21.508Z</time></trkpt><trkpt lat="42.0844501" lon="11.8598009"><ele>157.71428571428572</ele><time>2026-04-19T12:35:24.511Z</time></trkpt><trkpt lat="42.0844396" lon="11.8597121"><ele>161.14285714285714</ele><time>2026-04-19T12:35:27.515Z</time></trkpt><trkpt lat="42.0844255" lon="11.8596214"><ele>164.57142857142858</ele><time>2026-04-19T12:35:30.508Z</time></trkpt><trkpt lat="42.0844156" lon="11.8595323"><ele>168.0</ele><time>2026-04-19T12:35:33.511Z</time></trkpt><trkpt lat="42.0843946" lon="11.8594472"><ele>168.0</ele><time>2026-04-19T12:35:36.511Z</time></trkpt><trkpt lat="42.0843685" lon="11.8593464"><ele>168.0</ele><time>2026-04-19T12:35:40.517Z</time></trkpt><trkpt lat="42.0843345" lon="11.8592664"><ele>168.0</ele><time>2026-04-19T12:35:43.508Z</time></trkpt><trkpt lat="42.0842887" lon="11.8591973"><ele>168.0</ele><time>2026-04-19T12:35:46.509Z</time></trkpt><trkpt lat="42.0842463" lon="11.8591179"><ele>168.0</ele><time>2026-04-19T12:35:49.51Z</time></trkpt><trkpt lat="42.0841931" lon="11.8590469"><ele>168.0</ele><time>2026-04-19T12:35:52.509Z</time></trkpt><trkpt lat="42.0841392" lon="11.8589815"><ele>168.0</ele><time>2026-04-19T12:35:55.509Z</time></trkpt><trkpt lat="42.0840822" lon="11.8589208"><ele>167.28571428571428</ele><time>2026-04-19T12:35:58.511Z</time></trkpt><trkpt lat="42.0840254" lon="11.8588661"><ele>166.57142857142856</ele><time>2026-04-19T12:36:01.514Z</time></trkpt><trkpt lat="42.083972" lon="11.8587924"><ele>165.85714285714286</ele><time>2026-04-19T12:36:04.514Z</time></trkpt><trkpt lat="42.083928" lon="11.8587094"><ele>165.14285714285714</ele><time>2026-04-19T12:36:07.506Z</time></trkpt><trkpt lat="42.0838989" lon="11.8586295"><ele>164.42857142857142</ele><time>2026-04-19T12:36:10.506Z</time></trkpt><trkpt lat="42.0839101" lon="11.858535"><ele>163.71428571428572</ele><time>2026-04-19T12:36:13.509Z</time></trkpt><trkpt lat="42.0839352" lon="11.8584509"><ele>163.0</ele><time>2026-04-19T12:36:16.511Z</time></trkpt><trkpt lat="42.0839734" lon="11.85837"><ele>164.57142857142858</ele><time>2026-04-19T12:36:19.507Z</time></trkpt><trkpt lat="42.0840036" lon="11.8582887"><ele>166.14285714285714</ele><time>2026-04-19T12:36:22.507Z</time></trkpt><trkpt lat="42.0840378" lon="11.8582083"><ele>167.71428571428572</ele><time>2026-04-19T12:36:25.511Z</time></trkpt><trkpt lat="42.0840843" lon="11.8581415"><ele>169.28571428571428</ele><time>2026-04-19T12:36:28.512Z</time></trkpt><trkpt lat="42.0841273" lon="11.8580775"><ele>170.85714285714286</ele><time>2026-04-19T12:36:31.506Z</time></trkpt><trkpt lat="42.0841785" lon="11.8580122"><ele>172.42857142857142</ele><time>2026-04-19T12:36:34.512Z</time></trkpt><trkpt lat="42.0842246" lon="11.8579323"><ele>174.0</ele><time>2026-04-19T12:36:37.51Z</time></trkpt><trkpt lat="42.084268" lon="11.8578447"><ele>178.33333333333334</ele><time>2026-04-19T12:36:40.513Z</time></trkpt><trkpt lat="42.0843121" lon="11.8577516"><ele>182.66666666666669</ele><time>2026-04-19T12:36:43.511Z</time></trkpt><trkpt lat="42.0843535" lon="11.8576715"><ele>187.0</ele><time>2026-04-19T12:36:46.512Z</time></trkpt><trkpt lat="42.0843717" lon="11.8575565"><ele>191.33333333333334</ele><time>2026-04-19T12:36:49.51Z</time></trkpt><trkpt lat="42.0843249" lon="11.857474"><ele>195.66666666666669</ele><time>2026-04-19T12:36:51.508Z</time></trkpt><trkpt lat="42.0842633" lon="11.857455"><ele>200.0</ele><time>2026-04-19T12:36:53.509Z</time></trkpt><trkpt lat="42.0841838" lon="11.8574541"><ele>201.16666666666669</ele><time>2026-04-19T12:36:56.514Z</time></trkpt><trkpt lat="42.0841095" lon="11.8574448"><ele>202.33333333333334</ele><time>2026-04-19T12:36:59.507Z</time></trkpt><trkpt lat="42.0840377" lon="11.8574071"><ele>203.5</ele><time>2026-04-19T12:37:02.512Z</time></trkpt><trkpt lat="42.0839498" lon="11.8573961"><ele>204.66666666666669</ele><time>2026-04-19T12:37:05.514Z</time></trkpt><trkpt lat="42.0838599" lon="11.8573713"><ele>205.83333333333334</ele><time>2026-04-19T12:37:08.51Z</time></trkpt><trkpt lat="42.0837723" lon="11.8573366"><ele>207.0</ele><time>2026-04-19T12:37:11.509Z</time></trkpt><trkpt lat="42.083687" lon="11.8573269"><ele>204.66666666666666</ele><time>2026-04-19T12:37:14.511Z</time></trkpt><trkpt lat="42.0836043" lon="11.8573148"><ele>202.33333333333331</ele><time>2026-04-19T12:37:17.515Z</time></trkpt><trkpt lat="42.083522" lon="11.857272"><ele>200.0</ele><time>2026-04-19T12:37:20.511Z</time></trkpt><trkpt lat="42.0834491" lon="11.8572164"><ele>197.66666666666666</ele><time>2026-04-19T12:37:23.524Z</time></trkpt><trkpt lat="42.0833796" lon="11.8571596"><ele>195.33333333333331</ele><time>2026-04-19T12:37:26.512Z</time></trkpt><trkpt lat="42.0833173" lon="11.857104"><ele>193.0</ele><time>2026-04-19T12:37:29.51Z</time></trkpt><trkpt lat="42.0832435" lon="11.8570481"><ele>192.99999999999997</ele><time>2026-04-19T12:37:32.509Z</time></trkpt><trkpt lat="42.0831748" lon="11.8569866"><ele>193.0</ele><time>2026-04-19T12:37:35.509Z</time></trkpt><trkpt lat="42.0831136" lon="11.856917"><ele>193.0</ele><time>2026-04-19T12:37:38.512Z</time></trkpt><trkpt lat="42.0830523" lon="11.8568541"><ele>193.0</ele><time>2026-04-19T12:37:41.511Z</time></trkpt><trkpt lat="42.0829873" lon="11.8568016"><ele>192.99999999999997</ele><time>2026-04-19T12:37:44.512Z</time></trkpt><trkpt lat="42.0829346" lon="11.8567301"><ele>193.0</ele><time>2026-04-19T12:37:47.507Z</time></trkpt><trkpt lat="42.0828964" lon="11.8566464"><ele>193.00000000000003</ele><time>2026-04-19T12:37:50.51Z</time></trkpt><trkpt lat="42.082872" lon="11.8565599"><ele>193.0</ele><time>2026-04-19T12:37:53.51Z</time></trkpt><trkpt lat="42.0828424" lon="11.8564699"><ele>193.0</ele><time>2026-04-19T12:37:56.511Z</time></trkpt><trkpt lat="42.0828142" lon="11.8563751"><ele>193.0</ele><time>2026-04-19T12:37:59.51Z</time></trkpt><trkpt lat="42.0827949" lon="11.8562823"><ele>193.0</ele><time>2026-04-19T12:38:02.508Z</time></trkpt><trkpt lat="42.0827812" lon="11.8561866"><ele>193.00000000000003</ele><time>2026-04-19T12:38:05.511Z</time></trkpt><trkpt lat="42.0827815" lon="11.8560858"><ele>193.0</ele><time>2026-04-19T12:38:08.51Z</time></trkpt><trkpt lat="42.0827878" lon="11.855992"><ele>193.85714285714286</ele><time>2026-04-19T12:38:11.509Z</time></trkpt><trkpt lat="42.0828037" lon="11.8558936"><ele>194.71428571428572</ele><time>2026-04-19T12:38:14.508Z</time></trkpt><trkpt lat="42.0828398" lon="11.8557979"><ele>195.57142857142856</ele><time>2026-04-19T12:38:17.511Z</time></trkpt><trkpt lat="42.0828878" lon="11.8557197"><ele>196.42857142857144</ele><time>2026-04-19T12:38:20.51Z</time></trkpt><trkpt lat="42.082914" lon="11.8556312"><ele>197.28571428571428</ele><time>2026-04-19T12:38:23.512Z</time></trkpt><trkpt lat="42.0829493" lon="11.8555468"><ele>198.14285714285714</ele><time>2026-04-19T12:38:26.508Z</time></trkpt><trkpt lat="42.0829892" lon="11.855462"><ele>199.0</ele><time>2026-04-19T12:38:29.51Z</time></trkpt><trkpt lat="42.0830259" lon="11.8553551"><ele>198.99999999999997</ele><time>2026-04-19T12:38:32.508Z</time></trkpt><trkpt lat="42.0830495" lon="11.8552762"><ele>199.0</ele><time>2026-04-19T12:38:34.511Z</time></trkpt><trkpt lat="42.0830945" lon="11.8551631"><ele>199.0</ele><time>2026-04-19T12:38:37.506Z</time></trkpt><trkpt lat="42.0831304" lon="11.8550504"><ele>199.0</ele><time>2026-04-19T12:38:40.515Z</time></trkpt><trkpt lat="42.0831523" lon="11.8549692"><ele>198.99999999999997</ele><time>2026-04-19T12:38:42.512Z</time></trkpt><trkpt lat="42.0831633" lon="11.8548851"><ele>199.0</ele><time>2026-04-19T12:38:44.51Z</time></trkpt><trkpt lat="42.0831649" lon="11.8547584"><ele>199.83333333333331</ele><time>2026-04-19T12:38:47.508Z</time></trkpt><trkpt lat="42.0831597" lon="11.8546726"><ele>200.66666666666666</ele><time>2026-04-19T12:38:49.509Z</time></trkpt><trkpt lat="42.0831546" lon="11.8545873"><ele>201.5</ele><time>2026-04-19T12:38:51.508Z</time></trkpt><trkpt lat="42.0831543" lon="11.8544703"><ele>202.33333333333331</ele><time>2026-04-19T12:38:54.511Z</time></trkpt><trkpt lat="42.0831496" lon="11.8543652"><ele>203.16666666666666</ele><time>2026-04-19T12:38:57.51Z</time></trkpt><trkpt lat="42.0831667" lon="11.8542558"><ele>204.0</ele><time>2026-04-19T12:39:00.512Z</time></trkpt><trkpt lat="42.0831763" lon="11.8541538"><ele>205.83333333333334</ele><time>2026-04-19T12:39:03.512Z</time></trkpt><trkpt lat="42.0831802" lon="11.8540638"><ele>207.66666666666669</ele><time>2026-04-19T12:39:06.511Z</time></trkpt><trkpt lat="42.0831866" lon="11.8539513"><ele>209.5</ele><time>2026-04-19T12:39:10.506Z</time></trkpt><trkpt lat="42.0832211" lon="11.8538404"><ele>211.33333333333334</ele><time>2026-04-19T12:39:13.515Z</time></trkpt><trkpt lat="42.0832462" lon="11.8537448"><ele>213.16666666666669</ele><time>2026-04-19T12:39:15.509Z</time></trkpt><trkpt lat="42.0832686" lon="11.8536284"><ele>215.0</ele><time>2026-04-19T12:39:17.511Z</time></trkpt><trkpt lat="42.0832824" lon="11.8535252"><ele>216.0</ele><time>2026-04-19T12:39:19.511Z</time></trkpt><trkpt lat="42.0832674" lon="11.8534212"><ele>217.0</ele><time>2026-04-19T12:39:22.51Z</time></trkpt><trkpt lat="42.083252" lon="11.8533354"><ele>218.0</ele><time>2026-04-19T12:39:49.51Z</time></trkpt><trkpt lat="42.0832601" lon="11.8532496"><ele>219.0</ele><time>2026-04-19T12:39:53.512Z</time></trkpt><trkpt lat="42.083274" lon="11.8531392"><ele>220.0</ele><time>2026-04-19T12:39:57.51Z</time></trkpt><trkpt lat="42.0832485" lon="11.853043"><ele>221.0</ele><time>2026-04-19T12:40:01.513Z</time></trkpt><trkpt lat="42.0832033" lon="11.8529584"><ele>222.0</ele><time>2026-04-19T12:40:05.511Z</time></trkpt><trkpt lat="42.0831659" lon="11.8528809"><ele>222.0</ele><time>2026-04-19T12:40:08.511Z</time></trkpt><trkpt lat="42.0831256" lon="11.8527987"><ele>222.0</ele><time>2026-04-19T12:40:11.509Z</time></trkpt><trkpt lat="42.0830836" lon="11.852711"><ele>222.0</ele><time>2026-04-19T12:40:14.512Z</time></trkpt><trkpt lat="42.083041" lon="11.8526184"><ele>222.0</ele><time>2026-04-19T12:40:17.512Z</time></trkpt><trkpt lat="42.0830033" lon="11.8525218"><ele>222.0</ele><time>2026-04-19T12:40:20.511Z</time></trkpt><trkpt lat="42.0829692" lon="11.8524241"><ele>222.0</ele><time>2026-04-19T12:40:23.508Z</time></trkpt><trkpt lat="42.082925" lon="11.852332"><ele>222.5</ele><time>2026-04-19T12:40:26.511Z</time></trkpt><trkpt lat="42.0828747" lon="11.852243"><ele>223.0</ele><time>2026-04-19T12:40:29.512Z</time></trkpt><trkpt lat="42.0828302" lon="11.8521523"><ele>223.5</ele><time>2026-04-19T12:40:32.509Z</time></trkpt><trkpt lat="42.0827786" lon="11.8520578"><ele>224.0</ele><time>2026-04-19T12:40:35.51Z</time></trkpt><trkpt lat="42.082734" lon="11.8519634"><ele>224.5</ele><time>2026-04-19T12:40:38.509Z</time></trkpt><trkpt lat="42.0826835" lon="11.851866"><ele>225.0</ele><time>2026-04-19T12:40:41.509Z</time></trkpt><trkpt lat="42.0826317" lon="11.8517669"><ele>225.0</ele><time>2026-04-19T12:40:44.511Z</time></trkpt><trkpt lat="42.0825739" lon="11.8516691"><ele>225.0</ele><time>2026-04-19T12:40:47.51Z</time></trkpt><trkpt lat="42.0825145" lon="11.8515815"><ele>225.0</ele><time>2026-04-19T12:40:50.507Z</time></trkpt><trkpt lat="42.0824514" lon="11.8515011"><ele>225.0</ele><time>2026-04-19T12:40:53.512Z</time></trkpt><trkpt lat="42.0824044" lon="11.851444"><ele>225.0</ele><time>2026-04-19T12:40:55.51Z</time></trkpt><trkpt lat="42.0823264" lon="11.8513755"><ele>225.0</ele><time>2026-04-19T12:40:58.512Z</time></trkpt><trkpt lat="42.0822689" lon="11.8513277"><ele>223.33333333333334</ele><time>2026-04-19T12:41:00.512Z</time></trkpt><trkpt lat="42.0822115" lon="11.8512824"><ele>221.66666666666669</ele><time>2026-04-19T12:41:02.516Z</time></trkpt><trkpt lat="42.082155" lon="11.8512399"><ele>220.0</ele><time>2026-04-19T12:41:04.51Z</time></trkpt><trkpt lat="42.0820799" lon="11.8511755"><ele>218.33333333333334</ele><time>2026-04-19T12:41:07.512Z</time></trkpt><trkpt lat="42.0820653" lon="11.851067"><ele>216.66666666666669</ele><time>2026-04-19T12:41:10.508Z</time></trkpt><trkpt lat="42.0821408" lon="11.851031"><ele>215.0</ele><time>2026-04-19T12:41:13.516Z</time></trkpt><trkpt lat="42.0822247" lon="11.8510597"><ele>215.00000000000003</ele><time>2026-04-19T12:41:16.511Z</time></trkpt><trkpt lat="42.0823074" lon="11.8510928"><ele>215.0</ele><time>2026-04-19T12:41:19.51Z</time></trkpt><trkpt lat="42.0823843" lon="11.8511258"><ele>215.0</ele><time>2026-04-19T12:41:22.509Z</time></trkpt><trkpt lat="42.0824662" lon="11.8511551"><ele>215.0</ele><time>2026-04-19T12:41:25.51Z</time></trkpt><trkpt lat="42.0825405" lon="11.8511836"><ele>215.00000000000003</ele><time>2026-04-19T12:41:28.509Z</time></trkpt><trkpt lat="42.0826214" lon="11.8512184"><ele>215.0</ele><time>2026-04-19T12:41:31.51Z</time></trkpt><trkpt lat="42.082701" lon="11.8512506"><ele>216.66666666666669</ele><time>2026-04-19T12:41:34.512Z</time></trkpt><trkpt lat="42.0827822" lon="11.851277"><ele>218.33333333333334</ele><time>2026-04-19T12:41:37.512Z</time></trkpt><trkpt lat="42.0828678" lon="11.851301"><ele>220.0</ele><time>2026-04-19T12:41:40.517Z</time></trkpt><trkpt lat="42.0829479" lon="11.8513307"><ele>221.66666666666669</ele><time>2026-04-19T12:41:43.513Z</time></trkpt><trkpt lat="42.0830274" lon="11.8513575"><ele>223.33333333333334</ele><time>2026-04-19T12:41:46.512Z</time></trkpt><trkpt lat="42.0831083" lon="11.8513936"><ele>225.0</ele><time>2026-04-19T12:41:49.511Z</time></trkpt><trkpt lat="42.0831892" lon="11.8514336"><ele>226.33333333333334</ele><time>2026-04-19T12:41:52.507Z</time></trkpt><trkpt lat="42.0832668" lon="11.8514791"><ele>227.66666666666669</ele><time>2026-04-19T12:41:55.508Z</time></trkpt><trkpt lat="42.083339" lon="11.8515348"><ele>229.0</ele><time>2026-04-19T12:41:58.584Z</time></trkpt><trkpt lat="42.0834176" lon="11.8515981"><ele>230.33333333333334</ele><time>2026-04-19T12:42:01.512Z</time></trkpt><trkpt lat="42.0834718" lon="11.8516487"><ele>231.66666666666669</ele><time>2026-04-19T12:42:03.511Z</time></trkpt><trkpt lat="42.083539" lon="11.8516945"><ele>233.0</ele><time>2026-04-19T12:42:05.509Z</time></trkpt><trkpt lat="42.0836008" lon="11.8517398"><ele>232.28571428571428</ele><time>2026-04-19T12:42:07.511Z</time></trkpt><trkpt lat="42.0836517" lon="11.8517946"><ele>231.57142857142856</ele><time>2026-04-19T12:42:09.51Z</time></trkpt><trkpt lat="42.0837331" lon="11.851856"><ele>230.85714285714283</ele><time>2026-04-19T12:42:12.508Z</time></trkpt><trkpt lat="42.0837893" lon="11.8519032"><ele>230.14285714285714</ele><time>2026-04-19T12:42:14.508Z</time></trkpt><trkpt lat="42.0838396" lon="11.8519544"><ele>229.4285714285714</ele><time>2026-04-19T12:42:16.509Z</time></trkpt><trkpt lat="42.0838972" lon="11.8520046"><ele>228.7142857142857</ele><time>2026-04-19T12:42:18.515Z</time></trkpt><trkpt lat="42.0839501" lon="11.8520507"><ele>228.0</ele><time>2026-04-19T12:42:20.511Z</time></trkpt><trkpt lat="42.0840039" lon="11.8520991"><ele>228.0</ele><time>2026-04-19T12:42:22.51Z</time></trkpt><trkpt lat="42.0840796" lon="11.852166"><ele>228.0</ele><time>2026-04-19T12:42:25.511Z</time></trkpt><trkpt lat="42.0841629" lon="11.8522243"><ele>228.0</ele><time>2026-04-19T12:42:28.51Z</time></trkpt><trkpt lat="42.0842203" lon="11.8522607"><ele>228.0</ele><time>2026-04-19T12:42:30.508Z</time></trkpt><trkpt lat="42.0842812" lon="11.8522896"><ele>228.0</ele><time>2026-04-19T12:42:32.509Z</time></trkpt><trkpt lat="42.0843692" lon="11.8523308"><ele>228.0</ele><time>2026-04-19T12:42:35.512Z</time></trkpt><trkpt lat="42.0844466" lon="11.8523744"><ele>229.16666666666666</ele><time>2026-04-19T12:42:38.509Z</time></trkpt><trkpt lat="42.0845185" lon="11.8524196"><ele>230.33333333333331</ele><time>2026-04-19T12:42:41.513Z</time></trkpt><trkpt lat="42.0845911" lon="11.8524675"><ele>231.5</ele><time>2026-04-19T12:42:44.512Z</time></trkpt><trkpt lat="42.0846614" lon="11.8525329"><ele>232.66666666666666</ele><time>2026-04-19T12:42:47.513Z</time></trkpt><trkpt lat="42.0847369" lon="11.8525825"><ele>233.83333333333331</ele><time>2026-04-19T12:42:50.509Z</time></trkpt><trkpt lat="42.0848082" lon="11.852625"><ele>235.0</ele><time>2026-04-19T12:42:53.513Z</time></trkpt><trkpt lat="42.0848844" lon="11.8526689"><ele>236.66666666666666</ele><time>2026-04-19T12:42:56.51Z</time></trkpt><trkpt lat="42.0849537" lon="11.8527069"><ele>238.33333333333331</ele><time>2026-04-19T12:42:59.511Z</time></trkpt><trkpt lat="42.0850305" lon="11.8527308"><ele>240.0</ele><time>2026-04-19T12:43:02.512Z</time></trkpt><trkpt lat="42.0851066" lon="11.8527581"><ele>241.66666666666669</ele><time>2026-04-19T12:43:05.512Z</time></trkpt><trkpt lat="42.0851809" lon="11.8527725"><ele>243.33333333333334</ele><time>2026-04-19T12:43:08.51Z</time></trkpt><trkpt lat="42.0852565" lon="11.8527699"><ele>245.0</ele><time>2026-04-19T12:43:11.508Z</time></trkpt><trkpt lat="42.085335" lon="11.8527376"><ele>245.0</ele><time>2026-04-19T12:43:14.51Z</time></trkpt><trkpt lat="42.0854085" lon="11.8526923"><ele>245.0</ele><time>2026-04-19T12:43:17.51Z</time></trkpt><trkpt lat="42.0854819" lon="11.8526367"><ele>245.0</ele><time>2026-04-19T12:43:20.511Z</time></trkpt><trkpt lat="42.0855458" lon="11.8525822"><ele>245.0</ele><time>2026-04-19T12:43:23.507Z</time></trkpt><trkpt lat="42.0856018" lon="11.8525343"><ele>245.0</ele><time>2026-04-19T12:43:26.512Z</time></trkpt><trkpt lat="42.0856636" lon="11.8524965"><ele>245.0</ele><time>2026-04-19T12:43:29.509Z</time></trkpt><trkpt lat="42.0857297" lon="11.8524536"><ele>245.0</ele><time>2026-04-19T12:43:32.507Z</time></trkpt><trkpt lat="42.0857944" lon="11.8524067"><ele>246.28571428571428</ele><time>2026-04-19T12:43:35.507Z</time></trkpt><trkpt lat="42.0858581" lon="11.8523685"><ele>247.57142857142856</ele><time>2026-04-19T12:43:38.512Z</time></trkpt><trkpt lat="42.0859285" lon="11.8523399"><ele>248.85714285714286</ele><time>2026-04-19T12:43:41.511Z</time></trkpt><trkpt lat="42.085999" lon="11.8523143"><ele>250.14285714285714</ele><time>2026-04-19T12:43:44.511Z</time></trkpt><trkpt lat="42.0860684" lon="11.8522898"><ele>251.42857142857142</ele><time>2026-04-19T12:43:47.513Z</time></trkpt><trkpt lat="42.0861361" lon="11.8522567"><ele>252.71428571428572</ele><time>2026-04-19T12:43:50.51Z</time></trkpt><trkpt lat="42.0862109" lon="11.8522133"><ele>254.0</ele><time>2026-04-19T12:43:54.508Z</time></trkpt><trkpt lat="42.0862736" lon="11.8521869"><ele>254.0</ele><time>2026-04-19T12:43:57.512Z</time></trkpt><trkpt lat="42.0863363" lon="11.8521543"><ele>254.0</ele><time>2026-04-19T12:44:00.512Z</time></trkpt><trkpt lat="42.0864011" lon="11.8521182"><ele>254.0</ele><time>2026-04-19T12:44:03.511Z</time></trkpt><trkpt lat="42.0864617" lon="11.8520883"><ele>254.0</ele><time>2026-04-19T12:44:06.511Z</time></trkpt><trkpt lat="42.0865418" lon="11.8520563"><ele>254.0</ele><time>2026-04-19T12:44:10.51Z</time></trkpt><trkpt lat="42.0866016" lon="11.8520287"><ele>254.0</ele><time>2026-04-19T12:44:13.511Z</time></trkpt><trkpt lat="42.0866636" lon="11.8520069"><ele>254.0</ele><time>2026-04-19T12:44:16.512Z</time></trkpt><trkpt lat="42.0867258" lon="11.8519864"><ele>255.42857142857144</ele><time>2026-04-19T12:44:19.511Z</time></trkpt><trkpt lat="42.0867883" lon="11.8519577"><ele>256.85714285714283</ele><time>2026-04-19T12:44:22.512Z</time></trkpt><trkpt lat="42.0868499" lon="11.8519254"><ele>258.2857142857143</ele><time>2026-04-19T12:44:25.511Z</time></trkpt><trkpt lat="42.0869104" lon="11.8518943"><ele>259.7142857142857</ele><time>2026-04-19T12:44:28.511Z</time></trkpt><trkpt lat="42.086976" lon="11.8518679"><ele>261.14285714285717</ele><time>2026-04-19T12:44:31.507Z</time></trkpt><trkpt lat="42.0870468" lon="11.8518435"><ele>262.57142857142856</ele><time>2026-04-19T12:44:34.512Z</time></trkpt><trkpt lat="42.0871183" lon="11.8518099"><ele>264.0</ele><time>2026-04-19T12:44:37.512Z</time></trkpt><trkpt lat="42.0871835" lon="11.8517754"><ele>265.0</ele><time>2026-04-19T12:44:40.512Z</time></trkpt><trkpt lat="42.0872502" lon="11.8517452"><ele>266.0</ele><time>2026-04-19T12:44:43.512Z</time></trkpt><trkpt lat="42.0873202" lon="11.8517083"><ele>267.0</ele><time>2026-04-19T12:44:46.512Z</time></trkpt><trkpt lat="42.0873858" lon="11.851663"><ele>268.0</ele><time>2026-04-19T12:44:49.512Z</time></trkpt><trkpt lat="42.0874533" lon="11.8516108"><ele>269.0</ele><time>2026-04-19T12:44:52.507Z</time></trkpt><trkpt lat="42.0875185" lon="11.851577"><ele>270.0</ele><time>2026-04-19T12:44:55.508Z</time></trkpt><trkpt lat="42.0875867" lon="11.8515461"><ele>271.0</ele><time>2026-04-19T12:44:58.519Z</time></trkpt><trkpt lat="42.0876559" lon="11.8515188"><ele>272.1428571428571</ele><time>2026-04-19T12:45:01.509Z</time></trkpt><trkpt lat="42.0877221" lon="11.8515035"><ele>273.2857142857143</ele><time>2026-04-19T12:45:04.512Z</time></trkpt><trkpt lat="42.0877898" lon="11.8515037"><ele>274.42857142857144</ele><time>2026-04-19T12:45:07.51Z</time></trkpt><trkpt lat="42.0878607" lon="11.8515005"><ele>275.57142857142856</ele><time>2026-04-19T12:45:10.511Z</time></trkpt><trkpt lat="42.0879255" lon="11.8514927"><ele>276.7142857142857</ele><time>2026-04-19T12:45:13.512Z</time></trkpt><trkpt lat="42.0879905" lon="11.8514862"><ele>277.85714285714283</ele><time>2026-04-19T12:45:16.51Z</time></trkpt><trkpt lat="42.088055" lon="11.8514888"><ele>279.0</ele><time>2026-04-19T12:45:19.508Z</time></trkpt><trkpt lat="42.0881294" lon="11.8515018"><ele>279.0</ele><time>2026-04-19T12:45:22.511Z</time></trkpt><trkpt lat="42.0882029" lon="11.8515329"><ele>279.0</ele><time>2026-04-19T12:45:25.512Z</time></trkpt><trkpt lat="42.088274" lon="11.8515676"><ele>279.0</ele><time>2026-04-19T12:45:28.511Z</time></trkpt><trkpt lat="42.0883446" lon="11.8516018"><ele>279.0</ele><time>2026-04-19T12:45:31.51Z</time></trkpt><trkpt lat="42.0884084" lon="11.8516506"><ele>279.0</ele><time>2026-04-19T12:45:34.515Z</time></trkpt><trkpt lat="42.0884731" lon="11.8517108"><ele>279.0</ele><time>2026-04-19T12:45:37.51Z</time></trkpt><trkpt lat="42.0885309" lon="11.8517804"><ele>280.0</ele><time>2026-04-19T12:45:40.513Z</time></trkpt><trkpt lat="42.0885874" lon="11.8518524"><ele>281.0</ele><time>2026-04-19T12:45:43.511Z</time></trkpt><trkpt lat="42.0886386" lon="11.8519239"><ele>282.0</ele><time>2026-04-19T12:45:46.511Z</time></trkpt><trkpt lat="42.0886907" lon="11.8520044"><ele>283.0</ele><time>2026-04-19T12:45:49.51Z</time></trkpt><trkpt lat="42.0887485" lon="11.8520726"><ele>284.0</ele><time>2026-04-19T12:45:52.51Z</time></trkpt><trkpt lat="42.0888095" lon="11.8521356"><ele>285.0</ele><time>2026-04-19T12:45:55.512Z</time></trkpt><trkpt lat="42.0888798" lon="11.8521944"><ele>285.0</ele><time>2026-04-19T12:45:58.514Z</time></trkpt><trkpt lat="42.0889459" lon="11.8522506"><ele>285.0</ele><time>2026-04-19T12:46:01.51Z</time></trkpt><trkpt lat="42.0890166" lon="11.8523058"><ele>285.0</ele><time>2026-04-19T12:46:04.512Z</time></trkpt><trkpt lat="42.0890753" lon="11.8523645"><ele>285.0</ele><time>2026-04-19T12:46:07.512Z</time></trkpt><trkpt lat="42.0891392" lon="11.8524142"><ele>285.0</ele><time>2026-04-19T12:46:10.509Z</time></trkpt><trkpt lat="42.0891951" lon="11.8524605"><ele>285.0</ele><time>2026-04-19T12:46:13.512Z</time></trkpt><trkpt lat="42.0892567" lon="11.8525098"><ele>285.0</ele><time>2026-04-19T12:46:16.511Z</time></trkpt><trkpt lat="42.0893273" lon="11.8524971"><ele>287.1428571428571</ele><time>2026-04-19T12:46:21.511Z</time></trkpt><trkpt lat="42.0893911" lon="11.8524441"><ele>289.2857142857143</ele><time>2026-04-19T12:48:20.512Z</time></trkpt><trkpt lat="42.0894543" lon="11.8524297"><ele>291.42857142857144</ele><time>2026-04-19T12:48:23.511Z</time></trkpt><trkpt lat="42.0895205" lon="11.8524395"><ele>293.57142857142856</ele><time>2026-04-19T12:48:40.51Z</time></trkpt><trkpt lat="42.0895924" lon="11.8524576"><ele>295.7142857142857</ele><time>2026-04-19T12:48:46.507Z</time></trkpt><trkpt lat="42.0896595" lon="11.8524671"><ele>297.85714285714283</ele><time>2026-04-19T12:48:50.508Z</time></trkpt><trkpt lat="42.0897243" lon="11.8524792"><ele>300.0</ele><time>2026-04-19T12:48:53.511Z</time></trkpt><trkpt lat="42.0898035" lon="11.8524929"><ele>300.0</ele><time>2026-04-19T12:48:56.506Z</time></trkpt><trkpt lat="42.0898841" lon="11.8525049"><ele>300.0</ele><time>2026-04-19T12:48:59.512Z</time></trkpt><trkpt lat="42.0899665" lon="11.8525196"><ele>300.0</ele><time>2026-04-19T12:49:02.509Z</time></trkpt><trkpt lat="42.090058" lon="11.8525271"><ele>300.0</ele><time>2026-04-19T12:49:05.511Z</time></trkpt><trkpt lat="42.0901293" lon="11.8525182"><ele>300.0</ele><time>2026-04-19T12:49:07.51Z</time></trkpt><trkpt lat="42.0902019" lon="11.8525104"><ele>300.0</ele><time>2026-04-19T12:49:09.507Z</time></trkpt><trkpt lat="42.0902774" lon="11.8524898"><ele>301.0</ele><time>2026-04-19T12:49:11.511Z</time></trkpt><trkpt lat="42.0903632" lon="11.8524491"><ele>302.0</ele><time>2026-04-19T12:49:13.511Z</time></trkpt><trkpt lat="42.0904538" lon="11.852417"><ele>303.0</ele><time>2026-04-19T12:49:15.51Z</time></trkpt><trkpt lat="42.0905434" lon="11.852368"><ele>304.0</ele><time>2026-04-19T12:49:17.51Z</time></trkpt><trkpt lat="42.0906399" lon="11.8523062"><ele>305.0</ele><time>2026-04-19T12:49:19.51Z</time></trkpt><trkpt lat="42.0907299" lon="11.8522348"><ele>305.1666666666667</ele><time>2026-04-19T12:49:21.511Z</time></trkpt><trkpt lat="42.090805" lon="11.8521588"><ele>305.33333333333337</ele><time>2026-04-19T12:49:23.51Z</time></trkpt><trkpt lat="42.0908827" lon="11.8520803"><ele>305.5</ele><time>2026-04-19T12:49:25.51Z</time></trkpt><trkpt lat="42.0909562" lon="11.8520449"><ele>305.6666666666667</ele><time>2026-04-19T12:49:28.509Z</time></trkpt><trkpt lat="42.0910212" lon="11.8519956"><ele>305.8333333333333</ele><time>2026-04-19T12:49:33.511Z</time></trkpt><trkpt lat="42.0910769" lon="11.8519546"><ele>306.0</ele><time>2026-04-19T12:53:01.509Z</time></trkpt><trkpt lat="42.0911603" lon="11.8519023"><ele>306.0</ele><time>2026-04-19T12:54:38.51Z</time></trkpt><trkpt lat="42.0912264" lon="11.8518551"><ele>306.0</ele><time>2026-04-19T12:54:40.51Z</time></trkpt><trkpt lat="42.0913108" lon="11.8518036"><ele>306.0</ele><time>2026-04-19T12:54:42.502Z</time></trkpt><trkpt lat="42.0913927" lon="11.8517563"><ele>306.0</ele><time>2026-04-19T12:54:44.511Z</time></trkpt><trkpt lat="42.0914844" lon="11.8517095"><ele>306.0</ele><time>2026-04-19T12:54:46.507Z</time></trkpt><trkpt lat="42.0915853" lon="11.8516608"><ele>304.0</ele><time>2026-04-19T12:54:48.511Z</time></trkpt><trkpt lat="42.0916826" lon="11.8515946"><ele>302.0</ele><time>2026-04-19T12:54:50.512Z</time></trkpt><trkpt lat="42.0917704" lon="11.8515016"><ele>300.0</ele><time>2026-04-19T12:54:52.51Z</time></trkpt><trkpt lat="42.0918577" lon="11.8513748"><ele>298.0</ele><time>2026-04-19T12:54:54.51Z</time></trkpt><trkpt lat="42.0918981" lon="11.8513065"><ele>296.0</ele><time>2026-04-19T12:54:55.511Z</time></trkpt><trkpt lat="42.0919364" lon="11.8512375"><ele>296.0</ele><time>2026-04-19T12:54:56.513Z</time></trkpt><trkpt lat="42.0920103" lon="11.8510976"><ele>296.0</ele><time>2026-04-19T12:54:58.513Z</time></trkpt><trkpt lat="42.0920365" lon="11.8510193"><ele>296.0</ele><time>2026-04-19T12:54:59.511Z</time></trkpt><trkpt lat="42.0920467" lon="11.8509206"><ele>296.0</ele><time>2026-04-19T12:55:00.511Z</time></trkpt><trkpt lat="42.0920519" lon="11.8508169"><ele>296.0</ele><time>2026-04-19T12:55:01.512Z</time></trkpt><trkpt lat="42.0920697" lon="11.8507122"><ele>296.0</ele><time>2026-04-19T12:55:02.51Z</time></trkpt><trkpt lat="42.0921028" lon="11.8506253"><ele>294.83333333333337</ele><time>2026-04-19T12:55:03.511Z</time></trkpt><trkpt lat="42.0921486" lon="11.8505407"><ele>293.6666666666667</ele><time>2026-04-19T12:55:04.516Z</time></trkpt><trkpt lat="42.0922067" lon="11.8504633"><ele>292.5</ele><time>2026-04-19T12:55:05.51Z</time></trkpt><trkpt lat="42.0922747" lon="11.8503972"><ele>291.3333333333333</ele><time>2026-04-19T12:55:06.512Z</time></trkpt><trkpt lat="42.0923432" lon="11.8503375"><ele>290.16666666666663</ele><time>2026-04-19T12:55:07.513Z</time></trkpt><trkpt lat="42.0924127" lon="11.8502868"><ele>289.0</ele><time>2026-04-19T12:55:08.511Z</time></trkpt><trkpt lat="42.0924754" lon="11.8502505"><ele>289.0</ele><time>2026-04-19T12:55:09.52Z</time></trkpt><trkpt lat="42.0925444" lon="11.850221"><ele>289.0</ele><time>2026-04-19T12:55:10.512Z</time></trkpt><trkpt lat="42.0926369" lon="11.8501819"><ele>289.0</ele><time>2026-04-19T12:55:11.51Z</time></trkpt><trkpt lat="42.0927213" lon="11.850153"><ele>289.0</ele><time>2026-04-19T12:55:12.509Z</time></trkpt><trkpt lat="42.0928076" lon="11.8501183"><ele>289.0</ele><time>2026-04-19T12:55:13.506Z</time></trkpt><trkpt lat="42.0928986" lon="11.8500878"><ele>289.0</ele><time>2026-04-19T12:55:14.51Z</time></trkpt><trkpt lat="42.0929963" lon="11.8500661"><ele>289.2</ele><time>2026-04-19T12:55:15.511Z</time></trkpt><trkpt lat="42.0930917" lon="11.8500486"><ele>289.4</ele><time>2026-04-19T12:55:16.51Z</time></trkpt><trkpt lat="42.0931912" lon="11.850035"><ele>289.6</ele><time>2026-04-19T12:55:17.509Z</time></trkpt><trkpt lat="42.0932929" lon="11.8500199"><ele>289.8</ele><time>2026-04-19T12:55:18.509Z</time></trkpt><trkpt lat="42.0933871" lon="11.8500123"><ele>290.0</ele><time>2026-04-19T12:55:19.51Z</time></trkpt><trkpt lat="42.093489" lon="11.8500063"><ele>288.33333333333337</ele><time>2026-04-19T12:55:20.511Z</time></trkpt><trkpt lat="42.0935854" lon="11.8500018"><ele>286.6666666666667</ele><time>2026-04-19T12:55:21.512Z</time></trkpt><trkpt lat="42.0936771" lon="11.8500022"><ele>285.0</ele><time>2026-04-19T12:55:22.51Z</time></trkpt><trkpt lat="42.0937659" lon="11.8500017"><ele>283.3333333333333</ele><time>2026-04-19T12:55:23.51Z</time></trkpt><trkpt lat="42.0938361" lon="11.8499943"><ele>281.66666666666663</ele><time>2026-04-19T12:55:24.51Z</time></trkpt><trkpt lat="42.0939097" lon="11.8499808"><ele>280.0</ele><time>2026-04-19T12:55:25.51Z</time></trkpt><trkpt lat="42.0939773" lon="11.8499644"><ele>280.0</ele><time>2026-04-19T12:55:26.507Z</time></trkpt><trkpt lat="42.0940377" lon="11.849926"><ele>280.0</ele><time>2026-04-19T12:55:27.509Z</time></trkpt><trkpt lat="42.0940953" lon="11.8498761"><ele>280.0</ele><time>2026-04-19T12:55:28.507Z</time></trkpt><trkpt lat="42.0941403" lon="11.8497966"><ele>280.0</ele><time>2026-04-19T12:55:29.509Z</time></trkpt><trkpt lat="42.0941849" lon="11.8497039"><ele>280.0</ele><time>2026-04-19T12:55:30.512Z</time></trkpt><trkpt lat="42.0942246" lon="11.8496159"><ele>280.0</ele><time>2026-04-19T12:55:31.507Z</time></trkpt><trkpt lat="42.0942565" lon="11.8495359"><ele>280.0</ele><time>2026-04-19T12:55:32.51Z</time></trkpt><trkpt lat="42.0942815" lon="11.8494514"><ele>278.0</ele><time>2026-04-19T12:55:33.51Z</time></trkpt><trkpt lat="42.0942969" lon="11.849292"><ele>276.0</ele><time>2026-04-19T12:55:35.513Z</time></trkpt><trkpt lat="42.0942447" lon="11.8491438"><ele>274.0</ele><time>2026-04-19T12:55:37.511Z</time></trkpt><trkpt lat="42.0941963" lon="11.8490785"><ele>272.0</ele><time>2026-04-19T12:55:38.51Z</time></trkpt><trkpt lat="42.0941488" lon="11.8490046"><ele>270.0</ele><time>2026-04-19T12:55:39.51Z</time></trkpt><trkpt lat="42.0940988" lon="11.8489339"><ele>270.0</ele><time>2026-04-19T12:55:40.511Z</time></trkpt><trkpt lat="42.0940483" lon="11.8488521"><ele>270.0</ele><time>2026-04-19T12:55:41.51Z</time></trkpt><trkpt lat="42.0940006" lon="11.8487669"><ele>270.0</ele><time>2026-04-19T12:55:42.507Z</time></trkpt><trkpt lat="42.0939645" lon="11.8486713"><ele>270.0</ele><time>2026-04-19T12:55:43.516Z</time></trkpt><trkpt lat="42.093925" lon="11.8485745"><ele>270.0</ele><time>2026-04-19T12:55:44.513Z</time></trkpt><trkpt lat="42.093887" lon="11.8484664"><ele>270.0</ele><time>2026-04-19T12:55:45.509Z</time></trkpt><trkpt lat="42.0938475" lon="11.848365"><ele>270.0</ele><time>2026-04-19T12:55:46.51Z</time></trkpt><trkpt lat="42.093812" lon="11.8482495"><ele>270.0</ele><time>2026-04-19T12:55:47.512Z</time></trkpt><trkpt lat="42.0937839" lon="11.8481351"><ele>270.0</ele><time>2026-04-19T12:55:48.508Z</time></trkpt><trkpt lat="42.0937527" lon="11.8480294"><ele>270.0</ele><time>2026-04-19T12:55:49.507Z</time></trkpt><trkpt lat="42.0937165" lon="11.8479274"><ele>270.0</ele><time>2026-04-19T12:55:50.508Z</time></trkpt><trkpt lat="42.0936836" lon="11.847822"><ele>270.0</ele><time>2026-04-19T12:55:51.507Z</time></trkpt><trkpt lat="42.0936555" lon="11.8477267"><ele>270.0</ele><time>2026-04-19T12:55:52.512Z</time></trkpt><trkpt lat="42.0936198" lon="11.8476392"><ele>270.0</ele><time>2026-04-19T12:55:53.507Z</time></trkpt><trkpt lat="42.0935798" lon="11.8475348"><ele>270.0</ele><time>2026-04-19T12:55:54.51Z</time></trkpt><trkpt lat="42.0935396" lon="11.8474238"><ele>270.0</ele><time>2026-04-19T12:55:55.512Z</time></trkpt><trkpt lat="42.0934855" lon="11.847314"><ele>270.0</ele><time>2026-04-19T12:55:56.512Z</time></trkpt><trkpt lat="42.0934315" lon="11.8471948"><ele>267.0</ele><time>2026-04-19T12:55:57.507Z</time></trkpt><trkpt lat="42.0933687" lon="11.8470874"><ele>264.0</ele><time>2026-04-19T12:55:58.51Z</time></trkpt><trkpt lat="42.0933007" lon="11.8469798"><ele>261.0</ele><time>2026-04-19T12:55:59.509Z</time></trkpt><trkpt lat="42.0932319" lon="11.8468855"><ele>258.0</ele><time>2026-04-19T12:56:00.509Z</time></trkpt><trkpt lat="42.0931636" lon="11.8468152"><ele>255.0</ele><time>2026-04-19T12:56:01.51Z</time></trkpt><trkpt lat="42.0930897" lon="11.8467699"><ele>254.6</ele><time>2026-04-19T12:56:02.51Z</time></trkpt><trkpt lat="42.0930091" lon="11.8467451"><ele>254.2</ele><time>2026-04-19T12:56:03.511Z</time></trkpt><trkpt lat="42.0929108" lon="11.8467293"><ele>253.8</ele><time>2026-04-19T12:56:04.512Z</time></trkpt><trkpt lat="42.0928221" lon="11.8467412"><ele>253.4</ele><time>2026-04-19T12:56:05.513Z</time></trkpt><trkpt lat="42.092732" lon="11.8467593"><ele>253.0</ele><time>2026-04-19T12:56:06.511Z</time></trkpt><trkpt lat="42.0926397" lon="11.8468004"><ele>253.0</ele><time>2026-04-19T12:56:07.51Z</time></trkpt><trkpt lat="42.0925459" lon="11.8468467"><ele>253.0</ele><time>2026-04-19T12:56:08.511Z</time></trkpt><trkpt lat="42.092451" lon="11.8468901"><ele>253.0</ele><time>2026-04-19T12:56:09.512Z</time></trkpt><trkpt lat="42.0923409" lon="11.8469208"><ele>253.0</ele><time>2026-04-19T12:56:10.512Z</time></trkpt><trkpt lat="42.0922435" lon="11.8469373"><ele>253.0</ele><time>2026-04-19T12:56:11.507Z</time></trkpt><trkpt lat="42.0921543" lon="11.8469587"><ele>252.33333333333331</ele><time>2026-04-19T12:56:12.507Z</time></trkpt><trkpt lat="42.092078" lon="11.8469815"><ele>251.66666666666666</ele><time>2026-04-19T12:56:13.506Z</time></trkpt><trkpt lat="42.0920109" lon="11.8469739"><ele>251.0</ele><time>2026-04-19T12:56:14.512Z</time></trkpt><trkpt lat="42.0919503" lon="11.846933"><ele>250.33333333333331</ele><time>2026-04-19T12:56:15.512Z</time></trkpt><trkpt lat="42.0918835" lon="11.8468826"><ele>249.66666666666666</ele><time>2026-04-19T12:56:16.512Z</time></trkpt><trkpt lat="42.0918206" lon="11.8468122"><ele>249.0</ele><time>2026-04-19T12:56:17.511Z</time></trkpt><trkpt lat="42.0917531" lon="11.846727"><ele>247.0</ele><time>2026-04-19T12:56:18.51Z</time></trkpt><trkpt lat="42.0916888" lon="11.8466343"><ele>244.99999999999997</ele><time>2026-04-19T12:56:19.511Z</time></trkpt><trkpt lat="42.0916204" lon="11.8465419"><ele>242.99999999999997</ele><time>2026-04-19T12:56:20.51Z</time></trkpt><trkpt lat="42.0915568" lon="11.8464365"><ele>241.0</ele><time>2026-04-19T12:56:21.51Z</time></trkpt><trkpt lat="42.0914865" lon="11.846356"><ele>239.0</ele><time>2026-04-19T12:56:22.515Z</time></trkpt><trkpt lat="42.0914137" lon="11.8462668"><ele>239.0</ele><time>2026-04-19T12:56:23.511Z</time></trkpt><trkpt lat="42.0913365" lon="11.84617"><ele>238.99999999999997</ele><time>2026-04-19T12:56:24.511Z</time></trkpt><trkpt lat="42.091261" lon="11.8460806"><ele>238.99999999999997</ele><time>2026-04-19T12:56:25.513Z</time></trkpt><trkpt lat="42.0911855" lon="11.8459922"><ele>239.0</ele><time>2026-04-19T12:56:26.509Z</time></trkpt><trkpt lat="42.0911144" lon="11.8459051"><ele>239.0</ele><time>2026-04-19T12:56:27.511Z</time></trkpt><trkpt lat="42.0910566" lon="11.8458002"><ele>236.79999999999998</ele><time>2026-04-19T12:56:28.511Z</time></trkpt><trkpt lat="42.0910135" lon="11.8456783"><ele>234.59999999999997</ele><time>2026-04-19T12:56:29.511Z</time></trkpt><trkpt lat="42.0909865" lon="11.8455451"><ele>232.4</ele><time>2026-04-19T12:56:30.51Z</time></trkpt><trkpt lat="42.0909467" lon="11.8454052"><ele>230.2</ele><time>2026-04-19T12:56:31.511Z</time></trkpt><trkpt lat="42.090898" lon="11.84528"><ele>228.0</ele><time>2026-04-19T12:56:32.506Z</time></trkpt><trkpt lat="42.0908524" lon="11.8451503"><ele>225.4</ele><time>2026-04-19T12:56:33.508Z</time></trkpt><trkpt lat="42.0908123" lon="11.8450117"><ele>222.8</ele><time>2026-04-19T12:56:34.511Z</time></trkpt><trkpt lat="42.090772" lon="11.8448822"><ele>220.2</ele><time>2026-04-19T12:56:35.512Z</time></trkpt><trkpt lat="42.0907246" lon="11.844766"><ele>217.6</ele><time>2026-04-19T12:56:36.511Z</time></trkpt><trkpt lat="42.0906691" lon="11.844678"><ele>215.0</ele><time>2026-04-19T12:56:37.51Z</time></trkpt><trkpt lat="42.0906061" lon="11.8445828"><ele>215.00000000000003</ele><time>2026-04-19T12:56:38.511Z</time></trkpt><trkpt lat="42.0905498" lon="11.8444934"><ele>215.0</ele><time>2026-04-19T12:56:39.513Z</time></trkpt><trkpt lat="42.0904922" lon="11.8443999"><ele>215.0</ele><time>2026-04-19T12:56:40.512Z</time></trkpt><trkpt lat="42.0904448" lon="11.8443033"><ele>215.0</ele><time>2026-04-19T12:56:41.511Z</time></trkpt><trkpt lat="42.0904048" lon="11.8441889"><ele>215.00000000000003</ele><time>2026-04-19T12:56:42.51Z</time></trkpt><trkpt lat="42.0903697" lon="11.8440839"><ele>215.0</ele><time>2026-04-19T12:56:43.512Z</time></trkpt><trkpt lat="42.0903304" lon="11.8439812"><ele>213.50000000000003</ele><time>2026-04-19T12:56:44.51Z</time></trkpt><trkpt lat="42.0902915" lon="11.8438823"><ele>212.0</ele><time>2026-04-19T12:56:45.512Z</time></trkpt><trkpt lat="42.0902388" lon="11.843785"><ele>210.5</ele><time>2026-04-19T12:56:46.511Z</time></trkpt><trkpt lat="42.0901787" lon="11.8437122"><ele>209.0</ele><time>2026-04-19T12:56:47.511Z</time></trkpt><trkpt lat="42.090128" lon="11.8436395"><ele>207.50000000000003</ele><time>2026-04-19T12:56:48.511Z</time></trkpt><trkpt lat="42.0900549" lon="11.843582"><ele>206.0</ele><time>2026-04-19T12:56:49.512Z</time></trkpt><trkpt lat="42.0899868" lon="11.8435397"><ele>204.00000000000003</ele><time>2026-04-19T12:56:50.513Z</time></trkpt><trkpt lat="42.0899134" lon="11.8434954"><ele>202.0</ele><time>2026-04-19T12:56:51.512Z</time></trkpt><trkpt lat="42.0898351" lon="11.8434713"><ele>200.0</ele><time>2026-04-19T12:56:52.507Z</time></trkpt><trkpt lat="42.0897564" lon="11.8434593"><ele>198.0</ele><time>2026-04-19T12:56:53.506Z</time></trkpt><trkpt lat="42.089674" lon="11.8434548"><ele>196.00000000000003</ele><time>2026-04-19T12:56:54.512Z</time></trkpt><trkpt lat="42.0895967" lon="11.8434327"><ele>194.0</ele><time>2026-04-19T12:56:55.511Z</time></trkpt><trkpt lat="42.0895257" lon="11.8433909"><ele>193.83333333333334</ele><time>2026-04-19T12:56:56.511Z</time></trkpt><trkpt lat="42.0894681" lon="11.8433159"><ele>193.66666666666669</ele><time>2026-04-19T12:56:57.513Z</time></trkpt><trkpt lat="42.0894308" lon="11.8432174"><ele>193.5</ele><time>2026-04-19T12:56:58.51Z</time></trkpt><trkpt lat="42.089391" lon="11.843117"><ele>193.33333333333331</ele><time>2026-04-19T12:56:59.511Z</time></trkpt><trkpt lat="42.0893502" lon="11.8430148"><ele>193.16666666666666</ele><time>2026-04-19T12:57:00.512Z</time></trkpt><trkpt lat="42.0893024" lon="11.8429186"><ele>193.0</ele><time>2026-04-19T12:57:01.51Z</time></trkpt><trkpt lat="42.0892504" lon="11.8428159"><ele>192.99999999999997</ele><time>2026-04-19T12:57:02.512Z</time></trkpt><trkpt lat="42.0892104" lon="11.8427189"><ele>193.0</ele><time>2026-04-19T12:57:03.511Z</time></trkpt><trkpt lat="42.089176" lon="11.8426235"><ele>193.0</ele><time>2026-04-19T12:57:04.516Z</time></trkpt><trkpt lat="42.0891592" lon="11.8425229"><ele>193.0</ele><time>2026-04-19T12:57:05.512Z</time></trkpt><trkpt lat="42.0891276" lon="11.8424175"><ele>192.99999999999997</ele><time>2026-04-19T12:57:06.511Z</time></trkpt><trkpt lat="42.0891136" lon="11.8423157"><ele>193.0</ele><time>2026-04-19T12:57:07.512Z</time></trkpt><trkpt lat="42.0891107" lon="11.8422064"><ele>192.16666666666666</ele><time>2026-04-19T12:57:08.511Z</time></trkpt><trkpt lat="42.0890983" lon="11.8420919"><ele>191.33333333333331</ele><time>2026-04-19T12:57:09.51Z</time></trkpt><trkpt lat="42.0890838" lon="11.8419816"><ele>190.5</ele><time>2026-04-19T12:57:10.511Z</time></trkpt><trkpt lat="42.0890686" lon="11.8418564"><ele>189.66666666666666</ele><time>2026-04-19T12:57:11.508Z</time></trkpt><trkpt lat="42.0890498" lon="11.8417413"><ele>188.83333333333331</ele><time>2026-04-19T12:57:12.508Z</time></trkpt><trkpt lat="42.0890319" lon="11.8416244"><ele>188.0</ele><time>2026-04-19T12:57:13.507Z</time></trkpt><trkpt lat="42.0890483" lon="11.8415036"><ele>187.2</ele><time>2026-04-19T12:57:14.51Z</time></trkpt><trkpt lat="42.0890616" lon="11.8413848"><ele>186.4</ele><time>2026-04-19T12:57:15.512Z</time></trkpt><trkpt lat="42.0890807" lon="11.8412686"><ele>185.6</ele><time>2026-04-19T12:57:16.511Z</time></trkpt><trkpt lat="42.089113" lon="11.8411549"><ele>184.79999999999998</ele><time>2026-04-19T12:57:17.512Z</time></trkpt><trkpt lat="42.0891261" lon="11.8410388"><ele>184.0</ele><time>2026-04-19T12:57:18.513Z</time></trkpt><trkpt lat="42.0891297" lon="11.8409105"><ele>183.0</ele><time>2026-04-19T12:57:19.512Z</time></trkpt><trkpt lat="42.0891273" lon="11.8407926"><ele>182.0</ele><time>2026-04-19T12:57:20.511Z</time></trkpt><trkpt lat="42.0891218" lon="11.8406712"><ele>181.0</ele><time>2026-04-19T12:57:21.511Z</time></trkpt><trkpt lat="42.0891256" lon="11.8405447"><ele>180.0</ele><time>2026-04-19T12:57:22.511Z</time></trkpt><trkpt lat="42.0891325" lon="11.8404109"><ele>179.0</ele><time>2026-04-19T12:57:23.513Z</time></trkpt><trkpt lat="42.0891485" lon="11.8402901"><ele>179.0</ele><time>2026-04-19T12:57:24.51Z</time></trkpt><trkpt lat="42.0891745" lon="11.8401655"><ele>179.0</ele><time>2026-04-19T12:57:25.511Z</time></trkpt><trkpt lat="42.0891967" lon="11.8400499"><ele>179.0</ele><time>2026-04-19T12:57:26.511Z</time></trkpt><trkpt lat="42.0892104" lon="11.8399252"><ele>179.0</ele><time>2026-04-19T12:57:27.51Z</time></trkpt><trkpt lat="42.0892203" lon="11.8398056"><ele>179.0</ele><time>2026-04-19T12:57:28.511Z</time></trkpt><trkpt lat="42.0892229" lon="11.83969"><ele>178.33333333333331</ele><time>2026-04-19T12:57:29.512Z</time></trkpt><trkpt lat="42.0892151" lon="11.8395736"><ele>177.66666666666666</ele><time>2026-04-19T12:57:30.51Z</time></trkpt><trkpt lat="42.0892065" lon="11.8394575"><ele>177.0</ele><time>2026-04-19T12:57:31.508Z</time></trkpt><trkpt lat="42.089195" lon="11.8393366"><ele>176.33333333333334</ele><time>2026-04-19T12:57:32.506Z</time></trkpt><trkpt lat="42.0891858" lon="11.8392185"><ele>175.66666666666669</ele><time>2026-04-19T12:57:33.507Z</time></trkpt><trkpt lat="42.0891732" lon="11.8390996"><ele>175.0</ele><time>2026-04-19T12:57:34.509Z</time></trkpt><trkpt lat="42.0891619" lon="11.8389856"><ele>174.16666666666669</ele><time>2026-04-19T12:57:35.51Z</time></trkpt><trkpt lat="42.0891521" lon="11.8388697"><ele>173.33333333333334</ele><time>2026-04-19T12:57:36.511Z</time></trkpt><trkpt lat="42.0891541" lon="11.8387631"><ele>172.5</ele><time>2026-04-19T12:57:37.511Z</time></trkpt><trkpt lat="42.0891574" lon="11.8386483"><ele>171.66666666666666</ele><time>2026-04-19T12:57:38.511Z</time></trkpt><trkpt lat="42.0891603" lon="11.8385402"><ele>170.83333333333331</ele><time>2026-04-19T12:57:39.514Z</time></trkpt><trkpt lat="42.089163" lon="11.8384324"><ele>170.0</ele><time>2026-04-19T12:57:40.511Z</time></trkpt><trkpt lat="42.08916" lon="11.8383247"><ele>169.83333333333331</ele><time>2026-04-19T12:57:41.512Z</time></trkpt><trkpt lat="42.0891697" lon="11.8382154"><ele>169.66666666666666</ele><time>2026-04-19T12:57:42.51Z</time></trkpt><trkpt lat="42.0891808" lon="11.8381108"><ele>169.5</ele><time>2026-04-19T12:57:43.512Z</time></trkpt><trkpt lat="42.0891787" lon="11.8380098"><ele>169.33333333333334</ele><time>2026-04-19T12:57:44.511Z</time></trkpt><trkpt lat="42.0891773" lon="11.8379071"><ele>169.16666666666669</ele><time>2026-04-19T12:57:45.512Z</time></trkpt><trkpt lat="42.0891709" lon="11.8378093"><ele>169.0</ele><time>2026-04-19T12:57:46.513Z</time></trkpt><trkpt lat="42.0891607" lon="11.8377186"><ele>168.75</ele><time>2026-04-19T12:57:47.512Z</time></trkpt><trkpt lat="42.0891337" lon="11.8375584"><ele>168.5</ele><time>2026-04-19T12:57:49.513Z</time></trkpt><trkpt lat="42.0891056" lon="11.8373951"><ele>168.25</ele><time>2026-04-19T12:57:51.51Z</time></trkpt><trkpt lat="42.0890764" lon="11.8372342"><ele>168.0</ele><time>2026-04-19T12:57:53.506Z</time></trkpt><trkpt lat="42.089065" lon="11.837075"><ele>166.0</ele><time>2026-04-19T12:57:55.509Z</time></trkpt><trkpt lat="42.0890539" lon="11.8369895"><ele>164.0</ele><time>2026-04-19T12:57:56.508Z</time></trkpt><trkpt lat="42.0890345" lon="11.8368332"><ele>162.0</ele><time>2026-04-19T12:57:58.511Z</time></trkpt><trkpt lat="42.0890123" lon="11.8366714"><ele>160.0</ele><time>2026-04-19T12:58:00.509Z</time></trkpt><trkpt lat="42.0889681" lon="11.8365068"><ele>158.0</ele><time>2026-04-19T12:58:02.51Z</time></trkpt><trkpt lat="42.088933" lon="11.8364222"><ele>158.0</ele><time>2026-04-19T12:58:03.512Z</time></trkpt><trkpt lat="42.0888946" lon="11.8363379"><ele>158.0</ele><time>2026-04-19T12:58:04.51Z</time></trkpt><trkpt lat="42.0888582" lon="11.8362448"><ele>158.0</ele><time>2026-04-19T12:58:05.509Z</time></trkpt><trkpt lat="42.088818" lon="11.8361528"><ele>158.0</ele><time>2026-04-19T12:58:06.51Z</time></trkpt><trkpt lat="42.0887878" lon="11.8360536"><ele>158.0</ele><time>2026-04-19T12:58:07.51Z</time></trkpt><trkpt lat="42.0887686" lon="11.8359546"><ele>158.0</ele><time>2026-04-19T12:58:08.512Z</time></trkpt><trkpt lat="42.0887535" lon="11.8358494"><ele>158.5</ele><time>2026-04-19T12:58:09.511Z</time></trkpt><trkpt lat="42.0887434" lon="11.835741"><ele>159.0</ele><time>2026-04-19T12:58:10.512Z</time></trkpt><trkpt lat="42.0887333" lon="11.8356341"><ele>159.5</ele><time>2026-04-19T12:58:11.508Z</time></trkpt><trkpt lat="42.0887138" lon="11.8355227"><ele>160.0</ele><time>2026-04-19T12:58:12.508Z</time></trkpt><trkpt lat="42.0886815" lon="11.8354101"><ele>160.5</ele><time>2026-04-19T12:58:13.508Z</time></trkpt><trkpt lat="42.0886393" lon="11.835296"><ele>161.0</ele><time>2026-04-19T12:58:14.511Z</time></trkpt><trkpt lat="42.0885936" lon="11.835188"><ele>160.8</ele><time>2026-04-19T12:58:15.513Z</time></trkpt><trkpt lat="42.0885525" lon="11.8350765"><ele>160.60000000000002</ele><time>2026-04-19T12:58:16.511Z</time></trkpt><trkpt lat="42.0885085" lon="11.8349665"><ele>160.4</ele><time>2026-04-19T12:58:17.508Z</time></trkpt><trkpt lat="42.0884711" lon="11.8348496"><ele>160.2</ele><time>2026-04-19T12:58:18.508Z</time></trkpt><trkpt lat="42.0884294" lon="11.8347265"><ele>160.0</ele><time>2026-04-19T12:58:19.511Z</time></trkpt><trkpt lat="42.0883951" lon="11.8345953"><ele>160.0</ele><time>2026-04-19T12:58:20.511Z</time></trkpt><trkpt lat="42.0883606" lon="11.8344669"><ele>160.0</ele><time>2026-04-19T12:58:21.51Z</time></trkpt><trkpt lat="42.088323" lon="11.8343176"><ele>160.0</ele><time>2026-04-19T12:58:22.509Z</time></trkpt><trkpt lat="42.0882938" lon="11.8341676"><ele>160.0</ele><time>2026-04-19T12:58:23.512Z</time></trkpt><trkpt lat="42.0882564" lon="11.8340188"><ele>157.0</ele><time>2026-04-19T12:58:24.508Z</time></trkpt><trkpt lat="42.0882205" lon="11.8338738"><ele>154.0</ele><time>2026-04-19T12:58:25.513Z</time></trkpt><trkpt lat="42.0881699" lon="11.8337272"><ele>151.0</ele><time>2026-04-19T12:58:26.515Z</time></trkpt><trkpt lat="42.0881104" lon="11.8335822"><ele>148.0</ele><time>2026-04-19T12:58:27.524Z</time></trkpt><trkpt lat="42.0880558" lon="11.8334424"><ele>148.0</ele><time>2026-04-19T12:58:28.512Z</time></trkpt><trkpt lat="42.0879899" lon="11.8332891"><ele>148.0</ele><time>2026-04-19T12:58:29.512Z</time></trkpt><trkpt lat="42.087912" lon="11.8331441"><ele>148.0</ele><time>2026-04-19T12:58:30.509Z</time></trkpt><trkpt lat="42.0878585" lon="11.8330055"><ele>148.0</ele><time>2026-04-19T12:58:31.509Z</time></trkpt><trkpt lat="42.0877941" lon="11.8328599"><ele>148.0</ele><time>2026-04-19T12:58:32.508Z</time></trkpt><trkpt lat="42.087729" lon="11.8327158"><ele>148.0</ele><time>2026-04-19T12:58:33.508Z</time></trkpt><trkpt lat="42.0876582" lon="11.832572"><ele>148.0</ele><time>2026-04-19T12:58:34.512Z</time></trkpt><trkpt lat="42.087598" lon="11.8324225"><ele>148.0</ele><time>2026-04-19T12:58:35.51Z</time></trkpt><trkpt lat="42.0875429" lon="11.8322719"><ele>147.25</ele><time>2026-04-19T12:58:36.511Z</time></trkpt><trkpt lat="42.0874939" lon="11.8321231"><ele>146.5</ele><time>2026-04-19T12:58:37.512Z</time></trkpt><trkpt lat="42.0874485" lon="11.8319639"><ele>145.75</ele><time>2026-04-19T12:58:38.51Z</time></trkpt><trkpt lat="42.0874107" lon="11.8318073"><ele>145.0</ele><time>2026-04-19T12:58:39.51Z</time></trkpt><trkpt lat="42.087383" lon="11.8316573"><ele>141.75</ele><time>2026-04-19T12:58:40.51Z</time></trkpt><trkpt lat="42.0873525" lon="11.8315062"><ele>138.5</ele><time>2026-04-19T12:58:41.512Z</time></trkpt><trkpt lat="42.0873341" lon="11.8313565"><ele>135.25</ele><time>2026-04-19T12:58:42.513Z</time></trkpt><trkpt lat="42.0873247" lon="11.8312073"><ele>132.0</ele><time>2026-04-19T12:58:43.508Z</time></trkpt><trkpt lat="42.087313" lon="11.8310541"><ele>132.25</ele><time>2026-04-19T12:58:44.511Z</time></trkpt><trkpt lat="42.0872988" lon="11.8309001"><ele>132.5</ele><time>2026-04-19T12:58:45.511Z</time></trkpt><trkpt lat="42.0872837" lon="11.830746"><ele>132.75</ele><time>2026-04-19T12:58:46.512Z</time></trkpt><trkpt lat="42.0872573" lon="11.8305909"><ele>133.0</ele><time>2026-04-19T12:58:47.511Z</time></trkpt><trkpt lat="42.0872253" lon="11.8304439"><ele>133.0</ele><time>2026-04-19T12:58:48.511Z</time></trkpt><trkpt lat="42.0871941" lon="11.8302926"><ele>133.0</ele><time>2026-04-19T12:58:49.51Z</time></trkpt><trkpt lat="42.0871626" lon="11.8301363"><ele>133.0</ele><time>2026-04-19T12:58:50.511Z</time></trkpt><trkpt lat="42.0871449" lon="11.8299776"><ele>133.0</ele><time>2026-04-19T12:58:51.507Z</time></trkpt><trkpt lat="42.087132" lon="11.8298113"><ele>132.75</ele><time>2026-04-19T12:58:52.507Z</time></trkpt><trkpt lat="42.0871308" lon="11.8296573"><ele>132.5</ele><time>2026-04-19T12:58:53.506Z</time></trkpt><trkpt lat="42.0871646" lon="11.8295032"><ele>132.25</ele><time>2026-04-19T12:58:54.51Z</time></trkpt><trkpt lat="42.0871975" lon="11.8293516"><ele>132.0</ele><time>2026-04-19T12:58:55.512Z</time></trkpt><trkpt lat="42.0872204" lon="11.8291857"><ele>131.0</ele><time>2026-04-19T12:58:56.513Z</time></trkpt><trkpt lat="42.0872276" lon="11.8290112"><ele>130.0</ele><time>2026-04-19T12:58:57.511Z</time></trkpt><trkpt lat="42.0872424" lon="11.8288232"><ele>129.0</ele><time>2026-04-19T12:58:58.511Z</time></trkpt><trkpt lat="42.0872662" lon="11.8286407"><ele>128.0</ele><time>2026-04-19T12:58:59.512Z</time></trkpt><trkpt lat="42.0872913" lon="11.8284643"><ele>126.60000000000001</ele><time>2026-04-19T12:59:00.51Z</time></trkpt><trkpt lat="42.087323" lon="11.8282961"><ele>125.20000000000002</ele><time>2026-04-19T12:59:01.511Z</time></trkpt><trkpt lat="42.087351" lon="11.8281407"><ele>123.8</ele><time>2026-04-19T12:59:02.512Z</time></trkpt><trkpt lat="42.0873706" lon="11.8280073"><ele>122.4</ele><time>2026-04-19T12:59:03.507Z</time></trkpt><trkpt lat="42.0873982" lon="11.8278907"><ele>121.0</ele><time>2026-04-19T12:59:04.51Z</time></trkpt><trkpt lat="42.0873997" lon="11.8277866"><ele>121.00000000000001</ele><time>2026-04-19T12:59:05.507Z</time></trkpt><trkpt lat="42.0873362" lon="11.8277017"><ele>121.0</ele><time>2026-04-19T12:59:06.511Z</time></trkpt><trkpt lat="42.0872659" lon="11.8276456"><ele>121.0</ele><time>2026-04-19T12:59:07.511Z</time></trkpt><trkpt lat="42.0871871" lon="11.827614"><ele>121.0</ele><time>2026-04-19T12:59:08.512Z</time></trkpt><trkpt lat="42.0871002" lon="11.8275915"><ele>121.00000000000001</ele><time>2026-04-19T12:59:09.511Z</time></trkpt><trkpt lat="42.0870098" lon="11.8275609"><ele>121.0</ele><time>2026-04-19T12:59:10.509Z</time></trkpt><trkpt lat="42.0869132" lon="11.827502"><ele>120.0</ele><time>2026-04-19T12:59:11.509Z</time></trkpt><trkpt lat="42.0868355" lon="11.8274245"><ele>119.0</ele><time>2026-04-19T12:59:12.508Z</time></trkpt><trkpt lat="42.0867731" lon="11.8273103"><ele>118.0</ele><time>2026-04-19T12:59:13.507Z</time></trkpt><trkpt lat="42.0867204" lon="11.8271793"><ele>117.0</ele><time>2026-04-19T12:59:14.511Z</time></trkpt><trkpt lat="42.0866808" lon="11.8270394"><ele>116.0</ele><time>2026-04-19T12:59:15.511Z</time></trkpt><trkpt lat="42.0866374" lon="11.8268895"><ele>115.25</ele><time>2026-04-19T12:59:16.512Z</time></trkpt><trkpt lat="42.0866126" lon="11.8267378"><ele>114.5</ele><time>2026-04-19T12:59:17.509Z</time></trkpt><trkpt lat="42.0865765" lon="11.8265886"><ele>113.75</ele><time>2026-04-19T12:59:18.513Z</time></trkpt><trkpt lat="42.0865217" lon="11.8264307"><ele>113.0</ele><time>2026-04-19T12:59:19.512Z</time></trkpt><trkpt lat="42.0864597" lon="11.8262845"><ele>111.75</ele><time>2026-04-19T12:59:20.512Z</time></trkpt><trkpt lat="42.0863893" lon="11.8261293"><ele>110.5</ele><time>2026-04-19T12:59:21.511Z</time></trkpt><trkpt lat="42.0863246" lon="11.8259704"><ele>109.25</ele><time>2026-04-19T12:59:22.511Z</time></trkpt><trkpt lat="42.0862725" lon="11.8257971"><ele>108.0</ele><time>2026-04-19T12:59:23.51Z</time></trkpt><trkpt lat="42.0862258" lon="11.8256048"><ele>106.33333333333334</ele><time>2026-04-19T12:59:24.512Z</time></trkpt><trkpt lat="42.0861928" lon="11.8254092"><ele>104.66666666666667</ele><time>2026-04-19T12:59:25.508Z</time></trkpt><trkpt lat="42.0861618" lon="11.8252064"><ele>103.0</ele><time>2026-04-19T12:59:26.508Z</time></trkpt><trkpt lat="42.0861346" lon="11.8250057"><ele>101.25</ele><time>2026-04-19T12:59:27.51Z</time></trkpt><trkpt lat="42.086104" lon="11.8248087"><ele>99.5</ele><time>2026-04-19T12:59:28.511Z</time></trkpt><trkpt lat="42.0860645" lon="11.8246187"><ele>97.75</ele><time>2026-04-19T12:59:29.511Z</time></trkpt><trkpt lat="42.0860169" lon="11.8244234"><ele>96.0</ele><time>2026-04-19T12:59:30.51Z</time></trkpt><trkpt lat="42.0859751" lon="11.8242396"><ele>94.0</ele><time>2026-04-19T12:59:31.509Z</time></trkpt><trkpt lat="42.0859267" lon="11.8240611"><ele>92.0</ele><time>2026-04-19T12:59:32.506Z</time></trkpt><trkpt lat="42.0858788" lon="11.8238783"><ele>90.0</ele><time>2026-04-19T12:59:33.509Z</time></trkpt><trkpt lat="42.0858503" lon="11.8236917"><ele>88.0</ele><time>2026-04-19T12:59:34.51Z</time></trkpt><trkpt lat="42.0858222" lon="11.8235"><ele>87.0</ele><time>2026-04-19T12:59:35.511Z</time></trkpt><trkpt lat="42.0858123" lon="11.823312"><ele>86.0</ele><time>2026-04-19T12:59:36.511Z</time></trkpt><trkpt lat="42.0858043" lon="11.823132"><ele>85.0</ele><time>2026-04-19T12:59:37.508Z</time></trkpt><trkpt lat="42.0857986" lon="11.8229469"><ele>84.0</ele><time>2026-04-19T12:59:38.51Z</time></trkpt><trkpt lat="42.0857851" lon="11.8227659"><ele>82.75</ele><time>2026-04-19T12:59:39.512Z</time></trkpt><trkpt lat="42.0857621" lon="11.8225792"><ele>81.5</ele><time>2026-04-19T12:59:40.522Z</time></trkpt><trkpt lat="42.0857389" lon="11.8223868"><ele>80.25</ele><time>2026-04-19T12:59:41.511Z</time></trkpt><trkpt lat="42.0857208" lon="11.8221907"><ele>79.0</ele><time>2026-04-19T12:59:42.512Z</time></trkpt><trkpt lat="42.0857054" lon="11.8220008"><ele>77.5</ele><time>2026-04-19T12:59:43.51Z</time></trkpt><trkpt lat="42.0856879" lon="11.8218111"><ele>76.0</ele><time>2026-04-19T12:59:44.511Z</time></trkpt><trkpt lat="42.0856724" lon="11.8216225"><ele>74.5</ele><time>2026-04-19T12:59:45.508Z</time></trkpt><trkpt lat="42.0856524" lon="11.8214242"><ele>73.0</ele><time>2026-04-19T12:59:46.511Z</time></trkpt><trkpt lat="42.0856398" lon="11.8212326"><ele>73.0</ele><time>2026-04-19T12:59:47.512Z</time></trkpt><trkpt lat="42.0856218" lon="11.8210435"><ele>73.0</ele><time>2026-04-19T12:59:48.51Z</time></trkpt><trkpt lat="42.0856007" lon="11.8208643"><ele>73.0</ele><time>2026-04-19T12:59:49.511Z</time></trkpt><trkpt lat="42.0855706" lon="11.8206817"><ele>73.0</ele><time>2026-04-19T12:59:50.512Z</time></trkpt><trkpt lat="42.0855209" lon="11.8205084"><ele>72.25</ele><time>2026-04-19T12:59:51.509Z</time></trkpt><trkpt lat="42.0854702" lon="11.8203288"><ele>71.5</ele><time>2026-04-19T12:59:52.509Z</time></trkpt><trkpt lat="42.0854118" lon="11.8201526"><ele>70.75</ele><time>2026-04-19T12:59:53.506Z</time></trkpt><trkpt lat="42.0853454" lon="11.8199885"><ele>70.0</ele><time>2026-04-19T12:59:54.512Z</time></trkpt><trkpt lat="42.0852901" lon="11.8198162"><ele>68.75</ele><time>2026-04-19T12:59:55.513Z</time></trkpt><trkpt lat="42.085232" lon="11.8196465"><ele>67.5</ele><time>2026-04-19T12:59:56.511Z</time></trkpt><trkpt lat="42.0851804" lon="11.819473"><ele>66.25</ele><time>2026-04-19T12:59:57.512Z</time></trkpt><trkpt lat="42.085133" lon="11.8192937"><ele>65.0</ele><time>2026-04-19T12:59:58.512Z</time></trkpt><trkpt lat="42.0850876" lon="11.8191145"><ele>63.75</ele><time>2026-04-19T12:59:59.513Z</time></trkpt><trkpt lat="42.0850391" lon="11.81894"><ele>62.5</ele><time>2026-04-19T13:00:00.512Z</time></trkpt><trkpt lat="42.0849974" lon="11.8187544"><ele>61.25</ele><time>2026-04-19T13:00:01.512Z</time></trkpt><trkpt lat="42.0849631" lon="11.8185651"><ele>60.0</ele><time>2026-04-19T13:00:02.512Z</time></trkpt><trkpt lat="42.0849204" lon="11.8183796"><ele>58.25</ele><time>2026-04-19T13:00:03.512Z</time></trkpt><trkpt lat="42.0848835" lon="11.8181998"><ele>56.5</ele><time>2026-04-19T13:00:04.511Z</time></trkpt><trkpt lat="42.0848356" lon="11.8180242"><ele>54.75</ele><time>2026-04-19T13:00:05.51Z</time></trkpt><trkpt lat="42.0847998" lon="11.8178352"><ele>53.0</ele><time>2026-04-19T13:00:06.511Z</time></trkpt><trkpt lat="42.0847507" lon="11.8176633"><ele>51.25</ele><time>2026-04-19T13:00:07.512Z</time></trkpt><trkpt lat="42.0847027" lon="11.8174946"><ele>49.5</ele><time>2026-04-19T13:00:08.51Z</time></trkpt><trkpt lat="42.0846358" lon="11.8173185"><ele>47.75</ele><time>2026-04-19T13:00:09.51Z</time></trkpt><trkpt lat="42.0845593" lon="11.8171535"><ele>46.0</ele><time>2026-04-19T13:00:10.509Z</time></trkpt><trkpt lat="42.0844881" lon="11.8169844"><ele>45.0</ele><time>2026-04-19T13:00:11.517Z</time></trkpt><trkpt lat="42.0844031" lon="11.8168148"><ele>44.0</ele><time>2026-04-19T13:00:12.506Z</time></trkpt><trkpt lat="42.0843291" lon="11.8166366"><ele>43.0</ele><time>2026-04-19T13:00:13.506Z</time></trkpt><trkpt lat="42.0842742" lon="11.8164494"><ele>43.0</ele><time>2026-04-19T13:00:14.508Z</time></trkpt><trkpt lat="42.0842305" lon="11.8162561"><ele>43.0</ele><time>2026-04-19T13:00:15.512Z</time></trkpt><trkpt lat="42.0841847" lon="11.8160692"><ele>43.0</ele><time>2026-04-19T13:00:16.508Z</time></trkpt><trkpt lat="42.0841342" lon="11.8158846"><ele>43.0</ele><time>2026-04-19T13:00:17.507Z</time></trkpt><trkpt lat="42.0840909" lon="11.8157043"><ele>41.75</ele><time>2026-04-19T13:00:18.509Z</time></trkpt><trkpt lat="42.0840593" lon="11.815521"><ele>40.5</ele><time>2026-04-19T13:00:19.512Z</time></trkpt><trkpt lat="42.084027" lon="11.8153377"><ele>39.25</ele><time>2026-04-19T13:00:20.512Z</time></trkpt><trkpt lat="42.0840151" lon="11.81515"><ele>38.0</ele><time>2026-04-19T13:00:21.512Z</time></trkpt><trkpt lat="42.0839854" lon="11.8149711"><ele>38.0</ele><time>2026-04-19T13:00:22.511Z</time></trkpt><trkpt lat="42.0839348" lon="11.8147987"><ele>38.0</ele><time>2026-04-19T13:00:23.508Z</time></trkpt><trkpt lat="42.0838817" lon="11.8146406"><ele>38.0</ele><time>2026-04-19T13:00:24.51Z</time></trkpt><trkpt lat="42.0838232" lon="11.8144958"><ele>38.0</ele><time>2026-04-19T13:00:25.51Z</time></trkpt><trkpt lat="42.0837722" lon="11.8143557"><ele>37.4</ele><time>2026-04-19T13:00:26.51Z</time></trkpt><trkpt lat="42.083714" lon="11.8142226"><ele>36.8</ele><time>2026-04-19T13:00:27.51Z</time></trkpt><trkpt lat="42.0836644" lon="11.8140864"><ele>36.2</ele><time>2026-04-19T13:00:28.511Z</time></trkpt><trkpt lat="42.0836101" lon="11.8139569"><ele>35.6</ele><time>2026-04-19T13:00:29.511Z</time></trkpt><trkpt lat="42.0835525" lon="11.8138405"><ele>35.0</ele><time>2026-04-19T13:00:30.512Z</time></trkpt><trkpt lat="42.0834993" lon="11.8137157"><ele>35.0</ele><time>2026-04-19T13:00:31.508Z</time></trkpt><trkpt lat="42.0834452" lon="11.8135981"><ele>35.0</ele><time>2026-04-19T13:00:32.506Z</time></trkpt><trkpt lat="42.0833896" lon="11.8134841"><ele>35.0</ele><time>2026-04-19T13:00:33.507Z</time></trkpt><trkpt lat="42.0833384" lon="11.8133677"><ele>35.0</ele><time>2026-04-19T13:00:34.512Z</time></trkpt><trkpt lat="42.0832879" lon="11.8132558"><ele>35.0</ele><time>2026-04-19T13:00:35.513Z</time></trkpt><trkpt lat="42.0832409" lon="11.8131444"><ele>34.5</ele><time>2026-04-19T13:00:36.511Z</time></trkpt><trkpt lat="42.0831914" lon="11.813034"><ele>34.0</ele><time>2026-04-19T13:00:37.511Z</time></trkpt><trkpt lat="42.0831451" lon="11.8129311"><ele>33.5</ele><time>2026-04-19T13:00:38.511Z</time></trkpt><trkpt lat="42.0831251" lon="11.8128318"><ele>33.0</ele><time>2026-04-19T13:00:39.51Z</time></trkpt><trkpt lat="42.0830797" lon="11.812763"><ele>32.5</ele><time>2026-04-19T13:00:40.512Z</time></trkpt><trkpt lat="42.0829798" lon="11.8127685"><ele>32.0</ele><time>2026-04-19T13:00:42.511Z</time></trkpt><trkpt lat="42.082918" lon="11.8128759"><ele>31.999999999999996</ele><time>2026-04-19T13:00:44.508Z</time></trkpt><trkpt lat="42.0828263" lon="11.8129817"><ele>32.0</ele><time>2026-04-19T13:00:46.511Z</time></trkpt><trkpt lat="42.0827677" lon="11.8130309"><ele>32.0</ele><time>2026-04-19T13:00:47.51Z</time></trkpt><trkpt lat="42.0827121" lon="11.8130895"><ele>32.0</ele><time>2026-04-19T13:00:48.511Z</time></trkpt><trkpt lat="42.082651" lon="11.8131272"><ele>31.999999999999996</ele><time>2026-04-19T13:00:49.511Z</time></trkpt><trkpt lat="42.0825895" lon="11.8131719"><ele>32.0</ele><time>2026-04-19T13:00:50.508Z</time></trkpt><trkpt lat="42.0825343" lon="11.8132222"><ele>32.0</ele><time>2026-04-19T13:00:51.508Z</time></trkpt><trkpt lat="42.0824707" lon="11.8132712"><ele>31.999999999999996</ele><time>2026-04-19T13:00:52.506Z</time></trkpt><trkpt lat="42.0824069" lon="11.8133195"><ele>32.0</ele><time>2026-04-19T13:00:53.507Z</time></trkpt><trkpt lat="42.0823464" lon="11.8133721"><ele>32.0</ele><time>2026-04-19T13:00:54.511Z</time></trkpt><trkpt lat="42.0822874" lon="11.8134164"><ele>31.999999999999996</ele><time>2026-04-19T13:00:55.511Z</time></trkpt><trkpt lat="42.0822306" lon="11.8134761"><ele>32.0</ele><time>2026-04-19T13:00:56.51Z</time></trkpt><trkpt lat="42.0821727" lon="11.8135254"><ele>32.0</ele><time>2026-04-19T13:00:57.513Z</time></trkpt><trkpt lat="42.0820622" lon="11.8136075"><ele>31.400000000000002</ele><time>2026-04-19T13:00:59.51Z</time></trkpt><trkpt lat="42.0819588" lon="11.8136994"><ele>30.800000000000004</ele><time>2026-04-19T13:01:01.507Z</time></trkpt><trkpt lat="42.0819035" lon="11.8137448"><ele>30.2</ele><time>2026-04-19T13:01:02.511Z</time></trkpt><trkpt lat="42.0818017" lon="11.8138255"><ele>29.6</ele><time>2026-04-19T13:01:04.509Z</time></trkpt><trkpt lat="42.0817089" lon="11.8139092"><ele>29.0</ele><time>2026-04-19T13:01:06.51Z</time></trkpt><trkpt lat="42.0816818" lon="11.8138027"><ele>29.0</ele><time>2026-04-19T13:01:08.509Z</time></trkpt><trkpt lat="42.0817801" lon="11.8136977"><ele>29.0</ele><time>2026-04-19T13:01:10.509Z</time></trkpt><trkpt lat="42.0818828" lon="11.8136227"><ele>29.0</ele><time>2026-04-19T13:01:12.506Z</time></trkpt><trkpt lat="42.0819806" lon="11.8135209"><ele>29.0</ele><time>2026-04-19T13:01:14.506Z</time></trkpt><trkpt lat="42.0820262" lon="11.8134486"><ele>29.0</ele><time>2026-04-19T13:01:15.505Z</time></trkpt><trkpt lat="42.0820614" lon="11.8133688"><ele>28.85714285714286</ele><time>2026-04-19T13:01:16.506Z</time></trkpt><trkpt lat="42.0820978" lon="11.8132887"><ele>28.714285714285715</ele><time>2026-04-19T13:01:17.51Z</time></trkpt><trkpt lat="42.0821372" lon="11.8132182"><ele>28.571428571428573</ele><time>2026-04-19T13:01:18.508Z</time></trkpt><trkpt lat="42.0821638" lon="11.8131314"><ele>28.42857142857143</ele><time>2026-04-19T13:01:19.508Z</time></trkpt><trkpt lat="42.0821664" lon="11.8130312"><ele>28.285714285714285</ele><time>2026-04-19T13:01:20.507Z</time></trkpt><trkpt lat="42.0821633" lon="11.8129458"><ele>28.142857142857142</ele><time>2026-04-19T13:01:21.511Z</time></trkpt><trkpt lat="42.0821516" lon="11.8128596"><ele>28.0</ele><time>2026-04-19T13:01:22.509Z</time></trkpt><trkpt lat="42.0821372" lon="11.8127756"><ele>28.0</ele><time>2026-04-19T13:01:23.509Z</time></trkpt><trkpt lat="42.0821131" lon="11.8126899"><ele>28.0</ele><time>2026-04-19T13:01:24.508Z</time></trkpt><trkpt lat="42.0820878" lon="11.8126018"><ele>28.0</ele><time>2026-04-19T13:01:25.509Z</time></trkpt><trkpt lat="42.0820583" lon="11.8125105"><ele>28.0</ele><time>2026-04-19T13:01:26.506Z</time></trkpt><trkpt lat="42.0820355" lon="11.8124243"><ele>28.0</ele><time>2026-04-19T13:01:27.512Z</time></trkpt><trkpt lat="42.0820082" lon="11.8123329"><ele>28.0</ele><time>2026-04-19T13:01:28.512Z</time></trkpt><trkpt lat="42.0819835" lon="11.8122461"><ele>28.0</ele><time>2026-04-19T13:01:29.509Z</time></trkpt><trkpt lat="42.0819506" lon="11.8121564"><ele>27.500000000000004</ele><time>2026-04-19T13:01:30.512Z</time></trkpt><trkpt lat="42.081921" lon="11.8120604"><ele>27.0</ele><time>2026-04-19T13:01:31.507Z</time></trkpt><trkpt lat="42.0818892" lon="11.8119686"><ele>26.5</ele><time>2026-04-19T13:01:32.508Z</time></trkpt><trkpt lat="42.0818569" lon="11.8118776"><ele>26.0</ele><time>2026-04-19T13:01:33.508Z</time></trkpt><trkpt lat="42.0818223" lon="11.8117826"><ele>25.500000000000004</ele><time>2026-04-19T13:01:34.511Z</time></trkpt><trkpt lat="42.0817937" lon="11.8116976"><ele>25.0</ele><time>2026-04-19T13:01:35.507Z</time></trkpt><trkpt lat="42.0817553" lon="11.8116076"><ele>25.000000000000004</ele><time>2026-04-19T13:01:36.51Z</time></trkpt><trkpt lat="42.0817243" lon="11.8115174"><ele>25.0</ele><time>2026-04-19T13:01:37.51Z</time></trkpt><trkpt lat="42.0816924" lon="11.8114365"><ele>25.0</ele><time>2026-04-19T13:01:38.511Z</time></trkpt><trkpt lat="42.081659" lon="11.8113475"><ele>25.0</ele><time>2026-04-19T13:01:39.51Z</time></trkpt><trkpt lat="42.0816247" lon="11.8112609"><ele>25.0</ele><time>2026-04-19T13:01:40.511Z</time></trkpt><trkpt lat="42.0815909" lon="11.8111694"><ele>25.000000000000004</ele><time>2026-04-19T13:01:41.511Z</time></trkpt><trkpt lat="42.0815526" lon="11.8110756"><ele>25.0</ele><time>2026-04-19T13:01:42.512Z</time></trkpt><trkpt lat="42.0815135" lon="11.8109915"><ele>24.500000000000004</ele><time>2026-04-19T13:01:43.513Z</time></trkpt><trkpt lat="42.0814695" lon="11.8109042"><ele>24.0</ele><time>2026-04-19T13:01:44.513Z</time></trkpt><trkpt lat="42.0814361" lon="11.8108026"><ele>23.5</ele><time>2026-04-19T13:01:45.512Z</time></trkpt><trkpt lat="42.0814003" lon="11.8107031"><ele>23.0</ele><time>2026-04-19T13:01:46.511Z</time></trkpt><trkpt lat="42.0813646" lon="11.8106139"><ele>22.5</ele><time>2026-04-19T13:01:47.513Z</time></trkpt><trkpt lat="42.0813371" lon="11.8105203"><ele>22.0</ele><time>2026-04-19T13:01:48.512Z</time></trkpt><trkpt lat="42.0813021" lon="11.8104278"><ele>22.0</ele><time>2026-04-19T13:01:49.511Z</time></trkpt><trkpt lat="42.0812659" lon="11.8103419"><ele>22.0</ele><time>2026-04-19T13:01:50.51Z</time></trkpt><trkpt lat="42.0812307" lon="11.8102549"><ele>22.0</ele><time>2026-04-19T13:01:51.512Z</time></trkpt><trkpt lat="42.0811934" lon="11.8101703"><ele>22.0</ele><time>2026-04-19T13:01:52.507Z</time></trkpt><trkpt lat="42.0811643" lon="11.8100788"><ele>22.0</ele><time>2026-04-19T13:01:53.507Z</time></trkpt><trkpt lat="42.081134" lon="11.8099821"><ele>22.0</ele><time>2026-04-19T13:01:54.512Z</time></trkpt><trkpt lat="42.081116" lon="11.8098836"><ele>22.0</ele><time>2026-04-19T13:01:55.512Z</time></trkpt><trkpt lat="42.0811028" lon="11.8097822"><ele>21.285714285714285</ele><time>2026-04-19T13:01:56.511Z</time></trkpt><trkpt lat="42.0810973" lon="11.8096868"><ele>20.57142857142857</ele><time>2026-04-19T13:01:57.511Z</time></trkpt><trkpt lat="42.0810956" lon="11.8095855"><ele>19.857142857142854</ele><time>2026-04-19T13:01:58.513Z</time></trkpt><trkpt lat="42.0810855" lon="11.8094911"><ele>19.142857142857142</ele><time>2026-04-19T13:01:59.508Z</time></trkpt><trkpt lat="42.08108" lon="11.8093997"><ele>18.428571428571427</ele><time>2026-04-19T13:02:00.512Z</time></trkpt><trkpt lat="42.0810814" lon="11.8093012"><ele>17.71428571428571</ele><time>2026-04-19T13:02:01.509Z</time></trkpt><trkpt lat="42.0810715" lon="11.8092049"><ele>17.0</ele><time>2026-04-19T13:02:02.512Z</time></trkpt><trkpt lat="42.0810682" lon="11.8091145"><ele>16.833333333333336</ele><time>2026-04-19T13:02:03.508Z</time></trkpt><trkpt lat="42.0810629" lon="11.8090182"><ele>16.666666666666668</ele><time>2026-04-19T13:02:04.512Z</time></trkpt><trkpt lat="42.0810611" lon="11.8089268"><ele>16.5</ele><time>2026-04-19T13:02:05.511Z</time></trkpt><trkpt lat="42.0810687" lon="11.8088364"><ele>16.333333333333332</ele><time>2026-04-19T13:02:06.514Z</time></trkpt><trkpt lat="42.0810758" lon="11.8087032"><ele>16.166666666666664</ele><time>2026-04-19T13:02:08.511Z</time></trkpt><trkpt lat="42.0810856" lon="11.8086026"><ele>16.0</ele><time>2026-04-19T13:02:10.512Z</time></trkpt><trkpt lat="42.0810633" lon="11.8084806"><ele>15.333333333333332</ele><time>2026-04-19T13:02:12.513Z</time></trkpt><trkpt lat="42.0811013" lon="11.8083176"><ele>14.666666666666666</ele><time>2026-04-19T13:02:14.512Z</time></trkpt><trkpt lat="42.0811315" lon="11.8082289"><ele>14.0</ele><time>2026-04-19T13:02:15.512Z</time></trkpt><trkpt lat="42.0811479" lon="11.8081288"><ele>13.333333333333332</ele><time>2026-04-19T13:02:16.513Z</time></trkpt><trkpt lat="42.0811591" lon="11.8080207"><ele>12.666666666666666</ele><time>2026-04-19T13:02:17.51Z</time></trkpt><trkpt lat="42.0811643" lon="11.8079062"><ele>12.0</ele><time>2026-04-19T13:02:18.512Z</time></trkpt><trkpt lat="42.0811696" lon="11.8077932"><ele>12.0</ele><time>2026-04-19T13:02:19.511Z</time></trkpt><trkpt lat="42.0811745" lon="11.8076667"><ele>12.0</ele><time>2026-04-19T13:02:20.514Z</time></trkpt><trkpt lat="42.0811789" lon="11.8075349"><ele>12.0</ele><time>2026-04-19T13:02:21.511Z</time></trkpt><trkpt lat="42.0811704" lon="11.8074056"><ele>12.0</ele><time>2026-04-19T13:02:22.512Z</time></trkpt><trkpt lat="42.0811467" lon="11.8072956"><ele>12.0</ele><time>2026-04-19T13:02:23.513Z</time></trkpt><trkpt lat="42.0811344" lon="11.8071877"><ele>11.2</ele><time>2026-04-19T13:02:24.506Z</time></trkpt><trkpt lat="42.0811425" lon="11.80708"><ele>10.399999999999999</ele><time>2026-04-19T13:02:25.511Z</time></trkpt><trkpt lat="42.0812165" lon="11.8070511"><ele>9.600000000000001</ele><time>2026-04-19T13:02:26.511Z</time></trkpt><trkpt lat="42.0813076" lon="11.8069993"><ele>8.8</ele><time>2026-04-19T13:02:28.51Z</time></trkpt><trkpt lat="42.0813988" lon="11.8069398"><ele>8.0</ele><time>2026-04-19T13:02:30.514Z</time></trkpt><trkpt lat="42.0814814" lon="11.8068728"><ele>8.0</ele><time>2026-04-19T13:02:32.51Z</time></trkpt><trkpt lat="42.0815675" lon="11.8068129"><ele>8.0</ele><time>2026-04-19T13:02:34.514Z</time></trkpt><trkpt lat="42.0816558" lon="11.8067456"><ele>8.0</ele><time>2026-04-19T13:02:36.51Z</time></trkpt><trkpt lat="42.0817496" lon="11.8066841"><ele>8.0</ele><time>2026-04-19T13:02:38.512Z</time></trkpt><trkpt lat="42.0818534" lon="11.8066327"><ele>8.0</ele><time>2026-04-19T13:02:40.512Z</time></trkpt><trkpt lat="42.0819127" lon="11.8066027"><ele>8.0</ele><time>2026-04-19T13:02:41.516Z</time></trkpt><trkpt lat="42.0820235" lon="11.8065477"><ele>8.0</ele><time>2026-04-19T13:02:43.509Z</time></trkpt><trkpt lat="42.0821424" lon="11.8064869"><ele>8.0</ele><time>2026-04-19T13:02:45.512Z</time></trkpt><trkpt lat="42.0822518" lon="11.8064231"><ele>8.0</ele><time>2026-04-19T13:02:47.519Z</time></trkpt><trkpt lat="42.0823697" lon="11.806363"><ele>8.0</ele><time>2026-04-19T13:02:49.509Z</time></trkpt><trkpt lat="42.0824262" lon="11.8063213"><ele>8.0</ele><time>2026-04-19T13:02:50.513Z</time></trkpt><trkpt lat="42.0825219" lon="11.8062336"><ele>8.0</ele><time>2026-04-19T13:02:52.507Z</time></trkpt><trkpt lat="42.082603" lon="11.8061528"><ele>8.0</ele><time>2026-04-19T13:02:54.511Z</time></trkpt><trkpt lat="42.0826798" lon="11.8060674"><ele>8.0</ele><time>2026-04-19T13:02:56.512Z</time></trkpt><trkpt lat="42.0827473" lon="11.805999"><ele>8.600000000000001</ele><time>2026-04-19T13:02:58.512Z</time></trkpt><trkpt lat="42.0828063" lon="11.8059434"><ele>9.200000000000001</ele><time>2026-04-19T13:03:00.513Z</time></trkpt><trkpt lat="42.0828759" lon="11.8058832"><ele>9.8</ele><time>2026-04-19T13:03:05.51Z</time></trkpt><trkpt lat="42.0829272" lon="11.8058015"><ele>10.4</ele><time>2026-04-19T13:03:07.511Z</time></trkpt><trkpt lat="42.0830088" lon="11.8056942"><ele>11.0</ele><time>2026-04-19T13:03:09.51Z</time></trkpt><trkpt lat="42.0830895" lon="11.8055807"><ele>11.0</ele><time>2026-04-19T13:03:11.508Z</time></trkpt><trkpt lat="42.0831416" lon="11.8055194"><ele>11.0</ele><time>2026-04-19T13:03:12.506Z</time></trkpt><trkpt lat="42.0831929" lon="11.8054601"><ele>11.0</ele><time>2026-04-19T13:03:13.506Z</time></trkpt><trkpt lat="42.0832439" lon="11.8054055"><ele>11.0</ele><time>2026-04-19T13:03:14.511Z</time></trkpt><trkpt lat="42.0833291" lon="11.8052872"><ele>11.0</ele><time>2026-04-19T13:03:16.515Z</time></trkpt><trkpt lat="42.0834113" lon="11.8051661"><ele>11.0</ele><time>2026-04-19T13:03:18.512Z</time></trkpt><trkpt lat="42.0834579" lon="11.8051059"><ele>11.200000000000001</ele><time>2026-04-19T13:03:19.512Z</time></trkpt><trkpt lat="42.083501" lon="11.8050388"><ele>11.4</ele><time>2026-04-19T13:03:20.51Z</time></trkpt><trkpt lat="42.0835443" lon="11.8049735"><ele>11.6</ele><time>2026-04-19T13:03:21.513Z</time></trkpt><trkpt lat="42.0836355" lon="11.8048485"><ele>11.8</ele><time>2026-04-19T13:03:23.51Z</time></trkpt><trkpt lat="42.0837233" lon="11.8047276"><ele>12.0</ele><time>2026-04-19T13:03:25.511Z</time></trkpt><trkpt lat="42.0837685" lon="11.8046678"><ele>12.0</ele><time>2026-04-19T13:03:26.51Z</time></trkpt><trkpt lat="42.0838596" lon="11.8045574"><ele>12.0</ele><time>2026-04-19T13:03:28.515Z</time></trkpt><trkpt lat="42.0839488" lon="11.8044394"><ele>12.0</ele><time>2026-04-19T13:03:30.512Z</time></trkpt><trkpt lat="42.0840295" lon="11.804326"><ele>12.0</ele><time>2026-04-19T13:03:32.508Z</time></trkpt><trkpt lat="42.0840779" lon="11.8042529"><ele>12.0</ele><time>2026-04-19T13:03:33.508Z</time></trkpt><trkpt lat="42.0841248" lon="11.8041887"><ele>12.333333333333334</ele><time>2026-04-19T13:03:34.509Z</time></trkpt><trkpt lat="42.084172" lon="11.8041264"><ele>12.666666666666668</ele><time>2026-04-19T13:03:35.512Z</time></trkpt><trkpt lat="42.0842187" lon="11.8040662"><ele>13.0</ele><time>2026-04-19T13:03:36.513Z</time></trkpt><trkpt lat="42.0842581" lon="11.804"><ele>13.333333333333334</ele><time>2026-04-19T13:03:37.51Z</time></trkpt><trkpt lat="42.0843436" lon="11.803894"><ele>13.666666666666668</ele><time>2026-04-19T13:03:39.519Z</time></trkpt><trkpt lat="42.0844123" lon="11.8037868"><ele>14.0</ele><time>2026-04-19T13:03:41.51Z</time></trkpt><trkpt lat="42.0844603" lon="11.803727"><ele>14.000000000000002</ele><time>2026-04-19T13:03:42.511Z</time></trkpt><trkpt lat="42.084509" lon="11.8036717"><ele>14.0</ele><time>2026-04-19T13:03:43.508Z</time></trkpt><trkpt lat="42.0845889" lon="11.8035501"><ele>14.0</ele><time>2026-04-19T13:03:45.511Z</time></trkpt><trkpt lat="42.0846771" lon="11.8034229"><ele>14.0</ele><time>2026-04-19T13:03:47.509Z</time></trkpt><trkpt lat="42.0847232" lon="11.8033604"><ele>14.000000000000002</ele><time>2026-04-19T13:03:48.511Z</time></trkpt><trkpt lat="42.0847701" lon="11.8032971"><ele>14.0</ele><time>2026-04-19T13:03:49.51Z</time></trkpt><trkpt lat="42.0848254" lon="11.8032361"><ele>13.833333333333334</ele><time>2026-04-19T13:03:50.512Z</time></trkpt><trkpt lat="42.0848711" lon="11.8031654"><ele>13.666666666666668</ele><time>2026-04-19T13:03:51.51Z</time></trkpt><trkpt lat="42.084918" lon="11.8031077"><ele>13.5</ele><time>2026-04-19T13:03:52.507Z</time></trkpt><trkpt lat="42.0849625" lon="11.8030362"><ele>13.333333333333332</ele><time>2026-04-19T13:03:53.506Z</time></trkpt><trkpt lat="42.0850078" lon="11.8029643"><ele>13.166666666666666</ele><time>2026-04-19T13:03:54.51Z</time></trkpt><trkpt lat="42.0850653" lon="11.802903"><ele>13.0</ele><time>2026-04-19T13:03:55.508Z</time></trkpt><trkpt lat="42.0851503" lon="11.8027731"><ele>13.0</ele><time>2026-04-19T13:03:57.511Z</time></trkpt><trkpt lat="42.0851928" lon="11.8026997"><ele>13.0</ele><time>2026-04-19T13:03:58.508Z</time></trkpt><trkpt lat="42.085245" lon="11.8026244"><ele>13.0</ele><time>2026-04-19T13:03:59.512Z</time></trkpt><trkpt lat="42.0852937" lon="11.8025627"><ele>13.0</ele><time>2026-04-19T13:04:00.511Z</time></trkpt><trkpt lat="42.0853444" lon="11.8025035"><ele>13.0</ele><time>2026-04-19T13:04:01.51Z</time></trkpt><trkpt lat="42.0853854" lon="11.8024302"><ele>13.0</ele><time>2026-04-19T13:04:02.511Z</time></trkpt><trkpt lat="42.08543" lon="11.8023698"><ele>13.0</ele><time>2026-04-19T13:04:03.511Z</time></trkpt><trkpt lat="42.0855299" lon="11.8022428"><ele>12.999999999999998</ele><time>2026-04-19T13:04:05.512Z</time></trkpt><trkpt lat="42.085601" lon="11.802112"><ele>13.0</ele><time>2026-04-19T13:04:07.514Z</time></trkpt><trkpt lat="42.0856404" lon="11.8020454"><ele>13.0</ele><time>2026-04-19T13:04:08.509Z</time></trkpt><trkpt lat="42.0857004" lon="11.8019958"><ele>13.0</ele><time>2026-04-19T13:04:09.509Z</time></trkpt><trkpt lat="42.0857532" lon="11.8019434"><ele>12.999999999999998</ele><time>2026-04-19T13:04:10.51Z</time></trkpt><trkpt lat="42.0857978" lon="11.8018795"><ele>13.0</ele><time>2026-04-19T13:04:11.507Z</time></trkpt><trkpt lat="42.0858478" lon="11.8018167"><ele>12.8</ele><time>2026-04-19T13:04:12.507Z</time></trkpt><trkpt lat="42.0859432" lon="11.8016956"><ele>12.600000000000001</ele><time>2026-04-19T13:04:14.512Z</time></trkpt><trkpt lat="42.0860287" lon="11.801586"><ele>12.399999999999999</ele><time>2026-04-19T13:04:16.511Z</time></trkpt><trkpt lat="42.086072" lon="11.8015115"><ele>12.2</ele><time>2026-04-19T13:04:17.513Z</time></trkpt><trkpt lat="42.0861149" lon="11.8014418"><ele>12.0</ele><time>2026-04-19T13:04:18.511Z</time></trkpt><trkpt lat="42.0861562" lon="11.8013666"><ele>12.0</ele><time>2026-04-19T13:04:19.511Z</time></trkpt><trkpt lat="42.0861943" lon="11.8012914"><ele>12.0</ele><time>2026-04-19T13:04:20.51Z</time></trkpt><trkpt lat="42.0862332" lon="11.8012164"><ele>12.0</ele><time>2026-04-19T13:04:21.51Z</time></trkpt><trkpt lat="42.0862716" lon="11.8011349"><ele>12.0</ele><time>2026-04-19T13:04:22.512Z</time></trkpt><trkpt lat="42.0863074" lon="11.8010578"><ele>12.0</ele><time>2026-04-19T13:04:23.52Z</time></trkpt><trkpt lat="42.0863783" lon="11.8009062"><ele>12.0</ele><time>2026-04-19T13:04:25.512Z</time></trkpt><trkpt lat="42.0864181" lon="11.8008256"><ele>11.285714285714285</ele><time>2026-04-19T13:04:26.512Z</time></trkpt><trkpt lat="42.0864579" lon="11.8007471"><ele>10.571428571428571</ele><time>2026-04-19T13:04:27.512Z</time></trkpt><trkpt lat="42.0864929" lon="11.8006581"><ele>9.857142857142858</ele><time>2026-04-19T13:04:28.509Z</time></trkpt><trkpt lat="42.0865292" lon="11.800576"><ele>9.142857142857142</ele><time>2026-04-19T13:04:29.509Z</time></trkpt><trkpt lat="42.0865711" lon="11.8004957"><ele>8.428571428571429</ele><time>2026-04-19T13:04:30.511Z</time></trkpt><trkpt lat="42.0866073" lon="11.8004164"><ele>7.714285714285714</ele><time>2026-04-19T13:04:31.508Z</time></trkpt><trkpt lat="42.0866462" lon="11.8003367"><ele>7.0</ele><time>2026-04-19T13:04:32.506Z</time></trkpt><trkpt lat="42.0866893" lon="11.8002608"><ele>7.0</ele><time>2026-04-19T13:04:33.506Z</time></trkpt><trkpt lat="42.0867616" lon="11.8001011"><ele>6.999999999999999</ele><time>2026-04-19T13:04:35.515Z</time></trkpt><trkpt lat="42.0867905" lon="11.800023"><ele>6.999999999999999</ele><time>2026-04-19T13:04:36.515Z</time></trkpt><trkpt lat="42.0868294" lon="11.7999444"><ele>7.0</ele><time>2026-04-19T13:04:37.51Z</time></trkpt><trkpt lat="42.0868906" lon="11.7998145"><ele>7.0</ele><time>2026-04-19T13:04:39.514Z</time></trkpt><trkpt lat="42.0869582" lon="11.7996721"><ele>7.0</ele><time>2026-04-19T13:04:41.512Z</time></trkpt><trkpt lat="42.0870186" lon="11.7995157"><ele>6.999999999999999</ele><time>2026-04-19T13:04:43.511Z</time></trkpt><trkpt lat="42.087083" lon="11.7993695"><ele>6.999999999999999</ele><time>2026-04-19T13:04:45.512Z</time></trkpt><trkpt lat="42.0871213" lon="11.7992968"><ele>7.0</ele><time>2026-04-19T13:04:46.511Z</time></trkpt><trkpt lat="42.0871593" lon="11.7992202"><ele>7.0</ele><time>2026-04-19T13:04:47.511Z</time></trkpt><trkpt lat="42.0872212" lon="11.7990786"><ele>6.666666666666667</ele><time>2026-04-19T13:04:49.511Z</time></trkpt><trkpt lat="42.0872906" lon="11.7989312"><ele>6.333333333333334</ele><time>2026-04-19T13:04:51.508Z</time></trkpt><trkpt lat="42.0873246" lon="11.7988508"><ele>6.0</ele><time>2026-04-19T13:04:52.507Z</time></trkpt><trkpt lat="42.0873644" lon="11.7987707"><ele>5.666666666666667</ele><time>2026-04-19T13:04:53.507Z</time></trkpt><trkpt lat="42.0873923" lon="11.7986938"><ele>5.333333333333334</ele><time>2026-04-19T13:04:54.508Z</time></trkpt><trkpt lat="42.0874248" lon="11.798616"><ele>5.0</ele><time>2026-04-19T13:04:55.506Z</time></trkpt><trkpt lat="42.0874594" lon="11.7985414"><ele>6.0</ele><time>2026-04-19T13:04:56.507Z</time></trkpt><trkpt lat="42.0875245" lon="11.7983973"><ele>7.0</ele><time>2026-04-19T13:04:58.511Z</time></trkpt><trkpt lat="42.0875634" lon="11.7983242"><ele>8.0</ele><time>2026-04-19T13:04:59.51Z</time></trkpt><trkpt lat="42.087626" lon="11.7981778"><ele>9.0</ele><time>2026-04-19T13:05:01.512Z</time></trkpt><trkpt lat="42.0876675" lon="11.7981035"><ele>10.0</ele><time>2026-04-19T13:05:02.51Z</time></trkpt><trkpt lat="42.0876984" lon="11.7980266"><ele>10.0</ele><time>2026-04-19T13:05:03.51Z</time></trkpt><trkpt lat="42.0877606" lon="11.7978971"><ele>10.0</ele><time>2026-04-19T13:05:05.507Z</time></trkpt><trkpt lat="42.0878257" lon="11.7977671"><ele>10.0</ele><time>2026-04-19T13:05:07.514Z</time></trkpt><trkpt lat="42.087857" lon="11.7976933"><ele>10.0</ele><time>2026-04-19T13:05:08.51Z</time></trkpt><trkpt lat="42.0879014" lon="11.7976254"><ele>10.0</ele><time>2026-04-19T13:05:09.509Z</time></trkpt><trkpt lat="42.087965" lon="11.7974834"><ele>9.4</ele><time>2026-04-19T13:05:11.507Z</time></trkpt><trkpt lat="42.0880408" lon="11.7973434"><ele>8.8</ele><time>2026-04-19T13:05:13.508Z</time></trkpt><trkpt lat="42.0880763" lon="11.7972719"><ele>8.2</ele><time>2026-04-19T13:05:14.507Z</time></trkpt><trkpt lat="42.0881411" lon="11.7971279"><ele>7.6</ele><time>2026-04-19T13:05:16.511Z</time></trkpt><trkpt lat="42.0881861" lon="11.7970642"><ele>7.0</ele><time>2026-04-19T13:05:17.509Z</time></trkpt><trkpt lat="42.088223" lon="11.7969872"><ele>7.000000000000001</ele><time>2026-04-19T13:05:18.508Z</time></trkpt><trkpt lat="42.0882583" lon="11.7969154"><ele>7.0</ele><time>2026-04-19T13:05:19.51Z</time></trkpt><trkpt lat="42.0883018" lon="11.7968502"><ele>7.0</ele><time>2026-04-19T13:05:20.509Z</time></trkpt><trkpt lat="42.0883382" lon="11.7967727"><ele>7.0</ele><time>2026-04-19T13:05:21.51Z</time></trkpt><trkpt lat="42.0884112" lon="11.7966349"><ele>7.000000000000001</ele><time>2026-04-19T13:05:23.513Z</time></trkpt><trkpt lat="42.0884404" lon="11.7965589"><ele>7.0</ele><time>2026-04-19T13:05:24.511Z</time></trkpt><trkpt lat="42.0885133" lon="11.7964218"><ele>6.6</ele><time>2026-04-19T13:05:26.512Z</time></trkpt><trkpt lat="42.0885877" lon="11.7962816"><ele>6.199999999999999</ele><time>2026-04-19T13:05:28.51Z</time></trkpt><trkpt lat="42.0886197" lon="11.7961998"><ele>5.8</ele><time>2026-04-19T13:05:29.509Z</time></trkpt><trkpt lat="42.0886933" lon="11.7960611"><ele>5.4</ele><time>2026-04-19T13:05:31.507Z</time></trkpt><trkpt lat="42.0887292" lon="11.7959882"><ele>5.0</ele><time>2026-04-19T13:05:32.506Z</time></trkpt><trkpt lat="42.088793" lon="11.7958457"><ele>4.6</ele><time>2026-04-19T13:05:34.511Z</time></trkpt><trkpt lat="42.0888481" lon="11.7956959"><ele>4.2</ele><time>2026-04-19T13:05:36.511Z</time></trkpt><trkpt lat="42.088916" lon="11.7955513"><ele>3.8</ele><time>2026-04-19T13:05:38.512Z</time></trkpt><trkpt lat="42.0889795" lon="11.7954139"><ele>3.4</ele><time>2026-04-19T13:05:40.511Z</time></trkpt><trkpt lat="42.0890121" lon="11.7953408"><ele>3.0</ele><time>2026-04-19T13:05:41.512Z</time></trkpt><trkpt lat="42.0890805" lon="11.795206"><ele>3.8</ele><time>2026-04-19T13:05:43.51Z</time></trkpt><trkpt lat="42.0891348" lon="11.795094"><ele>4.6</ele><time>2026-04-19T13:05:45.511Z</time></trkpt><trkpt lat="42.0892002" lon="11.7949616"><ele>5.3999999999999995</ele><time>2026-04-19T13:05:47.511Z</time></trkpt><trkpt lat="42.0892628" lon="11.7948243"><ele>6.199999999999999</ele><time>2026-04-19T13:05:49.509Z</time></trkpt><trkpt lat="42.0893221" lon="11.7947051"><ele>7.0</ele><time>2026-04-19T13:05:51.508Z</time></trkpt><trkpt lat="42.0893776" lon="11.7945745"><ele>7.0</ele><time>2026-04-19T13:05:53.506Z</time></trkpt><trkpt lat="42.0894339" lon="11.7944611"><ele>6.999999999999999</ele><time>2026-04-19T13:05:55.508Z</time></trkpt><trkpt lat="42.0894896" lon="11.7943401"><ele>6.999999999999999</ele><time>2026-04-19T13:05:57.512Z</time></trkpt><trkpt lat="42.0895467" lon="11.7942082"><ele>7.0</ele><time>2026-04-19T13:05:59.511Z</time></trkpt><trkpt lat="42.0895983" lon="11.7940841"><ele>7.0</ele><time>2026-04-19T13:06:01.507Z</time></trkpt><trkpt lat="42.0896516" lon="11.7939791"><ele>7.166666666666667</ele><time>2026-04-19T13:06:03.512Z</time></trkpt><trkpt lat="42.0896939" lon="11.7938662"><ele>7.333333333333334</ele><time>2026-04-19T13:06:05.511Z</time></trkpt><trkpt lat="42.0897361" lon="11.7937643"><ele>7.5</ele><time>2026-04-19T13:06:07.512Z</time></trkpt><trkpt lat="42.0897857" lon="11.7936646"><ele>7.666666666666666</ele><time>2026-04-19T13:06:09.508Z</time></trkpt><trkpt lat="42.0898376" lon="11.7935598"><ele>7.833333333333333</ele><time>2026-04-19T13:06:11.505Z</time></trkpt><trkpt lat="42.0898899" lon="11.7934675"><ele>8.0</ele><time>2026-04-19T13:06:13.507Z</time></trkpt><trkpt lat="42.0899338" lon="11.7933782"><ele>7.999999999999999</ele><time>2026-04-19T13:06:15.51Z</time></trkpt><trkpt lat="42.0899723" lon="11.7932899"><ele>8.0</ele><time>2026-04-19T13:06:17.511Z</time></trkpt><trkpt lat="42.0899998" lon="11.7932044"><ele>8.0</ele><time>2026-04-19T13:06:19.508Z</time></trkpt><trkpt lat="42.0900293" lon="11.7930853"><ele>8.0</ele><time>2026-04-19T13:06:22.511Z</time></trkpt><trkpt lat="42.0900725" lon="11.7930015"><ele>7.999999999999999</ele><time>2026-04-19T13:06:25.511Z</time></trkpt><trkpt lat="42.0900964" lon="11.7929176"><ele>8.0</ele><time>2026-04-19T13:06:31.51Z</time></trkpt><trkpt lat="42.0899995" lon="11.7929029"><ele>6.999999999999999</ele><time>2026-04-19T13:06:36.507Z</time></trkpt><trkpt lat="42.0899192" lon="11.7928946"><ele>6.0</ele><time>2026-04-19T13:06:38.51Z</time></trkpt><trkpt lat="42.0898394" lon="11.792898"><ele>5.0</ele><time>2026-04-19T13:06:40.511Z</time></trkpt><trkpt lat="42.089756" lon="11.7929229"><ele>4.0</ele><time>2026-04-19T13:06:42.511Z</time></trkpt><trkpt lat="42.0896829" lon="11.7929396"><ele>3.0</ele><time>2026-04-19T13:06:44.508Z</time></trkpt><trkpt lat="42.0896151" lon="11.7929833"><ele>2.0</ele><time>2026-04-19T13:06:46.511Z</time></trkpt><trkpt lat="42.0895595" lon="11.7930391"><ele>1.9999999999999998</ele><time>2026-04-19T13:06:50.513Z</time></trkpt><trkpt lat="42.0895482" lon="11.7929389"><ele>2.0</ele><time>2026-04-19T13:08:45.508Z</time></trkpt><trkpt lat="42.0895714" lon="11.7928381"><ele>2.0</ele><time>2026-04-19T13:08:47.506Z</time></trkpt><trkpt lat="42.0895896" lon="11.792739"><ele>2.0</ele><time>2026-04-19T13:08:49.509Z</time></trkpt><trkpt lat="42.0896075" lon="11.7926558"><ele>1.9999999999999998</ele><time>2026-04-19T13:08:51.508Z</time></trkpt><trkpt lat="42.0896359" lon="11.7925508"><ele>2.0</ele><time>2026-04-19T13:08:54.506Z</time></trkpt><trkpt lat="42.0896996" lon="11.7924685"><ele>1.9999999999999998</ele><time>2026-04-19T13:08:56.508Z</time></trkpt><trkpt lat="42.0897569" lon="11.7923914"><ele>2.0</ele><time>2026-04-19T13:08:58.51Z</time></trkpt><trkpt lat="42.0897879" lon="11.792316"><ele>2.0</ele><time>2026-04-19T13:34:23.545Z</time></trkpt><trkpt lat="42.0898548" lon="11.792312"><ele>2.0</ele><time>2026-04-19T13:34:32.51Z</time></trkpt><trkpt lat="42.0898926" lon="11.7923893"><ele>1.9999999999999998</ele><time>2026-04-19T13:34:38.506Z</time></trkpt><trkpt lat="42.0899473" lon="11.7924396"><ele>2.0</ele><time>2026-04-19T13:35:15.513Z</time></trkpt><trkpt lat="42.090058" lon="11.7924385"><ele>2.0</ele><time>2026-04-19T13:35:34.942Z</time></trkpt><trkpt lat="42.0901512" lon="11.7925573"><ele>2.0</ele><time>2026-04-19T13:36:02.8Z</time></trkpt><trkpt lat="42.0900581" lon="11.7924642"><ele>2.0</ele><time>2026-04-19T13:37:09.54Z</time></trkpt><trkpt lat="42.0899998" lon="11.7923886"><ele>2.0</ele><time>2026-04-19T13:37:15.509Z</time></trkpt><trkpt lat="42.0899635" lon="11.7923097"><ele>2.0</ele><time>2026-04-19T13:37:24.528Z</time></trkpt><trkpt lat="42.0899018" lon="11.7923302"><ele>2.0</ele><time>2026-04-19T13:37:54.522Z</time></trkpt><trkpt lat="42.0898296" lon="11.7923019"><ele>1.9999999999999998</ele><time>2026-04-19T13:38:01.509Z</time></trkpt><trkpt lat="42.0897878" lon="11.792377"><ele>2.0</ele><time>2026-04-19T13:38:09.512Z</time></trkpt><trkpt lat="42.0898657" lon="11.7923939"><ele>2.0</ele><time>2026-04-19T13:42:40.6Z</time></trkpt><trkpt lat="42.0898026" lon="11.7923559"><ele>1.9999999999999998</ele><time>2026-04-19T13:44:11.59Z</time></trkpt><trkpt lat="42.0897895" lon="11.7922675"><ele>2.0</ele><time>2026-04-19T13:44:20.511Z</time></trkpt><trkpt lat="42.0898484" lon="11.7922196"><ele>2.0</ele><time>2026-04-19T13:44:30.508Z</time></trkpt><trkpt lat="42.0899038" lon="11.7922684"><ele>1.9999999999999998</ele><time>2026-04-19T13:44:37.525Z</time></trkpt><trkpt lat="42.0899083" lon="11.7923709"><ele>2.0</ele><time>2026-04-19T13:44:42.507Z</time></trkpt><trkpt lat="42.089942" lon="11.7924901"><ele>2.0</ele><time>2026-04-19T13:47:22.508Z</time></trkpt><trkpt lat="42.0899358" lon="11.7924005"><ele>2.0</ele><time>2026-04-19T13:47:55.509Z</time></trkpt><trkpt lat="42.0900028" lon="11.7922734"><ele>1.9999999999999998</ele><time>2026-04-19T13:48:56.523Z</time></trkpt><trkpt lat="42.0899712" lon="11.7923662"><ele>2.0</ele><time>2026-04-19T14:34:31.506Z</time></trkpt><trkpt lat="42.0899142" lon="11.7922937"><ele>2.8</ele><time>2026-04-19T14:34:35.5Z</time></trkpt><trkpt lat="42.0899825" lon="11.7922566"><ele>3.6</ele><time>2026-04-19T14:35:24.5Z</time></trkpt><trkpt lat="42.0900455" lon="11.792397"><ele>4.3999999999999995</ele><time>2026-04-19T14:41:41.495Z</time></trkpt><trkpt lat="42.0900076" lon="11.7922523"><ele>5.2</ele><time>2026-04-19T14:42:14.501Z</time></trkpt><trkpt lat="42.0899379" lon="11.7922119"><ele>6.0</ele><time>2026-04-19T14:43:40.505Z</time></trkpt><trkpt lat="42.0899307" lon="11.7922983"><ele>5.428571428571428</ele><time>2026-04-19T14:43:53.5Z</time></trkpt><trkpt lat="42.0898934" lon="11.7923723"><ele>4.857142857142857</ele><time>2026-04-19T14:44:03.499Z</time></trkpt><trkpt lat="42.0898261" lon="11.7923622"><ele>4.285714285714286</ele><time>2026-04-19T14:45:20.498Z</time></trkpt><trkpt lat="42.0897947" lon="11.7924368"><ele>3.714285714285714</ele><time>2026-04-19T14:45:26.497Z</time></trkpt><trkpt lat="42.0897687" lon="11.7925354"><ele>3.1428571428571423</ele><time>2026-04-19T14:45:34.502Z</time></trkpt><trkpt lat="42.0897443" lon="11.7926186"><ele>2.571428571428571</ele><time>2026-04-19T14:45:39.498Z</time></trkpt><trkpt lat="42.0897316" lon="11.792721"><ele>2.0</ele><time>2026-04-19T14:45:42.501Z</time></trkpt><trkpt lat="42.0897674" lon="11.7928062"><ele>2.0</ele><time>2026-04-19T14:45:46.503Z</time></trkpt><trkpt lat="42.0898382" lon="11.7928384"><ele>2.0</ele><time>2026-04-19T14:45:54.497Z</time></trkpt><trkpt lat="42.0898981" lon="11.7928801"><ele>2.0</ele><time>2026-04-19T14:45:59.501Z</time></trkpt><trkpt lat="42.0900485" lon="11.7929675"><ele>2.0</ele><time>2026-04-19T14:46:17.502Z</time></trkpt><trkpt lat="42.0899922" lon="11.7930501"><ele>2.0</ele><time>2026-04-19T14:46:20.498Z</time></trkpt><trkpt lat="42.0899524" lon="11.7931258"><ele>1.9999999999999998</ele><time>2026-04-19T14:46:23.501Z</time></trkpt><trkpt lat="42.0899108" lon="11.7932213"><ele>2.0</ele><time>2026-04-19T14:46:26.502Z</time></trkpt><trkpt lat="42.0898622" lon="11.7933199"><ele>2.0</ele><time>2026-04-19T14:46:29.51Z</time></trkpt><trkpt lat="42.0898286" lon="11.7934307"><ele>2.0</ele><time>2026-04-19T14:46:32.501Z</time></trkpt><trkpt lat="42.0897938" lon="11.7935374"><ele>1.9999999999999998</ele><time>2026-04-19T14:46:35.501Z</time></trkpt><trkpt lat="42.0897465" lon="11.7936437"><ele>2.0</ele><time>2026-04-19T14:46:38.499Z</time></trkpt><trkpt lat="42.0897039" lon="11.7937523"><ele>2.1666666666666665</ele><time>2026-04-19T14:46:41.5Z</time></trkpt><trkpt lat="42.0896689" lon="11.7938407"><ele>2.333333333333333</ele><time>2026-04-19T14:46:43.5Z</time></trkpt><trkpt lat="42.0896385" lon="11.7939337"><ele>2.5</ele><time>2026-04-19T14:46:45.499Z</time></trkpt><trkpt lat="42.0896054" lon="11.7940215"><ele>2.6666666666666665</ele><time>2026-04-19T14:46:47.503Z</time></trkpt><trkpt lat="42.0895559" lon="11.7941161"><ele>2.8333333333333335</ele><time>2026-04-19T14:46:49.498Z</time></trkpt><trkpt lat="42.0895059" lon="11.7942244"><ele>3.0</ele><time>2026-04-19T14:46:51.501Z</time></trkpt><trkpt lat="42.0894644" lon="11.7943167"><ele>3.666666666666667</ele><time>2026-04-19T14:46:53.559Z</time></trkpt><trkpt lat="42.0894178" lon="11.7944174"><ele>4.333333333333334</ele><time>2026-04-19T14:46:55.5Z</time></trkpt><trkpt lat="42.0893659" lon="11.7945066"><ele>5.0</ele><time>2026-04-19T14:46:57.501Z</time></trkpt><trkpt lat="42.0893258" lon="11.7945994"><ele>5.666666666666667</ele><time>2026-04-19T14:46:59.501Z</time></trkpt><trkpt lat="42.0892854" lon="11.7947015"><ele>6.333333333333334</ele><time>2026-04-19T14:47:01.5Z</time></trkpt><trkpt lat="42.089231" lon="11.7948122"><ele>7.0</ele><time>2026-04-19T14:47:03.501Z</time></trkpt><trkpt lat="42.0891859" lon="11.7949077"><ele>7.0</ele><time>2026-04-19T14:47:05.5Z</time></trkpt><trkpt lat="42.0891422" lon="11.795024"><ele>6.999999999999999</ele><time>2026-04-19T14:47:07.504Z</time></trkpt><trkpt lat="42.0890865" lon="11.7951282"><ele>6.999999999999999</ele><time>2026-04-19T14:47:09.502Z</time></trkpt><trkpt lat="42.0890156" lon="11.7952771"><ele>7.0</ele><time>2026-04-19T14:47:11.503Z</time></trkpt><trkpt lat="42.0889524" lon="11.7953947"><ele>7.0</ele><time>2026-04-19T14:47:13.5Z</time></trkpt><trkpt lat="42.0889269" lon="11.7954821"><ele>6.199999999999999</ele><time>2026-04-19T14:47:16.497Z</time></trkpt><trkpt lat="42.0888873" lon="11.7955504"><ele>5.3999999999999995</ele><time>2026-04-19T14:47:21.498Z</time></trkpt><trkpt lat="42.0888622" lon="11.795639"><ele>4.6</ele><time>2026-04-19T14:47:25.501Z</time></trkpt><trkpt lat="42.0889336" lon="11.7957142"><ele>3.8</ele><time>2026-04-19T14:47:29.499Z</time></trkpt><trkpt lat="42.0891117" lon="11.7957186"><ele>3.0</ele><time>2026-04-19T14:47:33.503Z</time></trkpt><trkpt lat="42.0891782" lon="11.7957676"><ele>4.0</ele><time>2026-04-19T14:47:35.503Z</time></trkpt><trkpt lat="42.0892372" lon="11.7958133"><ele>5.0</ele><time>2026-04-19T14:47:37.501Z</time></trkpt><trkpt lat="42.0892836" lon="11.7958812"><ele>6.0</ele><time>2026-04-19T14:47:39.502Z</time></trkpt><trkpt lat="42.089333" lon="11.7959423"><ele>7.0</ele><time>2026-04-19T14:47:41.501Z</time></trkpt><trkpt lat="42.0894756" lon="11.7960064"><ele>8.0</ele><time>2026-04-19T14:47:43.502Z</time></trkpt><trkpt lat="42.0895297" lon="11.7960694"><ele>9.0</ele><time>2026-04-19T14:47:45.5Z</time></trkpt><trkpt lat="42.0896118" lon="11.7961167"><ele>9.0</ele><time>2026-04-19T14:47:47.499Z</time></trkpt><trkpt lat="42.0896877" lon="11.7961695"><ele>9.0</ele><time>2026-04-19T14:47:49.498Z</time></trkpt><trkpt lat="42.0897954" lon="11.7961748"><ele>9.0</ele><time>2026-04-19T14:47:53.499Z</time></trkpt><trkpt lat="42.0898719" lon="11.7961472"><ele>9.0</ele><time>2026-04-19T14:47:55.503Z</time></trkpt><trkpt lat="42.0900795" lon="11.7961016"><ele>9.666666666666666</ele><time>2026-04-19T14:47:59.499Z</time></trkpt><trkpt lat="42.090172" lon="11.7960765"><ele>10.333333333333332</ele><time>2026-04-19T14:48:01.5Z</time></trkpt><trkpt lat="42.0902298" lon="11.7959918"><ele>11.0</ele><time>2026-04-19T14:48:03.5Z</time></trkpt><trkpt lat="42.0903057" lon="11.7959821"><ele>11.666666666666666</ele><time>2026-04-19T14:48:05.512Z</time></trkpt><trkpt lat="42.090403" lon="11.7959806"><ele>12.333333333333332</ele><time>2026-04-19T14:48:07.501Z</time></trkpt><trkpt lat="42.0904703" lon="11.7959673"><ele>13.0</ele><time>2026-04-19T14:48:09.499Z</time></trkpt><trkpt lat="42.0905434" lon="11.7959352"><ele>12.999999999999998</ele><time>2026-04-19T14:48:11.5Z</time></trkpt><trkpt lat="42.0906256" lon="11.795917"><ele>13.0</ele><time>2026-04-19T14:48:13.499Z</time></trkpt><trkpt lat="42.0906962" lon="11.7959073"><ele>13.0</ele><time>2026-04-19T14:48:15.5Z</time></trkpt><trkpt lat="42.0907794" lon="11.7959446"><ele>13.0</ele><time>2026-04-19T14:48:18.5Z</time></trkpt><trkpt lat="42.090801" lon="11.7960328"><ele>12.999999999999998</ele><time>2026-04-19T14:48:20.5Z</time></trkpt><trkpt lat="42.0907936" lon="11.796146"><ele>13.0</ele><time>2026-04-19T14:48:23.498Z</time></trkpt><trkpt lat="42.0907235" lon="11.7962208"><ele>13.0</ele><time>2026-04-19T14:48:26.499Z</time></trkpt><trkpt lat="42.0906527" lon="11.7962786"><ele>13.0</ele><time>2026-04-19T14:48:28.503Z</time></trkpt><trkpt lat="42.0905792" lon="11.7963276"><ele>13.0</ele><time>2026-04-19T14:48:30.498Z</time></trkpt><trkpt lat="42.0905013" lon="11.7963652"><ele>13.0</ele><time>2026-04-19T14:48:33.501Z</time></trkpt><trkpt lat="42.0904381" lon="11.7964655"><ele>13.0</ele><time>2026-04-19T14:48:35.503Z</time></trkpt><trkpt lat="42.0903664" lon="11.7965811"><ele>12.999999999999998</ele><time>2026-04-19T14:48:37.502Z</time></trkpt><trkpt lat="42.0903051" lon="11.7966631"><ele>13.0</ele><time>2026-04-19T14:48:38.5Z</time></trkpt><trkpt lat="42.0902266" lon="11.7967608"><ele>13.0</ele><time>2026-04-19T14:48:39.499Z</time></trkpt><trkpt lat="42.0901804" lon="11.7968695"><ele>13.0</ele><time>2026-04-19T14:48:40.498Z</time></trkpt><trkpt lat="42.0901353" lon="11.7969377"><ele>12.999999999999998</ele><time>2026-04-19T14:48:41.502Z</time></trkpt><trkpt lat="42.0900937" lon="11.7970385"><ele>13.0</ele><time>2026-04-19T14:48:43.503Z</time></trkpt><trkpt lat="42.0900638" lon="11.7971465"><ele>13.166666666666666</ele><time>2026-04-19T14:48:46.501Z</time></trkpt><trkpt lat="42.090023" lon="11.7972139"><ele>13.333333333333332</ele><time>2026-04-19T14:48:49.502Z</time></trkpt><trkpt lat="42.0899822" lon="11.7973279"><ele>13.5</ele><time>2026-04-19T14:48:53.504Z</time></trkpt><trkpt lat="42.089933" lon="11.7974272"><ele>13.666666666666668</ele><time>2026-04-19T14:48:56.5Z</time></trkpt><trkpt lat="42.0898774" lon="11.7975301"><ele>13.833333333333334</ele><time>2026-04-19T14:48:59.499Z</time></trkpt><trkpt lat="42.0898366" lon="11.7976101"><ele>14.0</ele><time>2026-04-19T14:49:00.498Z</time></trkpt><trkpt lat="42.0898032" lon="11.7977067"><ele>13.500000000000002</ele><time>2026-04-19T14:49:02.503Z</time></trkpt><trkpt lat="42.089739" lon="11.7978357"><ele>13.0</ele><time>2026-04-19T14:49:04.501Z</time></trkpt><trkpt lat="42.0896943" lon="11.7979274"><ele>12.5</ele><time>2026-04-19T14:49:06.498Z</time></trkpt><trkpt lat="42.0896771" lon="11.7980198"><ele>12.0</ele><time>2026-04-19T14:49:08.501Z</time></trkpt><trkpt lat="42.0896323" lon="11.7980983"><ele>11.5</ele><time>2026-04-19T14:49:13.497Z</time></trkpt><trkpt lat="42.0895655" lon="11.7981636"><ele>11.0</ele><time>2026-04-19T14:49:16.509Z</time></trkpt><trkpt lat="42.0895083" lon="11.7982119"><ele>11.0</ele><time>2026-04-19T14:49:19.5Z</time></trkpt><trkpt lat="42.0894495" lon="11.7983062"><ele>11.0</ele><time>2026-04-19T14:49:21.498Z</time></trkpt><trkpt lat="42.0893858" lon="11.7984168"><ele>11.0</ele><time>2026-04-19T14:49:23.499Z</time></trkpt><trkpt lat="42.0893195" lon="11.7985141"><ele>11.0</ele><time>2026-04-19T14:49:25.499Z</time></trkpt><trkpt lat="42.0892572" lon="11.7986004"><ele>11.0</ele><time>2026-04-19T14:49:27.504Z</time></trkpt><trkpt lat="42.0891917" lon="11.7986714"><ele>11.142857142857142</ele><time>2026-04-19T14:49:29.502Z</time></trkpt><trkpt lat="42.0891453" lon="11.7987412"><ele>11.285714285714285</ele><time>2026-04-19T14:49:31.508Z</time></trkpt><trkpt lat="42.0891063" lon="11.798812"><ele>11.428571428571427</ele><time>2026-04-19T14:49:33.499Z</time></trkpt><trkpt lat="42.0890352" lon="11.7988179"><ele>11.571428571428571</ele><time>2026-04-19T14:49:38.498Z</time></trkpt><trkpt lat="42.0889732" lon="11.7987917"><ele>11.714285714285714</ele><time>2026-04-19T14:49:44.499Z</time></trkpt><trkpt lat="42.0889153" lon="11.7987443"><ele>11.857142857142856</ele><time>2026-04-19T14:49:56.5Z</time></trkpt><trkpt lat="42.0888864" lon="11.7986612"><ele>12.0</ele><time>2026-04-19T14:50:04.498Z</time></trkpt><trkpt lat="42.0889074" lon="11.7987485"><ele>11.999999999999998</ele><time>2026-04-19T14:51:55.503Z</time></trkpt><trkpt lat="42.0889362" lon="11.7988257"><ele>12.0</ele><time>2026-04-19T14:52:03.501Z</time></trkpt><trkpt lat="42.0889084" lon="11.7987452"><ele>12.0</ele><time>2026-04-19T14:52:15.545Z</time></trkpt><trkpt lat="42.0888843" lon="11.7986629"><ele>12.0</ele><time>2026-04-19T14:54:04.504Z</time></trkpt><trkpt lat="42.0889499" lon="11.7986784"><ele>12.0</ele><time>2026-04-19T15:01:33.495Z</time></trkpt><trkpt lat="42.0890172" lon="11.7986234"><ele>11.999999999999998</ele><time>2026-04-19T15:01:34.496Z</time></trkpt><trkpt lat="42.0890819" lon="11.7985865"><ele>12.0</ele><time>2026-04-19T15:01:36.499Z</time></trkpt><trkpt lat="42.0891731" lon="11.798584"><ele>12.0</ele><time>2026-04-19T15:01:38.504Z</time></trkpt><trkpt lat="42.0892388" lon="11.7985552"><ele>12.0</ele><time>2026-04-19T15:01:40.496Z</time></trkpt><trkpt lat="42.0893186" lon="11.798495"><ele>12.0</ele><time>2026-04-19T15:01:43.499Z</time></trkpt><trkpt lat="42.0893676" lon="11.7984192"><ele>12.0</ele><time>2026-04-19T15:01:46.495Z</time></trkpt><trkpt lat="42.0893895" lon="11.7983363"><ele>12.0</ele><time>2026-04-19T15:01:49.499Z</time></trkpt><trkpt lat="42.0894065" lon="11.7982424"><ele>12.0</ele><time>2026-04-19T15:01:52.499Z</time></trkpt><trkpt lat="42.0894406" lon="11.7981384"><ele>11.666666666666666</ele><time>2026-04-19T15:01:57.5Z</time></trkpt><trkpt lat="42.089626" lon="11.7979469"><ele>11.333333333333332</ele><time>2026-04-19T15:01:58.5Z</time></trkpt><trkpt lat="42.089636" lon="11.7977897"><ele>11.0</ele><time>2026-04-19T15:01:59.5Z</time></trkpt><trkpt lat="42.0898344" lon="11.7977715"><ele>11.0</ele><time>2026-04-19T15:02:10.496Z</time></trkpt><trkpt lat="42.0898867" lon="11.7978261"><ele>11.0</ele><time>2026-04-19T15:02:11.498Z</time></trkpt><trkpt lat="42.0899513" lon="11.7978879"><ele>11.0</ele><time>2026-04-19T15:02:12.497Z</time></trkpt><trkpt lat="42.0901171" lon="11.7979641"><ele>11.0</ele><time>2026-04-19T15:02:13.496Z</time></trkpt><trkpt lat="42.0902081" lon="11.7980074"><ele>11.0</ele><time>2026-04-19T15:02:14.497Z</time></trkpt><trkpt lat="42.0902159" lon="11.7981122"><ele>11.4</ele><time>2026-04-19T15:02:17.502Z</time></trkpt><trkpt lat="42.0902631" lon="11.7981903"><ele>11.8</ele><time>2026-04-19T15:02:19.496Z</time></trkpt><trkpt lat="42.0903596" lon="11.7982317"><ele>12.200000000000001</ele><time>2026-04-19T15:02:23.499Z</time></trkpt><trkpt lat="42.090432" lon="11.7982055"><ele>12.600000000000001</ele><time>2026-04-19T15:02:26.498Z</time></trkpt><trkpt lat="42.090498" lon="11.798141"><ele>13.0</ele><time>2026-04-19T15:02:28.498Z</time></trkpt><trkpt lat="42.0905427" lon="11.7979713"><ele>13.0</ele><time>2026-04-19T15:02:29.498Z</time></trkpt><trkpt lat="42.0906048" lon="11.7978381"><ele>13.0</ele><time>2026-04-19T15:02:31.501Z</time></trkpt><trkpt lat="42.0906705" lon="11.7977457"><ele>13.0</ele><time>2026-04-19T15:02:33.553Z</time></trkpt><trkpt lat="42.0906883" lon="11.7976548"><ele>13.0</ele><time>2026-04-19T15:02:34.5Z</time></trkpt><trkpt lat="42.0907319" lon="11.7975538"><ele>13.0</ele><time>2026-04-19T15:02:36.499Z</time></trkpt><trkpt lat="42.0907695" lon="11.7974252"><ele>13.2</ele><time>2026-04-19T15:02:38.501Z</time></trkpt><trkpt lat="42.0907959" lon="11.7973074"><ele>13.4</ele><time>2026-04-19T15:02:41.496Z</time></trkpt><trkpt lat="42.0908496" lon="11.7972461"><ele>13.599999999999998</ele><time>2026-04-19T15:02:45.502Z</time></trkpt><trkpt lat="42.0909259" lon="11.7972726"><ele>13.799999999999999</ele><time>2026-04-19T15:02:50.497Z</time></trkpt><trkpt lat="42.0909795" lon="11.7973749"><ele>14.0</ele><time>2026-04-19T15:02:52.498Z</time></trkpt><trkpt lat="42.0910682" lon="11.7974843"><ele>14.0</ele><time>2026-04-19T15:02:54.497Z</time></trkpt><trkpt lat="42.091137" lon="11.7975649"><ele>13.999999999999998</ele><time>2026-04-19T15:02:56.498Z</time></trkpt><trkpt lat="42.0911875" lon="11.7976181"><ele>13.999999999999998</ele><time>2026-04-19T15:02:58.499Z</time></trkpt><trkpt lat="42.0913076" lon="11.7976517"><ele>14.0</ele><time>2026-04-19T15:03:11.5Z</time></trkpt><trkpt lat="42.0914084" lon="11.7977142"><ele>14.0</ele><time>2026-04-19T15:03:13.495Z</time></trkpt><trkpt lat="42.0914869" lon="11.7977894"><ele>14.333333333333334</ele><time>2026-04-19T15:03:15.497Z</time></trkpt><trkpt lat="42.0915493" lon="11.7978591"><ele>14.666666666666668</ele><time>2026-04-19T15:03:17.499Z</time></trkpt><trkpt lat="42.0916302" lon="11.7979031"><ele>15.0</ele><time>2026-04-19T15:03:18.498Z</time></trkpt><trkpt lat="42.0917103" lon="11.7979664"><ele>15.333333333333332</ele><time>2026-04-19T15:03:20.496Z</time></trkpt><trkpt lat="42.0917583" lon="11.7980279"><ele>15.666666666666666</ele><time>2026-04-19T15:03:21.497Z</time></trkpt><trkpt lat="42.0918119" lon="11.7980735"><ele>16.0</ele><time>2026-04-19T15:03:22.497Z</time></trkpt><trkpt lat="42.0918728" lon="11.7981105"><ele>16.8</ele><time>2026-04-19T15:03:23.498Z</time></trkpt><trkpt lat="42.0919518" lon="11.7981271"><ele>17.6</ele><time>2026-04-19T15:03:26.499Z</time></trkpt><trkpt lat="42.092032" lon="11.7982184"><ele>18.4</ele><time>2026-04-19T15:03:28.498Z</time></trkpt><trkpt lat="42.0920936" lon="11.7982524"><ele>19.2</ele><time>2026-04-19T15:03:29.495Z</time></trkpt><trkpt lat="42.09225" lon="11.798371"><ele>20.0</ele><time>2026-04-19T15:03:31.501Z</time></trkpt><trkpt lat="42.0923101" lon="11.7984208"><ele>20.4</ele><time>2026-04-19T15:03:32.5Z</time></trkpt><trkpt lat="42.0924611" lon="11.7985619"><ele>20.8</ele><time>2026-04-19T15:03:33.5Z</time></trkpt><trkpt lat="42.0925374" lon="11.7985906"><ele>21.200000000000003</ele><time>2026-04-19T15:03:34.495Z</time></trkpt><trkpt lat="42.0924801" lon="11.7986545"><ele>21.6</ele><time>2026-04-19T15:03:44.501Z</time></trkpt><trkpt lat="42.0925022" lon="11.7987697"><ele>22.0</ele><time>2026-04-19T15:03:48.499Z</time></trkpt><trkpt lat="42.09254" lon="11.7988458"><ele>22.0</ele><time>2026-04-19T15:03:50.575Z</time></trkpt><trkpt lat="42.0926005" lon="11.7989234"><ele>22.0</ele><time>2026-04-19T15:03:52.5Z</time></trkpt><trkpt lat="42.0926706" lon="11.7989635"><ele>22.0</ele><time>2026-04-19T15:03:53.499Z</time></trkpt><trkpt lat="42.0927878" lon="11.7990032"><ele>22.0</ele><time>2026-04-19T15:04:04.5Z</time></trkpt><trkpt lat="42.0927751" lon="11.7991253"><ele>22.0</ele><time>2026-04-19T15:04:06.496Z</time></trkpt><trkpt lat="42.0927574" lon="11.7992594"><ele>22.400000000000002</ele><time>2026-04-19T15:04:08.502Z</time></trkpt><trkpt lat="42.0926706" lon="11.7993362"><ele>22.8</ele><time>2026-04-19T15:04:09.531Z</time></trkpt><trkpt lat="42.0926128" lon="11.7993973"><ele>23.2</ele><time>2026-04-19T15:04:10.6Z</time></trkpt><trkpt lat="42.0925877" lon="11.7994858"><ele>23.6</ele><time>2026-04-19T15:04:11.602Z</time></trkpt><trkpt lat="42.0925205" lon="11.7996408"><ele>24.0</ele><time>2026-04-19T15:04:13.499Z</time></trkpt><trkpt lat="42.0924559" lon="11.7997169"><ele>24.0</ele><time>2026-04-19T15:04:14.497Z</time></trkpt><trkpt lat="42.0923988" lon="11.7998168"><ele>24.0</ele><time>2026-04-19T15:04:16.501Z</time></trkpt><trkpt lat="42.0923399" lon="11.7999637"><ele>24.0</ele><time>2026-04-19T15:04:18.499Z</time></trkpt><trkpt lat="42.0922936" lon="11.8000371"><ele>24.0</ele><time>2026-04-19T15:04:19.5Z</time></trkpt><trkpt lat="42.0922504" lon="11.8001101"><ele>24.0</ele><time>2026-04-19T15:04:20.502Z</time></trkpt><trkpt lat="42.0921819" lon="11.8002895"><ele>24.0</ele><time>2026-04-19T15:04:22.498Z</time></trkpt><trkpt lat="42.0921126" lon="11.8003909"><ele>24.0</ele><time>2026-04-19T15:04:23.499Z</time></trkpt><trkpt lat="42.0920432" lon="11.8004713"><ele>24.0</ele><time>2026-04-19T15:04:24.501Z</time></trkpt><trkpt lat="42.0919905" lon="11.8005662"><ele>24.0</ele><time>2026-04-19T15:04:25.498Z</time></trkpt><trkpt lat="42.0919378" lon="11.8006346"><ele>24.0</ele><time>2026-04-19T15:04:26.499Z</time></trkpt><trkpt lat="42.0918753" lon="11.8007187"><ele>24.0</ele><time>2026-04-19T15:04:27.499Z</time></trkpt><trkpt lat="42.0918502" lon="11.8008059"><ele>24.0</ele><time>2026-04-19T15:04:28.501Z</time></trkpt><trkpt lat="42.091765" lon="11.8009052"><ele>24.0</ele><time>2026-04-19T15:04:30.502Z</time></trkpt><trkpt lat="42.0916783" lon="11.801039"><ele>24.0</ele><time>2026-04-19T15:04:32.498Z</time></trkpt><trkpt lat="42.0915907" lon="11.8011611"><ele>24.0</ele><time>2026-04-19T15:04:34.5Z</time></trkpt><trkpt lat="42.0915315" lon="11.8012594"><ele>24.0</ele><time>2026-04-19T15:04:35.5Z</time></trkpt><trkpt lat="42.0914745" lon="11.8013603"><ele>24.0</ele><time>2026-04-19T15:04:36.5Z</time></trkpt><trkpt lat="42.0914232" lon="11.8014404"><ele>24.0</ele><time>2026-04-19T15:04:37.499Z</time></trkpt><trkpt lat="42.0913714" lon="11.8014993"><ele>24.0</ele><time>2026-04-19T15:04:38.5Z</time></trkpt><trkpt lat="42.0912731" lon="11.8015682"><ele>24.0</ele><time>2026-04-19T15:04:40.569Z</time></trkpt><trkpt lat="42.0911817" lon="11.8016696"><ele>24.0</ele><time>2026-04-19T15:04:42.608Z</time></trkpt><trkpt lat="42.091124" lon="11.8017352"><ele>24.0</ele><time>2026-04-19T15:04:43.571Z</time></trkpt><trkpt lat="42.0910671" lon="11.8018479"><ele>24.0</ele><time>2026-04-19T15:04:45.5Z</time></trkpt><trkpt lat="42.0911023" lon="11.8019437"><ele>24.0</ele><time>2026-04-19T15:04:52.5Z</time></trkpt><trkpt lat="42.0911117" lon="11.8020344"><ele>24.0</ele><time>2026-04-19T15:04:55.495Z</time></trkpt><trkpt lat="42.0911205" lon="11.8021816"><ele>24.0</ele><time>2026-04-19T15:04:58.498Z</time></trkpt><trkpt lat="42.0911476" lon="11.8023169"><ele>24.5</ele><time>2026-04-19T15:04:59.495Z</time></trkpt><trkpt lat="42.091154" lon="11.8025059"><ele>25.0</ele><time>2026-04-19T15:05:01.502Z</time></trkpt><trkpt lat="42.0911653" lon="11.8026118"><ele>25.5</ele><time>2026-04-19T15:05:03.497Z</time></trkpt><trkpt lat="42.0911885" lon="11.8027684"><ele>26.0</ele><time>2026-04-19T15:05:06.5Z</time></trkpt><trkpt lat="42.0911945" lon="11.8029609"><ele>26.0</ele><time>2026-04-19T15:05:08.5Z</time></trkpt><trkpt lat="42.0912251" lon="11.8032031"><ele>26.0</ele><time>2026-04-19T15:05:10.499Z</time></trkpt><trkpt lat="42.091193" lon="11.8032918"><ele>26.0</ele><time>2026-04-19T15:05:11.499Z</time></trkpt><trkpt lat="42.0912144" lon="11.8034754"><ele>26.0</ele><time>2026-04-19T15:05:12.501Z</time></trkpt><trkpt lat="42.0912819" lon="11.8034932"><ele>26.333333333333332</ele><time>2026-04-19T15:05:14.578Z</time></trkpt><trkpt lat="42.091328" lon="11.8036461"><ele>26.666666666666664</ele><time>2026-04-19T15:05:15.606Z</time></trkpt><trkpt lat="42.0913126" lon="11.8038777"><ele>27.0</ele><time>2026-04-19T15:05:17.497Z</time></trkpt><trkpt lat="42.0914597" lon="11.8040208"><ele>27.0</ele><time>2026-04-19T15:05:21.499Z</time></trkpt><trkpt lat="42.0914702" lon="11.804271"><ele>27.0</ele><time>2026-04-19T15:05:23.501Z</time></trkpt><trkpt lat="42.091543" lon="11.8045107"><ele>27.0</ele><time>2026-04-19T15:05:24.498Z</time></trkpt><trkpt lat="42.0916525" lon="11.8050055"><ele>28.666666666666664</ele><time>2026-04-19T15:05:27.498Z</time></trkpt><trkpt lat="42.0917284" lon="11.8051676"><ele>30.333333333333332</ele><time>2026-04-19T15:05:28.498Z</time></trkpt><trkpt lat="42.0917724" lon="11.8052998"><ele>32.0</ele><time>2026-04-19T15:05:29.499Z</time></trkpt><trkpt lat="42.0918067" lon="11.8055945"><ele>32.0</ele><time>2026-04-19T15:05:31.5Z</time></trkpt><trkpt lat="42.0919421" lon="11.8058908"><ele>32.0</ele><time>2026-04-19T15:05:32.498Z</time></trkpt><trkpt lat="42.0919983" lon="11.8060263"><ele>32.0</ele><time>2026-04-19T15:05:33.499Z</time></trkpt><trkpt lat="42.0918979" lon="11.8060356"><ele>32.25</ele><time>2026-04-19T15:05:34.499Z</time></trkpt><trkpt lat="42.0919179" lon="11.8062106"><ele>32.5</ele><time>2026-04-19T15:05:35.498Z</time></trkpt><trkpt lat="42.0920005" lon="11.8064802"><ele>32.75</ele><time>2026-04-19T15:05:41.499Z</time></trkpt><trkpt lat="42.0919994" lon="11.8066074"><ele>33.0</ele><time>2026-04-19T15:05:44.6Z</time></trkpt><trkpt lat="42.0919924" lon="11.8068577"><ele>33.0</ele><time>2026-04-19T15:05:46.498Z</time></trkpt><trkpt lat="42.0919498" lon="11.8070829"><ele>33.0</ele><time>2026-04-19T15:05:47.5Z</time></trkpt><trkpt lat="42.0919068" lon="11.807168"><ele>33.0</ele><time>2026-04-19T15:05:48.499Z</time></trkpt><trkpt lat="42.0918337" lon="11.8071749"><ele>33.0</ele><time>2026-04-19T15:05:49.499Z</time></trkpt><trkpt lat="42.091514" lon="11.8076134"><ele>33.0</ele><time>2026-04-19T15:05:52.499Z</time></trkpt><trkpt lat="42.0914638" lon="11.807347"><ele>33.0</ele><time>2026-04-19T15:05:53.5Z</time></trkpt><trkpt lat="42.0913862" lon="11.8073009"><ele>33.0</ele><time>2026-04-19T15:05:54.574Z</time></trkpt><trkpt lat="42.0913074" lon="11.8073551"><ele>33.0</ele><time>2026-04-19T15:05:55.577Z</time></trkpt><trkpt lat="42.0912014" lon="11.8072972"><ele>33.0</ele><time>2026-04-19T15:05:57.499Z</time></trkpt><trkpt lat="42.0911108" lon="11.807307"><ele>33.0</ele><time>2026-04-19T15:05:58.499Z</time></trkpt><trkpt lat="42.0910235" lon="11.8073155"><ele>33.0</ele><time>2026-04-19T15:06:00.498Z</time></trkpt><trkpt lat="42.0909554" lon="11.8073392"><ele>33.0</ele><time>2026-04-19T15:06:02.5Z</time></trkpt><trkpt lat="42.0908861" lon="11.8073565"><ele>33.0</ele><time>2026-04-19T15:06:05.502Z</time></trkpt><trkpt lat="42.0908133" lon="11.8073874"><ele>33.0</ele><time>2026-04-19T15:06:08.496Z</time></trkpt><trkpt lat="42.0908666" lon="11.8073201"><ele>33.0</ele><time>2026-04-19T15:06:15.501Z</time></trkpt></trkseg></trk></gpx>